<?xml version='1.0' encoding='UTF-8'?><gpx version="1.1" creator="JPX - https://github.com/jenetics/jpx" xmlns="http://www.topografix.com/GPX/1/1"><trk><trkseg><trkpt lat="43.25514787080133" lon="12.024834877150465"><ele>279.0</ele><time>2026-04-19T08:37:53Z</time></trkpt><trkpt lat="43.255108143582675" lon="12.02502935965102"><ele>279.0</ele><time>2026-04-19T08:37:55Z</time></trkpt><trkpt lat="43.255084876552935" lon="12.025139049486286"><ele>279.0</ele><time>2026-04-19T08:37:56Z</time></trkpt><trkpt lat="43.255057762009606" lon="12.025255795641666"><ele>279.0</ele><time>2026-04-19T08:37:57Z</time></trkpt><trkpt lat="43.25502934406559" lon="12.025374536716507"><ele>279.0</ele><time>2026-04-19T08:37:58Z</time></trkpt><trkpt lat="43.254998278151845" lon="12.025494922868148"><ele>279.0</ele><time>2026-04-19T08:37:59Z</time></trkpt><trkpt lat="43.254967585824005" lon="12.025621823180645"><ele>279.0</ele><time>2026-04-19T08:38:00Z</time></trkpt><trkpt lat="43.25493597886567" lon="12.025752920446482"><ele>279.0</ele><time>2026-04-19T08:38:01Z</time></trkpt><trkpt lat="43.254900783413504" lon="12.025884464475963"><ele>279.0</ele><time>2026-04-19T08:38:02Z</time></trkpt><trkpt lat="43.254862888255616" lon="12.02601815586222"><ele>279.0</ele><time>2026-04-19T08:38:03Z</time></trkpt><trkpt lat="43.254822560729785" lon="12.02614948745392"><ele>279.5</ele><time>2026-04-19T08:38:04Z</time></trkpt><trkpt lat="43.25477877698838" lon="12.026283554536715"><ele>280.0</ele><time>2026-04-19T08:38:05Z</time></trkpt><trkpt lat="43.254731220459945" lon="12.026421535044726"><ele>280.5</ele><time>2026-04-19T08:38:06Z</time></trkpt><trkpt lat="43.25467849196388" lon="12.026565713478318"><ele>281.0</ele><time>2026-04-19T08:38:07Z</time></trkpt><trkpt lat="43.254624203407" lon="12.026709712826191"><ele>281.0</ele><time>2026-04-19T08:38:08Z</time></trkpt><trkpt lat="43.254565370283984" lon="12.026863595796303"><ele>281.0</ele><time>2026-04-19T08:38:09Z</time></trkpt><trkpt lat="43.25450238572472" lon="12.027025386105269"><ele>281.0</ele><time>2026-04-19T08:38:10Z</time></trkpt><trkpt lat="43.254437512887954" lon="12.027184751924345"><ele>281.0</ele><time>2026-04-19T08:38:11Z</time></trkpt><trkpt lat="43.25437536932149" lon="12.027336394320958"><ele>281.0</ele><time>2026-04-19T08:38:12Z</time></trkpt><trkpt lat="43.25431537098088" lon="12.027484591962976"><ele>281.0</ele><time>2026-04-19T08:38:13Z</time></trkpt><trkpt lat="43.2542578221683" lon="12.027632588905432"><ele>281.0</ele><time>2026-04-19T08:38:14Z</time></trkpt><trkpt lat="43.254203450148296" lon="12.027773334853245"><ele>281.0</ele><time>2026-04-19T08:38:15Z</time></trkpt><trkpt lat="43.25413475641069" lon="12.027901038028878"><ele>281.0</ele><time>2026-04-19T08:38:16Z</time></trkpt><trkpt lat="43.25409806798167" lon="12.028053337442019"><ele>281.0</ele><time>2026-04-19T08:38:17Z</time></trkpt><trkpt lat="43.25404366104962" lon="12.028191816935845"><ele>281.0</ele><time>2026-04-19T08:38:18Z</time></trkpt><trkpt lat="43.253986471464295" lon="12.02833214602088"><ele>281.0</ele><time>2026-04-19T08:38:19Z</time></trkpt><trkpt lat="43.25392871824326" lon="12.028472659708646"><ele>280.6</ele><time>2026-04-19T08:38:20Z</time></trkpt><trkpt lat="43.25387071997752" lon="12.028621028229683"><ele>280.20000000000005</ele><time>2026-04-19T08:38:21Z</time></trkpt><trkpt lat="43.2538177716007" lon="12.02874692583884"><ele>279.79999999999995</ele><time>2026-04-19T08:38:22Z</time></trkpt><trkpt lat="43.253767850918905" lon="12.02886970437818"><ele>279.4</ele><time>2026-04-19T08:38:23Z</time></trkpt><trkpt lat="43.253716421575916" lon="12.029001537177724"><ele>279.0</ele><time>2026-04-19T08:38:24Z</time></trkpt><trkpt lat="43.253669757643614" lon="12.029120398548601"><ele>279.0</ele><time>2026-04-19T08:38:25Z</time></trkpt><trkpt lat="43.25362744859333" lon="12.029221322207645"><ele>279.0</ele><time>2026-04-19T08:38:26Z</time></trkpt><trkpt lat="43.25358591113976" lon="12.029313731288735"><ele>279.0</ele><time>2026-04-19T08:38:27Z</time></trkpt><trkpt lat="43.25355225947391" lon="12.029387528136276"><ele>279.0</ele><time>2026-04-19T08:38:28Z</time></trkpt><trkpt lat="43.253508671786754" lon="12.029495910266933"><ele>279.0</ele><time>2026-04-19T08:38:30Z</time></trkpt><trkpt lat="43.253450367865476" lon="12.029575386615557"><ele>279.0</ele><time>2026-04-19T08:38:33Z</time></trkpt><trkpt lat="43.253543267150334" lon="12.029564364110248"><ele>279.0</ele><time>2026-04-19T08:38:40Z</time></trkpt><trkpt lat="43.25353420374275" lon="12.029448006622626"><ele>279.0</ele><time>2026-04-19T08:38:42Z</time></trkpt><trkpt lat="43.253605824619754" lon="12.029360908946535"><ele>279.0</ele><time>2026-04-19T08:38:44Z</time></trkpt><trkpt lat="43.253641306033295" lon="12.029257989129594"><ele>279.0</ele><time>2026-04-19T08:38:46Z</time></trkpt><trkpt lat="43.25367739774332" lon="12.029170797849314"><ele>279.0</ele><time>2026-04-19T08:38:49Z</time></trkpt><trkpt lat="43.2536220402028" lon="12.029087204411917"><ele>279.0</ele><time>2026-04-19T08:38:52Z</time></trkpt><trkpt lat="43.25352230170753" lon="12.029084260859124"><ele>279.0</ele><time>2026-04-19T08:38:53Z</time></trkpt><trkpt lat="43.253432055941914" lon="12.029095121355315"><ele>279.0</ele><time>2026-04-19T08:38:54Z</time></trkpt><trkpt lat="43.253340935102024" lon="12.029092274153001"><ele>279.0</ele><time>2026-04-19T08:38:55Z</time></trkpt><trkpt lat="43.25323942450902" lon="12.029078076966085"><ele>279.0</ele><time>2026-04-19T08:38:56Z</time></trkpt><trkpt lat="43.25316047484297" lon="12.029057430695948"><ele>279.0</ele><time>2026-04-19T08:38:57Z</time></trkpt><trkpt lat="43.25309744344019" lon="12.029036998743065"><ele>279.0</ele><time>2026-04-19T08:38:58Z</time></trkpt><trkpt lat="43.253019828321634" lon="12.029015431640172"><ele>278.0</ele><time>2026-04-19T08:39:00Z</time></trkpt><trkpt lat="43.25294317570751" lon="12.029058368246984"><ele>277.0</ele><time>2026-04-19T08:39:02Z</time></trkpt><trkpt lat="43.25286663182674" lon="12.029108919151321"><ele>276.0</ele><time>2026-04-19T08:39:03Z</time></trkpt><trkpt lat="43.25275844481735" lon="12.029142308471297"><ele>275.0</ele><time>2026-04-19T08:39:04Z</time></trkpt><trkpt lat="43.25263773343941" lon="12.029163518840031"><ele>274.0</ele><time>2026-04-19T08:39:05Z</time></trkpt><trkpt lat="43.25251116390238" lon="12.029198522710539"><ele>274.0</ele><time>2026-04-19T08:39:06Z</time></trkpt><trkpt lat="43.25239319047643" lon="12.029244902421302"><ele>274.0</ele><time>2026-04-19T08:39:07Z</time></trkpt><trkpt lat="43.2522869765606" lon="12.029275096765888"><ele>274.0</ele><time>2026-04-19T08:39:08Z</time></trkpt><trkpt lat="43.25219423137281" lon="12.02930782078836"><ele>274.0</ele><time>2026-04-19T08:39:09Z</time></trkpt><trkpt lat="43.25210480355243" lon="12.029360886697955"><ele>274.0</ele><time>2026-04-19T08:39:10Z</time></trkpt><trkpt lat="43.252008950305566" lon="12.029382971173883"><ele>273.25</ele><time>2026-04-19T08:39:11Z</time></trkpt><trkpt lat="43.251927935887664" lon="12.02945420197225"><ele>272.5</ele><time>2026-04-19T08:39:12Z</time></trkpt><trkpt lat="43.2518337199741" lon="12.02954529103596"><ele>271.75</ele><time>2026-04-19T08:39:13Z</time></trkpt><trkpt lat="43.25173546010601" lon="12.029648695892265"><ele>271.0</ele><time>2026-04-19T08:39:14Z</time></trkpt><trkpt lat="43.25163389020315" lon="12.029745046716998"><ele>271.0</ele><time>2026-04-19T08:39:15Z</time></trkpt><trkpt lat="43.25153028039381" lon="12.029860284188969"><ele>271.0</ele><time>2026-04-19T08:39:16Z</time></trkpt><trkpt lat="43.251412535104826" lon="12.029958337337455"><ele>271.0</ele><time>2026-04-19T08:39:17Z</time></trkpt><trkpt lat="43.251300436901" lon="12.030063218775982"><ele>271.0</ele><time>2026-04-19T08:39:18Z</time></trkpt><trkpt lat="43.25120048042158" lon="12.030179966856458"><ele>270.75</ele><time>2026-04-19T08:39:19Z</time></trkpt><trkpt lat="43.2510915808249" lon="12.030272337542826"><ele>270.5</ele><time>2026-04-19T08:39:20Z</time></trkpt><trkpt lat="43.25097742213358" lon="12.030388648189785"><ele>270.25</ele><time>2026-04-19T08:39:21Z</time></trkpt><trkpt lat="43.25085546742773" lon="12.030501716354824"><ele>270.0</ele><time>2026-04-19T08:39:22Z</time></trkpt><trkpt lat="43.25072327473681" lon="12.030618862031703"><ele>270.0</ele><time>2026-04-19T08:39:23Z</time></trkpt><trkpt lat="43.2506017319684" lon="12.030734880401486"><ele>270.0</ele><time>2026-04-19T08:39:24Z</time></trkpt><trkpt lat="43.25047383196001" lon="12.030853871975195"><ele>270.0</ele><time>2026-04-19T08:39:25Z</time></trkpt><trkpt lat="43.25036219343314" lon="12.030959680292192"><ele>270.0</ele><time>2026-04-19T08:39:26Z</time></trkpt><trkpt lat="43.25025168957531" lon="12.031069765042119"><ele>270.25</ele><time>2026-04-19T08:39:27Z</time></trkpt><trkpt lat="43.25014178310377" lon="12.031175318687334"><ele>270.5</ele><time>2026-04-19T08:39:28Z</time></trkpt><trkpt lat="43.25002553870242" lon="12.031258604500753"><ele>270.75</ele><time>2026-04-19T08:39:29Z</time></trkpt><trkpt lat="43.24994373558579" lon="12.031363565239754"><ele>271.0</ele><time>2026-04-19T08:39:30Z</time></trkpt><trkpt lat="43.24986006235341" lon="12.031441093157545"><ele>271.25</ele><time>2026-04-19T08:39:31Z</time></trkpt><trkpt lat="43.24977895910531" lon="12.03149305579305"><ele>271.5</ele><time>2026-04-19T08:39:32Z</time></trkpt><trkpt lat="43.24971148529264" lon="12.031553073148908"><ele>271.75</ele><time>2026-04-19T08:39:33Z</time></trkpt><trkpt lat="43.24961602902812" lon="12.031633925287437"><ele>272.0</ele><time>2026-04-19T08:39:35Z</time></trkpt><trkpt lat="43.24939540081203" lon="12.031768381672322"><ele>272.0</ele><time>2026-04-19T08:39:37Z</time></trkpt><trkpt lat="43.24942908336546" lon="12.031972680683824"><ele>272.0</ele><time>2026-04-19T08:39:38Z</time></trkpt><trkpt lat="43.249445726908675" lon="12.032070118203976"><ele>272.0</ele><time>2026-04-19T08:39:39Z</time></trkpt><trkpt lat="43.24944958629448" lon="12.032236932882846"><ele>272.0</ele><time>2026-04-19T08:39:40Z</time></trkpt><trkpt lat="43.249432302990606" lon="12.032386151945573"><ele>272.0</ele><time>2026-04-19T08:39:41Z</time></trkpt><trkpt lat="43.24942188920436" lon="12.032587490044257"><ele>272.0</ele><time>2026-04-19T08:39:42Z</time></trkpt><trkpt lat="43.24930591796451" lon="12.032532089031344"><ele>272.0</ele><time>2026-04-19T08:39:43Z</time></trkpt><trkpt lat="43.249262249113265" lon="12.03269250744178"><ele>272.0</ele><time>2026-04-19T08:39:44Z</time></trkpt><trkpt lat="43.24974900150808" lon="12.033224040924399"><ele>272.0</ele><time>2026-04-19T08:39:45Z</time></trkpt><trkpt lat="43.24977274328423" lon="12.033404463626168"><ele>272.0</ele><time>2026-04-19T08:39:46Z</time></trkpt><trkpt lat="43.24979088281688" lon="12.033577644498102"><ele>272.0</ele><time>2026-04-19T08:39:47Z</time></trkpt><trkpt lat="43.2498057786065" lon="12.033736400561057"><ele>272.0</ele><time>2026-04-19T08:39:48Z</time></trkpt><trkpt lat="43.249824069754034" lon="12.03388867953962"><ele>272.0</ele><time>2026-04-19T08:39:49Z</time></trkpt><trkpt lat="43.249848119499006" lon="12.034049046263682"><ele>272.0</ele><time>2026-04-19T08:39:50Z</time></trkpt><trkpt lat="43.24987183606397" lon="12.03422090792065"><ele>272.0</ele><time>2026-04-19T08:39:51Z</time></trkpt><trkpt lat="43.24988360017375" lon="12.0343832533514"><ele>272.0</ele><time>2026-04-19T08:39:52Z</time></trkpt><trkpt lat="43.24989563611443" lon="12.03453411673654"><ele>272.0</ele><time>2026-04-19T08:39:53Z</time></trkpt><trkpt lat="43.249903141231734" lon="12.034636376032347"><ele>272.0</ele><time>2026-04-19T08:39:54Z</time></trkpt><trkpt lat="43.249914710232666" lon="12.034745060765465"><ele>272.0</ele><time>2026-04-19T08:39:55Z</time></trkpt><trkpt lat="43.24992837099145" lon="12.034889298093782"><ele>272.0</ele><time>2026-04-19T08:39:56Z</time></trkpt><trkpt lat="43.24993898860288" lon="12.035003707116598"><ele>272.0</ele><time>2026-04-19T08:39:57Z</time></trkpt><trkpt lat="43.249957546904426" lon="12.035150314049352"><ele>272.0</ele><time>2026-04-19T08:39:58Z</time></trkpt><trkpt lat="43.249977517896525" lon="12.035309224981058"><ele>272.0</ele><time>2026-04-19T08:39:59Z</time></trkpt><trkpt lat="43.24998828037712" lon="12.035440689780875"><ele>272.0</ele><time>2026-04-19T08:40:00Z</time></trkpt><trkpt lat="43.25000355810329" lon="12.035581873630566"><ele>272.0</ele><time>2026-04-19T08:40:01Z</time></trkpt><trkpt lat="43.25002267663177" lon="12.035722499020087"><ele>272.0</ele><time>2026-04-19T08:40:02Z</time></trkpt><trkpt lat="43.25003518558409" lon="12.03584197534307"><ele>272.0</ele><time>2026-04-19T08:40:03Z</time></trkpt><trkpt lat="43.25004061949662" lon="12.03596084145556"><ele>272.0</ele><time>2026-04-19T08:40:04Z</time></trkpt><trkpt lat="43.25004654562786" lon="12.03608071188489"><ele>272.0</ele><time>2026-04-19T08:40:05Z</time></trkpt><trkpt lat="43.25006164647089" lon="12.036206506830155"><ele>272.0</ele><time>2026-04-19T08:40:06Z</time></trkpt><trkpt lat="43.25007619721076" lon="12.036329883226982"><ele>272.0</ele><time>2026-04-19T08:40:07Z</time></trkpt><trkpt lat="43.25009012665567" lon="12.03645072858922"><ele>272.0</ele><time>2026-04-19T08:40:08Z</time></trkpt><trkpt lat="43.25010134800982" lon="12.036597123355286"><ele>272.0</ele><time>2026-04-19T08:40:09Z</time></trkpt><trkpt lat="43.25012338142332" lon="12.036776872093474"><ele>272.0</ele><time>2026-04-19T08:40:10Z</time></trkpt><trkpt lat="43.25014235877885" lon="12.036940774912258"><ele>272.0</ele><time>2026-04-19T08:40:11Z</time></trkpt><trkpt lat="43.2501579996985" lon="12.037075796794463"><ele>272.0</ele><time>2026-04-19T08:40:12Z</time></trkpt><trkpt lat="43.25016879151589" lon="12.037210888573679"><ele>272.0</ele><time>2026-04-19T08:40:13Z</time></trkpt><trkpt lat="43.250174945036306" lon="12.037356316278776"><ele>272.0</ele><time>2026-04-19T08:40:14Z</time></trkpt><trkpt lat="43.250181098456785" lon="12.037511305459315"><ele>272.0</ele><time>2026-04-19T08:40:15Z</time></trkpt><trkpt lat="43.25019831089294" lon="12.037684957814376"><ele>272.0</ele><time>2026-04-19T08:40:16Z</time></trkpt><trkpt lat="43.25021635059666" lon="12.037857058185237"><ele>272.2</ele><time>2026-04-19T08:40:17Z</time></trkpt><trkpt lat="43.25022946903241" lon="12.038002231798272"><ele>272.4</ele><time>2026-04-19T08:40:18Z</time></trkpt><trkpt lat="43.25024330177215" lon="12.03814469385174"><ele>272.6</ele><time>2026-04-19T08:40:19Z</time></trkpt><trkpt lat="43.25025663022694" lon="12.038273928956658"><ele>272.8</ele><time>2026-04-19T08:40:20Z</time></trkpt><trkpt lat="43.25026844297087" lon="12.038387624953998"><ele>273.0</ele><time>2026-04-19T08:40:21Z</time></trkpt><trkpt lat="43.25028214665256" lon="12.038489053451583"><ele>274.0</ele><time>2026-04-19T08:40:22Z</time></trkpt><trkpt lat="43.25010494884905" lon="12.038594201884742"><ele>275.0</ele><time>2026-04-19T08:40:23Z</time></trkpt><trkpt lat="43.25011623700521" lon="12.038707741899755"><ele>276.0</ele><time>2026-04-19T08:40:26Z</time></trkpt><trkpt lat="43.250123271543586" lon="12.038821919993344"><ele>277.0</ele><time>2026-04-19T08:40:28Z</time></trkpt><trkpt lat="43.2501139667522" lon="12.038959462330231"><ele>277.0</ele><time>2026-04-19T08:40:29Z</time></trkpt><trkpt lat="43.25009954661147" lon="12.039079334767818"><ele>277.0</ele><time>2026-04-19T08:40:30Z</time></trkpt><trkpt lat="43.250076875928364" lon="12.039207852035686"><ele>277.0</ele><time>2026-04-19T08:40:31Z</time></trkpt><trkpt lat="43.25005603197054" lon="12.03932323883086"><ele>277.0</ele><time>2026-04-19T08:40:32Z</time></trkpt><trkpt lat="43.25003596226098" lon="12.03943145134642"><ele>277.0</ele><time>2026-04-19T08:40:33Z</time></trkpt><trkpt lat="43.25001764985249" lon="12.03953018864943"><ele>277.0</ele><time>2026-04-19T08:40:34Z</time></trkpt><trkpt lat="43.24999779866114" lon="12.039640675589776"><ele>277.25</ele><time>2026-04-19T08:40:35Z</time></trkpt><trkpt lat="43.24997885984047" lon="12.039747805260307"><ele>277.5</ele><time>2026-04-19T08:40:36Z</time></trkpt><trkpt lat="43.24996242475793" lon="12.039840772512802"><ele>277.75</ele><time>2026-04-19T08:40:37Z</time></trkpt><trkpt lat="43.25014615637414" lon="12.039990201388624"><ele>278.0</ele><time>2026-04-19T08:40:38Z</time></trkpt><trkpt lat="43.2501220172855" lon="12.040132834739563"><ele>277.6666666666667</ele><time>2026-04-19T08:40:40Z</time></trkpt><trkpt lat="43.25010648605666" lon="12.04025861443328"><ele>277.33333333333337</ele><time>2026-04-19T08:40:42Z</time></trkpt><trkpt lat="43.25008807059118" lon="12.040394747139997"><ele>277.0</ele><time>2026-04-19T08:40:44Z</time></trkpt><trkpt lat="43.25008067130461" lon="12.040510487237778"><ele>276.6666666666667</ele><time>2026-04-19T08:40:46Z</time></trkpt><trkpt lat="43.25009165656686" lon="12.040614140026843"><ele>276.3333333333333</ele><time>2026-04-19T08:40:48Z</time></trkpt><trkpt lat="43.25010568824539" lon="12.04071259707865"><ele>276.0</ele><time>2026-04-19T08:40:50Z</time></trkpt><trkpt lat="43.250118941508234" lon="12.040815754473678"><ele>276.0</ele><time>2026-04-19T08:40:52Z</time></trkpt><trkpt lat="43.2501347086952" lon="12.04096287678847"><ele>276.0</ele><time>2026-04-19T08:40:54Z</time></trkpt><trkpt lat="43.250152942776246" lon="12.041047912495557"><ele>276.0</ele><time>2026-04-19T08:40:55Z</time></trkpt><trkpt lat="43.250003545505045" lon="12.04120749731246"><ele>276.0</ele><time>2026-04-19T08:40:56Z</time></trkpt><trkpt lat="43.250026787580005" lon="12.041290594467538"><ele>276.0</ele><time>2026-04-19T08:40:57Z</time></trkpt><trkpt lat="43.25005748598232" lon="12.041400350383363"><ele>276.0</ele><time>2026-04-19T08:40:58Z</time></trkpt><trkpt lat="43.25009760547553" lon="12.041533168113551"><ele>276.0</ele><time>2026-04-19T08:40:59Z</time></trkpt><trkpt lat="43.25014019843686" lon="12.041674437827186"><ele>276.0</ele><time>2026-04-19T08:41:00Z</time></trkpt><trkpt lat="43.2501868101907" lon="12.041829037053974"><ele>276.0</ele><time>2026-04-19T08:41:01Z</time></trkpt><trkpt lat="43.25023495717557" lon="12.041988728138042"><ele>276.0</ele><time>2026-04-19T08:41:02Z</time></trkpt><trkpt lat="43.25028144775674" lon="12.042142925006278"><ele>276.0</ele><time>2026-04-19T08:41:03Z</time></trkpt><trkpt lat="43.25032940351812" lon="12.042304314026737"><ele>276.0</ele><time>2026-04-19T08:41:04Z</time></trkpt><trkpt lat="43.25037265795478" lon="12.042452028243432"><ele>276.0</ele><time>2026-04-19T08:41:05Z</time></trkpt><trkpt lat="43.25057957594541" lon="12.042494130255463"><ele>276.0</ele><time>2026-04-19T08:41:06Z</time></trkpt><trkpt lat="43.25062259474551" lon="12.04261940526488"><ele>276.0</ele><time>2026-04-19T08:41:07Z</time></trkpt><trkpt lat="43.25066817245337" lon="12.042755710445658"><ele>276.0</ele><time>2026-04-19T08:41:08Z</time></trkpt><trkpt lat="43.2505160916281" lon="12.042971854960296"><ele>276.0</ele><time>2026-04-19T08:41:09Z</time></trkpt><trkpt lat="43.2505475910003" lon="12.043113382273916"><ele>276.0</ele><time>2026-04-19T08:41:10Z</time></trkpt><trkpt lat="43.25056492113454" lon="12.04322915069998"><ele>276.0</ele><time>2026-04-19T08:41:11Z</time></trkpt><trkpt lat="43.250579193936225" lon="12.0433372012244"><ele>276.0</ele><time>2026-04-19T08:41:12Z</time></trkpt><trkpt lat="43.25091967268854" lon="12.043369133502813"><ele>276.6</ele><time>2026-04-19T08:41:13Z</time></trkpt><trkpt lat="43.25099275409354" lon="12.043473334086574"><ele>277.20000000000005</ele><time>2026-04-19T08:41:14Z</time></trkpt><trkpt lat="43.25108007745095" lon="12.043567667527936"><ele>277.79999999999995</ele><time>2026-04-19T08:41:15Z</time></trkpt><trkpt lat="43.25115468554939" lon="12.043650496519108"><ele>278.4</ele><time>2026-04-19T08:41:16Z</time></trkpt><trkpt lat="43.25122024652351" lon="12.043726681750229"><ele>279.0</ele><time>2026-04-19T08:41:17Z</time></trkpt><trkpt lat="43.2513019156672" lon="12.043820036749555"><ele>279.0</ele><time>2026-04-19T08:41:18Z</time></trkpt><trkpt lat="43.25138433621621" lon="12.043922219512877"><ele>279.0</ele><time>2026-04-19T08:41:19Z</time></trkpt><trkpt lat="43.25146511435848" lon="12.044018003733125"><ele>279.0</ele><time>2026-04-19T08:41:20Z</time></trkpt><trkpt lat="43.25155538959277" lon="12.044132245623674"><ele>279.0</ele><time>2026-04-19T08:41:21Z</time></trkpt><trkpt lat="43.25163371563446" lon="12.044237984725228"><ele>279.4</ele><time>2026-04-19T08:41:22Z</time></trkpt><trkpt lat="43.25171330078173" lon="12.04432871179761"><ele>279.79999999999995</ele><time>2026-04-19T08:41:23Z</time></trkpt><trkpt lat="43.25179521529441" lon="12.0444072979718"><ele>280.20000000000005</ele><time>2026-04-19T08:41:24Z</time></trkpt><trkpt lat="43.25188663034151" lon="12.044504641093893"><ele>280.6</ele><time>2026-04-19T08:41:25Z</time></trkpt><trkpt lat="43.25197437642432" lon="12.044602396320037"><ele>281.0</ele><time>2026-04-19T08:41:26Z</time></trkpt><trkpt lat="43.2520589800673" lon="12.044702905779465"><ele>281.0</ele><time>2026-04-19T08:41:27Z</time></trkpt><trkpt lat="43.25214324418555" lon="12.04481823589945"><ele>281.0</ele><time>2026-04-19T08:41:28Z</time></trkpt><trkpt lat="43.252240971430915" lon="12.044938740486309"><ele>281.0</ele><time>2026-04-19T08:41:29Z</time></trkpt><trkpt lat="43.252346980310875" lon="12.045061398670423"><ele>281.0</ele><time>2026-04-19T08:41:30Z</time></trkpt><trkpt lat="43.25244748260736" lon="12.045177079088498"><ele>281.0</ele><time>2026-04-19T08:41:31Z</time></trkpt><trkpt lat="43.25255141564326" lon="12.045281864721085"><ele>281.0</ele><time>2026-04-19T08:41:32Z</time></trkpt><trkpt lat="43.25266188273404" lon="12.04537293339794"><ele>281.0</ele><time>2026-04-19T08:41:33Z</time></trkpt><trkpt lat="43.252782838125555" lon="12.045457870108057"><ele>281.0</ele><time>2026-04-19T08:41:34Z</time></trkpt><trkpt lat="43.252900813678345" lon="12.0455262191413"><ele>281.0</ele><time>2026-04-19T08:41:35Z</time></trkpt><trkpt lat="43.252995999938626" lon="12.045599094381924"><ele>281.0</ele><time>2026-04-19T08:41:36Z</time></trkpt><trkpt lat="43.25308468033655" lon="12.04564791992766"><ele>281.0</ele><time>2026-04-19T08:41:37Z</time></trkpt><trkpt lat="43.253162723456164" lon="12.04568521555412"><ele>281.0</ele><time>2026-04-19T08:41:38Z</time></trkpt><trkpt lat="43.253232241973215" lon="12.045713500461911"><ele>281.0</ele><time>2026-04-19T08:41:39Z</time></trkpt><trkpt lat="43.2533069581294" lon="12.045746968930523"><ele>281.0</ele><time>2026-04-19T08:41:41Z</time></trkpt><trkpt lat="43.25335477815227" lon="12.045806380585402"><ele>281.5</ele><time>2026-04-19T08:41:43Z</time></trkpt><trkpt lat="43.25338537839031" lon="12.046011759096475"><ele>282.0</ele><time>2026-04-19T08:41:45Z</time></trkpt><trkpt lat="43.253396433607406" lon="12.046191351485776"><ele>282.5</ele><time>2026-04-19T08:41:46Z</time></trkpt><trkpt lat="43.25341632336517" lon="12.046399334549378"><ele>283.0</ele><time>2026-04-19T08:41:47Z</time></trkpt><trkpt lat="43.253447207941385" lon="12.046647095213586"><ele>283.5</ele><time>2026-04-19T08:41:48Z</time></trkpt><trkpt lat="43.25348864080722" lon="12.046946081000732"><ele>284.0</ele><time>2026-04-19T08:41:49Z</time></trkpt><trkpt lat="43.25353018114153" lon="12.047263700389381"><ele>283.5</ele><time>2026-04-19T08:41:50Z</time></trkpt><trkpt lat="43.253575455150134" lon="12.047601997574931"><ele>283.0</ele><time>2026-04-19T08:41:51Z</time></trkpt><trkpt lat="43.25362585557007" lon="12.047992408774164"><ele>283.5</ele><time>2026-04-19T08:41:52Z</time></trkpt><trkpt lat="43.25366786505873" lon="12.048373104783096"><ele>284.0</ele><time>2026-04-19T08:41:53Z</time></trkpt><trkpt lat="43.25371787499418" lon="12.048756530623224"><ele>285.0</ele><time>2026-04-19T08:41:54Z</time></trkpt><trkpt lat="43.25377186592766" lon="12.049147826606584"><ele>286.0</ele><time>2026-04-19T08:41:55Z</time></trkpt><trkpt lat="43.25380804276923" lon="12.049551432172043"><ele>286.0</ele><time>2026-04-19T08:41:56Z</time></trkpt><trkpt lat="43.25385782701379" lon="12.049884560029389"><ele>286.0</ele><time>2026-04-19T08:41:57Z</time></trkpt><trkpt lat="43.25388925933191" lon="12.050219999572727"><ele>285.5</ele><time>2026-04-19T08:41:58Z</time></trkpt><trkpt lat="43.253943776566594" lon="12.050588807615133"><ele>285.0</ele><time>2026-04-19T08:41:59Z</time></trkpt><trkpt lat="43.253986311845026" lon="12.050920529700376"><ele>284.5</ele><time>2026-04-19T08:42:00Z</time></trkpt><trkpt lat="43.25401013359707" lon="12.051244653574624"><ele>284.0</ele><time>2026-04-19T08:42:01Z</time></trkpt><trkpt lat="43.25406285618394" lon="12.051552041409558"><ele>285.33333333333337</ele><time>2026-04-19T08:42:02Z</time></trkpt><trkpt lat="43.25409866878338" lon="12.051854704790914"><ele>286.6666666666667</ele><time>2026-04-19T08:42:03Z</time></trkpt><trkpt lat="43.254128456192724" lon="12.052152524331497"><ele>288.0</ele><time>2026-04-19T08:42:04Z</time></trkpt><trkpt lat="43.25416309631922" lon="12.052451178477464"><ele>288.0</ele><time>2026-04-19T08:42:05Z</time></trkpt><trkpt lat="43.25419771861025" lon="12.052743112461966"><ele>288.0</ele><time>2026-04-19T08:42:06Z</time></trkpt><trkpt lat="43.25422524194781" lon="12.053040904228912"><ele>288.0</ele><time>2026-04-19T08:42:07Z</time></trkpt><trkpt lat="43.25425154272504" lon="12.053342530586956"><ele>288.5</ele><time>2026-04-19T08:42:08Z</time></trkpt><trkpt lat="43.25427764242727" lon="12.053657844266796"><ele>289.0</ele><time>2026-04-19T08:42:09Z</time></trkpt><trkpt lat="43.254305067267026" lon="12.053973400543079"><ele>289.0</ele><time>2026-04-19T08:42:10Z</time></trkpt><trkpt lat="43.25432649143031" lon="12.054289152153032"><ele>289.0</ele><time>2026-04-19T08:42:11Z</time></trkpt><trkpt lat="43.254348670282404" lon="12.054604367784822"><ele>289.0</ele><time>2026-04-19T08:42:12Z</time></trkpt><trkpt lat="43.254371353785565" lon="12.054919494746445"><ele>289.0</ele><time>2026-04-19T08:42:13Z</time></trkpt><trkpt lat="43.2543927656737" lon="12.055238799142595"><ele>289.0</ele><time>2026-04-19T08:42:14Z</time></trkpt><trkpt lat="43.25441286227212" lon="12.055557969296729"><ele>289.0</ele><time>2026-04-19T08:42:15Z</time></trkpt><trkpt lat="43.25443494983648" lon="12.0558605174181"><ele>289.0</ele><time>2026-04-19T08:42:16Z</time></trkpt><trkpt lat="43.254456381574556" lon="12.056147414804178"><ele>289.0</ele><time>2026-04-19T08:42:17Z</time></trkpt><trkpt lat="43.254481316817255" lon="12.056430762533829"><ele>289.0</ele><time>2026-04-19T08:42:18Z</time></trkpt><trkpt lat="43.25449129440954" lon="12.056715637150758"><ele>289.0</ele><time>2026-04-19T08:42:19Z</time></trkpt><trkpt lat="43.254511789923626" lon="12.057001659891096"><ele>289.0</ele><time>2026-04-19T08:42:20Z</time></trkpt><trkpt lat="43.2545284649488" lon="12.057308071991203"><ele>289.0</ele><time>2026-04-19T08:42:21Z</time></trkpt><trkpt lat="43.254532842664545" lon="12.05763778577001"><ele>289.0</ele><time>2026-04-19T08:42:22Z</time></trkpt><trkpt lat="43.254520312989456" lon="12.058000823097704"><ele>289.0</ele><time>2026-04-19T08:42:23Z</time></trkpt><trkpt lat="43.25451317852362" lon="12.058380202583008"><ele>290.0</ele><time>2026-04-19T08:42:24Z</time></trkpt><trkpt lat="43.25448623436556" lon="12.05877406247787"><ele>291.0</ele><time>2026-04-19T08:42:25Z</time></trkpt><trkpt lat="43.254460738529204" lon="12.059143363906546"><ele>293.0</ele><time>2026-04-19T08:42:26Z</time></trkpt><trkpt lat="43.25443475927598" lon="12.059485087963205"><ele>295.0</ele><time>2026-04-19T08:42:27Z</time></trkpt><trkpt lat="43.25440616774581" lon="12.059794257988735"><ele>296.0</ele><time>2026-04-19T08:42:28Z</time></trkpt><trkpt lat="43.25435634500778" lon="12.060393213469492"><ele>297.0</ele><time>2026-04-19T08:42:30Z</time></trkpt><trkpt lat="43.254336908093975" lon="12.060684905251756"><ele>298.3333333333333</ele><time>2026-04-19T08:42:31Z</time></trkpt><trkpt lat="43.254319747125635" lon="12.060980174789927"><ele>299.66666666666663</ele><time>2026-04-19T08:42:32Z</time></trkpt><trkpt lat="43.2543048506466" lon="12.06128099631775"><ele>301.0</ele><time>2026-04-19T08:42:33Z</time></trkpt><trkpt lat="43.254295534053114" lon="12.061585626530562"><ele>301.5</ele><time>2026-04-19T08:42:34Z</time></trkpt><trkpt lat="43.25426966494363" lon="12.061897764275669"><ele>302.0</ele><time>2026-04-19T08:42:35Z</time></trkpt><trkpt lat="43.25428339471616" lon="12.062218502573462"><ele>302.5</ele><time>2026-04-19T08:42:36Z</time></trkpt><trkpt lat="43.2542761155037" lon="12.062541050178707"><ele>303.0</ele><time>2026-04-19T08:42:37Z</time></trkpt><trkpt lat="43.25427524575795" lon="12.062868664630233"><ele>303.0</ele><time>2026-04-19T08:42:38Z</time></trkpt><trkpt lat="43.25427902164467" lon="12.063195475731701"><ele>303.0</ele><time>2026-04-19T08:42:39Z</time></trkpt><trkpt lat="43.25428916645178" lon="12.063510743429514"><ele>303.3333333333333</ele><time>2026-04-19T08:42:40Z</time></trkpt><trkpt lat="43.25429998200163" lon="12.063798988426264"><ele>303.66666666666663</ele><time>2026-04-19T08:42:41Z</time></trkpt><trkpt lat="43.25430969157871" lon="12.0640738224418"><ele>304.0</ele><time>2026-04-19T08:42:42Z</time></trkpt><trkpt lat="43.25431832849859" lon="12.064321131271894"><ele>304.3333333333333</ele><time>2026-04-19T08:42:43Z</time></trkpt><trkpt lat="43.254327564088726" lon="12.064552646539866"><ele>304.6666666666667</ele><time>2026-04-19T08:42:44Z</time></trkpt><trkpt lat="43.25434116615477" lon="12.064773922690478"><ele>305.0</ele><time>2026-04-19T08:42:45Z</time></trkpt><trkpt lat="43.25435193023365" lon="12.064988206643886"><ele>305.6666666666667</ele><time>2026-04-19T08:42:46Z</time></trkpt><trkpt lat="43.25436463977026" lon="12.065195578521108"><ele>306.3333333333333</ele><time>2026-04-19T08:42:47Z</time></trkpt><trkpt lat="43.254376461805435" lon="12.065410623461215"><ele>307.0</ele><time>2026-04-19T08:42:48Z</time></trkpt><trkpt lat="43.25439967938006" lon="12.065635919903615"><ele>308.0</ele><time>2026-04-19T08:42:49Z</time></trkpt><trkpt lat="43.25442902646201" lon="12.06586054589714"><ele>309.0</ele><time>2026-04-19T08:42:50Z</time></trkpt><trkpt lat="43.254457356103835" lon="12.066084976904234"><ele>310.0</ele><time>2026-04-19T08:42:51Z</time></trkpt><trkpt lat="43.25448648640715" lon="12.06630792554926"><ele>310.0</ele><time>2026-04-19T08:42:52Z</time></trkpt><trkpt lat="43.25452136974368" lon="12.066526507962633"><ele>310.0</ele><time>2026-04-19T08:42:53Z</time></trkpt><trkpt lat="43.25455812347458" lon="12.066741008016079"><ele>310.0</ele><time>2026-04-19T08:42:54Z</time></trkpt><trkpt lat="43.25459290692314" lon="12.0669500366804"><ele>310.0</ele><time>2026-04-19T08:42:55Z</time></trkpt><trkpt lat="43.25462749354479" lon="12.067152685934918"><ele>310.0</ele><time>2026-04-19T08:42:56Z</time></trkpt><trkpt lat="43.25466335259423" lon="12.06736057682583"><ele>310.0</ele><time>2026-04-19T08:42:57Z</time></trkpt><trkpt lat="43.25470097069987" lon="12.067574425280982"><ele>310.3333333333333</ele><time>2026-04-19T08:42:58Z</time></trkpt><trkpt lat="43.25473797198035" lon="12.067796608578284"><ele>310.6666666666667</ele><time>2026-04-19T08:42:59Z</time></trkpt><trkpt lat="43.25477375116507" lon="12.068019885898796"><ele>311.0</ele><time>2026-04-19T08:43:00Z</time></trkpt><trkpt lat="43.25480941203178" lon="12.068254427018326"><ele>315.0</ele><time>2026-04-19T08:43:01Z</time></trkpt><trkpt lat="43.2548365332193" lon="12.068510020388324"><ele>319.0</ele><time>2026-04-19T08:43:02Z</time></trkpt><trkpt lat="43.254843412239616" lon="12.068797273156385"><ele>323.0</ele><time>2026-04-19T08:43:03Z</time></trkpt><trkpt lat="43.25483396557159" lon="12.069106712723908"><ele>325.6666666666667</ele><time>2026-04-19T08:43:04Z</time></trkpt><trkpt lat="43.25482304470134" lon="12.069410274141209"><ele>328.3333333333333</ele><time>2026-04-19T08:43:05Z</time></trkpt><trkpt lat="43.25481636257843" lon="12.069675159708787"><ele>331.0</ele><time>2026-04-19T08:43:06Z</time></trkpt><trkpt lat="43.25480592250175" lon="12.069928784675668"><ele>328.66666666666663</ele><time>2026-04-19T08:43:07Z</time></trkpt><trkpt lat="43.254764612263344" lon="12.07018879017928"><ele>326.3333333333333</ele><time>2026-04-19T08:43:08Z</time></trkpt><trkpt lat="43.254684466889444" lon="12.070462076116558"><ele>324.0</ele><time>2026-04-19T08:43:09Z</time></trkpt><trkpt lat="43.25458156499356" lon="12.070765456227754"><ele>328.0</ele><time>2026-04-19T08:43:10Z</time></trkpt><trkpt lat="43.25448413896843" lon="12.07108018768307"><ele>332.0</ele><time>2026-04-19T08:43:11Z</time></trkpt><trkpt lat="43.25438805860008" lon="12.071346137021854"><ele>332.0</ele><time>2026-04-19T08:43:12Z</time></trkpt><trkpt lat="43.25426548653567" lon="12.071559011920083"><ele>332.0</ele><time>2026-04-19T08:43:13Z</time></trkpt><trkpt lat="43.254106265718704" lon="12.071744081649808"><ele>332.0</ele><time>2026-04-19T08:43:14Z</time></trkpt><trkpt lat="43.25391806091305" lon="12.071905235846351"><ele>332.33333333333337</ele><time>2026-04-19T08:43:15Z</time></trkpt><trkpt lat="43.253739124551615" lon="12.07202882826297"><ele>332.6666666666667</ele><time>2026-04-19T08:43:16Z</time></trkpt><trkpt lat="43.253592283356554" lon="12.072136728384475"><ele>333.0</ele><time>2026-04-19T08:43:17Z</time></trkpt><trkpt lat="43.25347846131344" lon="12.072257602435865"><ele>333.0</ele><time>2026-04-19T08:43:18Z</time></trkpt><trkpt lat="43.25338987215698" lon="12.072401426606746"><ele>333.0</ele><time>2026-04-19T08:43:19Z</time></trkpt><trkpt lat="43.25333076031065" lon="12.072568815718924"><ele>333.0</ele><time>2026-04-19T08:43:20Z</time></trkpt><trkpt lat="43.25331046305518" lon="12.07272886080547"><ele>333.0</ele><time>2026-04-19T08:43:21Z</time></trkpt><trkpt lat="43.25332742435897" lon="12.07287837433682"><ele>334.79999999999995</ele><time>2026-04-19T08:43:22Z</time></trkpt><trkpt lat="43.253389480634105" lon="12.072992197050104"><ele>336.6</ele><time>2026-04-19T08:43:23Z</time></trkpt><trkpt lat="43.25348901151229" lon="12.073063490987147"><ele>338.4</ele><time>2026-04-19T08:43:24Z</time></trkpt><trkpt lat="43.25359434340395" lon="12.073079162604078"><ele>340.20000000000005</ele><time>2026-04-19T08:43:25Z</time></trkpt><trkpt lat="43.25369867429489" lon="12.073032206071755"><ele>342.0</ele><time>2026-04-19T08:43:26Z</time></trkpt><trkpt lat="43.253810373352316" lon="12.072931764162798"><ele>342.0</ele><time>2026-04-19T08:43:27Z</time></trkpt><trkpt lat="43.25394680433728" lon="12.07280624479621"><ele>342.0</ele><time>2026-04-19T08:43:28Z</time></trkpt><trkpt lat="43.25411045445446" lon="12.072675961565537"><ele>342.0</ele><time>2026-04-19T08:43:29Z</time></trkpt><trkpt lat="43.25429694696004" lon="12.072544620650705"><ele>342.6666666666667</ele><time>2026-04-19T08:43:30Z</time></trkpt><trkpt lat="43.254495975481774" lon="12.072440750811046"><ele>343.33333333333337</ele><time>2026-04-19T08:43:31Z</time></trkpt><trkpt lat="43.25466733747662" lon="12.07238658805917"><ele>344.0</ele><time>2026-04-19T08:43:32Z</time></trkpt><trkpt lat="43.25481514442427" lon="12.07233840066415"><ele>351.0</ele><time>2026-04-19T08:43:33Z</time></trkpt><trkpt lat="43.2549430655013" lon="12.072232547084573"><ele>358.0</ele><time>2026-04-19T08:43:34Z</time></trkpt><trkpt lat="43.25504143793298" lon="12.072067739342204"><ele>365.0</ele><time>2026-04-19T08:43:35Z</time></trkpt><trkpt lat="43.25509802215537" lon="12.07187020260344"><ele>365.0</ele><time>2026-04-19T08:43:36Z</time></trkpt><trkpt lat="43.25511881183691" lon="12.071679108557191"><ele>365.0</ele><time>2026-04-19T08:43:37Z</time></trkpt><trkpt lat="43.25515071546472" lon="12.07152567937622"><ele>365.0</ele><time>2026-04-19T08:43:38Z</time></trkpt><trkpt lat="43.255239920668934" lon="12.071412386390602"><ele>365.0</ele><time>2026-04-19T08:43:39Z</time></trkpt><trkpt lat="43.25536830094039" lon="12.071394474750358"><ele>365.5</ele><time>2026-04-19T08:43:40Z</time></trkpt><trkpt lat="43.25548359325542" lon="12.07140521257"><ele>366.0</ele><time>2026-04-19T08:43:41Z</time></trkpt><trkpt lat="43.25561591539559" lon="12.071420578475287"><ele>366.5</ele><time>2026-04-19T08:43:42Z</time></trkpt><trkpt lat="43.25575796064405" lon="12.07142889664588"><ele>367.0</ele><time>2026-04-19T08:43:43Z</time></trkpt><trkpt lat="43.255899745499356" lon="12.071449159391321"><ele>367.0</ele><time>2026-04-19T08:43:44Z</time></trkpt><trkpt lat="43.25602323290518" lon="12.071421399745192"><ele>367.0</ele><time>2026-04-19T08:43:45Z</time></trkpt><trkpt lat="43.256159743083764" lon="12.071396779780862"><ele>367.0</ele><time>2026-04-19T08:43:46Z</time></trkpt><trkpt lat="43.256273311347776" lon="12.071243021230192"><ele>367.0</ele><time>2026-04-19T08:43:47Z</time></trkpt><trkpt lat="43.25629376049071" lon="12.071031547426223"><ele>367.0</ele><time>2026-04-19T08:43:48Z</time></trkpt><trkpt lat="43.25637881085441" lon="12.070934913610627"><ele>367.0</ele><time>2026-04-19T08:43:49Z</time></trkpt><trkpt lat="43.25649350737642" lon="12.070883331650746"><ele>367.0</ele><time>2026-04-19T08:43:50Z</time></trkpt><trkpt lat="43.25662463523361" lon="12.07087074708131"><ele>367.0</ele><time>2026-04-19T08:43:51Z</time></trkpt><trkpt lat="43.25675361299525" lon="12.070906927607489"><ele>369.0</ele><time>2026-04-19T08:43:52Z</time></trkpt><trkpt lat="43.25685667339345" lon="12.070999891209595"><ele>371.0</ele><time>2026-04-19T08:43:53Z</time></trkpt><trkpt lat="43.25693206128004" lon="12.071135064651573"><ele>373.0</ele><time>2026-04-19T08:43:54Z</time></trkpt><trkpt lat="43.25697078545877" lon="12.071314690981534"><ele>375.0</ele><time>2026-04-19T08:43:55Z</time></trkpt><trkpt lat="43.25705090280681" lon="12.07150388948294"><ele>379.0</ele><time>2026-04-19T08:43:56Z</time></trkpt><trkpt lat="43.257104711079116" lon="12.07171380111419"><ele>383.0</ele><time>2026-04-19T08:43:57Z</time></trkpt><trkpt lat="43.25714751810668" lon="12.071877693921802"><ele>387.0</ele><time>2026-04-19T08:43:58Z</time></trkpt><trkpt lat="43.25718531405491" lon="12.072010412085318"><ele>391.0</ele><time>2026-04-19T08:43:59Z</time></trkpt><trkpt lat="43.25722041324527" lon="12.072127076280323"><ele>391.0</ele><time>2026-04-19T08:44:00Z</time></trkpt><trkpt lat="43.25725140284373" lon="12.072247818314581"><ele>391.0</ele><time>2026-04-19T08:44:01Z</time></trkpt><trkpt lat="43.25728950433406" lon="12.072375907404567"><ele>391.0</ele><time>2026-04-19T08:44:02Z</time></trkpt><trkpt lat="43.2573101745418" lon="12.072509935981927"><ele>391.0</ele><time>2026-04-19T08:44:03Z</time></trkpt><trkpt lat="43.25733469788456" lon="12.072625337263071"><ele>391.0</ele><time>2026-04-19T08:44:04Z</time></trkpt><trkpt lat="43.25735993041759" lon="12.072728837319115"><ele>390.6</ele><time>2026-04-19T08:44:05Z</time></trkpt><trkpt lat="43.25733104676243" lon="12.072848508814124"><ele>390.20000000000005</ele><time>2026-04-19T08:44:06Z</time></trkpt><trkpt lat="43.257263527363286" lon="12.072948121532033"><ele>389.79999999999995</ele><time>2026-04-19T08:44:07Z</time></trkpt><trkpt lat="43.2571772701624" lon="12.072998140633466"><ele>389.4</ele><time>2026-04-19T08:44:08Z</time></trkpt><trkpt lat="43.25708393316087" lon="12.07298442772253"><ele>389.0</ele><time>2026-04-19T08:44:09Z</time></trkpt><trkpt lat="43.257012567634234" lon="12.072883903396754"><ele>389.4</ele><time>2026-04-19T08:44:10Z</time></trkpt><trkpt lat="43.25695762890757" lon="12.072772958711546"><ele>389.79999999999995</ele><time>2026-04-19T08:44:11Z</time></trkpt><trkpt lat="43.25692923663356" lon="12.07264404622893"><ele>390.20000000000005</ele><time>2026-04-19T08:44:12Z</time></trkpt><trkpt lat="43.25689585422077" lon="12.072516190190015"><ele>390.6</ele><time>2026-04-19T08:44:13Z</time></trkpt><trkpt lat="43.25686461380663" lon="12.072396317208876"><ele>391.0</ele><time>2026-04-19T08:44:14Z</time></trkpt><trkpt lat="43.256802968397466" lon="12.07229817277676"><ele>391.0</ele><time>2026-04-19T08:44:15Z</time></trkpt><trkpt lat="43.25671668282775" lon="12.072233592080444"><ele>391.0</ele><time>2026-04-19T08:44:16Z</time></trkpt><trkpt lat="43.25661610247238" lon="12.072210743642723"><ele>391.0</ele><time>2026-04-19T08:44:17Z</time></trkpt><trkpt lat="43.25650873917245" lon="12.072227567176899"><ele>391.0</ele><time>2026-04-19T08:44:18Z</time></trkpt><trkpt lat="43.256401432964424" lon="12.072273933298796"><ele>391.0</ele><time>2026-04-19T08:44:19Z</time></trkpt><trkpt lat="43.25630383570272" lon="12.072347554345729"><ele>389.8</ele><time>2026-04-19T08:44:20Z</time></trkpt><trkpt lat="43.25623418559047" lon="12.072428160983227"><ele>388.6</ele><time>2026-04-19T08:44:21Z</time></trkpt><trkpt lat="43.25618011674661" lon="12.072530086793726"><ele>387.4</ele><time>2026-04-19T08:44:22Z</time></trkpt><trkpt lat="43.256133183286366" lon="12.072657020450436"><ele>386.2</ele><time>2026-04-19T08:44:23Z</time></trkpt><trkpt lat="43.25610638922285" lon="12.072812406103411"><ele>385.0</ele><time>2026-04-19T08:44:24Z</time></trkpt><trkpt lat="43.256104698897474" lon="12.0729811238461"><ele>387.8</ele><time>2026-04-19T08:44:25Z</time></trkpt><trkpt lat="43.25610515656662" lon="12.073132379917736"><ele>390.6</ele><time>2026-04-19T08:44:26Z</time></trkpt><trkpt lat="43.256075444453444" lon="12.0732579934698"><ele>393.4</ele><time>2026-04-19T08:44:27Z</time></trkpt><trkpt lat="43.25600539485523" lon="12.073365684910483"><ele>396.2</ele><time>2026-04-19T08:44:28Z</time></trkpt><trkpt lat="43.255899591151476" lon="12.073421872430671"><ele>399.0</ele><time>2026-04-19T08:44:29Z</time></trkpt><trkpt lat="43.25579692716731" lon="12.073478969024594"><ele>399.4</ele><time>2026-04-19T08:44:30Z</time></trkpt><trkpt lat="43.255701203226124" lon="12.073545808009465"><ele>399.79999999999995</ele><time>2026-04-19T08:44:31Z</time></trkpt><trkpt lat="43.25560317510945" lon="12.073600958892277"><ele>400.20000000000005</ele><time>2026-04-19T08:44:32Z</time></trkpt><trkpt lat="43.255508860068" lon="12.073657642278977"><ele>400.6</ele><time>2026-04-19T08:44:33Z</time></trkpt><trkpt lat="43.255418891208976" lon="12.073711140022278"><ele>401.0</ele><time>2026-04-19T08:44:34Z</time></trkpt><trkpt lat="43.255329595407275" lon="12.073771375246656"><ele>401.0</ele><time>2026-04-19T08:44:35Z</time></trkpt><trkpt lat="43.25524270820778" lon="12.073830893984898"><ele>401.0</ele><time>2026-04-19T08:44:36Z</time></trkpt><trkpt lat="43.25515406801412" lon="12.073908312159016"><ele>401.0</ele><time>2026-04-19T08:44:37Z</time></trkpt><trkpt lat="43.255085452131155" lon="12.074019840129406"><ele>401.0</ele><time>2026-04-19T08:44:38Z</time></trkpt><trkpt lat="43.255046298653475" lon="12.074161906982564"><ele>401.0</ele><time>2026-04-19T08:44:39Z</time></trkpt><trkpt lat="43.255039628506296" lon="12.07431957503482"><ele>407.0</ele><time>2026-04-19T08:44:40Z</time></trkpt><trkpt lat="43.25507250802155" lon="12.074510602258798"><ele>413.0</ele><time>2026-04-19T08:44:41Z</time></trkpt><trkpt lat="43.25508443291621" lon="12.074751051440627"><ele>419.0</ele><time>2026-04-19T08:44:42Z</time></trkpt><trkpt lat="43.25508924912944" lon="12.075012145268607"><ele>422.0</ele><time>2026-04-19T08:44:43Z</time></trkpt><trkpt lat="43.255084252542225" lon="12.075289928929182"><ele>425.0</ele><time>2026-04-19T08:44:44Z</time></trkpt><trkpt lat="43.255086123402094" lon="12.07556166223427"><ele>428.0</ele><time>2026-04-19T08:44:45Z</time></trkpt><trkpt lat="43.25506729375201" lon="12.075841165833987"><ele>431.0</ele><time>2026-04-19T08:44:46Z</time></trkpt><trkpt lat="43.25504922271889" lon="12.07610768686796"><ele>434.0</ele><time>2026-04-19T08:44:47Z</time></trkpt><trkpt lat="43.2550323631609" lon="12.076364086425045"><ele>437.0</ele><time>2026-04-19T08:44:48Z</time></trkpt><trkpt lat="43.2550205302759" lon="12.07660399614833"><ele>440.0</ele><time>2026-04-19T08:44:49Z</time></trkpt><trkpt lat="43.25502023565283" lon="12.076815227016494"><ele>443.0</ele><time>2026-04-19T08:44:50Z</time></trkpt><trkpt lat="43.25502358696891" lon="12.077021698313287"><ele>446.0</ele><time>2026-04-19T08:44:51Z</time></trkpt><trkpt lat="43.25501563223378" lon="12.077212165738153"><ele>449.0</ele><time>2026-04-19T08:44:52Z</time></trkpt><trkpt lat="43.25498458806443" lon="12.077388418454381"><ele>447.79999999999995</ele><time>2026-04-19T08:44:53Z</time></trkpt><trkpt lat="43.25489698471475" lon="12.077508123883007"><ele>446.59999999999997</ele><time>2026-04-19T08:44:54Z</time></trkpt><trkpt lat="43.254787004780205" lon="12.07756565006611"><ele>445.4</ele><time>2026-04-19T08:44:55Z</time></trkpt><trkpt lat="43.254685595699556" lon="12.077600722936275"><ele>444.2</ele><time>2026-04-19T08:44:56Z</time></trkpt><trkpt lat="43.25460205612059" lon="12.077667485268593"><ele>443.0</ele><time>2026-04-19T08:44:57Z</time></trkpt><trkpt lat="43.25453150203529" lon="12.077799174679818"><ele>443.0</ele><time>2026-04-19T08:44:58Z</time></trkpt><trkpt lat="43.254471511167374" lon="12.078000802838996"><ele>443.0</ele><time>2026-04-19T08:44:59Z</time></trkpt><trkpt lat="43.254426483773" lon="12.07823518958218"><ele>443.0</ele><time>2026-04-19T08:45:00Z</time></trkpt><trkpt lat="43.254387744513174" lon="12.078506730154087"><ele>445.66666666666663</ele><time>2026-04-19T08:45:01Z</time></trkpt><trkpt lat="43.254361399877396" lon="12.078792151408786"><ele>448.33333333333337</ele><time>2026-04-19T08:45:02Z</time></trkpt><trkpt lat="43.254307994484925" lon="12.079088698832248"><ele>451.0</ele><time>2026-04-19T08:45:03Z</time></trkpt><trkpt lat="43.254269326228325" lon="12.079359382173143"><ele>454.0</ele><time>2026-04-19T08:45:04Z</time></trkpt><trkpt lat="43.25422916472793" lon="12.07959496855978"><ele>457.0</ele><time>2026-04-19T08:45:05Z</time></trkpt><trkpt lat="43.25416664671068" lon="12.0798293945037"><ele>460.0</ele><time>2026-04-19T08:45:06Z</time></trkpt><trkpt lat="43.254072925280525" lon="12.080057144382815"><ele>459.33333333333337</ele><time>2026-04-19T08:45:07Z</time></trkpt><trkpt lat="43.25393882240253" lon="12.080251173397146"><ele>458.66666666666663</ele><time>2026-04-19T08:45:08Z</time></trkpt><trkpt lat="43.253767157661315" lon="12.080431646455017"><ele>458.0</ele><time>2026-04-19T08:45:09Z</time></trkpt><trkpt lat="43.25356348977086" lon="12.080624892852118"><ele>461.3333333333333</ele><time>2026-04-19T08:45:10Z</time></trkpt><trkpt lat="43.25336655270141" lon="12.080823329027037"><ele>464.66666666666663</ele><time>2026-04-19T08:45:11Z</time></trkpt><trkpt lat="43.253197021692145" lon="12.080979884454699"><ele>468.0</ele><time>2026-04-19T08:45:12Z</time></trkpt><trkpt lat="43.25306334593938" lon="12.081130581267182"><ele>468.0</ele><time>2026-04-19T08:45:13Z</time></trkpt><trkpt lat="43.25295805989134" lon="12.081296665758359"><ele>468.0</ele><time>2026-04-19T08:45:14Z</time></trkpt><trkpt lat="43.25288565459059" lon="12.081505851475116"><ele>468.0</ele><time>2026-04-19T08:45:15Z</time></trkpt><trkpt lat="43.252848286281036" lon="12.081762298372567"><ele>469.66666666666663</ele><time>2026-04-19T08:45:16Z</time></trkpt><trkpt lat="43.252822830683556" lon="12.082053561084164"><ele>471.3333333333333</ele><time>2026-04-19T08:45:17Z</time></trkpt><trkpt lat="43.25274794266782" lon="12.082332925151638"><ele>473.0</ele><time>2026-04-19T08:45:18Z</time></trkpt><trkpt lat="43.252638995986445" lon="12.082604876448858"><ele>478.5</ele><time>2026-04-19T08:45:19Z</time></trkpt><trkpt lat="43.25249499518579" lon="12.08288786475657"><ele>484.0</ele><time>2026-04-19T08:45:20Z</time></trkpt><trkpt lat="43.25233060078227" lon="12.083115801964624"><ele>481.0</ele><time>2026-04-19T08:45:21Z</time></trkpt><trkpt lat="43.25220398664771" lon="12.083320330885401"><ele>478.0</ele><time>2026-04-19T08:45:22Z</time></trkpt><trkpt lat="43.25209964308676" lon="12.083519407997139"><ele>475.0</ele><time>2026-04-19T08:45:23Z</time></trkpt><trkpt lat="43.2520410259957" lon="12.083740631134324"><ele>475.0</ele><time>2026-04-19T08:45:24Z</time></trkpt><trkpt lat="43.252028098814954" lon="12.084015162795868"><ele>475.0</ele><time>2026-04-19T08:45:25Z</time></trkpt><trkpt lat="43.25205080533222" lon="12.084333873633145"><ele>475.0</ele><time>2026-04-19T08:45:26Z</time></trkpt><trkpt lat="43.25209041676642" lon="12.08466568927094"><ele>482.6666666666667</ele><time>2026-04-19T08:45:27Z</time></trkpt><trkpt lat="43.25215038041926" lon="12.084947411812848"><ele>490.33333333333337</ele><time>2026-04-19T08:45:28Z</time></trkpt><trkpt lat="43.25222979552646" lon="12.085190989932192"><ele>498.0</ele><time>2026-04-19T08:45:29Z</time></trkpt><trkpt lat="43.2522661039359" lon="12.085418205551052"><ele>498.0</ele><time>2026-04-19T08:45:30Z</time></trkpt><trkpt lat="43.25226871984846" lon="12.085653344736155"><ele>498.0</ele><time>2026-04-19T08:45:31Z</time></trkpt><trkpt lat="43.25222065734373" lon="12.085917226058793"><ele>498.0</ele><time>2026-04-19T08:45:32Z</time></trkpt><trkpt lat="43.252172178007505" lon="12.086199127580313"><ele>500.66666666666663</ele><time>2026-04-19T08:45:33Z</time></trkpt><trkpt lat="43.252123008530404" lon="12.086434518395151"><ele>503.3333333333333</ele><time>2026-04-19T08:45:34Z</time></trkpt><trkpt lat="43.25206806366049" lon="12.086635122920537"><ele>506.0</ele><time>2026-04-19T08:45:35Z</time></trkpt><trkpt lat="43.251958284909" lon="12.08677146979553"><ele>509.3333333333333</ele><time>2026-04-19T08:45:36Z</time></trkpt><trkpt lat="43.25183362774754" lon="12.086897254792643"><ele>512.6666666666666</ele><time>2026-04-19T08:45:37Z</time></trkpt><trkpt lat="43.25166932376727" lon="12.086999840926438"><ele>516.0</ele><time>2026-04-19T08:45:38Z</time></trkpt><trkpt lat="43.25147599729633" lon="12.087116773599085"><ele>516.0</ele><time>2026-04-19T08:45:39Z</time></trkpt><trkpt lat="43.25128271665493" lon="12.087195056652995"><ele>516.0</ele><time>2026-04-19T08:45:40Z</time></trkpt><trkpt lat="43.251091259193714" lon="12.087206934737516"><ele>516.0</ele><time>2026-04-19T08:45:41Z</time></trkpt><trkpt lat="43.25087980988323" lon="12.087147504385268"><ele>516.0</ele><time>2026-04-19T08:45:42Z</time></trkpt><trkpt lat="43.25063719794061" lon="12.087115494611156"><ele>516.0</ele><time>2026-04-19T08:45:43Z</time></trkpt><trkpt lat="43.250380155484066" lon="12.087096135283394"><ele>521.0</ele><time>2026-04-19T08:45:44Z</time></trkpt><trkpt lat="43.25009876429809" lon="12.087106426158492"><ele>526.0</ele><time>2026-04-19T08:45:45Z</time></trkpt><trkpt lat="43.24983688078575" lon="12.087037092271773"><ele>530.0</ele><time>2026-04-19T08:45:46Z</time></trkpt><trkpt lat="43.24961026021714" lon="12.086991398732224"><ele>534.0</ele><time>2026-04-19T08:45:47Z</time></trkpt><trkpt lat="43.24938924756279" lon="12.086969649850662"><ele>534.0</ele><time>2026-04-19T08:45:48Z</time></trkpt><trkpt lat="43.249190538346596" lon="12.087008467187994"><ele>534.0</ele><time>2026-04-19T08:45:49Z</time></trkpt><trkpt lat="43.24897055804164" lon="12.08709507237087"><ele>534.0</ele><time>2026-04-19T08:45:50Z</time></trkpt><trkpt lat="43.248752868345036" lon="12.08718660525082"><ele>534.3333333333334</ele><time>2026-04-19T08:45:51Z</time></trkpt><trkpt lat="43.24852589599998" lon="12.08728078965451"><ele>534.6666666666667</ele><time>2026-04-19T08:45:52Z</time></trkpt><trkpt lat="43.248327068289" lon="12.087340987979852"><ele>535.0</ele><time>2026-04-19T08:45:53Z</time></trkpt><trkpt lat="43.248151513855696" lon="12.087390494009494"><ele>538.5</ele><time>2026-04-19T08:45:54Z</time></trkpt><trkpt lat="43.247994410965454" lon="12.087432721022529"><ele>542.0</ele><time>2026-04-19T08:45:55Z</time></trkpt><trkpt lat="43.24785313097462" lon="12.087472494414767"><ele>545.5</ele><time>2026-04-19T08:45:56Z</time></trkpt><trkpt lat="43.24773377023705" lon="12.087509033451528"><ele>549.0</ele><time>2026-04-19T08:45:57Z</time></trkpt><trkpt lat="43.24763079880413" lon="12.087562413168456"><ele>549.0</ele><time>2026-04-19T08:45:58Z</time></trkpt><trkpt lat="43.2475386537681" lon="12.087641323537358"><ele>549.0</ele><time>2026-04-19T08:45:59Z</time></trkpt><trkpt lat="43.24747715655692" lon="12.087756905652546"><ele>549.0</ele><time>2026-04-19T08:46:00Z</time></trkpt><trkpt lat="43.24745582996446" lon="12.087901322202232"><ele>549.0</ele><time>2026-04-19T08:46:01Z</time></trkpt><trkpt lat="43.24747794372047" lon="12.088039248391741"><ele>549.0</ele><time>2026-04-19T08:46:02Z</time></trkpt><trkpt lat="43.24753821712662" lon="12.088133717769592"><ele>549.0</ele><time>2026-04-19T08:46:03Z</time></trkpt><trkpt lat="43.247630924292295" lon="12.088192926713573"><ele>549.0</ele><time>2026-04-19T08:46:04Z</time></trkpt><trkpt lat="43.247750065744164" lon="12.088194592663477"><ele>549.0</ele><time>2026-04-19T08:46:05Z</time></trkpt><trkpt lat="43.24789595003187" lon="12.088132597120365"><ele>549.0</ele><time>2026-04-19T08:46:06Z</time></trkpt><trkpt lat="43.248051542386335" lon="12.088013651699029"><ele>551.6666666666666</ele><time>2026-04-19T08:46:07Z</time></trkpt><trkpt lat="43.2482297656172" lon="12.087956353979388"><ele>554.3333333333333</ele><time>2026-04-19T08:46:08Z</time></trkpt><trkpt lat="43.24840554019601" lon="12.087987917079813"><ele>557.0</ele><time>2026-04-19T08:46:09Z</time></trkpt><trkpt lat="43.248610731029736" lon="12.088075994788316"><ele>557.0</ele><time>2026-04-19T08:46:10Z</time></trkpt><trkpt lat="43.248841134935155" lon="12.088178573853606"><ele>557.0</ele><time>2026-04-19T08:46:11Z</time></trkpt><trkpt lat="43.249079205634544" lon="12.088264821241292"><ele>567.5</ele><time>2026-04-19T08:46:12Z</time></trkpt><trkpt lat="43.24932564541167" lon="12.088375381485754"><ele>578.0</ele><time>2026-04-19T08:46:13Z</time></trkpt><trkpt lat="43.249558590442916" lon="12.08849578505025"><ele>578.0</ele><time>2026-04-19T08:46:14Z</time></trkpt><trkpt lat="43.249771486522995" lon="12.088589886786508"><ele>578.0</ele><time>2026-04-19T08:46:15Z</time></trkpt><trkpt lat="43.24997337502194" lon="12.08870148265006"><ele>578.0</ele><time>2026-04-19T08:46:16Z</time></trkpt><trkpt lat="43.250157654882955" lon="12.088810333874013"><ele>576.6666666666666</ele><time>2026-04-19T08:46:17Z</time></trkpt><trkpt lat="43.250322192857865" lon="12.088909792443381"><ele>575.3333333333334</ele><time>2026-04-19T08:46:18Z</time></trkpt><trkpt lat="43.25047181150373" lon="12.089000095914674"><ele>574.0</ele><time>2026-04-19T08:46:19Z</time></trkpt><trkpt lat="43.250598702918786" lon="12.089084014749263"><ele>576.4</ele><time>2026-04-19T08:46:20Z</time></trkpt><trkpt lat="43.2506948883793" lon="12.089180903448524"><ele>578.8</ele><time>2026-04-19T08:46:21Z</time></trkpt><trkpt lat="43.250760594869384" lon="12.08928703385404"><ele>581.2</ele><time>2026-04-19T08:46:22Z</time></trkpt><trkpt lat="43.2507304699176" lon="12.089425370966275"><ele>583.6</ele><time>2026-04-19T08:46:23Z</time></trkpt><trkpt lat="43.250699917590715" lon="12.089551256861574"><ele>586.0</ele><time>2026-04-19T08:46:24Z</time></trkpt><trkpt lat="43.250638830160455" lon="12.089683498406634"><ele>588.5</ele><time>2026-04-19T08:46:25Z</time></trkpt><trkpt lat="43.25053018581361" lon="12.089771662836219"><ele>591.0</ele><time>2026-04-19T08:46:26Z</time></trkpt><trkpt lat="43.25040132779681" lon="12.089778036183464"><ele>593.5</ele><time>2026-04-19T08:46:27Z</time></trkpt><trkpt lat="43.250294844635135" lon="12.08966482494868"><ele>596.0</ele><time>2026-04-19T08:46:28Z</time></trkpt><trkpt lat="43.25019253934493" lon="12.089552975460874"><ele>596.0</ele><time>2026-04-19T08:46:29Z</time></trkpt><trkpt lat="43.250075605491915" lon="12.08943853946168"><ele>596.0</ele><time>2026-04-19T08:46:30Z</time></trkpt><trkpt lat="43.249960343212614" lon="12.089306474442107"><ele>596.0</ele><time>2026-04-19T08:46:31Z</time></trkpt><trkpt lat="43.249820498370084" lon="12.089241079621166"><ele>596.0</ele><time>2026-04-19T08:46:32Z</time></trkpt><trkpt lat="43.2496392189099" lon="12.089232633142812"><ele>596.6666666666666</ele><time>2026-04-19T08:46:33Z</time></trkpt><trkpt lat="43.2494186387903" lon="12.089260861931505"><ele>597.3333333333334</ele><time>2026-04-19T08:46:34Z</time></trkpt><trkpt lat="43.24921210220705" lon="12.089306347846321"><ele>598.0</ele><time>2026-04-19T08:46:35Z</time></trkpt><trkpt lat="43.2490470186267" lon="12.089355218240263"><ele>596.75</ele><time>2026-04-19T08:46:36Z</time></trkpt><trkpt lat="43.24890741858325" lon="12.089401811702112"><ele>595.5</ele><time>2026-04-19T08:46:37Z</time></trkpt><trkpt lat="43.24877642048482" lon="12.08946329682483"><ele>594.25</ele><time>2026-04-19T08:46:38Z</time></trkpt><trkpt lat="43.248662586880116" lon="12.08958372086635"><ele>593.0</ele><time>2026-04-19T08:46:39Z</time></trkpt><trkpt lat="43.248578393458814" lon="12.089750458562467"><ele>598.0</ele><time>2026-04-19T08:46:40Z</time></trkpt><trkpt lat="43.248524352016" lon="12.089951422139471"><ele>603.0</ele><time>2026-04-19T08:46:41Z</time></trkpt><trkpt lat="43.24850052133692" lon="12.09018966389183"><ele>608.0</ele><time>2026-04-19T08:46:42Z</time></trkpt><trkpt lat="43.24849907805136" lon="12.090453188789153"><ele>608.0</ele><time>2026-04-19T08:46:43Z</time></trkpt><trkpt lat="43.248488195524935" lon="12.09068242705959"><ele>608.0</ele><time>2026-04-19T08:46:44Z</time></trkpt><trkpt lat="43.248416637898096" lon="12.090872868847898"><ele>608.0</ele><time>2026-04-19T08:46:45Z</time></trkpt><trkpt lat="43.24831851228649" lon="12.091048532371298"><ele>609.3333333333333</ele><time>2026-04-19T08:46:46Z</time></trkpt><trkpt lat="43.248190776411256" lon="12.091178642801552"><ele>610.6666666666666</ele><time>2026-04-19T08:46:47Z</time></trkpt><trkpt lat="43.24804140112138" lon="12.091255147994076"><ele>612.0</ele><time>2026-04-19T08:46:48Z</time></trkpt><trkpt lat="43.2478757281491" lon="12.091326315489619"><ele>612.0</ele><time>2026-04-19T08:46:49Z</time></trkpt><trkpt lat="43.2477233296946" lon="12.091400396262864"><ele>612.0</ele><time>2026-04-19T08:46:50Z</time></trkpt><trkpt lat="43.247595429545015" lon="12.091451528890332"><ele>612.0</ele><time>2026-04-19T08:46:51Z</time></trkpt><trkpt lat="43.24749019504785" lon="12.091513832547367"><ele>612.0</ele><time>2026-04-19T08:46:52Z</time></trkpt><trkpt lat="43.24740790389061" lon="12.091597456431414"><ele>614.0</ele><time>2026-04-19T08:46:53Z</time></trkpt><trkpt lat="43.24735817893625" lon="12.09171105971993"><ele>616.0</ele><time>2026-04-19T08:46:54Z</time></trkpt><trkpt lat="43.2473474038714" lon="12.091841504979545"><ele>618.0</ele><time>2026-04-19T08:46:55Z</time></trkpt><trkpt lat="43.247354595510565" lon="12.091967970350927"><ele>620.0</ele><time>2026-04-19T08:46:56Z</time></trkpt><trkpt lat="43.24736267132731" lon="12.092058466233858"><ele>622.0</ele><time>2026-04-19T08:46:57Z</time></trkpt><trkpt lat="43.24732727079503" lon="12.092139705384986"><ele>624.0</ele><time>2026-04-19T08:46:59Z</time></trkpt><trkpt lat="43.247221661360356" lon="12.092134059631105"><ele>624.0</ele><time>2026-04-19T08:47:01Z</time></trkpt><trkpt lat="43.247151769292046" lon="12.092157262067643"><ele>624.0</ele><time>2026-04-19T08:47:02Z</time></trkpt><trkpt lat="43.24708687980773" lon="12.092240955153764"><ele>624.0</ele><time>2026-04-19T08:47:03Z</time></trkpt><trkpt lat="43.24701370218687" lon="12.092316666827777"><ele>624.0</ele><time>2026-04-19T08:47:04Z</time></trkpt><trkpt lat="43.24691068724523" lon="12.092372409428949"><ele>624.0</ele><time>2026-04-19T08:47:05Z</time></trkpt><trkpt lat="43.24682193288204" lon="12.092422378680016"><ele>625.5</ele><time>2026-04-19T08:47:06Z</time></trkpt><trkpt lat="43.24671799025508" lon="12.092499452703565"><ele>627.0</ele><time>2026-04-19T08:47:07Z</time></trkpt><trkpt lat="43.24663263158582" lon="12.092626429920385"><ele>628.5</ele><time>2026-04-19T08:47:08Z</time></trkpt><trkpt lat="43.2465313893742" lon="12.092717523827293"><ele>630.0</ele><time>2026-04-19T08:47:09Z</time></trkpt><trkpt lat="43.24644686403279" lon="12.092814108143834"><ele>630.0</ele><time>2026-04-19T08:47:10Z</time></trkpt><trkpt lat="43.24637249517597" lon="12.092895449348314"><ele>630.0</ele><time>2026-04-19T08:47:11Z</time></trkpt><trkpt lat="43.24628817030069" lon="12.092964791587535"><ele>630.0</ele><time>2026-04-19T08:47:12Z</time></trkpt><trkpt lat="43.24618164434913" lon="12.0930199830602"><ele>630.0</ele><time>2026-04-19T08:47:13Z</time></trkpt><trkpt lat="43.24607181097155" lon="12.09304489493765"><ele>630.0</ele><time>2026-04-19T08:47:14Z</time></trkpt><trkpt lat="43.24597246623036" lon="12.09304882203617"><ele>630.0</ele><time>2026-04-19T08:47:15Z</time></trkpt><trkpt lat="43.245875803127134" lon="12.093035050423444"><ele>630.0</ele><time>2026-04-19T08:47:16Z</time></trkpt><trkpt lat="43.245780729592894" lon="12.092999603382948"><ele>630.0</ele><time>2026-04-19T08:47:17Z</time></trkpt><trkpt lat="43.24568473628042" lon="12.092958986188679"><ele>630.0</ele><time>2026-04-19T08:47:18Z</time></trkpt><trkpt lat="43.24559762907322" lon="12.092909919172035"><ele>630.0</ele><time>2026-04-19T08:47:19Z</time></trkpt><trkpt lat="43.24551425893276" lon="12.092862633065927"><ele>631.0</ele><time>2026-04-19T08:47:20Z</time></trkpt><trkpt lat="43.24541512184795" lon="12.092809187036174"><ele>632.0</ele><time>2026-04-19T08:47:21Z</time></trkpt><trkpt lat="43.24533110727515" lon="12.092801739797572"><ele>633.0</ele><time>2026-04-19T08:47:22Z</time></trkpt><trkpt lat="43.24526940653707" lon="12.092764746114606"><ele>634.0</ele><time>2026-04-19T08:47:23Z</time></trkpt><trkpt lat="43.245200993658734" lon="12.092808004888571"><ele>635.0</ele><time>2026-04-19T08:47:24Z</time></trkpt><trkpt lat="43.24512671449987" lon="12.092855179067763"><ele>636.0</ele><time>2026-04-19T08:47:25Z</time></trkpt><trkpt lat="43.24504387994001" lon="12.092921061499068"><ele>636.0</ele><time>2026-04-19T08:47:26Z</time></trkpt><trkpt lat="43.24493817987706" lon="12.09300573291425"><ele>636.0</ele><time>2026-04-19T08:47:27Z</time></trkpt><trkpt lat="43.244824294336716" lon="12.093072396014964"><ele>636.0</ele><time>2026-04-19T08:47:28Z</time></trkpt><trkpt lat="43.2447381147837" lon="12.09313378891911"><ele>636.0</ele><time>2026-04-19T08:47:29Z</time></trkpt><trkpt lat="43.24466646237979" lon="12.093171232765108"><ele>636.0</ele><time>2026-04-19T08:47:30Z</time></trkpt><trkpt lat="43.24457977440793" lon="12.093199476998453"><ele>637.6666666666666</ele><time>2026-04-19T08:47:31Z</time></trkpt><trkpt lat="43.244498030526564" lon="12.093266678061712"><ele>639.3333333333334</ele><time>2026-04-19T08:47:32Z</time></trkpt><trkpt lat="43.24441907089437" lon="12.093309822184377"><ele>641.0</ele><time>2026-04-19T08:47:33Z</time></trkpt><trkpt lat="43.244355611904275" lon="12.093364834823161"><ele>642.6666666666667</ele><time>2026-04-19T08:47:34Z</time></trkpt><trkpt lat="43.24428772839691" lon="12.093419399190958"><ele>644.3333333333334</ele><time>2026-04-19T08:47:35Z</time></trkpt><trkpt lat="43.244221587067806" lon="12.093472563209843"><ele>646.0</ele><time>2026-04-19T08:47:36Z</time></trkpt><trkpt lat="43.244126096774664" lon="12.093549317967485"><ele>646.0</ele><time>2026-04-19T08:47:38Z</time></trkpt><trkpt lat="43.2440306594775" lon="12.093646180807296"><ele>646.0</ele><time>2026-04-19T08:47:40Z</time></trkpt><trkpt lat="43.24395731495461" lon="12.093733263409105"><ele>646.0</ele><time>2026-04-19T08:47:42Z</time></trkpt><trkpt lat="43.24390478608962" lon="12.0937994366319"><ele>646.0</ele><time>2026-04-19T08:47:43Z</time></trkpt><trkpt lat="43.24383165856035" lon="12.093889588353667"><ele>646.0</ele><time>2026-04-19T08:47:44Z</time></trkpt><trkpt lat="43.24375874399662" lon="12.093979317909827"><ele>646.8</ele><time>2026-04-19T08:47:45Z</time></trkpt><trkpt lat="43.243687479352694" lon="12.094054895765336"><ele>647.5999999999999</ele><time>2026-04-19T08:47:46Z</time></trkpt><trkpt lat="43.243575631205054" lon="12.09415504519629"><ele>648.4</ele><time>2026-04-19T08:47:47Z</time></trkpt><trkpt lat="43.243495818529" lon="12.094214534958706"><ele>649.2</ele><time>2026-04-19T08:47:48Z</time></trkpt><trkpt lat="43.24342751875494" lon="12.094265443383298"><ele>650.0</ele><time>2026-04-19T08:47:49Z</time></trkpt><trkpt lat="43.243345323227146" lon="12.094330796668274"><ele>650.0</ele><time>2026-04-19T08:47:51Z</time></trkpt><trkpt lat="43.243249670558136" lon="12.09440614721575"><ele>650.0</ele><time>2026-04-19T08:47:53Z</time></trkpt><trkpt lat="43.24319333481514" lon="12.094450525830053"><ele>650.0</ele><time>2026-04-19T08:47:54Z</time></trkpt><trkpt lat="43.243129875301555" lon="12.094480299147886"><ele>650.0</ele><time>2026-04-19T08:47:55Z</time></trkpt><trkpt lat="43.24305009436507" lon="12.09451899507642"><ele>650.0</ele><time>2026-04-19T08:47:56Z</time></trkpt><trkpt lat="43.2429866907218" lon="12.094540305103173"><ele>650.0</ele><time>2026-04-19T08:47:57Z</time></trkpt><trkpt lat="43.24259171426992" lon="12.093781151243936"><ele>648.5714285714286</ele><time>2026-04-19T08:47:58Z</time></trkpt><trkpt lat="43.2425259434938" lon="12.09375888230952"><ele>647.1428571428572</ele><time>2026-04-19T08:47:59Z</time></trkpt><trkpt lat="43.24245281276085" lon="12.093758234326545"><ele>645.7142857142858</ele><time>2026-04-19T08:48:00Z</time></trkpt><trkpt lat="43.2423721289843" lon="12.093770547039936"><ele>644.2857142857142</ele><time>2026-04-19T08:48:01Z</time></trkpt><trkpt lat="43.24230345503525" lon="12.093767027110703"><ele>642.8571428571429</ele><time>2026-04-19T08:48:02Z</time></trkpt><trkpt lat="43.242223523333415" lon="12.093757207074875"><ele>641.4285714285714</ele><time>2026-04-19T08:48:03Z</time></trkpt><trkpt lat="43.242149839919854" lon="12.093759896710592"><ele>640.0</ele><time>2026-04-19T08:48:04Z</time></trkpt><trkpt lat="43.24207276958366" lon="12.093773612757689"><ele>640.0</ele><time>2026-04-19T08:48:05Z</time></trkpt><trkpt lat="43.24199432552589" lon="12.093769259862977"><ele>640.0</ele><time>2026-04-19T08:48:06Z</time></trkpt><trkpt lat="43.241921869524695" lon="12.093750094081704"><ele>640.0</ele><time>2026-04-19T08:48:07Z</time></trkpt><trkpt lat="43.24184378770417" lon="12.09372636714339"><ele>640.0</ele><time>2026-04-19T08:48:08Z</time></trkpt><trkpt lat="43.241767206405484" lon="12.093703745735308"><ele>640.0</ele><time>2026-04-19T08:48:09Z</time></trkpt><trkpt lat="43.24168778131927" lon="12.09369969354993"><ele>640.0</ele><time>2026-04-19T08:48:10Z</time></trkpt><trkpt lat="43.24160948247707" lon="12.09368360579409"><ele>640.0</ele><time>2026-04-19T08:48:11Z</time></trkpt><trkpt lat="43.241533968055016" lon="12.093679715014808"><ele>640.0</ele><time>2026-04-19T08:48:12Z</time></trkpt><trkpt lat="43.241457114712844" lon="12.093687175265584"><ele>640.0</ele><time>2026-04-19T08:48:13Z</time></trkpt><trkpt lat="43.241391964369136" lon="12.0936967054455"><ele>640.0</ele><time>2026-04-19T08:48:14Z</time></trkpt><trkpt lat="43.24129986621279" lon="12.093664963316645"><ele>640.0</ele><time>2026-04-19T08:48:16Z</time></trkpt><trkpt lat="43.24122940818879" lon="12.093649111472349"><ele>640.0</ele><time>2026-04-19T08:48:18Z</time></trkpt><trkpt lat="43.241114310472874" lon="12.093617161525117"><ele>640.1666666666667</ele><time>2026-04-19T08:48:21Z</time></trkpt><trkpt lat="43.241041087462065" lon="12.0936088059919"><ele>640.3333333333334</ele><time>2026-04-19T08:48:22Z</time></trkpt><trkpt lat="43.24092823344132" lon="12.093649561271913"><ele>640.5</ele><time>2026-04-19T08:48:24Z</time></trkpt><trkpt lat="43.240860759676345" lon="12.093652057606485"><ele>640.6666666666666</ele><time>2026-04-19T08:48:25Z</time></trkpt><trkpt lat="43.24078112231635" lon="12.093642312744185"><ele>640.8333333333333</ele><time>2026-04-19T08:48:26Z</time></trkpt><trkpt lat="43.24069543882359" lon="12.093643576264252"><ele>641.0</ele><time>2026-04-19T08:48:27Z</time></trkpt><trkpt lat="43.24061576980862" lon="12.093637325455202"><ele>639.5999999999999</ele><time>2026-04-19T08:48:28Z</time></trkpt><trkpt lat="43.2405167057121" lon="12.09362554916094"><ele>638.1999999999999</ele><time>2026-04-19T08:48:30Z</time></trkpt><trkpt lat="43.24044454483696" lon="12.093616167005193"><ele>636.8</ele><time>2026-04-19T08:48:32Z</time></trkpt><trkpt lat="43.240341610492116" lon="12.093605311672356"><ele>635.4</ele><time>2026-04-19T08:48:34Z</time></trkpt><trkpt lat="43.24023204871283" lon="12.093555427395062"><ele>634.0</ele><time>2026-04-19T08:48:36Z</time></trkpt><trkpt lat="43.24015270885862" lon="12.093507686949946"><ele>634.0</ele><time>2026-04-19T08:48:38Z</time></trkpt><trkpt lat="43.24008212846126" lon="12.093486715557022"><ele>634.0</ele><time>2026-04-19T08:48:40Z</time></trkpt><trkpt lat="43.240010225348755" lon="12.093491118358612"><ele>634.0</ele><time>2026-04-19T08:48:42Z</time></trkpt><trkpt lat="43.2399389199614" lon="12.093527406412761"><ele>634.0</ele><time>2026-04-19T08:48:44Z</time></trkpt><trkpt lat="43.23984717472369" lon="12.093585687494414"><ele>634.0</ele><time>2026-04-19T08:48:46Z</time></trkpt><trkpt lat="43.23971925335437" lon="12.09365404326922"><ele>631.6</ele><time>2026-04-19T08:48:48Z</time></trkpt><trkpt lat="43.23965982176287" lon="12.093709797665012"><ele>629.2</ele><time>2026-04-19T08:48:49Z</time></trkpt><trkpt lat="43.23955494370134" lon="12.093804040724297"><ele>626.8000000000001</ele><time>2026-04-19T08:48:51Z</time></trkpt><trkpt lat="43.23948766355743" lon="12.09384729209576"><ele>624.4</ele><time>2026-04-19T08:48:52Z</time></trkpt><trkpt lat="43.23938159270139" lon="12.093899544050881"><ele>622.0</ele><time>2026-04-19T08:48:54Z</time></trkpt><trkpt lat="43.239288796364164" lon="12.093985400531087"><ele>622.0</ele><time>2026-04-19T08:48:56Z</time></trkpt><trkpt lat="43.23921067562743" lon="12.094052213232697"><ele>622.0</ele><time>2026-04-19T08:48:57Z</time></trkpt><trkpt lat="43.23915206031156" lon="12.094106613177912"><ele>622.0</ele><time>2026-04-19T08:48:58Z</time></trkpt><trkpt lat="43.23910036364893" lon="12.094159006623393"><ele>622.0</ele><time>2026-04-19T08:48:59Z</time></trkpt><trkpt lat="43.23899854061853" lon="12.094216535898825"><ele>622.0</ele><time>2026-04-19T08:49:01Z</time></trkpt><trkpt lat="43.23892542139541" lon="12.094223572730085"><ele>622.0</ele><time>2026-04-19T08:49:02Z</time></trkpt><trkpt lat="43.23885041404469" lon="12.094230096152303"><ele>624.1666666666667</ele><time>2026-04-19T08:49:03Z</time></trkpt><trkpt lat="43.238772945166474" lon="12.094231209616316"><ele>626.3333333333334</ele><time>2026-04-19T08:49:04Z</time></trkpt><trkpt lat="43.23866849269103" lon="12.094257259215151"><ele>628.5</ele><time>2026-04-19T08:49:06Z</time></trkpt><trkpt lat="43.23859885131102" lon="12.094271325300173"><ele>630.6666666666666</ele><time>2026-04-19T08:49:08Z</time></trkpt><trkpt lat="43.23854690502189" lon="12.09435728046992"><ele>632.8333333333333</ele><time>2026-04-19T08:49:10Z</time></trkpt><trkpt lat="43.23850789628714" lon="12.094431918342808"><ele>635.0</ele><time>2026-04-19T08:49:11Z</time></trkpt><trkpt lat="43.23844925899526" lon="12.094537004254313"><ele>635.0</ele><time>2026-04-19T08:49:13Z</time></trkpt><trkpt lat="43.23837005400255" lon="12.094630920903205"><ele>635.0</ele><time>2026-04-19T08:49:15Z</time></trkpt><trkpt lat="43.23833050987099" lon="12.094738834336013"><ele>635.0</ele><time>2026-04-19T08:49:17Z</time></trkpt><trkpt lat="43.23831336010617" lon="12.094823453681599"><ele>635.0</ele><time>2026-04-19T08:49:19Z</time></trkpt><trkpt lat="43.23830513688465" lon="12.094938742031456"><ele>635.0</ele><time>2026-04-19T08:49:21Z</time></trkpt><trkpt lat="43.238307658921364" lon="12.095075242063066"><ele>635.0</ele><time>2026-04-19T08:49:23Z</time></trkpt><trkpt lat="43.2383455929324" lon="12.095206131635747"><ele>635.5</ele><time>2026-04-19T08:49:25Z</time></trkpt><trkpt lat="43.238435121388996" lon="12.09531260247433"><ele>636.0</ele><time>2026-04-19T08:49:27Z</time></trkpt><trkpt lat="43.23849805268763" lon="12.095361552680055"><ele>636.5</ele><time>2026-04-19T08:49:28Z</time></trkpt><trkpt lat="43.238556246737225" lon="12.09540330741924"><ele>637.0</ele><time>2026-04-19T08:49:29Z</time></trkpt><trkpt lat="43.23861506174848" lon="12.095488323824965"><ele>637.5</ele><time>2026-04-19T08:49:31Z</time></trkpt><trkpt lat="43.23860743410513" lon="12.0956043879399"><ele>638.0</ele><time>2026-04-19T08:49:34Z</time></trkpt><trkpt lat="43.23856534236542" lon="12.095758680588853"><ele>639.6666666666666</ele><time>2026-04-19T08:49:36Z</time></trkpt><trkpt lat="43.2385322112196" lon="12.095863871691583"><ele>641.3333333333333</ele><time>2026-04-19T08:49:37Z</time></trkpt><trkpt lat="43.2385114247061" lon="12.0959511634235"><ele>643.0</ele><time>2026-04-19T08:49:38Z</time></trkpt><trkpt lat="43.23849751007347" lon="12.096044832896888"><ele>644.6666666666666</ele><time>2026-04-19T08:49:39Z</time></trkpt><trkpt lat="43.238495311485245" lon="12.096132806404052"><ele>646.3333333333334</ele><time>2026-04-19T08:49:40Z</time></trkpt><trkpt lat="43.23847157248012" lon="12.096300800711761"><ele>648.0</ele><time>2026-04-19T08:49:42Z</time></trkpt><trkpt lat="43.23847596634926" lon="12.096414455220883"><ele>648.0</ele><time>2026-04-19T08:49:44Z</time></trkpt><trkpt lat="43.238500196322704" lon="12.096536514384853"><ele>648.0</ele><time>2026-04-19T08:49:47Z</time></trkpt><trkpt lat="43.23852885911455" lon="12.096648518801759"><ele>648.0</ele><time>2026-04-19T08:49:49Z</time></trkpt><trkpt lat="43.23855424966837" lon="12.0967999538918"><ele>648.0</ele><time>2026-04-19T08:49:51Z</time></trkpt><trkpt lat="43.23855566991758" lon="12.096914330208346"><ele>648.0</ele><time>2026-04-19T08:49:53Z</time></trkpt><trkpt lat="43.23849681658783" lon="12.097034935879131"><ele>648.5999999999999</ele><time>2026-04-19T08:49:55Z</time></trkpt><trkpt lat="43.23838199451189" lon="12.097085375165982"><ele>649.1999999999999</ele><time>2026-04-19T08:49:57Z</time></trkpt><trkpt lat="43.238303923198615" lon="12.097082046755968"><ele>649.8</ele><time>2026-04-19T08:49:58Z</time></trkpt><trkpt lat="43.23821129109668" lon="12.0970881289267"><ele>650.4</ele><time>2026-04-19T08:49:59Z</time></trkpt><trkpt lat="43.238114822755215" lon="12.097090481676384"><ele>651.0</ele><time>2026-04-19T08:50:00Z</time></trkpt><trkpt lat="43.23804109747654" lon="12.09709822191404"><ele>653.5999999999999</ele><time>2026-04-19T08:50:01Z</time></trkpt><trkpt lat="43.237964436073746" lon="12.097114657541931"><ele>656.2</ele><time>2026-04-19T08:50:03Z</time></trkpt><trkpt lat="43.237886807590016" lon="12.097133494016132"><ele>658.8</ele><time>2026-04-19T08:50:07Z</time></trkpt><trkpt lat="43.23776916827639" lon="12.097187204727941"><ele>661.4000000000001</ele><time>2026-04-19T08:50:09Z</time></trkpt><trkpt lat="43.23770275783383" lon="12.097240537711441"><ele>664.0</ele><time>2026-04-19T08:50:11Z</time></trkpt><trkpt lat="43.23763844867507" lon="12.097337421671268"><ele>662.6</ele><time>2026-04-19T08:50:13Z</time></trkpt><trkpt lat="43.23756652762787" lon="12.097477055038446"><ele>661.2</ele><time>2026-04-19T08:50:15Z</time></trkpt><trkpt lat="43.237538893996415" lon="12.097561937461125"><ele>659.8000000000001</ele><time>2026-04-19T08:50:16Z</time></trkpt><trkpt lat="43.23750701242639" lon="12.097685553034468"><ele>658.4000000000001</ele><time>2026-04-19T08:50:18Z</time></trkpt><trkpt lat="43.23747974237776" lon="12.097828749243098"><ele>657.0</ele><time>2026-04-19T08:50:20Z</time></trkpt><trkpt lat="43.23745893818107" lon="12.097959529634968"><ele>657.0</ele><time>2026-04-19T08:50:22Z</time></trkpt><trkpt lat="43.237416697446555" lon="12.098085762199569"><ele>657.0</ele><time>2026-04-19T08:50:24Z</time></trkpt><trkpt lat="43.2373462948059" lon="12.098199854154817"><ele>657.0</ele><time>2026-04-19T08:50:26Z</time></trkpt><trkpt lat="43.23724158883282" lon="12.098233985808324"><ele>657.0</ele><time>2026-04-19T08:50:29Z</time></trkpt><trkpt lat="43.23710991173956" lon="12.098194729658164"><ele>656.8</ele><time>2026-04-19T08:50:31Z</time></trkpt><trkpt lat="43.23701585287091" lon="12.098155801558198"><ele>656.6</ele><time>2026-04-19T08:50:32Z</time></trkpt><trkpt lat="43.236906493988" lon="12.098115759072934"><ele>656.4</ele><time>2026-04-19T08:50:33Z</time></trkpt><trkpt lat="43.23680909312439" lon="12.098085411711336"><ele>656.1999999999999</ele><time>2026-04-19T08:50:34Z</time></trkpt><trkpt lat="43.236729780345314" lon="12.098062426324807"><ele>656.0</ele><time>2026-04-19T08:50:35Z</time></trkpt><trkpt lat="43.23666013186781" lon="12.098059526797844"><ele>655.9999999999999</ele><time>2026-04-19T08:50:36Z</time></trkpt><trkpt lat="43.23659468496028" lon="12.098072804579589"><ele>656.0</ele><time>2026-04-19T08:50:37Z</time></trkpt><trkpt lat="43.2365299225204" lon="12.09810131313608"><ele>656.0</ele><time>2026-04-19T08:50:38Z</time></trkpt><trkpt lat="43.236468831277776" lon="12.09813718268618"><ele>656.0</ele><time>2026-04-19T08:50:39Z</time></trkpt><trkpt lat="43.23640742518858" lon="12.098176891401593"><ele>656.0</ele><time>2026-04-19T08:50:40Z</time></trkpt><trkpt lat="43.236333113341466" lon="12.098176009291453"><ele>655.9999999999999</ele><time>2026-04-19T08:50:41Z</time></trkpt><trkpt lat="43.236268054249706" lon="12.098213691499996"><ele>656.0</ele><time>2026-04-19T08:50:42Z</time></trkpt><trkpt lat="43.23617368796333" lon="12.098237683533918"><ele>653.8</ele><time>2026-04-19T08:50:44Z</time></trkpt><trkpt lat="43.236050488847454" lon="12.098236974106456"><ele>651.5999999999999</ele><time>2026-04-19T08:51:22Z</time></trkpt><trkpt lat="43.23591316957067" lon="12.098290437858884"><ele>649.4</ele><time>2026-04-19T08:51:24Z</time></trkpt><trkpt lat="43.23585575562458" lon="12.098388189050953"><ele>647.2</ele><time>2026-04-19T08:51:25Z</time></trkpt><trkpt lat="43.23581702448536" lon="12.098492826036303"><ele>645.0</ele><time>2026-04-19T08:51:26Z</time></trkpt><trkpt lat="43.235770338777364" lon="12.098591956496694"><ele>645.0</ele><time>2026-04-19T08:51:27Z</time></trkpt><trkpt lat="43.23568306514369" lon="12.0986221262791"><ele>645.0</ele><time>2026-04-19T08:51:28Z</time></trkpt><trkpt lat="43.235614129586104" lon="12.098677839085509"><ele>645.0</ele><time>2026-04-19T08:51:29Z</time></trkpt><trkpt lat="43.23554943630989" lon="12.098730123381825"><ele>645.0</ele><time>2026-04-19T08:51:30Z</time></trkpt><trkpt lat="43.23549518261383" lon="12.098793756113231"><ele>645.0</ele><time>2026-04-19T08:51:31Z</time></trkpt><trkpt lat="43.23542284357032" lon="12.098826369948776"><ele>645.0</ele><time>2026-04-19T08:51:32Z</time></trkpt><trkpt lat="43.23533985397677" lon="12.09889171656581"><ele>642.8</ele><time>2026-04-19T08:51:33Z</time></trkpt><trkpt lat="43.23526271788965" lon="12.099006896566646"><ele>640.6</ele><time>2026-04-19T08:51:34Z</time></trkpt><trkpt lat="43.23521955293374" lon="12.09913560127047"><ele>638.4</ele><time>2026-04-19T08:51:35Z</time></trkpt><trkpt lat="43.23514900095108" lon="12.099243920837841"><ele>636.2</ele><time>2026-04-19T08:51:36Z</time></trkpt><trkpt lat="43.23506061261454" lon="12.099354614903216"><ele>634.0</ele><time>2026-04-19T08:51:37Z</time></trkpt><trkpt lat="43.23497624757466" lon="12.099455225861137"><ele>634.0</ele><time>2026-04-19T08:51:38Z</time></trkpt><trkpt lat="43.23489472105022" lon="12.09956204711949"><ele>634.0</ele><time>2026-04-19T08:51:39Z</time></trkpt><trkpt lat="43.23481789500497" lon="12.099669200019068"><ele>634.0</ele><time>2026-04-19T08:51:40Z</time></trkpt><trkpt lat="43.234737123645075" lon="12.099785238924103"><ele>634.0</ele><time>2026-04-19T08:51:41Z</time></trkpt><trkpt lat="43.234663633362224" lon="12.099892976593232"><ele>634.0</ele><time>2026-04-19T08:51:42Z</time></trkpt><trkpt lat="43.2345952725254" lon="12.100014276372349"><ele>631.0</ele><time>2026-04-19T08:51:43Z</time></trkpt><trkpt lat="43.23453221892073" lon="12.100106923593147"><ele>628.0</ele><time>2026-04-19T08:51:44Z</time></trkpt><trkpt lat="43.234476069060044" lon="12.100183802013506"><ele>625.0</ele><time>2026-04-19T08:51:45Z</time></trkpt><trkpt lat="43.23441105127288" lon="12.100236990978436"><ele>622.0</ele><time>2026-04-19T08:51:46Z</time></trkpt><trkpt lat="43.23435427440886" lon="12.100296655264033"><ele>619.0</ele><time>2026-04-19T08:51:47Z</time></trkpt><trkpt lat="43.23429548315852" lon="12.100356725928064"><ele>616.0</ele><time>2026-04-19T08:51:48Z</time></trkpt><trkpt lat="43.234229310466226" lon="12.100420618644385"><ele>616.0</ele><time>2026-04-19T08:51:49Z</time></trkpt><trkpt lat="43.23416963643258" lon="12.100506899274482"><ele>616.0</ele><time>2026-04-19T08:51:50Z</time></trkpt><trkpt lat="43.23409918316599" lon="12.100575315624923"><ele>616.0</ele><time>2026-04-19T08:51:51Z</time></trkpt><trkpt lat="43.234033987307576" lon="12.100638781098509"><ele>616.0</ele><time>2026-04-19T08:51:52Z</time></trkpt><trkpt lat="43.233981931898796" lon="12.100704455797207"><ele>616.0</ele><time>2026-04-19T08:51:53Z</time></trkpt><trkpt lat="43.233928043816704" lon="12.100820993675846"><ele>616.0</ele><time>2026-04-19T08:51:54Z</time></trkpt><trkpt lat="43.23386740465192" lon="12.100937771883592"><ele>613.4</ele><time>2026-04-19T08:51:55Z</time></trkpt><trkpt lat="43.23381105034527" lon="12.10107276028959"><ele>610.8</ele><time>2026-04-19T08:51:56Z</time></trkpt><trkpt lat="43.23377358668019" lon="12.101191993954279"><ele>608.1999999999999</ele><time>2026-04-19T08:51:57Z</time></trkpt><trkpt lat="43.233727339865304" lon="12.101314674055992"><ele>605.6</ele><time>2026-04-19T08:51:58Z</time></trkpt><trkpt lat="43.2336568626352" lon="12.101419244126685"><ele>603.0</ele><time>2026-04-19T08:51:59Z</time></trkpt><trkpt lat="43.23358640886757" lon="12.101534218276235"><ele>603.5</ele><time>2026-04-19T08:52:00Z</time></trkpt><trkpt lat="43.23351518234145" lon="12.10167733032541"><ele>604.0</ele><time>2026-04-19T08:52:01Z</time></trkpt><trkpt lat="43.23343819812917" lon="12.101789527754686"><ele>604.5</ele><time>2026-04-19T08:52:02Z</time></trkpt><trkpt lat="43.23333746194595" lon="12.101875010745854"><ele>605.0</ele><time>2026-04-19T08:52:03Z</time></trkpt><trkpt lat="43.23324173909873" lon="12.101965486945172"><ele>605.0</ele><time>2026-04-19T08:52:04Z</time></trkpt><trkpt lat="43.23315148793734" lon="12.102042919808442"><ele>605.0</ele><time>2026-04-19T08:52:05Z</time></trkpt><trkpt lat="43.23306756650008" lon="12.102115002334992"><ele>605.0</ele><time>2026-04-19T08:52:06Z</time></trkpt><trkpt lat="43.23300433436983" lon="12.102209523007199"><ele>605.0</ele><time>2026-04-19T08:52:07Z</time></trkpt><trkpt lat="43.232946924651095" lon="12.102289539395038"><ele>605.0</ele><time>2026-04-19T08:52:08Z</time></trkpt><trkpt lat="43.232898072861865" lon="12.102369501067717"><ele>602.4</ele><time>2026-04-19T08:52:09Z</time></trkpt><trkpt lat="43.23285235095697" lon="12.102521846154866"><ele>599.8</ele><time>2026-04-19T08:52:11Z</time></trkpt><trkpt lat="43.23283871095155" lon="12.102607804983183"><ele>597.2</ele><time>2026-04-19T08:52:12Z</time></trkpt><trkpt lat="43.23294820434969" lon="12.102723929036864"><ele>594.6</ele><time>2026-04-19T08:52:14Z</time></trkpt><trkpt lat="43.233015551161806" lon="12.102769817515622"><ele>592.0</ele><time>2026-04-19T08:52:15Z</time></trkpt><trkpt lat="43.233083044207284" lon="12.102802072264788"><ele>594.0</ele><time>2026-04-19T08:52:16Z</time></trkpt><trkpt lat="43.23317146749638" lon="12.102900800593178"><ele>596.0</ele><time>2026-04-19T08:52:18Z</time></trkpt><trkpt lat="43.23322340153775" lon="12.102961917789772"><ele>598.0</ele><time>2026-04-19T08:52:20Z</time></trkpt><trkpt lat="43.23325960778589" lon="12.103056201325508"><ele>600.0</ele><time>2026-04-19T08:52:22Z</time></trkpt><trkpt lat="43.23334862463574" lon="12.103110068498184"><ele>602.0</ele><time>2026-04-19T08:52:23Z</time></trkpt><trkpt lat="43.23344541308582" lon="12.103217985885248"><ele>601.0</ele><time>2026-04-19T08:52:24Z</time></trkpt><trkpt lat="43.23352244807836" lon="12.10335495961318"><ele>600.0</ele><time>2026-04-19T08:52:25Z</time></trkpt><trkpt lat="43.23356789123747" lon="12.103521825558255"><ele>599.0</ele><time>2026-04-19T08:52:26Z</time></trkpt><trkpt lat="43.233555058402594" lon="12.103709747475136"><ele>598.0</ele><time>2026-04-19T08:52:27Z</time></trkpt><trkpt lat="43.233550324458406" lon="12.103910390195576"><ele>597.75</ele><time>2026-04-19T08:52:28Z</time></trkpt><trkpt lat="43.23353925120634" lon="12.104110784383073"><ele>597.5</ele><time>2026-04-19T08:52:29Z</time></trkpt><trkpt lat="43.23356334388016" lon="12.104306417117755"><ele>597.25</ele><time>2026-04-19T08:52:30Z</time></trkpt><trkpt lat="43.23361696676129" lon="12.104486108770177"><ele>597.0</ele><time>2026-04-19T08:52:31Z</time></trkpt><trkpt lat="43.23369705428446" lon="12.104639543852468"><ele>597.0</ele><time>2026-04-19T08:52:32Z</time></trkpt><trkpt lat="43.2338057650341" lon="12.104772351433365"><ele>597.0</ele><time>2026-04-19T08:52:33Z</time></trkpt><trkpt lat="43.23393516289745" lon="12.104871157162574"><ele>597.0</ele><time>2026-04-19T08:52:34Z</time></trkpt><trkpt lat="43.23408526045635" lon="12.104939483165724"><ele>598.5</ele><time>2026-04-19T08:52:35Z</time></trkpt><trkpt lat="43.23423842026473" lon="12.104995805265007"><ele>600.0</ele><time>2026-04-19T08:52:36Z</time></trkpt><trkpt lat="43.2343617223711" lon="12.105092741230862"><ele>601.5</ele><time>2026-04-19T08:52:37Z</time></trkpt><trkpt lat="43.23446509625128" lon="12.105188331242326"><ele>603.0</ele><time>2026-04-19T08:52:38Z</time></trkpt><trkpt lat="43.23452561794386" lon="12.105347017916943"><ele>603.0</ele><time>2026-04-19T08:52:39Z</time></trkpt><trkpt lat="43.234519567783806" lon="12.105536809653072"><ele>603.0</ele><time>2026-04-19T08:52:40Z</time></trkpt><trkpt lat="43.23448982347267" lon="12.10573666250776"><ele>603.0</ele><time>2026-04-19T08:52:41Z</time></trkpt><trkpt lat="43.234452164592334" lon="12.105938140384588"><ele>603.0</ele><time>2026-04-19T08:52:42Z</time></trkpt><trkpt lat="43.23440458603447" lon="12.106126489401342"><ele>601.5</ele><time>2026-04-19T08:52:43Z</time></trkpt><trkpt lat="43.234386777148536" lon="12.10630623641313"><ele>600.0</ele><time>2026-04-19T08:52:44Z</time></trkpt><trkpt lat="43.23439649158893" lon="12.106477096701884"><ele>598.5</ele><time>2026-04-19T08:52:45Z</time></trkpt><trkpt lat="43.23444180254264" lon="12.10663801497746"><ele>597.0</ele><time>2026-04-19T08:52:46Z</time></trkpt><trkpt lat="43.23452133935812" lon="12.10677959473419"><ele>597.0</ele><time>2026-04-19T08:52:47Z</time></trkpt><trkpt lat="43.234628972443986" lon="12.1068748678724"><ele>597.0</ele><time>2026-04-19T08:52:48Z</time></trkpt><trkpt lat="43.234758291529296" lon="12.106923551843938"><ele>597.0</ele><time>2026-04-19T08:52:49Z</time></trkpt><trkpt lat="43.23488453447226" lon="12.10695707016276"><ele>597.0</ele><time>2026-04-19T08:52:50Z</time></trkpt><trkpt lat="43.2349855311865" lon="12.10702556248711"><ele>599.0</ele><time>2026-04-19T08:52:51Z</time></trkpt><trkpt lat="43.235055882113414" lon="12.107156291751577"><ele>601.0</ele><time>2026-04-19T08:52:52Z</time></trkpt><trkpt lat="43.23508733395639" lon="12.107340862072775"><ele>603.0</ele><time>2026-04-19T08:52:53Z</time></trkpt><trkpt lat="43.2350900237272" lon="12.107549257045386"><ele>605.0</ele><time>2026-04-19T08:52:54Z</time></trkpt><trkpt lat="43.23507690507623" lon="12.10774947125445"><ele>605.0</ele><time>2026-04-19T08:52:55Z</time></trkpt><trkpt lat="43.23505992887011" lon="12.107912747404825"><ele>605.0</ele><time>2026-04-19T08:52:56Z</time></trkpt><trkpt lat="43.235023395710186" lon="12.108035545960837"><ele>605.0</ele><time>2026-04-19T08:52:57Z</time></trkpt><trkpt lat="43.234973804808384" lon="12.108146664166275"><ele>605.0</ele><time>2026-04-19T08:52:58Z</time></trkpt><trkpt lat="43.23493420099639" lon="12.108265777974973"><ele>605.0</ele><time>2026-04-19T08:52:59Z</time></trkpt><trkpt lat="43.234934710978564" lon="12.108391758486638"><ele>604.8333333333333</ele><time>2026-04-19T08:53:00Z</time></trkpt><trkpt lat="43.234965457779026" lon="12.108510131168817"><ele>604.6666666666666</ele><time>2026-04-19T08:53:01Z</time></trkpt><trkpt lat="43.23503305906225" lon="12.108607067127243"><ele>604.5</ele><time>2026-04-19T08:53:02Z</time></trkpt><trkpt lat="43.235113703875285" lon="12.10866128342882"><ele>604.3333333333334</ele><time>2026-04-19T08:53:03Z</time></trkpt><trkpt lat="43.23520007629745" lon="12.108661715216087"><ele>604.1666666666667</ele><time>2026-04-19T08:53:04Z</time></trkpt><trkpt lat="43.235272943318314" lon="12.108656630879072"><ele>604.0</ele><time>2026-04-19T08:53:05Z</time></trkpt><trkpt lat="43.23533758786859" lon="12.108642452863807"><ele>604.0</ele><time>2026-04-19T08:53:08Z</time></trkpt><trkpt lat="43.23490668205307" lon="12.108438902142439"><ele>604.0</ele><time>2026-04-19T08:53:17Z</time></trkpt><trkpt lat="43.23509362671535" lon="12.108623394975218"><ele>604.0</ele><time>2026-04-19T08:53:18Z</time></trkpt><trkpt lat="43.23501630617101" lon="12.10855150956664"><ele>604.0</ele><time>2026-04-19T08:53:19Z</time></trkpt><trkpt lat="43.23496145101847" lon="12.108434266057802"><ele>604.0</ele><time>2026-04-19T08:53:20Z</time></trkpt><trkpt lat="43.23495090424709" lon="12.10829373239542"><ele>604.25</ele><time>2026-04-19T08:53:21Z</time></trkpt><trkpt lat="43.23498230168616" lon="12.108150297593548"><ele>604.5</ele><time>2026-04-19T08:53:22Z</time></trkpt><trkpt lat="43.23503949843521" lon="12.107986245366412"><ele>604.75</ele><time>2026-04-19T08:53:23Z</time></trkpt><trkpt lat="43.23509321275146" lon="12.107812858468806"><ele>605.0</ele><time>2026-04-19T08:53:24Z</time></trkpt><trkpt lat="43.235109243762075" lon="12.107612266501853"><ele>605.0</ele><time>2026-04-19T08:53:25Z</time></trkpt><trkpt lat="43.23509984050204" lon="12.107413674677401"><ele>605.0</ele><time>2026-04-19T08:53:26Z</time></trkpt><trkpt lat="43.23508703124421" lon="12.107255097717605"><ele>605.0</ele><time>2026-04-19T08:53:27Z</time></trkpt><trkpt lat="43.23506391632492" lon="12.107122313906011"><ele>605.0</ele><time>2026-04-19T08:53:28Z</time></trkpt><trkpt lat="43.235009276552915" lon="12.107009338730853"><ele>605.0</ele><time>2026-04-19T08:53:29Z</time></trkpt><trkpt lat="43.23493217815958" lon="12.1069252955019"><ele>605.0</ele><time>2026-04-19T08:53:30Z</time></trkpt><trkpt lat="43.23485280057611" lon="12.106886279698882"><ele>605.0</ele><time>2026-04-19T08:53:31Z</time></trkpt><trkpt lat="43.23477847471387" lon="12.10686487462075"><ele>605.0</ele><time>2026-04-19T08:53:32Z</time></trkpt><trkpt lat="43.234669142649786" lon="12.106823186307764"><ele>605.0</ele><time>2026-04-19T08:53:34Z</time></trkpt><trkpt lat="43.2346012466534" lon="12.106786514868805"><ele>605.0</ele><time>2026-04-19T08:53:38Z</time></trkpt><trkpt lat="43.2345346103022" lon="12.106726769377387"><ele>603.4</ele><time>2026-04-19T08:53:41Z</time></trkpt><trkpt lat="43.23444765901923" lon="12.106890486517088"><ele>601.8</ele><time>2026-04-19T08:53:42Z</time></trkpt><trkpt lat="43.23442852575654" lon="12.106992219146079"><ele>600.2</ele><time>2026-04-19T08:53:43Z</time></trkpt><trkpt lat="43.23439708796713" lon="12.107078832240727"><ele>598.6</ele><time>2026-04-19T08:53:44Z</time></trkpt><trkpt lat="43.23433873591073" lon="12.107207881604978"><ele>597.0</ele><time>2026-04-19T08:53:46Z</time></trkpt><trkpt lat="43.23430899710675" lon="12.10737435717411"><ele>598.25</ele><time>2026-04-19T08:53:48Z</time></trkpt><trkpt lat="43.23430174042685" lon="12.107478940942547"><ele>599.5</ele><time>2026-04-19T08:53:49Z</time></trkpt><trkpt lat="43.2342850493494" lon="12.10761598694027"><ele>600.75</ele><time>2026-04-19T08:53:50Z</time></trkpt><trkpt lat="43.23423281792961" lon="12.107950616641695"><ele>602.0</ele><time>2026-04-19T08:53:52Z</time></trkpt><trkpt lat="43.234227231838396" lon="12.108114364624964"><ele>602.75</ele><time>2026-04-19T08:53:53Z</time></trkpt><trkpt lat="43.2342437305444" lon="12.108290371986199"><ele>603.5</ele><time>2026-04-19T08:53:54Z</time></trkpt><trkpt lat="43.23425728032319" lon="12.108459821120794"><ele>604.25</ele><time>2026-04-19T08:53:55Z</time></trkpt><trkpt lat="43.23421120856979" lon="12.108615779215508"><ele>605.0</ele><time>2026-04-19T08:53:56Z</time></trkpt><trkpt lat="43.234162217239245" lon="12.108787612611408"><ele>605.0</ele><time>2026-04-19T08:53:57Z</time></trkpt><trkpt lat="43.234117654418064" lon="12.109000881684244"><ele>605.0</ele><time>2026-04-19T08:53:58Z</time></trkpt><trkpt lat="43.23406902735103" lon="12.109179268466363"><ele>605.0</ele><time>2026-04-19T08:53:59Z</time></trkpt><trkpt lat="43.23403867969498" lon="12.109327222138434"><ele>605.0</ele><time>2026-04-19T08:54:00Z</time></trkpt><trkpt lat="43.23401396811933" lon="12.10947732793207"><ele>603.75</ele><time>2026-04-19T08:54:01Z</time></trkpt><trkpt lat="43.233985283173446" lon="12.109644823564597"><ele>602.5</ele><time>2026-04-19T08:54:02Z</time></trkpt><trkpt lat="43.233957735618965" lon="12.109811572928836"><ele>601.25</ele><time>2026-04-19T08:54:03Z</time></trkpt><trkpt lat="43.233943860412865" lon="12.109971976526797"><ele>600.0</ele><time>2026-04-19T08:54:04Z</time></trkpt><trkpt lat="43.2339501935621" lon="12.110125400188759"><ele>603.6</ele><time>2026-04-19T08:54:05Z</time></trkpt><trkpt lat="43.23398632696716" lon="12.110278526269605"><ele>607.2</ele><time>2026-04-19T08:54:06Z</time></trkpt><trkpt lat="43.23402329516971" lon="12.11040947860097"><ele>610.8</ele><time>2026-04-19T08:54:07Z</time></trkpt><trkpt lat="43.23407059004911" lon="12.110495150639872"><ele>614.4</ele><time>2026-04-19T08:54:08Z</time></trkpt><trkpt lat="43.2341308414236" lon="12.110541151739499"><ele>618.0</ele><time>2026-04-19T08:54:09Z</time></trkpt><trkpt lat="43.23421261587862" lon="12.110563359795167"><ele>618.0</ele><time>2026-04-19T08:54:10Z</time></trkpt><trkpt lat="43.234323870831204" lon="12.110578194640585"><ele>618.0</ele><time>2026-04-19T08:54:11Z</time></trkpt><trkpt lat="43.23446216056851" lon="12.110591412786404"><ele>618.0</ele><time>2026-04-19T08:54:12Z</time></trkpt><trkpt lat="43.234623680757394" lon="12.110607107339861"><ele>618.0</ele><time>2026-04-19T08:54:13Z</time></trkpt><trkpt lat="43.23478462387521" lon="12.110663282222221"><ele>618.25</ele><time>2026-04-19T08:54:14Z</time></trkpt><trkpt lat="43.23493014943672" lon="12.110676302878455"><ele>618.5</ele><time>2026-04-19T08:54:15Z</time></trkpt><trkpt lat="43.235046972802444" lon="12.110709783048284"><ele>618.75</ele><time>2026-04-19T08:54:16Z</time></trkpt><trkpt lat="43.23515584476637" lon="12.110771859775275"><ele>619.0</ele><time>2026-04-19T08:54:17Z</time></trkpt><trkpt lat="43.235262511413644" lon="12.110877657238174"><ele>622.5</ele><time>2026-04-19T08:54:18Z</time></trkpt><trkpt lat="43.235369367607376" lon="12.111014265300007"><ele>626.0</ele><time>2026-04-19T08:54:19Z</time></trkpt><trkpt lat="43.23546619119272" lon="12.111170402280946"><ele>629.5</ele><time>2026-04-19T08:54:20Z</time></trkpt><trkpt lat="43.23557586835988" lon="12.111251339610394"><ele>633.0</ele><time>2026-04-19T08:54:21Z</time></trkpt><trkpt lat="43.23565508159286" lon="12.11132404181229"><ele>633.0</ele><time>2026-04-19T08:54:22Z</time></trkpt><trkpt lat="43.23569708591152" lon="12.111404287108872"><ele>633.0</ele><time>2026-04-19T08:54:23Z</time></trkpt><trkpt lat="43.235679389993024" lon="12.111492184457488"><ele>633.0</ele><time>2026-04-19T08:54:25Z</time></trkpt><trkpt lat="43.23561871534532" lon="12.111520968290005"><ele>633.0</ele><time>2026-04-19T08:54:26Z</time></trkpt><trkpt lat="43.23554918719235" lon="12.11151611040847"><ele>633.0</ele><time>2026-04-19T08:54:27Z</time></trkpt><trkpt lat="43.235490640148534" lon="12.111422646070467"><ele>633.0</ele><time>2026-04-19T08:54:28Z</time></trkpt><trkpt lat="43.23540630170305" lon="12.111380923071698"><ele>633.0</ele><time>2026-04-19T08:54:29Z</time></trkpt><trkpt lat="43.2353163290405" lon="12.111393913002185"><ele>633.0</ele><time>2026-04-19T08:54:30Z</time></trkpt><trkpt lat="43.23524634282593" lon="12.111490238077009"><ele>633.0</ele><time>2026-04-19T08:54:31Z</time></trkpt><trkpt lat="43.23518886807839" lon="12.111595680978628"><ele>633.0</ele><time>2026-04-19T08:54:32Z</time></trkpt><trkpt lat="43.23513645937437" lon="12.111712119948212"><ele>633.0</ele><time>2026-04-19T08:54:33Z</time></trkpt><trkpt lat="43.23508834157245" lon="12.11182975809839"><ele>635.0</ele><time>2026-04-19T08:54:34Z</time></trkpt><trkpt lat="43.23506099589944" lon="12.111953396738754"><ele>637.0</ele><time>2026-04-19T08:54:35Z</time></trkpt><trkpt lat="43.235056866601234" lon="12.112086945734612"><ele>639.0</ele><time>2026-04-19T08:54:36Z</time></trkpt><trkpt lat="43.235083832746774" lon="12.112242001480064"><ele>641.0</ele><time>2026-04-19T08:54:37Z</time></trkpt><trkpt lat="43.235137175582395" lon="12.112401163619646"><ele>643.0</ele><time>2026-04-19T08:54:38Z</time></trkpt><trkpt lat="43.23519559237877" lon="12.112589348697146"><ele>643.0</ele><time>2026-04-19T08:54:39Z</time></trkpt><trkpt lat="43.23528386002369" lon="12.11279338207571"><ele>643.0</ele><time>2026-04-19T08:54:40Z</time></trkpt><trkpt lat="43.23537823900216" lon="12.11299301165238"><ele>643.0</ele><time>2026-04-19T08:54:41Z</time></trkpt><trkpt lat="43.235470746689515" lon="12.113155642087536"><ele>643.25</ele><time>2026-04-19T08:54:42Z</time></trkpt><trkpt lat="43.23554702215358" lon="12.113293801843378"><ele>643.5</ele><time>2026-04-19T08:54:43Z</time></trkpt><trkpt lat="43.23561697543544" lon="12.113428340064326"><ele>643.75</ele><time>2026-04-19T08:54:44Z</time></trkpt><trkpt lat="43.23567997767658" lon="12.113559670622733"><ele>644.0</ele><time>2026-04-19T08:54:45Z</time></trkpt><trkpt lat="43.235734203816655" lon="12.113695107124409"><ele>651.25</ele><time>2026-04-19T08:54:46Z</time></trkpt><trkpt lat="43.23575910276988" lon="12.113826623510372"><ele>658.5</ele><time>2026-04-19T08:54:47Z</time></trkpt><trkpt lat="43.235736511861674" lon="12.113969371338015"><ele>665.75</ele><time>2026-04-19T08:54:48Z</time></trkpt><trkpt lat="43.23571298809603" lon="12.114143704162133"><ele>673.0</ele><time>2026-04-19T08:54:49Z</time></trkpt><trkpt lat="43.23567977330475" lon="12.114331868410211"><ele>673.5</ele><time>2026-04-19T08:54:50Z</time></trkpt><trkpt lat="43.23564740565024" lon="12.114521240631612"><ele>674.0</ele><time>2026-04-19T08:54:51Z</time></trkpt><trkpt lat="43.23563656924772" lon="12.114673628883722"><ele>674.5</ele><time>2026-04-19T08:54:52Z</time></trkpt><trkpt lat="43.23562705174241" lon="12.114811729187716"><ele>675.0</ele><time>2026-04-19T08:54:53Z</time></trkpt><trkpt lat="43.23557670136643" lon="12.114956121079269"><ele>672.8</ele><time>2026-04-19T08:54:54Z</time></trkpt><trkpt lat="43.23554140491407" lon="12.115091315232462"><ele>670.6</ele><time>2026-04-19T08:54:55Z</time></trkpt><trkpt lat="43.235507428990445" lon="12.115217392063393"><ele>668.4000000000001</ele><time>2026-04-19T08:54:56Z</time></trkpt><trkpt lat="43.2354752501945" lon="12.11534450560098"><ele>666.2</ele><time>2026-04-19T08:54:57Z</time></trkpt><trkpt lat="43.23541467594394" lon="12.115448941533716"><ele>664.0</ele><time>2026-04-19T08:54:58Z</time></trkpt><trkpt lat="43.235317938406496" lon="12.1154828387528"><ele>664.0</ele><time>2026-04-19T08:54:59Z</time></trkpt><trkpt lat="43.23521419224338" lon="12.11549088306316"><ele>664.0</ele><time>2026-04-19T08:55:00Z</time></trkpt><trkpt lat="43.23506851755696" lon="12.11549848841137"><ele>664.0</ele><time>2026-04-19T08:55:01Z</time></trkpt><trkpt lat="43.234906857503915" lon="12.115523266353716"><ele>664.0</ele><time>2026-04-19T08:55:02Z</time></trkpt><trkpt lat="43.23474862377778" lon="12.115562358440116"><ele>663.8000000000001</ele><time>2026-04-19T08:55:03Z</time></trkpt><trkpt lat="43.23463221946191" lon="12.115540953050582"><ele>663.6</ele><time>2026-04-19T08:55:04Z</time></trkpt><trkpt lat="43.23451685979369" lon="12.115564695767018"><ele>663.4</ele><time>2026-04-19T08:55:05Z</time></trkpt><trkpt lat="43.23441566322455" lon="12.115589779824743"><ele>663.2</ele><time>2026-04-19T08:55:06Z</time></trkpt><trkpt lat="43.23433112244068" lon="12.11564106923936"><ele>663.0</ele><time>2026-04-19T08:55:07Z</time></trkpt><trkpt lat="43.23425260721929" lon="12.115733794919889"><ele>660.5</ele><time>2026-04-19T08:55:08Z</time></trkpt><trkpt lat="43.234166208307" lon="12.115836771835735"><ele>658.0</ele><time>2026-04-19T08:55:09Z</time></trkpt><trkpt lat="43.234099426108884" lon="12.11600865503952"><ele>655.5</ele><time>2026-04-19T08:55:10Z</time></trkpt><trkpt lat="43.234040807221355" lon="12.116221138195153"><ele>653.0</ele><time>2026-04-19T08:55:11Z</time></trkpt><trkpt lat="43.23396731263355" lon="12.116424311819706"><ele>657.0</ele><time>2026-04-19T08:55:12Z</time></trkpt><trkpt lat="43.23391180454803" lon="12.116608559898896"><ele>661.0</ele><time>2026-04-19T08:55:13Z</time></trkpt><trkpt lat="43.23386324796386" lon="12.11676533421032"><ele>665.0</ele><time>2026-04-19T08:55:14Z</time></trkpt><trkpt lat="43.233770157584104" lon="12.116854054788469"><ele>669.0</ele><time>2026-04-19T08:55:15Z</time></trkpt><trkpt lat="43.23369736491312" lon="12.116908477571624"><ele>669.0</ele><time>2026-04-19T08:55:16Z</time></trkpt><trkpt lat="43.233597485764776" lon="12.11690049166198"><ele>669.0</ele><time>2026-04-19T08:55:17Z</time></trkpt><trkpt lat="43.23347993255008" lon="12.116923808430968"><ele>669.0</ele><time>2026-04-19T08:55:18Z</time></trkpt><trkpt lat="43.23335641606114" lon="12.117005412876598"><ele>669.0</ele><time>2026-04-19T08:55:19Z</time></trkpt><trkpt lat="43.233212105391374" lon="12.117133507335069"><ele>671.6666666666666</ele><time>2026-04-19T08:55:20Z</time></trkpt><trkpt lat="43.233057568722266" lon="12.117280872542626"><ele>674.3333333333333</ele><time>2026-04-19T08:55:21Z</time></trkpt><trkpt lat="43.23291687150557" lon="12.11739842608287"><ele>677.0</ele><time>2026-04-19T08:55:22Z</time></trkpt><trkpt lat="43.23278043043758" lon="12.117459771418341"><ele>677.0</ele><time>2026-04-19T08:55:23Z</time></trkpt><trkpt lat="43.23266019672109" lon="12.11750420525496"><ele>677.0</ele><time>2026-04-19T08:55:24Z</time></trkpt><trkpt lat="43.2325383763419" lon="12.117564876425446"><ele>677.0</ele><time>2026-04-19T08:55:25Z</time></trkpt><trkpt lat="43.232330385968325" lon="12.117851644900908"><ele>678.3333333333333</ele><time>2026-04-19T08:55:27Z</time></trkpt><trkpt lat="43.232217849398054" lon="12.11804077254808"><ele>679.6666666666666</ele><time>2026-04-19T08:55:28Z</time></trkpt><trkpt lat="43.23210874709151" lon="12.118189023712095"><ele>681.0</ele><time>2026-04-19T08:55:29Z</time></trkpt><trkpt lat="43.23204075540774" lon="12.118322541486462"><ele>681.0</ele><time>2026-04-19T08:55:30Z</time></trkpt><trkpt lat="43.231999998348535" lon="12.11843429701189"><ele>681.0</ele><time>2026-04-19T08:55:31Z</time></trkpt><trkpt lat="43.23201120641551" lon="12.118569941181812"><ele>681.0</ele><time>2026-04-19T08:55:32Z</time></trkpt><trkpt lat="43.23205642107465" lon="12.118734851124916"><ele>681.0</ele><time>2026-04-19T08:55:33Z</time></trkpt><trkpt lat="43.23207723191016" lon="12.118937126602315"><ele>684.6666666666666</ele><time>2026-04-19T08:55:34Z</time></trkpt><trkpt lat="43.232067037164924" lon="12.119151320936824"><ele>688.3333333333333</ele><time>2026-04-19T08:55:35Z</time></trkpt><trkpt lat="43.232081973490466" lon="12.119383629785936"><ele>692.0</ele><time>2026-04-19T08:55:36Z</time></trkpt><trkpt lat="43.23209864818955" lon="12.11960015135754"><ele>692.0</ele><time>2026-04-19T08:55:37Z</time></trkpt><trkpt lat="43.23212278181657" lon="12.119745568408238"><ele>692.0</ele><time>2026-04-19T08:55:38Z</time></trkpt><trkpt lat="43.232112906435916" lon="12.119885853175107"><ele>692.0</ele><time>2026-04-19T08:55:40Z</time></trkpt><trkpt lat="43.2320323007152" lon="12.119941218057347"><ele>692.0</ele><time>2026-04-19T08:55:42Z</time></trkpt><trkpt lat="43.231957182550566" lon="12.119907358552389"><ele>692.0</ele><time>2026-04-19T08:55:44Z</time></trkpt><trkpt lat="43.23187763052247" lon="12.119896467404244"><ele>692.0</ele><time>2026-04-19T08:55:47Z</time></trkpt><trkpt lat="43.23178242574077" lon="12.11989745746973"><ele>692.0</ele><time>2026-04-19T08:55:55Z</time></trkpt><trkpt lat="43.23171230198864" lon="12.119895218709162"><ele>692.0</ele><time>2026-04-19T08:55:56Z</time></trkpt><trkpt lat="43.23162402902381" lon="12.119914828487046"><ele>692.0</ele><time>2026-04-19T08:55:57Z</time></trkpt><trkpt lat="43.23153468221485" lon="12.11995975631349"><ele>692.0</ele><time>2026-04-19T08:55:58Z</time></trkpt><trkpt lat="43.23143397658932" lon="12.120002123587197"><ele>691.5</ele><time>2026-04-19T08:55:59Z</time></trkpt><trkpt lat="43.23134684791379" lon="12.120101043194422"><ele>691.0</ele><time>2026-04-19T08:56:00Z</time></trkpt><trkpt lat="43.23126765558963" lon="12.12022287671972"><ele>690.5</ele><time>2026-04-19T08:56:01Z</time></trkpt><trkpt lat="43.23120386582114" lon="12.120364696557184"><ele>690.0</ele><time>2026-04-19T08:56:02Z</time></trkpt><trkpt lat="43.23116003183184" lon="12.120497028428538"><ele>690.0</ele><time>2026-04-19T08:56:03Z</time></trkpt><trkpt lat="43.231145510415594" lon="12.120659762509568"><ele>690.0</ele><time>2026-04-19T08:56:04Z</time></trkpt><trkpt lat="43.23112018568996" lon="12.120845021894223"><ele>690.0</ele><time>2026-04-19T08:56:05Z</time></trkpt><trkpt lat="43.2311172095043" lon="12.121041333951208"><ele>690.0</ele><time>2026-04-19T08:56:06Z</time></trkpt><trkpt lat="43.23111444977393" lon="12.121246068338857"><ele>691.75</ele><time>2026-04-19T08:56:07Z</time></trkpt><trkpt lat="43.231114449771574" lon="12.12145576240462"><ele>693.5</ele><time>2026-04-19T08:56:08Z</time></trkpt><trkpt lat="43.23112726364893" lon="12.121661573042225"><ele>695.25</ele><time>2026-04-19T08:56:09Z</time></trkpt><trkpt lat="43.23112484321547" lon="12.121847278057558"><ele>697.0</ele><time>2026-04-19T08:56:10Z</time></trkpt><trkpt lat="43.231120534363846" lon="12.12201836040601"><ele>697.0</ele><time>2026-04-19T08:56:11Z</time></trkpt><trkpt lat="43.23111759134115" lon="12.122190691617693"><ele>697.0</ele><time>2026-04-19T08:56:12Z</time></trkpt><trkpt lat="43.23112622478409" lon="12.122378857575818"><ele>697.0</ele><time>2026-04-19T08:56:13Z</time></trkpt><trkpt lat="43.23115262698946" lon="12.122565963615514"><ele>697.0</ele><time>2026-04-19T08:56:14Z</time></trkpt><trkpt lat="43.23118875225823" lon="12.12271891693833"><ele>696.4000000000001</ele><time>2026-04-19T08:56:15Z</time></trkpt><trkpt lat="43.23122434213165" lon="12.122837444666082"><ele>695.8000000000001</ele><time>2026-04-19T08:56:16Z</time></trkpt><trkpt lat="43.231252399177635" lon="12.122926403205351"><ele>695.2</ele><time>2026-04-19T08:56:17Z</time></trkpt><trkpt lat="43.231301878925784" lon="12.12307511380875"><ele>694.6</ele><time>2026-04-19T08:56:19Z</time></trkpt><trkpt lat="43.231385322195" lon="12.123197436446418"><ele>694.0</ele><time>2026-04-19T08:56:21Z</time></trkpt><trkpt lat="43.23145190158809" lon="12.12325239432708"><ele>696.6666666666667</ele><time>2026-04-19T08:56:22Z</time></trkpt><trkpt lat="43.23151491222725" lon="12.1232915362362"><ele>699.3333333333334</ele><time>2026-04-19T08:56:23Z</time></trkpt><trkpt lat="43.23158004868206" lon="12.123313388599643"><ele>702.0</ele><time>2026-04-19T08:56:24Z</time></trkpt><trkpt lat="43.23164505388" lon="12.1233374098559"><ele>704.6666666666666</ele><time>2026-04-19T08:56:25Z</time></trkpt><trkpt lat="43.23170799350643" lon="12.123386740188778"><ele>707.3333333333333</ele><time>2026-04-19T08:56:26Z</time></trkpt><trkpt lat="43.231782482855884" lon="12.1234735254091"><ele>710.0</ele><time>2026-04-19T08:56:28Z</time></trkpt><trkpt lat="43.231816946503365" lon="12.123660415982338"><ele>710.0</ele><time>2026-04-19T08:56:30Z</time></trkpt><trkpt lat="43.23178019228378" lon="12.123784403540384"><ele>710.0</ele><time>2026-04-19T08:56:31Z</time></trkpt><trkpt lat="43.23176966340126" lon="12.123916651665574"><ele>710.0</ele><time>2026-04-19T08:56:32Z</time></trkpt><trkpt lat="43.231766488536074" lon="12.124081209552227"><ele>710.0</ele><time>2026-04-19T08:56:33Z</time></trkpt><trkpt lat="43.231738713665735" lon="12.124230493672512"><ele>710.0</ele><time>2026-04-19T08:56:34Z</time></trkpt><trkpt lat="43.23172554091525" lon="12.124349386506857"><ele>709.0</ele><time>2026-04-19T08:56:35Z</time></trkpt><trkpt lat="43.23171710680708" lon="12.12447917087683"><ele>708.0</ele><time>2026-04-19T08:56:36Z</time></trkpt><trkpt lat="43.231713486029896" lon="12.124595523160753"><ele>707.0</ele><time>2026-04-19T08:56:37Z</time></trkpt><trkpt lat="43.23172061536311" lon="12.12469759682515"><ele>706.0</ele><time>2026-04-19T08:56:38Z</time></trkpt><trkpt lat="43.23169590218275" lon="12.124808693796467"><ele>705.0</ele><time>2026-04-19T08:56:39Z</time></trkpt><trkpt lat="43.23162937354784" lon="12.124923606574125"><ele>704.0</ele><time>2026-04-19T08:56:40Z</time></trkpt><trkpt lat="43.2315703735041" lon="12.12506029404265"><ele>704.0</ele><time>2026-04-19T08:56:41Z</time></trkpt><trkpt lat="43.23152841972319" lon="12.125222579833018"><ele>704.0</ele><time>2026-04-19T08:56:42Z</time></trkpt><trkpt lat="43.2314897660052" lon="12.125352680650115"><ele>704.0</ele><time>2026-04-19T08:56:43Z</time></trkpt><trkpt lat="43.231435046684695" lon="12.125472967595458"><ele>704.0</ele><time>2026-04-19T08:56:44Z</time></trkpt><trkpt lat="43.23141330226885" lon="12.12557993591785"><ele>704.0</ele><time>2026-04-19T08:56:45Z</time></trkpt><trkpt lat="43.23137352131849" lon="12.125657776959446"><ele>698.8333333333333</ele><time>2026-04-19T08:56:46Z</time></trkpt><trkpt lat="43.231356446984066" lon="12.125750709316753"><ele>693.6666666666666</ele><time>2026-04-19T08:56:47Z</time></trkpt><trkpt lat="43.23136284732024" lon="12.125872344129883"><ele>688.5</ele><time>2026-04-19T08:56:48Z</time></trkpt><trkpt lat="43.23138945253972" lon="12.126001383506004"><ele>683.3333333333334</ele><time>2026-04-19T08:56:49Z</time></trkpt><trkpt lat="43.23139132989158" lon="12.12610988163108"><ele>678.1666666666667</ele><time>2026-04-19T08:56:50Z</time></trkpt><trkpt lat="43.231418680971274" lon="12.126199815930208"><ele>673.0</ele><time>2026-04-19T08:56:51Z</time></trkpt><trkpt lat="43.231393228827116" lon="12.126372602631147"><ele>673.0</ele><time>2026-04-19T08:56:53Z</time></trkpt><trkpt lat="43.231318433743205" lon="12.126431754649795"><ele>673.0</ele><time>2026-04-19T08:56:54Z</time></trkpt><trkpt lat="43.23128874890444" lon="12.12652706157378"><ele>673.0</ele><time>2026-04-19T08:56:55Z</time></trkpt><trkpt lat="43.23123559267447" lon="12.126603517741861"><ele>673.0</ele><time>2026-04-19T08:56:56Z</time></trkpt><trkpt lat="43.23121132973949" lon="12.12668676204365"><ele>673.0</ele><time>2026-04-19T08:56:57Z</time></trkpt><trkpt lat="43.2312050511264" lon="12.126797186492881"><ele>673.0</ele><time>2026-04-19T08:56:58Z</time></trkpt><trkpt lat="43.23121136393952" lon="12.126936627229448"><ele>675.2</ele><time>2026-04-19T08:56:59Z</time></trkpt><trkpt lat="43.2312205791558" lon="12.127095431182989"><ele>677.4</ele><time>2026-04-19T08:57:00Z</time></trkpt><trkpt lat="43.23123359896391" lon="12.127249726425823"><ele>679.6</ele><time>2026-04-19T08:57:01Z</time></trkpt><trkpt lat="43.231245401438585" lon="12.127404758433904"><ele>681.8000000000001</ele><time>2026-04-19T08:57:02Z</time></trkpt><trkpt lat="43.23130034074772" lon="12.127525543960983"><ele>684.0</ele><time>2026-04-19T08:57:03Z</time></trkpt><trkpt lat="43.23135774620885" lon="12.12767386406419"><ele>685.8000000000001</ele><time>2026-04-19T08:57:04Z</time></trkpt><trkpt lat="43.2314131267073" lon="12.127808755411001"><ele>687.6</ele><time>2026-04-19T08:57:05Z</time></trkpt><trkpt lat="43.231475635541834" lon="12.127933405407742"><ele>689.4</ele><time>2026-04-19T08:57:06Z</time></trkpt><trkpt lat="43.23152921580547" lon="12.12804082301808"><ele>691.2</ele><time>2026-04-19T08:57:07Z</time></trkpt><trkpt lat="43.23158117258777" lon="12.128131735066852"><ele>693.0</ele><time>2026-04-19T08:57:08Z</time></trkpt><trkpt lat="43.231630630189564" lon="12.128221293205847"><ele>693.4</ele><time>2026-04-19T08:57:09Z</time></trkpt><trkpt lat="43.23165571640421" lon="12.128306289732423"><ele>693.8</ele><time>2026-04-19T08:57:10Z</time></trkpt><trkpt lat="43.23161486081861" lon="12.128469299400376"><ele>694.2</ele><time>2026-04-19T08:57:12Z</time></trkpt><trkpt lat="43.231579737649255" lon="12.128579859732254"><ele>694.6</ele><time>2026-04-19T08:57:14Z</time></trkpt><trkpt lat="43.23150897036625" lon="12.128678616269402"><ele>695.0</ele><time>2026-04-19T08:57:17Z</time></trkpt><trkpt lat="43.231416408270356" lon="12.128801474060417"><ele>695.0</ele><time>2026-04-19T08:57:19Z</time></trkpt><trkpt lat="43.23135166125313" lon="12.128873485294635"><ele>695.0</ele><time>2026-04-19T08:57:20Z</time></trkpt><trkpt lat="43.23129471537977" lon="12.12893886362501"><ele>695.0</ele><time>2026-04-19T08:57:21Z</time></trkpt><trkpt lat="43.23124344909198" lon="12.12899723885158"><ele>695.0</ele><time>2026-04-19T08:57:22Z</time></trkpt><trkpt lat="43.23118490242733" lon="12.129069951023292"><ele>695.0</ele><time>2026-04-19T08:57:23Z</time></trkpt><trkpt lat="43.231123685278234" lon="12.129149155281686"><ele>695.0</ele><time>2026-04-19T08:57:24Z</time></trkpt><trkpt lat="43.231063002932295" lon="12.129236460778404"><ele>698.0</ele><time>2026-04-19T08:57:25Z</time></trkpt><trkpt lat="43.23101542800941" lon="12.129335737000604"><ele>701.0</ele><time>2026-04-19T08:57:26Z</time></trkpt><trkpt lat="43.23096650407769" lon="12.129426137234333"><ele>704.0</ele><time>2026-04-19T08:57:27Z</time></trkpt><trkpt lat="43.23090846724065" lon="12.129551951122014"><ele>707.0</ele><time>2026-04-19T08:57:29Z</time></trkpt><trkpt lat="43.23085338634227" lon="12.129707137817933"><ele>710.0</ele><time>2026-04-19T08:57:31Z</time></trkpt><trkpt lat="43.23083554361069" lon="12.129795300098188"><ele>713.0</ele><time>2026-04-19T08:57:32Z</time></trkpt><trkpt lat="43.2308137543723" lon="12.129902276703335"><ele>716.0</ele><time>2026-04-19T08:57:33Z</time></trkpt><trkpt lat="43.230783731096054" lon="12.130007523555493"><ele>719.0</ele><time>2026-04-19T08:57:34Z</time></trkpt><trkpt lat="43.23072859811129" lon="12.130132510284792"><ele>722.0</ele><time>2026-04-19T08:57:36Z</time></trkpt><trkpt lat="43.23073042715583" lon="12.130230428615402"><ele>725.0</ele><time>2026-04-19T08:57:39Z</time></trkpt><trkpt lat="43.230727836962714" lon="12.130357650434654"><ele>728.0</ele><time>2026-04-19T08:57:41Z</time></trkpt><trkpt lat="43.23074903133628" lon="12.130464134903082"><ele>728.0</ele><time>2026-04-19T08:57:42Z</time></trkpt><trkpt lat="43.23077644115898" lon="12.130559152179613"><ele>728.0</ele><time>2026-04-19T08:57:43Z</time></trkpt><trkpt lat="43.23081604074382" lon="12.130694195675565"><ele>728.0</ele><time>2026-04-19T08:57:45Z</time></trkpt><trkpt lat="43.23084513074891" lon="12.130796850261392"><ele>728.0</ele><time>2026-04-19T08:57:47Z</time></trkpt><trkpt lat="43.23078648945726" lon="12.130603135146213"><ele>728.0</ele><time>2026-04-19T08:58:03Z</time></trkpt><trkpt lat="43.230739930440436" lon="12.130489867272827"><ele>728.0</ele><time>2026-04-19T08:58:04Z</time></trkpt><trkpt lat="43.23070298040025" lon="12.130363476508363"><ele>728.0</ele><time>2026-04-19T08:58:05Z</time></trkpt><trkpt lat="43.23069388542564" lon="12.130257665162418"><ele>728.0</ele><time>2026-04-19T08:58:06Z</time></trkpt><trkpt lat="43.230707233830564" lon="12.130163907414868"><ele>728.0</ele><time>2026-04-19T08:58:07Z</time></trkpt><trkpt lat="43.23073523635102" lon="12.130051671812463"><ele>728.0</ele><time>2026-04-19T08:58:08Z</time></trkpt><trkpt lat="43.230776695240536" lon="12.129917967323651"><ele>728.0</ele><time>2026-04-19T08:58:09Z</time></trkpt><trkpt lat="43.230815313439926" lon="12.129797720887963"><ele>725.0</ele><time>2026-04-19T08:58:10Z</time></trkpt><trkpt lat="43.230844330274955" lon="12.129678640594294"><ele>722.0</ele><time>2026-04-19T08:58:11Z</time></trkpt><trkpt lat="43.23086436567016" lon="12.129581209762845"><ele>719.0</ele><time>2026-04-19T08:58:12Z</time></trkpt><trkpt lat="43.23089179912116" lon="12.129491787145675"><ele>716.0</ele><time>2026-04-19T08:58:13Z</time></trkpt><trkpt lat="43.23092868428903" lon="12.129410754998064"><ele>713.0</ele><time>2026-04-19T08:58:14Z</time></trkpt><trkpt lat="43.230987108468824" lon="12.129299238420648"><ele>710.0</ele><time>2026-04-19T08:58:15Z</time></trkpt><trkpt lat="43.23107878207005" lon="12.129179536398798"><ele>711.8</ele><time>2026-04-19T08:58:16Z</time></trkpt><trkpt lat="43.23118259416495" lon="12.129051999582067"><ele>713.6</ele><time>2026-04-19T08:58:17Z</time></trkpt><trkpt lat="43.231317596388145" lon="12.128995667671154"><ele>715.4000000000001</ele><time>2026-04-19T08:58:18Z</time></trkpt><trkpt lat="43.23138237440339" lon="12.128909067457528"><ele>717.2</ele><time>2026-04-19T08:58:19Z</time></trkpt><trkpt lat="43.23143234293089" lon="12.128838850305637"><ele>719.0</ele><time>2026-04-19T08:58:20Z</time></trkpt><trkpt lat="43.23150659162787" lon="12.128736785560337"><ele>715.0</ele><time>2026-04-19T08:58:22Z</time></trkpt><trkpt lat="43.231428194979486" lon="12.128609217130942"><ele>711.0</ele><time>2026-04-19T08:58:28Z</time></trkpt><trkpt lat="43.231337168966455" lon="12.128700578139048"><ele>707.0</ele><time>2026-04-19T08:58:30Z</time></trkpt><trkpt lat="43.23128126988188" lon="12.128748042439929"><ele>703.0</ele><time>2026-04-19T08:58:31Z</time></trkpt><trkpt lat="43.2312253182151" lon="12.128791233990851"><ele>699.0</ele><time>2026-04-19T08:58:32Z</time></trkpt><trkpt lat="43.23115773835104" lon="12.128841895839624"><ele>695.0</ele><time>2026-04-19T08:58:33Z</time></trkpt><trkpt lat="43.231093001597436" lon="12.128890426317659"><ele>695.0</ele><time>2026-04-19T08:58:34Z</time></trkpt><trkpt lat="43.23102963789169" lon="12.128920813333153"><ele>695.0</ele><time>2026-04-19T08:58:35Z</time></trkpt><trkpt lat="43.230961786260224" lon="12.128955098913039"><ele>695.0</ele><time>2026-04-19T08:58:36Z</time></trkpt><trkpt lat="43.230859380021236" lon="12.128998342654189"><ele>695.0</ele><time>2026-04-19T08:58:38Z</time></trkpt><trkpt lat="43.23075205263877" lon="12.129000795090143"><ele>695.0</ele><time>2026-04-19T08:58:40Z</time></trkpt><trkpt lat="43.23063938753324" lon="12.129047747768377"><ele>694.2</ele><time>2026-04-19T08:58:42Z</time></trkpt><trkpt lat="43.23056033632179" lon="12.129080088511369"><ele>693.4</ele><time>2026-04-19T08:58:44Z</time></trkpt><trkpt lat="43.230473515870635" lon="12.129163762369108"><ele>692.5999999999999</ele><time>2026-04-19T08:58:46Z</time></trkpt><trkpt lat="43.23037733517045" lon="12.129239541058588"><ele>691.8</ele><time>2026-04-19T08:58:48Z</time></trkpt><trkpt lat="43.23025166788005" lon="12.129264108997553"><ele>691.0</ele><time>2026-04-19T08:58:50Z</time></trkpt><trkpt lat="43.230178719629556" lon="12.129230996553845"><ele>691.0</ele><time>2026-04-19T08:58:51Z</time></trkpt><trkpt lat="43.23011198429668" lon="12.1292130135182"><ele>691.0</ele><time>2026-04-19T08:58:52Z</time></trkpt><trkpt lat="43.23004594575262" lon="12.129195599622122"><ele>691.0</ele><time>2026-04-19T08:58:53Z</time></trkpt><trkpt lat="43.22998207412256" lon="12.12918687314259"><ele>691.0</ele><time>2026-04-19T08:58:54Z</time></trkpt><trkpt lat="43.22985807380789" lon="12.129187062671141"><ele>691.0</ele><time>2026-04-19T08:58:56Z</time></trkpt><trkpt lat="43.22979258678637" lon="12.12919329407038"><ele>691.0</ele><time>2026-04-19T08:58:57.001Z</time></trkpt><trkpt lat="43.22969204101583" lon="12.129272396718903"><ele>687.3333333333334</ele><time>2026-04-19T08:58:59.001Z</time></trkpt><trkpt lat="43.22962023710055" lon="12.129406001266144"><ele>683.6666666666667</ele><time>2026-04-19T08:59:01.001Z</time></trkpt><trkpt lat="43.22959063206403" lon="12.129510828956592"><ele>680.0</ele><time>2026-04-19T08:59:02.001Z</time></trkpt><trkpt lat="43.22956736456047" lon="12.129620952020808"><ele>676.3333333333334</ele><time>2026-04-19T08:59:03.001Z</time></trkpt><trkpt lat="43.22955931532347" lon="12.129723180297502"><ele>672.6666666666666</ele><time>2026-04-19T08:59:04.001Z</time></trkpt><trkpt lat="43.229554053891015" lon="12.129832622269817"><ele>669.0</ele><time>2026-04-19T08:59:05.001Z</time></trkpt><trkpt lat="43.229563479681175" lon="12.129947908809257"><ele>669.0</ele><time>2026-04-19T08:59:06.001Z</time></trkpt><trkpt lat="43.229588743835905" lon="12.130080079972005"><ele>669.0</ele><time>2026-04-19T08:59:07.001Z</time></trkpt><trkpt lat="43.22960722741572" lon="12.130193085906475"><ele>669.0</ele><time>2026-04-19T08:59:08.001Z</time></trkpt><trkpt lat="43.229619680193444" lon="12.13028968516947"><ele>669.0</ele><time>2026-04-19T08:59:09.001Z</time></trkpt><trkpt lat="43.2295971190327" lon="12.13040822591899"><ele>669.0</ele><time>2026-04-19T08:59:10.001Z</time></trkpt><trkpt lat="43.229612503214646" lon="12.130519513016438"><ele>669.0</ele><time>2026-04-19T08:59:11.001Z</time></trkpt><trkpt lat="43.22960045155107" lon="12.130619197674505"><ele>669.0</ele><time>2026-04-19T08:59:12.001Z</time></trkpt><trkpt lat="43.2295998912244" lon="12.130710663548195"><ele>669.0</ele><time>2026-04-19T08:59:13.001Z</time></trkpt><trkpt lat="43.229602253742286" lon="12.130798020023741"><ele>669.0</ele><time>2026-04-19T08:59:14.001Z</time></trkpt><trkpt lat="43.229586837349" lon="12.130884439170122"><ele>669.0</ele><time>2026-04-19T08:59:15.001Z</time></trkpt><trkpt lat="43.22952949971993" lon="12.130944363277512"><ele>669.0</ele><time>2026-04-19T08:59:16.001Z</time></trkpt><trkpt lat="43.22945586489841" lon="12.130992341037585"><ele>669.0</ele><time>2026-04-19T08:59:17.001Z</time></trkpt><trkpt lat="43.22936550588558" lon="12.131069035456747"><ele>669.5</ele><time>2026-04-19T08:59:18.001Z</time></trkpt><trkpt lat="43.2292743169293" lon="12.131144275457922"><ele>670.0</ele><time>2026-04-19T08:59:19.001Z</time></trkpt><trkpt lat="43.229201055696706" lon="12.131203444342818"><ele>670.5</ele><time>2026-04-19T08:59:20.001Z</time></trkpt><trkpt lat="43.22912322632327" lon="12.131274264330978"><ele>671.0</ele><time>2026-04-19T08:59:22.001Z</time></trkpt><trkpt lat="43.22906850831776" lon="12.13133192918774"><ele>671.5</ele><time>2026-04-19T08:59:25.001Z</time></trkpt><trkpt lat="43.22900993264166" lon="12.131423447803458"><ele>672.0</ele><time>2026-04-19T08:59:29.001Z</time></trkpt><trkpt lat="43.22894073521037" lon="12.131514919483097"><ele>671.6666666666666</ele><time>2026-04-19T08:59:31.001Z</time></trkpt><trkpt lat="43.22888725335414" lon="12.13159222791016"><ele>671.3333333333334</ele><time>2026-04-19T08:59:32.001Z</time></trkpt><trkpt lat="43.2288378364445" lon="12.131668631863528"><ele>671.0</ele><time>2026-04-19T08:59:33.001Z</time></trkpt><trkpt lat="43.22877983228122" lon="12.1317529315125"><ele>670.6666666666667</ele><time>2026-04-19T08:59:34.001Z</time></trkpt><trkpt lat="43.228699857240066" lon="12.131845641448372"><ele>670.3333333333334</ele><time>2026-04-19T08:59:36.001Z</time></trkpt><trkpt lat="43.22862189543355" lon="12.13187490508902"><ele>670.0</ele><time>2026-04-19T08:59:38.001Z</time></trkpt><trkpt lat="43.228556515095605" lon="12.131890356052185"><ele>670.0</ele><time>2026-04-19T08:59:39.001Z</time></trkpt><trkpt lat="43.228476599776336" lon="12.131905050876407"><ele>670.0</ele><time>2026-04-19T08:59:40Z</time></trkpt><trkpt lat="43.22837958613333" lon="12.131921325621935"><ele>670.0</ele><time>2026-04-19T08:59:41Z</time></trkpt><trkpt lat="43.228301003504676" lon="12.131937227541917"><ele>670.0</ele><time>2026-04-19T08:59:42Z</time></trkpt><trkpt lat="43.228233126367684" lon="12.131955137495362"><ele>670.0</ele><time>2026-04-19T08:59:43Z</time></trkpt><trkpt lat="43.22815919547103" lon="12.13197802712896"><ele>670.0</ele><time>2026-04-19T08:59:44Z</time></trkpt><trkpt lat="43.22808343926793" lon="12.132004323270102"><ele>667.6666666666667</ele><time>2026-04-19T08:59:45Z</time></trkpt><trkpt lat="43.228019668502235" lon="12.132029112986038"><ele>665.3333333333334</ele><time>2026-04-19T08:59:46Z</time></trkpt><trkpt lat="43.227932253087644" lon="12.132071042350644"><ele>663.0</ele><time>2026-04-19T08:59:47Z</time></trkpt><trkpt lat="43.227848976522246" lon="12.132123432519803"><ele>660.6666666666666</ele><time>2026-04-19T08:59:48Z</time></trkpt><trkpt lat="43.227779201428525" lon="12.132167328789869"><ele>658.3333333333333</ele><time>2026-04-19T08:59:49Z</time></trkpt><trkpt lat="43.22772277182299" lon="12.132221597626454"><ele>656.0</ele><time>2026-04-19T08:59:50Z</time></trkpt><trkpt lat="43.22765882555549" lon="12.132226465421917"><ele>656.0</ele><time>2026-04-19T08:59:52Z</time></trkpt><trkpt lat="43.22759787881158" lon="12.132289668589548"><ele>656.0</ele><time>2026-04-19T08:59:54Z</time></trkpt><trkpt lat="43.22752277690223" lon="12.132369454262134"><ele>656.0</ele><time>2026-04-19T08:59:56Z</time></trkpt><trkpt lat="43.227480909567596" lon="12.132498780541955"><ele>656.0</ele><time>2026-04-19T08:59:58Z</time></trkpt><trkpt lat="43.22745732508964" lon="12.13258209613243"><ele>656.0</ele><time>2026-04-19T08:59:59Z</time></trkpt><trkpt lat="43.22740809357173" lon="12.132741811602642"><ele>657.9999999999999</ele><time>2026-04-19T09:00:01Z</time></trkpt><trkpt lat="43.22739801640736" lon="12.132834102908891"><ele>660.0</ele><time>2026-04-19T09:00:04Z</time></trkpt><trkpt lat="43.22737280661483" lon="12.132948701145637"><ele>662.0</ele><time>2026-04-19T09:00:23Z</time></trkpt><trkpt lat="43.2273983340741" lon="12.133036373966805"><ele>664.0</ele><time>2026-04-19T09:00:32Z</time></trkpt><trkpt lat="43.22740652902131" lon="12.133127017930116"><ele>666.0</ele><time>2026-04-19T09:00:38.001Z</time></trkpt><trkpt lat="43.22742601401774" lon="12.133222739424715"><ele>667.9999999999999</ele><time>2026-04-19T09:00:43.001Z</time></trkpt><trkpt lat="43.227416001309905" lon="12.133321721430045"><ele>670.0</ele><time>2026-04-19T09:00:54.001Z</time></trkpt><trkpt lat="43.227408578508104" lon="12.133419188925368"><ele>671.1428571428571</ele><time>2026-04-19T09:00:57.001Z</time></trkpt><trkpt lat="43.22739600479757" lon="12.133507747013928"><ele>672.2857142857142</ele><time>2026-04-19T09:00:59.001Z</time></trkpt><trkpt lat="43.22738175605885" lon="12.133592715650565"><ele>673.4285714285713</ele><time>2026-04-19T09:01:02.001Z</time></trkpt><trkpt lat="43.22737038919885" lon="12.133681151334038"><ele>674.5714285714286</ele><time>2026-04-19T09:01:06.001Z</time></trkpt><trkpt lat="43.22735075826777" lon="12.133795154724853"><ele>675.7142857142858</ele><time>2026-04-19T09:01:08.001Z</time></trkpt><trkpt lat="43.227322974675616" lon="12.13392767748835"><ele>676.8571428571428</ele><time>2026-04-19T09:01:10.001Z</time></trkpt><trkpt lat="43.22730065545306" lon="12.134014546215221"><ele>678.0</ele><time>2026-04-19T09:01:12.001Z</time></trkpt><trkpt lat="43.227301503095696" lon="12.134113288856273"><ele>680.0</ele><time>2026-04-19T09:01:14.001Z</time></trkpt><trkpt lat="43.22732012046495" lon="12.134227715547498"><ele>682.0</ele><time>2026-04-19T09:01:16.001Z</time></trkpt><trkpt lat="43.22734532274351" lon="12.13436548005936"><ele>684.0</ele><time>2026-04-19T09:01:18.001Z</time></trkpt><trkpt lat="43.22737214205293" lon="12.134494172501258"><ele>686.0</ele><time>2026-04-19T09:01:20.001Z</time></trkpt><trkpt lat="43.227332590822705" lon="12.134611469190771"><ele>688.0</ele><time>2026-04-19T09:01:22.001Z</time></trkpt><trkpt lat="43.227274329134275" lon="12.134725379028716"><ele>685.8333333333334</ele><time>2026-04-19T09:01:24.001Z</time></trkpt><trkpt lat="43.22723214571804" lon="12.134816218282657"><ele>683.6666666666667</ele><time>2026-04-19T09:01:26.001Z</time></trkpt><trkpt lat="43.22719975945835" lon="12.134940963557481"><ele>681.5</ele><time>2026-04-19T09:01:28.001Z</time></trkpt><trkpt lat="43.22717898325584" lon="12.13504248940268"><ele>679.3333333333334</ele><time>2026-04-19T09:01:30.001Z</time></trkpt><trkpt lat="43.22712969810164" lon="12.135097305149534"><ele>677.1666666666666</ele><time>2026-04-19T09:01:31.001Z</time></trkpt><trkpt lat="43.22704211949269" lon="12.135168880954268"><ele>675.0</ele><time>2026-04-19T09:01:33.001Z</time></trkpt><trkpt lat="43.22692912082779" lon="12.135247188125376"><ele>675.0</ele><time>2026-04-19T09:01:35.001Z</time></trkpt><trkpt lat="43.22681052876188" lon="12.135283573548929"><ele>675.0</ele><time>2026-04-19T09:01:37.001Z</time></trkpt><trkpt lat="43.22674838556252" lon="12.135299199028383"><ele>675.0</ele><time>2026-04-19T09:01:38.001Z</time></trkpt><trkpt lat="43.22668493838594" lon="12.135303071198956"><ele>675.0</ele><time>2026-04-19T09:01:39.001Z</time></trkpt><trkpt lat="43.226577263384364" lon="12.13531123027417"><ele>675.0</ele><time>2026-04-19T09:01:41.001Z</time></trkpt><trkpt lat="43.22649521456984" lon="12.135310641187397"><ele>675.0</ele><time>2026-04-19T09:01:43.001Z</time></trkpt><trkpt lat="43.226394097691674" lon="12.13527848526694"><ele>673.1666666666666</ele><time>2026-04-19T09:01:45.001Z</time></trkpt><trkpt lat="43.226293988853236" lon="12.135299923616422"><ele>671.3333333333334</ele><time>2026-04-19T09:01:47.001Z</time></trkpt><trkpt lat="43.22620758573269" lon="12.135309063952285"><ele>669.5</ele><time>2026-04-19T09:01:49.001Z</time></trkpt><trkpt lat="43.226136260777245" lon="12.135316807201827"><ele>667.6666666666667</ele><time>2026-04-19T09:01:52.001Z</time></trkpt><trkpt lat="43.22606214620301" lon="12.135322662018698"><ele>665.8333333333334</ele><time>2026-04-19T09:01:56.001Z</time></trkpt><trkpt lat="43.22597074737968" lon="12.13537005164812"><ele>664.0</ele><time>2026-04-19T09:01:59.001Z</time></trkpt><trkpt lat="43.22589806202261" lon="12.135411632033431"><ele>664.0</ele><time>2026-04-19T09:02:02.001Z</time></trkpt><trkpt lat="43.2258448953182" lon="12.135461612656886"><ele>664.0</ele><time>2026-04-19T09:02:10.001Z</time></trkpt><trkpt lat="43.225796069829705" lon="12.13552251071072"><ele>664.0</ele><time>2026-04-19T09:02:12.001Z</time></trkpt><trkpt lat="43.22571854750413" lon="12.135587384849549"><ele>664.0</ele><time>2026-04-19T09:02:14.001Z</time></trkpt><trkpt lat="43.225640568992176" lon="12.135691649058536"><ele>664.0</ele><time>2026-04-19T09:02:16.001Z</time></trkpt><trkpt lat="43.22555960820011" lon="12.135783967357376"><ele>664.0</ele><time>2026-04-19T09:02:18.001Z</time></trkpt><trkpt lat="43.22553866815037" lon="12.135905371356552"><ele>663.8000000000001</ele><time>2026-04-19T09:02:20.001Z</time></trkpt><trkpt lat="43.225504843159015" lon="12.136022846771123"><ele>663.6</ele><time>2026-04-19T09:02:22.001Z</time></trkpt><trkpt lat="43.22541148915955" lon="12.136089556923869"><ele>663.4</ele><time>2026-04-19T09:02:24.001Z</time></trkpt><trkpt lat="43.22534778927031" lon="12.136117143030281"><ele>663.2</ele><time>2026-04-19T09:02:25.001Z</time></trkpt><trkpt lat="43.22526487721603" lon="12.136240291758552"><ele>663.0</ele><time>2026-04-19T09:02:27.001Z</time></trkpt><trkpt lat="43.22520322035339" lon="12.136345275656996"><ele>663.0</ele><time>2026-04-19T09:02:29.001Z</time></trkpt><trkpt lat="43.22515348183223" lon="12.136428519334068"><ele>663.0</ele><time>2026-04-19T09:02:31.001Z</time></trkpt><trkpt lat="43.22508405446565" lon="12.136518063296537"><ele>663.0</ele><time>2026-04-19T09:02:33.001Z</time></trkpt><trkpt lat="43.22500274148577" lon="12.13656685182048"><ele>663.0</ele><time>2026-04-19T09:02:35.001Z</time></trkpt><trkpt lat="43.224962703982314" lon="12.13663699762758"><ele>663.0</ele><time>2026-04-19T09:02:36.001Z</time></trkpt><trkpt lat="43.22493240316117" lon="12.136737966665972"><ele>663.0</ele><time>2026-04-19T09:02:37.001Z</time></trkpt><trkpt lat="43.22491702251015" lon="12.136833922268389"><ele>663.5</ele><time>2026-04-19T09:02:38.001Z</time></trkpt><trkpt lat="43.224895390926825" lon="12.136922150843542"><ele>664.0</ele><time>2026-04-19T09:02:39.001Z</time></trkpt><trkpt lat="43.224830053514914" lon="12.137066197365556"><ele>664.5</ele><time>2026-04-19T09:02:41.001Z</time></trkpt><trkpt lat="43.22478825172122" lon="12.13713216502355"><ele>665.0</ele><time>2026-04-19T09:02:42.001Z</time></trkpt><trkpt lat="43.22469885476695" lon="12.137185657134221"><ele>665.5</ele><time>2026-04-19T09:02:44.001Z</time></trkpt><trkpt lat="43.224632620412685" lon="12.137165739421581"><ele>666.0</ele><time>2026-04-19T09:02:45.001Z</time></trkpt><trkpt lat="43.22451088599823" lon="12.137191327907514"><ele>663.8</ele><time>2026-04-19T09:02:47.001Z</time></trkpt><trkpt lat="43.224428578296056" lon="12.137223135847886"><ele>661.5999999999999</ele><time>2026-04-19T09:02:48.001Z</time></trkpt><trkpt lat="43.224341117501844" lon="12.137222017428074"><ele>659.4</ele><time>2026-04-19T09:02:49.001Z</time></trkpt><trkpt lat="43.22427613889506" lon="12.137225557953283"><ele>657.2</ele><time>2026-04-19T09:02:50.001Z</time></trkpt><trkpt lat="43.22415440074569" lon="12.137220165094432"><ele>655.0</ele><time>2026-04-19T09:02:52.001Z</time></trkpt><trkpt lat="43.22404627362749" lon="12.137209165137804"><ele>653.1666666666667</ele><time>2026-04-19T09:02:54.001Z</time></trkpt><trkpt lat="43.22396213581508" lon="12.13719846219124"><ele>651.3333333333334</ele><time>2026-04-19T09:02:56.001Z</time></trkpt><trkpt lat="43.22388091342623" lon="12.137253240738572"><ele>649.5</ele><time>2026-04-19T09:03:02.001Z</time></trkpt><trkpt lat="43.22381074896236" lon="12.137271222806845"><ele>647.6666666666666</ele><time>2026-04-19T09:03:04.001Z</time></trkpt><trkpt lat="43.22371750855784" lon="12.137264065798446"><ele>645.8333333333333</ele><time>2026-04-19T09:03:06.001Z</time></trkpt><trkpt lat="43.22365502087857" lon="12.137277165434645"><ele>644.0</ele><time>2026-04-19T09:03:08.001Z</time></trkpt><trkpt lat="43.22360736906311" lon="12.137362336983175"><ele>644.1666666666666</ele><time>2026-04-19T09:03:11.001Z</time></trkpt><trkpt lat="43.2235649971846" lon="12.137428254911542"><ele>644.3333333333333</ele><time>2026-04-19T09:03:13.001Z</time></trkpt><trkpt lat="43.22351076259068" lon="12.13752236175468"><ele>644.5</ele><time>2026-04-19T09:03:16.001Z</time></trkpt><trkpt lat="43.22344364773715" lon="12.137650455820035"><ele>644.6666666666666</ele><time>2026-04-19T09:03:19.001Z</time></trkpt><trkpt lat="43.22336661783335" lon="12.137764842066883"><ele>644.8333333333334</ele><time>2026-04-19T09:03:21.001Z</time></trkpt><trkpt lat="43.223345293202975" lon="12.137852390372718"><ele>645.0</ele><time>2026-04-19T09:03:22.001Z</time></trkpt><trkpt lat="43.22332438383206" lon="12.137957810477358"><ele>645.0</ele><time>2026-04-19T09:03:23.001Z</time></trkpt><trkpt lat="43.2233067344831" lon="12.138048950143917"><ele>645.0</ele><time>2026-04-19T09:03:24.001Z</time></trkpt><trkpt lat="43.223286871682916" lon="12.13814609855479"><ele>645.0</ele><time>2026-04-19T09:03:25.001Z</time></trkpt><trkpt lat="43.22326911332812" lon="12.138245889308758"><ele>645.0</ele><time>2026-04-19T09:03:26.001Z</time></trkpt><trkpt lat="43.223237016120315" lon="12.138415651582493"><ele>645.0</ele><time>2026-04-19T09:03:28.001Z</time></trkpt><trkpt lat="43.223214626939" lon="12.13851905292266"><ele>645.0</ele><time>2026-04-19T09:03:29.001Z</time></trkpt><trkpt lat="43.22318830173719" lon="12.138630236129432"><ele>644.1666666666666</ele><time>2026-04-19T09:03:30.001Z</time></trkpt><trkpt lat="43.22316257645141" lon="12.138758516811551"><ele>643.3333333333334</ele><time>2026-04-19T09:03:31.001Z</time></trkpt><trkpt lat="43.223124938556744" lon="12.13887773710825"><ele>642.5</ele><time>2026-04-19T09:03:32.001Z</time></trkpt><trkpt lat="43.223082892179306" lon="12.1389664186225"><ele>641.6666666666667</ele><time>2026-04-19T09:03:33.001Z</time></trkpt><trkpt lat="43.22303117560036" lon="12.139044191538808"><ele>640.8333333333334</ele><time>2026-04-19T09:03:34.001Z</time></trkpt><trkpt lat="43.222971074132424" lon="12.139124500538072"><ele>640.0</ele><time>2026-04-19T09:03:35.001Z</time></trkpt><trkpt lat="43.222906506304405" lon="12.139183447248087"><ele>638.4</ele><time>2026-04-19T09:03:36.001Z</time></trkpt><trkpt lat="43.22283510924847" lon="12.13930182549114"><ele>636.8</ele><time>2026-04-19T09:03:38.001Z</time></trkpt><trkpt lat="43.22277221680832" lon="12.139345681730932"><ele>635.2</ele><time>2026-04-19T09:03:39.001Z</time></trkpt><trkpt lat="43.22268533656515" lon="12.13947383062377"><ele>633.6</ele><time>2026-04-19T09:03:41.001Z</time></trkpt><trkpt lat="43.222599673557475" lon="12.139589543695527"><ele>632.0</ele><time>2026-04-19T09:03:43.001Z</time></trkpt><trkpt lat="43.222518064016256" lon="12.139688291985712"><ele>632.0</ele><time>2026-04-19T09:03:45.001Z</time></trkpt><trkpt lat="43.22245602153012" lon="12.139782817575218"><ele>632.0</ele><time>2026-04-19T09:03:47.001Z</time></trkpt><trkpt lat="43.22240466356199" lon="12.13987417466506"><ele>632.0</ele><time>2026-04-19T09:03:49.001Z</time></trkpt><trkpt lat="43.22236182079961" lon="12.139992342218244"><ele>632.0</ele><time>2026-04-19T09:03:51.001Z</time></trkpt><trkpt lat="43.22234946059107" lon="12.140113596396844"><ele>632.0</ele><time>2026-04-19T09:03:53.001Z</time></trkpt><trkpt lat="43.222347140957226" lon="12.140210129988576"><ele>632.0</ele><time>2026-04-19T09:03:55.001Z</time></trkpt><trkpt lat="43.22237461986826" lon="12.140325484329633"><ele>632.0</ele><time>2026-04-19T09:03:58.001Z</time></trkpt><trkpt lat="43.22238317915756" lon="12.14042130846045"><ele>632.0</ele><time>2026-04-19T09:04:01.001Z</time></trkpt><trkpt lat="43.22235374007258" lon="12.140519138914893"><ele>632.0</ele><time>2026-04-19T09:04:03.001Z</time></trkpt><trkpt lat="43.222313142018905" lon="12.14065149429777"><ele>632.0</ele><time>2026-04-19T09:04:06.001Z</time></trkpt><trkpt lat="43.22229929773867" lon="12.140759876263028"><ele>632.0</ele><time>2026-04-19T09:04:08.001Z</time></trkpt><trkpt lat="43.22227442801418" lon="12.140922608647832"><ele>631.0</ele><time>2026-04-19T09:04:10.001Z</time></trkpt><trkpt lat="43.222240606990816" lon="12.141007540716977"><ele>630.0</ele><time>2026-04-19T09:04:11.001Z</time></trkpt><trkpt lat="43.22219009888568" lon="12.141085291170747"><ele>629.0</ele><time>2026-04-19T09:04:12.001Z</time></trkpt><trkpt lat="43.22213397492774" lon="12.141145146677824"><ele>628.0</ele><time>2026-04-19T09:04:13.001Z</time></trkpt><trkpt lat="43.22205978160564" lon="12.141245940856527"><ele>627.0</ele><time>2026-04-19T09:04:15.001Z</time></trkpt><trkpt lat="43.22201898341998" lon="12.141313912063664"><ele>626.0</ele><time>2026-04-19T09:04:17.001Z</time></trkpt><trkpt lat="43.22197787357417" lon="12.141380531132903"><ele>626.0</ele><time>2026-04-19T09:04:20.001Z</time></trkpt><trkpt lat="43.2219278984947" lon="12.141441695725751"><ele>626.0</ele><time>2026-04-19T09:04:26.001Z</time></trkpt><trkpt lat="43.221839575367106" lon="12.141506364033473"><ele>626.0</ele><time>2026-04-19T09:04:29.001Z</time></trkpt><trkpt lat="43.221789320598624" lon="12.1415596959628"><ele>626.0</ele><time>2026-04-19T09:04:30.001Z</time></trkpt><trkpt lat="43.221742883670466" lon="12.141625363579218"><ele>626.0</ele><time>2026-04-19T09:04:31.001Z</time></trkpt><trkpt lat="43.22166903481053" lon="12.141704728928396"><ele>626.0</ele><time>2026-04-19T09:04:33.001Z</time></trkpt><trkpt lat="43.221598556600135" lon="12.141748115549975"><ele>626.2857142857142</ele><time>2026-04-19T09:04:35.001Z</time></trkpt><trkpt lat="43.22152298551772" lon="12.14179878339274"><ele>626.5714285714286</ele><time>2026-04-19T09:04:37.001Z</time></trkpt><trkpt lat="43.22146724030557" lon="12.141853432378813"><ele>626.8571428571429</ele><time>2026-04-19T09:04:39.001Z</time></trkpt><trkpt lat="43.22137963535236" lon="12.141900093986626"><ele>627.1428571428571</ele><time>2026-04-19T09:04:42.001Z</time></trkpt><trkpt lat="43.22130764434854" lon="12.141915938341805"><ele>627.4285714285714</ele><time>2026-04-19T09:04:44.001Z</time></trkpt><trkpt lat="43.221286888605874" lon="12.141997680484845"><ele>627.7142857142857</ele><time>2026-04-19T09:04:46.001Z</time></trkpt><trkpt lat="43.221230504429556" lon="12.142045627103242"><ele>628.0</ele><time>2026-04-19T09:04:48.001Z</time></trkpt><trkpt lat="43.22115871727709" lon="12.142097471818733"><ele>627.3333333333334</ele><time>2026-04-19T09:04:50.001Z</time></trkpt><trkpt lat="43.22105460353119" lon="12.142166325194916"><ele>626.6666666666667</ele><time>2026-04-19T09:04:52.001Z</time></trkpt><trkpt lat="43.22098802632557" lon="12.142184815274804"><ele>626.0</ele><time>2026-04-19T09:04:53.001Z</time></trkpt><trkpt lat="43.220916565640664" lon="12.142197002070851"><ele>625.3333333333334</ele><time>2026-04-19T09:04:54.001Z</time></trkpt><trkpt lat="43.22085364586133" lon="12.14221609313636"><ele>624.6666666666666</ele><time>2026-04-19T09:04:55.001Z</time></trkpt><trkpt lat="43.22079044954921" lon="12.14224671453392"><ele>624.0</ele><time>2026-04-19T09:04:56.001Z</time></trkpt><trkpt lat="43.22073254609717" lon="12.142287685211128"><ele>624.0</ele><time>2026-04-19T09:04:57.001Z</time></trkpt><trkpt lat="43.22067930534379" lon="12.142337363850755"><ele>624.0</ele><time>2026-04-19T09:04:58.001Z</time></trkpt><trkpt lat="43.220621881269935" lon="12.142388164254351"><ele>624.0</ele><time>2026-04-19T09:04:59.001Z</time></trkpt><trkpt lat="43.22056225661068" lon="12.14246352053819"><ele>624.0</ele><time>2026-04-19T09:05:00.001Z</time></trkpt><trkpt lat="43.22049595209945" lon="12.142545812479703"><ele>624.0</ele><time>2026-04-19T09:05:01.001Z</time></trkpt><trkpt lat="43.22043800936423" lon="12.142592377919781"><ele>624.0</ele><time>2026-04-19T09:05:02.001Z</time></trkpt><trkpt lat="43.220300321443204" lon="12.14266829834627"><ele>621.8</ele><time>2026-04-19T09:05:04.001Z</time></trkpt><trkpt lat="43.22021633451556" lon="12.142714494501627"><ele>619.5999999999999</ele><time>2026-04-19T09:05:05.001Z</time></trkpt><trkpt lat="43.22013286053081" lon="12.142738863354827"><ele>617.4</ele><time>2026-04-19T09:05:06.001Z</time></trkpt><trkpt lat="43.2200346649457" lon="12.142738578723305"><ele>615.1999999999999</ele><time>2026-04-19T09:05:07.001Z</time></trkpt><trkpt lat="43.21992747740383" lon="12.142684773011357"><ele>613.0</ele><time>2026-04-19T09:05:08.001Z</time></trkpt><trkpt lat="43.21980070687988" lon="12.142645225839209"><ele>613.0</ele><time>2026-04-19T09:05:09.001Z</time></trkpt><trkpt lat="43.219642953776905" lon="12.142591763146314"><ele>613.0</ele><time>2026-04-19T09:05:10.001Z</time></trkpt><trkpt lat="43.2194864145219" lon="12.14255467992856"><ele>613.0</ele><time>2026-04-19T09:05:11.001Z</time></trkpt><trkpt lat="43.219353217048955" lon="12.14250152364287"><ele>613.0</ele><time>2026-04-19T09:05:12.001Z</time></trkpt><trkpt lat="43.21922342285359" lon="12.142468695891695"><ele>613.0</ele><time>2026-04-19T09:05:13.001Z</time></trkpt><trkpt lat="43.219084054786784" lon="12.142439869727914"><ele>613.0</ele><time>2026-04-19T09:05:14.001Z</time></trkpt><trkpt lat="43.21893665252155" lon="12.142404194521475"><ele>613.0</ele><time>2026-04-19T09:05:15.001Z</time></trkpt><trkpt lat="43.218788098411636" lon="12.142373892468344"><ele>610.0</ele><time>2026-04-19T09:05:16.001Z</time></trkpt><trkpt lat="43.21864444619031" lon="12.142354815220433"><ele>607.0</ele><time>2026-04-19T09:05:17.001Z</time></trkpt><trkpt lat="43.21850341841879" lon="12.142325798394193"><ele>604.0</ele><time>2026-04-19T09:05:18.001Z</time></trkpt><trkpt lat="43.21836293586638" lon="12.142293310199415"><ele>601.0</ele><time>2026-04-19T09:05:19.001Z</time></trkpt><trkpt lat="43.218193482306496" lon="12.142275377911103"><ele>601.3333333333334</ele><time>2026-04-19T09:05:20.001Z</time></trkpt><trkpt lat="43.21799808936782" lon="12.142230236485025"><ele>601.6666666666666</ele><time>2026-04-19T09:05:21.001Z</time></trkpt><trkpt lat="43.217822465526964" lon="12.142213295351098"><ele>602.0</ele><time>2026-04-19T09:05:22.001Z</time></trkpt><trkpt lat="43.217678819318785" lon="12.14218188316644"><ele>602.0</ele><time>2026-04-19T09:05:23.001Z</time></trkpt><trkpt lat="43.21755290820679" lon="12.142159859629482"><ele>602.0</ele><time>2026-04-19T09:05:24.001Z</time></trkpt><trkpt lat="43.21744001696743" lon="12.142136274451797"><ele>602.0</ele><time>2026-04-19T09:05:25.001Z</time></trkpt><trkpt lat="43.21732712076989" lon="12.142114153784538"><ele>602.0</ele><time>2026-04-19T09:05:26.001Z</time></trkpt><trkpt lat="43.217201857080084" lon="12.142105874596341"><ele>602.0</ele><time>2026-04-19T09:05:27.001Z</time></trkpt><trkpt lat="43.21707738533151" lon="12.142112325084465"><ele>602.0</ele><time>2026-04-19T09:05:28.001Z</time></trkpt><trkpt lat="43.21696755382645" lon="12.142117910608718"><ele>602.0</ele><time>2026-04-19T09:05:29.001Z</time></trkpt><trkpt lat="43.21685743176952" lon="12.142124864315308"><ele>602.0</ele><time>2026-04-19T09:05:30.001Z</time></trkpt><trkpt lat="43.21674609248273" lon="12.142133919131023"><ele>602.0</ele><time>2026-04-19T09:05:31.001Z</time></trkpt><trkpt lat="43.2166407266362" lon="12.14215762778257"><ele>602.0</ele><time>2026-04-19T09:05:32.001Z</time></trkpt><trkpt lat="43.21653847334339" lon="12.142193494132126"><ele>602.0</ele><time>2026-04-19T09:05:33.001Z</time></trkpt><trkpt lat="43.21642569815579" lon="12.1422424889586"><ele>602.0</ele><time>2026-04-19T09:05:34.001Z</time></trkpt><trkpt lat="43.21633113926124" lon="12.142290495679335"><ele>602.0</ele><time>2026-04-19T09:05:35.001Z</time></trkpt><trkpt lat="43.216247771326195" lon="12.142342503599663"><ele>603.25</ele><time>2026-04-19T09:05:36.001Z</time></trkpt><trkpt lat="43.21616804910917" lon="12.14241041313817"><ele>604.5</ele><time>2026-04-19T09:05:37.001Z</time></trkpt><trkpt lat="43.216083795831025" lon="12.142511570505294"><ele>605.75</ele><time>2026-04-19T09:05:38.001Z</time></trkpt><trkpt lat="43.21599991680102" lon="12.142640632144166"><ele>607.0</ele><time>2026-04-19T09:05:39.001Z</time></trkpt><trkpt lat="43.21591073173152" lon="12.142794740176253"><ele>607.0</ele><time>2026-04-19T09:05:40.001Z</time></trkpt><trkpt lat="43.215814656021955" lon="12.142966006413378"><ele>607.0</ele><time>2026-04-19T09:05:41.001Z</time></trkpt><trkpt lat="43.2157111168375" lon="12.143144665814374"><ele>607.0</ele><time>2026-04-19T09:05:42.001Z</time></trkpt><trkpt lat="43.21562160068944" lon="12.143300859126818"><ele>605.25</ele><time>2026-04-19T09:05:43.001Z</time></trkpt><trkpt lat="43.215541185784154" lon="12.143458792832776"><ele>603.5</ele><time>2026-04-19T09:05:44.001Z</time></trkpt><trkpt lat="43.215458940736546" lon="12.143617311247741"><ele>601.75</ele><time>2026-04-19T09:05:45.001Z</time></trkpt><trkpt lat="43.21538047395616" lon="12.143800025881358"><ele>600.0</ele><time>2026-04-19T09:05:46.001Z</time></trkpt><trkpt lat="43.215299771408944" lon="12.144017550704383"><ele>600.3333333333334</ele><time>2026-04-19T09:05:47.001Z</time></trkpt><trkpt lat="43.21520673567753" lon="12.144247787912782"><ele>600.6666666666667</ele><time>2026-04-19T09:05:48.001Z</time></trkpt><trkpt lat="43.21511567226668" lon="12.144502712290404"><ele>601.0</ele><time>2026-04-19T09:05:49.001Z</time></trkpt><trkpt lat="43.21504133356855" lon="12.144729425071302"><ele>601.5</ele><time>2026-04-19T09:05:50.001Z</time></trkpt><trkpt lat="43.21497680623432" lon="12.144906919089204"><ele>602.0</ele><time>2026-04-19T09:05:51.001Z</time></trkpt><trkpt lat="43.214912005989376" lon="12.145068818646099"><ele>602.5</ele><time>2026-04-19T09:05:52.001Z</time></trkpt><trkpt lat="43.21485150238515" lon="12.145215045529874"><ele>603.0</ele><time>2026-04-19T09:05:53.001Z</time></trkpt><trkpt lat="43.214791581397115" lon="12.145335561059706"><ele>602.4</ele><time>2026-04-19T09:05:54.001Z</time></trkpt><trkpt lat="43.214723360748266" lon="12.14544905013003"><ele>601.8</ele><time>2026-04-19T09:05:55.001Z</time></trkpt><trkpt lat="43.2146537214472" lon="12.145538896029917"><ele>601.2</ele><time>2026-04-19T09:05:56.001Z</time></trkpt><trkpt lat="43.21456866489322" lon="12.1456201501818"><ele>600.6</ele><time>2026-04-19T09:05:57.001Z</time></trkpt><trkpt lat="43.21446402238015" lon="12.14568927826693"><ele>600.0</ele><time>2026-04-19T09:05:58.001Z</time></trkpt><trkpt lat="43.21433326178707" lon="12.145743083581994"><ele>600.0</ele><time>2026-04-19T09:05:59.001Z</time></trkpt><trkpt lat="43.21417988057056" lon="12.14573982485404"><ele>600.0</ele><time>2026-04-19T09:06:00.001Z</time></trkpt><trkpt lat="43.214028377770354" lon="12.145766233050256"><ele>600.0</ele><time>2026-04-19T09:06:01.001Z</time></trkpt><trkpt lat="43.21389749624646" lon="12.14582260641181"><ele>600.0</ele><time>2026-04-19T09:06:02.001Z</time></trkpt><trkpt lat="43.21377859466842" lon="12.145850657231607"><ele>599.8</ele><time>2026-04-19T09:06:03.001Z</time></trkpt><trkpt lat="43.21366848147122" lon="12.145877572744809"><ele>599.6</ele><time>2026-04-19T09:06:04.001Z</time></trkpt><trkpt lat="43.21356640283477" lon="12.145896698449562"><ele>599.4</ele><time>2026-04-19T09:06:05.001Z</time></trkpt><trkpt lat="43.2134745195203" lon="12.145912815912059"><ele>599.2</ele><time>2026-04-19T09:06:06.001Z</time></trkpt><trkpt lat="43.21338335766063" lon="12.145933464096222"><ele>599.0</ele><time>2026-04-19T09:06:07.001Z</time></trkpt><trkpt lat="43.21328059846995" lon="12.145940536414088"><ele>599.0</ele><time>2026-04-19T09:06:08.001Z</time></trkpt><trkpt lat="43.21318209602654" lon="12.145988918083454"><ele>599.0</ele><time>2026-04-19T09:06:09.001Z</time></trkpt><trkpt lat="43.21308381501183" lon="12.146007536367424"><ele>599.0</ele><time>2026-04-19T09:06:10.001Z</time></trkpt><trkpt lat="43.21299494119138" lon="12.146025715399087"><ele>599.0</ele><time>2026-04-19T09:06:11.001Z</time></trkpt><trkpt lat="43.21290840240433" lon="12.146048924314996"><ele>599.0</ele><time>2026-04-19T09:06:12.001Z</time></trkpt><trkpt lat="43.212827623316706" lon="12.146076375018586"><ele>598.5</ele><time>2026-04-19T09:06:13.001Z</time></trkpt><trkpt lat="43.212750419315896" lon="12.146106109912587"><ele>598.0</ele><time>2026-04-19T09:06:14.001Z</time></trkpt><trkpt lat="43.212677820668965" lon="12.146131645630234"><ele>597.5</ele><time>2026-04-19T09:06:15.001Z</time></trkpt><trkpt lat="43.21260599598226" lon="12.146153354437384"><ele>597.0</ele><time>2026-04-19T09:06:16.001Z</time></trkpt><trkpt lat="43.21252628440973" lon="12.146164327393903"><ele>596.5</ele><time>2026-04-19T09:06:17.001Z</time></trkpt><trkpt lat="43.21244906935556" lon="12.146156284403052"><ele>596.0</ele><time>2026-04-19T09:06:18.001Z</time></trkpt><trkpt lat="43.21237686409127" lon="12.146145375249159"><ele>594.4</ele><time>2026-04-19T09:06:19.001Z</time></trkpt><trkpt lat="43.212313584582496" lon="12.146139943509851"><ele>592.8</ele><time>2026-04-19T09:06:20.001Z</time></trkpt><trkpt lat="43.212207726421155" lon="12.146202072778893"><ele>591.1999999999999</ele><time>2026-04-19T09:06:22.001Z</time></trkpt><trkpt lat="43.21211513067812" lon="12.146313667140761"><ele>589.6</ele><time>2026-04-19T09:06:24.001Z</time></trkpt><trkpt lat="43.212019846029605" lon="12.146389640132872"><ele>588.0</ele><time>2026-04-19T09:06:26.001Z</time></trkpt><trkpt lat="43.21190912932506" lon="12.146389335962136"><ele>588.0</ele><time>2026-04-19T09:06:28.001Z</time></trkpt><trkpt lat="43.21180552556587" lon="12.146400890104275"><ele>588.0</ele><time>2026-04-19T09:06:30.001Z</time></trkpt><trkpt lat="43.211694133205555" lon="12.146411249034188"><ele>588.0</ele><time>2026-04-19T09:06:32.001Z</time></trkpt><trkpt lat="43.211599691650925" lon="12.14641897525996"><ele>588.0</ele><time>2026-04-19T09:06:34.001Z</time></trkpt><trkpt lat="43.211498827348876" lon="12.146457397224717"><ele>588.0</ele><time>2026-04-19T09:06:36.001Z</time></trkpt><trkpt lat="43.21142888170723" lon="12.146469075781544"><ele>587.0</ele><time>2026-04-19T09:06:37.001Z</time></trkpt><trkpt lat="43.2113634947353" lon="12.146479122341933"><ele>586.0</ele><time>2026-04-19T09:06:38.001Z</time></trkpt><trkpt lat="43.21123964370896" lon="12.14649993419151"><ele>585.0</ele><time>2026-04-19T09:06:40.001Z</time></trkpt><trkpt lat="43.211164235933495" lon="12.146510977183263"><ele>584.0</ele><time>2026-04-19T09:06:41.001Z</time></trkpt><trkpt lat="43.211095989917645" lon="12.146523393414299"><ele>583.0</ele><time>2026-04-19T09:06:42.001Z</time></trkpt><trkpt lat="43.21102581077243" lon="12.146524724131156"><ele>582.0</ele><time>2026-04-19T09:06:43.001Z</time></trkpt><trkpt lat="43.210945530407635" lon="12.146525952739767"><ele>582.0</ele><time>2026-04-19T09:06:44.001Z</time></trkpt><trkpt lat="43.21086349924" lon="12.146529174210222"><ele>582.0</ele><time>2026-04-19T09:06:45.001Z</time></trkpt><trkpt lat="43.21077265838284" lon="12.146524546136048"><ele>582.0</ele><time>2026-04-19T09:06:46.001Z</time></trkpt><trkpt lat="43.210688552145406" lon="12.146516218961668"><ele>582.0</ele><time>2026-04-19T09:06:47.001Z</time></trkpt><trkpt lat="43.21060329735354" lon="12.146506031825348"><ele>582.0</ele><time>2026-04-19T09:06:48.001Z</time></trkpt><trkpt lat="43.21052425471575" lon="12.146497703237545"><ele>582.0</ele><time>2026-04-19T09:06:49.001Z</time></trkpt><trkpt lat="43.21045263778032" lon="12.14649261830279"><ele>581.4285714285714</ele><time>2026-04-19T09:06:50.001Z</time></trkpt><trkpt lat="43.21038017941953" lon="12.146484275032941"><ele>580.8571428571428</ele><time>2026-04-19T09:06:51.001Z</time></trkpt><trkpt lat="43.210298519933104" lon="12.146470097144006"><ele>580.2857142857142</ele><time>2026-04-19T09:06:52.001Z</time></trkpt><trkpt lat="43.2102278138422" lon="12.14646198417912"><ele>579.7142857142857</ele><time>2026-04-19T09:06:53.001Z</time></trkpt><trkpt lat="43.21016429764428" lon="12.146454278039226"><ele>579.1428571428571</ele><time>2026-04-19T09:06:54.001Z</time></trkpt><trkpt lat="43.210089385917406" lon="12.146446942232396"><ele>578.5714285714286</ele><time>2026-04-19T09:06:55.001Z</time></trkpt><trkpt lat="43.21002280532398" lon="12.14644167264584"><ele>578.0</ele><time>2026-04-19T09:06:56.001Z</time></trkpt><trkpt lat="43.209958084795865" lon="12.146438101427286"><ele>578.0</ele><time>2026-04-19T09:06:57.001Z</time></trkpt><trkpt lat="43.20988696460154" lon="12.146436498442702"><ele>578.0</ele><time>2026-04-19T09:06:58.001Z</time></trkpt><trkpt lat="43.209815446992025" lon="12.14643894448143"><ele>578.0</ele><time>2026-04-19T09:06:59.001Z</time></trkpt><trkpt lat="43.209750942722096" lon="12.146441448890576"><ele>578.0</ele><time>2026-04-19T09:07:00.001Z</time></trkpt><trkpt lat="43.2096396501928" lon="12.146444599459214"><ele>578.0</ele><time>2026-04-19T09:07:02.001Z</time></trkpt><trkpt lat="43.209528639991184" lon="12.146459821322557"><ele>578.0</ele><time>2026-04-19T09:07:04.001Z</time></trkpt><trkpt lat="43.20946491985416" lon="12.14647163839276"><ele>577.1666666666666</ele><time>2026-04-19T09:07:05.001Z</time></trkpt><trkpt lat="43.2093890162344" lon="12.146486207628064"><ele>576.3333333333333</ele><time>2026-04-19T09:07:06.001Z</time></trkpt><trkpt lat="43.20929584572525" lon="12.146486327436381"><ele>575.5</ele><time>2026-04-19T09:07:07.001Z</time></trkpt><trkpt lat="43.20920220449774" lon="12.146514517811317"><ele>574.6666666666666</ele><time>2026-04-19T09:07:08.001Z</time></trkpt><trkpt lat="43.20910983751994" lon="12.14654325298679"><ele>573.8333333333334</ele><time>2026-04-19T09:07:09.001Z</time></trkpt><trkpt lat="43.20902476063184" lon="12.146569825962242"><ele>573.0</ele><time>2026-04-19T09:07:10.001Z</time></trkpt><trkpt lat="43.20894584863262" lon="12.14659447339336"><ele>571.0</ele><time>2026-04-19T09:07:11.001Z</time></trkpt><trkpt lat="43.208855811945746" lon="12.146623872508572"><ele>569.0</ele><time>2026-04-19T09:07:12.001Z</time></trkpt><trkpt lat="43.20876860138279" lon="12.146654296117438"><ele>567.0</ele><time>2026-04-19T09:07:13.001Z</time></trkpt><trkpt lat="43.208696823202025" lon="12.146679336108543"><ele>565.0</ele><time>2026-04-19T09:07:14.001Z</time></trkpt><trkpt lat="43.20862917828061" lon="12.146702934203024"><ele>563.0</ele><time>2026-04-19T09:07:15.001Z</time></trkpt><trkpt lat="43.20856622790295" lon="12.146744644195673"><ele>561.0</ele><time>2026-04-19T09:07:16.001Z</time></trkpt><trkpt lat="43.20849226340788" lon="12.146769478820486"><ele>561.0</ele><time>2026-04-19T09:07:17.001Z</time></trkpt><trkpt lat="43.208406935253294" lon="12.14679914702165"><ele>561.0</ele><time>2026-04-19T09:07:18.001Z</time></trkpt><trkpt lat="43.2083004562557" lon="12.14680026167316"><ele>561.0</ele><time>2026-04-19T09:07:19.001Z</time></trkpt><trkpt lat="43.20818037432386" lon="12.146791772498082"><ele>561.0</ele><time>2026-04-19T09:07:20.001Z</time></trkpt><trkpt lat="43.20804025708652" lon="12.146760758235937"><ele>557.3333333333334</ele><time>2026-04-19T09:07:21.001Z</time></trkpt><trkpt lat="43.20788690691825" lon="12.14671318766978"><ele>553.6666666666667</ele><time>2026-04-19T09:07:22.001Z</time></trkpt><trkpt lat="43.20772420679869" lon="12.146627674279987"><ele>550.0</ele><time>2026-04-19T09:07:23.001Z</time></trkpt><trkpt lat="43.20757224898301" lon="12.146542613635212"><ele>550.0</ele><time>2026-04-19T09:07:24.001Z</time></trkpt><trkpt lat="43.20741723477785" lon="12.146462651294415"><ele>550.0</ele><time>2026-04-19T09:07:25.001Z</time></trkpt><trkpt lat="43.20726857378792" lon="12.14638326276055"><ele>550.0</ele><time>2026-04-19T09:07:26.001Z</time></trkpt><trkpt lat="43.207122291377665" lon="12.146303269699004"><ele>544.3333333333334</ele><time>2026-04-19T09:07:27.001Z</time></trkpt><trkpt lat="43.20698475866575" lon="12.146221959425642"><ele>538.6666666666666</ele><time>2026-04-19T09:07:28.001Z</time></trkpt><trkpt lat="43.20685483063627" lon="12.14611820043274"><ele>533.0</ele><time>2026-04-19T09:07:29.001Z</time></trkpt><trkpt lat="43.20670664703524" lon="12.146031510847056"><ele>533.0</ele><time>2026-04-19T09:07:30.001Z</time></trkpt><trkpt lat="43.20656953616439" lon="12.14590296560909"><ele>533.0</ele><time>2026-04-19T09:07:31.001Z</time></trkpt><trkpt lat="43.20644499870836" lon="12.145772746579784"><ele>533.0</ele><time>2026-04-19T09:07:32.001Z</time></trkpt><trkpt lat="43.206298443013864" lon="12.145671597206997"><ele>526.3333333333333</ele><time>2026-04-19T09:07:33.001Z</time></trkpt><trkpt lat="43.20610769055049" lon="12.14561272139979"><ele>519.6666666666666</ele><time>2026-04-19T09:07:34.001Z</time></trkpt><trkpt lat="43.20587670036762" lon="12.145581077643143"><ele>513.0</ele><time>2026-04-19T09:07:35.001Z</time></trkpt><trkpt lat="43.205606173250835" lon="12.14557004441193"><ele>511.0</ele><time>2026-04-19T09:07:36.001Z</time></trkpt><trkpt lat="43.20538108481165" lon="12.145567654497007"><ele>509.0</ele><time>2026-04-19T09:07:37.001Z</time></trkpt><trkpt lat="43.20518729144834" lon="12.145574305081887"><ele>507.0</ele><time>2026-04-19T09:07:38.001Z</time></trkpt><trkpt lat="43.20500534779373" lon="12.145575485834602"><ele>507.0</ele><time>2026-04-19T09:07:39.001Z</time></trkpt><trkpt lat="43.2048558246434" lon="12.145604369515206"><ele>507.0</ele><time>2026-04-19T09:07:40.001Z</time></trkpt><trkpt lat="43.20472630658707" lon="12.145647507968912"><ele>507.0</ele><time>2026-04-19T09:07:41.001Z</time></trkpt><trkpt lat="43.204621823124285" lon="12.14564929246348"><ele>507.0</ele><time>2026-04-19T09:07:42.001Z</time></trkpt><trkpt lat="43.20451584196114" lon="12.145648274331517"><ele>507.0</ele><time>2026-04-19T09:07:43.001Z</time></trkpt><trkpt lat="43.20442614173939" lon="12.14563460379318"><ele>507.00000000000006</ele><time>2026-04-19T09:07:44.001Z</time></trkpt><trkpt lat="43.204363836651645" lon="12.14560244434225"><ele>507.00000000000006</ele><time>2026-04-19T09:07:45.001Z</time></trkpt><trkpt lat="43.204263616011595" lon="12.145553761195139"><ele>507.0</ele><time>2026-04-19T09:07:47.001Z</time></trkpt><trkpt lat="43.20417347441154" lon="12.145613962493396"><ele>507.0</ele><time>2026-04-19T09:07:48.001Z</time></trkpt><trkpt lat="43.2040899703732" lon="12.145693585328496"><ele>508.75</ele><time>2026-04-19T09:07:49.001Z</time></trkpt><trkpt lat="43.20402328218502" lon="12.14580891410874"><ele>510.5</ele><time>2026-04-19T09:07:50.001Z</time></trkpt><trkpt lat="43.20393550571326" lon="12.145943893198547"><ele>512.25</ele><time>2026-04-19T09:07:51.001Z</time></trkpt><trkpt lat="43.203841536516286" lon="12.146074502278234"><ele>514.0</ele><time>2026-04-19T09:07:52.001Z</time></trkpt><trkpt lat="43.20376207646163" lon="12.146257554401771"><ele>516.5</ele><time>2026-04-19T09:07:53.001Z</time></trkpt><trkpt lat="43.203696590532985" lon="12.146473202920175"><ele>519.0</ele><time>2026-04-19T09:07:54.001Z</time></trkpt><trkpt lat="43.20365131067526" lon="12.146649271540042"><ele>521.5</ele><time>2026-04-19T09:07:55.001Z</time></trkpt><trkpt lat="43.20360916026019" lon="12.146804310323935"><ele>524.0</ele><time>2026-04-19T09:07:56.001Z</time></trkpt><trkpt lat="43.20355649321807" lon="12.14692315076659"><ele>524.0</ele><time>2026-04-19T09:07:57.001Z</time></trkpt><trkpt lat="43.20349892582798" lon="12.147012948980516"><ele>524.0</ele><time>2026-04-19T09:07:58.001Z</time></trkpt><trkpt lat="43.20342843668368" lon="12.14707696533322"><ele>524.0</ele><time>2026-04-19T09:07:59.001Z</time></trkpt><trkpt lat="43.203327342507464" lon="12.147104554861686"><ele>524.0</ele><time>2026-04-19T09:08:00.001Z</time></trkpt><trkpt lat="43.203200191477585" lon="12.147183137978042"><ele>524.0</ele><time>2026-04-19T09:08:01.001Z</time></trkpt><trkpt lat="43.20304887685516" lon="12.147230864435212"><ele>524.0</ele><time>2026-04-19T09:08:02.001Z</time></trkpt><trkpt lat="43.20292878265829" lon="12.14732817231903"><ele>524.0</ele><time>2026-04-19T09:08:03.001Z</time></trkpt><trkpt lat="43.2028399083138" lon="12.147460438853418"><ele>524.0</ele><time>2026-04-19T09:08:04.001Z</time></trkpt><trkpt lat="43.20274314431941" lon="12.1476014934033"><ele>524.0</ele><time>2026-04-19T09:08:05.001Z</time></trkpt><trkpt lat="43.20264112629248" lon="12.14777670030828"><ele>525.0</ele><time>2026-04-19T09:08:06.001Z</time></trkpt><trkpt lat="43.202535420445" lon="12.147964214693483"><ele>526.0</ele><time>2026-04-19T09:08:07.001Z</time></trkpt><trkpt lat="43.20242000666072" lon="12.148128644500536"><ele>527.0</ele><time>2026-04-19T09:08:08.001Z</time></trkpt><trkpt lat="43.20231229719129" lon="12.148302760612864"><ele>528.0</ele><time>2026-04-19T09:08:09.001Z</time></trkpt><trkpt lat="43.20219678856847" lon="12.148498301945617"><ele>529.0</ele><time>2026-04-19T09:08:10.001Z</time></trkpt><trkpt lat="43.20208228616288" lon="12.14866294935354"><ele>530.0</ele><time>2026-04-19T09:08:11.001Z</time></trkpt><trkpt lat="43.201980654265164" lon="12.148816522802393"><ele>530.0</ele><time>2026-04-19T09:08:12.001Z</time></trkpt><trkpt lat="43.201891309946895" lon="12.148941893919401"><ele>530.0</ele><time>2026-04-19T09:08:13.001Z</time></trkpt><trkpt lat="43.20181203884085" lon="12.149048595393765"><ele>530.0</ele><time>2026-04-19T09:08:14.001Z</time></trkpt><trkpt lat="43.201747026754674" lon="12.149149111376868"><ele>530.0</ele><time>2026-04-19T09:08:15.001Z</time></trkpt><trkpt lat="43.20169215261825" lon="12.149276003222573"><ele>530.0</ele><time>2026-04-19T09:08:16.001Z</time></trkpt><trkpt lat="43.20164248374445" lon="12.149450539126788"><ele>534.0</ele><time>2026-04-19T09:08:17.001Z</time></trkpt><trkpt lat="43.20157419362869" lon="12.149661808306595"><ele>538.0</ele><time>2026-04-19T09:08:18.001Z</time></trkpt><trkpt lat="43.20153411363547" lon="12.149909150085337"><ele>542.0</ele><time>2026-04-19T09:08:19.001Z</time></trkpt><trkpt lat="43.20150917868818" lon="12.150165533542943"><ele>539.0</ele><time>2026-04-19T09:08:20.001Z</time></trkpt><trkpt lat="43.201488142060626" lon="12.150397944750479"><ele>536.0</ele><time>2026-04-19T09:08:21.001Z</time></trkpt><trkpt lat="43.20146680696593" lon="12.150624890917179"><ele>533.0</ele><time>2026-04-19T09:08:22.001Z</time></trkpt><trkpt lat="43.20140696021722" lon="12.150871463666885"><ele>533.0</ele><time>2026-04-19T09:08:23.001Z</time></trkpt><trkpt lat="43.20133422355345" lon="12.151119236040529"><ele>533.0</ele><time>2026-04-19T09:08:24.001Z</time></trkpt><trkpt lat="43.20125882167466" lon="12.151329385011234"><ele>533.0</ele><time>2026-04-19T09:08:25.001Z</time></trkpt><trkpt lat="43.20116737586876" lon="12.151544892210472"><ele>538.0</ele><time>2026-04-19T09:08:26.001Z</time></trkpt><trkpt lat="43.20106010330605" lon="12.151765886741314"><ele>543.0</ele><time>2026-04-19T09:08:27.001Z</time></trkpt><trkpt lat="43.20096393949416" lon="12.151954196382292"><ele>548.0</ele><time>2026-04-19T09:08:28.001Z</time></trkpt><trkpt lat="43.2008934892551" lon="12.152101406091722"><ele>548.0</ele><time>2026-04-19T09:08:29.001Z</time></trkpt><trkpt lat="43.200845809777036" lon="12.152233383201668"><ele>548.0</ele><time>2026-04-19T09:08:30.001Z</time></trkpt><trkpt lat="43.2008225251473" lon="12.15234458469867"><ele>548.0</ele><time>2026-04-19T09:08:31.001Z</time></trkpt><trkpt lat="43.20081816908758" lon="12.152446749963795"><ele>548.0</ele><time>2026-04-19T09:08:32.001Z</time></trkpt><trkpt lat="43.20082940592859" lon="12.152563408607291"><ele>548.0</ele><time>2026-04-19T09:08:33.001Z</time></trkpt><trkpt lat="43.200855831903176" lon="12.15269720059995"><ele>551.25</ele><time>2026-04-19T09:08:34.001Z</time></trkpt><trkpt lat="43.200902051867025" lon="12.15286111905668"><ele>554.5</ele><time>2026-04-19T09:08:35.001Z</time></trkpt><trkpt lat="43.200961563308724" lon="12.153043303875927"><ele>557.75</ele><time>2026-04-19T09:08:36.001Z</time></trkpt><trkpt lat="43.201016704062404" lon="12.153236486489176"><ele>561.0</ele><time>2026-04-19T09:08:37.001Z</time></trkpt><trkpt lat="43.201048194162816" lon="12.153408444261254"><ele>563.0</ele><time>2026-04-19T09:08:38.001Z</time></trkpt><trkpt lat="43.20103914931945" lon="12.153584300884306"><ele>565.0</ele><time>2026-04-19T09:08:39.001Z</time></trkpt><trkpt lat="43.20105586944246" lon="12.15380761301178"><ele>567.0</ele><time>2026-04-19T09:08:40.001Z</time></trkpt><trkpt lat="43.201055668280425" lon="12.154032920731535"><ele>567.0</ele><time>2026-04-19T09:08:41.001Z</time></trkpt><trkpt lat="43.201064755214716" lon="12.15421030571297"><ele>567.0</ele><time>2026-04-19T09:08:42.001Z</time></trkpt><trkpt lat="43.201089620134404" lon="12.154363849907323"><ele>567.0</ele><time>2026-04-19T09:08:43.001Z</time></trkpt><trkpt lat="43.201119223899994" lon="12.15449036039524"><ele>567.0</ele><time>2026-04-19T09:08:44.001Z</time></trkpt><trkpt lat="43.201148547445676" lon="12.154589112310306"><ele>567.0</ele><time>2026-04-19T09:08:45.001Z</time></trkpt><trkpt lat="43.20117782199168" lon="12.154687659123182"><ele>567.0</ele><time>2026-04-19T09:08:46.001Z</time></trkpt><trkpt lat="43.2012469933271" lon="12.154784224313252"><ele>567.0</ele><time>2026-04-19T09:08:47.001Z</time></trkpt><trkpt lat="43.20136379983128" lon="12.154857937685607"><ele>567.0</ele><time>2026-04-19T09:08:48.001Z</time></trkpt><trkpt lat="43.201459619406144" lon="12.154973101825313"><ele>567.0</ele><time>2026-04-19T09:08:49.001Z</time></trkpt><trkpt lat="43.20155343004081" lon="12.155056989967358"><ele>565.6666666666666</ele><time>2026-04-19T09:08:50.001Z</time></trkpt><trkpt lat="43.20162193279218" lon="12.15521898115447"><ele>564.3333333333333</ele><time>2026-04-19T09:08:51.001Z</time></trkpt><trkpt lat="43.20170768418431" lon="12.155413742450953"><ele>563.0</ele><time>2026-04-19T09:08:52.001Z</time></trkpt><trkpt lat="43.20179389248023" lon="12.155589159384997"><ele>563.0</ele><time>2026-04-19T09:08:53.001Z</time></trkpt><trkpt lat="43.201849516228684" lon="12.155733208018152"><ele>563.0</ele><time>2026-04-19T09:08:54.001Z</time></trkpt><trkpt lat="43.20189677466" lon="12.155840400427751"><ele>563.0</ele><time>2026-04-19T09:08:55.001Z</time></trkpt><trkpt lat="43.201926237734966" lon="12.15594065785719"><ele>563.0</ele><time>2026-04-19T09:08:56.001Z</time></trkpt><trkpt lat="43.20199116501109" lon="12.156012253238039"><ele>563.0</ele><time>2026-04-19T09:08:57.001Z</time></trkpt><trkpt lat="43.2021025318668" lon="12.156059089524062"><ele>563.0</ele><time>2026-04-19T09:08:58.001Z</time></trkpt><trkpt lat="43.20221799931506" lon="12.156160578386208"><ele>563.0</ele><time>2026-04-19T09:08:59.001Z</time></trkpt><trkpt lat="43.20232225185468" lon="12.156233983966116"><ele>563.0</ele><time>2026-04-19T09:09:00.001Z</time></trkpt><trkpt lat="43.20240991587002" lon="12.156295748499247"><ele>563.0</ele><time>2026-04-19T09:09:01.001Z</time></trkpt><trkpt lat="43.202492318955755" lon="12.156354252815664"><ele>563.0</ele><time>2026-04-19T09:09:02.001Z</time></trkpt><trkpt lat="43.20255737854559" lon="12.156400435367424"><ele>562.0</ele><time>2026-04-19T09:09:03.001Z</time></trkpt><trkpt lat="43.202641130866084" lon="12.156476549475768"><ele>561.0</ele><time>2026-04-19T09:09:05.001Z</time></trkpt><trkpt lat="43.20269480316091" lon="12.156531452615413"><ele>560.0</ele><time>2026-04-19T09:09:07.001Z</time></trkpt><trkpt lat="43.20267614515926" lon="12.156656609182942"><ele>559.0</ele><time>2026-04-19T09:09:09.001Z</time></trkpt><trkpt lat="43.20264398296824" lon="12.156739068526774"><ele>558.0</ele><time>2026-04-19T09:09:10.001Z</time></trkpt><trkpt lat="43.20255378455945" lon="12.1568524112158"><ele>556.6</ele><time>2026-04-19T09:09:12.001Z</time></trkpt><trkpt lat="43.20249392216873" lon="12.15689181526494"><ele>555.1999999999999</ele><time>2026-04-19T09:09:13.001Z</time></trkpt><trkpt lat="43.20237808332425" lon="12.156954235907838"><ele>553.8</ele><time>2026-04-19T09:09:15.001Z</time></trkpt><trkpt lat="43.20230868149982" lon="12.157040676349865"><ele>552.4</ele><time>2026-04-19T09:09:17.001Z</time></trkpt><trkpt lat="43.20225932149813" lon="12.157149524615328"><ele>551.0</ele><time>2026-04-19T09:09:19.001Z</time></trkpt><trkpt lat="43.202254539329" lon="12.157312163000402"><ele>549.0</ele><time>2026-04-19T09:09:21.001Z</time></trkpt><trkpt lat="43.20231198380927" lon="12.157409217699216"><ele>547.0</ele><time>2026-04-19T09:09:22.001Z</time></trkpt><trkpt lat="43.20236271270669" lon="12.157530415479492"><ele>545.0</ele><time>2026-04-19T09:09:23.001Z</time></trkpt><trkpt lat="43.20239892181498" lon="12.157672326009578"><ele>543.0</ele><time>2026-04-19T09:09:24.001Z</time></trkpt><trkpt lat="43.20244586577606" lon="12.157809616678039"><ele>541.0</ele><time>2026-04-19T09:09:25.001Z</time></trkpt><trkpt lat="43.20249214389081" lon="12.157949742783341"><ele>541.0</ele><time>2026-04-19T09:09:26.001Z</time></trkpt><trkpt lat="43.2025366241301" lon="12.158089443584876"><ele>541.0</ele><time>2026-04-19T09:09:27.001Z</time></trkpt><trkpt lat="43.202580090047846" lon="12.15821038164524"><ele>541.0</ele><time>2026-04-19T09:09:28.001Z</time></trkpt><trkpt lat="43.202627988806256" lon="12.158315347746965"><ele>541.0</ele><time>2026-04-19T09:09:29.001Z</time></trkpt><trkpt lat="43.20267176278119" lon="12.1584088221909"><ele>541.0</ele><time>2026-04-19T09:09:30.001Z</time></trkpt><trkpt lat="43.20272273282747" lon="12.158493119297166"><ele>540.1666666666667</ele><time>2026-04-19T09:09:31.001Z</time></trkpt><trkpt lat="43.202761896400034" lon="12.158603469347243"><ele>539.3333333333334</ele><time>2026-04-19T09:09:32.001Z</time></trkpt><trkpt lat="43.20279378844566" lon="12.158712426322348"><ele>538.5</ele><time>2026-04-19T09:09:33.001Z</time></trkpt><trkpt lat="43.20281205500244" lon="12.158816299545759"><ele>537.6666666666666</ele><time>2026-04-19T09:09:34.001Z</time></trkpt><trkpt lat="43.202818195696445" lon="12.158927616923968"><ele>536.8333333333333</ele><time>2026-04-19T09:09:35.001Z</time></trkpt><trkpt lat="43.20281857489116" lon="12.159049855635356"><ele>536.0</ele><time>2026-04-19T09:09:36.001Z</time></trkpt><trkpt lat="43.20280227099802" lon="12.15919754493744"><ele>534.25</ele><time>2026-04-19T09:09:37.001Z</time></trkpt><trkpt lat="43.20277369938884" lon="12.159356570101272"><ele>532.5</ele><time>2026-04-19T09:09:38.001Z</time></trkpt><trkpt lat="43.20274435189191" lon="12.159508908589057"><ele>530.75</ele><time>2026-04-19T09:09:39.001Z</time></trkpt><trkpt lat="43.202711096995095" lon="12.159664579169092"><ele>529.0</ele><time>2026-04-19T09:09:40.001Z</time></trkpt><trkpt lat="43.20266764902664" lon="12.159837870908488"><ele>528.6666666666667</ele><time>2026-04-19T09:09:41.001Z</time></trkpt><trkpt lat="43.2026011790303" lon="12.160033671933842"><ele>528.3333333333334</ele><time>2026-04-19T09:09:42.001Z</time></trkpt><trkpt lat="43.202515405590646" lon="12.160232853181975"><ele>528.0</ele><time>2026-04-19T09:09:43.001Z</time></trkpt><trkpt lat="43.2024200866343" lon="12.160415995019234"><ele>529.0</ele><time>2026-04-19T09:09:44.001Z</time></trkpt><trkpt lat="43.20230620391445" lon="12.160601161111332"><ele>530.0</ele><time>2026-04-19T09:09:45.001Z</time></trkpt><trkpt lat="43.20216640296788" lon="12.160801642505053"><ele>531.0</ele><time>2026-04-19T09:09:46.001Z</time></trkpt><trkpt lat="43.20201853225345" lon="12.160977182487745"><ele>531.0</ele><time>2026-04-19T09:09:47.001Z</time></trkpt><trkpt lat="43.201857875128326" lon="12.161140877481996"><ele>531.0</ele><time>2026-04-19T09:09:48.001Z</time></trkpt><trkpt lat="43.20170986250229" lon="12.161277225781388"><ele>531.0</ele><time>2026-04-19T09:09:49.001Z</time></trkpt><trkpt lat="43.20158583464943" lon="12.161378798142131"><ele>531.3333333333334</ele><time>2026-04-19T09:09:50.001Z</time></trkpt><trkpt lat="43.20146657935552" lon="12.16148930983176"><ele>531.6666666666667</ele><time>2026-04-19T09:09:51.001Z</time></trkpt><trkpt lat="43.20135482885999" lon="12.161629990806771"><ele>532.0</ele><time>2026-04-19T09:09:52.001Z</time></trkpt><trkpt lat="43.20122729834709" lon="12.161770471045887"><ele>532.0</ele><time>2026-04-19T09:09:53.001Z</time></trkpt><trkpt lat="43.20108707650162" lon="12.161961119222296"><ele>532.0</ele><time>2026-04-19T09:09:54.001Z</time></trkpt><trkpt lat="43.20094108061981" lon="12.162185560194036"><ele>532.0</ele><time>2026-04-19T09:09:55.001Z</time></trkpt><trkpt lat="43.200799903029484" lon="12.162363059193483"><ele>532.0</ele><time>2026-04-19T09:09:56.001Z</time></trkpt><trkpt lat="43.20068227762456" lon="12.16250827794409"><ele>532.0</ele><time>2026-04-19T09:09:57.001Z</time></trkpt><trkpt lat="43.200583606991536" lon="12.162633289589335"><ele>532.0</ele><time>2026-04-19T09:09:58.001Z</time></trkpt><trkpt lat="43.20049964612256" lon="12.162742206892277"><ele>532.0</ele><time>2026-04-19T09:09:59.001Z</time></trkpt><trkpt lat="43.200430282306684" lon="12.16283985410628"><ele>532.0</ele><time>2026-04-19T09:10:00.001Z</time></trkpt><trkpt lat="43.20036950007723" lon="12.162922836765999"><ele>532.0</ele><time>2026-04-19T09:10:01.001Z</time></trkpt><trkpt lat="43.20031876402119" lon="12.163000135786564"><ele>532.0</ele><time>2026-04-19T09:10:02.001Z</time></trkpt><trkpt lat="43.20026242418941" lon="12.163077167718594"><ele>532.0</ele><time>2026-04-19T09:10:03.001Z</time></trkpt><trkpt lat="43.20024319987043" lon="12.163202500216112"><ele>532.0</ele><time>2026-04-19T09:10:04.001Z</time></trkpt><trkpt lat="43.20024854368036" lon="12.163343482926399"><ele>532.0</ele><time>2026-04-19T09:10:05.001Z</time></trkpt><trkpt lat="43.200230549293344" lon="12.163515901921913"><ele>536.3333333333334</ele><time>2026-04-19T09:10:06.001Z</time></trkpt><trkpt lat="43.20025856691743" lon="12.163728695765228"><ele>540.6666666666666</ele><time>2026-04-19T09:10:07.001Z</time></trkpt><trkpt lat="43.200279626368875" lon="12.163932344681191"><ele>545.0</ele><time>2026-04-19T09:10:08.001Z</time></trkpt><trkpt lat="43.200318131937664" lon="12.164149448267189"><ele>545.5</ele><time>2026-04-19T09:10:09.001Z</time></trkpt><trkpt lat="43.200344016204134" lon="12.16437376063014"><ele>546.0</ele><time>2026-04-19T09:10:10.001Z</time></trkpt><trkpt lat="43.200394402374386" lon="12.164571617484846"><ele>546.5</ele><time>2026-04-19T09:10:11.001Z</time></trkpt><trkpt lat="43.20045327292471" lon="12.164719761251437"><ele>547.0</ele><time>2026-04-19T09:10:12.001Z</time></trkpt><trkpt lat="43.20048001860976" lon="12.164864954142967"><ele>548.5</ele><time>2026-04-19T09:10:13.001Z</time></trkpt><trkpt lat="43.20049783208035" lon="12.165028921371215"><ele>550.0</ele><time>2026-04-19T09:10:14.001Z</time></trkpt><trkpt lat="43.20049759171401" lon="12.165198639357872"><ele>551.5</ele><time>2026-04-19T09:10:15.001Z</time></trkpt><trkpt lat="43.200475956720155" lon="12.165371412392538"><ele>553.0</ele><time>2026-04-19T09:10:16.001Z</time></trkpt><trkpt lat="43.2004062821302" lon="12.165546287176713"><ele>555.3333333333334</ele><time>2026-04-19T09:10:17.001Z</time></trkpt><trkpt lat="43.20033721876514" lon="12.165741293501338"><ele>557.6666666666666</ele><time>2026-04-19T09:10:18.001Z</time></trkpt><trkpt lat="43.200265035445966" lon="12.16595783722463"><ele>560.0</ele><time>2026-04-19T09:10:19Z</time></trkpt><trkpt lat="43.20023116291886" lon="12.16613190652956"><ele>560.0</ele><time>2026-04-19T09:10:20Z</time></trkpt><trkpt lat="43.20022373648869" lon="12.166272576457475"><ele>560.0</ele><time>2026-04-19T09:10:21Z</time></trkpt><trkpt lat="43.2002519958762" lon="12.16641403139967"><ele>560.0</ele><time>2026-04-19T09:10:22.001Z</time></trkpt><trkpt lat="43.20025579671968" lon="12.166556889672707"><ele>560.0</ele><time>2026-04-19T09:10:23Z</time></trkpt><trkpt lat="43.20027523708651" lon="12.166668969575065"><ele>560.0</ele><time>2026-04-19T09:10:24.001Z</time></trkpt><trkpt lat="43.20029371862351" lon="12.166766750528186"><ele>561.1666666666666</ele><time>2026-04-19T09:10:25.001Z</time></trkpt><trkpt lat="43.20031379172236" lon="12.166865668930681"><ele>562.3333333333333</ele><time>2026-04-19T09:10:26.001Z</time></trkpt><trkpt lat="43.20033709602572" lon="12.16698051093149"><ele>563.5</ele><time>2026-04-19T09:10:27.001Z</time></trkpt><trkpt lat="43.20035672840447" lon="12.167073178715853"><ele>564.6666666666666</ele><time>2026-04-19T09:10:28.001Z</time></trkpt><trkpt lat="43.20039140788009" lon="12.167238385527476"><ele>565.8333333333334</ele><time>2026-04-19T09:10:30.001Z</time></trkpt><trkpt lat="43.20041340529276" lon="12.167333331248916"><ele>567.0</ele><time>2026-04-19T09:10:31.001Z</time></trkpt><trkpt lat="43.200436816424535" lon="12.167434258178103"><ele>567.8333333333334</ele><time>2026-04-19T09:10:32.001Z</time></trkpt><trkpt lat="43.200461304649586" lon="12.167529905716469"><ele>568.6666666666666</ele><time>2026-04-19T09:10:33.001Z</time></trkpt><trkpt lat="43.20048833364116" lon="12.167629329419544"><ele>569.5</ele><time>2026-04-19T09:10:34.001Z</time></trkpt><trkpt lat="43.200532456143726" lon="12.167721196190563"><ele>570.3333333333333</ele><time>2026-04-19T09:10:35.001Z</time></trkpt><trkpt lat="43.200564268593446" lon="12.167825848198744"><ele>571.1666666666666</ele><time>2026-04-19T09:10:36.001Z</time></trkpt><trkpt lat="43.200604709419125" lon="12.16794508944322"><ele>572.0</ele><time>2026-04-19T09:10:37.001Z</time></trkpt><trkpt lat="43.20066000790054" lon="12.168078459645205"><ele>570.25</ele><time>2026-04-19T09:10:38.001Z</time></trkpt><trkpt lat="43.20070937361645" lon="12.16823482649199"><ele>568.5</ele><time>2026-04-19T09:10:39.001Z</time></trkpt><trkpt lat="43.200787481915505" lon="12.168399002099925"><ele>566.75</ele><time>2026-04-19T09:10:40.001Z</time></trkpt><trkpt lat="43.20087515554504" lon="12.168569869536409"><ele>565.0</ele><time>2026-04-19T09:10:41.001Z</time></trkpt><trkpt lat="43.20093929923521" lon="12.16877935613477"><ele>565.0</ele><time>2026-04-19T09:10:42.001Z</time></trkpt><trkpt lat="43.201017609365664" lon="12.168971933475996"><ele>565.0</ele><time>2026-04-19T09:10:43.001Z</time></trkpt><trkpt lat="43.20106703725157" lon="12.169139041968451"><ele>565.0</ele><time>2026-04-19T09:10:44.001Z</time></trkpt><trkpt lat="43.201103157097" lon="12.169288811340152"><ele>565.0</ele><time>2026-04-19T09:10:45.001Z</time></trkpt><trkpt lat="43.201118648677316" lon="12.169428074183825"><ele>566.0</ele><time>2026-04-19T09:10:46.001Z</time></trkpt><trkpt lat="43.20111615096673" lon="12.169569365400669"><ele>567.0</ele><time>2026-04-19T09:10:47.001Z</time></trkpt><trkpt lat="43.20108030392988" lon="12.169733862045812"><ele>568.0</ele><time>2026-04-19T09:10:48.001Z</time></trkpt><trkpt lat="43.20106702132841" lon="12.169909239619047"><ele>569.0</ele><time>2026-04-19T09:10:49.001Z</time></trkpt><trkpt lat="43.20105038392618" lon="12.170038606955867"><ele>569.8</ele><time>2026-04-19T09:10:50.001Z</time></trkpt><trkpt lat="43.201049284279826" lon="12.17013043816633"><ele>570.5999999999999</ele><time>2026-04-19T09:10:51Z</time></trkpt><trkpt lat="43.201115897112935" lon="12.170312070385583"><ele>571.4</ele><time>2026-04-19T09:10:53Z</time></trkpt><trkpt lat="43.201180563181815" lon="12.170399967796572"><ele>572.1999999999999</ele><time>2026-04-19T09:10:54Z</time></trkpt><trkpt lat="43.20127021478989" lon="12.170486806790537"><ele>573.0</ele><time>2026-04-19T09:10:55Z</time></trkpt><trkpt lat="43.20137957236084" lon="12.170588283150327"><ele>575.0</ele><time>2026-04-19T09:10:56Z</time></trkpt><trkpt lat="43.20149636969258" lon="12.1707099500406"><ele>577.0</ele><time>2026-04-19T09:10:57Z</time></trkpt><trkpt lat="43.201622633285616" lon="12.170848295093924"><ele>579.0</ele><time>2026-04-19T09:10:58Z</time></trkpt><trkpt lat="43.201759290962244" lon="12.170991223193132"><ele>574.3333333333334</ele><time>2026-04-19T09:10:59Z</time></trkpt><trkpt lat="43.20189652982542" lon="12.171119858497248"><ele>569.6666666666667</ele><time>2026-04-19T09:11:00Z</time></trkpt><trkpt lat="43.202019192887924" lon="12.171239669338886"><ele>565.0</ele><time>2026-04-19T09:11:01Z</time></trkpt><trkpt lat="43.202132113152395" lon="12.171364653495559"><ele>565.0</ele><time>2026-04-19T09:11:02Z</time></trkpt><trkpt lat="43.20225578255271" lon="12.171478252703526"><ele>565.0</ele><time>2026-04-19T09:11:03Z</time></trkpt><trkpt lat="43.202375505003886" lon="12.171594456327332"><ele>565.0</ele><time>2026-04-19T09:11:04Z</time></trkpt><trkpt lat="43.20248289998546" lon="12.171714774960174"><ele>565.0</ele><time>2026-04-19T09:11:05Z</time></trkpt><trkpt lat="43.202564653946474" lon="12.171818678949723"><ele>565.6</ele><time>2026-04-19T09:11:06Z</time></trkpt><trkpt lat="43.20262067677899" lon="12.17192334790435"><ele>566.2</ele><time>2026-04-19T09:11:07Z</time></trkpt><trkpt lat="43.20266893042442" lon="12.17205602199225"><ele>566.8</ele><time>2026-04-19T09:11:08Z</time></trkpt><trkpt lat="43.20268584539295" lon="12.172224296030537"><ele>567.4</ele><time>2026-04-19T09:11:09Z</time></trkpt><trkpt lat="43.202738152949976" lon="12.17233270948891"><ele>568.0</ele><time>2026-04-19T09:11:10Z</time></trkpt><trkpt lat="43.20276048527511" lon="12.172414396566392"><ele>569.1999999999999</ele><time>2026-04-19T09:11:11Z</time></trkpt><trkpt lat="43.20276500563278" lon="12.172500703216956"><ele>570.4</ele><time>2026-04-19T09:11:12Z</time></trkpt><trkpt lat="43.20268333943775" lon="12.172640127492397"><ele>571.5999999999999</ele><time>2026-04-19T09:11:14Z</time></trkpt><trkpt lat="43.20260555715728" lon="12.172694576035266"><ele>572.8</ele><time>2026-04-19T09:11:15Z</time></trkpt><trkpt lat="43.20250459165584" lon="12.17271447988642"><ele>574.0</ele><time>2026-04-19T09:11:16Z</time></trkpt><trkpt lat="43.20239474918099" lon="12.172755264157367"><ele>576.0</ele><time>2026-04-19T09:11:17Z</time></trkpt><trkpt lat="43.20227892649873" lon="12.172803749176511"><ele>578.0</ele><time>2026-04-19T09:11:18Z</time></trkpt><trkpt lat="43.202158427571746" lon="12.172836588041935"><ele>580.0</ele><time>2026-04-19T09:11:19Z</time></trkpt><trkpt lat="43.20201382807766" lon="12.172882309251666"><ele>582.0</ele><time>2026-04-19T09:11:20Z</time></trkpt><trkpt lat="43.201857400748345" lon="12.172942049705393"><ele>582.0</ele><time>2026-04-19T09:11:21Z</time></trkpt><trkpt lat="43.20169814717662" lon="12.172997798812938"><ele>582.0</ele><time>2026-04-19T09:11:22Z</time></trkpt><trkpt lat="43.20153914371271" lon="12.173051960811213"><ele>582.0</ele><time>2026-04-19T09:11:23Z</time></trkpt><trkpt lat="43.20137125635234" lon="12.173129366725195"><ele>580.3333333333334</ele><time>2026-04-19T09:11:24Z</time></trkpt><trkpt lat="43.20118261748493" lon="12.173220299165383"><ele>578.6666666666667</ele><time>2026-04-19T09:11:25Z</time></trkpt><trkpt lat="43.201013276892134" lon="12.173305604174695"><ele>577.0</ele><time>2026-04-19T09:11:26Z</time></trkpt><trkpt lat="43.20086856532973" lon="12.173401004105894"><ele>577.0</ele><time>2026-04-19T09:11:27Z</time></trkpt><trkpt lat="43.20073991826687" lon="12.173474646518002"><ele>577.0</ele><time>2026-04-19T09:11:28Z</time></trkpt><trkpt lat="43.20063105157494" lon="12.173553187787293"><ele>577.0</ele><time>2026-04-19T09:11:29Z</time></trkpt><trkpt lat="43.20053204714979" lon="12.173611104337652"><ele>577.0</ele><time>2026-04-19T09:11:30Z</time></trkpt><trkpt lat="43.20046644811518" lon="12.173716601750392"><ele>577.5</ele><time>2026-04-19T09:11:31Z</time></trkpt><trkpt lat="43.200401860033985" lon="12.173844369209345"><ele>578.0</ele><time>2026-04-19T09:11:32Z</time></trkpt><trkpt lat="43.20034354789239" lon="12.173997256371152"><ele>578.5</ele><time>2026-04-19T09:11:33Z</time></trkpt><trkpt lat="43.2002818451025" lon="12.174130524749323"><ele>579.0</ele><time>2026-04-19T09:11:34Z</time></trkpt><trkpt lat="43.20018396758584" lon="12.174239344725553"><ele>576.6</ele><time>2026-04-19T09:11:35Z</time></trkpt><trkpt lat="43.20009240509069" lon="12.17437490421858"><ele>574.2</ele><time>2026-04-19T09:11:36Z</time></trkpt><trkpt lat="43.199999703068265" lon="12.174470912316906"><ele>571.8000000000001</ele><time>2026-04-19T09:11:37Z</time></trkpt><trkpt lat="43.199925995305605" lon="12.174559774371907"><ele>569.4</ele><time>2026-04-19T09:11:38Z</time></trkpt><trkpt lat="43.19985142040106" lon="12.174640467527423"><ele>567.0</ele><time>2026-04-19T09:11:39Z</time></trkpt><trkpt lat="43.19976934095069" lon="12.17473347148251"><ele>564.8000000000001</ele><time>2026-04-19T09:11:40Z</time></trkpt><trkpt lat="43.19967211914465" lon="12.174827470695734"><ele>562.6</ele><time>2026-04-19T09:11:41Z</time></trkpt><trkpt lat="43.19958673321832" lon="12.174927277152651"><ele>560.4000000000001</ele><time>2026-04-19T09:11:42Z</time></trkpt><trkpt lat="43.1995175040413" lon="12.175034562892295"><ele>558.2</ele><time>2026-04-19T09:11:43Z</time></trkpt><trkpt lat="43.19944429470966" lon="12.175118510604937"><ele>556.0</ele><time>2026-04-19T09:11:44Z</time></trkpt><trkpt lat="43.19938282986614" lon="12.175194995487951"><ele>555.4</ele><time>2026-04-19T09:11:45Z</time></trkpt><trkpt lat="43.199315525379596" lon="12.175325142581038"><ele>554.8</ele><time>2026-04-19T09:11:47Z</time></trkpt><trkpt lat="43.199279905487025" lon="12.175399165285917"><ele>554.1999999999999</ele><time>2026-04-19T09:11:48Z</time></trkpt><trkpt lat="43.19925391950762" lon="12.175536485209106"><ele>553.6</ele><time>2026-04-19T09:11:49Z</time></trkpt><trkpt lat="43.19924234089658" lon="12.175706733494819"><ele>553.0</ele><time>2026-04-19T09:11:50Z</time></trkpt><trkpt lat="43.19925650963304" lon="12.17590213074604"><ele>549.6666666666667</ele><time>2026-04-19T09:11:51Z</time></trkpt><trkpt lat="43.199256256613815" lon="12.176127530018482"><ele>546.3333333333334</ele><time>2026-04-19T09:11:52Z</time></trkpt><trkpt lat="43.19924596055254" lon="12.176344410658634"><ele>543.0</ele><time>2026-04-19T09:11:53Z</time></trkpt><trkpt lat="43.199212340646994" lon="12.176574682801212"><ele>541.0</ele><time>2026-04-19T09:11:54Z</time></trkpt><trkpt lat="43.199159214388054" lon="12.176823608277447"><ele>539.0</ele><time>2026-04-19T09:11:55Z</time></trkpt><trkpt lat="43.19907542128939" lon="12.177102928748699"><ele>537.0</ele><time>2026-04-19T09:11:56Z</time></trkpt><trkpt lat="43.198983769689356" lon="12.177382970360906"><ele>532.3333333333334</ele><time>2026-04-19T09:11:57Z</time></trkpt><trkpt lat="43.19890680432117" lon="12.177618912295769"><ele>527.6666666666667</ele><time>2026-04-19T09:11:58Z</time></trkpt><trkpt lat="43.19884526837821" lon="12.177821420105637"><ele>523.0</ele><time>2026-04-19T09:11:59Z</time></trkpt><trkpt lat="43.19879791126001" lon="12.178001098367101"><ele>523.0</ele><time>2026-04-19T09:12:00Z</time></trkpt><trkpt lat="43.19875365028961" lon="12.178159907678063"><ele>523.0</ele><time>2026-04-19T09:12:01Z</time></trkpt><trkpt lat="43.19871318827391" lon="12.178306479956294"><ele>523.0</ele><time>2026-04-19T09:12:02Z</time></trkpt><trkpt lat="43.19866182192846" lon="12.178479779757662"><ele>523.0</ele><time>2026-04-19T09:12:03Z</time></trkpt><trkpt lat="43.198602503537465" lon="12.178672018417284"><ele>522.6666666666667</ele><time>2026-04-19T09:12:04Z</time></trkpt><trkpt lat="43.198535309920295" lon="12.178869737870833"><ele>522.3333333333334</ele><time>2026-04-19T09:12:05Z</time></trkpt><trkpt lat="43.19846537505884" lon="12.17906076877832"><ele>522.0</ele><time>2026-04-19T09:12:06Z</time></trkpt><trkpt lat="43.19839787839497" lon="12.17922600087715"><ele>521.5</ele><time>2026-04-19T09:12:07Z</time></trkpt><trkpt lat="43.1983327027922" lon="12.17937561851277"><ele>521.0</ele><time>2026-04-19T09:12:08Z</time></trkpt><trkpt lat="43.19826421020714" lon="12.179507824382888"><ele>520.5</ele><time>2026-04-19T09:12:09Z</time></trkpt><trkpt lat="43.198192192858166" lon="12.179627494514135"><ele>520.0</ele><time>2026-04-19T09:12:10Z</time></trkpt><trkpt lat="43.198114416542666" lon="12.179727093433126"><ele>518.6</ele><time>2026-04-19T09:12:11Z</time></trkpt><trkpt lat="43.198036607764124" lon="12.179802088303283"><ele>517.2</ele><time>2026-04-19T09:12:12Z</time></trkpt><trkpt lat="43.1979582242312" lon="12.179867250587874"><ele>515.8</ele><time>2026-04-19T09:12:13Z</time></trkpt><trkpt lat="43.19788429270663" lon="12.179944613690457"><ele>514.4</ele><time>2026-04-19T09:12:14Z</time></trkpt><trkpt lat="43.197808886973355" lon="12.180026887907626"><ele>513.0</ele><time>2026-04-19T09:12:15Z</time></trkpt><trkpt lat="43.19773661630206" lon="12.18009302411099"><ele>513.0</ele><time>2026-04-19T09:12:16Z</time></trkpt><trkpt lat="43.19766984662406" lon="12.180158728331076"><ele>513.0</ele><time>2026-04-19T09:12:17Z</time></trkpt><trkpt lat="43.19761775074498" lon="12.180230300901695"><ele>513.0</ele><time>2026-04-19T09:12:18Z</time></trkpt><trkpt lat="43.19758293532131" lon="12.180329247929679"><ele>513.0</ele><time>2026-04-19T09:12:19Z</time></trkpt><trkpt lat="43.197566137320024" lon="12.180447774891059"><ele>513.0</ele><time>2026-04-19T09:12:20Z</time></trkpt><trkpt lat="43.197577971496464" lon="12.18058199489109"><ele>513.0</ele><time>2026-04-19T09:12:21Z</time></trkpt><trkpt lat="43.197630970771975" lon="12.180705820109738"><ele>512.25</ele><time>2026-04-19T09:12:22Z</time></trkpt><trkpt lat="43.197687051095166" lon="12.180858422656414"><ele>511.5</ele><time>2026-04-19T09:12:23Z</time></trkpt><trkpt lat="43.197738798947086" lon="12.18101369460465"><ele>510.75</ele><time>2026-04-19T09:12:24Z</time></trkpt><trkpt lat="43.19779461927434" lon="12.181133269887507"><ele>510.0</ele><time>2026-04-19T09:12:25Z</time></trkpt><trkpt lat="43.19784534228549" lon="12.181254514361383"><ele>510.0</ele><time>2026-04-19T09:12:26Z</time></trkpt><trkpt lat="43.19789126730237" lon="12.18140552227273"><ele>510.0</ele><time>2026-04-19T09:12:27Z</time></trkpt><trkpt lat="43.197894060808785" lon="12.18156947840212"><ele>510.0</ele><time>2026-04-19T09:12:28Z</time></trkpt><trkpt lat="43.1978769368641" lon="12.18174992176152"><ele>510.0</ele><time>2026-04-19T09:12:29Z</time></trkpt><trkpt lat="43.19783811277473" lon="12.181939398145598"><ele>509.0</ele><time>2026-04-19T09:12:30Z</time></trkpt><trkpt lat="43.19777742810087" lon="12.182134706665028"><ele>508.0</ele><time>2026-04-19T09:12:31Z</time></trkpt><trkpt lat="43.19771061788424" lon="12.182338781585939"><ele>507.0</ele><time>2026-04-19T09:12:32Z</time></trkpt><trkpt lat="43.197636142310245" lon="12.182548806092388"><ele>507.0</ele><time>2026-04-19T09:12:33Z</time></trkpt><trkpt lat="43.197557147432285" lon="12.182748549187874"><ele>507.0</ele><time>2026-04-19T09:12:34Z</time></trkpt><trkpt lat="43.19747740382702" lon="12.182940954034445"><ele>507.0</ele><time>2026-04-19T09:12:35Z</time></trkpt><trkpt lat="43.19739905345665" lon="12.183106553511477"><ele>508.40000000000003</ele><time>2026-04-19T09:12:36Z</time></trkpt><trkpt lat="43.19732255747919" lon="12.183242831823332"><ele>509.80000000000007</ele><time>2026-04-19T09:12:37Z</time></trkpt><trkpt lat="43.19724781309099" lon="12.183337851927368"><ele>511.2</ele><time>2026-04-19T09:12:38Z</time></trkpt><trkpt lat="43.19717500878547" lon="12.183405626191265"><ele>512.6</ele><time>2026-04-19T09:12:39Z</time></trkpt><trkpt lat="43.19709140759679" lon="12.183429728885322"><ele>514.0</ele><time>2026-04-19T09:12:40Z</time></trkpt><trkpt lat="43.19700178742768" lon="12.183382584479293"><ele>514.0</ele><time>2026-04-19T09:12:41Z</time></trkpt><trkpt lat="43.196893276233006" lon="12.183360859427761"><ele>514.0</ele><time>2026-04-19T09:12:42Z</time></trkpt><trkpt lat="43.1967923716245" lon="12.183366385513883"><ele>514.0</ele><time>2026-04-19T09:12:43Z</time></trkpt><trkpt lat="43.196711246344755" lon="12.183362900326305"><ele>514.0</ele><time>2026-04-19T09:12:44Z</time></trkpt><trkpt lat="43.196636306589646" lon="12.183357926021054"><ele>514.0</ele><time>2026-04-19T09:12:45Z</time></trkpt><trkpt lat="43.196559504048636" lon="12.183410898202716"><ele>514.75</ele><time>2026-04-19T09:12:46Z</time></trkpt><trkpt lat="43.19648884653625" lon="12.183519669243129"><ele>515.5</ele><time>2026-04-19T09:12:47Z</time></trkpt><trkpt lat="43.19640424598931" lon="12.183635807277422"><ele>516.25</ele><time>2026-04-19T09:12:48Z</time></trkpt><trkpt lat="43.196300611453445" lon="12.183767416829003"><ele>517.0</ele><time>2026-04-19T09:12:49Z</time></trkpt><trkpt lat="43.19617908910514" lon="12.183887954802836"><ele>517.0</ele><time>2026-04-19T09:12:50Z</time></trkpt><trkpt lat="43.19608203167228" lon="12.183986904502103"><ele>517.0</ele><time>2026-04-19T09:12:51Z</time></trkpt><trkpt lat="43.19603308741748" lon="12.184101805648215"><ele>517.0</ele><time>2026-04-19T09:12:52Z</time></trkpt><trkpt lat="43.19599128411433" lon="12.184194687926592"><ele>517.0</ele><time>2026-04-19T09:12:53Z</time></trkpt><trkpt lat="43.195967702356505" lon="12.184305518026184"><ele>517.0</ele><time>2026-04-19T09:12:54Z</time></trkpt><trkpt lat="43.19596864851016" lon="12.184431638755559"><ele>518.5</ele><time>2026-04-19T09:12:55Z</time></trkpt><trkpt lat="43.19598487952169" lon="12.184599049391034"><ele>520.0</ele><time>2026-04-19T09:12:56Z</time></trkpt><trkpt lat="43.196006326894455" lon="12.184795040139909"><ele>521.5</ele><time>2026-04-19T09:12:57Z</time></trkpt><trkpt lat="43.19601433140374" lon="12.185007336408276"><ele>523.0</ele><time>2026-04-19T09:12:58Z</time></trkpt><trkpt lat="43.19604258650176" lon="12.185235879196496"><ele>524.3333333333334</ele><time>2026-04-19T09:12:59Z</time></trkpt><trkpt lat="43.196102305772136" lon="12.18548586945449"><ele>525.6666666666666</ele><time>2026-04-19T09:13:00Z</time></trkpt><trkpt lat="43.19615626044729" lon="12.185752767651381"><ele>527.0</ele><time>2026-04-19T09:13:01Z</time></trkpt><trkpt lat="43.196205865633246" lon="12.185987896939787"><ele>528.75</ele><time>2026-04-19T09:13:02Z</time></trkpt><trkpt lat="43.19623540544821" lon="12.186175809487363"><ele>530.5</ele><time>2026-04-19T09:13:03Z</time></trkpt><trkpt lat="43.1962540458134" lon="12.186328753954388"><ele>532.25</ele><time>2026-04-19T09:13:04Z</time></trkpt><trkpt lat="43.19626773572846" lon="12.186463952908605"><ele>534.0</ele><time>2026-04-19T09:13:05Z</time></trkpt><trkpt lat="43.19627851783609" lon="12.18661345918052"><ele>535.8</ele><time>2026-04-19T09:13:06Z</time></trkpt><trkpt lat="43.19626880739934" lon="12.186747045346538"><ele>537.5999999999999</ele><time>2026-04-19T09:13:07Z</time></trkpt><trkpt lat="43.196239025472565" lon="12.186871156617775"><ele>539.4</ele><time>2026-04-19T09:13:08Z</time></trkpt><trkpt lat="43.19617677178883" lon="12.186978994801503"><ele>541.1999999999999</ele><time>2026-04-19T09:13:09Z</time></trkpt><trkpt lat="43.196124391891495" lon="12.18710670162336"><ele>543.0</ele><time>2026-04-19T09:13:10Z</time></trkpt><trkpt lat="43.19603472275273" lon="12.187241805663488"><ele>545.6666666666666</ele><time>2026-04-19T09:13:11Z</time></trkpt><trkpt lat="43.195940164870976" lon="12.187393284715128"><ele>548.3333333333333</ele><time>2026-04-19T09:13:12Z</time></trkpt><trkpt lat="43.195846892720255" lon="12.187556077104533"><ele>551.0</ele><time>2026-04-19T09:13:13Z</time></trkpt><trkpt lat="43.19575202759121" lon="12.187731543556637"><ele>550.5</ele><time>2026-04-19T09:13:14Z</time></trkpt><trkpt lat="43.195656347949296" lon="12.187870234851996"><ele>550.0</ele><time>2026-04-19T09:13:15Z</time></trkpt><trkpt lat="43.195571601297374" lon="12.187973175939687"><ele>549.5</ele><time>2026-04-19T09:13:16Z</time></trkpt><trkpt lat="43.195503747858304" lon="12.18808424254548"><ele>549.0</ele><time>2026-04-19T09:13:17Z</time></trkpt><trkpt lat="43.19545064367215" lon="12.188203605482464"><ele>550.0</ele><time>2026-04-19T09:13:18Z</time></trkpt><trkpt lat="43.19539709079203" lon="12.18833150783317"><ele>551.0</ele><time>2026-04-19T09:13:19Z</time></trkpt><trkpt lat="43.19535490489618" lon="12.188465543699635"><ele>552.0</ele><time>2026-04-19T09:13:20Z</time></trkpt><trkpt lat="43.195320497984554" lon="12.188582111612838"><ele>553.0</ele><time>2026-04-19T09:13:21Z</time></trkpt><trkpt lat="43.19529294663664" lon="12.188695140209745"><ele>554.0</ele><time>2026-04-19T09:13:22Z</time></trkpt><trkpt lat="43.195240382127636" lon="12.18881522470912"><ele>554.0</ele><time>2026-04-19T09:13:23Z</time></trkpt><trkpt lat="43.195162067641895" lon="12.188938037098191"><ele>554.0</ele><time>2026-04-19T09:13:24Z</time></trkpt><trkpt lat="43.19506142701792" lon="12.18906963429096"><ele>554.0</ele><time>2026-04-19T09:13:25Z</time></trkpt><trkpt lat="43.19493382025634" lon="12.189195043670013"><ele>554.0</ele><time>2026-04-19T09:13:26Z</time></trkpt><trkpt lat="43.19482534698889" lon="12.189315459547528"><ele>553.25</ele><time>2026-04-19T09:13:27Z</time></trkpt><trkpt lat="43.1947427143355" lon="12.189437792118584"><ele>552.5</ele><time>2026-04-19T09:13:28Z</time></trkpt><trkpt lat="43.194660997982744" lon="12.18954329057026"><ele>551.75</ele><time>2026-04-19T09:13:29Z</time></trkpt><trkpt lat="43.194586601989016" lon="12.189662823368874"><ele>551.0</ele><time>2026-04-19T09:13:30Z</time></trkpt><trkpt lat="43.19452673340547" lon="12.189801510451671"><ele>550.5</ele><time>2026-04-19T09:13:31Z</time></trkpt><trkpt lat="43.194478686434294" lon="12.189982774066168"><ele>550.0</ele><time>2026-04-19T09:13:32Z</time></trkpt><trkpt lat="43.19443127977607" lon="12.190186641717382"><ele>549.5</ele><time>2026-04-19T09:13:33Z</time></trkpt><trkpt lat="43.19437172495118" lon="12.190352164048194"><ele>549.0</ele><time>2026-04-19T09:13:34Z</time></trkpt><trkpt lat="43.194332502196666" lon="12.190509194265893"><ele>549.0</ele><time>2026-04-19T09:13:35Z</time></trkpt><trkpt lat="43.194273065314604" lon="12.190638320787675"><ele>549.0</ele><time>2026-04-19T09:13:36Z</time></trkpt><trkpt lat="43.194189612308726" lon="12.190718715347273"><ele>549.0</ele><time>2026-04-19T09:13:37Z</time></trkpt><trkpt lat="43.19410450852366" lon="12.190796989588227"><ele>549.0</ele><time>2026-04-19T09:13:38Z</time></trkpt><trkpt lat="43.19400425997016" lon="12.190862514662726"><ele>549.0</ele><time>2026-04-19T09:13:39Z</time></trkpt><trkpt lat="43.19389083478147" lon="12.190946418925641"><ele>548.6666666666666</ele><time>2026-04-19T09:13:40Z</time></trkpt><trkpt lat="43.19375322717561" lon="12.19100231025503"><ele>548.3333333333333</ele><time>2026-04-19T09:13:41Z</time></trkpt><trkpt lat="43.193599225370775" lon="12.191044417515048"><ele>548.0</ele><time>2026-04-19T09:13:42Z</time></trkpt><trkpt lat="43.19344581563603" lon="12.191106892413746"><ele>548.0</ele><time>2026-04-19T09:13:43Z</time></trkpt><trkpt lat="43.19329506669358" lon="12.191169949606858"><ele>548.0</ele><time>2026-04-19T09:13:44Z</time></trkpt><trkpt lat="43.19314971740326" lon="12.191230746209998"><ele>548.0</ele><time>2026-04-19T09:13:45Z</time></trkpt><trkpt lat="43.19302291712511" lon="12.191282752757287"><ele>548.0</ele><time>2026-04-19T09:13:46Z</time></trkpt><trkpt lat="43.192920384572325" lon="12.191322216283064"><ele>548.0</ele><time>2026-04-19T09:13:47Z</time></trkpt><trkpt lat="43.19283971293289" lon="12.191354238935148"><ele>548.0</ele><time>2026-04-19T09:13:48Z</time></trkpt><trkpt lat="43.19278320421061" lon="12.191402677722433"><ele>548.0</ele><time>2026-04-19T09:13:49Z</time></trkpt><trkpt lat="43.192716424015366" lon="12.191427469716336"><ele>548.0</ele><time>2026-04-19T09:13:50Z</time></trkpt><trkpt lat="43.19265285771799" lon="12.191464439135101"><ele>548.0</ele><time>2026-04-19T09:13:51Z</time></trkpt><trkpt lat="43.19257759750327" lon="12.19150751337379"><ele>548.0</ele><time>2026-04-19T09:13:52Z</time></trkpt><trkpt lat="43.192488149750965" lon="12.191593981752888"><ele>547.75</ele><time>2026-04-19T09:13:53Z</time></trkpt><trkpt lat="43.19239347750444" lon="12.191701824080857"><ele>547.5</ele><time>2026-04-19T09:13:54Z</time></trkpt><trkpt lat="43.19231109829299" lon="12.191798229351933"><ele>547.25</ele><time>2026-04-19T09:13:55Z</time></trkpt><trkpt lat="43.19222846675245" lon="12.19189565889716"><ele>547.0</ele><time>2026-04-19T09:13:56Z</time></trkpt><trkpt lat="43.1921434355659" lon="12.192008199741245"><ele>547.0</ele><time>2026-04-19T09:13:57Z</time></trkpt><trkpt lat="43.19205488570809" lon="12.192114608885351"><ele>547.0</ele><time>2026-04-19T09:13:58Z</time></trkpt><trkpt lat="43.19197198401131" lon="12.192211316923078"><ele>547.0</ele><time>2026-04-19T09:13:59Z</time></trkpt><trkpt lat="43.19190042037047" lon="12.192307665806817"><ele>547.0</ele><time>2026-04-19T09:14:00Z</time></trkpt><trkpt lat="43.19184283319864" lon="12.192413681065968"><ele>547.0</ele><time>2026-04-19T09:14:01Z</time></trkpt><trkpt lat="43.19178968593234" lon="12.192547892971247"><ele>547.2</ele><time>2026-04-19T09:14:02Z</time></trkpt><trkpt lat="43.191756373003855" lon="12.19269898424444"><ele>547.4000000000001</ele><time>2026-04-19T09:14:03Z</time></trkpt><trkpt lat="43.1917439471505" lon="12.192832534183808"><ele>547.5999999999999</ele><time>2026-04-19T09:14:04Z</time></trkpt><trkpt lat="43.19174375216533" lon="12.192957741905227"><ele>547.8</ele><time>2026-04-19T09:14:05Z</time></trkpt><trkpt lat="43.19177174105259" lon="12.19308354339634"><ele>548.0</ele><time>2026-04-19T09:14:06Z</time></trkpt><trkpt lat="43.19182927730766" lon="12.193223557367949"><ele>548.0</ele><time>2026-04-19T09:14:07Z</time></trkpt><trkpt lat="43.19190566420556" lon="12.19336096137505"><ele>548.0</ele><time>2026-04-19T09:14:08Z</time></trkpt><trkpt lat="43.19198831088274" lon="12.193507139585588"><ele>548.0</ele><time>2026-04-19T09:14:09Z</time></trkpt><trkpt lat="43.192079637116656" lon="12.193655545848296"><ele>548.0</ele><time>2026-04-19T09:14:10Z</time></trkpt><trkpt lat="43.19218984125452" lon="12.193806899092811"><ele>548.0</ele><time>2026-04-19T09:14:11Z</time></trkpt><trkpt lat="43.19229795042838" lon="12.193944798581834"><ele>548.0</ele><time>2026-04-19T09:14:12Z</time></trkpt><trkpt lat="43.192376742117" lon="12.194098494247266"><ele>548.0</ele><time>2026-04-19T09:14:13Z</time></trkpt><trkpt lat="43.19244282163757" lon="12.194279127899202"><ele>548.0</ele><time>2026-04-19T09:14:14Z</time></trkpt><trkpt lat="43.192509183691044" lon="12.194466228746501"><ele>549.1999999999999</ele><time>2026-04-19T09:14:15Z</time></trkpt><trkpt lat="43.19253172117962" lon="12.194612189025964"><ele>550.4</ele><time>2026-04-19T09:14:16Z</time></trkpt><trkpt lat="43.192574926916045" lon="12.194699887565468"><ele>551.5999999999999</ele><time>2026-04-19T09:14:17Z</time></trkpt><trkpt lat="43.19263124290776" lon="12.194841276917467"><ele>552.8</ele><time>2026-04-19T09:14:18Z</time></trkpt><trkpt lat="43.192721505916666" lon="12.194951609352861"><ele>554.0</ele><time>2026-04-19T09:14:19Z</time></trkpt><trkpt lat="43.19282461413106" lon="12.195067530075587"><ele>556.25</ele><time>2026-04-19T09:14:20Z</time></trkpt><trkpt lat="43.19293120821214" lon="12.19518540277438"><ele>558.5</ele><time>2026-04-19T09:14:21Z</time></trkpt><trkpt lat="43.193028358817905" lon="12.19533981959801"><ele>560.75</ele><time>2026-04-19T09:14:22Z</time></trkpt><trkpt lat="43.193094209520986" lon="12.195512903352949"><ele>563.0</ele><time>2026-04-19T09:14:23Z</time></trkpt><trkpt lat="43.1931430182259" lon="12.195715402804064"><ele>561.25</ele><time>2026-04-19T09:14:24Z</time></trkpt><trkpt lat="43.193199848830965" lon="12.195917256085256"><ele>559.5</ele><time>2026-04-19T09:14:25Z</time></trkpt><trkpt lat="43.193288074241785" lon="12.196072590866331"><ele>557.75</ele><time>2026-04-19T09:14:26Z</time></trkpt><trkpt lat="43.19336464731587" lon="12.19622834832794"><ele>556.0</ele><time>2026-04-19T09:14:27Z</time></trkpt><trkpt lat="43.193481982059794" lon="12.196340201390026"><ele>556.0</ele><time>2026-04-19T09:14:28Z</time></trkpt><trkpt lat="43.1935575662694" lon="12.196463849657023"><ele>556.0</ele><time>2026-04-19T09:14:29Z</time></trkpt><trkpt lat="43.19361052508371" lon="12.196575167448648"><ele>556.0</ele><time>2026-04-19T09:14:30Z</time></trkpt><trkpt lat="43.19365162269376" lon="12.196692169403587"><ele>556.0</ele><time>2026-04-19T09:14:31Z</time></trkpt><trkpt lat="43.1936891456161" lon="12.19682928091368"><ele>556.0</ele><time>2026-04-19T09:14:32Z</time></trkpt><trkpt lat="43.19371421861427" lon="12.196961260846368"><ele>556.6</ele><time>2026-04-19T09:14:33Z</time></trkpt><trkpt lat="43.19372217785408" lon="12.197098611972322"><ele>557.2</ele><time>2026-04-19T09:14:34Z</time></trkpt><trkpt lat="43.19371467544722" lon="12.197231279460814"><ele>557.8</ele><time>2026-04-19T09:14:35Z</time></trkpt><trkpt lat="43.193690470481926" lon="12.197356391592297"><ele>558.4</ele><time>2026-04-19T09:14:36Z</time></trkpt><trkpt lat="43.193645891906115" lon="12.197480337060345"><ele>559.0</ele><time>2026-04-19T09:14:37Z</time></trkpt><trkpt lat="43.193578721573644" lon="12.197576287652973"><ele>557.4</ele><time>2026-04-19T09:14:38Z</time></trkpt><trkpt lat="43.19352525200132" lon="12.197662583085966"><ele>555.8</ele><time>2026-04-19T09:14:39Z</time></trkpt><trkpt lat="43.19350512584983" lon="12.197778196833289"><ele>554.2</ele><time>2026-04-19T09:14:40Z</time></trkpt><trkpt lat="43.193507724401336" lon="12.197913170203067"><ele>552.6</ele><time>2026-04-19T09:14:41Z</time></trkpt><trkpt lat="43.193537598358965" lon="12.19804296425699"><ele>551.0</ele><time>2026-04-19T09:14:42Z</time></trkpt><trkpt lat="43.193595346258626" lon="12.198190871561952"><ele>548.25</ele><time>2026-04-19T09:14:43Z</time></trkpt><trkpt lat="43.19366853302621" lon="12.198350564981004"><ele>545.5</ele><time>2026-04-19T09:14:44Z</time></trkpt><trkpt lat="43.193734139313456" lon="12.19853080598616"><ele>542.75</ele><time>2026-04-19T09:14:45Z</time></trkpt><trkpt lat="43.193779786644455" lon="12.19871573977414"><ele>540.0</ele><time>2026-04-19T09:14:46Z</time></trkpt><trkpt lat="43.19382008974486" lon="12.198883449116279"><ele>540.5</ele><time>2026-04-19T09:14:47Z</time></trkpt><trkpt lat="43.19386398103021" lon="12.199040946448422"><ele>541.0</ele><time>2026-04-19T09:14:48Z</time></trkpt><trkpt lat="43.19392128908644" lon="12.199191800016822"><ele>541.5</ele><time>2026-04-19T09:14:49Z</time></trkpt><trkpt lat="43.193995200218126" lon="12.199334623935199"><ele>542.0</ele><time>2026-04-19T09:14:50Z</time></trkpt><trkpt lat="43.19406643369888" lon="12.199457938082507"><ele>542.0</ele><time>2026-04-19T09:14:51Z</time></trkpt><trkpt lat="43.19412943517087" lon="12.199570359142658"><ele>542.0</ele><time>2026-04-19T09:14:52Z</time></trkpt><trkpt lat="43.19418220198058" lon="12.19967670238599"><ele>542.0</ele><time>2026-04-19T09:14:53Z</time></trkpt><trkpt lat="43.194222387007024" lon="12.199784454827865"><ele>542.0</ele><time>2026-04-19T09:14:54Z</time></trkpt><trkpt lat="43.19426651054201" lon="12.199874053869172"><ele>542.0</ele><time>2026-04-19T09:14:55Z</time></trkpt><trkpt lat="43.194318731274194" lon="12.199952753694424"><ele>542.0</ele><time>2026-04-19T09:14:56Z</time></trkpt><trkpt lat="43.1943484101004" lon="12.200057896395014"><ele>540.0</ele><time>2026-04-19T09:14:57Z</time></trkpt><trkpt lat="43.194366787381476" lon="12.200158831936749"><ele>538.0</ele><time>2026-04-19T09:14:58Z</time></trkpt><trkpt lat="43.19437006792751" lon="12.20025882753514"><ele>536.0</ele><time>2026-04-19T09:14:59Z</time></trkpt><trkpt lat="43.1943572674886" lon="12.200383725606352"><ele>534.0</ele><time>2026-04-19T09:15:00Z</time></trkpt><trkpt lat="43.194284253891844" lon="12.200526796683187"><ele>532.0</ele><time>2026-04-19T09:15:01Z</time></trkpt><trkpt lat="43.19421403964323" lon="12.200673189917584"><ele>529.25</ele><time>2026-04-19T09:15:02Z</time></trkpt><trkpt lat="43.194135480243375" lon="12.200833184220908"><ele>526.5</ele><time>2026-04-19T09:15:03Z</time></trkpt><trkpt lat="43.19407439992836" lon="12.200998978733011"><ele>523.75</ele><time>2026-04-19T09:15:04Z</time></trkpt><trkpt lat="43.194025014766765" lon="12.201172794928345"><ele>521.0</ele><time>2026-04-19T09:15:05Z</time></trkpt><trkpt lat="43.193990761408045" lon="12.201356501174235"><ele>518.0</ele><time>2026-04-19T09:15:06Z</time></trkpt><trkpt lat="43.19394839661924" lon="12.20151241041549"><ele>515.0</ele><time>2026-04-19T09:15:07Z</time></trkpt><trkpt lat="43.193911570466135" lon="12.201654494301895"><ele>512.0</ele><time>2026-04-19T09:15:08Z</time></trkpt><trkpt lat="43.19387875856194" lon="12.201790615211635"><ele>509.0</ele><time>2026-04-19T09:15:09Z</time></trkpt><trkpt lat="43.19383371380527" lon="12.201917365185292"><ele>506.0</ele><time>2026-04-19T09:15:10Z</time></trkpt><trkpt lat="43.193817637314005" lon="12.202060914681512"><ele>506.0</ele><time>2026-04-19T09:15:11Z</time></trkpt><trkpt lat="43.19378966058055" lon="12.202189345680004"><ele>506.0</ele><time>2026-04-19T09:15:12Z</time></trkpt><trkpt lat="43.19376764921394" lon="12.202316207783692"><ele>506.0</ele><time>2026-04-19T09:15:13Z</time></trkpt><trkpt lat="43.19374565433014" lon="12.20243721002983"><ele>506.0</ele><time>2026-04-19T09:15:14Z</time></trkpt><trkpt lat="43.19372511040317" lon="12.202537748132164"><ele>506.0</ele><time>2026-04-19T09:15:15Z</time></trkpt><trkpt lat="43.19368523597546" lon="12.202664455158532"><ele>506.16666666666663</ele><time>2026-04-19T09:15:16Z</time></trkpt><trkpt lat="43.19363843132365" lon="12.202787932795536"><ele>506.3333333333333</ele><time>2026-04-19T09:15:17Z</time></trkpt><trkpt lat="43.19360201399646" lon="12.202911217254073"><ele>506.5</ele><time>2026-04-19T09:15:18Z</time></trkpt><trkpt lat="43.193574210098085" lon="12.20303586183564"><ele>506.66666666666663</ele><time>2026-04-19T09:15:19Z</time></trkpt><trkpt lat="43.193600617272246" lon="12.203135960612569"><ele>506.8333333333333</ele><time>2026-04-19T09:15:20Z</time></trkpt><trkpt lat="43.19358338428247" lon="12.203232556791564"><ele>507.0</ele><time>2026-04-19T09:15:27Z</time></trkpt><trkpt lat="43.19339573773468" lon="12.203240358230941"><ele>507.0</ele><time>2026-04-19T09:15:30Z</time></trkpt><trkpt lat="43.19330557001798" lon="12.203210860731557"><ele>507.0</ele><time>2026-04-19T09:15:31Z</time></trkpt><trkpt lat="43.19322244057415" lon="12.203183702845532"><ele>507.0</ele><time>2026-04-19T09:15:32Z</time></trkpt><trkpt lat="43.19314828244227" lon="12.2031609593391"><ele>507.0</ele><time>2026-04-19T09:15:33Z</time></trkpt><trkpt lat="43.19308110255363" lon="12.203146263394135"><ele>507.0</ele><time>2026-04-19T09:15:34Z</time></trkpt><trkpt lat="43.19300976537153" lon="12.203144201421853"><ele>507.0</ele><time>2026-04-19T09:15:35Z</time></trkpt><trkpt lat="43.19295755665884" lon="12.202965860548911"><ele>503.0</ele><time>2026-04-19T09:15:36Z</time></trkpt><trkpt lat="43.192915795689636" lon="12.202846408332304"><ele>499.0</ele><time>2026-04-19T09:15:37Z</time></trkpt><trkpt lat="43.19288608870991" lon="12.202684541342634"><ele>495.0</ele><time>2026-04-19T09:15:38Z</time></trkpt><trkpt lat="43.19284224680042" lon="12.202493577713124"><ele>491.0</ele><time>2026-04-19T09:15:39Z</time></trkpt><trkpt lat="43.192788892559555" lon="12.202248467023841"><ele>490.66666666666663</ele><time>2026-04-19T09:15:40Z</time></trkpt><trkpt lat="43.19273106794583" lon="12.201965733355303"><ele>490.33333333333337</ele><time>2026-04-19T09:15:41Z</time></trkpt><trkpt lat="43.192676563465" lon="12.201700213056192"><ele>490.0</ele><time>2026-04-19T09:15:42Z</time></trkpt><trkpt lat="43.19262288538756" lon="12.20142613441345"><ele>490.0</ele><time>2026-04-19T09:15:43Z</time></trkpt><trkpt lat="43.19252865125156" lon="12.201150515070731"><ele>490.0</ele><time>2026-04-19T09:15:44Z</time></trkpt><trkpt lat="43.192410773382576" lon="12.200873740116394"><ele>487.5</ele><time>2026-04-19T09:15:45Z</time></trkpt><trkpt lat="43.19227135223237" lon="12.200602372338691"><ele>485.0</ele><time>2026-04-19T09:15:46Z</time></trkpt><trkpt lat="43.19211918940357" lon="12.200349724208143"><ele>485.0</ele><time>2026-04-19T09:15:47Z</time></trkpt><trkpt lat="43.19195447330182" lon="12.20012164738405"><ele>485.0</ele><time>2026-04-19T09:15:48Z</time></trkpt><trkpt lat="43.191776212548774" lon="12.199916653474803"><ele>486.5</ele><time>2026-04-19T09:15:49Z</time></trkpt><trkpt lat="43.19158517596832" lon="12.199732301667746"><ele>488.0</ele><time>2026-04-19T09:15:50Z</time></trkpt><trkpt lat="43.19137651288968" lon="12.199586778759784"><ele>488.0</ele><time>2026-04-19T09:15:51Z</time></trkpt><trkpt lat="43.19116151616337" lon="12.199473066119316"><ele>488.0</ele><time>2026-04-19T09:15:52Z</time></trkpt><trkpt lat="43.190933851496304" lon="12.199406774655033"><ele>488.0</ele><time>2026-04-19T09:15:53Z</time></trkpt><trkpt lat="43.1907199699501" lon="12.199360341443882"><ele>488.0</ele><time>2026-04-19T09:15:54Z</time></trkpt><trkpt lat="43.19053596304" lon="12.19929802912858"><ele>488.0</ele><time>2026-04-19T09:15:55Z</time></trkpt><trkpt lat="43.190362112649204" lon="12.19921888356911"><ele>490.0</ele><time>2026-04-19T09:15:56Z</time></trkpt><trkpt lat="43.19019818330819" lon="12.199141258540049"><ele>492.0</ele><time>2026-04-19T09:15:57Z</time></trkpt><trkpt lat="43.19003969512892" lon="12.199058800968157"><ele>494.0</ele><time>2026-04-19T09:15:58Z</time></trkpt><trkpt lat="43.18987706549634" lon="12.19894814784919"><ele>489.3333333333333</ele><time>2026-04-19T09:15:59Z</time></trkpt><trkpt lat="43.18973794228294" lon="12.198783548262194"><ele>484.66666666666663</ele><time>2026-04-19T09:16:00Z</time></trkpt><trkpt lat="43.189591606661565" lon="12.198619218907853"><ele>480.0</ele><time>2026-04-19T09:16:01Z</time></trkpt><trkpt lat="43.18943436000295" lon="12.198480674750792"><ele>480.0</ele><time>2026-04-19T09:16:02Z</time></trkpt><trkpt lat="43.18927065239581" lon="12.198358744741313"><ele>480.0</ele><time>2026-04-19T09:16:03Z</time></trkpt><trkpt lat="43.18908743193299" lon="12.198261933286101"><ele>480.0</ele><time>2026-04-19T09:16:04Z</time></trkpt><trkpt lat="43.188906728118546" lon="12.198173042561084"><ele>479.66666666666663</ele><time>2026-04-19T09:16:05Z</time></trkpt><trkpt lat="43.18872650774331" lon="12.198063058212183"><ele>479.3333333333333</ele><time>2026-04-19T09:16:06Z</time></trkpt><trkpt lat="43.18854846549481" lon="12.197946384723036"><ele>479.0</ele><time>2026-04-19T09:16:07Z</time></trkpt><trkpt lat="43.18836498577767" lon="12.197836045247131"><ele>479.0</ele><time>2026-04-19T09:16:08Z</time></trkpt><trkpt lat="43.188193457732076" lon="12.197728689868635"><ele>479.0</ele><time>2026-04-19T09:16:09Z</time></trkpt><trkpt lat="43.18802039249133" lon="12.197624078486324"><ele>479.0</ele><time>2026-04-19T09:16:10Z</time></trkpt><trkpt lat="43.187862511865994" lon="12.197527351128077"><ele>475.0</ele><time>2026-04-19T09:16:11Z</time></trkpt><trkpt lat="43.187717916203674" lon="12.19742553714191"><ele>471.0</ele><time>2026-04-19T09:16:12Z</time></trkpt><trkpt lat="43.18758397281901" lon="12.197338301212886"><ele>467.0</ele><time>2026-04-19T09:16:13Z</time></trkpt><trkpt lat="43.1874554445865" lon="12.197256690278607"><ele>467.0</ele><time>2026-04-19T09:16:14Z</time></trkpt><trkpt lat="43.18736922304533" lon="12.19709696593809"><ele>467.0</ele><time>2026-04-19T09:16:15Z</time></trkpt><trkpt lat="43.187308851141324" lon="12.196937222809602"><ele>467.0</ele><time>2026-04-19T09:16:16Z</time></trkpt><trkpt lat="43.18727602787065" lon="12.196764712281599"><ele>467.0</ele><time>2026-04-19T09:16:17Z</time></trkpt><trkpt lat="43.187343400934445" lon="12.196597874666415"><ele>464.0</ele><time>2026-04-19T09:16:18Z</time></trkpt><trkpt lat="43.1874176542546" lon="12.196394599518454"><ele>461.0</ele><time>2026-04-19T09:16:19Z</time></trkpt><trkpt lat="43.187494802616726" lon="12.19616181094589"><ele>458.0</ele><time>2026-04-19T09:16:20Z</time></trkpt><trkpt lat="43.187580440495665" lon="12.19596223154298"><ele>458.0</ele><time>2026-04-19T09:16:21Z</time></trkpt><trkpt lat="43.18765277413504" lon="12.195768666185058"><ele>458.0</ele><time>2026-04-19T09:16:22Z</time></trkpt><trkpt lat="43.18771314201382" lon="12.195582385436646"><ele>458.0</ele><time>2026-04-19T09:16:23Z</time></trkpt><trkpt lat="43.18775937485723" lon="12.195381372835207"><ele>457.0</ele><time>2026-04-19T09:16:24Z</time></trkpt><trkpt lat="43.18776978295436" lon="12.195154013718573"><ele>456.0</ele><time>2026-04-19T09:16:25Z</time></trkpt><trkpt lat="43.18773545917431" lon="12.194912413667046"><ele>455.0</ele><time>2026-04-19T09:16:26Z</time></trkpt><trkpt lat="43.187670195915864" lon="12.194674437967945"><ele>455.0</ele><time>2026-04-19T09:16:27Z</time></trkpt><trkpt lat="43.18760370286013" lon="12.19445625831823"><ele>455.0</ele><time>2026-04-19T09:16:28Z</time></trkpt><trkpt lat="43.187527320301506" lon="12.194264066907786"><ele>455.0</ele><time>2026-04-19T09:16:29Z</time></trkpt><trkpt lat="43.18744321669091" lon="12.194086924986504"><ele>455.0</ele><time>2026-04-19T09:16:30Z</time></trkpt><trkpt lat="43.18733375748655" lon="12.1939550179938"><ele>455.0</ele><time>2026-04-19T09:16:31Z</time></trkpt><trkpt lat="43.18718765423037" lon="12.193899323710554"><ele>455.0</ele><time>2026-04-19T09:16:32Z</time></trkpt><trkpt lat="43.18702742018405" lon="12.19391081780287"><ele>455.0</ele><time>2026-04-19T09:16:33Z</time></trkpt><trkpt lat="43.186862423469925" lon="12.193973221961473"><ele>455.0</ele><time>2026-04-19T09:16:34Z</time></trkpt><trkpt lat="43.186697518835395" lon="12.194037807616741"><ele>455.0</ele><time>2026-04-19T09:16:35Z</time></trkpt><trkpt lat="43.186526699024235" lon="12.19399677470535"><ele>450.66666666666663</ele><time>2026-04-19T09:16:36Z</time></trkpt><trkpt lat="43.18634880527512" lon="12.193941709785511"><ele>446.33333333333337</ele><time>2026-04-19T09:16:37Z</time></trkpt><trkpt lat="43.186160499314546" lon="12.193868353621266"><ele>442.0</ele><time>2026-04-19T09:16:38Z</time></trkpt><trkpt lat="43.185958863457" lon="12.193781745770927"><ele>442.0</ele><time>2026-04-19T09:16:39Z</time></trkpt><trkpt lat="43.185754545932014" lon="12.193688971021526"><ele>442.0</ele><time>2026-04-19T09:16:40Z</time></trkpt><trkpt lat="43.18556455820481" lon="12.193630547372342"><ele>442.0</ele><time>2026-04-19T09:16:41Z</time></trkpt><trkpt lat="43.18539763069412" lon="12.193549171761656"><ele>437.5</ele><time>2026-04-19T09:16:42Z</time></trkpt><trkpt lat="43.18524648870252" lon="12.19348961542645"><ele>433.0</ele><time>2026-04-19T09:16:43Z</time></trkpt><trkpt lat="43.18511755855901" lon="12.193431940352047"><ele>428.5</ele><time>2026-04-19T09:16:44Z</time></trkpt><trkpt lat="43.18499999760526" lon="12.193360145171136"><ele>424.0</ele><time>2026-04-19T09:16:45Z</time></trkpt><trkpt lat="43.18489702413649" lon="12.193248988818414"><ele>419.0</ele><time>2026-04-19T09:16:46Z</time></trkpt><trkpt lat="43.184821961274736" lon="12.193059630673329"><ele>414.0</ele><time>2026-04-19T09:16:47Z</time></trkpt><trkpt lat="43.18473378999862" lon="12.192828958978678"><ele>409.0</ele><time>2026-04-19T09:16:48Z</time></trkpt><trkpt lat="43.18465767711325" lon="12.19261469846881"><ele>409.0</ele><time>2026-04-19T09:16:49Z</time></trkpt><trkpt lat="43.18460145100285" lon="12.192426583120788"><ele>409.0</ele><time>2026-04-19T09:16:50Z</time></trkpt><trkpt lat="43.18456877030548" lon="12.192231857943195"><ele>409.0</ele><time>2026-04-19T09:16:51Z</time></trkpt><trkpt lat="43.18458225816626" lon="12.192009784797987"><ele>409.33333333333337</ele><time>2026-04-19T09:16:52Z</time></trkpt><trkpt lat="43.1846230229178" lon="12.19177486857231"><ele>409.66666666666663</ele><time>2026-04-19T09:16:53Z</time></trkpt><trkpt lat="43.184673969101496" lon="12.191568343010594"><ele>410.0</ele><time>2026-04-19T09:16:54Z</time></trkpt><trkpt lat="43.18473653749355" lon="12.191409652924005"><ele>410.8</ele><time>2026-04-19T09:16:55Z</time></trkpt><trkpt lat="43.18475476912278" lon="12.191268376410756"><ele>411.6</ele><time>2026-04-19T09:16:56Z</time></trkpt><trkpt lat="43.18473057105139" lon="12.19111817867543"><ele>412.4</ele><time>2026-04-19T09:16:57Z</time></trkpt><trkpt lat="43.18466597742982" lon="12.191010109073417"><ele>413.2</ele><time>2026-04-19T09:16:58Z</time></trkpt><trkpt lat="43.18458270713367" lon="12.190932299805166"><ele>414.0</ele><time>2026-04-19T09:16:59Z</time></trkpt><trkpt lat="43.18444846197288" lon="12.190983418862967"><ele>414.0</ele><time>2026-04-19T09:17:00Z</time></trkpt><trkpt lat="43.184344452393425" lon="12.191050009012061"><ele>414.0</ele><time>2026-04-19T09:17:01Z</time></trkpt><trkpt lat="43.18426819289679" lon="12.191137376875805"><ele>414.0</ele><time>2026-04-19T09:17:02Z</time></trkpt><trkpt lat="43.18420524059846" lon="12.191214868304856"><ele>414.0</ele><time>2026-04-19T09:17:03Z</time></trkpt><trkpt lat="43.18412773322661" lon="12.19129102656981"><ele>414.0</ele><time>2026-04-19T09:17:04Z</time></trkpt><trkpt lat="43.18405157395801" lon="12.191369262912843"><ele>411.0</ele><time>2026-04-19T09:17:05Z</time></trkpt><trkpt lat="43.18397965632791" lon="12.191458206983802"><ele>408.0</ele><time>2026-04-19T09:17:06Z</time></trkpt><trkpt lat="43.18390524658072" lon="12.1915765959319"><ele>405.0</ele><time>2026-04-19T09:17:07Z</time></trkpt><trkpt lat="43.183823140170674" lon="12.191713247629126"><ele>402.0</ele><time>2026-04-19T09:17:08Z</time></trkpt><trkpt lat="43.18377637840835" lon="12.19190999145235"><ele>402.0</ele><time>2026-04-19T09:17:09Z</time></trkpt><trkpt lat="43.183719008558214" lon="12.192104376956324"><ele>402.0</ele><time>2026-04-19T09:17:10Z</time></trkpt><trkpt lat="43.18367335822707" lon="12.19228242668234"><ele>402.0</ele><time>2026-04-19T09:17:11Z</time></trkpt><trkpt lat="43.18363260902333" lon="12.192445574970042"><ele>402.0</ele><time>2026-04-19T09:17:12Z</time></trkpt><trkpt lat="43.18356274339343" lon="12.192580099315693"><ele>401.6</ele><time>2026-04-19T09:17:13Z</time></trkpt><trkpt lat="43.18349833619426" lon="12.19271465888761"><ele>401.20000000000005</ele><time>2026-04-19T09:17:14Z</time></trkpt><trkpt lat="43.183406846695114" lon="12.192803791298996"><ele>400.8</ele><time>2026-04-19T09:17:15Z</time></trkpt><trkpt lat="43.183320216601594" lon="12.192862634946234"><ele>400.4</ele><time>2026-04-19T09:17:16Z</time></trkpt><trkpt lat="43.18324734487573" lon="12.192896157533822"><ele>400.0</ele><time>2026-04-19T09:17:17Z</time></trkpt><trkpt lat="43.183181307445764" lon="12.19291001132424"><ele>398.33333333333337</ele><time>2026-04-19T09:17:18Z</time></trkpt><trkpt lat="43.18311325024017" lon="12.19288776480176"><ele>396.6666666666667</ele><time>2026-04-19T09:17:19Z</time></trkpt><trkpt lat="43.18304951647687" lon="12.192836670841507"><ele>395.0</ele><time>2026-04-19T09:17:20Z</time></trkpt><trkpt lat="43.1829922455189" lon="12.19274033316592"><ele>393.33333333333337</ele><time>2026-04-19T09:17:21Z</time></trkpt><trkpt lat="43.18292190795063" lon="12.19265064810805"><ele>391.6666666666667</ele><time>2026-04-19T09:17:22Z</time></trkpt><trkpt lat="43.1828764100169" lon="12.19251176652093"><ele>390.0</ele><time>2026-04-19T09:17:23Z</time></trkpt><trkpt lat="43.18283404228472" lon="12.19234535831737"><ele>389.0</ele><time>2026-04-19T09:17:24Z</time></trkpt><trkpt lat="43.182782192760314" lon="12.192165876183504"><ele>388.0</ele><time>2026-04-19T09:17:25Z</time></trkpt><trkpt lat="43.1827272852913" lon="12.191999354220295"><ele>387.0</ele><time>2026-04-19T09:17:26Z</time></trkpt><trkpt lat="43.18269395118532" lon="12.191862525157287"><ele>386.0</ele><time>2026-04-19T09:17:27Z</time></trkpt><trkpt lat="43.1826807485295" lon="12.191741963412046"><ele>386.0</ele><time>2026-04-19T09:17:28Z</time></trkpt><trkpt lat="43.18268085954638" lon="12.191614682124454"><ele>386.0</ele><time>2026-04-19T09:17:29Z</time></trkpt><trkpt lat="43.182692736586084" lon="12.191494759445781"><ele>386.0</ele><time>2026-04-19T09:17:30Z</time></trkpt><trkpt lat="43.182713728850906" lon="12.191396226393628"><ele>386.0</ele><time>2026-04-19T09:17:31Z</time></trkpt><trkpt lat="43.18278025298725" lon="12.191263331025299"><ele>386.0</ele><time>2026-04-19T09:17:33Z</time></trkpt><trkpt lat="43.182861137483926" lon="12.191203054896155"><ele>382.66666666666663</ele><time>2026-04-19T09:17:35Z</time></trkpt><trkpt lat="43.182687576369396" lon="12.190936305064817"><ele>379.3333333333333</ele><time>2026-04-19T09:17:42Z</time></trkpt><trkpt lat="43.1826124714088" lon="12.191090401539062"><ele>376.0</ele><time>2026-04-19T09:17:43Z</time></trkpt><trkpt lat="43.18254723409037" lon="12.191283377266144"><ele>376.0</ele><time>2026-04-19T09:17:44Z</time></trkpt><trkpt lat="43.182495830259256" lon="12.191400036470334"><ele>376.0</ele><time>2026-04-19T09:17:45Z</time></trkpt><trkpt lat="43.18243282822247" lon="12.191540777153214"><ele>376.0</ele><time>2026-04-19T09:17:46Z</time></trkpt><trkpt lat="43.182381096036906" lon="12.19160118462376"><ele>376.0</ele><time>2026-04-19T09:17:47Z</time></trkpt><trkpt lat="43.18233461192069" lon="12.191825637960578"><ele>390.0</ele><time>2026-04-19T09:17:48Z</time></trkpt><trkpt lat="43.18283433315598" lon="12.192425052286207"><ele>390.0</ele><time>2026-04-19T09:17:49Z</time></trkpt><trkpt lat="43.18289995524313" lon="12.192617524963067"><ele>390.0</ele><time>2026-04-19T09:17:50Z</time></trkpt><trkpt lat="43.182955420694476" lon="12.192763809612233"><ele>390.0</ele><time>2026-04-19T09:17:51Z</time></trkpt><trkpt lat="43.18302283142932" lon="12.192865515674898"><ele>390.0</ele><time>2026-04-19T09:17:52Z</time></trkpt><trkpt lat="43.18308175975905" lon="12.19291321969577"><ele>390.0</ele><time>2026-04-19T09:17:53Z</time></trkpt><trkpt lat="43.183040745201644" lon="12.193104624906011"><ele>390.0</ele><time>2026-04-19T09:17:57Z</time></trkpt><trkpt lat="43.182878760997134" lon="12.192833068710105"><ele>390.0</ele><time>2026-04-19T09:17:59Z</time></trkpt><trkpt lat="43.18279299873611" lon="12.192708396704765"><ele>390.0</ele><time>2026-04-19T09:18:00Z</time></trkpt><trkpt lat="43.18266352377547" lon="12.19259612544487"><ele>390.0</ele><time>2026-04-19T09:18:01Z</time></trkpt><trkpt lat="43.18252123410404" lon="12.192520077716278"><ele>390.0</ele><time>2026-04-19T09:18:02Z</time></trkpt><trkpt lat="43.182384458004066" lon="12.19240892661898"><ele>390.0</ele><time>2026-04-19T09:18:03Z</time></trkpt><trkpt lat="43.18222760231656" lon="12.192329136895538"><ele>381.6666666666667</ele><time>2026-04-19T09:18:04Z</time></trkpt><trkpt lat="43.18204946414566" lon="12.192295110047304"><ele>373.33333333333337</ele><time>2026-04-19T09:18:05Z</time></trkpt><trkpt lat="43.18187991631361" lon="12.192299415317878"><ele>365.0</ele><time>2026-04-19T09:18:06Z</time></trkpt><trkpt lat="43.18172791077067" lon="12.192259539434263"><ele>365.0</ele><time>2026-04-19T09:18:07Z</time></trkpt><trkpt lat="43.18159043135432" lon="12.192154626970718"><ele>365.0</ele><time>2026-04-19T09:18:08Z</time></trkpt><trkpt lat="43.181437334798986" lon="12.192050328657091"><ele>365.0</ele><time>2026-04-19T09:18:09Z</time></trkpt><trkpt lat="43.18128073715645" lon="12.191954743219538"><ele>362.33333333333337</ele><time>2026-04-19T09:18:10Z</time></trkpt><trkpt lat="43.18112202720433" lon="12.1918703475396"><ele>359.6666666666667</ele><time>2026-04-19T09:18:11Z</time></trkpt><trkpt lat="43.18096200497229" lon="12.191799372119101"><ele>357.0</ele><time>2026-04-19T09:18:12Z</time></trkpt><trkpt lat="43.18079834354933" lon="12.191727092309726"><ele>356.0</ele><time>2026-04-19T09:18:13Z</time></trkpt><trkpt lat="43.180626542062726" lon="12.191711569932771"><ele>355.0</ele><time>2026-04-19T09:18:14Z</time></trkpt><trkpt lat="43.18046851565858" lon="12.191669253607262"><ele>354.0</ele><time>2026-04-19T09:18:15Z</time></trkpt><trkpt lat="43.180330050724365" lon="12.191576266119178"><ele>350.5</ele><time>2026-04-19T09:18:16Z</time></trkpt><trkpt lat="43.18020763661876" lon="12.19147171408127"><ele>347.0</ele><time>2026-04-19T09:18:17Z</time></trkpt><trkpt lat="43.18010480581304" lon="12.19136957209273"><ele>343.5</ele><time>2026-04-19T09:18:18Z</time></trkpt><trkpt lat="43.180029408754265" lon="12.19127668730099"><ele>340.0</ele><time>2026-04-19T09:18:19Z</time></trkpt><trkpt lat="43.18001365717519" lon="12.191159224059751"><ele>340.0</ele><time>2026-04-19T09:18:20Z</time></trkpt><trkpt lat="43.18001031309017" lon="12.191050087242841"><ele>340.0</ele><time>2026-04-19T09:18:21Z</time></trkpt><trkpt lat="43.18000604800818" lon="12.19092218863791"><ele>340.0</ele><time>2026-04-19T09:18:22Z</time></trkpt><trkpt lat="43.17999341839171" lon="12.190796662026937"><ele>340.0</ele><time>2026-04-19T09:18:23Z</time></trkpt><trkpt lat="43.179991324911505" lon="12.190675975909112"><ele>340.0</ele><time>2026-04-19T09:18:24Z</time></trkpt><trkpt lat="43.17998120890622" lon="12.190564924882484"><ele>340.0</ele><time>2026-04-19T09:18:25Z</time></trkpt><trkpt lat="43.17996411391514" lon="12.190457473998174"><ele>336.25</ele><time>2026-04-19T09:18:26Z</time></trkpt><trkpt lat="43.17993447932124" lon="12.19034229717509"><ele>332.5</ele><time>2026-04-19T09:18:27Z</time></trkpt><trkpt lat="43.179913665939885" lon="12.190223022936237"><ele>328.75</ele><time>2026-04-19T09:18:28Z</time></trkpt><trkpt lat="43.179811994212514" lon="12.190108352394532"><ele>325.0</ele><time>2026-04-19T09:18:29Z</time></trkpt><trkpt lat="43.17970527635078" lon="12.189970985936656"><ele>323.25</ele><time>2026-04-19T09:18:30Z</time></trkpt><trkpt lat="43.179585279225" lon="12.189826861880476"><ele>321.5</ele><time>2026-04-19T09:18:31Z</time></trkpt><trkpt lat="43.17946761839105" lon="12.189705769106066"><ele>319.75</ele><time>2026-04-19T09:18:32Z</time></trkpt><trkpt lat="43.17937379964177" lon="12.189577775453175"><ele>318.0</ele><time>2026-04-19T09:18:33Z</time></trkpt><trkpt lat="43.179278184385375" lon="12.1894697164647"><ele>318.0</ele><time>2026-04-19T09:18:34Z</time></trkpt><trkpt lat="43.17918354015694" lon="12.189372611248757"><ele>318.0</ele><time>2026-04-19T09:18:35Z</time></trkpt><trkpt lat="43.17909386384661" lon="12.18927103669636"><ele>318.0</ele><time>2026-04-19T09:18:36Z</time></trkpt><trkpt lat="43.17901145276664" lon="12.189163239390625"><ele>318.0</ele><time>2026-04-19T09:18:37Z</time></trkpt><trkpt lat="43.17894975479334" lon="12.189027757991333"><ele>312.3333333333333</ele><time>2026-04-19T09:18:38Z</time></trkpt><trkpt lat="43.17889226916635" lon="12.188857157060376"><ele>306.66666666666663</ele><time>2026-04-19T09:18:39Z</time></trkpt><trkpt lat="43.17881182013277" lon="12.188657539532523"><ele>301.0</ele><time>2026-04-19T09:18:40Z</time></trkpt><trkpt lat="43.178731427473494" lon="12.188470210921734"><ele>301.0</ele><time>2026-04-19T09:18:41Z</time></trkpt><trkpt lat="43.178654745813766" lon="12.188293394790414"><ele>301.0</ele><time>2026-04-19T09:18:42Z</time></trkpt><trkpt lat="43.17857790696705" lon="12.18812364254849"><ele>301.0</ele><time>2026-04-19T09:18:43Z</time></trkpt><trkpt lat="43.1785030108321" lon="12.187961594154352"><ele>301.0</ele><time>2026-04-19T09:18:44Z</time></trkpt><trkpt lat="43.178414459906584" lon="12.187815408178379"><ele>300.6</ele><time>2026-04-19T09:18:45Z</time></trkpt><trkpt lat="43.178361582108465" lon="12.187654656423573"><ele>300.20000000000005</ele><time>2026-04-19T09:18:46Z</time></trkpt><trkpt lat="43.17830893168641" lon="12.187522302251882"><ele>299.79999999999995</ele><time>2026-04-19T09:18:47Z</time></trkpt><trkpt lat="43.178266514288886" lon="12.1874021044826"><ele>299.4</ele><time>2026-04-19T09:18:48Z</time></trkpt><trkpt lat="43.17823187056796" lon="12.187276506585881"><ele>299.0</ele><time>2026-04-19T09:18:49Z</time></trkpt><trkpt lat="43.17820080718191" lon="12.187145146730485"><ele>297.5</ele><time>2026-04-19T09:18:50Z</time></trkpt><trkpt lat="43.178204173188064" lon="12.187006162582906"><ele>296.0</ele><time>2026-04-19T09:18:51Z</time></trkpt><trkpt lat="43.17819217141178" lon="12.186851055229384"><ele>294.5</ele><time>2026-04-19T09:18:52Z</time></trkpt><trkpt lat="43.1781261139479" lon="12.186714619736579"><ele>293.0</ele><time>2026-04-19T09:18:53Z</time></trkpt><trkpt lat="43.178030054871385" lon="12.186554888559545"><ele>289.33333333333337</ele><time>2026-04-19T09:18:54Z</time></trkpt><trkpt lat="43.17792949958242" lon="12.186370501216542"><ele>285.6666666666667</ele><time>2026-04-19T09:18:55Z</time></trkpt><trkpt lat="43.177847080883986" lon="12.186201063449946"><ele>282.0</ele><time>2026-04-19T09:18:56Z</time></trkpt><trkpt lat="43.17776647297794" lon="12.186052119477164"><ele>282.0</ele><time>2026-04-19T09:18:57Z</time></trkpt><trkpt lat="43.177702771611976" lon="12.185918999635835"><ele>282.0</ele><time>2026-04-19T09:18:58Z</time></trkpt><trkpt lat="43.17766272452511" lon="12.185807344160224"><ele>282.0</ele><time>2026-04-19T09:18:59Z</time></trkpt><trkpt lat="43.17766037951804" lon="12.185699543244448"><ele>282.0</ele><time>2026-04-19T09:19:00Z</time></trkpt><trkpt lat="43.17766216960177" lon="12.185581301354482"><ele>282.0</ele><time>2026-04-19T09:19:01Z</time></trkpt><trkpt lat="43.17766630582949" lon="12.18544816638286"><ele>280.0</ele><time>2026-04-19T09:19:02Z</time></trkpt><trkpt lat="43.177652860811335" lon="12.185308742642459"><ele>278.0</ele><time>2026-04-19T09:19:03Z</time></trkpt><trkpt lat="43.17765607821229" lon="12.185160503254638"><ele>276.0</ele><time>2026-04-19T09:19:04Z</time></trkpt><trkpt lat="43.17765763269646" lon="12.18501549808057"><ele>274.0</ele><time>2026-04-19T09:19:05Z</time></trkpt><trkpt lat="43.17765624727721" lon="12.18487136210526"><ele>272.0</ele><time>2026-04-19T09:19:06Z</time></trkpt><trkpt lat="43.17765472729799" lon="12.184751062864283"><ele>270.6</ele><time>2026-04-19T09:19:07Z</time></trkpt><trkpt lat="43.177640448095275" lon="12.184645757178288"><ele>269.2</ele><time>2026-04-19T09:19:08Z</time></trkpt><trkpt lat="43.17755481253964" lon="12.184576063697806"><ele>267.8</ele><time>2026-04-19T09:19:09Z</time></trkpt><trkpt lat="43.1774897236153" lon="12.184538554909501"><ele>266.4</ele><time>2026-04-19T09:19:10Z</time></trkpt><trkpt lat="43.177433556815544" lon="12.184435925926923"><ele>265.0</ele><time>2026-04-19T09:19:12Z</time></trkpt><trkpt lat="43.17746910324776" lon="12.184236096064655"><ele>265.0</ele><time>2026-04-19T09:19:14Z</time></trkpt><trkpt lat="43.17751922273407" lon="12.184099754981265"><ele>265.0</ele><time>2026-04-19T09:19:15Z</time></trkpt><trkpt lat="43.17757743565639" lon="12.183921831807531"><ele>265.0</ele><time>2026-04-19T09:19:16Z</time></trkpt><trkpt lat="43.17762064402212" lon="12.183748131978202"><ele>265.0</ele><time>2026-04-19T09:19:17Z</time></trkpt><trkpt lat="43.17765136025804" lon="12.183615349802169"><ele>264.8</ele><time>2026-04-19T09:19:18Z</time></trkpt><trkpt lat="43.17767968365654" lon="12.183507260573723"><ele>264.6</ele><time>2026-04-19T09:19:19Z</time></trkpt><trkpt lat="43.17771006231296" lon="12.183369377105493"><ele>264.4</ele><time>2026-04-19T09:19:21Z</time></trkpt><trkpt lat="43.177683053914855" lon="12.183268565019453"><ele>264.2</ele><time>2026-04-19T09:19:23Z</time></trkpt><trkpt lat="43.177548836381696" lon="12.183280841543212"><ele>264.0</ele><time>2026-04-19T09:19:26Z</time></trkpt><trkpt lat="43.17747036236529" lon="12.183348407198983"><ele>264.0</ele><time>2026-04-19T09:19:27Z</time></trkpt><trkpt lat="43.177383893716176" lon="12.18344099864418"><ele>264.0</ele><time>2026-04-19T09:19:28Z</time></trkpt><trkpt lat="43.17727174963231" lon="12.183545525106503"><ele>264.0</ele><time>2026-04-19T09:19:29Z</time></trkpt><trkpt lat="43.17714924359097" lon="12.183652169959393"><ele>264.0</ele><time>2026-04-19T09:19:30Z</time></trkpt><trkpt lat="43.17702721731584" lon="12.183759352085243"><ele>264.0</ele><time>2026-04-19T09:19:31Z</time></trkpt><trkpt lat="43.176923569184474" lon="12.183855341133953"><ele>264.0</ele><time>2026-04-19T09:19:32Z</time></trkpt><trkpt lat="43.1768292350886" lon="12.183914237119136"><ele>264.0</ele><time>2026-04-19T09:19:33Z</time></trkpt><trkpt lat="43.17676418153364" lon="12.18396905161187"><ele>264.0</ele><time>2026-04-19T09:19:34Z</time></trkpt><trkpt lat="43.17668658720134" lon="12.18401369487984"><ele>264.0</ele><time>2026-04-19T09:19:36Z</time></trkpt><trkpt lat="43.176638662815506" lon="12.18395614947616"><ele>263.2</ele><time>2026-04-19T09:19:38Z</time></trkpt><trkpt lat="43.17661554438799" lon="12.1837902069696"><ele>262.4</ele><time>2026-04-19T09:19:40Z</time></trkpt><trkpt lat="43.17656802661848" lon="12.183682367315237"><ele>261.6</ele><time>2026-04-19T09:19:41Z</time></trkpt><trkpt lat="43.1764887011217" lon="12.18359987474104"><ele>260.8</ele><time>2026-04-19T09:19:43Z</time></trkpt><trkpt lat="43.176408319565226" lon="12.18354642943423"><ele>260.0</ele><time>2026-04-19T09:19:45Z</time></trkpt><trkpt lat="43.176291134880394" lon="12.183678179295715"><ele>260.0</ele><time>2026-04-19T09:19:46Z</time></trkpt><trkpt lat="43.17620660435765" lon="12.183761768391623"><ele>260.0</ele><time>2026-04-19T09:19:47Z</time></trkpt><trkpt lat="43.17612452237322" lon="12.183838596566153"><ele>260.0</ele><time>2026-04-19T09:19:48Z</time></trkpt><trkpt lat="43.176040860969955" lon="12.183912771082706"><ele>260.0</ele><time>2026-04-19T09:19:49Z</time></trkpt><trkpt lat="43.175950021907894" lon="12.183993309351878"><ele>260.0</ele><time>2026-04-19T09:19:50Z</time></trkpt><trkpt lat="43.17587190315807" lon="12.184062569770052"><ele>260.00000000000006</ele><time>2026-04-19T09:19:51Z</time></trkpt><trkpt lat="43.17580317227071" lon="12.184123506761718"><ele>260.0</ele><time>2026-04-19T09:19:52Z</time></trkpt><trkpt lat="43.17573845105375" lon="12.184180008743173"><ele>260.0</ele><time>2026-04-19T09:19:53Z</time></trkpt><trkpt lat="43.175678611708626" lon="12.184232288456656"><ele>260.0</ele><time>2026-04-19T09:19:54Z</time></trkpt><trkpt lat="43.17561262845501" lon="12.18428993592"><ele>260.0</ele><time>2026-04-19T09:19:55Z</time></trkpt><trkpt lat="43.17555352657312" lon="12.184341571249119"><ele>260.00000000000006</ele><time>2026-04-19T09:19:56Z</time></trkpt><trkpt lat="43.175495697016785" lon="12.184392095024698"><ele>260.0</ele><time>2026-04-19T09:19:57Z</time></trkpt><trkpt lat="43.175406773880674" lon="12.184450561356291"><ele>260.0</ele><time>2026-04-19T09:19:59Z</time></trkpt><trkpt lat="43.1753329697503" lon="12.184481861519702"><ele>260.0</ele><time>2026-04-19T09:20:03Z</time></trkpt><trkpt lat="43.17524916579697" lon="12.184226328438063"><ele>260.0</ele><time>2026-04-19T09:20:04Z</time></trkpt><trkpt lat="43.175207679541295" lon="12.184147928773815"><ele>260.0</ele><time>2026-04-19T09:20:06Z</time></trkpt><trkpt lat="43.17516167288076" lon="12.184081001523616"><ele>260.0</ele><time>2026-04-19T09:20:09Z</time></trkpt><trkpt lat="43.175039846345314" lon="12.184197559687187"><ele>260.0</ele><time>2026-04-19T09:20:10Z</time></trkpt><trkpt lat="43.17497060409287" lon="12.184273020023284"><ele>260.0</ele><time>2026-04-19T09:20:11Z</time></trkpt><trkpt lat="43.17489806710474" lon="12.18436920277268"><ele>260.0</ele><time>2026-04-19T09:20:12Z</time></trkpt><trkpt lat="43.17482508270581" lon="12.184482095814676"><ele>260.0</ele><time>2026-04-19T09:20:13Z</time></trkpt><trkpt lat="43.17473408120069" lon="12.184595175588592"><ele>260.0</ele><time>2026-04-19T09:20:14Z</time></trkpt><trkpt lat="43.174623715687936" lon="12.18470345724413"><ele>260.0</ele><time>2026-04-19T09:20:15Z</time></trkpt><trkpt lat="43.1745080477783" lon="12.184813486514427"><ele>260.0</ele><time>2026-04-19T09:20:16Z</time></trkpt><trkpt lat="43.17440048306602" lon="12.184914123883821"><ele>260.0</ele><time>2026-04-19T09:20:17Z</time></trkpt><trkpt lat="43.17430054870151" lon="12.185007846479406"><ele>260.0</ele><time>2026-04-19T09:20:18Z</time></trkpt><trkpt lat="43.17420921025707" lon="12.185096279647533"><ele>260.0</ele><time>2026-04-19T09:20:19Z</time></trkpt><trkpt lat="43.174123852961436" lon="12.185182474411251"><ele>260.0</ele><time>2026-04-19T09:20:20Z</time></trkpt><trkpt lat="43.174026709824254" lon="12.18527118769964"><ele>260.0</ele><time>2026-04-19T09:20:21Z</time></trkpt><trkpt lat="43.173920396474024" lon="12.185362241301572"><ele>260.0</ele><time>2026-04-19T09:20:22Z</time></trkpt><trkpt lat="43.17380977305033" lon="12.185458083203928"><ele>260.0</ele><time>2026-04-19T09:20:23Z</time></trkpt><trkpt lat="43.17369854084748" lon="12.185556686303407"><ele>260.0</ele><time>2026-04-19T09:20:24Z</time></trkpt><trkpt lat="43.17358781178752" lon="12.185660777046635"><ele>260.0</ele><time>2026-04-19T09:20:25Z</time></trkpt><trkpt lat="43.17347161922126" lon="12.185764672437799"><ele>260.0</ele><time>2026-04-19T09:20:26Z</time></trkpt><trkpt lat="43.173353285366325" lon="12.185865176329768"><ele>260.0</ele><time>2026-04-19T09:20:27Z</time></trkpt><trkpt lat="43.17322249080423" lon="12.185951101189424"><ele>260.0</ele><time>2026-04-19T09:20:28Z</time></trkpt><trkpt lat="43.17310041479589" lon="12.18606933134827"><ele>260.0</ele><time>2026-04-19T09:20:29Z</time></trkpt><trkpt lat="43.17298059508484" lon="12.186155294882923"><ele>260.0</ele><time>2026-04-19T09:20:30Z</time></trkpt><trkpt lat="43.17287599471596" lon="12.186238669219353"><ele>260.0</ele><time>2026-04-19T09:20:31Z</time></trkpt><trkpt lat="43.1727799210021" lon="12.18631047485272"><ele>260.0</ele><time>2026-04-19T09:20:32Z</time></trkpt><trkpt lat="43.1726821680496" lon="12.186364194771548"><ele>260.0</ele><time>2026-04-19T09:20:33Z</time></trkpt><trkpt lat="43.172601953757905" lon="12.186440277860143"><ele>260.0</ele><time>2026-04-19T09:20:34Z</time></trkpt><trkpt lat="43.1725210570301" lon="12.186498939848766"><ele>260.0</ele><time>2026-04-19T09:20:35Z</time></trkpt><trkpt lat="43.17244315468973" lon="12.18655668268786"><ele>260.0</ele><time>2026-04-19T09:20:36Z</time></trkpt><trkpt lat="43.1723582151736" lon="12.186616058047804"><ele>260.0</ele><time>2026-04-19T09:20:37Z</time></trkpt><trkpt lat="43.17227360684396" lon="12.186672567787854"><ele>260.0</ele><time>2026-04-19T09:20:38Z</time></trkpt><trkpt lat="43.17219130025918" lon="12.18672670482603"><ele>260.0</ele><time>2026-04-19T09:20:39Z</time></trkpt><trkpt lat="43.17210646419922" lon="12.18678161021128"><ele>260.0</ele><time>2026-04-19T09:20:40Z</time></trkpt><trkpt lat="43.172015393336174" lon="12.186841268058316"><ele>259.5</ele><time>2026-04-19T09:20:41Z</time></trkpt><trkpt lat="43.17191072787006" lon="12.186901598753654"><ele>259.0</ele><time>2026-04-19T09:20:42Z</time></trkpt><trkpt lat="43.17178568032866" lon="12.18697582377724"><ele>258.5</ele><time>2026-04-19T09:20:43Z</time></trkpt><trkpt lat="43.17163813836286" lon="12.187060176535784"><ele>258.0</ele><time>2026-04-19T09:20:44Z</time></trkpt><trkpt lat="43.171482531037356" lon="12.187141938471088"><ele>258.0</ele><time>2026-04-19T09:20:45Z</time></trkpt><trkpt lat="43.171326834082116" lon="12.187225077795624"><ele>258.0</ele><time>2026-04-19T09:20:46Z</time></trkpt><trkpt lat="43.17118470325759" lon="12.187312874540922"><ele>258.0</ele><time>2026-04-19T09:20:47Z</time></trkpt><trkpt lat="43.17105541282911" lon="12.187382158645319"><ele>258.5</ele><time>2026-04-19T09:20:48Z</time></trkpt><trkpt lat="43.17092855693236" lon="12.1874558165306"><ele>259.0</ele><time>2026-04-19T09:20:49Z</time></trkpt><trkpt lat="43.170807293765264" lon="12.18751179108625"><ele>259.5</ele><time>2026-04-19T09:20:50Z</time></trkpt><trkpt lat="43.17069085845811" lon="12.18756329975232"><ele>260.0</ele><time>2026-04-19T09:20:51Z</time></trkpt><trkpt lat="43.17057669444863" lon="12.187608251519723"><ele>260.0</ele><time>2026-04-19T09:20:52Z</time></trkpt><trkpt lat="43.17047307776983" lon="12.187648359464667"><ele>260.0</ele><time>2026-04-19T09:20:53Z</time></trkpt><trkpt lat="43.17037439314129" lon="12.187662526363274"><ele>260.0</ele><time>2026-04-19T09:20:54Z</time></trkpt><trkpt lat="43.17029332038172" lon="12.187710297520244"><ele>260.0</ele><time>2026-04-19T09:20:55Z</time></trkpt><trkpt lat="43.17021617295561" lon="12.187719452837737"><ele>260.0</ele><time>2026-04-19T09:20:56Z</time></trkpt><trkpt lat="43.17014755378682" lon="12.187743179930528"><ele>260.0</ele><time>2026-04-19T09:20:57Z</time></trkpt><trkpt lat="43.17006573655676" lon="12.18777147054324"><ele>260.0</ele><time>2026-04-19T09:20:58Z</time></trkpt><trkpt lat="43.16999145538072" lon="12.187796329765563"><ele>260.0</ele><time>2026-04-19T09:20:59Z</time></trkpt><trkpt lat="43.16991853954713" lon="12.187820460648672"><ele>260.0</ele><time>2026-04-19T09:21:00Z</time></trkpt><trkpt lat="43.16984188776037" lon="12.187845827952085"><ele>260.0</ele><time>2026-04-19T09:21:01Z</time></trkpt><trkpt lat="43.16976157970967" lon="12.1878711037471"><ele>260.0</ele><time>2026-04-19T09:21:02Z</time></trkpt><trkpt lat="43.169690470184854" lon="12.18789316118027"><ele>260.0</ele><time>2026-04-19T09:21:03Z</time></trkpt><trkpt lat="43.16962606713056" lon="12.187913139966867"><ele>259.83333333333337</ele><time>2026-04-19T09:21:04Z</time></trkpt><trkpt lat="43.16955109889047" lon="12.187936394335185"><ele>259.6666666666667</ele><time>2026-04-19T09:21:05Z</time></trkpt><trkpt lat="43.16946756249755" lon="12.187961697575291"><ele>259.5</ele><time>2026-04-19T09:21:06Z</time></trkpt><trkpt lat="43.169385081743194" lon="12.187986186330795"><ele>259.3333333333333</ele><time>2026-04-19T09:21:07Z</time></trkpt><trkpt lat="43.16930111181514" lon="12.18801111722174"><ele>259.16666666666663</ele><time>2026-04-19T09:21:08Z</time></trkpt><trkpt lat="43.16921291381717" lon="12.18803473263995"><ele>259.0</ele><time>2026-04-19T09:21:09Z</time></trkpt><trkpt lat="43.16910767147283" lon="12.188061174756559"><ele>259.25</ele><time>2026-04-19T09:21:10Z</time></trkpt><trkpt lat="43.16899501738127" lon="12.188087602688208"><ele>259.5</ele><time>2026-04-19T09:21:11Z</time></trkpt><trkpt lat="43.16887248855593" lon="12.188110622866024"><ele>259.75</ele><time>2026-04-19T09:21:12Z</time></trkpt><trkpt lat="43.168738916769925" lon="12.188134166212093"><ele>260.0</ele><time>2026-04-19T09:21:13Z</time></trkpt><trkpt lat="43.16859987946084" lon="12.188156835546557"><ele>260.5</ele><time>2026-04-19T09:21:14Z</time></trkpt><trkpt lat="43.168458008805544" lon="12.188178801829956"><ele>261.0</ele><time>2026-04-19T09:21:15Z</time></trkpt><trkpt lat="43.168318092695124" lon="12.188198127483968"><ele>261.5</ele><time>2026-04-19T09:21:16Z</time></trkpt><trkpt lat="43.16817981833449" lon="12.188214528501218"><ele>262.0</ele><time>2026-04-19T09:21:17Z</time></trkpt><trkpt lat="43.168045420503034" lon="12.18822866173881"><ele>262.0</ele><time>2026-04-19T09:21:18Z</time></trkpt><trkpt lat="43.167913437302616" lon="12.18824114088735"><ele>262.0</ele><time>2026-04-19T09:21:19Z</time></trkpt><trkpt lat="43.16777911525521" lon="12.188253608539512"><ele>262.0</ele><time>2026-04-19T09:21:20Z</time></trkpt><trkpt lat="43.16764821119821" lon="12.188266377095824"><ele>262.0</ele><time>2026-04-19T09:21:21Z</time></trkpt><trkpt lat="43.16751891138429" lon="12.188279715240272"><ele>262.0</ele><time>2026-04-19T09:21:22Z</time></trkpt><trkpt lat="43.16738819495986" lon="12.188293199516531"><ele>262.0</ele><time>2026-04-19T09:21:23Z</time></trkpt><trkpt lat="43.16726143944227" lon="12.188306275197403"><ele>262.0</ele><time>2026-04-19T09:21:24Z</time></trkpt><trkpt lat="43.167150330588115" lon="12.188317340332015"><ele>262.0</ele><time>2026-04-19T09:21:25Z</time></trkpt><trkpt lat="43.16704429060282" lon="12.188326630928612"><ele>261.8333333333333</ele><time>2026-04-19T09:21:26Z</time></trkpt><trkpt lat="43.16694882681855" lon="12.188334994898916"><ele>261.66666666666663</ele><time>2026-04-19T09:21:27Z</time></trkpt><trkpt lat="43.1668601598366" lon="12.188342763379243"><ele>261.5</ele><time>2026-04-19T09:21:28Z</time></trkpt><trkpt lat="43.16678031447151" lon="12.188349581268959"><ele>261.3333333333333</ele><time>2026-04-19T09:21:29Z</time></trkpt><trkpt lat="43.166704919024426" lon="12.188355089612797"><ele>261.1666666666667</ele><time>2026-04-19T09:21:30Z</time></trkpt><trkpt lat="43.166635194952946" lon="12.188360183609936"><ele>261.0</ele><time>2026-04-19T09:21:31Z</time></trkpt><trkpt lat="43.16655258797138" lon="12.18836621882166"><ele>260.6</ele><time>2026-04-19T09:21:32Z</time></trkpt><trkpt lat="43.166465783551565" lon="12.18837256069736"><ele>260.20000000000005</ele><time>2026-04-19T09:21:33Z</time></trkpt><trkpt lat="43.166372419824995" lon="12.188379381792044"><ele>259.79999999999995</ele><time>2026-04-19T09:21:34Z</time></trkpt><trkpt lat="43.16626903252497" lon="12.188386935201821"><ele>259.4</ele><time>2026-04-19T09:21:35Z</time></trkpt><trkpt lat="43.16615444792931" lon="12.188395306679418"><ele>259.0</ele><time>2026-04-19T09:21:36Z</time></trkpt><trkpt lat="43.16602072704686" lon="12.188405749115194"><ele>259.0</ele><time>2026-04-19T09:21:37Z</time></trkpt><trkpt lat="43.16587639205855" lon="12.188417623824417"><ele>259.0</ele><time>2026-04-19T09:21:38Z</time></trkpt><trkpt lat="43.165715585142514" lon="12.188431784587554"><ele>259.0</ele><time>2026-04-19T09:21:39Z</time></trkpt><trkpt lat="43.16554288458527" lon="12.18844699270471"><ele>258.66666666666663</ele><time>2026-04-19T09:21:40Z</time></trkpt><trkpt lat="43.16534761497099" lon="12.188464188293596"><ele>258.3333333333333</ele><time>2026-04-19T09:21:41Z</time></trkpt><trkpt lat="43.16516603684056" lon="12.18848017815848"><ele>258.0</ele><time>2026-04-19T09:21:42Z</time></trkpt><trkpt lat="43.16500203363187" lon="12.188495578499163"><ele>258.0</ele><time>2026-04-19T09:21:43Z</time></trkpt><trkpt lat="43.164847017702016" lon="12.188510472680408"><ele>258.0</ele><time>2026-04-19T09:21:44Z</time></trkpt><trkpt lat="43.16469208252956" lon="12.188525360915476"><ele>258.0</ele><time>2026-04-19T09:21:45Z</time></trkpt><trkpt lat="43.16453609036123" lon="12.188540350484708"><ele>258.0</ele><time>2026-04-19T09:21:46Z</time></trkpt><trkpt lat="43.16437569103094" lon="12.188555610546375"><ele>258.0</ele><time>2026-04-19T09:21:47Z</time></trkpt><trkpt lat="43.16421722472668" lon="12.188570686725182"><ele>258.0</ele><time>2026-04-19T09:21:48Z</time></trkpt><trkpt lat="43.16407536755827" lon="12.188582462334969"><ele>258.0</ele><time>2026-04-19T09:21:49Z</time></trkpt><trkpt lat="43.16393383899669" lon="12.188592146641998"><ele>258.0</ele><time>2026-04-19T09:21:50Z</time></trkpt><trkpt lat="43.163787275366666" lon="12.188597847408156"><ele>258.0</ele><time>2026-04-19T09:21:51Z</time></trkpt><trkpt lat="43.16363569857067" lon="12.188603743169063"><ele>258.0</ele><time>2026-04-19T09:21:52Z</time></trkpt><trkpt lat="43.1634815426029" lon="12.188610526495872"><ele>258.0</ele><time>2026-04-19T09:21:53Z</time></trkpt><trkpt lat="43.16334464784371" lon="12.188617023470968"><ele>258.0</ele><time>2026-04-19T09:21:54Z</time></trkpt><trkpt lat="43.16321725408919" lon="12.1886230695316"><ele>258.0</ele><time>2026-04-19T09:21:55Z</time></trkpt><trkpt lat="43.163093536870356" lon="12.18862894110283"><ele>258.0</ele><time>2026-04-19T09:21:56Z</time></trkpt><trkpt lat="43.16297125187143" lon="12.188635560688901"><ele>258.0</ele><time>2026-04-19T09:21:57Z</time></trkpt><trkpt lat="43.16285683903326" lon="12.188641980521568"><ele>258.0</ele><time>2026-04-19T09:21:58Z</time></trkpt><trkpt lat="43.162749442130895" lon="12.188648006679944"><ele>258.0</ele><time>2026-04-19T09:21:59Z</time></trkpt><trkpt lat="43.162656613695376" lon="12.188653147619569"><ele>258.0</ele><time>2026-04-19T09:22:00Z</time></trkpt><trkpt lat="43.16256322316279" lon="12.188658258470745"><ele>258.0</ele><time>2026-04-19T09:22:01Z</time></trkpt><trkpt lat="43.162471076445485" lon="12.188663301255461"><ele>258.0</ele><time>2026-04-19T09:22:02Z</time></trkpt><trkpt lat="43.16238387368752" lon="12.188668073477738"><ele>258.0</ele><time>2026-04-19T09:22:03Z</time></trkpt><trkpt lat="43.162294184638434" lon="12.1886729817642"><ele>258.0</ele><time>2026-04-19T09:22:04Z</time></trkpt><trkpt lat="43.16219337089754" lon="12.188678498853092"><ele>258.0</ele><time>2026-04-19T09:22:05Z</time></trkpt><trkpt lat="43.16208179218069" lon="12.18868460506657"><ele>258.0</ele><time>2026-04-19T09:22:06Z</time></trkpt><trkpt lat="43.161962802874264" lon="12.188688310090374"><ele>258.25</ele><time>2026-04-19T09:22:07Z</time></trkpt><trkpt lat="43.16184490893287" lon="12.188688524280321"><ele>258.5</ele><time>2026-04-19T09:22:08Z</time></trkpt><trkpt lat="43.16170956747634" lon="12.188686050147371"><ele>258.75</ele><time>2026-04-19T09:22:09Z</time></trkpt><trkpt lat="43.161565373440666" lon="12.188680698960157"><ele>259.0</ele><time>2026-04-19T09:22:10Z</time></trkpt><trkpt lat="43.16143437683275" lon="12.188670325703901"><ele>259.4</ele><time>2026-04-19T09:22:11Z</time></trkpt><trkpt lat="43.161320915903985" lon="12.188653668813014"><ele>259.79999999999995</ele><time>2026-04-19T09:22:12Z</time></trkpt><trkpt lat="43.161214213799305" lon="12.1886349291703"><ele>260.20000000000005</ele><time>2026-04-19T09:22:13Z</time></trkpt><trkpt lat="43.1611202794627" lon="12.18861786511456"><ele>260.6</ele><time>2026-04-19T09:22:14Z</time></trkpt><trkpt lat="43.16103145725576" lon="12.18860298387497"><ele>261.0</ele><time>2026-04-19T09:22:15Z</time></trkpt><trkpt lat="43.160964116993135" lon="12.188608736412077"><ele>261.0</ele><time>2026-04-19T09:22:16Z</time></trkpt><trkpt lat="43.16088871184931" lon="12.188590705665266"><ele>261.0</ele><time>2026-04-19T09:22:18Z</time></trkpt><trkpt lat="43.16078097895169" lon="12.18844987249729"><ele>261.0</ele><time>2026-04-19T09:22:20Z</time></trkpt><trkpt lat="43.16069345866643" lon="12.188316163040962"><ele>261.0</ele><time>2026-04-19T09:22:21Z</time></trkpt><trkpt lat="43.16060069933225" lon="12.188181526056287"><ele>261.75</ele><time>2026-04-19T09:22:22Z</time></trkpt><trkpt lat="43.16051528123435" lon="12.188033670202893"><ele>262.5</ele><time>2026-04-19T09:22:23Z</time></trkpt><trkpt lat="43.160416702613965" lon="12.187895379000414"><ele>263.25</ele><time>2026-04-19T09:22:24Z</time></trkpt><trkpt lat="43.16031775089821" lon="12.187757584417104"><ele>264.0</ele><time>2026-04-19T09:22:25Z</time></trkpt><trkpt lat="43.160227186718686" lon="12.187632487800963"><ele>264.0</ele><time>2026-04-19T09:22:26Z</time></trkpt><trkpt lat="43.16013049472612" lon="12.187546503913618"><ele>264.0</ele><time>2026-04-19T09:22:27Z</time></trkpt><trkpt lat="43.16003043261744" lon="12.187447181289961"><ele>264.0</ele><time>2026-04-19T09:22:28Z</time></trkpt><trkpt lat="43.15990644857288" lon="12.187371512178691"><ele>264.0</ele><time>2026-04-19T09:22:29Z</time></trkpt><trkpt lat="43.15979348433334" lon="12.18726604003869"><ele>263.5</ele><time>2026-04-19T09:22:30Z</time></trkpt><trkpt lat="43.159679940188816" lon="12.187195912547637"><ele>263.0</ele><time>2026-04-19T09:22:31Z</time></trkpt><trkpt lat="43.15957090017525" lon="12.187133554247843"><ele>262.5</ele><time>2026-04-19T09:22:32Z</time></trkpt><trkpt lat="43.15945437114031" lon="12.18707384523425"><ele>262.0</ele><time>2026-04-19T09:22:33Z</time></trkpt><trkpt lat="43.15932987581629" lon="12.187008297180027"><ele>262.0</ele><time>2026-04-19T09:22:34Z</time></trkpt><trkpt lat="43.159203129528834" lon="12.186942481708996"><ele>262.0</ele><time>2026-04-19T09:22:35Z</time></trkpt><trkpt lat="43.15906687469477" lon="12.186871728733854"><ele>262.0</ele><time>2026-04-19T09:22:36Z</time></trkpt><trkpt lat="43.15893077286965" lon="12.186801055217105"><ele>262.0</ele><time>2026-04-19T09:22:37Z</time></trkpt><trkpt lat="43.15878718738315" lon="12.186726495661746"><ele>262.0</ele><time>2026-04-19T09:22:38Z</time></trkpt><trkpt lat="43.15862244586857" lon="12.186662989026601"><ele>262.0</ele><time>2026-04-19T09:22:39Z</time></trkpt><trkpt lat="43.158458732497756" lon="12.186575970688924"><ele>262.0</ele><time>2026-04-19T09:22:40Z</time></trkpt><trkpt lat="43.15828308282386" lon="12.186484026305504"><ele>261.66666666666663</ele><time>2026-04-19T09:22:41Z</time></trkpt><trkpt lat="43.15810492955033" lon="12.18639279537191"><ele>261.3333333333333</ele><time>2026-04-19T09:22:42Z</time></trkpt><trkpt lat="43.15793146505501" lon="12.186303863723152"><ele>261.0</ele><time>2026-04-19T09:22:43Z</time></trkpt><trkpt lat="43.15776343488771" lon="12.186215085212753"><ele>261.0</ele><time>2026-04-19T09:22:44Z</time></trkpt><trkpt lat="43.157585400441604" lon="12.186121884575837"><ele>261.0</ele><time>2026-04-19T09:22:45Z</time></trkpt><trkpt lat="43.15740708567921" lon="12.186003921127591"><ele>261.0</ele><time>2026-04-19T09:22:46Z</time></trkpt><trkpt lat="43.15721503276365" lon="12.185901917636368"><ele>260.6666666666667</ele><time>2026-04-19T09:22:47Z</time></trkpt><trkpt lat="43.15702194538273" lon="12.185800357950887"><ele>260.33333333333337</ele><time>2026-04-19T09:22:48Z</time></trkpt><trkpt lat="43.15683179666952" lon="12.18569978535983"><ele>260.0</ele><time>2026-04-19T09:22:49Z</time></trkpt><trkpt lat="43.15664141400988" lon="12.185599089029765"><ele>259.6666666666667</ele><time>2026-04-19T09:22:50Z</time></trkpt><trkpt lat="43.15644449980343" lon="12.185518235631633"><ele>259.3333333333333</ele><time>2026-04-19T09:22:51Z</time></trkpt><trkpt lat="43.15625333734618" lon="12.18541712707829"><ele>259.0</ele><time>2026-04-19T09:22:52Z</time></trkpt><trkpt lat="43.15606074527252" lon="12.185313364814432"><ele>259.0</ele><time>2026-04-19T09:22:53Z</time></trkpt><trkpt lat="43.15586926918979" lon="12.18521343276867"><ele>259.0</ele><time>2026-04-19T09:22:54Z</time></trkpt><trkpt lat="43.15567887183848" lon="12.185112098570718"><ele>259.0</ele><time>2026-04-19T09:22:55Z</time></trkpt><trkpt lat="43.15549317847783" lon="12.185013042138568"><ele>258.66666666666663</ele><time>2026-04-19T09:22:56Z</time></trkpt><trkpt lat="43.155318531039704" lon="12.184921330496866"><ele>258.3333333333333</ele><time>2026-04-19T09:22:57Z</time></trkpt><trkpt lat="43.15514918912097" lon="12.184830942106474"><ele>258.0</ele><time>2026-04-19T09:22:58Z</time></trkpt><trkpt lat="43.1549813500581" lon="12.184732385567267"><ele>258.6666666666667</ele><time>2026-04-19T09:22:59Z</time></trkpt><trkpt lat="43.15481975092483" lon="12.184629782455032"><ele>259.33333333333337</ele><time>2026-04-19T09:23:00Z</time></trkpt><trkpt lat="43.15466286600261" lon="12.184493553871752"><ele>260.0</ele><time>2026-04-19T09:23:01Z</time></trkpt><trkpt lat="43.1545123182407" lon="12.184328044391394"><ele>260.0</ele><time>2026-04-19T09:23:02Z</time></trkpt><trkpt lat="43.15436799697117" lon="12.18414660514246"><ele>260.0</ele><time>2026-04-19T09:23:03Z</time></trkpt><trkpt lat="43.154223687412646" lon="12.183958268700131"><ele>260.0</ele><time>2026-04-19T09:23:04Z</time></trkpt><trkpt lat="43.15407502931846" lon="12.183760342409261"><ele>260.0</ele><time>2026-04-19T09:23:05Z</time></trkpt><trkpt lat="43.153921090156835" lon="12.183565423702042"><ele>260.0</ele><time>2026-04-19T09:23:06Z</time></trkpt><trkpt lat="43.153770784034194" lon="12.18338239523912"><ele>260.0</ele><time>2026-04-19T09:23:07Z</time></trkpt><trkpt lat="43.153610887715125" lon="12.183157432977188"><ele>260.0</ele><time>2026-04-19T09:23:08Z</time></trkpt><trkpt lat="43.15345687640726" lon="12.182961091184886"><ele>260.0</ele><time>2026-04-19T09:23:09Z</time></trkpt><trkpt lat="43.15330209438278" lon="12.182763018321607"><ele>260.0</ele><time>2026-04-19T09:23:10Z</time></trkpt><trkpt lat="43.153152497149534" lon="12.18256638840017"><ele>261.0</ele><time>2026-04-19T09:23:11Z</time></trkpt><trkpt lat="43.15300414530758" lon="12.18237718666198"><ele>262.0</ele><time>2026-04-19T09:23:12Z</time></trkpt><trkpt lat="43.15285698896785" lon="12.182198602270041"><ele>263.0</ele><time>2026-04-19T09:23:13Z</time></trkpt><trkpt lat="43.15270943523427" lon="12.182014124517961"><ele>263.0</ele><time>2026-04-19T09:23:14Z</time></trkpt><trkpt lat="43.15258737442659" lon="12.181806627633348"><ele>263.0</ele><time>2026-04-19T09:23:15Z</time></trkpt><trkpt lat="43.152471686583304" lon="12.1815938136996"><ele>263.0</ele><time>2026-04-19T09:23:16Z</time></trkpt><trkpt lat="43.152375289392815" lon="12.181351688080431"><ele>269.33333333333337</ele><time>2026-04-19T09:23:17Z</time></trkpt><trkpt lat="43.15229383075166" lon="12.181082611001445"><ele>275.6666666666667</ele><time>2026-04-19T09:23:18Z</time></trkpt><trkpt lat="43.152205216211925" lon="12.180813057491156"><ele>282.0</ele><time>2026-04-19T09:23:19Z</time></trkpt><trkpt lat="43.15213965407491" lon="12.180533310973999"><ele>282.0</ele><time>2026-04-19T09:23:20Z</time></trkpt><trkpt lat="43.15206581316676" lon="12.180260056519332"><ele>282.0</ele><time>2026-04-19T09:23:21Z</time></trkpt><trkpt lat="43.151989791322116" lon="12.17998749737026"><ele>282.0</ele><time>2026-04-19T09:23:22Z</time></trkpt><trkpt lat="43.15191536649742" lon="12.179715690736161"><ele>278.0</ele><time>2026-04-19T09:23:23Z</time></trkpt><trkpt lat="43.15182921259055" lon="12.179447524225317"><ele>274.0</ele><time>2026-04-19T09:23:24Z</time></trkpt><trkpt lat="43.151729744513084" lon="12.179190127629974"><ele>270.0</ele><time>2026-04-19T09:23:25Z</time></trkpt><trkpt lat="43.1516123374315" lon="12.178946704976212"><ele>271.6666666666667</ele><time>2026-04-19T09:23:26Z</time></trkpt><trkpt lat="43.15148249752114" lon="12.178714494029558"><ele>273.33333333333337</ele><time>2026-04-19T09:23:27Z</time></trkpt><trkpt lat="43.1513310190409" lon="12.178504321215195"><ele>275.0</ele><time>2026-04-19T09:23:28Z</time></trkpt><trkpt lat="43.15119196746027" lon="12.178286494843004"><ele>271.33333333333337</ele><time>2026-04-19T09:23:29Z</time></trkpt><trkpt lat="43.151046133786494" lon="12.17805937961815"><ele>267.6666666666667</ele><time>2026-04-19T09:23:30Z</time></trkpt><trkpt lat="43.15090175851279" lon="12.177827822526632"><ele>264.0</ele><time>2026-04-19T09:23:31Z</time></trkpt><trkpt lat="43.15075651807259" lon="12.177594944355665"><ele>264.6666666666667</ele><time>2026-04-19T09:23:32Z</time></trkpt><trkpt lat="43.15061026546899" lon="12.177367594209525"><ele>265.33333333333337</ele><time>2026-04-19T09:23:33Z</time></trkpt><trkpt lat="43.15046540963191" lon="12.177146433451632"><ele>266.0</ele><time>2026-04-19T09:23:34Z</time></trkpt><trkpt lat="43.15032907782082" lon="12.176918743476095"><ele>266.0</ele><time>2026-04-19T09:23:35Z</time></trkpt><trkpt lat="43.150191304462474" lon="12.176688679351013"><ele>266.0</ele><time>2026-04-19T09:23:36Z</time></trkpt><trkpt lat="43.15008002806037" lon="12.176441176376683"><ele>266.0</ele><time>2026-04-19T09:23:37Z</time></trkpt><trkpt lat="43.14999153323872" lon="12.176181994315266"><ele>265.6666666666667</ele><time>2026-04-19T09:23:38Z</time></trkpt><trkpt lat="43.14991725870342" lon="12.175912960278895"><ele>265.3333333333333</ele><time>2026-04-19T09:23:39Z</time></trkpt><trkpt lat="43.14985128499335" lon="12.175638130561246"><ele>265.0</ele><time>2026-04-19T09:23:40Z</time></trkpt><trkpt lat="43.14979964252314" lon="12.175362683882584"><ele>267.3333333333333</ele><time>2026-04-19T09:23:41Z</time></trkpt><trkpt lat="43.149770671728426" lon="12.175085432967496"><ele>269.6666666666667</ele><time>2026-04-19T09:23:42Z</time></trkpt><trkpt lat="43.149759269979455" lon="12.174807761632419"><ele>272.0</ele><time>2026-04-19T09:23:43Z</time></trkpt><trkpt lat="43.14976492384658" lon="12.174532873160242"><ele>272.0</ele><time>2026-04-19T09:23:44Z</time></trkpt><trkpt lat="43.14977869449129" lon="12.17425610913266"><ele>272.0</ele><time>2026-04-19T09:23:45Z</time></trkpt><trkpt lat="43.14978483017427" lon="12.17397551733782"><ele>272.0</ele><time>2026-04-19T09:23:46Z</time></trkpt><trkpt lat="43.149781078768235" lon="12.17369857565435"><ele>271.33333333333337</ele><time>2026-04-19T09:23:47Z</time></trkpt><trkpt lat="43.14977824247672" lon="12.173422242041921"><ele>270.6666666666667</ele><time>2026-04-19T09:23:48Z</time></trkpt><trkpt lat="43.149777193745905" lon="12.173145052306722"><ele>270.0</ele><time>2026-04-19T09:23:49Z</time></trkpt><trkpt lat="43.14977516143797" lon="12.172870174854067"><ele>270.0</ele><time>2026-04-19T09:23:50Z</time></trkpt><trkpt lat="43.149773079952496" lon="12.172591634847741"><ele>270.0</ele><time>2026-04-19T09:23:51Z</time></trkpt><trkpt lat="43.149776995330164" lon="12.172315540318873"><ele>270.0</ele><time>2026-04-19T09:23:52Z</time></trkpt><trkpt lat="43.149783715262835" lon="12.172046694346392"><ele>270.3333333333333</ele><time>2026-04-19T09:23:53Z</time></trkpt><trkpt lat="43.14978555196381" lon="12.171776603381876"><ele>270.66666666666663</ele><time>2026-04-19T09:23:54Z</time></trkpt><trkpt lat="43.149767904690826" lon="12.171515436745619"><ele>271.0</ele><time>2026-04-19T09:23:55Z</time></trkpt><trkpt lat="43.149729870337104" lon="12.171255178633658"><ele>271.0</ele><time>2026-04-19T09:23:56Z</time></trkpt><trkpt lat="43.14966749006384" lon="12.170999001574815"><ele>271.0</ele><time>2026-04-19T09:23:57Z</time></trkpt><trkpt lat="43.149583874424515" lon="12.170746455516506"><ele>271.0</ele><time>2026-04-19T09:23:58Z</time></trkpt><trkpt lat="43.14947863292623" lon="12.17050961758111"><ele>272.66666666666663</ele><time>2026-04-19T09:23:59Z</time></trkpt><trkpt lat="43.14934602705719" lon="12.170313856131278"><ele>274.3333333333333</ele><time>2026-04-19T09:24:00Z</time></trkpt><trkpt lat="43.149180975122476" lon="12.170142313417525"><ele>276.0</ele><time>2026-04-19T09:24:01Z</time></trkpt><trkpt lat="43.14901090479649" lon="12.169983861272867"><ele>274.3333333333333</ele><time>2026-04-19T09:24:02Z</time></trkpt><trkpt lat="43.148823937269455" lon="12.169832427973997"><ele>272.66666666666663</ele><time>2026-04-19T09:24:03Z</time></trkpt><trkpt lat="43.14863013473474" lon="12.169680323169672"><ele>271.0</ele><time>2026-04-19T09:24:04Z</time></trkpt><trkpt lat="43.1484448051269" lon="12.169507415561071"><ele>271.0</ele><time>2026-04-19T09:24:05Z</time></trkpt><trkpt lat="43.148263694379374" lon="12.16932317929378"><ele>271.0</ele><time>2026-04-19T09:24:06Z</time></trkpt><trkpt lat="43.148085694743834" lon="12.169159174209655"><ele>271.0</ele><time>2026-04-19T09:24:07Z</time></trkpt><trkpt lat="43.14791156537698" lon="12.169007626849922"><ele>274.3333333333333</ele><time>2026-04-19T09:24:08Z</time></trkpt><trkpt lat="43.14775073533649" lon="12.168849997951463"><ele>277.6666666666667</ele><time>2026-04-19T09:24:09Z</time></trkpt><trkpt lat="43.1476007843972" lon="12.168672874953463"><ele>281.0</ele><time>2026-04-19T09:24:10Z</time></trkpt><trkpt lat="43.147450114101375" lon="12.168485469914343"><ele>282.33333333333337</ele><time>2026-04-19T09:24:11Z</time></trkpt><trkpt lat="43.14729535102858" lon="12.16830863732855"><ele>283.6666666666667</ele><time>2026-04-19T09:24:12Z</time></trkpt><trkpt lat="43.14713637331215" lon="12.16813945513693"><ele>285.0</ele><time>2026-04-19T09:24:13Z</time></trkpt><trkpt lat="43.146992956686454" lon="12.167984402371914"><ele>285.0</ele><time>2026-04-19T09:24:14Z</time></trkpt><trkpt lat="43.14686473820295" lon="12.167828349883402"><ele>285.0</ele><time>2026-04-19T09:24:15Z</time></trkpt><trkpt lat="43.14675013581733" lon="12.167660327158291"><ele>285.0</ele><time>2026-04-19T09:24:16Z</time></trkpt><trkpt lat="43.146646111899294" lon="12.167481032906055"><ele>286.3333333333333</ele><time>2026-04-19T09:24:17Z</time></trkpt><trkpt lat="43.1465461840857" lon="12.167286357789779"><ele>287.66666666666663</ele><time>2026-04-19T09:24:18Z</time></trkpt><trkpt lat="43.1464533985419" lon="12.167081296239182"><ele>289.0</ele><time>2026-04-19T09:24:19Z</time></trkpt><trkpt lat="43.14636448807398" lon="12.166878641360066"><ele>289.0</ele><time>2026-04-19T09:24:20Z</time></trkpt><trkpt lat="43.14628046401649" lon="12.166676632627738"><ele>289.0</ele><time>2026-04-19T09:24:21Z</time></trkpt><trkpt lat="43.14619839458854" lon="12.166469295300564"><ele>289.0</ele><time>2026-04-19T09:24:22Z</time></trkpt><trkpt lat="43.14610785126663" lon="12.16627074854515"><ele>287.75</ele><time>2026-04-19T09:24:23Z</time></trkpt><trkpt lat="43.146026622630075" lon="12.166085288483872"><ele>286.5</ele><time>2026-04-19T09:24:24Z</time></trkpt><trkpt lat="43.14596538591099" lon="12.16590721219224"><ele>285.25</ele><time>2026-04-19T09:24:25Z</time></trkpt><trkpt lat="43.145914292737736" lon="12.165722255637132"><ele>284.0</ele><time>2026-04-19T09:24:26Z</time></trkpt><trkpt lat="43.145871024242446" lon="12.165518753013918"><ele>283.5</ele><time>2026-04-19T09:24:27Z</time></trkpt><trkpt lat="43.14584416850513" lon="12.165325023529912"><ele>283.0</ele><time>2026-04-19T09:24:28Z</time></trkpt><trkpt lat="43.145814888757016" lon="12.165127269242243"><ele>282.5</ele><time>2026-04-19T09:24:29Z</time></trkpt><trkpt lat="43.1457664047335" lon="12.164927127366242"><ele>282.0</ele><time>2026-04-19T09:24:30Z</time></trkpt><trkpt lat="43.14569433133133" lon="12.164727948078093"><ele>283.6666666666667</ele><time>2026-04-19T09:24:31Z</time></trkpt><trkpt lat="43.14560535759349" lon="12.164539695869857"><ele>285.33333333333337</ele><time>2026-04-19T09:24:32Z</time></trkpt><trkpt lat="43.145512498658015" lon="12.164364237183209"><ele>287.0</ele><time>2026-04-19T09:24:33Z</time></trkpt><trkpt lat="43.145423978043084" lon="12.164210956214674"><ele>287.0</ele><time>2026-04-19T09:24:34Z</time></trkpt><trkpt lat="43.145346981907345" lon="12.164064810961866"><ele>287.0</ele><time>2026-04-19T09:24:35Z</time></trkpt><trkpt lat="43.145274576544324" lon="12.163923119728365"><ele>287.0</ele><time>2026-04-19T09:24:36Z</time></trkpt><trkpt lat="43.145187356201376" lon="12.163822463757056"><ele>287.0</ele><time>2026-04-19T09:24:37Z</time></trkpt><trkpt lat="43.14510569362326" lon="12.163766909748876"><ele>287.0</ele><time>2026-04-19T09:24:38Z</time></trkpt><trkpt lat="43.14503751909687" lon="12.163747385672544"><ele>287.0</ele><time>2026-04-19T09:24:39Z</time></trkpt><trkpt lat="43.144931573520864" lon="12.163743374416908"><ele>287.0</ele><time>2026-04-19T09:24:41Z</time></trkpt><trkpt lat="43.14483236513703" lon="12.163749126516137"><ele>287.0</ele><time>2026-04-19T09:24:43Z</time></trkpt><trkpt lat="43.14492537862023" lon="12.164030526666622"><ele>287.0</ele><time>2026-04-19T09:24:44Z</time></trkpt><trkpt lat="43.14492554925812" lon="12.164121699412501"><ele>287.0</ele><time>2026-04-19T09:24:45Z</time></trkpt><trkpt lat="43.1449575850474" lon="12.164216959814102"><ele>287.0</ele><time>2026-04-19T09:24:46Z</time></trkpt><trkpt lat="43.145019725712146" lon="12.164324449775227"><ele>287.0</ele><time>2026-04-19T09:24:47Z</time></trkpt><trkpt lat="43.14511783660023" lon="12.164437344593614"><ele>287.0</ele><time>2026-04-19T09:24:48Z</time></trkpt><trkpt lat="43.14524128708629" lon="12.164554649574528"><ele>287.0</ele><time>2026-04-19T09:24:49Z</time></trkpt><trkpt lat="43.14534462347124" lon="12.164684099465838"><ele>287.0</ele><time>2026-04-19T09:24:50Z</time></trkpt><trkpt lat="43.145401947735664" lon="12.164818535653158"><ele>287.0</ele><time>2026-04-19T09:24:51Z</time></trkpt><trkpt lat="43.14541784060042" lon="12.164958862214043"><ele>287.0</ele><time>2026-04-19T09:24:52Z</time></trkpt><trkpt lat="43.14539330052894" lon="12.165095705640438"><ele>288.75</ele><time>2026-04-19T09:24:53Z</time></trkpt><trkpt lat="43.1453130368651" lon="12.165210227036164"><ele>290.5</ele><time>2026-04-19T09:24:54Z</time></trkpt><trkpt lat="43.145200342375105" lon="12.165316455532404"><ele>292.25</ele><time>2026-04-19T09:24:55Z</time></trkpt><trkpt lat="43.145056858555826" lon="12.165382324806533"><ele>294.0</ele><time>2026-04-19T09:24:56Z</time></trkpt><trkpt lat="43.14488103956717" lon="12.165427377509618"><ele>293.0</ele><time>2026-04-19T09:24:57Z</time></trkpt><trkpt lat="43.14467035756819" lon="12.165486501551625"><ele>292.0</ele><time>2026-04-19T09:24:58Z</time></trkpt><trkpt lat="43.1444871462478" lon="12.16551324280743"><ele>291.0</ele><time>2026-04-19T09:24:59Z</time></trkpt><trkpt lat="43.14433608291902" lon="12.165556013647826"><ele>291.0</ele><time>2026-04-19T09:25:00Z</time></trkpt><trkpt lat="43.1442058175284" lon="12.165595267470648"><ele>291.0</ele><time>2026-04-19T09:25:01Z</time></trkpt><trkpt lat="43.144080176642085" lon="12.16567113239043"><ele>291.0</ele><time>2026-04-19T09:25:02Z</time></trkpt><trkpt lat="43.14396050927563" lon="12.165780993974405"><ele>291.0</ele><time>2026-04-19T09:25:03Z</time></trkpt><trkpt lat="43.14385546680874" lon="12.165923904683705"><ele>293.0</ele><time>2026-04-19T09:25:04Z</time></trkpt><trkpt lat="43.14377538966379" lon="12.166098124546268"><ele>295.0</ele><time>2026-04-19T09:25:05Z</time></trkpt><trkpt lat="43.14373334712482" lon="12.166326220345466"><ele>297.0</ele><time>2026-04-19T09:25:06Z</time></trkpt><trkpt lat="43.143725891406135" lon="12.166552602892212"><ele>298.6666666666667</ele><time>2026-04-19T09:25:07Z</time></trkpt><trkpt lat="43.14375364290048" lon="12.166798892947886"><ele>300.33333333333337</ele><time>2026-04-19T09:25:08Z</time></trkpt><trkpt lat="43.14381817665329" lon="12.167087045582187"><ele>302.0</ele><time>2026-04-19T09:25:09Z</time></trkpt><trkpt lat="43.143891819769486" lon="12.167384554694877"><ele>303.5</ele><time>2026-04-19T09:25:10Z</time></trkpt><trkpt lat="43.1439928553875" lon="12.167678881244685"><ele>305.0</ele><time>2026-04-19T09:25:11Z</time></trkpt><trkpt lat="43.144124615777294" lon="12.167986943507595"><ele>311.6666666666667</ele><time>2026-04-19T09:25:12Z</time></trkpt><trkpt lat="43.14423271268837" lon="12.168245520311139"><ele>318.3333333333333</ele><time>2026-04-19T09:25:13Z</time></trkpt><trkpt lat="43.14430229172297" lon="12.168476404608057"><ele>325.0</ele><time>2026-04-19T09:25:14Z</time></trkpt><trkpt lat="43.144350676893964" lon="12.168696854428449"><ele>325.0</ele><time>2026-04-19T09:25:15Z</time></trkpt><trkpt lat="43.14432213602121" lon="12.168934187799481"><ele>325.0</ele><time>2026-04-19T09:25:16Z</time></trkpt><trkpt lat="43.14431312839991" lon="12.169211694970114"><ele>325.0</ele><time>2026-04-19T09:25:17Z</time></trkpt><trkpt lat="43.14429998853478" lon="12.16950217291239"><ele>325.66666666666663</ele><time>2026-04-19T09:25:18Z</time></trkpt><trkpt lat="43.144319368415324" lon="12.169807896261263"><ele>326.3333333333333</ele><time>2026-04-19T09:25:19Z</time></trkpt><trkpt lat="43.144353535305356" lon="12.17008535843819"><ele>327.0</ele><time>2026-04-19T09:25:20Z</time></trkpt><trkpt lat="43.144395629741176" lon="12.170338878210904"><ele>326.6666666666667</ele><time>2026-04-19T09:25:21Z</time></trkpt><trkpt lat="43.14446708691293" lon="12.170588388804216"><ele>326.33333333333337</ele><time>2026-04-19T09:25:22Z</time></trkpt><trkpt lat="43.14455735370741" lon="12.170840283584575"><ele>326.0</ele><time>2026-04-19T09:25:23Z</time></trkpt><trkpt lat="43.14465256884043" lon="12.171094494547143"><ele>326.0</ele><time>2026-04-19T09:25:24Z</time></trkpt><trkpt lat="43.1447425711236" lon="12.171319693941868"><ele>326.0</ele><time>2026-04-19T09:25:25Z</time></trkpt><trkpt lat="43.14483250151732" lon="12.171510089110473"><ele>326.0</ele><time>2026-04-19T09:25:26Z</time></trkpt><trkpt lat="43.1448978761228" lon="12.171701746078586"><ele>329.25</ele><time>2026-04-19T09:25:27Z</time></trkpt><trkpt lat="43.14496452142585" lon="12.171864341528"><ele>332.5</ele><time>2026-04-19T09:25:28Z</time></trkpt><trkpt lat="43.14496755705024" lon="12.172048130451287"><ele>335.75</ele><time>2026-04-19T09:25:29Z</time></trkpt><trkpt lat="43.14493890473582" lon="12.172234532407582"><ele>339.0</ele><time>2026-04-19T09:25:30Z</time></trkpt><trkpt lat="43.14483686134533" lon="12.172381976812908"><ele>342.0</ele><time>2026-04-19T09:25:31Z</time></trkpt><trkpt lat="43.144704261714196" lon="12.172521402788753"><ele>345.0</ele><time>2026-04-19T09:25:32Z</time></trkpt><trkpt lat="43.14454930454281" lon="12.172707159177254"><ele>348.0</ele><time>2026-04-19T09:25:33Z</time></trkpt><trkpt lat="43.14437412918226" lon="12.172880175723744"><ele>348.0</ele><time>2026-04-19T09:25:34Z</time></trkpt><trkpt lat="43.14424147681045" lon="12.173027146225342"><ele>348.0</ele><time>2026-04-19T09:25:35Z</time></trkpt><trkpt lat="43.144130567038516" lon="12.173147900836698"><ele>348.0</ele><time>2026-04-19T09:25:36Z</time></trkpt><trkpt lat="43.14404737438192" lon="12.173300490150403"><ele>351.6666666666667</ele><time>2026-04-19T09:25:37Z</time></trkpt><trkpt lat="43.1439966623692" lon="12.173480824505265"><ele>355.33333333333337</ele><time>2026-04-19T09:25:38Z</time></trkpt><trkpt lat="43.143984980966195" lon="12.173686706524087"><ele>359.0</ele><time>2026-04-19T09:25:39Z</time></trkpt><trkpt lat="43.14399235887954" lon="12.17391560449223"><ele>359.5</ele><time>2026-04-19T09:25:40Z</time></trkpt><trkpt lat="43.143996689806265" lon="12.174140559381968"><ele>360.0</ele><time>2026-04-19T09:25:41Z</time></trkpt><trkpt lat="43.14399865849092" lon="12.174334925076337"><ele>360.5</ele><time>2026-04-19T09:25:42Z</time></trkpt><trkpt lat="43.144001604990784" lon="12.174500273104398"><ele>361.0</ele><time>2026-04-19T09:25:43Z</time></trkpt><trkpt lat="43.144009464650175" lon="12.174655958317341"><ele>361.0</ele><time>2026-04-19T09:25:44Z</time></trkpt><trkpt lat="43.14401706707336" lon="12.174826604849487"><ele>361.0</ele><time>2026-04-19T09:25:45Z</time></trkpt><trkpt lat="43.14403187441054" lon="12.174998717136063"><ele>361.0</ele><time>2026-04-19T09:25:46Z</time></trkpt><trkpt lat="43.144047584607236" lon="12.175151016187685"><ele>361.0</ele><time>2026-04-19T09:25:47Z</time></trkpt><trkpt lat="43.14405533456464" lon="12.17529141074408"><ele>361.8</ele><time>2026-04-19T09:25:48Z</time></trkpt><trkpt lat="43.144054293315584" lon="12.175441103713435"><ele>362.6</ele><time>2026-04-19T09:25:49Z</time></trkpt><trkpt lat="43.14404364661357" lon="12.175597563673787"><ele>363.4</ele><time>2026-04-19T09:25:50Z</time></trkpt><trkpt lat="43.1440284163908" lon="12.175748017690518"><ele>364.2</ele><time>2026-04-19T09:25:51Z</time></trkpt><trkpt lat="43.144011509906846" lon="12.175879276041387"><ele>365.0</ele><time>2026-04-19T09:25:52Z</time></trkpt><trkpt lat="43.143998702217964" lon="12.17598587965862"><ele>366.0</ele><time>2026-04-19T09:25:53Z</time></trkpt><trkpt lat="43.14399164626503" lon="12.176095121665561"><ele>367.0</ele><time>2026-04-19T09:25:54Z</time></trkpt><trkpt lat="43.14398200848311" lon="12.176205279374237"><ele>368.0</ele><time>2026-04-19T09:25:55Z</time></trkpt><trkpt lat="43.1439743116337" lon="12.176292656741355"><ele>369.0</ele><time>2026-04-19T09:25:56Z</time></trkpt><trkpt lat="43.14395801082977" lon="12.17643335438347"><ele>370.0</ele><time>2026-04-19T09:25:58Z</time></trkpt><trkpt lat="43.14396160930675" lon="12.17656152383733"><ele>371.0</ele><time>2026-04-19T09:26:00Z</time></trkpt><trkpt lat="43.143972990410894" lon="12.176648456622862"><ele>371.0</ele><time>2026-04-19T09:26:02Z</time></trkpt><trkpt lat="43.14398099678732" lon="12.176561644360397"><ele>371.0</ele><time>2026-04-19T09:26:12Z</time></trkpt><trkpt lat="43.14394493237669" lon="12.176483783615703"><ele>371.0</ele><time>2026-04-19T09:26:13Z</time></trkpt><trkpt lat="43.14394641252987" lon="12.176387069425267"><ele>371.0</ele><time>2026-04-19T09:26:15Z</time></trkpt><trkpt lat="43.14375182695136" lon="12.176643593403263"><ele>372.20000000000005</ele><time>2026-04-19T09:26:21Z</time></trkpt><trkpt lat="43.14374251039159" lon="12.17681975546288"><ele>373.40000000000003</ele><time>2026-04-19T09:26:23Z</time></trkpt><trkpt lat="43.14375415258381" lon="12.17692662914097"><ele>374.6</ele><time>2026-04-19T09:26:24Z</time></trkpt><trkpt lat="43.143754304482606" lon="12.177047243404095"><ele>375.8</ele><time>2026-04-19T09:26:25Z</time></trkpt><trkpt lat="43.14373745636081" lon="12.177153873260263"><ele>377.0</ele><time>2026-04-19T09:26:26Z</time></trkpt><trkpt lat="43.14373428023928" lon="12.177269443084436"><ele>378.33333333333337</ele><time>2026-04-19T09:26:27Z</time></trkpt><trkpt lat="43.14372575583735" lon="12.17740257252222"><ele>379.6666666666667</ele><time>2026-04-19T09:26:28Z</time></trkpt><trkpt lat="43.14371281190534" lon="12.177521148277043"><ele>381.0</ele><time>2026-04-19T09:26:29Z</time></trkpt><trkpt lat="43.14368802990662" lon="12.17761237493273"><ele>382.33333333333337</ele><time>2026-04-19T09:26:30Z</time></trkpt><trkpt lat="43.143655480357125" lon="12.177686904699504"><ele>383.6666666666667</ele><time>2026-04-19T09:26:31Z</time></trkpt><trkpt lat="43.14355727722706" lon="12.17773993689208"><ele>385.0</ele><time>2026-04-19T09:26:33Z</time></trkpt><trkpt lat="43.14342003945806" lon="12.177717677051591"><ele>385.0</ele><time>2026-04-19T09:26:35Z</time></trkpt><trkpt lat="43.14332515095755" lon="12.177705295774057"><ele>385.0</ele><time>2026-04-19T09:26:36Z</time></trkpt><trkpt lat="43.143220639172505" lon="12.177691865160323"><ele>385.0</ele><time>2026-04-19T09:26:37Z</time></trkpt><trkpt lat="43.14309455588042" lon="12.177677109557107"><ele>385.0</ele><time>2026-04-19T09:26:38Z</time></trkpt><trkpt lat="43.14297805630026" lon="12.17766347554129"><ele>385.0</ele><time>2026-04-19T09:26:39Z</time></trkpt><trkpt lat="43.142876990784806" lon="12.177651647778488"><ele>385.1666666666667</ele><time>2026-04-19T09:26:40Z</time></trkpt><trkpt lat="43.142788210821" lon="12.177635619593286"><ele>385.33333333333337</ele><time>2026-04-19T09:26:41Z</time></trkpt><trkpt lat="43.14269569646615" lon="12.177610583851113"><ele>385.5</ele><time>2026-04-19T09:26:42Z</time></trkpt><trkpt lat="43.142615222786574" lon="12.177586683905803"><ele>385.66666666666663</ele><time>2026-04-19T09:26:43Z</time></trkpt><trkpt lat="43.14254178383315" lon="12.177586372520658"><ele>385.8333333333333</ele><time>2026-04-19T09:26:44Z</time></trkpt><trkpt lat="43.14247384377657" lon="12.177547611707398"><ele>386.0</ele><time>2026-04-19T09:26:45Z</time></trkpt><trkpt lat="43.142392734180525" lon="12.177552232055024"><ele>384.8</ele><time>2026-04-19T09:26:46Z</time></trkpt><trkpt lat="43.1423249165456" lon="12.177532651851719"><ele>383.6</ele><time>2026-04-19T09:26:47Z</time></trkpt><trkpt lat="43.14222703797322" lon="12.177565158499958"><ele>382.4</ele><time>2026-04-19T09:26:49Z</time></trkpt><trkpt lat="43.14211476870634" lon="12.177592395988583"><ele>381.2</ele><time>2026-04-19T09:26:51Z</time></trkpt><trkpt lat="43.14207537826073" lon="12.177778868293903"><ele>380.0</ele><time>2026-04-19T09:26:52Z</time></trkpt><trkpt lat="43.14200262787634" lon="12.177869553428314"><ele>380.0</ele><time>2026-04-19T09:26:53Z</time></trkpt><trkpt lat="43.141953402855144" lon="12.178007391663758"><ele>380.0</ele><time>2026-04-19T09:26:54Z</time></trkpt><trkpt lat="43.14187332469922" lon="12.178124287058537"><ele>380.0</ele><time>2026-04-19T09:26:55Z</time></trkpt><trkpt lat="43.14182379994197" lon="12.178211933077844"><ele>380.0</ele><time>2026-04-19T09:26:56Z</time></trkpt><trkpt lat="43.1417754470021" lon="12.178272978142772"><ele>380.0</ele><time>2026-04-19T09:26:57Z</time></trkpt><trkpt lat="43.14169236749724" lon="12.1782855933854"><ele>381.4</ele><time>2026-04-19T09:26:58Z</time></trkpt><trkpt lat="43.14159979223214" lon="12.178335272390528"><ele>382.8</ele><time>2026-04-19T09:26:59Z</time></trkpt><trkpt lat="43.14152590028732" lon="12.178405853837477"><ele>384.20000000000005</ele><time>2026-04-19T09:27:00Z</time></trkpt><trkpt lat="43.14144818273059" lon="12.178455224060713"><ele>385.6</ele><time>2026-04-19T09:27:01Z</time></trkpt><trkpt lat="43.14137572686329" lon="12.17854522112998"><ele>387.0</ele><time>2026-04-19T09:27:02Z</time></trkpt><trkpt lat="43.141268971805175" lon="12.17863703354896"><ele>387.0</ele><time>2026-04-19T09:27:03Z</time></trkpt><trkpt lat="43.14116982880796" lon="12.17874010514173"><ele>387.0</ele><time>2026-04-19T09:27:04Z</time></trkpt><trkpt lat="43.14106208292704" lon="12.178848174210406"><ele>387.0</ele><time>2026-04-19T09:27:05Z</time></trkpt><trkpt lat="43.14095057116108" lon="12.178944740406305"><ele>387.0</ele><time>2026-04-19T09:27:06Z</time></trkpt><trkpt lat="43.140866556905074" lon="12.179042828925853"><ele>386.5</ele><time>2026-04-19T09:27:07Z</time></trkpt><trkpt lat="43.14078027381568" lon="12.179105464438207"><ele>386.0</ele><time>2026-04-19T09:27:08Z</time></trkpt><trkpt lat="43.14070017730812" lon="12.179179772836163"><ele>385.5</ele><time>2026-04-19T09:27:09Z</time></trkpt><trkpt lat="43.1406271859114" lon="12.179247569587508"><ele>385.0</ele><time>2026-04-19T09:27:10Z</time></trkpt><trkpt lat="43.14058237761021" lon="12.179325606258937"><ele>384.5</ele><time>2026-04-19T09:27:11Z</time></trkpt><trkpt lat="43.14053386246605" lon="12.179418829108274"><ele>384.0</ele><time>2026-04-19T09:27:12Z</time></trkpt><trkpt lat="43.1404930837173" lon="12.179522860847332"><ele>384.0</ele><time>2026-04-19T09:27:13Z</time></trkpt><trkpt lat="43.140465394618076" lon="12.17964565689701"><ele>384.0</ele><time>2026-04-19T09:27:14Z</time></trkpt><trkpt lat="43.14044622162835" lon="12.179765187388304"><ele>384.0</ele><time>2026-04-19T09:27:15Z</time></trkpt><trkpt lat="43.14043500079205" lon="12.179867774868711"><ele>384.0</ele><time>2026-04-19T09:27:16Z</time></trkpt><trkpt lat="43.14041821923141" lon="12.179954674143836"><ele>384.0</ele><time>2026-04-19T09:27:17Z</time></trkpt><trkpt lat="43.14039253650294" lon="12.180104750688955"><ele>384.0</ele><time>2026-04-19T09:27:19Z</time></trkpt><trkpt lat="43.140380940507875" lon="12.180200204936682"><ele>385.5</ele><time>2026-04-19T09:27:20Z</time></trkpt><trkpt lat="43.140377430517354" lon="12.180311941072745"><ele>387.0</ele><time>2026-04-19T09:27:21Z</time></trkpt><trkpt lat="43.14040188752224" lon="12.180464499683152"><ele>388.5</ele><time>2026-04-19T09:27:22Z</time></trkpt><trkpt lat="43.140409042988956" lon="12.180652025130573"><ele>390.0</ele><time>2026-04-19T09:27:23Z</time></trkpt><trkpt lat="43.14040444699174" lon="12.180833767095029"><ele>391.6</ele><time>2026-04-19T09:27:24Z</time></trkpt><trkpt lat="43.140408321277" lon="12.181004740845033"><ele>393.2</ele><time>2026-04-19T09:27:25Z</time></trkpt><trkpt lat="43.14042714256303" lon="12.181153916518205"><ele>394.79999999999995</ele><time>2026-04-19T09:27:26Z</time></trkpt><trkpt lat="43.14043362931599" lon="12.18128497477659"><ele>396.4</ele><time>2026-04-19T09:27:27Z</time></trkpt><trkpt lat="43.14044788666066" lon="12.181399759594328"><ele>398.0</ele><time>2026-04-19T09:27:28Z</time></trkpt><trkpt lat="43.14047984321931" lon="12.18153009346588"><ele>399.59999999999997</ele><time>2026-04-19T09:27:29Z</time></trkpt><trkpt lat="43.14050980485647" lon="12.181684005843348"><ele>401.2</ele><time>2026-04-19T09:27:30Z</time></trkpt><trkpt lat="43.14053621235038" lon="12.181836398570907"><ele>402.8</ele><time>2026-04-19T09:27:31Z</time></trkpt><trkpt lat="43.14054762946708" lon="12.181966249855858"><ele>404.4</ele><time>2026-04-19T09:27:32Z</time></trkpt><trkpt lat="43.140553066984396" lon="12.182067450358607"><ele>406.0</ele><time>2026-04-19T09:27:33Z</time></trkpt><trkpt lat="43.1405458612939" lon="12.18219091492844"><ele>406.00000000000006</ele><time>2026-04-19T09:27:35Z</time></trkpt><trkpt lat="43.1406521775382" lon="12.182257400084469"><ele>406.0</ele><time>2026-04-19T09:27:36Z</time></trkpt><trkpt lat="43.14070122682731" lon="12.18232167226594"><ele>406.0</ele><time>2026-04-19T09:27:37Z</time></trkpt><trkpt lat="43.14075924585604" lon="12.182396330963753"><ele>406.0</ele><time>2026-04-19T09:27:38Z</time></trkpt><trkpt lat="43.14081596492541" lon="12.18246130891469"><ele>406.00000000000006</ele><time>2026-04-19T09:27:39Z</time></trkpt><trkpt lat="43.14087981463294" lon="12.182549232716822"><ele>406.0</ele><time>2026-04-19T09:27:41Z</time></trkpt><trkpt lat="43.140912638338385" lon="12.182726388215993"><ele>412.0</ele><time>2026-04-19T09:27:50Z</time></trkpt><trkpt lat="43.14074477384033" lon="12.182114820819733"><ele>410.8</ele><time>2026-04-19T09:27:52Z</time></trkpt><trkpt lat="43.140714481477964" lon="12.182321417659013"><ele>409.6</ele><time>2026-04-19T09:27:53Z</time></trkpt><trkpt lat="43.140664985334254" lon="12.182255826652748"><ele>408.40000000000003</ele><time>2026-04-19T09:27:54Z</time></trkpt><trkpt lat="43.14062218969839" lon="12.18218968705973"><ele>407.20000000000005</ele><time>2026-04-19T09:27:55Z</time></trkpt><trkpt lat="43.14056412730538" lon="12.182043907225113"><ele>406.0</ele><time>2026-04-19T09:27:57Z</time></trkpt><trkpt lat="43.140552413479696" lon="12.181952741488015"><ele>406.00000000000006</ele><time>2026-04-19T09:27:58Z</time></trkpt><trkpt lat="43.140546284714304" lon="12.181829684343572"><ele>406.0</ele><time>2026-04-19T09:27:59Z</time></trkpt><trkpt lat="43.14053076658494" lon="12.181720199302285"><ele>406.0</ele><time>2026-04-19T09:28:00Z</time></trkpt><trkpt lat="43.14051226242682" lon="12.181634733848616"><ele>406.0</ele><time>2026-04-19T09:28:01Z</time></trkpt><trkpt lat="43.140462045991704" lon="12.181465965588819"><ele>406.00000000000006</ele><time>2026-04-19T09:28:03Z</time></trkpt><trkpt lat="43.14044283399676" lon="12.181373901604289"><ele>406.0</ele><time>2026-04-19T09:28:04Z</time></trkpt><trkpt lat="43.14042980749811" lon="12.181284663740117"><ele>404.6666666666667</ele><time>2026-04-19T09:28:05Z</time></trkpt><trkpt lat="43.14042457974109" lon="12.18116661641409"><ele>403.33333333333337</ele><time>2026-04-19T09:28:06Z</time></trkpt><trkpt lat="43.140427340005395" lon="12.181047637133677"><ele>402.0</ele><time>2026-04-19T09:28:07Z</time></trkpt><trkpt lat="43.140424397548415" lon="12.18093342438443"><ele>400.66666666666663</ele><time>2026-04-19T09:28:08Z</time></trkpt><trkpt lat="43.140418027501966" lon="12.180818877860771"><ele>399.3333333333333</ele><time>2026-04-19T09:28:09Z</time></trkpt><trkpt lat="43.14041556615866" lon="12.180716582229625"><ele>398.0</ele><time>2026-04-19T09:28:10Z</time></trkpt><trkpt lat="43.140411657176685" lon="12.180613447760381"><ele>396.66666666666663</ele><time>2026-04-19T09:28:11Z</time></trkpt><trkpt lat="43.14040646995435" lon="12.180511870547514"><ele>395.3333333333333</ele><time>2026-04-19T09:28:12Z</time></trkpt><trkpt lat="43.140395559416554" lon="12.180409659108896"><ele>394.0</ele><time>2026-04-19T09:28:13Z</time></trkpt><trkpt lat="43.14038518443155" lon="12.18032295519241"><ele>392.66666666666663</ele><time>2026-04-19T09:28:14Z</time></trkpt><trkpt lat="43.14037552552628" lon="12.180166062387423"><ele>391.3333333333333</ele><time>2026-04-19T09:28:16Z</time></trkpt><trkpt lat="43.140428841796414" lon="12.180027577262639"><ele>390.0</ele><time>2026-04-19T09:28:18Z</time></trkpt><trkpt lat="43.14044212168866" lon="12.179935111794869"><ele>389.0</ele><time>2026-04-19T09:28:19Z</time></trkpt><trkpt lat="43.140453106872435" lon="12.179825064734286"><ele>388.0</ele><time>2026-04-19T09:28:20Z</time></trkpt><trkpt lat="43.14046906756658" lon="12.179724058667441"><ele>387.0</ele><time>2026-04-19T09:28:21Z</time></trkpt><trkpt lat="43.14049014867665" lon="12.179584958078424"><ele>386.0</ele><time>2026-04-19T09:28:23Z</time></trkpt><trkpt lat="43.14051873726649" lon="12.17950337063278"><ele>385.0</ele><time>2026-04-19T09:28:25Z</time></trkpt><trkpt lat="43.14048574802445" lon="12.179600216040784"><ele>384.0</ele><time>2026-04-19T09:28:35Z</time></trkpt><trkpt lat="43.14038367894331" lon="12.179550624371211"><ele>384.0</ele><time>2026-04-19T09:28:36Z</time></trkpt><trkpt lat="43.1403192488493" lon="12.179638878111595"><ele>384.0</ele><time>2026-04-19T09:28:38Z</time></trkpt><trkpt lat="43.140268101345924" lon="12.179708937926703"><ele>384.0</ele><time>2026-04-19T09:28:40Z</time></trkpt><trkpt lat="43.14020149378392" lon="12.179800174197595"><ele>384.0</ele><time>2026-04-19T09:28:43Z</time></trkpt><trkpt lat="43.14015652804205" lon="12.179861765426363"><ele>384.0</ele><time>2026-04-19T09:28:45Z</time></trkpt><trkpt lat="43.14013946705631" lon="12.179954252511653"><ele>384.0</ele><time>2026-04-19T09:28:48Z</time></trkpt><trkpt lat="43.14038547747584" lon="12.180397865161352"><ele>385.2</ele><time>2026-04-19T09:28:51Z</time></trkpt><trkpt lat="43.14039715360346" lon="12.180505494876929"><ele>386.4</ele><time>2026-04-19T09:29:13Z</time></trkpt><trkpt lat="43.14040843670816" lon="12.18067837485262"><ele>387.6</ele><time>2026-04-19T09:29:15Z</time></trkpt><trkpt lat="43.14041462924943" lon="12.180777299033789"><ele>388.8</ele><time>2026-04-19T09:29:16Z</time></trkpt><trkpt lat="43.14042167652043" lon="12.180891516185241"><ele>390.0</ele><time>2026-04-19T09:29:17Z</time></trkpt><trkpt lat="43.140409031877056" lon="12.181036099890658"><ele>392.0</ele><time>2026-04-19T09:29:18Z</time></trkpt><trkpt lat="43.14043034044974" lon="12.181206789825987"><ele>394.0</ele><time>2026-04-19T09:29:19Z</time></trkpt><trkpt lat="43.140434443713836" lon="12.181364300046296"><ele>396.0</ele><time>2026-04-19T09:29:20Z</time></trkpt><trkpt lat="43.14046711076811" lon="12.181492430720004"><ele>398.0</ele><time>2026-04-19T09:29:21Z</time></trkpt><trkpt lat="43.140499553565874" lon="12.18163716865692"><ele>399.59999999999997</ele><time>2026-04-19T09:29:22Z</time></trkpt><trkpt lat="43.14052584731113" lon="12.18177611341854"><ele>401.2</ele><time>2026-04-19T09:29:23Z</time></trkpt><trkpt lat="43.14054854603306" lon="12.181906032749591"><ele>402.8</ele><time>2026-04-19T09:29:24Z</time></trkpt><trkpt lat="43.1405561255977" lon="12.182038136511519"><ele>404.4</ele><time>2026-04-19T09:29:25Z</time></trkpt><trkpt lat="43.14054665655829" lon="12.182151392615786"><ele>406.0</ele><time>2026-04-19T09:29:26Z</time></trkpt><trkpt lat="43.14061405650383" lon="12.182231721119276"><ele>406.00000000000006</ele><time>2026-04-19T09:29:27Z</time></trkpt><trkpt lat="43.140661064261174" lon="12.182295143734356"><ele>406.0</ele><time>2026-04-19T09:29:28Z</time></trkpt><trkpt lat="43.140721547388736" lon="12.18235529463178"><ele>406.0</ele><time>2026-04-19T09:29:29Z</time></trkpt><trkpt lat="43.14080242646205" lon="12.182457475865197"><ele>406.0</ele><time>2026-04-19T09:29:30Z</time></trkpt><trkpt lat="43.1408535978116" lon="12.18252092857125"><ele>406.00000000000006</ele><time>2026-04-19T09:29:31Z</time></trkpt><trkpt lat="43.14090330439901" lon="12.18260370979753"><ele>406.0</ele><time>2026-04-19T09:29:34Z</time></trkpt><trkpt lat="43.14088398391904" lon="12.182734960218653"><ele>407.20000000000005</ele><time>2026-04-19T09:29:37Z</time></trkpt><trkpt lat="43.14083726997657" lon="12.182794573509161"><ele>408.40000000000003</ele><time>2026-04-19T09:29:38Z</time></trkpt><trkpt lat="43.140768825309856" lon="12.182844152450292"><ele>409.6</ele><time>2026-04-19T09:29:39Z</time></trkpt><trkpt lat="43.14068129803406" lon="12.182875749783374"><ele>410.8</ele><time>2026-04-19T09:29:40Z</time></trkpt><trkpt lat="43.14057581939348" lon="12.182901977438075"><ele>412.0</ele><time>2026-04-19T09:29:41Z</time></trkpt><trkpt lat="43.140464762063445" lon="12.182941138181887"><ele>412.5</ele><time>2026-04-19T09:29:42Z</time></trkpt><trkpt lat="43.140354032597145" lon="12.182981901876092"><ele>413.0</ele><time>2026-04-19T09:29:43Z</time></trkpt><trkpt lat="43.14027512423699" lon="12.183090458385198"><ele>413.5</ele><time>2026-04-19T09:29:44Z</time></trkpt><trkpt lat="43.140173789549905" lon="12.183178167500698"><ele>414.0</ele><time>2026-04-19T09:29:45Z</time></trkpt><trkpt lat="43.13995638100717" lon="12.183034365558802"><ele>414.5</ele><time>2026-04-19T09:29:46Z</time></trkpt><trkpt lat="43.13981591458675" lon="12.183022107459372"><ele>415.0</ele><time>2026-04-19T09:29:47Z</time></trkpt><trkpt lat="43.139693749242475" lon="12.183028198549003"><ele>415.5</ele><time>2026-04-19T09:29:48Z</time></trkpt><trkpt lat="43.13958226946174" lon="12.183066786006298"><ele>416.0</ele><time>2026-04-19T09:29:49Z</time></trkpt><trkpt lat="43.139482692145386" lon="12.18309263867579"><ele>416.0</ele><time>2026-04-19T09:29:50Z</time></trkpt><trkpt lat="43.13937750740788" lon="12.183083494811365"><ele>416.0</ele><time>2026-04-19T09:29:51Z</time></trkpt><trkpt lat="43.13928011790902" lon="12.183071656594425"><ele>416.0</ele><time>2026-04-19T09:29:52Z</time></trkpt><trkpt lat="43.13916758335095" lon="12.183098258742065"><ele>416.0</ele><time>2026-04-19T09:29:53Z</time></trkpt><trkpt lat="43.13906025827588" lon="12.18314005656102"><ele>416.0</ele><time>2026-04-19T09:29:54Z</time></trkpt><trkpt lat="43.13896877410703" lon="12.183167936402214"><ele>415.6</ele><time>2026-04-19T09:29:55Z</time></trkpt><trkpt lat="43.13888026728853" lon="12.183170827194616"><ele>415.20000000000005</ele><time>2026-04-19T09:29:56Z</time></trkpt><trkpt lat="43.13878683398168" lon="12.183161135985275"><ele>414.79999999999995</ele><time>2026-04-19T09:29:57Z</time></trkpt><trkpt lat="43.138690860915176" lon="12.183146374973067"><ele>414.4</ele><time>2026-04-19T09:29:58Z</time></trkpt><trkpt lat="43.13858992472829" lon="12.183130739987618"><ele>414.0</ele><time>2026-04-19T09:29:59Z</time></trkpt><trkpt lat="43.13848686158326" lon="12.183112636788412"><ele>414.0</ele><time>2026-04-19T09:30:00Z</time></trkpt><trkpt lat="43.13838627197998" lon="12.183093763362901"><ele>414.0</ele><time>2026-04-19T09:30:01Z</time></trkpt><trkpt lat="43.1382903873124" lon="12.18307573294252"><ele>414.0</ele><time>2026-04-19T09:30:02Z</time></trkpt><trkpt lat="43.138189752113426" lon="12.183057007604836"><ele>414.0</ele><time>2026-04-19T09:30:03Z</time></trkpt><trkpt lat="43.13808981371602" lon="12.183045529851487"><ele>414.0</ele><time>2026-04-19T09:30:04Z</time></trkpt><trkpt lat="43.137999310719636" lon="12.183036864618925"><ele>412.8333333333333</ele><time>2026-04-19T09:30:05Z</time></trkpt><trkpt lat="43.13791310599303" lon="12.183033032725682"><ele>411.66666666666663</ele><time>2026-04-19T09:30:06Z</time></trkpt><trkpt lat="43.13784221601478" lon="12.183029880108881"><ele>410.5</ele><time>2026-04-19T09:30:07Z</time></trkpt><trkpt lat="43.137774946208445" lon="12.18301965843081"><ele>409.3333333333333</ele><time>2026-04-19T09:30:08Z</time></trkpt><trkpt lat="43.137702709643" lon="12.182994168951971"><ele>408.16666666666663</ele><time>2026-04-19T09:30:09Z</time></trkpt><trkpt lat="43.13762175314152" lon="12.182944267068649"><ele>407.0</ele><time>2026-04-19T09:30:10Z</time></trkpt><trkpt lat="43.1375479794578" lon="12.182887407264348"><ele>407.0</ele><time>2026-04-19T09:30:11Z</time></trkpt><trkpt lat="43.1374750309885" lon="12.182828915787686"><ele>407.0</ele><time>2026-04-19T09:30:12Z</time></trkpt><trkpt lat="43.137391028669505" lon="12.182783284229213"><ele>407.0</ele><time>2026-04-19T09:30:13Z</time></trkpt><trkpt lat="43.13729246136323" lon="12.182744541175493"><ele>407.0</ele><time>2026-04-19T09:30:14Z</time></trkpt><trkpt lat="43.13719133820597" lon="12.182724521453423"><ele>407.0</ele><time>2026-04-19T09:30:15Z</time></trkpt><trkpt lat="43.13707219643845" lon="12.182728030518483"><ele>405.20000000000005</ele><time>2026-04-19T09:30:16Z</time></trkpt><trkpt lat="43.13694845421021" lon="12.18273452965345"><ele>403.4</ele><time>2026-04-19T09:30:17Z</time></trkpt><trkpt lat="43.136836327410236" lon="12.18273324566989"><ele>401.6</ele><time>2026-04-19T09:30:18Z</time></trkpt><trkpt lat="43.13673251741406" lon="12.18272900926476"><ele>399.79999999999995</ele><time>2026-04-19T09:30:19Z</time></trkpt><trkpt lat="43.13664467729975" lon="12.182725217338998"><ele>398.0</ele><time>2026-04-19T09:30:20Z</time></trkpt><trkpt lat="43.13656509459399" lon="12.182716631609507"><ele>396.75</ele><time>2026-04-19T09:30:21Z</time></trkpt><trkpt lat="43.13647615019248" lon="12.182681727923212"><ele>395.5</ele><time>2026-04-19T09:30:22Z</time></trkpt><trkpt lat="43.136365826272254" lon="12.182627647187829"><ele>394.25</ele><time>2026-04-19T09:30:23Z</time></trkpt><trkpt lat="43.136237883569194" lon="12.182572410140965"><ele>393.0</ele><time>2026-04-19T09:30:24Z</time></trkpt><trkpt lat="43.13612367017841" lon="12.182520350252698"><ele>393.0</ele><time>2026-04-19T09:30:25Z</time></trkpt><trkpt lat="43.13602557791702" lon="12.182479859546051"><ele>393.0</ele><time>2026-04-19T09:30:26Z</time></trkpt><trkpt lat="43.13594365853011" lon="12.182445176852468"><ele>393.0</ele><time>2026-04-19T09:30:27Z</time></trkpt><trkpt lat="43.1358756510806" lon="12.182409211931672"><ele>393.0</ele><time>2026-04-19T09:30:28Z</time></trkpt><trkpt lat="43.13580948120682" lon="12.182370862611622"><ele>393.0</ele><time>2026-04-19T09:30:29Z</time></trkpt><trkpt lat="43.135709347140384" lon="12.182288592483165"><ele>392.4</ele><time>2026-04-19T09:30:31Z</time></trkpt><trkpt lat="43.13559139584986" lon="12.182214890010126"><ele>391.79999999999995</ele><time>2026-04-19T09:30:33Z</time></trkpt><trkpt lat="43.135530952753676" lon="12.182174401248641"><ele>391.2</ele><time>2026-04-19T09:30:34Z</time></trkpt><trkpt lat="43.13546741523051" lon="12.18212573302461"><ele>390.6</ele><time>2026-04-19T09:30:35Z</time></trkpt><trkpt lat="43.13537913107992" lon="12.182047576915902"><ele>390.0</ele><time>2026-04-19T09:30:36Z</time></trkpt><trkpt lat="43.135280451902574" lon="12.181948989443496"><ele>390.0</ele><time>2026-04-19T09:30:37Z</time></trkpt><trkpt lat="43.13517506391765" lon="12.18183168543256"><ele>390.0</ele><time>2026-04-19T09:30:38Z</time></trkpt><trkpt lat="43.13506311070467" lon="12.181717932257197"><ele>390.0</ele><time>2026-04-19T09:30:39Z</time></trkpt><trkpt lat="43.134947614711145" lon="12.181606613876204"><ele>390.0</ele><time>2026-04-19T09:30:40Z</time></trkpt><trkpt lat="43.13483475003796" lon="12.181505825806266"><ele>390.75</ele><time>2026-04-19T09:30:41Z</time></trkpt><trkpt lat="43.134731982918474" lon="12.18141894390075"><ele>391.5</ele><time>2026-04-19T09:30:42Z</time></trkpt><trkpt lat="43.13461404390691" lon="12.181344653452891"><ele>392.25</ele><time>2026-04-19T09:30:43Z</time></trkpt><trkpt lat="43.13448182036082" lon="12.181285694122746"><ele>393.0</ele><time>2026-04-19T09:30:44Z</time></trkpt><trkpt lat="43.13436353237906" lon="12.181223031247825"><ele>393.0</ele><time>2026-04-19T09:30:45Z</time></trkpt><trkpt lat="43.13424412590718" lon="12.181158346324924"><ele>393.0</ele><time>2026-04-19T09:30:46Z</time></trkpt><trkpt lat="43.13413874514118" lon="12.18109532325243"><ele>393.0</ele><time>2026-04-19T09:30:47Z</time></trkpt><trkpt lat="43.13402932694739" lon="12.1810359559583"><ele>393.0</ele><time>2026-04-19T09:30:48Z</time></trkpt><trkpt lat="43.13390364465741" lon="12.180979096451322"><ele>391.25</ele><time>2026-04-19T09:30:49Z</time></trkpt><trkpt lat="43.13377197826803" lon="12.180912909441787"><ele>389.5</ele><time>2026-04-19T09:30:50Z</time></trkpt><trkpt lat="43.13363130732303" lon="12.180839748292527"><ele>387.75</ele><time>2026-04-19T09:30:51Z</time></trkpt><trkpt lat="43.13348767457672" lon="12.180762926603386"><ele>386.0</ele><time>2026-04-19T09:30:52Z</time></trkpt><trkpt lat="43.133343846442536" lon="12.180692406908793"><ele>386.0</ele><time>2026-04-19T09:30:53Z</time></trkpt><trkpt lat="43.1331919332892" lon="12.180630989041067"><ele>386.0</ele><time>2026-04-19T09:30:54Z</time></trkpt><trkpt lat="43.13303394681077" lon="12.180568775887433"><ele>386.0</ele><time>2026-04-19T09:30:55Z</time></trkpt><trkpt lat="43.132876430297586" lon="12.180493641405116"><ele>386.0</ele><time>2026-04-19T09:30:56Z</time></trkpt><trkpt lat="43.132731386911566" lon="12.180439968933081"><ele>386.0</ele><time>2026-04-19T09:30:57Z</time></trkpt><trkpt lat="43.13258692762731" lon="12.180388050592832"><ele>386.0</ele><time>2026-04-19T09:30:58Z</time></trkpt><trkpt lat="43.132458121022545" lon="12.180335185998258"><ele>386.0</ele><time>2026-04-19T09:30:59Z</time></trkpt><trkpt lat="43.13234410900965" lon="12.180282002216465"><ele>385.25</ele><time>2026-04-19T09:31:00Z</time></trkpt><trkpt lat="43.13224049147928" lon="12.180227921179645"><ele>384.5</ele><time>2026-04-19T09:31:01Z</time></trkpt><trkpt lat="43.13213544799429" lon="12.180170897285047"><ele>383.75</ele><time>2026-04-19T09:31:02Z</time></trkpt><trkpt lat="43.13201900677953" lon="12.180108477446225"><ele>383.0</ele><time>2026-04-19T09:31:03Z</time></trkpt><trkpt lat="43.13189650759126" lon="12.180049163283046"><ele>383.0</ele><time>2026-04-19T09:31:04Z</time></trkpt><trkpt lat="43.13178072604256" lon="12.180009356030908"><ele>383.0</ele><time>2026-04-19T09:31:05Z</time></trkpt><trkpt lat="43.131673275906124" lon="12.179971324403299"><ele>383.0</ele><time>2026-04-19T09:31:06Z</time></trkpt><trkpt lat="43.1315794706091" lon="12.179923359591475"><ele>383.0</ele><time>2026-04-19T09:31:07Z</time></trkpt><trkpt lat="43.131497569514295" lon="12.17986486344304"><ele>383.0</ele><time>2026-04-19T09:31:08Z</time></trkpt><trkpt lat="43.13139894746874" lon="12.179795373927078"><ele>381.5</ele><time>2026-04-19T09:31:08.999Z</time></trkpt><trkpt lat="43.131282427447104" lon="12.179717980527704"><ele>380.0</ele><time>2026-04-19T09:31:09.999Z</time></trkpt><trkpt lat="43.131146259460834" lon="12.179674801426927"><ele>378.5</ele><time>2026-04-19T09:31:10.999Z</time></trkpt><trkpt lat="43.131005048494366" lon="12.179596441588512"><ele>377.0</ele><time>2026-04-19T09:31:11.999Z</time></trkpt><trkpt lat="43.13085351326057" lon="12.17953638133116"><ele>377.5</ele><time>2026-04-19T09:31:12.999Z</time></trkpt><trkpt lat="43.130719230601024" lon="12.179483160823668"><ele>378.0</ele><time>2026-04-19T09:31:13.999Z</time></trkpt><trkpt lat="43.13059421477815" lon="12.179456135537059"><ele>378.5</ele><time>2026-04-19T09:31:14.999Z</time></trkpt><trkpt lat="43.130483314022" lon="12.179409470354363"><ele>379.0</ele><time>2026-04-19T09:31:15.999Z</time></trkpt><trkpt lat="43.13037997775608" lon="12.179375236430197"><ele>379.0</ele><time>2026-04-19T09:31:16.999Z</time></trkpt><trkpt lat="43.13028798230035" lon="12.179330580685964"><ele>379.0</ele><time>2026-04-19T09:31:17.999Z</time></trkpt><trkpt lat="43.1302053983627" lon="12.179291919626271"><ele>379.0</ele><time>2026-04-19T09:31:18.999Z</time></trkpt><trkpt lat="43.130124016525514" lon="12.179254726948102"><ele>379.0</ele><time>2026-04-19T09:31:19.999Z</time></trkpt><trkpt lat="43.130033294533895" lon="12.179221572462165"><ele>379.0</ele><time>2026-04-19T09:31:20.999Z</time></trkpt><trkpt lat="43.129942670383" lon="12.179187939139199"><ele>378.25</ele><time>2026-04-19T09:31:21.999Z</time></trkpt><trkpt lat="43.12985441054641" lon="12.179140926466266"><ele>377.5</ele><time>2026-04-19T09:31:22.999Z</time></trkpt><trkpt lat="43.12975096337951" lon="12.179097097918454"><ele>376.75</ele><time>2026-04-19T09:31:23.999Z</time></trkpt><trkpt lat="43.12961614121151" lon="12.179034391750898"><ele>376.0</ele><time>2026-04-19T09:31:24.999Z</time></trkpt><trkpt lat="43.129457003748826" lon="12.178959928811501"><ele>376.0</ele><time>2026-04-19T09:31:25.999Z</time></trkpt><trkpt lat="43.129314118110116" lon="12.178868268351053"><ele>376.0</ele><time>2026-04-19T09:31:26.999Z</time></trkpt><trkpt lat="43.12916857046253" lon="12.178786908417903"><ele>376.0</ele><time>2026-04-19T09:31:27.999Z</time></trkpt><trkpt lat="43.129027192102384" lon="12.178708668719391"><ele>376.0</ele><time>2026-04-19T09:31:28.999Z</time></trkpt><trkpt lat="43.12890008594155" lon="12.178641806944748"><ele>376.0</ele><time>2026-04-19T09:31:29.999Z</time></trkpt><trkpt lat="43.12877062800963" lon="12.178592739235754"><ele>376.0</ele><time>2026-04-19T09:31:30.999Z</time></trkpt><trkpt lat="43.12863866391805" lon="12.178528978991649"><ele>376.0</ele><time>2026-04-19T09:31:31.999Z</time></trkpt><trkpt lat="43.128518201704864" lon="12.178466521850176"><ele>376.0</ele><time>2026-04-19T09:31:32.999Z</time></trkpt><trkpt lat="43.12840018960646" lon="12.178404595888924"><ele>376.0</ele><time>2026-04-19T09:31:34Z</time></trkpt><trkpt lat="43.12827735776272" lon="12.178331511857854"><ele>376.0</ele><time>2026-04-19T09:31:35Z</time></trkpt><trkpt lat="43.1281594809528" lon="12.17824054451706"><ele>376.0</ele><time>2026-04-19T09:31:36Z</time></trkpt><trkpt lat="43.128054151813174" lon="12.178142422876123"><ele>375.4</ele><time>2026-04-19T09:31:37Z</time></trkpt><trkpt lat="43.127974410768495" lon="12.178030206080559"><ele>374.8</ele><time>2026-04-19T09:31:38Z</time></trkpt><trkpt lat="43.127889493701815" lon="12.177923879030585"><ele>374.2</ele><time>2026-04-19T09:31:39Z</time></trkpt><trkpt lat="43.12780849054313" lon="12.177819993927855"><ele>373.59999999999997</ele><time>2026-04-19T09:31:40Z</time></trkpt><trkpt lat="43.12774235504176" lon="12.177732342096142"><ele>373.0</ele><time>2026-04-19T09:31:41Z</time></trkpt><trkpt lat="43.12766969773143" lon="12.177656381160796"><ele>373.0</ele><time>2026-04-19T09:31:42Z</time></trkpt><trkpt lat="43.12760323821516" lon="12.177562309467275"><ele>373.0</ele><time>2026-04-19T09:31:43Z</time></trkpt><trkpt lat="43.127538956745155" lon="12.17747759948205"><ele>373.0</ele><time>2026-04-19T09:31:44Z</time></trkpt><trkpt lat="43.127480361577064" lon="12.17739063869748"><ele>373.0</ele><time>2026-04-19T09:31:45Z</time></trkpt><trkpt lat="43.12743115580604" lon="12.177334975515963"><ele>373.0</ele><time>2026-04-19T09:31:46Z</time></trkpt><trkpt lat="43.12732505503719" lon="12.177272067518913"><ele>373.4</ele><time>2026-04-19T09:31:48Z</time></trkpt><trkpt lat="43.127203805599464" lon="12.17724826517268"><ele>373.79999999999995</ele><time>2026-04-19T09:31:50Z</time></trkpt><trkpt lat="43.12715338575862" lon="12.177331856291735"><ele>374.2</ele><time>2026-04-19T09:31:51Z</time></trkpt><trkpt lat="43.12710100778647" lon="12.177415997868058"><ele>374.6</ele><time>2026-04-19T09:31:52Z</time></trkpt><trkpt lat="43.127036318652685" lon="12.177534877460657"><ele>375.0</ele><time>2026-04-19T09:31:53Z</time></trkpt><trkpt lat="43.126939148931065" lon="12.177631589688957"><ele>375.0</ele><time>2026-04-19T09:31:54Z</time></trkpt><trkpt lat="43.12684895231284" lon="12.177727263217834"><ele>375.0</ele><time>2026-04-19T09:31:55Z</time></trkpt><trkpt lat="43.126772104898784" lon="12.177791454406874"><ele>375.0</ele><time>2026-04-19T09:31:56Z</time></trkpt><trkpt lat="43.126693087133255" lon="12.1778459381287"><ele>375.0</ele><time>2026-04-19T09:31:57Z</time></trkpt><trkpt lat="43.12660177946422" lon="12.17788704152092"><ele>375.0</ele><time>2026-04-19T09:31:58Z</time></trkpt><trkpt lat="43.12649874723266" lon="12.17789203958098"><ele>377.5</ele><time>2026-04-19T09:31:59Z</time></trkpt><trkpt lat="43.12638719367358" lon="12.17789673909337"><ele>380.0</ele><time>2026-04-19T09:32:00Z</time></trkpt><trkpt lat="43.12625951798479" lon="12.177917448544136"><ele>382.5</ele><time>2026-04-19T09:32:01Z</time></trkpt><trkpt lat="43.126106975951515" lon="12.177923142762989"><ele>385.0</ele><time>2026-04-19T09:32:02Z</time></trkpt><trkpt lat="43.125951950374365" lon="12.177943840666757"><ele>385.0</ele><time>2026-04-19T09:32:03Z</time></trkpt><trkpt lat="43.12581079847582" lon="12.177948379423855"><ele>385.0</ele><time>2026-04-19T09:32:04Z</time></trkpt><trkpt lat="43.1256847838472" lon="12.177962445296895"><ele>385.0</ele><time>2026-04-19T09:32:05Z</time></trkpt><trkpt lat="43.12556990221856" lon="12.177993716554587"><ele>385.0</ele><time>2026-04-19T09:32:06Z</time></trkpt><trkpt lat="43.125466220892626" lon="12.178016843798687"><ele>384.25</ele><time>2026-04-19T09:32:07Z</time></trkpt><trkpt lat="43.12537519339181" lon="12.178120494564306"><ele>383.5</ele><time>2026-04-19T09:32:08Z</time></trkpt><trkpt lat="43.12529777204092" lon="12.178212941687471"><ele>382.75</ele><time>2026-04-19T09:32:09Z</time></trkpt><trkpt lat="43.12521551172854" lon="12.17835063267987"><ele>382.0</ele><time>2026-04-19T09:32:10Z</time></trkpt><trkpt lat="43.12510808272708" lon="12.178487822861388"><ele>382.0</ele><time>2026-04-19T09:32:11Z</time></trkpt><trkpt lat="43.12502923031055" lon="12.17861026336774"><ele>382.0</ele><time>2026-04-19T09:32:12Z</time></trkpt><trkpt lat="43.124971893698266" lon="12.178684473695263"><ele>382.0</ele><time>2026-04-19T09:32:13Z</time></trkpt><trkpt lat="43.124901336351044" lon="12.17874780629182"><ele>382.0</ele><time>2026-04-19T09:32:15Z</time></trkpt><trkpt lat="43.12476814709171" lon="12.178737759870874"><ele>382.0</ele><time>2026-04-19T09:32:17Z</time></trkpt><trkpt lat="43.12465212585399" lon="12.178617048945823"><ele>381.0</ele><time>2026-04-19T09:32:18Z</time></trkpt><trkpt lat="43.12449135041511" lon="12.17859022385922"><ele>380.0</ele><time>2026-04-19T09:32:19Z</time></trkpt><trkpt lat="43.12430330011959" lon="12.178540516333998"><ele>379.0</ele><time>2026-04-19T09:32:20Z</time></trkpt><trkpt lat="43.12409642236053" lon="12.178487771915249"><ele>375.0</ele><time>2026-04-19T09:32:21Z</time></trkpt><trkpt lat="43.12388621924132" lon="12.178428449581082"><ele>371.0</ele><time>2026-04-19T09:32:22Z</time></trkpt><trkpt lat="43.12369963220617" lon="12.178349363869682"><ele>367.0</ele><time>2026-04-19T09:32:23Z</time></trkpt><trkpt lat="43.12352525485341" lon="12.178295499043553"><ele>367.0</ele><time>2026-04-19T09:32:24Z</time></trkpt><trkpt lat="43.12335713237639" lon="12.178242110224224"><ele>367.0</ele><time>2026-04-19T09:32:25Z</time></trkpt><trkpt lat="43.12318618260656" lon="12.178203623472497"><ele>367.0</ele><time>2026-04-19T09:32:26Z</time></trkpt><trkpt lat="43.12301721759447" lon="12.17812660597521"><ele>369.0</ele><time>2026-04-19T09:32:27Z</time></trkpt><trkpt lat="43.12286542561349" lon="12.178026705678413"><ele>371.0</ele><time>2026-04-19T09:32:28Z</time></trkpt><trkpt lat="43.12272449033337" lon="12.177918635083193"><ele>373.0</ele><time>2026-04-19T09:32:29Z</time></trkpt><trkpt lat="43.12258316047013" lon="12.177813910483223"><ele>373.0</ele><time>2026-04-19T09:32:30Z</time></trkpt><trkpt lat="43.12243159052581" lon="12.177706665639672"><ele>373.0</ele><time>2026-04-19T09:32:31Z</time></trkpt><trkpt lat="43.12227981210858" lon="12.177594664967549"><ele>373.0</ele><time>2026-04-19T09:32:32Z</time></trkpt><trkpt lat="43.122126510428224" lon="12.177480445312755"><ele>373.66666666666663</ele><time>2026-04-19T09:32:33Z</time></trkpt><trkpt lat="43.12197491700474" lon="12.177368938681983"><ele>374.3333333333333</ele><time>2026-04-19T09:32:34Z</time></trkpt><trkpt lat="43.121825399919985" lon="12.177261462477222"><ele>375.0</ele><time>2026-04-19T09:32:35Z</time></trkpt><trkpt lat="43.12167691380932" lon="12.177153391410084"><ele>368.3333333333333</ele><time>2026-04-19T09:32:36Z</time></trkpt><trkpt lat="43.12153250342752" lon="12.177052077264143"><ele>361.66666666666663</ele><time>2026-04-19T09:32:37Z</time></trkpt><trkpt lat="43.12140561562926" lon="12.176934997156827"><ele>355.0</ele><time>2026-04-19T09:32:38Z</time></trkpt><trkpt lat="43.121271590752485" lon="12.176861969717638"><ele>355.0</ele><time>2026-04-19T09:32:39Z</time></trkpt><trkpt lat="43.121148931922306" lon="12.176775574210344"><ele>355.0</ele><time>2026-04-19T09:32:40Z</time></trkpt><trkpt lat="43.12101424908087" lon="12.17668168086311"><ele>355.0</ele><time>2026-04-19T09:32:41Z</time></trkpt><trkpt lat="43.120878495933226" lon="12.176563252333526"><ele>354.0</ele><time>2026-04-19T09:32:42Z</time></trkpt><trkpt lat="43.120728064072104" lon="12.176469067619763"><ele>353.0</ele><time>2026-04-19T09:32:43Z</time></trkpt><trkpt lat="43.1205693105544" lon="12.176382901152689"><ele>352.0</ele><time>2026-04-19T09:32:44Z</time></trkpt><trkpt lat="43.120400048919485" lon="12.176334419213962"><ele>352.0</ele><time>2026-04-19T09:32:45Z</time></trkpt><trkpt lat="43.12024256366983" lon="12.176263987515089"><ele>352.0</ele><time>2026-04-19T09:32:46Z</time></trkpt><trkpt lat="43.12009459583272" lon="12.176195899387292"><ele>352.0</ele><time>2026-04-19T09:32:47Z</time></trkpt><trkpt lat="43.11994023182306" lon="12.176119533795353"><ele>346.66666666666663</ele><time>2026-04-19T09:32:48Z</time></trkpt><trkpt lat="43.11977967546283" lon="12.17604700834362"><ele>341.3333333333333</ele><time>2026-04-19T09:32:49Z</time></trkpt><trkpt lat="43.11962858061854" lon="12.175976954282747"><ele>336.0</ele><time>2026-04-19T09:32:50Z</time></trkpt><trkpt lat="43.11949345578543" lon="12.175882068635485"><ele>336.0</ele><time>2026-04-19T09:32:51Z</time></trkpt><trkpt lat="43.11935341253325" lon="12.175806255434784"><ele>336.0</ele><time>2026-04-19T09:32:52Z</time></trkpt><trkpt lat="43.11921239060865" lon="12.175748265949263"><ele>336.0</ele><time>2026-04-19T09:32:53Z</time></trkpt><trkpt lat="43.11908117924046" lon="12.175665395302083"><ele>336.0</ele><time>2026-04-19T09:32:54Z</time></trkpt><trkpt lat="43.11896599028132" lon="12.175550344715122"><ele>333.0</ele><time>2026-04-19T09:32:55Z</time></trkpt><trkpt lat="43.11884785728494" lon="12.175446713071334"><ele>330.0</ele><time>2026-04-19T09:32:56Z</time></trkpt><trkpt lat="43.11873000900678" lon="12.175342959031866"><ele>327.0</ele><time>2026-04-19T09:32:57Z</time></trkpt><trkpt lat="43.11861446647106" lon="12.175241234952697"><ele>324.0</ele><time>2026-04-19T09:32:58Z</time></trkpt><trkpt lat="43.118501251884595" lon="12.175141560455558"><ele>324.0</ele><time>2026-04-19T09:32:59Z</time></trkpt><trkpt lat="43.118380110479045" lon="12.17506008650294"><ele>324.0</ele><time>2026-04-19T09:33:00Z</time></trkpt><trkpt lat="43.11827953132158" lon="12.174970925499444"><ele>324.0</ele><time>2026-04-19T09:33:01Z</time></trkpt><trkpt lat="43.11819743997969" lon="12.174884889844481"><ele>324.0</ele><time>2026-04-19T09:33:02Z</time></trkpt><trkpt lat="43.11817084385477" lon="12.174762533973476"><ele>321.8333333333333</ele><time>2026-04-19T09:33:03Z</time></trkpt><trkpt lat="43.11810126301788" lon="12.174685090016203"><ele>319.6666666666667</ele><time>2026-04-19T09:33:04Z</time></trkpt><trkpt lat="43.118032634079455" lon="12.174640463560461"><ele>317.5</ele><time>2026-04-19T09:33:05Z</time></trkpt><trkpt lat="43.11795371379493" lon="12.174637822894049"><ele>315.33333333333337</ele><time>2026-04-19T09:33:06Z</time></trkpt><trkpt lat="43.11786730569409" lon="12.174665974012157"><ele>313.1666666666667</ele><time>2026-04-19T09:33:07Z</time></trkpt><trkpt lat="43.1177849586188" lon="12.174711727811932"><ele>311.0</ele><time>2026-04-19T09:33:08Z</time></trkpt><trkpt lat="43.11771792862779" lon="12.174749665282382"><ele>311.0</ele><time>2026-04-19T09:33:09Z</time></trkpt><trkpt lat="43.1176467953305" lon="12.174763950666842"><ele>311.0</ele><time>2026-04-19T09:33:10Z</time></trkpt><trkpt lat="43.11755902838999" lon="12.174743615836828"><ele>311.0</ele><time>2026-04-19T09:33:11Z</time></trkpt><trkpt lat="43.11748070403284" lon="12.174656775791371"><ele>311.0</ele><time>2026-04-19T09:33:12Z</time></trkpt><trkpt lat="43.117398290301054" lon="12.174606183848722"><ele>311.0</ele><time>2026-04-19T09:33:13Z</time></trkpt><trkpt lat="43.11734039684849" lon="12.174547788237911"><ele>311.0</ele><time>2026-04-19T09:33:14Z</time></trkpt><trkpt lat="43.11725903282355" lon="12.174478942921239"><ele>309.83333333333337</ele><time>2026-04-19T09:33:15.999Z</time></trkpt><trkpt lat="43.11719667627614" lon="12.174413345439214"><ele>308.6666666666667</ele><time>2026-04-19T09:33:17.999Z</time></trkpt><trkpt lat="43.117128163167116" lon="12.174337804613959"><ele>307.5</ele><time>2026-04-19T09:33:19.999Z</time></trkpt><trkpt lat="43.117070177152755" lon="12.174267733848884"><ele>306.3333333333333</ele><time>2026-04-19T09:33:22Z</time></trkpt><trkpt lat="43.1169777758853" lon="12.17417851257824"><ele>305.16666666666663</ele><time>2026-04-19T09:33:24Z</time></trkpt><trkpt lat="43.11688789179615" lon="12.174159637405696"><ele>304.0</ele><time>2026-04-19T09:33:25Z</time></trkpt><trkpt lat="43.116789393154434" lon="12.174116772958985"><ele>304.0</ele><time>2026-04-19T09:33:26Z</time></trkpt><trkpt lat="43.11668756933014" lon="12.174077270231766"><ele>304.0</ele><time>2026-04-19T09:33:27Z</time></trkpt><trkpt lat="43.1165897950659" lon="12.17404143328114"><ele>304.0</ele><time>2026-04-19T09:33:28Z</time></trkpt><trkpt lat="43.1164943179863" lon="12.174020624567067"><ele>304.0</ele><time>2026-04-19T09:33:29Z</time></trkpt><trkpt lat="43.11640782432387" lon="12.173999494586038"><ele>304.0</ele><time>2026-04-19T09:33:30Z</time></trkpt><trkpt lat="43.11633373323548" lon="12.173982764853996"><ele>300.75</ele><time>2026-04-19T09:33:31Z</time></trkpt><trkpt lat="43.116214631220245" lon="12.173964187832242"><ele>297.5</ele><time>2026-04-19T09:33:33Z</time></trkpt><trkpt lat="43.11611061571322" lon="12.173996434857733"><ele>294.25</ele><time>2026-04-19T09:33:35Z</time></trkpt><trkpt lat="43.116071784678226" lon="12.17416930186728"><ele>291.0</ele><time>2026-04-19T09:33:37Z</time></trkpt><trkpt lat="43.11612850230224" lon="12.17428073318553"><ele>291.0</ele><time>2026-04-19T09:33:38Z</time></trkpt><trkpt lat="43.11616852044765" lon="12.174387394317597"><ele>291.0</ele><time>2026-04-19T09:33:39Z</time></trkpt><trkpt lat="43.11619831578371" lon="12.174519762985177"><ele>291.0</ele><time>2026-04-19T09:33:40Z</time></trkpt><trkpt lat="43.11625303397821" lon="12.17466901354891"><ele>291.0</ele><time>2026-04-19T09:33:41Z</time></trkpt><trkpt lat="43.11630898213313" lon="12.174832643780817"><ele>291.0</ele><time>2026-04-19T09:33:42Z</time></trkpt><trkpt lat="43.11636019392448" lon="12.174976988306343"><ele>289.25</ele><time>2026-04-19T09:33:43Z</time></trkpt><trkpt lat="43.11641468933149" lon="12.175118320473079"><ele>287.5</ele><time>2026-04-19T09:33:44Z</time></trkpt><trkpt lat="43.11649321125345" lon="12.175264961325018"><ele>285.75</ele><time>2026-04-19T09:33:45Z</time></trkpt><trkpt lat="43.116562404041666" lon="12.175429610839881"><ele>284.0</ele><time>2026-04-19T09:33:46Z</time></trkpt><trkpt lat="43.11662470204068" lon="12.175589502488018"><ele>285.4</ele><time>2026-04-19T09:33:47Z</time></trkpt><trkpt lat="43.11669549867453" lon="12.175729886381479"><ele>286.79999999999995</ele><time>2026-04-19T09:33:48Z</time></trkpt><trkpt lat="43.116772399536764" lon="12.175843339253712"><ele>288.20000000000005</ele><time>2026-04-19T09:33:49Z</time></trkpt><trkpt lat="43.11683621325082" lon="12.175953407821948"><ele>289.6</ele><time>2026-04-19T09:33:50Z</time></trkpt><trkpt lat="43.1169047014608" lon="12.176053687764291"><ele>291.0</ele><time>2026-04-19T09:33:51Z</time></trkpt><trkpt lat="43.11695714591324" lon="12.17616044201571"><ele>291.0</ele><time>2026-04-19T09:33:52Z</time></trkpt><trkpt lat="43.11701564998744" lon="12.17624435128718"><ele>291.0</ele><time>2026-04-19T09:33:53Z</time></trkpt><trkpt lat="43.1170621436192" lon="12.176320605016844"><ele>291.0</ele><time>2026-04-19T09:33:54Z</time></trkpt><trkpt lat="43.117142359674595" lon="12.17643314011309"><ele>291.0</ele><time>2026-04-19T09:33:56Z</time></trkpt><trkpt lat="43.1171999473349" lon="12.176542190306117"><ele>291.0</ele><time>2026-04-19T09:33:58Z</time></trkpt><trkpt lat="43.11718663304438" lon="12.176641790698715"><ele>291.0</ele><time>2026-04-19T09:34:00Z</time></trkpt><trkpt lat="43.11712423320114" lon="12.176703011646872"><ele>288.8</ele><time>2026-04-19T09:34:02Z</time></trkpt><trkpt lat="43.11703021807842" lon="12.176646978004118"><ele>286.6</ele><time>2026-04-19T09:34:04Z</time></trkpt><trkpt lat="43.11694928832168" lon="12.176629922612092"><ele>284.4</ele><time>2026-04-19T09:34:05Z</time></trkpt><trkpt lat="43.11684860042861" lon="12.176600910767105"><ele>282.2</ele><time>2026-04-19T09:34:06Z</time></trkpt><trkpt lat="43.11675836332809" lon="12.176573505790046"><ele>280.0</ele><time>2026-04-19T09:34:07Z</time></trkpt><trkpt lat="43.11667805571483" lon="12.176549116389264"><ele>280.0</ele><time>2026-04-19T09:34:08Z</time></trkpt><trkpt lat="43.116604663740254" lon="12.176526827274085"><ele>280.0</ele><time>2026-04-19T09:34:09Z</time></trkpt><trkpt lat="43.116528985018924" lon="12.176505112281806"><ele>280.0</ele><time>2026-04-19T09:34:10Z</time></trkpt><trkpt lat="43.11643576683703" lon="12.176493323634153"><ele>280.0</ele><time>2026-04-19T09:34:11Z</time></trkpt><trkpt lat="43.1163537687248" lon="12.176496840693796"><ele>280.0</ele><time>2026-04-19T09:34:12Z</time></trkpt><trkpt lat="43.1162723191004" lon="12.176520808636006"><ele>280.0</ele><time>2026-04-19T09:34:13Z</time></trkpt><trkpt lat="43.11620404711752" lon="12.176512802036505"><ele>279.8333333333333</ele><time>2026-04-19T09:34:14Z</time></trkpt><trkpt lat="43.11614048395624" lon="12.176489951850252"><ele>279.66666666666663</ele><time>2026-04-19T09:34:15Z</time></trkpt><trkpt lat="43.11608099896236" lon="12.176438513205973"><ele>279.5</ele><time>2026-04-19T09:34:16Z</time></trkpt><trkpt lat="43.11603734690129" lon="12.176332738003127"><ele>279.3333333333333</ele><time>2026-04-19T09:34:17Z</time></trkpt><trkpt lat="43.11596141363988" lon="12.176224816597149"><ele>279.1666666666667</ele><time>2026-04-19T09:34:18Z</time></trkpt><trkpt lat="43.11587362432651" lon="12.176130437554754"><ele>279.0</ele><time>2026-04-19T09:34:19Z</time></trkpt><trkpt lat="43.11579154412298" lon="12.176020387215853"><ele>277.5</ele><time>2026-04-19T09:34:20Z</time></trkpt><trkpt lat="43.11570567007748" lon="12.175905079770564"><ele>276.0</ele><time>2026-04-19T09:34:21Z</time></trkpt><trkpt lat="43.115622417729284" lon="12.17580856256879"><ele>274.5</ele><time>2026-04-19T09:34:22Z</time></trkpt><trkpt lat="43.11553935285628" lon="12.175702045916555"><ele>273.0</ele><time>2026-04-19T09:34:23Z</time></trkpt><trkpt lat="43.11543813255619" lon="12.175614134937927"><ele>273.0</ele><time>2026-04-19T09:34:24Z</time></trkpt><trkpt lat="43.11535409369693" lon="12.175537148961348"><ele>273.0</ele><time>2026-04-19T09:34:25Z</time></trkpt><trkpt lat="43.115283223194176" lon="12.175433157845372"><ele>273.0</ele><time>2026-04-19T09:34:26Z</time></trkpt><trkpt lat="43.11521346455299" lon="12.175339001702925"><ele>273.0</ele><time>2026-04-19T09:34:27Z</time></trkpt><trkpt lat="43.115150840986146" lon="12.175244288042478"><ele>273.0</ele><time>2026-04-19T09:34:28Z</time></trkpt><trkpt lat="43.115077066088574" lon="12.175141400517944"><ele>273.0</ele><time>2026-04-19T09:34:29Z</time></trkpt><trkpt lat="43.11500247174973" lon="12.175026531083274"><ele>273.0</ele><time>2026-04-19T09:34:30Z</time></trkpt><trkpt lat="43.114928650381195" lon="12.174929238534045"><ele>273.0</ele><time>2026-04-19T09:34:31Z</time></trkpt><trkpt lat="43.11485748923598" lon="12.174850653571193"><ele>273.0</ele><time>2026-04-19T09:34:32Z</time></trkpt><trkpt lat="43.11476132554744" lon="12.174784204747596"><ele>273.0</ele><time>2026-04-19T09:34:33Z</time></trkpt><trkpt lat="43.11464321146854" lon="12.174733549873215"><ele>271.2</ele><time>2026-04-19T09:34:34Z</time></trkpt><trkpt lat="43.11453629016402" lon="12.174664464112919"><ele>269.4</ele><time>2026-04-19T09:34:35Z</time></trkpt><trkpt lat="43.11444355640803" lon="12.174594786793653"><ele>267.59999999999997</ele><time>2026-04-19T09:34:36Z</time></trkpt><trkpt lat="43.11435214657522" lon="12.17452913116324"><ele>265.8</ele><time>2026-04-19T09:34:37Z</time></trkpt><trkpt lat="43.114300531462646" lon="12.174420822462368"><ele>264.0</ele><time>2026-04-19T09:34:38Z</time></trkpt><trkpt lat="43.11424376704558" lon="12.174326495412345"><ele>264.0</ele><time>2026-04-19T09:34:39Z</time></trkpt><trkpt lat="43.11418867858342" lon="12.174249721500523"><ele>264.0</ele><time>2026-04-19T09:34:40Z</time></trkpt><trkpt lat="43.11415664936284" lon="12.174175169268095"><ele>264.0</ele><time>2026-04-19T09:34:41Z</time></trkpt><trkpt lat="43.114077697021436" lon="12.174145082501354"><ele>264.0</ele><time>2026-04-19T09:34:43Z</time></trkpt><trkpt lat="43.11400790851869" lon="12.174137767346757"><ele>264.0</ele><time>2026-04-19T09:34:47Z</time></trkpt><trkpt lat="43.1139514278986" lon="12.174346944923897"><ele>262.75</ele><time>2026-04-19T09:34:48Z</time></trkpt><trkpt lat="43.11390055218341" lon="12.174508429536772"><ele>261.5</ele><time>2026-04-19T09:34:49Z</time></trkpt><trkpt lat="43.11383584033435" lon="12.174665335774852"><ele>260.25</ele><time>2026-04-19T09:34:50Z</time></trkpt><trkpt lat="43.113751213536936" lon="12.174842004613255"><ele>259.0</ele><time>2026-04-19T09:34:51Z</time></trkpt><trkpt lat="43.11365870184095" lon="12.175037299011988"><ele>259.0</ele><time>2026-04-19T09:34:52Z</time></trkpt><trkpt lat="43.11356344265598" lon="12.17524990938245"><ele>259.0</ele><time>2026-04-19T09:34:53Z</time></trkpt><trkpt lat="43.11346794807476" lon="12.17546228234554"><ele>259.0</ele><time>2026-04-19T09:34:54Z</time></trkpt><trkpt lat="43.113372265999615" lon="12.175674478165424"><ele>259.3333333333333</ele><time>2026-04-19T09:34:55Z</time></trkpt><trkpt lat="43.113279837656066" lon="12.175902427187177"><ele>259.6666666666667</ele><time>2026-04-19T09:34:56Z</time></trkpt><trkpt lat="43.113206214482375" lon="12.176148099454707"><ele>260.0</ele><time>2026-04-19T09:34:57Z</time></trkpt><trkpt lat="43.11314472091933" lon="12.176406548258512"><ele>259.33333333333337</ele><time>2026-04-19T09:34:58Z</time></trkpt><trkpt lat="43.11309196427651" lon="12.1766699572044"><ele>258.6666666666667</ele><time>2026-04-19T09:34:59Z</time></trkpt><trkpt lat="43.11303673989997" lon="12.176943955326518"><ele>258.0</ele><time>2026-04-19T09:35:00Z</time></trkpt><trkpt lat="43.112978378994946" lon="12.177223813601712"><ele>258.0</ele><time>2026-04-19T09:35:01Z</time></trkpt><trkpt lat="43.11292089078209" lon="12.177499600464627"><ele>258.0</ele><time>2026-04-19T09:35:02Z</time></trkpt><trkpt lat="43.11286457070894" lon="12.177777123509076"><ele>258.0</ele><time>2026-04-19T09:35:03Z</time></trkpt><trkpt lat="43.11280958454895" lon="12.178041197958777"><ele>258.6666666666667</ele><time>2026-04-19T09:35:04Z</time></trkpt><trkpt lat="43.11275845331135" lon="12.17828126446567"><ele>259.33333333333337</ele><time>2026-04-19T09:35:05Z</time></trkpt><trkpt lat="43.112714935298236" lon="12.17850300999277"><ele>260.0</ele><time>2026-04-19T09:35:06Z</time></trkpt><trkpt lat="43.11266547419236" lon="12.17874596729074"><ele>260.0</ele><time>2026-04-19T09:35:07Z</time></trkpt><trkpt lat="43.11261887858401" lon="12.178983275070545"><ele>260.0</ele><time>2026-04-19T09:35:08Z</time></trkpt><trkpt lat="43.11256828682845" lon="12.17922061468059"><ele>260.0</ele><time>2026-04-19T09:35:09Z</time></trkpt><trkpt lat="43.11250758807947" lon="12.179451569359891"><ele>260.33333333333337</ele><time>2026-04-19T09:35:10Z</time></trkpt><trkpt lat="43.112427649283184" lon="12.179677955243568"><ele>260.6666666666667</ele><time>2026-04-19T09:35:11Z</time></trkpt><trkpt lat="43.11232419733208" lon="12.179904112803843"><ele>261.0</ele><time>2026-04-19T09:35:12Z</time></trkpt><trkpt lat="43.11221214083816" lon="12.180132221067796"><ele>261.0</ele><time>2026-04-19T09:35:13Z</time></trkpt><trkpt lat="43.11209708960289" lon="12.180366622650613"><ele>261.0</ele><time>2026-04-19T09:35:14Z</time></trkpt><trkpt lat="43.11198495169738" lon="12.180597261348835"><ele>261.0</ele><time>2026-04-19T09:35:15Z</time></trkpt><trkpt lat="43.1118743971478" lon="12.18082239386782"><ele>261.0</ele><time>2026-04-19T09:35:16Z</time></trkpt><trkpt lat="43.111773466066175" lon="12.181029999126013"><ele>261.0</ele><time>2026-04-19T09:35:17Z</time></trkpt><trkpt lat="43.11168246131306" lon="12.181222582573662"><ele>261.0</ele><time>2026-04-19T09:35:18Z</time></trkpt><trkpt lat="43.11159378668402" lon="12.181404039975124"><ele>260.6666666666667</ele><time>2026-04-19T09:35:19Z</time></trkpt><trkpt lat="43.111505213240655" lon="12.181583821632556"><ele>260.33333333333337</ele><time>2026-04-19T09:35:20Z</time></trkpt><trkpt lat="43.11140691765096" lon="12.181760001814375"><ele>260.0</ele><time>2026-04-19T09:35:21Z</time></trkpt><trkpt lat="43.11131848334504" lon="12.181915193463851"><ele>260.0</ele><time>2026-04-19T09:35:22Z</time></trkpt><trkpt lat="43.11122649235915" lon="12.182054689696155"><ele>260.0</ele><time>2026-04-19T09:35:23Z</time></trkpt><trkpt lat="43.11112611705912" lon="12.182187444702253"><ele>260.0</ele><time>2026-04-19T09:35:24Z</time></trkpt><trkpt lat="43.11101981679991" lon="12.182316958745712"><ele>260.0</ele><time>2026-04-19T09:35:25Z</time></trkpt><trkpt lat="43.110911571756624" lon="12.182446366448563"><ele>260.33333333333337</ele><time>2026-04-19T09:35:26Z</time></trkpt><trkpt lat="43.11082092842008" lon="12.182613210736228"><ele>260.6666666666667</ele><time>2026-04-19T09:35:27Z</time></trkpt><trkpt lat="43.110709987981956" lon="12.182766946376717"><ele>261.0</ele><time>2026-04-19T09:35:28Z</time></trkpt><trkpt lat="43.110615491871236" lon="12.182944963503466"><ele>260.3333333333333</ele><time>2026-04-19T09:35:29Z</time></trkpt><trkpt lat="43.110519026682304" lon="12.183121163613038"><ele>259.66666666666663</ele><time>2026-04-19T09:35:30Z</time></trkpt><trkpt lat="43.11043084881225" lon="12.183276844699524"><ele>259.0</ele><time>2026-04-19T09:35:31Z</time></trkpt><trkpt lat="43.110330329360714" lon="12.18343422199932"><ele>259.0</ele><time>2026-04-19T09:35:32Z</time></trkpt><trkpt lat="43.110226516825904" lon="12.183648731133918"><ele>259.0</ele><time>2026-04-19T09:35:33Z</time></trkpt><trkpt lat="43.11009529984756" lon="12.18389526285979"><ele>259.0</ele><time>2026-04-19T09:35:34Z</time></trkpt><trkpt lat="43.10998270497786" lon="12.184192252581969"><ele>258.5</ele><time>2026-04-19T09:35:35Z</time></trkpt><trkpt lat="43.10987929930316" lon="12.184471539340372"><ele>258.0</ele><time>2026-04-19T09:35:36Z</time></trkpt><trkpt lat="43.109777954001466" lon="12.184743570247102"><ele>258.0</ele><time>2026-04-19T09:35:37Z</time></trkpt><trkpt lat="43.10968368701228" lon="12.18502288071635"><ele>258.0</ele><time>2026-04-19T09:35:38Z</time></trkpt><trkpt lat="43.10957572476561" lon="12.185289968451624"><ele>258.0</ele><time>2026-04-19T09:35:39Z</time></trkpt><trkpt lat="43.10946477924786" lon="12.185545226558641"><ele>258.6666666666667</ele><time>2026-04-19T09:35:40Z</time></trkpt><trkpt lat="43.10935757384656" lon="12.185778690322337"><ele>259.33333333333337</ele><time>2026-04-19T09:35:41Z</time></trkpt><trkpt lat="43.109246489156014" lon="12.185995100457577"><ele>260.0</ele><time>2026-04-19T09:35:42Z</time></trkpt><trkpt lat="43.109121472698334" lon="12.186196140244327"><ele>260.33333333333337</ele><time>2026-04-19T09:35:43Z</time></trkpt><trkpt lat="43.10898004450454" lon="12.186383865648189"><ele>260.6666666666667</ele><time>2026-04-19T09:35:44Z</time></trkpt><trkpt lat="43.108821246778966" lon="12.18654706829976"><ele>261.0</ele><time>2026-04-19T09:35:45Z</time></trkpt><trkpt lat="43.108645454981634" lon="12.186688921007736"><ele>261.0</ele><time>2026-04-19T09:35:46Z</time></trkpt><trkpt lat="43.1084666906666" lon="12.186825895959068"><ele>261.0</ele><time>2026-04-19T09:35:47Z</time></trkpt><trkpt lat="43.108304454825785" lon="12.186968368736947"><ele>261.0</ele><time>2026-04-19T09:35:48Z</time></trkpt><trkpt lat="43.108153927673534" lon="12.187109943402113"><ele>260.6666666666667</ele><time>2026-04-19T09:35:49Z</time></trkpt><trkpt lat="43.107998232860126" lon="12.18724902699153"><ele>260.33333333333337</ele><time>2026-04-19T09:35:50Z</time></trkpt><trkpt lat="43.10785072408167" lon="12.187361532344859"><ele>260.0</ele><time>2026-04-19T09:35:51Z</time></trkpt><trkpt lat="43.10770851769956" lon="12.187446678607802"><ele>260.0</ele><time>2026-04-19T09:35:52Z</time></trkpt><trkpt lat="43.10758442126603" lon="12.187509016705288"><ele>260.0</ele><time>2026-04-19T09:35:53Z</time></trkpt><trkpt lat="43.10746669197699" lon="12.187566246728418"><ele>260.0</ele><time>2026-04-19T09:35:54Z</time></trkpt><trkpt lat="43.10735122308463" lon="12.187626047969578"><ele>260.0</ele><time>2026-04-19T09:35:55Z</time></trkpt><trkpt lat="43.1072192253189" lon="12.187668091328122"><ele>259.5</ele><time>2026-04-19T09:35:56Z</time></trkpt><trkpt lat="43.10708766271263" lon="12.187745497203029"><ele>259.0</ele><time>2026-04-19T09:35:57Z</time></trkpt><trkpt lat="43.106972396075456" lon="12.187826938394728"><ele>258.5</ele><time>2026-04-19T09:35:58Z</time></trkpt><trkpt lat="43.106883439784845" lon="12.187915760211807"><ele>258.0</ele><time>2026-04-19T09:35:59Z</time></trkpt><trkpt lat="43.1067985165611" lon="12.187973985384154"><ele>258.0</ele><time>2026-04-19T09:36:00Z</time></trkpt><trkpt lat="43.106729222213744" lon="12.18802738478499"><ele>258.0</ele><time>2026-04-19T09:36:01Z</time></trkpt><trkpt lat="43.10667306363016" lon="12.188073684705838"><ele>258.0</ele><time>2026-04-19T09:36:02Z</time></trkpt><trkpt lat="43.10658460681779" lon="12.188148529349045"><ele>258.0</ele><time>2026-04-19T09:36:04Z</time></trkpt><trkpt lat="43.10652896939697" lon="12.188189236121884"><ele>258.0</ele><time>2026-04-19T09:36:06Z</time></trkpt><trkpt lat="43.10645992093832" lon="12.188243708707564"><ele>258.0</ele><time>2026-04-19T09:36:09Z</time></trkpt><trkpt lat="43.10639209360173" lon="12.188304481919172"><ele>259.5</ele><time>2026-04-19T09:36:11Z</time></trkpt><trkpt lat="43.106260875830735" lon="12.188379730081223"><ele>261.0</ele><time>2026-04-19T09:36:13Z</time></trkpt><trkpt lat="43.10614453767867" lon="12.1883541449251"><ele>262.5</ele><time>2026-04-19T09:36:14Z</time></trkpt><trkpt lat="43.10600842373069" lon="12.18829778573391"><ele>264.0</ele><time>2026-04-19T09:36:15Z</time></trkpt><trkpt lat="43.10587679667608" lon="12.188234230900987"><ele>265.0</ele><time>2026-04-19T09:36:16Z</time></trkpt><trkpt lat="43.10572358004216" lon="12.188178664294785"><ele>266.0</ele><time>2026-04-19T09:36:17Z</time></trkpt><trkpt lat="43.10552260626984" lon="12.188159118005974"><ele>267.0</ele><time>2026-04-19T09:36:18Z</time></trkpt><trkpt lat="43.105278830738044" lon="12.188162064724121"><ele>263.6666666666667</ele><time>2026-04-19T09:36:19Z</time></trkpt><trkpt lat="43.1050750404564" lon="12.188166347649158"><ele>260.33333333333337</ele><time>2026-04-19T09:36:20Z</time></trkpt><trkpt lat="43.104890919909884" lon="12.188105138540555"><ele>257.0</ele><time>2026-04-19T09:36:21Z</time></trkpt><trkpt lat="43.104710292849" lon="12.188041521421992"><ele>256.33333333333337</ele><time>2026-04-19T09:36:22Z</time></trkpt><trkpt lat="43.10453846576502" lon="12.187986941885349"><ele>255.66666666666669</ele><time>2026-04-19T09:36:23Z</time></trkpt><trkpt lat="43.10435220772043" lon="12.188006709190184"><ele>255.0</ele><time>2026-04-19T09:36:24Z</time></trkpt><trkpt lat="43.104256858862136" lon="12.187972859596291"><ele>255.0</ele><time>2026-04-19T09:36:25Z</time></trkpt><trkpt lat="43.10411306243874" lon="12.188045372140296"><ele>255.0</ele><time>2026-04-19T09:36:26Z</time></trkpt><trkpt lat="43.1039928261996" lon="12.188131833462094"><ele>255.0</ele><time>2026-04-19T09:36:27Z</time></trkpt><trkpt lat="43.10387967402857" lon="12.188240159430762"><ele>255.0</ele><time>2026-04-19T09:36:28Z</time></trkpt><trkpt lat="43.10375294213077" lon="12.18837697396545"><ele>256.3333333333333</ele><time>2026-04-19T09:36:29Z</time></trkpt><trkpt lat="43.103585207357625" lon="12.188499414885147"><ele>257.66666666666663</ele><time>2026-04-19T09:36:30Z</time></trkpt><trkpt lat="43.10342404973215" lon="12.188656524119708"><ele>259.0</ele><time>2026-04-19T09:36:31Z</time></trkpt><trkpt lat="43.10325475186357" lon="12.188797163855536"><ele>259.3333333333333</ele><time>2026-04-19T09:36:32Z</time></trkpt><trkpt lat="43.103066051906914" lon="12.188958242772225"><ele>259.6666666666667</ele><time>2026-04-19T09:36:33Z</time></trkpt><trkpt lat="43.10290362776681" lon="12.189112187171185"><ele>260.0</ele><time>2026-04-19T09:36:34Z</time></trkpt><trkpt lat="43.10275315402369" lon="12.189256885649634"><ele>260.0</ele><time>2026-04-19T09:36:35Z</time></trkpt><trkpt lat="43.10260877609339" lon="12.189414868974579"><ele>260.0</ele><time>2026-04-19T09:36:36Z</time></trkpt><trkpt lat="43.10248871710156" lon="12.189607441628128"><ele>260.0</ele><time>2026-04-19T09:36:37Z</time></trkpt><trkpt lat="43.10239186681612" lon="12.189851874763677"><ele>259.33333333333337</ele><time>2026-04-19T09:36:38Z</time></trkpt><trkpt lat="43.102291009181755" lon="12.1901033862103"><ele>258.6666666666667</ele><time>2026-04-19T09:36:39Z</time></trkpt><trkpt lat="43.10218030665577" lon="12.190360776216984"><ele>258.0</ele><time>2026-04-19T09:36:40Z</time></trkpt><trkpt lat="43.10206998938225" lon="12.190604802710615"><ele>258.3333333333333</ele><time>2026-04-19T09:36:41Z</time></trkpt><trkpt lat="43.10196062574708" lon="12.190844616641623"><ele>258.66666666666663</ele><time>2026-04-19T09:36:42Z</time></trkpt><trkpt lat="43.101849257969825" lon="12.191091493408154"><ele>259.0</ele><time>2026-04-19T09:36:43Z</time></trkpt><trkpt lat="43.101739532460456" lon="12.191333534309903"><ele>259.3333333333333</ele><time>2026-04-19T09:36:44Z</time></trkpt><trkpt lat="43.10162758696835" lon="12.191560029336669"><ele>259.6666666666667</ele><time>2026-04-19T09:36:45Z</time></trkpt><trkpt lat="43.101524285174" lon="12.191763858733609"><ele>260.0</ele><time>2026-04-19T09:36:46Z</time></trkpt><trkpt lat="43.101429851761615" lon="12.191960752156337"><ele>259.6666666666667</ele><time>2026-04-19T09:36:47Z</time></trkpt><trkpt lat="43.10134369048649" lon="12.192151208404196"><ele>259.3333333333333</ele><time>2026-04-19T09:36:48Z</time></trkpt><trkpt lat="43.101269900994396" lon="12.192324596473933"><ele>259.0</ele><time>2026-04-19T09:36:49Z</time></trkpt><trkpt lat="43.10123440261935" lon="12.192520043076097"><ele>259.0</ele><time>2026-04-19T09:36:50Z</time></trkpt><trkpt lat="43.101241715768666" lon="12.192737423558384"><ele>259.0</ele><time>2026-04-19T09:36:51Z</time></trkpt><trkpt lat="43.101298478332886" lon="12.19296834175728"><ele>259.0</ele><time>2026-04-19T09:36:52Z</time></trkpt><trkpt lat="43.10139034767726" lon="12.193206515296021"><ele>259.3333333333333</ele><time>2026-04-19T09:36:53Z</time></trkpt><trkpt lat="43.10148942995113" lon="12.193459476542733"><ele>259.6666666666667</ele><time>2026-04-19T09:36:54Z</time></trkpt><trkpt lat="43.10159063512071" lon="12.193727940564779"><ele>260.0</ele><time>2026-04-19T09:36:55Z</time></trkpt><trkpt lat="43.10169411225841" lon="12.194010308500491"><ele>260.5</ele><time>2026-04-19T09:36:56Z</time></trkpt><trkpt lat="43.10179971571148" lon="12.194303891404674"><ele>261.0</ele><time>2026-04-19T09:36:57Z</time></trkpt><trkpt lat="43.10189757324892" lon="12.194569097796698"><ele>261.0</ele><time>2026-04-19T09:36:58Z</time></trkpt><trkpt lat="43.101985837784596" lon="12.194796817024901"><ele>261.0</ele><time>2026-04-19T09:36:59Z</time></trkpt><trkpt lat="43.102058573975" lon="12.195006536265936"><ele>261.0</ele><time>2026-04-19T09:37:00Z</time></trkpt><trkpt lat="43.10209687344641" lon="12.195220600889279"><ele>261.3333333333333</ele><time>2026-04-19T09:37:01Z</time></trkpt><trkpt lat="43.102075077660345" lon="12.195455602653793"><ele>261.66666666666663</ele><time>2026-04-19T09:37:02Z</time></trkpt><trkpt lat="43.102016730951036" lon="12.195677621397344"><ele>262.0</ele><time>2026-04-19T09:37:03Z</time></trkpt><trkpt lat="43.10194693227405" lon="12.195922012983107"><ele>262.66666666666663</ele><time>2026-04-19T09:37:04Z</time></trkpt><trkpt lat="43.101878646853216" lon="12.19618597177706"><ele>263.3333333333333</ele><time>2026-04-19T09:37:05Z</time></trkpt><trkpt lat="43.10178536271071" lon="12.196461644256239"><ele>264.0</ele><time>2026-04-19T09:37:06Z</time></trkpt><trkpt lat="43.101701323552895" lon="12.196738237571223"><ele>264.3333333333333</ele><time>2026-04-19T09:37:07Z</time></trkpt><trkpt lat="43.10161456969905" lon="12.197010211725422"><ele>264.66666666666663</ele><time>2026-04-19T09:37:08Z</time></trkpt><trkpt lat="43.10151413948377" lon="12.197277369173563"><ele>265.0</ele><time>2026-04-19T09:37:09Z</time></trkpt><trkpt lat="43.10141579872464" lon="12.197544897277504"><ele>267.0</ele><time>2026-04-19T09:37:10Z</time></trkpt><trkpt lat="43.101248588542234" lon="12.198074980411091"><ele>269.0</ele><time>2026-04-19T09:37:12Z</time></trkpt><trkpt lat="43.101170140044175" lon="12.198330970741399"><ele>270.33333333333337</ele><time>2026-04-19T09:37:13Z</time></trkpt><trkpt lat="43.10108434639711" lon="12.19854341254096"><ele>271.6666666666667</ele><time>2026-04-19T09:37:14Z</time></trkpt><trkpt lat="43.10097126749774" lon="12.198717888060642"><ele>273.0</ele><time>2026-04-19T09:37:15Z</time></trkpt><trkpt lat="43.100815191739656" lon="12.198837801503629"><ele>273.0</ele><time>2026-04-19T09:37:16Z</time></trkpt><trkpt lat="43.100662565215536" lon="12.198984354247798"><ele>273.0</ele><time>2026-04-19T09:37:17Z</time></trkpt><trkpt lat="43.10051466944237" lon="12.199106090218667"><ele>273.0</ele><time>2026-04-19T09:37:18Z</time></trkpt><trkpt lat="43.100396210522625" lon="12.199221411815536"><ele>274.5</ele><time>2026-04-19T09:37:19Z</time></trkpt><trkpt lat="43.10029262263546" lon="12.19932855549243"><ele>276.0</ele><time>2026-04-19T09:37:20Z</time></trkpt><trkpt lat="43.100193162561496" lon="12.19942286513955"><ele>277.5</ele><time>2026-04-19T09:37:21Z</time></trkpt><trkpt lat="43.100082535090166" lon="12.199507778628142"><ele>279.0</ele><time>2026-04-19T09:37:22Z</time></trkpt><trkpt lat="43.09993945982274" lon="12.19956622473747"><ele>278.0</ele><time>2026-04-19T09:37:23Z</time></trkpt><trkpt lat="43.09979767066666" lon="12.199650555249715"><ele>277.0</ele><time>2026-04-19T09:37:24Z</time></trkpt><trkpt lat="43.099647853236135" lon="12.199706944121422"><ele>276.0</ele><time>2026-04-19T09:37:25Z</time></trkpt><trkpt lat="43.099495897242875" lon="12.19977438445555"><ele>277.3333333333333</ele><time>2026-04-19T09:37:26Z</time></trkpt><trkpt lat="43.0993405678905" lon="12.199848025221971"><ele>278.66666666666663</ele><time>2026-04-19T09:37:27Z</time></trkpt><trkpt lat="43.09917345497606" lon="12.199864229612047"><ele>280.0</ele><time>2026-04-19T09:37:28Z</time></trkpt><trkpt lat="43.099002522139465" lon="12.199886265213166"><ele>281.0</ele><time>2026-04-19T09:37:29Z</time></trkpt><trkpt lat="43.09882619055523" lon="12.199852705217735"><ele>282.0</ele><time>2026-04-19T09:37:30Z</time></trkpt><trkpt lat="43.09865203239664" lon="12.199821297911711"><ele>283.0</ele><time>2026-04-19T09:37:31Z</time></trkpt><trkpt lat="43.09847335405524" lon="12.199774296319374"><ele>281.0</ele><time>2026-04-19T09:37:32Z</time></trkpt><trkpt lat="43.098296902540575" lon="12.199727516743376"><ele>279.0</ele><time>2026-04-19T09:37:33Z</time></trkpt><trkpt lat="43.09812887332449" lon="12.199686510005666"><ele>277.0</ele><time>2026-04-19T09:37:34Z</time></trkpt><trkpt lat="43.097968962731514" lon="12.199673454835557"><ele>277.0</ele><time>2026-04-19T09:37:35Z</time></trkpt><trkpt lat="43.097802310271206" lon="12.199711055390198"><ele>277.0</ele><time>2026-04-19T09:37:36Z</time></trkpt><trkpt lat="43.09762907333618" lon="12.199788379533134"><ele>277.0</ele><time>2026-04-19T09:37:37Z</time></trkpt><trkpt lat="43.097468070253626" lon="12.199927159318342"><ele>279.0</ele><time>2026-04-19T09:37:38Z</time></trkpt><trkpt lat="43.09731874640645" lon="12.200082860047733"><ele>281.0</ele><time>2026-04-19T09:37:39Z</time></trkpt><trkpt lat="43.09717231441522" lon="12.200241403300446"><ele>283.0</ele><time>2026-04-19T09:37:40Z</time></trkpt><trkpt lat="43.097033966686304" lon="12.20037978584963"><ele>283.0</ele><time>2026-04-19T09:37:41Z</time></trkpt><trkpt lat="43.096898199206116" lon="12.200487946823705"><ele>283.0</ele><time>2026-04-19T09:37:42Z</time></trkpt><trkpt lat="43.09673815852932" lon="12.200557180722358"><ele>283.0</ele><time>2026-04-19T09:37:43Z</time></trkpt><trkpt lat="43.096561885426645" lon="12.200533113853176"><ele>284.3333333333333</ele><time>2026-04-19T09:37:44Z</time></trkpt><trkpt lat="43.0964022924525" lon="12.200451520792525"><ele>285.6666666666667</ele><time>2026-04-19T09:37:45Z</time></trkpt><trkpt lat="43.096223594516665" lon="12.200326460975532"><ele>287.0</ele><time>2026-04-19T09:37:46Z</time></trkpt><trkpt lat="43.09603298291787" lon="12.200201929896004"><ele>287.0</ele><time>2026-04-19T09:37:47Z</time></trkpt><trkpt lat="43.0958711021739" lon="12.200069918418347"><ele>287.0</ele><time>2026-04-19T09:37:48Z</time></trkpt><trkpt lat="43.09571955418192" lon="12.199967973934925"><ele>287.0</ele><time>2026-04-19T09:37:49Z</time></trkpt><trkpt lat="43.09557955882812" lon="12.199873884208483"><ele>288.33333333333337</ele><time>2026-04-19T09:37:50Z</time></trkpt><trkpt lat="43.09544541176173" lon="12.199781307452971"><ele>289.6666666666667</ele><time>2026-04-19T09:37:51Z</time></trkpt><trkpt lat="43.09530071271205" lon="12.199706849766956"><ele>291.0</ele><time>2026-04-19T09:37:52Z</time></trkpt><trkpt lat="43.095153475493774" lon="12.199662010216766"><ele>291.0</ele><time>2026-04-19T09:37:53Z</time></trkpt><trkpt lat="43.09501479969605" lon="12.199642985996075"><ele>291.0</ele><time>2026-04-19T09:37:54Z</time></trkpt><trkpt lat="43.094878990521586" lon="12.199596725726964"><ele>291.0</ele><time>2026-04-19T09:37:55Z</time></trkpt><trkpt lat="43.0947276932777" lon="12.199562129594161"><ele>291.0</ele><time>2026-04-19T09:37:56Z</time></trkpt><trkpt lat="43.09457278622343" lon="12.199512414134853"><ele>290.6666666666667</ele><time>2026-04-19T09:37:57Z</time></trkpt><trkpt lat="43.094430836562154" lon="12.19944949981311"><ele>290.33333333333337</ele><time>2026-04-19T09:37:58Z</time></trkpt><trkpt lat="43.09428739445459" lon="12.199372425836728"><ele>290.0</ele><time>2026-04-19T09:37:59Z</time></trkpt><trkpt lat="43.09414917570069" lon="12.199282292867796"><ele>291.0</ele><time>2026-04-19T09:38:00Z</time></trkpt><trkpt lat="43.09402396543662" lon="12.199194576921546"><ele>292.0</ele><time>2026-04-19T09:38:01Z</time></trkpt><trkpt lat="43.093903995115284" lon="12.199109480966026"><ele>293.0</ele><time>2026-04-19T09:38:02Z</time></trkpt><trkpt lat="43.09377664692023" lon="12.199017801293497"><ele>294.0</ele><time>2026-04-19T09:38:03Z</time></trkpt><trkpt lat="43.09364404264743" lon="12.198945672963049"><ele>291.75</ele><time>2026-04-19T09:38:04Z</time></trkpt><trkpt lat="43.09352097542175" lon="12.19885630574027"><ele>289.5</ele><time>2026-04-19T09:38:05Z</time></trkpt><trkpt lat="43.093396322630824" lon="12.198766858536542"><ele>287.25</ele><time>2026-04-19T09:38:06Z</time></trkpt><trkpt lat="43.09326845400952" lon="12.198678630122588"><ele>285.0</ele><time>2026-04-19T09:38:07Z</time></trkpt><trkpt lat="43.093140414380684" lon="12.198606413157307"><ele>284.75</ele><time>2026-04-19T09:38:08Z</time></trkpt><trkpt lat="43.09301747985453" lon="12.198556440592649"><ele>284.5</ele><time>2026-04-19T09:38:09Z</time></trkpt><trkpt lat="43.092892578617175" lon="12.198526945066437"><ele>284.25</ele><time>2026-04-19T09:38:10Z</time></trkpt><trkpt lat="43.09276511013632" lon="12.198513284034622"><ele>284.0</ele><time>2026-04-19T09:38:11Z</time></trkpt><trkpt lat="43.092632579424595" lon="12.198516426823788"><ele>284.0</ele><time>2026-04-19T09:38:12Z</time></trkpt><trkpt lat="43.09250818595276" lon="12.198487834492575"><ele>284.0</ele><time>2026-04-19T09:38:13Z</time></trkpt><trkpt lat="43.09238808221242" lon="12.198455540462678"><ele>284.0</ele><time>2026-04-19T09:38:14Z</time></trkpt><trkpt lat="43.09226634493313" lon="12.198390055764618"><ele>284.0</ele><time>2026-04-19T09:38:15Z</time></trkpt><trkpt lat="43.092157170387914" lon="12.198287231794273"><ele>284.2</ele><time>2026-04-19T09:38:16Z</time></trkpt><trkpt lat="43.0920814700551" lon="12.198161270284833"><ele>284.4</ele><time>2026-04-19T09:38:17Z</time></trkpt><trkpt lat="43.092022083229274" lon="12.198034379948117"><ele>284.6</ele><time>2026-04-19T09:38:18Z</time></trkpt><trkpt lat="43.09195624009291" lon="12.197924069306612"><ele>284.8</ele><time>2026-04-19T09:38:19Z</time></trkpt><trkpt lat="43.09191077029596" lon="12.197796466538799"><ele>285.0</ele><time>2026-04-19T09:38:20Z</time></trkpt><trkpt lat="43.091852445112735" lon="12.197668775811348"><ele>285.0</ele><time>2026-04-19T09:38:21Z</time></trkpt><trkpt lat="43.0917843152234" lon="12.197542583690517"><ele>285.0</ele><time>2026-04-19T09:38:22Z</time></trkpt><trkpt lat="43.09171402001804" lon="12.197443754733417"><ele>285.0</ele><time>2026-04-19T09:38:23Z</time></trkpt><trkpt lat="43.09162860412468" lon="12.197370084942591"><ele>285.0</ele><time>2026-04-19T09:38:24Z</time></trkpt><trkpt lat="43.091523899619595" lon="12.197313355296222"><ele>285.0</ele><time>2026-04-19T09:38:25Z</time></trkpt><trkpt lat="43.091412488130146" lon="12.197291568151526"><ele>285.4</ele><time>2026-04-19T09:38:26Z</time></trkpt><trkpt lat="43.091296516094275" lon="12.19728879514709"><ele>285.8</ele><time>2026-04-19T09:38:27Z</time></trkpt><trkpt lat="43.091196802982026" lon="12.197297060606722"><ele>286.2</ele><time>2026-04-19T09:38:28Z</time></trkpt><trkpt lat="43.09110267319845" lon="12.197322213469432"><ele>286.6</ele><time>2026-04-19T09:38:29Z</time></trkpt><trkpt lat="43.091027031636244" lon="12.197351839757163"><ele>287.0</ele><time>2026-04-19T09:38:30Z</time></trkpt><trkpt lat="43.09096049789067" lon="12.197369257845633"><ele>287.0</ele><time>2026-04-19T09:38:31Z</time></trkpt><trkpt lat="43.0908906572946" lon="12.19738730954915"><ele>287.0</ele><time>2026-04-19T09:38:32Z</time></trkpt><trkpt lat="43.090812139954046" lon="12.19740453901475"><ele>287.0</ele><time>2026-04-19T09:38:33Z</time></trkpt><trkpt lat="43.090731839826375" lon="12.1974267891677"><ele>287.0</ele><time>2026-04-19T09:38:34Z</time></trkpt><trkpt lat="43.09065696430043" lon="12.197444674018438"><ele>287.0</ele><time>2026-04-19T09:38:35Z</time></trkpt><trkpt lat="43.0905701461136" lon="12.197462596399767"><ele>287.0</ele><time>2026-04-19T09:38:36Z</time></trkpt><trkpt lat="43.090474676200515" lon="12.197481470152201"><ele>287.25</ele><time>2026-04-19T09:38:37Z</time></trkpt><trkpt lat="43.09037685990727" lon="12.197507329270396"><ele>287.5</ele><time>2026-04-19T09:38:38Z</time></trkpt><trkpt lat="43.09026476184536" lon="12.197542271045778"><ele>287.75</ele><time>2026-04-19T09:38:39Z</time></trkpt><trkpt lat="43.090141031133086" lon="12.197546186062066"><ele>288.0</ele><time>2026-04-19T09:38:40Z</time></trkpt><trkpt lat="43.09001038941133" lon="12.197560519104567"><ele>290.0</ele><time>2026-04-19T09:38:41Z</time></trkpt><trkpt lat="43.089890318553884" lon="12.197534865142417"><ele>292.0</ele><time>2026-04-19T09:38:42Z</time></trkpt><trkpt lat="43.089773037929966" lon="12.19746912248632"><ele>294.0</ele><time>2026-04-19T09:38:43Z</time></trkpt><trkpt lat="43.08967520714861" lon="12.197350471410912"><ele>296.0</ele><time>2026-04-19T09:38:44Z</time></trkpt><trkpt lat="43.08960390161902" lon="12.197203914653823"><ele>296.0</ele><time>2026-04-19T09:38:45Z</time></trkpt><trkpt lat="43.089551278469706" lon="12.19705050141661"><ele>296.0</ele><time>2026-04-19T09:38:46Z</time></trkpt><trkpt lat="43.08950778875293" lon="12.196917143166003"><ele>296.0</ele><time>2026-04-19T09:38:47Z</time></trkpt><trkpt lat="43.089450061987634" lon="12.19679801277681"><ele>296.0</ele><time>2026-04-19T09:38:48Z</time></trkpt><trkpt lat="43.08939957502824" lon="12.19667419341846"><ele>296.0</ele><time>2026-04-19T09:38:49Z</time></trkpt><trkpt lat="43.08934396157904" lon="12.196560636004222"><ele>295.0</ele><time>2026-04-19T09:38:50Z</time></trkpt><trkpt lat="43.089265759684324" lon="12.19646091653275"><ele>294.0</ele><time>2026-04-19T09:38:51Z</time></trkpt><trkpt lat="43.0891644743783" lon="12.196363987133193"><ele>293.0</ele><time>2026-04-19T09:38:52Z</time></trkpt><trkpt lat="43.08905306515563" lon="12.196278688142154"><ele>292.0</ele><time>2026-04-19T09:38:53Z</time></trkpt><trkpt lat="43.088953445857264" lon="12.19621881357972"><ele>292.0</ele><time>2026-04-19T09:38:54Z</time></trkpt><trkpt lat="43.08886490206841" lon="12.196169432542685"><ele>292.0</ele><time>2026-04-19T09:38:55Z</time></trkpt><trkpt lat="43.088772121527484" lon="12.196118111400079"><ele>292.0</ele><time>2026-04-19T09:38:56Z</time></trkpt><trkpt lat="43.088675351281765" lon="12.196061801614151"><ele>292.0</ele><time>2026-04-19T09:38:57Z</time></trkpt><trkpt lat="43.08858051098291" lon="12.195997122149926"><ele>292.0</ele><time>2026-04-19T09:38:58Z</time></trkpt><trkpt lat="43.08847098523074" lon="12.195932418653486"><ele>292.0</ele><time>2026-04-19T09:38:59Z</time></trkpt><trkpt lat="43.08833731418523" lon="12.195868054878156"><ele>292.0</ele><time>2026-04-19T09:39:00Z</time></trkpt><trkpt lat="43.08820980432097" lon="12.195802569470217"><ele>292.0</ele><time>2026-04-19T09:39:01Z</time></trkpt><trkpt lat="43.08809417172239" lon="12.195742792486064"><ele>292.0</ele><time>2026-04-19T09:39:02Z</time></trkpt><trkpt lat="43.0879901122599" lon="12.19568444945342"><ele>291.2</ele><time>2026-04-19T09:39:03Z</time></trkpt><trkpt lat="43.087891352317" lon="12.195620651694297"><ele>290.4</ele><time>2026-04-19T09:39:04Z</time></trkpt><trkpt lat="43.08779223713043" lon="12.195554502937952"><ele>289.6</ele><time>2026-04-19T09:39:05Z</time></trkpt><trkpt lat="43.08769530629177" lon="12.195473482069223"><ele>288.8</ele><time>2026-04-19T09:39:06Z</time></trkpt><trkpt lat="43.08761092128152" lon="12.195366677178342"><ele>288.0</ele><time>2026-04-19T09:39:07Z</time></trkpt><trkpt lat="43.087561016690294" lon="12.195229099029001"><ele>288.0</ele><time>2026-04-19T09:39:08Z</time></trkpt><trkpt lat="43.087502484933985" lon="12.195105747724186"><ele>288.0</ele><time>2026-04-19T09:39:09Z</time></trkpt><trkpt lat="43.08749319638336" lon="12.194968016335276"><ele>288.0</ele><time>2026-04-19T09:39:10Z</time></trkpt><trkpt lat="43.08749311832426" lon="12.194820756558888"><ele>288.0</ele><time>2026-04-19T09:39:11Z</time></trkpt><trkpt lat="43.087504555636876" lon="12.194624999644395"><ele>287.0</ele><time>2026-04-19T09:39:12Z</time></trkpt><trkpt lat="43.08752559931088" lon="12.194370570809312"><ele>286.0</ele><time>2026-04-19T09:39:13Z</time></trkpt><trkpt lat="43.08755456390179" lon="12.194046829597644"><ele>285.0</ele><time>2026-04-19T09:39:14Z</time></trkpt><trkpt lat="43.08758859545653" lon="12.193673133765193"><ele>284.6666666666667</ele><time>2026-04-19T09:39:15Z</time></trkpt><trkpt lat="43.08761877383405" lon="12.193347968824884"><ele>284.33333333333337</ele><time>2026-04-19T09:39:16Z</time></trkpt><trkpt lat="43.08763773945827" lon="12.193081938955167"><ele>284.0</ele><time>2026-04-19T09:39:17Z</time></trkpt><trkpt lat="43.08766086303144" lon="12.192829783043415"><ele>283.5</ele><time>2026-04-19T09:39:18Z</time></trkpt><trkpt lat="43.08767590314157" lon="12.192600109430918"><ele>283.0</ele><time>2026-04-19T09:39:19Z</time></trkpt><trkpt lat="43.08769195730308" lon="12.192413902017341"><ele>282.5</ele><time>2026-04-19T09:39:20Z</time></trkpt><trkpt lat="43.08769857648251" lon="12.192231490861346"><ele>282.0</ele><time>2026-04-19T09:39:21Z</time></trkpt><trkpt lat="43.0876859159699" lon="12.192063732525595"><ele>282.0</ele><time>2026-04-19T09:39:22Z</time></trkpt><trkpt lat="43.087648557509034" lon="12.191912235979633"><ele>282.0</ele><time>2026-04-19T09:39:23Z</time></trkpt><trkpt lat="43.08756800413351" lon="12.191737367667091"><ele>282.0</ele><time>2026-04-19T09:39:24Z</time></trkpt><trkpt lat="43.08747302095898" lon="12.191479075971282"><ele>285.0</ele><time>2026-04-19T09:39:25Z</time></trkpt><trkpt lat="43.08734824685028" lon="12.191206416516078"><ele>288.0</ele><time>2026-04-19T09:39:26Z</time></trkpt><trkpt lat="43.08724115757822" lon="12.190975923604126"><ele>291.0</ele><time>2026-04-19T09:39:27Z</time></trkpt><trkpt lat="43.08715749361275" lon="12.190775319871639"><ele>290.6666666666667</ele><time>2026-04-19T09:39:28Z</time></trkpt><trkpt lat="43.0870867225131" lon="12.190563021293636"><ele>290.33333333333337</ele><time>2026-04-19T09:39:29Z</time></trkpt><trkpt lat="43.08708429015821" lon="12.190329543850716"><ele>290.0</ele><time>2026-04-19T09:39:30Z</time></trkpt><trkpt lat="43.087114031859656" lon="12.190096270624954"><ele>292.0</ele><time>2026-04-19T09:39:31Z</time></trkpt><trkpt lat="43.08717214916626" lon="12.189841144053862"><ele>294.0</ele><time>2026-04-19T09:39:32Z</time></trkpt><trkpt lat="43.087223322738176" lon="12.18956696221245"><ele>296.0</ele><time>2026-04-19T09:39:33Z</time></trkpt><trkpt lat="43.0872932140612" lon="12.189299086119311"><ele>296.0</ele><time>2026-04-19T09:39:34Z</time></trkpt><trkpt lat="43.08735873367769" lon="12.189028169281098"><ele>296.0</ele><time>2026-04-19T09:39:35Z</time></trkpt><trkpt lat="43.08742299045599" lon="12.188754942736367"><ele>296.0</ele><time>2026-04-19T09:39:36Z</time></trkpt><trkpt lat="43.08748653295294" lon="12.188487271448983"><ele>289.33333333333337</ele><time>2026-04-19T09:39:37Z</time></trkpt><trkpt lat="43.08755196547024" lon="12.1882402575346"><ele>282.6666666666667</ele><time>2026-04-19T09:39:38Z</time></trkpt><trkpt lat="43.087609021299755" lon="12.188005915277204"><ele>276.0</ele><time>2026-04-19T09:39:39Z</time></trkpt><trkpt lat="43.08765283361882" lon="12.187783734576465"><ele>275.6666666666667</ele><time>2026-04-19T09:39:40Z</time></trkpt><trkpt lat="43.08767430907294" lon="12.187560796915314"><ele>275.33333333333337</ele><time>2026-04-19T09:39:41Z</time></trkpt><trkpt lat="43.08766476051624" lon="12.187326433517688"><ele>275.0</ele><time>2026-04-19T09:39:42Z</time></trkpt><trkpt lat="43.087625326338845" lon="12.187079702056218"><ele>273.33333333333337</ele><time>2026-04-19T09:39:43Z</time></trkpt><trkpt lat="43.08756250913201" lon="12.186822785542974"><ele>271.6666666666667</ele><time>2026-04-19T09:39:44Z</time></trkpt><trkpt lat="43.087488806663735" lon="12.186558562809186"><ele>270.0</ele><time>2026-04-19T09:39:45Z</time></trkpt><trkpt lat="43.087439227452805" lon="12.186281246027228"><ele>271.0</ele><time>2026-04-19T09:39:46Z</time></trkpt><trkpt lat="43.087379708111115" lon="12.186014071568207"><ele>272.0</ele><time>2026-04-19T09:39:47Z</time></trkpt><trkpt lat="43.08731862729582" lon="12.185736874578867"><ele>273.0</ele><time>2026-04-19T09:39:48Z</time></trkpt><trkpt lat="43.0872625036374" lon="12.18545569991089"><ele>270.5</ele><time>2026-04-19T09:39:49Z</time></trkpt><trkpt lat="43.08725532056389" lon="12.185153889097451"><ele>268.0</ele><time>2026-04-19T09:39:50Z</time></trkpt><trkpt lat="43.08727825429309" lon="12.184840306472845"><ele>268.0</ele><time>2026-04-19T09:39:51Z</time></trkpt><trkpt lat="43.08731605457001" lon="12.184517536655342"><ele>268.0</ele><time>2026-04-19T09:39:52Z</time></trkpt><trkpt lat="43.08735135038381" lon="12.184193043533286"><ele>268.5</ele><time>2026-04-19T09:39:53Z</time></trkpt><trkpt lat="43.087376951711704" lon="12.183871787803037"><ele>269.0</ele><time>2026-04-19T09:39:54Z</time></trkpt><trkpt lat="43.08740305030671" lon="12.183546275387465"><ele>265.0</ele><time>2026-04-19T09:39:55Z</time></trkpt><trkpt lat="43.087431096141216" lon="12.183214614910822"><ele>261.0</ele><time>2026-04-19T09:39:56Z</time></trkpt><trkpt lat="43.08746096152563" lon="12.182877990291535"><ele>260.5</ele><time>2026-04-19T09:39:57Z</time></trkpt><trkpt lat="43.08748848721753" lon="12.182537306007262"><ele>260.0</ele><time>2026-04-19T09:39:58Z</time></trkpt><trkpt lat="43.08751752912426" lon="12.182194765395437"><ele>260.0</ele><time>2026-04-19T09:39:59Z</time></trkpt><trkpt lat="43.08754965645029" lon="12.181847009486471"><ele>260.0</ele><time>2026-04-19T09:40:00Z</time></trkpt><trkpt lat="43.08758406162759" lon="12.181494515896198"><ele>262.0</ele><time>2026-04-19T09:40:01Z</time></trkpt><trkpt lat="43.08761754642948" lon="12.18114652334917"><ele>264.0</ele><time>2026-04-19T09:40:02Z</time></trkpt><trkpt lat="43.087648718457174" lon="12.18079798596214"><ele>264.0</ele><time>2026-04-19T09:40:03Z</time></trkpt><trkpt lat="43.087676595072786" lon="12.180450386481278"><ele>264.0</ele><time>2026-04-19T09:40:04Z</time></trkpt><trkpt lat="43.08770521267753" lon="12.180107611975272"><ele>266.5</ele><time>2026-04-19T09:40:05Z</time></trkpt><trkpt lat="43.08773256687011" lon="12.179763887121538"><ele>269.0</ele><time>2026-04-19T09:40:06Z</time></trkpt><trkpt lat="43.0877580612146" lon="12.179422816251147"><ele>269.0</ele><time>2026-04-19T09:40:07Z</time></trkpt><trkpt lat="43.08778271700521" lon="12.17908668902528"><ele>269.0</ele><time>2026-04-19T09:40:08Z</time></trkpt><trkpt lat="43.0878074331352" lon="12.178751052865039"><ele>268.5</ele><time>2026-04-19T09:40:09Z</time></trkpt><trkpt lat="43.08783544283271" lon="12.178414381092677"><ele>268.0</ele><time>2026-04-19T09:40:10Z</time></trkpt><trkpt lat="43.087864402976884" lon="12.178078602457049"><ele>268.0</ele><time>2026-04-19T09:40:11Z</time></trkpt><trkpt lat="43.087892675221006" lon="12.177739553709774"><ele>268.0</ele><time>2026-04-19T09:40:12Z</time></trkpt><trkpt lat="43.087920036160114" lon="12.17739011827669"><ele>267.5</ele><time>2026-04-19T09:40:13Z</time></trkpt><trkpt lat="43.08794791243515" lon="12.17703997270521"><ele>267.0</ele><time>2026-04-19T09:40:14Z</time></trkpt><trkpt lat="43.08797632642306" lon="12.176696489209316"><ele>267.5</ele><time>2026-04-19T09:40:15Z</time></trkpt><trkpt lat="43.088003900854595" lon="12.176362589740068"><ele>268.0</ele><time>2026-04-19T09:40:16Z</time></trkpt><trkpt lat="43.088030036796596" lon="12.176039531831293"><ele>268.0</ele><time>2026-04-19T09:40:17Z</time></trkpt><trkpt lat="43.08805417663346" lon="12.175726295732577"><ele>268.0</ele><time>2026-04-19T09:40:18Z</time></trkpt><trkpt lat="43.08807649630325" lon="12.175426744356656"><ele>267.66666666666663</ele><time>2026-04-19T09:40:19Z</time></trkpt><trkpt lat="43.08809829528353" lon="12.175123723345179"><ele>267.3333333333333</ele><time>2026-04-19T09:40:20Z</time></trkpt><trkpt lat="43.08811968969402" lon="12.174823125771876"><ele>267.0</ele><time>2026-04-19T09:40:21Z</time></trkpt><trkpt lat="43.088142508055846" lon="12.174523582686888"><ele>267.0</ele><time>2026-04-19T09:40:22Z</time></trkpt><trkpt lat="43.08816877652373" lon="12.174223667765702"><ele>267.0</ele><time>2026-04-19T09:40:23Z</time></trkpt><trkpt lat="43.08819201806328" lon="12.173929093266326"><ele>267.0</ele><time>2026-04-19T09:40:24Z</time></trkpt><trkpt lat="43.08821205862075" lon="12.173652548818746"><ele>267.6666666666667</ele><time>2026-04-19T09:40:25Z</time></trkpt><trkpt lat="43.08823231525721" lon="12.173384682418641"><ele>268.33333333333337</ele><time>2026-04-19T09:40:26Z</time></trkpt><trkpt lat="43.08825020526069" lon="12.173136741649248"><ele>269.0</ele><time>2026-04-19T09:40:27Z</time></trkpt><trkpt lat="43.088272904496044" lon="12.172894596816747"><ele>269.6666666666667</ele><time>2026-04-19T09:40:28Z</time></trkpt><trkpt lat="43.08831145082991" lon="12.17266216011717"><ele>270.3333333333333</ele><time>2026-04-19T09:40:29Z</time></trkpt><trkpt lat="43.08837272401996" lon="12.172442960866293"><ele>271.0</ele><time>2026-04-19T09:40:30Z</time></trkpt><trkpt lat="43.08845379763482" lon="12.172234318496473"><ele>271.0</ele><time>2026-04-19T09:40:31Z</time></trkpt><trkpt lat="43.088554939408716" lon="12.172033985037029"><ele>271.0</ele><time>2026-04-19T09:40:32Z</time></trkpt><trkpt lat="43.0886641930051" lon="12.171848300215267"><ele>271.0</ele><time>2026-04-19T09:40:33Z</time></trkpt><trkpt lat="43.08876494456824" lon="12.171674036241757"><ele>276.3333333333333</ele><time>2026-04-19T09:40:34Z</time></trkpt><trkpt lat="43.08885301628097" lon="12.171508086905781"><ele>281.6666666666667</ele><time>2026-04-19T09:40:35Z</time></trkpt><trkpt lat="43.088939826822454" lon="12.171335204182084"><ele>287.0</ele><time>2026-04-19T09:40:36Z</time></trkpt><trkpt lat="43.08903188604882" lon="12.17113730752875"><ele>281.6666666666667</ele><time>2026-04-19T09:40:37Z</time></trkpt><trkpt lat="43.08913410989073" lon="12.170921463308057"><ele>276.3333333333333</ele><time>2026-04-19T09:40:38Z</time></trkpt><trkpt lat="43.08925206813164" lon="12.170694694269994"><ele>271.0</ele><time>2026-04-19T09:40:39Z</time></trkpt><trkpt lat="43.089387659043105" lon="12.170440886852552"><ele>271.0</ele><time>2026-04-19T09:40:40Z</time></trkpt><trkpt lat="43.08953880764792" lon="12.170165528181474"><ele>271.0</ele><time>2026-04-19T09:40:41Z</time></trkpt><trkpt lat="43.08969076928814" lon="12.169913833360852"><ele>270.3333333333333</ele><time>2026-04-19T09:40:42Z</time></trkpt><trkpt lat="43.08981098032275" lon="12.169713108349924"><ele>269.6666666666667</ele><time>2026-04-19T09:40:43Z</time></trkpt><trkpt lat="43.089908715211585" lon="12.169531241291066"><ele>269.0</ele><time>2026-04-19T09:40:44Z</time></trkpt><trkpt lat="43.090003309135206" lon="12.169344814767761"><ele>269.0</ele><time>2026-04-19T09:40:45Z</time></trkpt><trkpt lat="43.090098666812494" lon="12.169159656421884"><ele>269.0</ele><time>2026-04-19T09:40:46Z</time></trkpt><trkpt lat="43.0901884534231" lon="12.16898146574584"><ele>269.0</ele><time>2026-04-19T09:40:47Z</time></trkpt><trkpt lat="43.090274857872025" lon="12.168798526977351"><ele>270.6666666666667</ele><time>2026-04-19T09:40:48Z</time></trkpt><trkpt lat="43.09034957838439" lon="12.168600007626337"><ele>272.3333333333333</ele><time>2026-04-19T09:40:49Z</time></trkpt><trkpt lat="43.09040300043874" lon="12.168386468802362"><ele>274.0</ele><time>2026-04-19T09:40:50Z</time></trkpt><trkpt lat="43.090444099096615" lon="12.168153721778681"><ele>274.0</ele><time>2026-04-19T09:40:51Z</time></trkpt><trkpt lat="43.09048034013306" lon="12.167911497184784"><ele>274.0</ele><time>2026-04-19T09:40:52Z</time></trkpt><trkpt lat="43.0905158945689" lon="12.167672919413901"><ele>274.0</ele><time>2026-04-19T09:40:53Z</time></trkpt><trkpt lat="43.09055316477651" lon="12.167431519136477"><ele>276.66666666666663</ele><time>2026-04-19T09:40:54Z</time></trkpt><trkpt lat="43.09059110446631" lon="12.167190603933948"><ele>279.3333333333333</ele><time>2026-04-19T09:40:55Z</time></trkpt><trkpt lat="43.090627803558704" lon="12.166951296049175"><ele>282.0</ele><time>2026-04-19T09:40:56Z</time></trkpt><trkpt lat="43.09066515986374" lon="12.166715812532871"><ele>285.6666666666667</ele><time>2026-04-19T09:40:57Z</time></trkpt><trkpt lat="43.09070205799573" lon="12.166490554395992"><ele>289.33333333333337</ele><time>2026-04-19T09:40:58Z</time></trkpt><trkpt lat="43.09073313433777" lon="12.166274194059632"><ele>293.0</ele><time>2026-04-19T09:40:59Z</time></trkpt><trkpt lat="43.0907642426683" lon="12.166041874648087"><ele>292.33333333333337</ele><time>2026-04-19T09:41:00Z</time></trkpt><trkpt lat="43.09077940947175" lon="12.165813093140676"><ele>291.6666666666667</ele><time>2026-04-19T09:41:01Z</time></trkpt><trkpt lat="43.090768320652934" lon="12.165584317694519"><ele>291.0</ele><time>2026-04-19T09:41:02Z</time></trkpt><trkpt lat="43.090717305332745" lon="12.165342064486042"><ele>291.0</ele><time>2026-04-19T09:41:03Z</time></trkpt><trkpt lat="43.09064626965936" lon="12.165096782282884"><ele>291.0</ele><time>2026-04-19T09:41:04Z</time></trkpt><trkpt lat="43.090571727384386" lon="12.164845921173535"><ele>291.0</ele><time>2026-04-19T09:41:05Z</time></trkpt><trkpt lat="43.090496824138334" lon="12.164593133946076"><ele>288.6666666666667</ele><time>2026-04-19T09:41:06Z</time></trkpt><trkpt lat="43.09042662012515" lon="12.164344321741597"><ele>286.33333333333337</ele><time>2026-04-19T09:41:07Z</time></trkpt><trkpt lat="43.09035354657319" lon="12.164096838268854"><ele>284.0</ele><time>2026-04-19T09:41:08Z</time></trkpt><trkpt lat="43.09027678397418" lon="12.16385460757886"><ele>279.0</ele><time>2026-04-19T09:41:09Z</time></trkpt><trkpt lat="43.09019806600209" lon="12.163635562753614"><ele>274.0</ele><time>2026-04-19T09:41:10Z</time></trkpt><trkpt lat="43.09010034230718" lon="12.163451805258186"><ele>269.0</ele><time>2026-04-19T09:41:11Z</time></trkpt><trkpt lat="43.0899661566801" lon="12.163295552983513"><ele>268.6666666666667</ele><time>2026-04-19T09:41:12Z</time></trkpt><trkpt lat="43.08981696719194" lon="12.163157214320108"><ele>268.3333333333333</ele><time>2026-04-19T09:41:13Z</time></trkpt><trkpt lat="43.089667654319854" lon="12.163021671228666"><ele>268.0</ele><time>2026-04-19T09:41:14Z</time></trkpt><trkpt lat="43.089518090503944" lon="12.162876271270155"><ele>268.0</ele><time>2026-04-19T09:41:15Z</time></trkpt><trkpt lat="43.089367836237656" lon="12.16272610587053"><ele>268.0</ele><time>2026-04-19T09:41:16Z</time></trkpt><trkpt lat="43.08921632609548" lon="12.162575011178948"><ele>268.0</ele><time>2026-04-19T09:41:17Z</time></trkpt><trkpt lat="43.08906272727293" lon="12.162421315018829"><ele>269.0</ele><time>2026-04-19T09:41:18Z</time></trkpt><trkpt lat="43.08890305630206" lon="12.162261924187952"><ele>270.0</ele><time>2026-04-19T09:41:19Z</time></trkpt><trkpt lat="43.088745154268" lon="12.16210158309312"><ele>271.0</ele><time>2026-04-19T09:41:20Z</time></trkpt><trkpt lat="43.08859422275273" lon="12.161952561874177"><ele>271.0</ele><time>2026-04-19T09:41:21Z</time></trkpt><trkpt lat="43.08843799403928" lon="12.161804539434854"><ele>271.0</ele><time>2026-04-19T09:41:22Z</time></trkpt><trkpt lat="43.08828427381934" lon="12.161654093669174"><ele>271.0</ele><time>2026-04-19T09:41:23Z</time></trkpt><trkpt lat="43.08809645395832" lon="12.161479147417197"><ele>269.66666666666663</ele><time>2026-04-19T09:41:24Z</time></trkpt><trkpt lat="43.0879283779887" lon="12.161316817956715"><ele>268.3333333333333</ele><time>2026-04-19T09:41:25Z</time></trkpt><trkpt lat="43.08775984519277" lon="12.16115443090795"><ele>267.0</ele><time>2026-04-19T09:41:26Z</time></trkpt><trkpt lat="43.08759358959944" lon="12.160989849983723"><ele>267.0</ele><time>2026-04-19T09:41:27Z</time></trkpt><trkpt lat="43.087434035560854" lon="12.16083072492005"><ele>267.0</ele><time>2026-04-19T09:41:28Z</time></trkpt><trkpt lat="43.087278970318415" lon="12.160677604382872"><ele>267.0</ele><time>2026-04-19T09:41:29Z</time></trkpt><trkpt lat="43.08712392018995" lon="12.160520267184554"><ele>266.6666666666667</ele><time>2026-04-19T09:41:30Z</time></trkpt><trkpt lat="43.0869682126951" lon="12.160368087501265"><ele>266.33333333333337</ele><time>2026-04-19T09:41:31Z</time></trkpt><trkpt lat="43.08682301668826" lon="12.160227344240903"><ele>266.0</ele><time>2026-04-19T09:41:32Z</time></trkpt><trkpt lat="43.08668126004545" lon="12.160109999028622"><ele>266.6666666666667</ele><time>2026-04-19T09:41:33Z</time></trkpt><trkpt lat="43.086528094301066" lon="12.1600294675131"><ele>267.3333333333333</ele><time>2026-04-19T09:41:34Z</time></trkpt><trkpt lat="43.086357262100876" lon="12.160001765132174"><ele>268.0</ele><time>2026-04-19T09:41:35Z</time></trkpt><trkpt lat="43.08617903494138" lon="12.160033544807034"><ele>268.0</ele><time>2026-04-19T09:41:36Z</time></trkpt><trkpt lat="43.085994387376665" lon="12.160093203214899"><ele>268.0</ele><time>2026-04-19T09:41:37Z</time></trkpt><trkpt lat="43.085810842752316" lon="12.160165172595676"><ele>268.0</ele><time>2026-04-19T09:41:38Z</time></trkpt><trkpt lat="43.08562635003495" lon="12.160238536843886"><ele>268.3333333333333</ele><time>2026-04-19T09:41:39Z</time></trkpt><trkpt lat="43.08544941946687" lon="12.160297136315979"><ele>268.6666666666667</ele><time>2026-04-19T09:41:40Z</time></trkpt><trkpt lat="43.085288717829044" lon="12.160350028769672"><ele>269.0</ele><time>2026-04-19T09:41:41Z</time></trkpt><trkpt lat="43.08513346216276" lon="12.16038334004392"><ele>269.0</ele><time>2026-04-19T09:41:42Z</time></trkpt><trkpt lat="43.084970039894145" lon="12.16037400768974"><ele>269.0</ele><time>2026-04-19T09:41:43Z</time></trkpt><trkpt lat="43.08482588706854" lon="12.160262373719133"><ele>269.0</ele><time>2026-04-19T09:41:44Z</time></trkpt><trkpt lat="43.08468938987465" lon="12.160121750221972"><ele>270.0</ele><time>2026-04-19T09:41:45Z</time></trkpt><trkpt lat="43.08454908458524" lon="12.15995661595983"><ele>271.0</ele><time>2026-04-19T09:41:46Z</time></trkpt><trkpt lat="43.08440880516965" lon="12.159819300006642"><ele>272.0</ele><time>2026-04-19T09:41:47Z</time></trkpt><trkpt lat="43.084299085345066" lon="12.159671150088585"><ele>272.0</ele><time>2026-04-19T09:41:48Z</time></trkpt><trkpt lat="43.08418316094287" lon="12.15953772258996"><ele>272.0</ele><time>2026-04-19T09:41:49Z</time></trkpt><trkpt lat="43.08405757362216" lon="12.159398803008846"><ele>272.0</ele><time>2026-04-19T09:41:50Z</time></trkpt><trkpt lat="43.083930397005936" lon="12.159258572052865"><ele>272.33333333333337</ele><time>2026-04-19T09:41:51Z</time></trkpt><trkpt lat="43.083814853779714" lon="12.159093928370549"><ele>272.6666666666667</ele><time>2026-04-19T09:41:52Z</time></trkpt><trkpt lat="43.08368579110669" lon="12.158939801868003"><ele>273.0</ele><time>2026-04-19T09:41:53Z</time></trkpt><trkpt lat="43.083560472985745" lon="12.158786180983729"><ele>272.6666666666667</ele><time>2026-04-19T09:41:54Z</time></trkpt><trkpt lat="43.08342594846813" lon="12.158633651561715"><ele>272.33333333333337</ele><time>2026-04-19T09:41:55Z</time></trkpt><trkpt lat="43.08333979305091" lon="12.158423099341718"><ele>272.0</ele><time>2026-04-19T09:41:56Z</time></trkpt><trkpt lat="43.083263850025396" lon="12.158200641840684"><ele>272.0</ele><time>2026-04-19T09:41:57Z</time></trkpt><trkpt lat="43.08319925092349" lon="12.15797206381658"><ele>272.0</ele><time>2026-04-19T09:41:58Z</time></trkpt><trkpt lat="43.08311998758536" lon="12.157757087885397"><ele>272.0</ele><time>2026-04-19T09:41:59Z</time></trkpt><trkpt lat="43.08306245771114" lon="12.157554248738945"><ele>271.0</ele><time>2026-04-19T09:42:00Z</time></trkpt><trkpt lat="43.08301962856258" lon="12.157349901759776"><ele>270.0</ele><time>2026-04-19T09:42:01Z</time></trkpt><trkpt lat="43.08296247519943" lon="12.157155057025703"><ele>269.0</ele><time>2026-04-19T09:42:02Z</time></trkpt><trkpt lat="43.08290857281179" lon="12.15697375143271"><ele>269.0</ele><time>2026-04-19T09:42:03Z</time></trkpt><trkpt lat="43.082857206725635" lon="12.156800976988688"><ele>269.0</ele><time>2026-04-19T09:42:04Z</time></trkpt><trkpt lat="43.08280774004266" lon="12.156634591335932"><ele>269.0</ele><time>2026-04-19T09:42:05Z</time></trkpt><trkpt lat="43.082760046752796" lon="12.156472825735438"><ele>269.0</ele><time>2026-04-19T09:42:06Z</time></trkpt><trkpt lat="43.082712383230316" lon="12.156310758748798"><ele>268.6666666666667</ele><time>2026-04-19T09:42:07Z</time></trkpt><trkpt lat="43.08266106932998" lon="12.156136594539944"><ele>268.3333333333333</ele><time>2026-04-19T09:42:08Z</time></trkpt><trkpt lat="43.08260321569906" lon="12.155940241738396"><ele>268.0</ele><time>2026-04-19T09:42:09Z</time></trkpt><trkpt lat="43.08254203912041" lon="12.155733310974501"><ele>267.3333333333333</ele><time>2026-04-19T09:42:10Z</time></trkpt><trkpt lat="43.082478431328575" lon="12.155517990990981"><ele>266.6666666666667</ele><time>2026-04-19T09:42:11Z</time></trkpt><trkpt lat="43.082400276274505" lon="12.155311167411318"><ele>266.0</ele><time>2026-04-19T09:42:12Z</time></trkpt><trkpt lat="43.08233879604212" lon="12.15509150858722"><ele>267.33333333333337</ele><time>2026-04-19T09:42:13Z</time></trkpt><trkpt lat="43.0822760935147" lon="12.15487521765211"><ele>268.6666666666667</ele><time>2026-04-19T09:42:14Z</time></trkpt><trkpt lat="43.08221175746767" lon="12.15465336645349"><ele>270.0</ele><time>2026-04-19T09:42:15Z</time></trkpt><trkpt lat="43.08214754128788" lon="12.154438022433371"><ele>270.0</ele><time>2026-04-19T09:42:16Z</time></trkpt><trkpt lat="43.082086660394054" lon="12.154235798635085"><ele>270.0</ele><time>2026-04-19T09:42:17Z</time></trkpt><trkpt lat="43.082041103668196" lon="12.154026064111257"><ele>270.0</ele><time>2026-04-19T09:42:18Z</time></trkpt><trkpt lat="43.0819659170926" lon="12.153833518463896"><ele>269.3333333333333</ele><time>2026-04-19T09:42:19Z</time></trkpt><trkpt lat="43.08190783789045" lon="12.15362997344778"><ele>268.66666666666663</ele><time>2026-04-19T09:42:20Z</time></trkpt><trkpt lat="43.08185329947649" lon="12.153430807585705"><ele>268.0</ele><time>2026-04-19T09:42:21Z</time></trkpt><trkpt lat="43.081805215368426" lon="12.153225110336326"><ele>267.75</ele><time>2026-04-19T09:42:22Z</time></trkpt><trkpt lat="43.08177415281296" lon="12.153025594554125"><ele>267.5</ele><time>2026-04-19T09:42:23Z</time></trkpt><trkpt lat="43.081757070929285" lon="12.152840846078995"><ele>267.25</ele><time>2026-04-19T09:42:24Z</time></trkpt><trkpt lat="43.08175009748154" lon="12.152651726937153"><ele>267.0</ele><time>2026-04-19T09:42:25Z</time></trkpt><trkpt lat="43.08175122550246" lon="12.152453645244943"><ele>266.3333333333333</ele><time>2026-04-19T09:42:26Z</time></trkpt><trkpt lat="43.081759692185926" lon="12.152248621780698"><ele>265.66666666666663</ele><time>2026-04-19T09:42:27Z</time></trkpt><trkpt lat="43.0817746198605" lon="12.152034698509917"><ele>265.0</ele><time>2026-04-19T09:42:28Z</time></trkpt><trkpt lat="43.0817882849622" lon="12.15181806686753"><ele>265.0</ele><time>2026-04-19T09:42:29Z</time></trkpt><trkpt lat="43.081798306265476" lon="12.15161987750823"><ele>265.0</ele><time>2026-04-19T09:42:30Z</time></trkpt><trkpt lat="43.08180501969242" lon="12.151456087772956"><ele>265.0</ele><time>2026-04-19T09:42:31Z</time></trkpt><trkpt lat="43.08182445852706" lon="12.151343615336566"><ele>265.0</ele><time>2026-04-19T09:42:32Z</time></trkpt><trkpt lat="43.08183236516348" lon="12.151213091925666"><ele>265.0</ele><time>2026-04-19T09:42:34Z</time></trkpt><trkpt lat="43.08163101813014" lon="12.151237663286377"><ele>265.2</ele><time>2026-04-19T09:42:44Z</time></trkpt><trkpt lat="43.081550285399736" lon="12.151300009996083"><ele>265.4</ele><time>2026-04-19T09:42:46Z</time></trkpt><trkpt lat="43.08161368738721" lon="12.151262592165338"><ele>265.6</ele><time>2026-04-19T09:42:52Z</time></trkpt><trkpt lat="43.08169574330119" lon="12.1512196464995"><ele>265.8</ele><time>2026-04-19T09:42:53Z</time></trkpt><trkpt lat="43.08176403367744" lon="12.15121453883043"><ele>266.0</ele><time>2026-04-19T09:42:55Z</time></trkpt><trkpt lat="43.08183784457589" lon="12.151045911709534"><ele>266.0</ele><time>2026-04-19T09:42:58Z</time></trkpt><trkpt lat="43.08184922993824" lon="12.150892350179124"><ele>266.0</ele><time>2026-04-19T09:42:59Z</time></trkpt><trkpt lat="43.08184907307376" lon="12.150725384196228"><ele>266.0</ele><time>2026-04-19T09:43:00Z</time></trkpt><trkpt lat="43.08187624062192" lon="12.150519408478594"><ele>266.0</ele><time>2026-04-19T09:43:01Z</time></trkpt><trkpt lat="43.08188943189593" lon="12.150310480991921"><ele>265.6666666666667</ele><time>2026-04-19T09:43:02Z</time></trkpt><trkpt lat="43.08190296586161" lon="12.15009612743117"><ele>265.3333333333333</ele><time>2026-04-19T09:43:03Z</time></trkpt><trkpt lat="43.08191675525094" lon="12.14987420117596"><ele>265.0</ele><time>2026-04-19T09:43:04Z</time></trkpt><trkpt lat="43.081929073957916" lon="12.149676407926632"><ele>265.0</ele><time>2026-04-19T09:43:05Z</time></trkpt><trkpt lat="43.081922834257725" lon="12.14951429477937"><ele>265.0</ele><time>2026-04-19T09:43:06Z</time></trkpt><trkpt lat="43.08193053835263" lon="12.1494070007643"><ele>265.0</ele><time>2026-04-19T09:43:07Z</time></trkpt><trkpt lat="43.08195123736942" lon="12.149320544692332"><ele>265.0</ele><time>2026-04-19T09:43:13Z</time></trkpt><trkpt lat="43.08195673649923" lon="12.149232248772883"><ele>265.0</ele><time>2026-04-19T09:43:14Z</time></trkpt><trkpt lat="43.08196305052794" lon="12.149126587349611"><ele>265.0</ele><time>2026-04-19T09:43:15Z</time></trkpt><trkpt lat="43.08196920467859" lon="12.14902311548854"><ele>265.0</ele><time>2026-04-19T09:43:16Z</time></trkpt><trkpt lat="43.08197696373781" lon="12.148892659807883"><ele>265.0</ele><time>2026-04-19T09:43:18Z</time></trkpt><trkpt lat="43.081782186934895" lon="12.148868223737662"><ele>265.0</ele><time>2026-04-19T09:43:21Z</time></trkpt><trkpt lat="43.08169837223321" lon="12.148925294764014"><ele>265.0</ele><time>2026-04-19T09:43:22Z</time></trkpt><trkpt lat="43.081592808531326" lon="12.148984231314618"><ele>265.2</ele><time>2026-04-19T09:43:23Z</time></trkpt><trkpt lat="43.08150244597202" lon="12.149029942815174"><ele>265.4</ele><time>2026-04-19T09:43:24Z</time></trkpt><trkpt lat="43.081404235904394" lon="12.149036085846756"><ele>265.6</ele><time>2026-04-19T09:43:25Z</time></trkpt><trkpt lat="43.08130494086951" lon="12.149053253908527"><ele>265.8</ele><time>2026-04-19T09:43:26Z</time></trkpt><trkpt lat="43.08119396485144" lon="12.149052182673053"><ele>266.0</ele><time>2026-04-19T09:43:27Z</time></trkpt><trkpt lat="43.081088380234995" lon="12.148991900985603"><ele>266.2</ele><time>2026-04-19T09:43:28Z</time></trkpt><trkpt lat="43.08098409530313" lon="12.148929920821237"><ele>266.40000000000003</ele><time>2026-04-19T09:43:29Z</time></trkpt><trkpt lat="43.08089528397763" lon="12.14886669641208"><ele>266.6</ele><time>2026-04-19T09:43:30Z</time></trkpt><trkpt lat="43.0808097349637" lon="12.148788192087281"><ele>266.8</ele><time>2026-04-19T09:43:31Z</time></trkpt><trkpt lat="43.08073270752024" lon="12.148715373283284"><ele>267.0</ele><time>2026-04-19T09:43:32Z</time></trkpt><trkpt lat="43.08066559282091" lon="12.14865960645522"><ele>267.5714285714286</ele><time>2026-04-19T09:43:33Z</time></trkpt><trkpt lat="43.08060677393137" lon="12.148621653521872"><ele>268.14285714285717</ele><time>2026-04-19T09:43:34Z</time></trkpt><trkpt lat="43.08054510716575" lon="12.14860079407305"><ele>268.7142857142857</ele><time>2026-04-19T09:43:35Z</time></trkpt><trkpt lat="43.08047876241086" lon="12.148620469500173"><ele>269.28571428571433</ele><time>2026-04-19T09:43:36Z</time></trkpt><trkpt lat="43.08037906522219" lon="12.148645340055376"><ele>269.8571428571429</ele><time>2026-04-19T09:43:38Z</time></trkpt><trkpt lat="43.08031244507222" lon="12.148650721064186"><ele>270.42857142857144</ele><time>2026-04-19T09:43:39Z</time></trkpt><trkpt lat="43.080236228324914" lon="12.148659726650996"><ele>271.0</ele><time>2026-04-19T09:43:40Z</time></trkpt><trkpt lat="43.08017073607108" lon="12.148424482695203"><ele>271.0</ele><time>2026-04-19T09:43:41Z</time></trkpt><trkpt lat="43.08008770711586" lon="12.148424482695635"><ele>271.0</ele><time>2026-04-19T09:43:43Z</time></trkpt><trkpt lat="43.08009113513699" lon="12.148886152779491"><ele>271.0</ele><time>2026-04-19T09:43:54Z</time></trkpt><trkpt lat="43.08011271280246" lon="12.148977966932486"><ele>271.0</ele><time>2026-04-19T09:43:56Z</time></trkpt><trkpt lat="43.08014476473468" lon="12.149062110122092"><ele>271.0</ele><time>2026-04-19T09:43:59Z</time></trkpt><trkpt lat="43.08020110194898" lon="12.149121008829406"><ele>271.0</ele><time>2026-04-19T09:44:02Z</time></trkpt><trkpt lat="43.080132961340034" lon="12.149121717311615"><ele>271.0</ele><time>2026-04-19T09:44:13Z</time></trkpt><trkpt lat="43.080070146938134" lon="12.148822712144721"><ele>271.0</ele><time>2026-04-19T09:44:16Z</time></trkpt><trkpt lat="43.080087110258646" lon="12.148712224844997"><ele>271.0</ele><time>2026-04-19T09:44:28Z</time></trkpt><trkpt lat="43.08009980420992" lon="12.148573732591139"><ele>271.0</ele><time>2026-04-19T09:44:31Z</time></trkpt><trkpt lat="43.08008760693115" lon="12.14846804312043"><ele>271.0</ele><time>2026-04-19T09:44:34Z</time></trkpt><trkpt lat="43.07997514602348" lon="12.148433254269236"><ele>271.0</ele><time>2026-04-19T09:44:37Z</time></trkpt><trkpt lat="43.0798446476209" lon="12.14848616073623"><ele>271.0</ele><time>2026-04-19T09:44:38Z</time></trkpt><trkpt lat="43.079731884886975" lon="12.148487178254559"><ele>271.5</ele><time>2026-04-19T09:44:39Z</time></trkpt><trkpt lat="43.07962519565626" lon="12.148481086260887"><ele>272.0</ele><time>2026-04-19T09:44:40Z</time></trkpt><trkpt lat="43.079514942984964" lon="12.148481798221612"><ele>272.5</ele><time>2026-04-19T09:44:41Z</time></trkpt><trkpt lat="43.07938725703033" lon="12.148500838581926"><ele>273.0</ele><time>2026-04-19T09:44:42Z</time></trkpt><trkpt lat="43.07921970390478" lon="12.148543553376678"><ele>273.6666666666667</ele><time>2026-04-19T09:44:43Z</time></trkpt><trkpt lat="43.07904614728159" lon="12.148593940363584"><ele>274.33333333333337</ele><time>2026-04-19T09:44:44Z</time></trkpt><trkpt lat="43.07886310515797" lon="12.148612224926376"><ele>275.0</ele><time>2026-04-19T09:44:45Z</time></trkpt><trkpt lat="43.07867584790133" lon="12.148654030058122"><ele>275.0</ele><time>2026-04-19T09:44:46Z</time></trkpt><trkpt lat="43.07848487055055" lon="12.148714215654659"><ele>275.0</ele><time>2026-04-19T09:44:47Z</time></trkpt><trkpt lat="43.07829475620857" lon="12.148810496042483"><ele>275.0</ele><time>2026-04-19T09:44:48Z</time></trkpt><trkpt lat="43.078106816466025" lon="12.148883086825068"><ele>276.0</ele><time>2026-04-19T09:44:49Z</time></trkpt><trkpt lat="43.0779289466201" lon="12.148927697142977"><ele>277.0</ele><time>2026-04-19T09:44:50Z</time></trkpt><trkpt lat="43.077769314565636" lon="12.148973215679447"><ele>278.0</ele><time>2026-04-19T09:44:51Z</time></trkpt><trkpt lat="43.077626064226756" lon="12.149041702890711"><ele>277.75</ele><time>2026-04-19T09:44:52Z</time></trkpt><trkpt lat="43.07748609481821" lon="12.149066905439279"><ele>277.5</ele><time>2026-04-19T09:44:53Z</time></trkpt><trkpt lat="43.07735846454321" lon="12.149092160949376"><ele>277.25</ele><time>2026-04-19T09:44:54Z</time></trkpt><trkpt lat="43.07723557298282" lon="12.14911885310226"><ele>277.0</ele><time>2026-04-19T09:44:55Z</time></trkpt><trkpt lat="43.07710570261446" lon="12.149104486849577"><ele>277.0</ele><time>2026-04-19T09:44:56Z</time></trkpt><trkpt lat="43.07697137512264" lon="12.14912804619304"><ele>277.0</ele><time>2026-04-19T09:44:57Z</time></trkpt><trkpt lat="43.07683824556863" lon="12.149178811916453"><ele>277.0</ele><time>2026-04-19T09:44:58Z</time></trkpt><trkpt lat="43.076699007941365" lon="12.149208328403875"><ele>277.0</ele><time>2026-04-19T09:44:59Z</time></trkpt><trkpt lat="43.07654892762409" lon="12.149261700896663"><ele>277.66666666666663</ele><time>2026-04-19T09:45:00Z</time></trkpt><trkpt lat="43.07639608770041" lon="12.149332702540965"><ele>278.3333333333333</ele><time>2026-04-19T09:45:01Z</time></trkpt><trkpt lat="43.0762413828882" lon="12.149402095746558"><ele>279.0</ele><time>2026-04-19T09:45:02Z</time></trkpt><trkpt lat="43.076081471842485" lon="12.14948131564214"><ele>279.0</ele><time>2026-04-19T09:45:03Z</time></trkpt><trkpt lat="43.075921582348734" lon="12.149566189160247"><ele>279.0</ele><time>2026-04-19T09:45:04Z</time></trkpt><trkpt lat="43.075758396076324" lon="12.149649110177311"><ele>279.0</ele><time>2026-04-19T09:45:05Z</time></trkpt><trkpt lat="43.075592930437075" lon="12.149734471569953"><ele>279.3333333333333</ele><time>2026-04-19T09:45:06Z</time></trkpt><trkpt lat="43.075424359054935" lon="12.149820045001817"><ele>279.66666666666663</ele><time>2026-04-19T09:45:07Z</time></trkpt><trkpt lat="43.075260263187324" lon="12.149898908023237"><ele>280.0</ele><time>2026-04-19T09:45:08Z</time></trkpt><trkpt lat="43.07510693980134" lon="12.149975128153775"><ele>280.0</ele><time>2026-04-19T09:45:09Z</time></trkpt><trkpt lat="43.074966258979174" lon="12.150042480991264"><ele>280.0</ele><time>2026-04-19T09:45:10Z</time></trkpt><trkpt lat="43.07481680292776" lon="12.150112850858376"><ele>280.0</ele><time>2026-04-19T09:45:11Z</time></trkpt><trkpt lat="43.07468028427309" lon="12.150179343742824"><ele>283.0</ele><time>2026-04-19T09:45:12Z</time></trkpt><trkpt lat="43.0745579158645" lon="12.15027118077726"><ele>286.0</ele><time>2026-04-19T09:45:13Z</time></trkpt><trkpt lat="43.07443279206119" lon="12.150391620904884"><ele>289.0</ele><time>2026-04-19T09:45:14Z</time></trkpt><trkpt lat="43.074325052127705" lon="12.150515696715276"><ele>292.0</ele><time>2026-04-19T09:45:15Z</time></trkpt><trkpt lat="43.07423286294463" lon="12.150625634503339"><ele>292.75</ele><time>2026-04-19T09:45:16Z</time></trkpt><trkpt lat="43.074137020280915" lon="12.15073243946965"><ele>293.5</ele><time>2026-04-19T09:45:17Z</time></trkpt><trkpt lat="43.07402211713887" lon="12.150787210823022"><ele>294.25</ele><time>2026-04-19T09:45:18Z</time></trkpt><trkpt lat="43.07390605312068" lon="12.150846545443128"><ele>295.0</ele><time>2026-04-19T09:45:19Z</time></trkpt><trkpt lat="43.073779453271094" lon="12.150919798702803"><ele>295.0</ele><time>2026-04-19T09:45:20Z</time></trkpt><trkpt lat="43.07367394952009" lon="12.1509496175137"><ele>295.0</ele><time>2026-04-19T09:45:21Z</time></trkpt><trkpt lat="43.07359564960668" lon="12.1509545884981"><ele>295.0</ele><time>2026-04-19T09:45:22Z</time></trkpt><trkpt lat="43.07350150304814" lon="12.150981785145184"><ele>295.0</ele><time>2026-04-19T09:45:23Z</time></trkpt><trkpt lat="43.07340314063642" lon="12.151033320892921"><ele>295.0</ele><time>2026-04-19T09:45:24Z</time></trkpt><trkpt lat="43.073330345370664" lon="12.151113331353711"><ele>295.0</ele><time>2026-04-19T09:45:25Z</time></trkpt><trkpt lat="43.0732881542552" lon="12.15122089500831"><ele>295.0</ele><time>2026-04-19T09:45:26Z</time></trkpt><trkpt lat="43.07323765685056" lon="12.151342574686122"><ele>295.0</ele><time>2026-04-19T09:45:27Z</time></trkpt><trkpt lat="43.07319387294289" lon="12.151492819546624"><ele>295.0</ele><time>2026-04-19T09:45:28Z</time></trkpt><trkpt lat="43.07314151898413" lon="12.151648220709236"><ele>295.0</ele><time>2026-04-19T09:45:29Z</time></trkpt><trkpt lat="43.0730876948735" lon="12.151754011830972"><ele>296.16666666666663</ele><time>2026-04-19T09:45:30Z</time></trkpt><trkpt lat="43.07302692144784" lon="12.151832391185177"><ele>297.3333333333333</ele><time>2026-04-19T09:45:31Z</time></trkpt><trkpt lat="43.07295137497573" lon="12.151866614170462"><ele>298.5</ele><time>2026-04-19T09:45:32Z</time></trkpt><trkpt lat="43.07288656708668" lon="12.151909158504232"><ele>299.6666666666667</ele><time>2026-04-19T09:45:33Z</time></trkpt><trkpt lat="43.07281684967764" lon="12.15191398622795"><ele>300.83333333333337</ele><time>2026-04-19T09:45:34Z</time></trkpt><trkpt lat="43.07272550614462" lon="12.151829498548244"><ele>302.0</ele><time>2026-04-19T09:45:36Z</time></trkpt><trkpt lat="43.072698408954004" lon="12.151751018678342"><ele>302.0</ele><time>2026-04-19T09:45:37Z</time></trkpt><trkpt lat="43.07271169318988" lon="12.151630966989076"><ele>302.0</ele><time>2026-04-19T09:45:38Z</time></trkpt><trkpt lat="43.072722501029126" lon="12.151515087764771"><ele>302.0</ele><time>2026-04-19T09:45:39Z</time></trkpt><trkpt lat="43.072711374355485" lon="12.151389899602734"><ele>302.0</ele><time>2026-04-19T09:45:40Z</time></trkpt><trkpt lat="43.07267034822027" lon="12.151297469685288"><ele>302.0</ele><time>2026-04-19T09:45:41Z</time></trkpt><trkpt lat="43.072591726185806" lon="12.151244519068543"><ele>302.0</ele><time>2026-04-19T09:45:42Z</time></trkpt><trkpt lat="43.07249956535527" lon="12.151246904302827"><ele>303.83333333333337</ele><time>2026-04-19T09:45:43Z</time></trkpt><trkpt lat="43.072425694855156" lon="12.15126568177034"><ele>305.6666666666667</ele><time>2026-04-19T09:45:44Z</time></trkpt><trkpt lat="43.072364969274176" lon="12.151306608245946"><ele>307.5</ele><time>2026-04-19T09:45:45Z</time></trkpt><trkpt lat="43.07231499146373" lon="12.15136742990334"><ele>309.3333333333333</ele><time>2026-04-19T09:45:46Z</time></trkpt><trkpt lat="43.07230682499851" lon="12.151494365254743"><ele>311.16666666666663</ele><time>2026-04-19T09:45:47Z</time></trkpt><trkpt lat="43.072291483021495" lon="12.151604209063743"><ele>313.0</ele><time>2026-04-19T09:45:48Z</time></trkpt><trkpt lat="43.07227181000715" lon="12.151697157425083"><ele>313.0</ele><time>2026-04-19T09:45:49Z</time></trkpt><trkpt lat="43.07218282108477" lon="12.151753999741148"><ele>313.0</ele><time>2026-04-19T09:45:51Z</time></trkpt><trkpt lat="43.072099791896015" lon="12.15165117594841"><ele>313.0</ele><time>2026-04-19T09:45:53Z</time></trkpt><trkpt lat="43.07216815282268" lon="12.151560461774832"><ele>313.0</ele><time>2026-04-19T09:45:54Z</time></trkpt><trkpt lat="43.07216227238784" lon="12.151454304372091"><ele>313.0</ele><time>2026-04-19T09:45:55Z</time></trkpt><trkpt lat="43.07214684201526" lon="12.151364810495334"><ele>313.0</ele><time>2026-04-19T09:45:56Z</time></trkpt><trkpt lat="43.07209794084133" lon="12.151282616341119"><ele>313.0</ele><time>2026-04-19T09:45:57Z</time></trkpt><trkpt lat="43.07198870534448" lon="12.151277054512072"><ele>313.0</ele><time>2026-04-19T09:45:58Z</time></trkpt><trkpt lat="43.07191560208042" lon="12.15128012614664"><ele>313.0</ele><time>2026-04-19T09:45:59Z</time></trkpt><trkpt lat="43.07184682567901" lon="12.151357906514232"><ele>313.0</ele><time>2026-04-19T09:46:00Z</time></trkpt><trkpt lat="43.07183606202448" lon="12.151493315315845"><ele>313.0</ele><time>2026-04-19T09:46:01Z</time></trkpt><trkpt lat="43.07178981151384" lon="12.151576967305186"><ele>313.0</ele><time>2026-04-19T09:46:02Z</time></trkpt><trkpt lat="43.07175260542749" lon="12.151656289885276"><ele>313.0</ele><time>2026-04-19T09:46:03Z</time></trkpt><trkpt lat="43.071685012283254" lon="12.151733891774615"><ele>313.0</ele><time>2026-04-19T09:46:04Z</time></trkpt><trkpt lat="43.07158129898618" lon="12.151768870090848"><ele>313.0</ele><time>2026-04-19T09:46:05Z</time></trkpt><trkpt lat="43.07147925444069" lon="12.151822873077867"><ele>313.0</ele><time>2026-04-19T09:46:06Z</time></trkpt><trkpt lat="43.07136613843963" lon="12.15187948703398"><ele>317.0</ele><time>2026-04-19T09:46:07Z</time></trkpt><trkpt lat="43.071247767227305" lon="12.151934177733024"><ele>321.0</ele><time>2026-04-19T09:46:08Z</time></trkpt><trkpt lat="43.0711256473052" lon="12.15198304677593"><ele>325.0</ele><time>2026-04-19T09:46:09Z</time></trkpt><trkpt lat="43.07101237498234" lon="12.152017080485201"><ele>329.0</ele><time>2026-04-19T09:46:10Z</time></trkpt><trkpt lat="43.07089424493292" lon="12.152037326467104"><ele>332.0</ele><time>2026-04-19T09:46:11Z</time></trkpt><trkpt lat="43.070756797594434" lon="12.152050966674613"><ele>335.0</ele><time>2026-04-19T09:46:12Z</time></trkpt><trkpt lat="43.070608259339984" lon="12.152056427348873"><ele>338.0</ele><time>2026-04-19T09:46:13Z</time></trkpt><trkpt lat="43.07045924924883" lon="12.152059586576831"><ele>341.0</ele><time>2026-04-19T09:46:14Z</time></trkpt><trkpt lat="43.070302745633086" lon="12.152058938171969"><ele>341.0</ele><time>2026-04-19T09:46:15Z</time></trkpt><trkpt lat="43.07014224607205" lon="12.152057297823259"><ele>341.0</ele><time>2026-04-19T09:46:16Z</time></trkpt><trkpt lat="43.06998553600284" lon="12.152066602654514"><ele>341.0</ele><time>2026-04-19T09:46:17Z</time></trkpt><trkpt lat="43.069853310514" lon="12.152091882507294"><ele>342.0</ele><time>2026-04-19T09:46:18Z</time></trkpt><trkpt lat="43.06974252826471" lon="12.152084864429591"><ele>343.0</ele><time>2026-04-19T09:46:19Z</time></trkpt><trkpt lat="43.06964728650409" lon="12.152051394745639"><ele>344.0</ele><time>2026-04-19T09:46:20Z</time></trkpt><trkpt lat="43.06955786522895" lon="12.152017858717587"><ele>345.0</ele><time>2026-04-19T09:46:21Z</time></trkpt><trkpt lat="43.069462063832546" lon="12.151957668172287"><ele>346.0</ele><time>2026-04-19T09:46:22Z</time></trkpt><trkpt lat="43.06935035405804" lon="12.151910346750055"><ele>346.0</ele><time>2026-04-19T09:46:23Z</time></trkpt><trkpt lat="43.06925057700094" lon="12.151820570987919"><ele>346.0</ele><time>2026-04-19T09:46:24Z</time></trkpt><trkpt lat="43.06916728938392" lon="12.151742322049586"><ele>346.0</ele><time>2026-04-19T09:46:25Z</time></trkpt><trkpt lat="43.06910636118954" lon="12.15169701379574"><ele>346.0</ele><time>2026-04-19T09:46:26Z</time></trkpt><trkpt lat="43.0690353000676" lon="12.151578729017398"><ele>346.0</ele><time>2026-04-19T09:46:28Z</time></trkpt><trkpt lat="43.06906849726804" lon="12.151463698246781"><ele>346.0</ele><time>2026-04-19T09:46:30Z</time></trkpt><trkpt lat="43.06917591609652" lon="12.15142457808758"><ele>346.0</ele><time>2026-04-19T09:46:32Z</time></trkpt><trkpt lat="43.06929340252222" lon="12.151474643441853"><ele>346.0</ele><time>2026-04-19T09:46:34Z</time></trkpt><trkpt lat="43.06937459292058" lon="12.15151925899645"><ele>346.0</ele><time>2026-04-19T09:46:35Z</time></trkpt><trkpt lat="43.06947061656552" lon="12.151566476865371"><ele>346.0</ele><time>2026-04-19T09:46:36Z</time></trkpt><trkpt lat="43.06954893050517" lon="12.151587210907339"><ele>346.0</ele><time>2026-04-19T09:46:37Z</time></trkpt><trkpt lat="43.069610749574466" lon="12.151616020498789"><ele>346.0</ele><time>2026-04-19T09:46:38Z</time></trkpt><trkpt lat="43.069715086382246" lon="12.151591795100039"><ele>346.0</ele><time>2026-04-19T09:46:40Z</time></trkpt><trkpt lat="43.069766278707355" lon="12.151513062086925"><ele>346.0</ele><time>2026-04-19T09:46:41Z</time></trkpt><trkpt lat="43.069793432752604" lon="12.151422904201278"><ele>346.0</ele><time>2026-04-19T09:46:43Z</time></trkpt><trkpt lat="43.06976733122022" lon="12.151321343155452"><ele>346.0</ele><time>2026-04-19T09:46:45Z</time></trkpt><trkpt lat="43.06968758513473" lon="12.151228895233453"><ele>347.6</ele><time>2026-04-19T09:46:47Z</time></trkpt><trkpt lat="43.06961925514346" lon="12.151217640918277"><ele>349.20000000000005</ele><time>2026-04-19T09:46:48Z</time></trkpt><trkpt lat="43.069496833534814" lon="12.151163998448402"><ele>350.79999999999995</ele><time>2026-04-19T09:46:50Z</time></trkpt><trkpt lat="43.06940503355589" lon="12.151122917644228"><ele>352.4</ele><time>2026-04-19T09:46:51Z</time></trkpt><trkpt lat="43.0693164425565" lon="12.151087134191123"><ele>354.0</ele><time>2026-04-19T09:46:52Z</time></trkpt><trkpt lat="43.069251816095026" lon="12.151073684095483"><ele>354.0</ele><time>2026-04-19T09:46:53Z</time></trkpt><trkpt lat="43.06918542395474" lon="12.151046839742152"><ele>354.0</ele><time>2026-04-19T09:46:54Z</time></trkpt><trkpt lat="43.06908687327211" lon="12.151033379575432"><ele>354.0</ele><time>2026-04-19T09:46:55Z</time></trkpt><trkpt lat="43.06898991208722" lon="12.15103707761818"><ele>354.0</ele><time>2026-04-19T09:46:56Z</time></trkpt><trkpt lat="43.06887469054354" lon="12.151038019175287"><ele>354.0</ele><time>2026-04-19T09:46:57Z</time></trkpt><trkpt lat="43.06875713562428" lon="12.151056504897767"><ele>357.25</ele><time>2026-04-19T09:46:58Z</time></trkpt><trkpt lat="43.06864207825689" lon="12.151087919125603"><ele>360.5</ele><time>2026-04-19T09:46:59Z</time></trkpt><trkpt lat="43.06852347864005" lon="12.151113042160398"><ele>363.75</ele><time>2026-04-19T09:47:00Z</time></trkpt><trkpt lat="43.0684047544723" lon="12.151117896902385"><ele>367.0</ele><time>2026-04-19T09:47:01Z</time></trkpt><trkpt lat="43.068282687346176" lon="12.151167255667904"><ele>370.66666666666663</ele><time>2026-04-19T09:47:02Z</time></trkpt><trkpt lat="43.06813823452535" lon="12.151193130539262"><ele>374.3333333333333</ele><time>2026-04-19T09:47:03Z</time></trkpt><trkpt lat="43.0679743977" lon="12.151215491299522"><ele>378.0</ele><time>2026-04-19T09:47:04Z</time></trkpt><trkpt lat="43.067834455218794" lon="12.151247603284622"><ele>378.0</ele><time>2026-04-19T09:47:05Z</time></trkpt><trkpt lat="43.067724447046146" lon="12.151265927447641"><ele>378.0</ele><time>2026-04-19T09:47:06Z</time></trkpt><trkpt lat="43.06760891223958" lon="12.151270426835861"><ele>378.0</ele><time>2026-04-19T09:47:07Z</time></trkpt><trkpt lat="43.067487681214466" lon="12.151286681912726"><ele>378.0</ele><time>2026-04-19T09:47:08Z</time></trkpt><trkpt lat="43.06737446157732" lon="12.15128884022626"><ele>376.8333333333333</ele><time>2026-04-19T09:47:09Z</time></trkpt><trkpt lat="43.06728458602438" lon="12.151265749383635"><ele>375.6666666666667</ele><time>2026-04-19T09:47:10Z</time></trkpt><trkpt lat="43.06720716122772" lon="12.151264019404111"><ele>374.5</ele><time>2026-04-19T09:47:11Z</time></trkpt><trkpt lat="43.06713382091015" lon="12.151262380689735"><ele>373.33333333333337</ele><time>2026-04-19T09:47:12Z</time></trkpt><trkpt lat="43.06705140812168" lon="12.151279791672653"><ele>372.1666666666667</ele><time>2026-04-19T09:47:13Z</time></trkpt><trkpt lat="43.06697557890398" lon="12.151189915977273"><ele>371.0</ele><time>2026-04-19T09:47:14Z</time></trkpt><trkpt lat="43.06688677003555" lon="12.151136262715065"><ele>371.0</ele><time>2026-04-19T09:47:15Z</time></trkpt><trkpt lat="43.06678801355792" lon="12.151071442978033"><ele>371.0</ele><time>2026-04-19T09:47:16Z</time></trkpt><trkpt lat="43.06670820505558" lon="12.150977841517593"><ele>371.0</ele><time>2026-04-19T09:47:17Z</time></trkpt><trkpt lat="43.0666428912192" lon="12.15087766076061"><ele>371.0</ele><time>2026-04-19T09:47:18Z</time></trkpt><trkpt lat="43.066596746257055" lon="12.15077230479773"><ele>371.0</ele><time>2026-04-19T09:47:19Z</time></trkpt><trkpt lat="43.06655671102774" lon="12.150639376268455"><ele>371.25</ele><time>2026-04-19T09:47:20Z</time></trkpt><trkpt lat="43.06651482241" lon="12.150498066363259"><ele>371.5</ele><time>2026-04-19T09:47:21Z</time></trkpt><trkpt lat="43.066460527216236" lon="12.15037153692059"><ele>371.75</ele><time>2026-04-19T09:47:22Z</time></trkpt><trkpt lat="43.066383274143014" lon="12.150263221513374"><ele>372.0</ele><time>2026-04-19T09:47:23Z</time></trkpt><trkpt lat="43.06624908957325" lon="12.15023008031976"><ele>372.0</ele><time>2026-04-19T09:47:24Z</time></trkpt><trkpt lat="43.06610526030555" lon="12.150176010232551"><ele>372.0</ele><time>2026-04-19T09:47:25Z</time></trkpt><trkpt lat="43.06597142108356" lon="12.150133123722522"><ele>372.0</ele><time>2026-04-19T09:47:26Z</time></trkpt><trkpt lat="43.0658557174536" lon="12.150087982383543"><ele>372.0</ele><time>2026-04-19T09:47:27Z</time></trkpt><trkpt lat="43.065735431215224" lon="12.15003381492509"><ele>372.0</ele><time>2026-04-19T09:47:28Z</time></trkpt><trkpt lat="43.06560719580359" lon="12.150026604251774"><ele>372.0</ele><time>2026-04-19T09:47:29Z</time></trkpt><trkpt lat="43.065472654492986" lon="12.150087275258995"><ele>372.0</ele><time>2026-04-19T09:47:30Z</time></trkpt><trkpt lat="43.06534877154025" lon="12.150181107445809"><ele>372.0</ele><time>2026-04-19T09:47:31Z</time></trkpt><trkpt lat="43.06524267541238" lon="12.15020157482652"><ele>372.0</ele><time>2026-04-19T09:47:32Z</time></trkpt><trkpt lat="43.065117864751365" lon="12.150219422438589"><ele>372.0</ele><time>2026-04-19T09:47:33Z</time></trkpt><trkpt lat="43.064996954769626" lon="12.150220748987024"><ele>372.0</ele><time>2026-04-19T09:47:34Z</time></trkpt><trkpt lat="43.06487866176656" lon="12.1502117922419"><ele>372.0</ele><time>2026-04-19T09:47:35Z</time></trkpt><trkpt lat="43.06474799722229" lon="12.150174584234527"><ele>370.25</ele><time>2026-04-19T09:47:36Z</time></trkpt><trkpt lat="43.06460809484375" lon="12.150097496369792"><ele>368.5</ele><time>2026-04-19T09:47:37Z</time></trkpt><trkpt lat="43.06446751768543" lon="12.15007538915351"><ele>366.75</ele><time>2026-04-19T09:47:38Z</time></trkpt><trkpt lat="43.064347956070606" lon="12.150063594407909"><ele>365.0</ele><time>2026-04-19T09:47:39Z</time></trkpt><trkpt lat="43.06421653972508" lon="12.1500548430963"><ele>362.0</ele><time>2026-04-19T09:47:40Z</time></trkpt><trkpt lat="43.064068222776" lon="12.150010795228415"><ele>359.0</ele><time>2026-04-19T09:47:41Z</time></trkpt><trkpt lat="43.063919410623356" lon="12.149917996030728"><ele>356.0</ele><time>2026-04-19T09:47:42Z</time></trkpt><trkpt lat="43.06376659995721" lon="12.14985212306973"><ele>362.6666666666667</ele><time>2026-04-19T09:47:43Z</time></trkpt><trkpt lat="43.06360412415556" lon="12.149841907038487"><ele>369.3333333333333</ele><time>2026-04-19T09:47:44Z</time></trkpt><trkpt lat="43.06343867364486" lon="12.149800477838223"><ele>376.0</ele><time>2026-04-19T09:47:45Z</time></trkpt><trkpt lat="43.06329123780513" lon="12.149761169840025"><ele>372.66666666666663</ele><time>2026-04-19T09:47:46Z</time></trkpt><trkpt lat="43.06313900526321" lon="12.149695756699554"><ele>369.3333333333333</ele><time>2026-04-19T09:47:47Z</time></trkpt><trkpt lat="43.06297402977523" lon="12.14962919886337"><ele>366.0</ele><time>2026-04-19T09:47:48Z</time></trkpt><trkpt lat="43.06282916830637" lon="12.149561919293376"><ele>366.0</ele><time>2026-04-19T09:47:49Z</time></trkpt><trkpt lat="43.062699577776" lon="12.149506844174752"><ele>366.0</ele><time>2026-04-19T09:47:50Z</time></trkpt><trkpt lat="43.06256979633795" lon="12.149454422949498"><ele>366.0</ele><time>2026-04-19T09:47:51Z</time></trkpt><trkpt lat="43.06241729313459" lon="12.149428796374634"><ele>366.0</ele><time>2026-04-19T09:47:52Z</time></trkpt><trkpt lat="43.06222826491947" lon="12.149430432237827"><ele>365.0</ele><time>2026-04-19T09:47:53Z</time></trkpt><trkpt lat="43.06198969934055" lon="12.149397819352213"><ele>364.0</ele><time>2026-04-19T09:47:54Z</time></trkpt><trkpt lat="43.06175813149717" lon="12.149379281933411"><ele>362.3333333333333</ele><time>2026-04-19T09:47:55Z</time></trkpt><trkpt lat="43.061543098590654" lon="12.149386689363704"><ele>360.6666666666667</ele><time>2026-04-19T09:47:56Z</time></trkpt><trkpt lat="43.061369974057634" lon="12.149392673960513"><ele>359.0</ele><time>2026-04-19T09:47:57Z</time></trkpt><trkpt lat="43.061201581000546" lon="12.149381682796363"><ele>359.0</ele><time>2026-04-19T09:47:58Z</time></trkpt><trkpt lat="43.06104735722136" lon="12.149371124236154"><ele>359.0</ele><time>2026-04-19T09:47:59Z</time></trkpt><trkpt lat="43.060897095280644" lon="12.14935745732441"><ele>359.0</ele><time>2026-04-19T09:48:00Z</time></trkpt><trkpt lat="43.06074101116719" lon="12.149308695725324"><ele>355.0</ele><time>2026-04-19T09:48:01Z</time></trkpt><trkpt lat="43.060574249104555" lon="12.149291836035301"><ele>351.0</ele><time>2026-04-19T09:48:02Z</time></trkpt><trkpt lat="43.060428332916246" lon="12.14923515798313"><ele>347.0</ele><time>2026-04-19T09:48:03Z</time></trkpt><trkpt lat="43.06028898230322" lon="12.149219491583098"><ele>347.0</ele><time>2026-04-19T09:48:04Z</time></trkpt><trkpt lat="43.06016065703902" lon="12.149147939058958"><ele>347.0</ele><time>2026-04-19T09:48:05Z</time></trkpt><trkpt lat="43.06002704025945" lon="12.149067243558871"><ele>347.0</ele><time>2026-04-19T09:48:06Z</time></trkpt><trkpt lat="43.05991063338586" lon="12.1489700778926"><ele>347.0</ele><time>2026-04-19T09:48:07Z</time></trkpt><trkpt lat="43.05981672973937" lon="12.148861448609365"><ele>344.0</ele><time>2026-04-19T09:48:08Z</time></trkpt><trkpt lat="43.05973874168769" lon="12.14873591127494"><ele>341.0</ele><time>2026-04-19T09:48:09Z</time></trkpt><trkpt lat="43.05965799928358" lon="12.148595296878756"><ele>338.0</ele><time>2026-04-19T09:48:10Z</time></trkpt><trkpt lat="43.05959067452708" lon="12.148432472627308"><ele>335.0</ele><time>2026-04-19T09:48:11Z</time></trkpt><trkpt lat="43.05952921397641" lon="12.148274183049962"><ele>335.75</ele><time>2026-04-19T09:48:12Z</time></trkpt><trkpt lat="43.05948849619559" lon="12.148120745029368"><ele>336.5</ele><time>2026-04-19T09:48:13Z</time></trkpt><trkpt lat="43.05948338746192" lon="12.147959521337814"><ele>337.25</ele><time>2026-04-19T09:48:14Z</time></trkpt><trkpt lat="43.05946793796507" lon="12.147783701019547"><ele>338.0</ele><time>2026-04-19T09:48:15Z</time></trkpt><trkpt lat="43.05942036484188" lon="12.14762476166296"><ele>338.0</ele><time>2026-04-19T09:48:16Z</time></trkpt><trkpt lat="43.05935467315057" lon="12.147459450730379"><ele>338.0</ele><time>2026-04-19T09:48:17Z</time></trkpt><trkpt lat="43.059306960200345" lon="12.147273747256325"><ele>338.0</ele><time>2026-04-19T09:48:18Z</time></trkpt><trkpt lat="43.05926692190705" lon="12.147087903921538"><ele>338.0</ele><time>2026-04-19T09:48:19Z</time></trkpt><trkpt lat="43.05923862612136" lon="12.146863658671158"><ele>338.25</ele><time>2026-04-19T09:48:20Z</time></trkpt><trkpt lat="43.05923557729525" lon="12.14662334758427"><ele>338.5</ele><time>2026-04-19T09:48:21Z</time></trkpt><trkpt lat="43.05924553257353" lon="12.146418039703201"><ele>338.75</ele><time>2026-04-19T09:48:22Z</time></trkpt><trkpt lat="43.0592638903957" lon="12.146254287159337"><ele>339.0</ele><time>2026-04-19T09:48:23Z</time></trkpt><trkpt lat="43.05930522681341" lon="12.146130843004729"><ele>339.0</ele><time>2026-04-19T09:48:24Z</time></trkpt><trkpt lat="43.059360146695525" lon="12.14601136893729"><ele>339.0</ele><time>2026-04-19T09:48:25Z</time></trkpt><trkpt lat="43.059448195665716" lon="12.14590416290663"><ele>339.0</ele><time>2026-04-19T09:48:26Z</time></trkpt><trkpt lat="43.059558313606736" lon="12.145772363246111"><ele>339.0</ele><time>2026-04-19T09:48:27Z</time></trkpt><trkpt lat="43.05967429463112" lon="12.145641670057021"><ele>340.0</ele><time>2026-04-19T09:48:28Z</time></trkpt><trkpt lat="43.05977168188336" lon="12.145533861177904"><ele>341.0</ele><time>2026-04-19T09:48:29Z</time></trkpt><trkpt lat="43.05985619602663" lon="12.145443021054044"><ele>342.0</ele><time>2026-04-19T09:48:30Z</time></trkpt><trkpt lat="43.05994446370752" lon="12.14535559865039"><ele>343.0</ele><time>2026-04-19T09:48:31Z</time></trkpt><trkpt lat="43.06004338203997" lon="12.145260734879857"><ele>343.0</ele><time>2026-04-19T09:48:32Z</time></trkpt><trkpt lat="43.060152707414915" lon="12.145165363930218"><ele>343.0</ele><time>2026-04-19T09:48:33Z</time></trkpt><trkpt lat="43.06027503068686" lon="12.145071654572677"><ele>343.0</ele><time>2026-04-19T09:48:34Z</time></trkpt><trkpt lat="43.060404404638525" lon="12.14498988375784"><ele>343.0</ele><time>2026-04-19T09:48:35Z</time></trkpt><trkpt lat="43.06054267476371" lon="12.144907590006206"><ele>342.3333333333333</ele><time>2026-04-19T09:48:36Z</time></trkpt><trkpt lat="43.0606946629268" lon="12.14482244873764"><ele>341.6666666666667</ele><time>2026-04-19T09:48:37Z</time></trkpt><trkpt lat="43.06085440665686" lon="12.14473592342202"><ele>341.0</ele><time>2026-04-19T09:48:38Z</time></trkpt><trkpt lat="43.061010146367096" lon="12.14464584558892"><ele>341.0</ele><time>2026-04-19T09:48:39Z</time></trkpt><trkpt lat="43.06114527310808" lon="12.144570260128244"><ele>341.0</ele><time>2026-04-19T09:48:40Z</time></trkpt><trkpt lat="43.06127078494784" lon="12.144504183155151"><ele>341.0</ele><time>2026-04-19T09:48:41Z</time></trkpt><trkpt lat="43.06139177303902" lon="12.144444195960553"><ele>341.0</ele><time>2026-04-19T09:48:42Z</time></trkpt><trkpt lat="43.06150536351969" lon="12.144390947318975"><ele>342.0</ele><time>2026-04-19T09:48:43Z</time></trkpt><trkpt lat="43.061620864745954" lon="12.1443469869188"><ele>343.0</ele><time>2026-04-19T09:48:44Z</time></trkpt><trkpt lat="43.06174421547164" lon="12.144317305538882"><ele>344.0</ele><time>2026-04-19T09:48:45Z</time></trkpt><trkpt lat="43.06187805805324" lon="12.144313706049285"><ele>345.0</ele><time>2026-04-19T09:48:46Z</time></trkpt><trkpt lat="43.06201941888236" lon="12.144323368300764"><ele>345.0</ele><time>2026-04-19T09:48:47Z</time></trkpt><trkpt lat="43.0621602187734" lon="12.144311603211094"><ele>345.0</ele><time>2026-04-19T09:48:48Z</time></trkpt><trkpt lat="43.06228541699115" lon="12.144325709517988"><ele>345.0</ele><time>2026-04-19T09:48:49Z</time></trkpt><trkpt lat="43.06240487957806" lon="12.14431885761425"><ele>345.0</ele><time>2026-04-19T09:48:50Z</time></trkpt><trkpt lat="43.06252125940317" lon="12.144278336198509"><ele>345.25</ele><time>2026-04-19T09:48:51Z</time></trkpt><trkpt lat="43.062612075310135" lon="12.144173570971688"><ele>345.5</ele><time>2026-04-19T09:48:52Z</time></trkpt><trkpt lat="43.062699283068405" lon="12.144045873257062"><ele>345.75</ele><time>2026-04-19T09:48:53Z</time></trkpt><trkpt lat="43.06279321037197" lon="12.143891044517297"><ele>346.0</ele><time>2026-04-19T09:48:54Z</time></trkpt><trkpt lat="43.06288317633837" lon="12.143710458699966"><ele>344.5</ele><time>2026-04-19T09:48:55Z</time></trkpt><trkpt lat="43.062960307715514" lon="12.143520764542027"><ele>343.0</ele><time>2026-04-19T09:48:56Z</time></trkpt><trkpt lat="43.06301965861765" lon="12.143358287837192"><ele>341.5</ele><time>2026-04-19T09:48:57Z</time></trkpt><trkpt lat="43.063077236884574" lon="12.143213304847615"><ele>340.0</ele><time>2026-04-19T09:48:58Z</time></trkpt><trkpt lat="43.06313776771861" lon="12.143070249621402"><ele>339.4</ele><time>2026-04-19T09:48:59Z</time></trkpt><trkpt lat="43.06320132726431" lon="12.142929206321858"><ele>338.8</ele><time>2026-04-19T09:49:00Z</time></trkpt><trkpt lat="43.06326324327605" lon="12.14280624083948"><ele>338.20000000000005</ele><time>2026-04-19T09:49:01Z</time></trkpt><trkpt lat="43.06332362046652" lon="12.14271220594664"><ele>337.6</ele><time>2026-04-19T09:49:02Z</time></trkpt><trkpt lat="43.06338052268067" lon="12.14265910648248"><ele>337.0</ele><time>2026-04-19T09:49:03Z</time></trkpt><trkpt lat="43.06344152158482" lon="12.142604320218993"><ele>338.3333333333333</ele><time>2026-04-19T09:49:04Z</time></trkpt><trkpt lat="43.063492603305605" lon="12.142545487277006"><ele>339.66666666666663</ele><time>2026-04-19T09:49:05Z</time></trkpt><trkpt lat="43.06352634378241" lon="12.142449042022157"><ele>341.0</ele><time>2026-04-19T09:49:06Z</time></trkpt><trkpt lat="43.06352936250352" lon="12.142335407839425"><ele>342.3333333333333</ele><time>2026-04-19T09:49:07Z</time></trkpt><trkpt lat="43.063490701851855" lon="12.142218184784783"><ele>343.6666666666667</ele><time>2026-04-19T09:49:08Z</time></trkpt><trkpt lat="43.06345683507687" lon="12.142131185777929"><ele>345.0</ele><time>2026-04-19T09:49:09Z</time></trkpt><trkpt lat="43.06340482730562" lon="12.142000098566504"><ele>341.0</ele><time>2026-04-19T09:49:11Z</time></trkpt><trkpt lat="43.063234178191195" lon="12.141923211021679"><ele>337.0</ele><time>2026-04-19T09:49:13Z</time></trkpt><trkpt lat="43.06311367479089" lon="12.141869153931445"><ele>333.0</ele><time>2026-04-19T09:49:14Z</time></trkpt><trkpt lat="43.062955704246924" lon="12.141774536150997"><ele>333.0</ele><time>2026-04-19T09:49:15Z</time></trkpt><trkpt lat="43.06278510725023" lon="12.141666357776554"><ele>333.0</ele><time>2026-04-19T09:49:16Z</time></trkpt><trkpt lat="43.06260179858354" lon="12.141557355691846"><ele>333.0</ele><time>2026-04-19T09:49:17Z</time></trkpt><trkpt lat="43.062419378554374" lon="12.141414993662291"><ele>331.0</ele><time>2026-04-19T09:49:18Z</time></trkpt><trkpt lat="43.062241377185984" lon="12.141299141370256"><ele>329.0</ele><time>2026-04-19T09:49:19Z</time></trkpt><trkpt lat="43.06206674813934" lon="12.141207793716049"><ele>327.0</ele><time>2026-04-19T09:49:20Z</time></trkpt><trkpt lat="43.06190653943844" lon="12.141096469594716"><ele>327.0</ele><time>2026-04-19T09:49:21Z</time></trkpt><trkpt lat="43.061754008105936" lon="12.140992092369288"><ele>327.0</ele><time>2026-04-19T09:49:22Z</time></trkpt><trkpt lat="43.06162799879981" lon="12.140862609843564"><ele>327.0</ele><time>2026-04-19T09:49:23Z</time></trkpt><trkpt lat="43.061517105434625" lon="12.140728520774243"><ele>326.0</ele><time>2026-04-19T09:49:24Z</time></trkpt><trkpt lat="43.06142755524597" lon="12.14057259816895"><ele>325.0</ele><time>2026-04-19T09:49:25Z</time></trkpt><trkpt lat="43.061341067541456" lon="12.140399678432933"><ele>324.0</ele><time>2026-04-19T09:49:26Z</time></trkpt><trkpt lat="43.06124636373477" lon="12.140248134584974"><ele>323.0</ele><time>2026-04-19T09:49:27Z</time></trkpt><trkpt lat="43.06115109746225" lon="12.140094795404602"><ele>323.0</ele><time>2026-04-19T09:49:28Z</time></trkpt><trkpt lat="43.06102240176991" lon="12.139954701864367"><ele>323.0</ele><time>2026-04-19T09:49:29Z</time></trkpt><trkpt lat="43.06085476929635" lon="12.139829890388546"><ele>323.0</ele><time>2026-04-19T09:49:30Z</time></trkpt><trkpt lat="43.06066290159334" lon="12.139694324648845"><ele>319.5</ele><time>2026-04-19T09:49:31Z</time></trkpt><trkpt lat="43.06046483796999" lon="12.139512756496563"><ele>316.0</ele><time>2026-04-19T09:49:32Z</time></trkpt><trkpt lat="43.060245046905656" lon="12.13933764751872"><ele>316.0</ele><time>2026-04-19T09:49:33Z</time></trkpt><trkpt lat="43.0600256796189" lon="12.139162876140645"><ele>316.0</ele><time>2026-04-19T09:49:34Z</time></trkpt><trkpt lat="43.05980325047545" lon="12.138986116390909"><ele>314.0</ele><time>2026-04-19T09:49:35Z</time></trkpt><trkpt lat="43.05957139418031" lon="12.138803652839236"><ele>312.0</ele><time>2026-04-19T09:49:36Z</time></trkpt><trkpt lat="43.05933131090679" lon="12.138614714857432"><ele>310.0</ele><time>2026-04-19T09:49:37Z</time></trkpt><trkpt lat="43.05910422286464" lon="12.138459456209086"><ele>308.0</ele><time>2026-04-19T09:49:38Z</time></trkpt><trkpt lat="43.058897936739754" lon="12.138298888167528"><ele>308.5</ele><time>2026-04-19T09:49:39Z</time></trkpt><trkpt lat="43.05869860919538" lon="12.138142217267676"><ele>309.0</ele><time>2026-04-19T09:49:40Z</time></trkpt><trkpt lat="43.058501272320186" lon="12.13798546266064"><ele>309.0</ele><time>2026-04-19T09:49:41Z</time></trkpt><trkpt lat="43.058305897265036" lon="12.137803871118063"><ele>309.0</ele><time>2026-04-19T09:49:42Z</time></trkpt><trkpt lat="43.05809346607866" lon="12.137609306371807"><ele>306.5</ele><time>2026-04-19T09:49:43Z</time></trkpt><trkpt lat="43.05788508784498" lon="12.137379270254547"><ele>304.0</ele><time>2026-04-19T09:49:44Z</time></trkpt><trkpt lat="43.05765539512195" lon="12.137103320187046"><ele>302.5</ele><time>2026-04-19T09:49:45Z</time></trkpt><trkpt lat="43.05740372858882" lon="12.136830777888054"><ele>301.0</ele><time>2026-04-19T09:49:46Z</time></trkpt><trkpt lat="43.057154549042316" lon="12.136504038015726"><ele>301.0</ele><time>2026-04-19T09:49:47Z</time></trkpt><trkpt lat="43.05688288054667" lon="12.13618273292475"><ele>301.0</ele><time>2026-04-19T09:49:48Z</time></trkpt><trkpt lat="43.0566040267057" lon="12.135878316229054"><ele>300.5</ele><time>2026-04-19T09:49:49Z</time></trkpt><trkpt lat="43.05636154790208" lon="12.135593585800166"><ele>300.0</ele><time>2026-04-19T09:49:50Z</time></trkpt><trkpt lat="43.05614057164503" lon="12.135334606667332"><ele>300.0</ele><time>2026-04-19T09:49:51Z</time></trkpt><trkpt lat="43.05592695534753" lon="12.135081716302352"><ele>300.0</ele><time>2026-04-19T09:49:52Z</time></trkpt><trkpt lat="43.05572548662802" lon="12.134843477404674"><ele>299.0</ele><time>2026-04-19T09:49:53Z</time></trkpt><trkpt lat="43.05554123973253" lon="12.134613448345037"><ele>298.0</ele><time>2026-04-19T09:49:54Z</time></trkpt><trkpt lat="43.055364902344124" lon="12.134402901126617"><ele>298.0</ele><time>2026-04-19T09:49:55Z</time></trkpt><trkpt lat="43.05518955440599" lon="12.134205367374044"><ele>298.0</ele><time>2026-04-19T09:49:56Z</time></trkpt><trkpt lat="43.05503887901831" lon="12.134002460476857"><ele>298.0</ele><time>2026-04-19T09:49:57Z</time></trkpt><trkpt lat="43.05489007271788" lon="12.133808138613299"><ele>297.3333333333333</ele><time>2026-04-19T09:49:58Z</time></trkpt><trkpt lat="43.054745739952644" lon="12.133633579141733"><ele>296.6666666666667</ele><time>2026-04-19T09:49:59Z</time></trkpt><trkpt lat="43.05461574953419" lon="12.133443883005933"><ele>296.0</ele><time>2026-04-19T09:50:00Z</time></trkpt><trkpt lat="43.05447933967374" lon="12.133250675964725"><ele>295.6666666666667</ele><time>2026-04-19T09:50:01Z</time></trkpt><trkpt lat="43.05435538176985" lon="12.133036128719949"><ele>295.3333333333333</ele><time>2026-04-19T09:50:02Z</time></trkpt><trkpt lat="43.0542193916121" lon="12.132836340017024"><ele>295.0</ele><time>2026-04-19T09:50:03Z</time></trkpt><trkpt lat="43.05408539799722" lon="12.132639483776298"><ele>294.3333333333333</ele><time>2026-04-19T09:50:04Z</time></trkpt><trkpt lat="43.05394835559583" lon="12.13247110062922"><ele>293.6666666666667</ele><time>2026-04-19T09:50:05Z</time></trkpt><trkpt lat="43.053833541635655" lon="12.132289800892412"><ele>293.0</ele><time>2026-04-19T09:50:06Z</time></trkpt><trkpt lat="43.05373137279096" lon="12.132137099053914"><ele>292.5</ele><time>2026-04-19T09:50:07Z</time></trkpt><trkpt lat="43.053634567538104" lon="12.132012215743849"><ele>292.0</ele><time>2026-04-19T09:50:08Z</time></trkpt><trkpt lat="43.05353248724453" lon="12.131931779239919"><ele>291.5</ele><time>2026-04-19T09:50:09Z</time></trkpt><trkpt lat="43.05341780631008" lon="12.13189219028948"><ele>291.0</ele><time>2026-04-19T09:50:10Z</time></trkpt><trkpt lat="43.05329468330732" lon="12.131894939316604"><ele>289.0</ele><time>2026-04-19T09:50:11Z</time></trkpt><trkpt lat="43.05316366848225" lon="12.131949166395534"><ele>287.0</ele><time>2026-04-19T09:50:12Z</time></trkpt><trkpt lat="43.05300370031855" lon="12.132014759584536"><ele>285.0</ele><time>2026-04-19T09:50:13Z</time></trkpt><trkpt lat="43.05281808691808" lon="12.132091529421226"><ele>285.0</ele><time>2026-04-19T09:50:14Z</time></trkpt><trkpt lat="43.05266535896449" lon="12.132370106227388"><ele>285.0</ele><time>2026-04-19T09:50:15Z</time></trkpt><trkpt lat="43.05247471563638" lon="12.132492361123305"><ele>286.3333333333333</ele><time>2026-04-19T09:50:16Z</time></trkpt><trkpt lat="43.05227424974752" lon="12.132589060796471"><ele>287.66666666666663</ele><time>2026-04-19T09:50:17Z</time></trkpt><trkpt lat="43.052071834276326" lon="12.132678265821458"><ele>289.0</ele><time>2026-04-19T09:50:18Z</time></trkpt><trkpt lat="43.051861062544766" lon="12.132771352504973"><ele>289.0</ele><time>2026-04-19T09:50:19Z</time></trkpt><trkpt lat="43.05165613511759" lon="12.132861497872323"><ele>289.0</ele><time>2026-04-19T09:50:20Z</time></trkpt><trkpt lat="43.05144916405912" lon="12.132946995245046"><ele>289.0</ele><time>2026-04-19T09:50:21Z</time></trkpt><trkpt lat="43.05124195631685" lon="12.13298892047482"><ele>289.0</ele><time>2026-04-19T09:50:22Z</time></trkpt><trkpt lat="43.05104840993781" lon="12.133024157810278"><ele>289.0</ele><time>2026-04-19T09:50:23Z</time></trkpt><trkpt lat="43.05087542961604" lon="12.133051006935935"><ele>289.0</ele><time>2026-04-19T09:50:24Z</time></trkpt><trkpt lat="43.05071249388895" lon="12.133069433714828"><ele>289.25</ele><time>2026-04-19T09:50:25Z</time></trkpt><trkpt lat="43.05056857375132" lon="12.13307898920948"><ele>289.5</ele><time>2026-04-19T09:50:26Z</time></trkpt><trkpt lat="43.05044614241387" lon="12.133066623438925"><ele>289.75</ele><time>2026-04-19T09:50:27Z</time></trkpt><trkpt lat="43.05033947740989" lon="12.133007823451223"><ele>290.0</ele><time>2026-04-19T09:50:28Z</time></trkpt><trkpt lat="43.050255579553784" lon="12.13290385514422"><ele>290.0</ele><time>2026-04-19T09:50:29Z</time></trkpt><trkpt lat="43.050247491358505" lon="12.132732315827862"><ele>290.0</ele><time>2026-04-19T09:50:30Z</time></trkpt><trkpt lat="43.05021881134575" lon="12.132557894846288"><ele>290.0</ele><time>2026-04-19T09:50:31Z</time></trkpt><trkpt lat="43.050169769946564" lon="12.132345857818796"><ele>290.0</ele><time>2026-04-19T09:50:32Z</time></trkpt><trkpt lat="43.05012271269674" lon="12.132093681529744"><ele>289.5</ele><time>2026-04-19T09:50:33Z</time></trkpt><trkpt lat="43.05007009889742" lon="12.13180435299464"><ele>289.0</ele><time>2026-04-19T09:50:34Z</time></trkpt><trkpt lat="43.050015021085024" lon="12.131486576265743"><ele>288.5</ele><time>2026-04-19T09:50:35Z</time></trkpt><trkpt lat="43.04995703749867" lon="12.131166953413581"><ele>288.0</ele><time>2026-04-19T09:50:36Z</time></trkpt><trkpt lat="43.04990040986596" lon="12.130854142844093"><ele>287.0</ele><time>2026-04-19T09:50:37Z</time></trkpt><trkpt lat="43.04984538464329" lon="12.130551218008486"><ele>286.0</ele><time>2026-04-19T09:50:38Z</time></trkpt><trkpt lat="43.049787280072614" lon="12.130252114467838"><ele>286.0</ele><time>2026-04-19T09:50:39Z</time></trkpt><trkpt lat="43.04973045828793" lon="12.12996992259326"><ele>286.0</ele><time>2026-04-19T09:50:40Z</time></trkpt><trkpt lat="43.049660277818795" lon="12.129690133312792"><ele>286.0</ele><time>2026-04-19T09:50:41Z</time></trkpt><trkpt lat="43.049578491517806" lon="12.129429908827447"><ele>285.66666666666663</ele><time>2026-04-19T09:50:42Z</time></trkpt><trkpt lat="43.049504684304175" lon="12.129175121885998"><ele>285.3333333333333</ele><time>2026-04-19T09:50:43Z</time></trkpt><trkpt lat="43.049410529822254" lon="12.12893542625029"><ele>285.0</ele><time>2026-04-19T09:50:44Z</time></trkpt><trkpt lat="43.04931404296878" lon="12.128690396324922"><ele>285.0</ele><time>2026-04-19T09:50:45Z</time></trkpt><trkpt lat="43.04922270365862" lon="12.12842115863643"><ele>285.0</ele><time>2026-04-19T09:50:46Z</time></trkpt><trkpt lat="43.049138286670825" lon="12.12812642313509"><ele>285.0</ele><time>2026-04-19T09:50:47Z</time></trkpt><trkpt lat="43.04906301897602" lon="12.127811940756372"><ele>287.0</ele><time>2026-04-19T09:50:48Z</time></trkpt><trkpt lat="43.048985753181796" lon="12.127472470529934"><ele>289.0</ele><time>2026-04-19T09:50:49Z</time></trkpt><trkpt lat="43.0489091581477" lon="12.127125133815415"><ele>289.0</ele><time>2026-04-19T09:50:50Z</time></trkpt><trkpt lat="43.048844072690756" lon="12.126812908792248"><ele>289.0</ele><time>2026-04-19T09:50:51Z</time></trkpt><trkpt lat="43.04878467248075" lon="12.126521110067047"><ele>289.0</ele><time>2026-04-19T09:50:52Z</time></trkpt><trkpt lat="43.048726389872805" lon="12.12622805468789"><ele>289.0</ele><time>2026-04-19T09:50:53Z</time></trkpt><trkpt lat="43.04866687165722" lon="12.125928786020824"><ele>289.0</ele><time>2026-04-19T09:50:54Z</time></trkpt><trkpt lat="43.048606006711424" lon="12.12562192626582"><ele>288.0</ele><time>2026-04-19T09:50:55Z</time></trkpt><trkpt lat="43.048546592119834" lon="12.125319643615171"><ele>287.0</ele><time>2026-04-19T09:50:56Z</time></trkpt><trkpt lat="43.04848654731506" lon="12.12501415438478"><ele>286.33333333333337</ele><time>2026-04-19T09:50:57Z</time></trkpt><trkpt lat="43.04842803516751" lon="12.1247147396223"><ele>285.6666666666667</ele><time>2026-04-19T09:50:58Z</time></trkpt><trkpt lat="43.04837516535252" lon="12.124442810796683"><ele>285.0</ele><time>2026-04-19T09:50:59Z</time></trkpt><trkpt lat="43.04832455941507" lon="12.124185881877963"><ele>286.6666666666667</ele><time>2026-04-19T09:51:00Z</time></trkpt><trkpt lat="43.04827590081013" lon="12.123943492518825"><ele>288.33333333333337</ele><time>2026-04-19T09:51:01Z</time></trkpt><trkpt lat="43.048232060949694" lon="12.12371802208368"><ele>290.0</ele><time>2026-04-19T09:51:02Z</time></trkpt><trkpt lat="43.04818992621193" lon="12.123500237705795"><ele>290.0</ele><time>2026-04-19T09:51:03Z</time></trkpt><trkpt lat="43.048145398713615" lon="12.123298600647713"><ele>290.0</ele><time>2026-04-19T09:51:04Z</time></trkpt><trkpt lat="43.048086150895486" lon="12.123093352070956"><ele>290.0</ele><time>2026-04-19T09:51:05Z</time></trkpt><trkpt lat="43.04799382825545" lon="12.122908897652438"><ele>289.0</ele><time>2026-04-19T09:51:06Z</time></trkpt><trkpt lat="43.04790064907114" lon="12.12272222862189"><ele>288.0</ele><time>2026-04-19T09:51:07Z</time></trkpt><trkpt lat="43.047791298565436" lon="12.12255055272491"><ele>287.0</ele><time>2026-04-19T09:51:08Z</time></trkpt><trkpt lat="43.047676744740244" lon="12.122379422796175"><ele>285.6666666666667</ele><time>2026-04-19T09:51:09Z</time></trkpt><trkpt lat="43.04756532452104" lon="12.122210096809393"><ele>284.3333333333333</ele><time>2026-04-19T09:51:10Z</time></trkpt><trkpt lat="43.047455543006606" lon="12.122042815177402"><ele>283.0</ele><time>2026-04-19T09:51:11Z</time></trkpt><trkpt lat="43.0473570992664" lon="12.121860618917456"><ele>283.0</ele><time>2026-04-19T09:51:12Z</time></trkpt><trkpt lat="43.04724465652042" lon="12.12168316168738"><ele>283.0</ele><time>2026-04-19T09:51:13Z</time></trkpt><trkpt lat="43.04712580646005" lon="12.121502877786396"><ele>283.0</ele><time>2026-04-19T09:51:14Z</time></trkpt><trkpt lat="43.04700369154926" lon="12.12131191586158"><ele>282.3333333333333</ele><time>2026-04-19T09:51:15Z</time></trkpt><trkpt lat="43.046876550718295" lon="12.121112874604488"><ele>281.6666666666667</ele><time>2026-04-19T09:51:16Z</time></trkpt><trkpt lat="43.04674876393345" lon="12.120910176006491"><ele>281.0</ele><time>2026-04-19T09:51:17Z</time></trkpt><trkpt lat="43.04662044737099" lon="12.120704013790487"><ele>281.0</ele><time>2026-04-19T09:51:18Z</time></trkpt><trkpt lat="43.04649643151889" lon="12.120506356942283"><ele>281.0</ele><time>2026-04-19T09:51:19Z</time></trkpt><trkpt lat="43.046353282121956" lon="12.120309997560884"><ele>281.0</ele><time>2026-04-19T09:51:20Z</time></trkpt><trkpt lat="43.04623901209942" lon="12.120078477419424"><ele>280.33333333333337</ele><time>2026-04-19T09:51:21Z</time></trkpt><trkpt lat="43.04611463273233" lon="12.119854101573278"><ele>279.6666666666667</ele><time>2026-04-19T09:51:22Z</time></trkpt><trkpt lat="43.0459773784913" lon="12.119634256257221"><ele>279.0</ele><time>2026-04-19T09:51:23Z</time></trkpt><trkpt lat="43.04585652493204" lon="12.119400789753099"><ele>279.3333333333333</ele><time>2026-04-19T09:51:24Z</time></trkpt><trkpt lat="43.045732905646204" lon="12.119158629021685"><ele>279.66666666666663</ele><time>2026-04-19T09:51:25Z</time></trkpt><trkpt lat="43.045613805436716" lon="12.118911400689974"><ele>280.0</ele><time>2026-04-19T09:51:26Z</time></trkpt><trkpt lat="43.045493434826454" lon="12.118660604584356"><ele>280.0</ele><time>2026-04-19T09:51:27Z</time></trkpt><trkpt lat="43.04539028422085" lon="12.118399675928677"><ele>280.0</ele><time>2026-04-19T09:51:28Z</time></trkpt><trkpt lat="43.045276866164336" lon="12.118145188545082"><ele>280.0</ele><time>2026-04-19T09:51:29Z</time></trkpt><trkpt lat="43.04515998551869" lon="12.117891557745986"><ele>279.66666666666663</ele><time>2026-04-19T09:51:30Z</time></trkpt><trkpt lat="43.04503439131141" lon="12.117654853516813"><ele>279.3333333333333</ele><time>2026-04-19T09:51:31Z</time></trkpt><trkpt lat="43.04492686077702" lon="12.117408816555383"><ele>279.0</ele><time>2026-04-19T09:51:32Z</time></trkpt><trkpt lat="43.04482040587906" lon="12.117178158636323"><ele>279.6666666666667</ele><time>2026-04-19T09:51:33Z</time></trkpt><trkpt lat="43.044721535874736" lon="12.11696695101989"><ele>280.33333333333337</ele><time>2026-04-19T09:51:34Z</time></trkpt><trkpt lat="43.044627796836394" lon="12.116767666151029"><ele>281.0</ele><time>2026-04-19T09:51:35Z</time></trkpt><trkpt lat="43.04453980831906" lon="12.116578571568693"><ele>280.6666666666667</ele><time>2026-04-19T09:51:36Z</time></trkpt><trkpt lat="43.04445843184288" lon="12.116400949559784"><ele>280.3333333333333</ele><time>2026-04-19T09:51:37Z</time></trkpt><trkpt lat="43.044371997716325" lon="12.116208856819277"><ele>280.0</ele><time>2026-04-19T09:51:38Z</time></trkpt><trkpt lat="43.04427776169396" lon="12.11599489242591"><ele>280.0</ele><time>2026-04-19T09:51:39Z</time></trkpt><trkpt lat="43.04417659542393" lon="12.115765836372042"><ele>280.0</ele><time>2026-04-19T09:51:40Z</time></trkpt><trkpt lat="43.044069785048016" lon="12.115532547603445"><ele>280.0</ele><time>2026-04-19T09:51:41Z</time></trkpt><trkpt lat="43.043964192083294" lon="12.115297769946052"><ele>280.0</ele><time>2026-04-19T09:51:42Z</time></trkpt><trkpt lat="43.04386522291511" lon="12.115061647588044"><ele>280.0</ele><time>2026-04-19T09:51:43Z</time></trkpt><trkpt lat="43.04377245420041" lon="12.114827375322879"><ele>280.0</ele><time>2026-04-19T09:51:44Z</time></trkpt><trkpt lat="43.04368101092115" lon="12.114588201200961"><ele>279.0</ele><time>2026-04-19T09:51:45Z</time></trkpt><trkpt lat="43.04358961958371" lon="12.114349339509094"><ele>278.0</ele><time>2026-04-19T09:51:46Z</time></trkpt><trkpt lat="43.04349727226965" lon="12.114115312976384"><ele>277.0</ele><time>2026-04-19T09:51:47Z</time></trkpt><trkpt lat="43.04339644828544" lon="12.113881315791708"><ele>277.66666666666663</ele><time>2026-04-19T09:51:48Z</time></trkpt><trkpt lat="43.04328776284371" lon="12.113661972426232"><ele>278.3333333333333</ele><time>2026-04-19T09:51:49Z</time></trkpt><trkpt lat="43.04316070491482" lon="12.113445708089797"><ele>279.0</ele><time>2026-04-19T09:51:50Z</time></trkpt><trkpt lat="43.04303088862495" lon="12.113230009531826"><ele>279.0</ele><time>2026-04-19T09:51:51Z</time></trkpt><trkpt lat="43.04291336641833" lon="12.113012656259055"><ele>279.0</ele><time>2026-04-19T09:51:52Z</time></trkpt><trkpt lat="43.04280875662366" lon="12.112789525500792"><ele>279.0</ele><time>2026-04-19T09:51:53Z</time></trkpt><trkpt lat="43.04271557053853" lon="12.112561018521589"><ele>279.0</ele><time>2026-04-19T09:51:54Z</time></trkpt><trkpt lat="43.04262881611763" lon="12.11233206112476"><ele>279.0</ele><time>2026-04-19T09:51:55Z</time></trkpt><trkpt lat="43.04253792621254" lon="12.112109129047818"><ele>279.0</ele><time>2026-04-19T09:51:56Z</time></trkpt><trkpt lat="43.04243457099913" lon="12.111889032566124"><ele>279.0</ele><time>2026-04-19T09:51:57Z</time></trkpt><trkpt lat="43.04231963173209" lon="12.111684224798454"><ele>279.0</ele><time>2026-04-19T09:51:58Z</time></trkpt><trkpt lat="43.04219038215835" lon="12.111489334458998"><ele>279.0</ele><time>2026-04-19T09:51:59Z</time></trkpt><trkpt lat="43.04205212707809" lon="12.111298477006757"><ele>279.0</ele><time>2026-04-19T09:52:00Z</time></trkpt><trkpt lat="43.04191136731561" lon="12.111106719375192"><ele>279.0</ele><time>2026-04-19T09:52:01Z</time></trkpt><trkpt lat="43.041769086404905" lon="12.110909167094025"><ele>279.0</ele><time>2026-04-19T09:52:02Z</time></trkpt><trkpt lat="43.041623014100956" lon="12.11069964008939"><ele>280.0</ele><time>2026-04-19T09:52:03Z</time></trkpt><trkpt lat="43.041478205692364" lon="12.110493627246681"><ele>281.0</ele><time>2026-04-19T09:52:04Z</time></trkpt><trkpt lat="43.04133203751656" lon="12.110283639877565"><ele>282.0</ele><time>2026-04-19T09:52:05Z</time></trkpt><trkpt lat="43.041184268943134" lon="12.110073652523443"><ele>282.3333333333333</ele><time>2026-04-19T09:52:06Z</time></trkpt><trkpt lat="43.041028765020215" lon="12.109865953186542"><ele>282.66666666666663</ele><time>2026-04-19T09:52:07Z</time></trkpt><trkpt lat="43.040873475614426" lon="12.10965936989437"><ele>283.0</ele><time>2026-04-19T09:52:08Z</time></trkpt><trkpt lat="43.04072383279572" lon="12.109451780030279"><ele>283.0</ele><time>2026-04-19T09:52:09Z</time></trkpt><trkpt lat="43.04057816266234" lon="12.109241505061147"><ele>283.0</ele><time>2026-04-19T09:52:10Z</time></trkpt><trkpt lat="43.04043478663942" lon="12.109039058854016"><ele>283.0</ele><time>2026-04-19T09:52:11Z</time></trkpt><trkpt lat="43.04029144657117" lon="12.108842511443681"><ele>282.66666666666663</ele><time>2026-04-19T09:52:12Z</time></trkpt><trkpt lat="43.04014996715074" lon="12.108638368997083"><ele>282.3333333333333</ele><time>2026-04-19T09:52:13Z</time></trkpt><trkpt lat="43.04001410650451" lon="12.108428345944917"><ele>282.0</ele><time>2026-04-19T09:52:14Z</time></trkpt><trkpt lat="43.03988068544755" lon="12.108214127316499"><ele>283.3333333333333</ele><time>2026-04-19T09:52:15Z</time></trkpt><trkpt lat="43.03974722332526" lon="12.108006227465117"><ele>284.66666666666663</ele><time>2026-04-19T09:52:16Z</time></trkpt><trkpt lat="43.03961118327606" lon="12.107795845646793"><ele>286.0</ele><time>2026-04-19T09:52:17Z</time></trkpt><trkpt lat="43.039477065785725" lon="12.107585589359173"><ele>286.0</ele><time>2026-04-19T09:52:18Z</time></trkpt><trkpt lat="43.03934558902979" lon="12.107374629325534"><ele>286.0</ele><time>2026-04-19T09:52:19Z</time></trkpt><trkpt lat="43.039211964069445" lon="12.107163583662887"><ele>286.0</ele><time>2026-04-19T09:52:20Z</time></trkpt><trkpt lat="43.03907726550165" lon="12.10695549038555"><ele>289.0</ele><time>2026-04-19T09:52:21Z</time></trkpt><trkpt lat="43.03894168473327" lon="12.106744171769417"><ele>292.0</ele><time>2026-04-19T09:52:22Z</time></trkpt><trkpt lat="43.03880871215787" lon="12.106543894219161"><ele>295.0</ele><time>2026-04-19T09:52:23Z</time></trkpt><trkpt lat="43.03868032469646" lon="12.106374000168863"><ele>295.0</ele><time>2026-04-19T09:52:24Z</time></trkpt><trkpt lat="43.03854363983865" lon="12.106241995803904"><ele>295.0</ele><time>2026-04-19T09:52:25Z</time></trkpt><trkpt lat="43.0383893743485" lon="12.106158791876215"><ele>295.0</ele><time>2026-04-19T09:52:26Z</time></trkpt><trkpt lat="43.03822841797605" lon="12.10611103504529"><ele>298.3333333333333</ele><time>2026-04-19T09:52:27Z</time></trkpt><trkpt lat="43.038071491863626" lon="12.10606070649226"><ele>301.6666666666667</ele><time>2026-04-19T09:52:28Z</time></trkpt><trkpt lat="43.03793924928439" lon="12.105951283543991"><ele>305.0</ele><time>2026-04-19T09:52:29Z</time></trkpt><trkpt lat="43.03782422534349" lon="12.105848005514694"><ele>304.75</ele><time>2026-04-19T09:52:30Z</time></trkpt><trkpt lat="43.03772363758853" lon="12.105724798172615"><ele>304.5</ele><time>2026-04-19T09:52:31Z</time></trkpt><trkpt lat="43.037649724456415" lon="12.105558435292108"><ele>304.25</ele><time>2026-04-19T09:52:32Z</time></trkpt><trkpt lat="43.03758818078568" lon="12.105410281274967"><ele>304.0</ele><time>2026-04-19T09:52:33Z</time></trkpt><trkpt lat="43.03751264022272" lon="12.105289755583742"><ele>306.75</ele><time>2026-04-19T09:52:34Z</time></trkpt><trkpt lat="43.037416626142" lon="12.10518765329846"><ele>309.5</ele><time>2026-04-19T09:52:35Z</time></trkpt><trkpt lat="43.03730077944641" lon="12.105149606961056"><ele>312.25</ele><time>2026-04-19T09:52:36Z</time></trkpt><trkpt lat="43.03718558540258" lon="12.10516541653089"><ele>315.0</ele><time>2026-04-19T09:52:37Z</time></trkpt><trkpt lat="43.037085334021626" lon="12.105195271652185"><ele>315.0</ele><time>2026-04-19T09:52:38Z</time></trkpt><trkpt lat="43.03699400923988" lon="12.105176826207705"><ele>315.0</ele><time>2026-04-19T09:52:39Z</time></trkpt><trkpt lat="43.03693621184769" lon="12.105069746961984"><ele>315.0</ele><time>2026-04-19T09:52:40Z</time></trkpt><trkpt lat="43.0368449287823" lon="12.104965139820093"><ele>315.0</ele><time>2026-04-19T09:52:41Z</time></trkpt><trkpt lat="43.0367502061604" lon="12.104834401960806"><ele>315.0</ele><time>2026-04-19T09:52:42Z</time></trkpt><trkpt lat="43.03661748583863" lon="12.104739925074663"><ele>319.3333333333333</ele><time>2026-04-19T09:52:43Z</time></trkpt><trkpt lat="43.036463324870425" lon="12.104670457926405"><ele>323.66666666666663</ele><time>2026-04-19T09:52:44Z</time></trkpt><trkpt lat="43.03630786338607" lon="12.104599918033816"><ele>328.0</ele><time>2026-04-19T09:52:45Z</time></trkpt><trkpt lat="43.03617958587794" lon="12.104534161092465"><ele>328.0</ele><time>2026-04-19T09:52:46Z</time></trkpt><trkpt lat="43.03607215578033" lon="12.104476810208668"><ele>328.0</ele><time>2026-04-19T09:52:47Z</time></trkpt><trkpt lat="43.035971761541916" lon="12.104427050141318"><ele>328.0</ele><time>2026-04-19T09:52:48Z</time></trkpt><trkpt lat="43.03586050085177" lon="12.104370094743464"><ele>328.0</ele><time>2026-04-19T09:52:49Z</time></trkpt><trkpt lat="43.03574509397293" lon="12.104303792038799"><ele>329.5</ele><time>2026-04-19T09:52:50Z</time></trkpt><trkpt lat="43.03562315324125" lon="12.104260541653806"><ele>331.0</ele><time>2026-04-19T09:52:51Z</time></trkpt><trkpt lat="43.035499007066775" lon="12.104235124393172"><ele>332.5</ele><time>2026-04-19T09:52:52Z</time></trkpt><trkpt lat="43.03537712985257" lon="12.104217138691848"><ele>334.0</ele><time>2026-04-19T09:52:53Z</time></trkpt><trkpt lat="43.0352521874069" lon="12.104200856784026"><ele>334.0</ele><time>2026-04-19T09:52:54Z</time></trkpt><trkpt lat="43.03514067559048" lon="12.104178079313826"><ele>334.0</ele><time>2026-04-19T09:52:55Z</time></trkpt><trkpt lat="43.03503539265024" lon="12.104114802956207"><ele>334.0</ele><time>2026-04-19T09:52:56Z</time></trkpt><trkpt lat="43.034919647603026" lon="12.104041808110066"><ele>334.0</ele><time>2026-04-19T09:52:57Z</time></trkpt><trkpt lat="43.03478974387543" lon="12.10397080292954"><ele>330.0</ele><time>2026-04-19T09:52:58Z</time></trkpt><trkpt lat="43.034651228937804" lon="12.103897245687728"><ele>326.0</ele><time>2026-04-19T09:52:59Z</time></trkpt><trkpt lat="43.034511406228056" lon="12.103830568671222"><ele>322.0</ele><time>2026-04-19T09:53:00Z</time></trkpt><trkpt lat="43.03437610501422" lon="12.10375670926576"><ele>318.0</ele><time>2026-04-19T09:53:01Z</time></trkpt><trkpt lat="43.03425422890693" lon="12.103673948184989"><ele>318.0</ele><time>2026-04-19T09:53:02Z</time></trkpt><trkpt lat="43.03414589445261" lon="12.103580045517731"><ele>318.0</ele><time>2026-04-19T09:53:03Z</time></trkpt><trkpt lat="43.03404714461777" lon="12.103489001172527"><ele>318.0</ele><time>2026-04-19T09:53:04Z</time></trkpt><trkpt lat="43.03395700244785" lon="12.103398757942232"><ele>318.0</ele><time>2026-04-19T09:53:05Z</time></trkpt><trkpt lat="43.033878418533554" lon="12.103305732710995"><ele>320.1666666666667</ele><time>2026-04-19T09:53:06Z</time></trkpt><trkpt lat="43.03381616675476" lon="12.103210410998095"><ele>322.3333333333333</ele><time>2026-04-19T09:53:07Z</time></trkpt><trkpt lat="43.03377098749588" lon="12.103112363886575"><ele>324.5</ele><time>2026-04-19T09:53:08Z</time></trkpt><trkpt lat="43.03376117153025" lon="12.10301514336778"><ele>326.66666666666663</ele><time>2026-04-19T09:53:09Z</time></trkpt><trkpt lat="43.033796835214844" lon="12.10290878063048"><ele>328.8333333333333</ele><time>2026-04-19T09:53:10Z</time></trkpt><trkpt lat="43.03383611483803" lon="12.102790393789109"><ele>331.0</ele><time>2026-04-19T09:53:11Z</time></trkpt><trkpt lat="43.03391590906657" lon="12.102686993890519"><ele>331.0</ele><time>2026-04-19T09:53:12Z</time></trkpt><trkpt lat="43.03395268969636" lon="12.102580721475046"><ele>331.0</ele><time>2026-04-19T09:53:13Z</time></trkpt><trkpt lat="43.033996799084576" lon="12.102499852390197"><ele>331.0</ele><time>2026-04-19T09:53:14Z</time></trkpt><trkpt lat="43.03404146314279" lon="12.102370228233582"><ele>331.0</ele><time>2026-04-19T09:53:16Z</time></trkpt><trkpt lat="43.03404055182399" lon="12.10226999522524"><ele>331.0</ele><time>2026-04-19T09:53:19Z</time></trkpt><trkpt lat="43.03388880074988" lon="12.102341769365339"><ele>331.0</ele><time>2026-04-19T09:53:22Z</time></trkpt><trkpt lat="43.03383345059494" lon="12.102456844705294"><ele>331.0</ele><time>2026-04-19T09:53:23Z</time></trkpt><trkpt lat="43.03376203815305" lon="12.102575234820668"><ele>331.0</ele><time>2026-04-19T09:53:24Z</time></trkpt><trkpt lat="43.03366618722298" lon="12.102714461416173"><ele>331.0</ele><time>2026-04-19T09:53:25Z</time></trkpt><trkpt lat="43.033559782569114" lon="12.102853617084111"><ele>331.0</ele><time>2026-04-19T09:53:26Z</time></trkpt><trkpt lat="43.03343698346124" lon="12.103001337445495"><ele>331.0</ele><time>2026-04-19T09:53:27Z</time></trkpt><trkpt lat="43.0332864735996" lon="12.10317462877794"><ele>331.0</ele><time>2026-04-19T09:53:28Z</time></trkpt><trkpt lat="43.03311953799679" lon="12.1033626302857"><ele>336.0</ele><time>2026-04-19T09:53:29Z</time></trkpt><trkpt lat="43.032956660178925" lon="12.103559703730005"><ele>341.0</ele><time>2026-04-19T09:53:30Z</time></trkpt><trkpt lat="43.03277347625639" lon="12.1037714970049"><ele>341.0</ele><time>2026-04-19T09:53:31Z</time></trkpt><trkpt lat="43.03257256923146" lon="12.10400873260717"><ele>341.0</ele><time>2026-04-19T09:53:32Z</time></trkpt><trkpt lat="43.03236094364463" lon="12.104266010518586"><ele>346.5</ele><time>2026-04-19T09:53:33Z</time></trkpt><trkpt lat="43.032149688446985" lon="12.104540770128372"><ele>352.0</ele><time>2026-04-19T09:53:34Z</time></trkpt><trkpt lat="43.03194934627856" lon="12.104842999854096"><ele>347.5</ele><time>2026-04-19T09:53:35Z</time></trkpt><trkpt lat="43.03174875611659" lon="12.105166796008177"><ele>343.0</ele><time>2026-04-19T09:53:36Z</time></trkpt><trkpt lat="43.03156482347688" lon="12.105447040365542"><ele>349.0</ele><time>2026-04-19T09:53:37Z</time></trkpt><trkpt lat="43.031395795742284" lon="12.105696689863981"><ele>355.0</ele><time>2026-04-19T09:53:38Z</time></trkpt><trkpt lat="43.03123594216873" lon="12.105928013818666"><ele>355.0</ele><time>2026-04-19T09:53:39Z</time></trkpt><trkpt lat="43.03107747889985" lon="12.106140732915419"><ele>355.0</ele><time>2026-04-19T09:53:40Z</time></trkpt><trkpt lat="43.030920918027306" lon="12.106349808480125"><ele>355.0</ele><time>2026-04-19T09:53:41Z</time></trkpt><trkpt lat="43.03077448557664" lon="12.106551366447855"><ele>357.66666666666663</ele><time>2026-04-19T09:53:42Z</time></trkpt><trkpt lat="43.03064017224463" lon="12.106732524733685"><ele>360.3333333333333</ele><time>2026-04-19T09:53:43Z</time></trkpt><trkpt lat="43.030516059721876" lon="12.106895596984899"><ele>363.0</ele><time>2026-04-19T09:53:44Z</time></trkpt><trkpt lat="43.030404469130914" lon="12.10704305426727"><ele>363.0</ele><time>2026-04-19T09:53:45Z</time></trkpt><trkpt lat="43.0303049872674" lon="12.10717690147403"><ele>363.0</ele><time>2026-04-19T09:53:46Z</time></trkpt><trkpt lat="43.030216048954074" lon="12.107296523915995"><ele>363.0</ele><time>2026-04-19T09:53:47Z</time></trkpt><trkpt lat="43.030135857685785" lon="12.107394104986467"><ele>363.0</ele><time>2026-04-19T09:53:48Z</time></trkpt><trkpt lat="43.03005086537681" lon="12.107446408391858"><ele>363.5</ele><time>2026-04-19T09:53:49Z</time></trkpt><trkpt lat="43.029988491078186" lon="12.107507841063587"><ele>364.0</ele><time>2026-04-19T09:53:50Z</time></trkpt><trkpt lat="43.02992686466316" lon="12.107576719569405"><ele>364.5</ele><time>2026-04-19T09:53:51Z</time></trkpt><trkpt lat="43.02983170517261" lon="12.10731697135607"><ele>365.0</ele><time>2026-04-19T09:53:52Z</time></trkpt><trkpt lat="43.02978759065168" lon="12.107182282695193"><ele>365.0</ele><time>2026-04-19T09:53:53Z</time></trkpt><trkpt lat="43.029765543127496" lon="12.106999526203904"><ele>365.0</ele><time>2026-04-19T09:53:54Z</time></trkpt><trkpt lat="43.029695984628226" lon="12.106822646792228"><ele>365.0</ele><time>2026-04-19T09:53:55Z</time></trkpt><trkpt lat="43.02965713165927" lon="12.106648754926015"><ele>365.0</ele><time>2026-04-19T09:53:56Z</time></trkpt><trkpt lat="43.029673935136756" lon="12.106472868956866"><ele>368.6666666666667</ele><time>2026-04-19T09:53:57Z</time></trkpt><trkpt lat="43.02967683426688" lon="12.106280314673862"><ele>372.3333333333333</ele><time>2026-04-19T09:53:58Z</time></trkpt><trkpt lat="43.02974510090332" lon="12.106080792506544"><ele>376.0</ele><time>2026-04-19T09:53:59Z</time></trkpt><trkpt lat="43.029801689899315" lon="12.10584294176248"><ele>381.0</ele><time>2026-04-19T09:54:00Z</time></trkpt><trkpt lat="43.02985278062834" lon="12.105582352786447"><ele>386.0</ele><time>2026-04-19T09:54:01Z</time></trkpt><trkpt lat="43.02989454792361" lon="12.105338151583327"><ele>391.0</ele><time>2026-04-19T09:54:02Z</time></trkpt><trkpt lat="43.029959104087915" lon="12.105148182191272"><ele>392.6666666666667</ele><time>2026-04-19T09:54:03Z</time></trkpt><trkpt lat="43.03006542038122" lon="12.104992230723244"><ele>394.33333333333337</ele><time>2026-04-19T09:54:04Z</time></trkpt><trkpt lat="43.03014517456103" lon="12.104814497919033"><ele>396.0</ele><time>2026-04-19T09:54:05Z</time></trkpt><trkpt lat="43.0302026547935" lon="12.104621220637288"><ele>396.0</ele><time>2026-04-19T09:54:06Z</time></trkpt><trkpt lat="43.03024695645468" lon="12.10440417942754"><ele>396.0</ele><time>2026-04-19T09:54:07Z</time></trkpt><trkpt lat="43.03029393698577" lon="12.104189499169921"><ele>396.0</ele><time>2026-04-19T09:54:08Z</time></trkpt><trkpt lat="43.03032262135602" lon="12.10400267469888"><ele>401.0</ele><time>2026-04-19T09:54:09Z</time></trkpt><trkpt lat="43.03034062275764" lon="12.103825966639203"><ele>406.0</ele><time>2026-04-19T09:54:10Z</time></trkpt><trkpt lat="43.03038338933443" lon="12.103661597616494"><ele>411.0</ele><time>2026-04-19T09:54:11Z</time></trkpt><trkpt lat="43.03049746962001" lon="12.103556474194816"><ele>416.0</ele><time>2026-04-19T09:54:12Z</time></trkpt><trkpt lat="43.03056943150408" lon="12.10341867245228"><ele>416.0</ele><time>2026-04-19T09:54:13Z</time></trkpt><trkpt lat="43.03063025625343" lon="12.10328974872766"><ele>416.0</ele><time>2026-04-19T09:54:14Z</time></trkpt><trkpt lat="43.03064177528536" lon="12.103130440264595"><ele>416.0</ele><time>2026-04-19T09:54:15Z</time></trkpt><trkpt lat="43.0305922768026" lon="12.102964726748372"><ele>416.0</ele><time>2026-04-19T09:54:16Z</time></trkpt><trkpt lat="43.030514379867235" lon="12.102797949147572"><ele>416.75</ele><time>2026-04-19T09:54:17Z</time></trkpt><trkpt lat="43.03040597574695" lon="12.102624499866527"><ele>417.5</ele><time>2026-04-19T09:54:18Z</time></trkpt><trkpt lat="43.03031431374727" lon="12.102482736486634"><ele>418.25</ele><time>2026-04-19T09:54:19Z</time></trkpt><trkpt lat="43.03021868868785" lon="12.102364803777373"><ele>419.0</ele><time>2026-04-19T09:54:20Z</time></trkpt><trkpt lat="43.03010715868153" lon="12.10225915395247"><ele>419.0</ele><time>2026-04-19T09:54:21Z</time></trkpt><trkpt lat="43.029978719850355" lon="12.102168183931212"><ele>419.0</ele><time>2026-04-19T09:54:22Z</time></trkpt><trkpt lat="43.02984236834263" lon="12.10208860372387"><ele>419.0</ele><time>2026-04-19T09:54:23Z</time></trkpt><trkpt lat="43.02972733654958" lon="12.10196526463689"><ele>419.0</ele><time>2026-04-19T09:54:24Z</time></trkpt><trkpt lat="43.029632627520726" lon="12.101875015814825"><ele>418.99999999999994</ele><time>2026-04-19T09:54:25Z</time></trkpt><trkpt lat="43.02955294068333" lon="12.101823826852991"><ele>419.0</ele><time>2026-04-19T09:54:26Z</time></trkpt><trkpt lat="43.029501054455146" lon="12.10175176657913"><ele>419.0</ele><time>2026-04-19T09:54:27Z</time></trkpt><trkpt lat="43.02947547269029" lon="12.101635928975172"><ele>419.0</ele><time>2026-04-19T09:54:28Z</time></trkpt><trkpt lat="43.02944762065126" lon="12.101517214300785"><ele>418.99999999999994</ele><time>2026-04-19T09:54:29Z</time></trkpt><trkpt lat="43.02942830639437" lon="12.10139105146639"><ele>419.0</ele><time>2026-04-19T09:54:30Z</time></trkpt><trkpt lat="43.02941654684549" lon="12.101282762659217"><ele>419.3333333333333</ele><time>2026-04-19T09:54:31Z</time></trkpt><trkpt lat="43.029396273315236" lon="12.101185420755806"><ele>419.66666666666663</ele><time>2026-04-19T09:54:32Z</time></trkpt><trkpt lat="43.02940113173118" lon="12.10109265526638"><ele>420.0</ele><time>2026-04-19T09:54:33Z</time></trkpt><trkpt lat="43.02941302530005" lon="12.101007992740133"><ele>420.33333333333337</ele><time>2026-04-19T09:54:34Z</time></trkpt><trkpt lat="43.029435826618055" lon="12.100906682305332"><ele>420.6666666666667</ele><time>2026-04-19T09:54:35Z</time></trkpt><trkpt lat="43.02947493347286" lon="12.100778130613108"><ele>421.0</ele><time>2026-04-19T09:54:36Z</time></trkpt><trkpt lat="43.02951417153938" lon="12.100636270268145"><ele>421.50000000000006</ele><time>2026-04-19T09:54:37Z</time></trkpt><trkpt lat="43.02953648243431" lon="12.100499921649638"><ele>422.0</ele><time>2026-04-19T09:54:38Z</time></trkpt><trkpt lat="43.02954151720963" lon="12.100387750944618"><ele>422.5</ele><time>2026-04-19T09:54:39Z</time></trkpt><trkpt lat="43.02954229078228" lon="12.100276467009685"><ele>423.0</ele><time>2026-04-19T09:54:40Z</time></trkpt><trkpt lat="43.0295381070728" lon="12.100168037354582"><ele>423.50000000000006</ele><time>2026-04-19T09:54:41Z</time></trkpt><trkpt lat="43.029528451175416" lon="12.100057077783173"><ele>424.0</ele><time>2026-04-19T09:54:42Z</time></trkpt><trkpt lat="43.02951780932322" lon="12.099950200511207"><ele>425.0</ele><time>2026-04-19T09:54:43Z</time></trkpt><trkpt lat="43.02950053404957" lon="12.099800647914037"><ele>426.0</ele><time>2026-04-19T09:54:45Z</time></trkpt><trkpt lat="43.029462660902375" lon="12.099655660774346"><ele>427.0</ele><time>2026-04-19T09:54:47Z</time></trkpt><trkpt lat="43.02942362791162" lon="12.099483674240101"><ele>428.0</ele><time>2026-04-19T09:54:49Z</time></trkpt><trkpt lat="43.02943727992522" lon="12.099364470083655"><ele>429.0</ele><time>2026-04-19T09:54:50Z</time></trkpt><trkpt lat="43.02941976830603" lon="12.099250964905"><ele>429.0</ele><time>2026-04-19T09:54:51Z</time></trkpt><trkpt lat="43.02942990109593" lon="12.099135315566265"><ele>429.0</ele><time>2026-04-19T09:54:52Z</time></trkpt><trkpt lat="43.029434208131846" lon="12.099035145097913"><ele>429.0</ele><time>2026-04-19T09:54:53Z</time></trkpt><trkpt lat="43.02944914693206" lon="12.098945825703586"><ele>429.0</ele><time>2026-04-19T09:54:54Z</time></trkpt><trkpt lat="43.02948516873666" lon="12.098790863529414"><ele>429.0</ele><time>2026-04-19T09:54:56Z</time></trkpt><trkpt lat="43.02949240164904" lon="12.098622368573261"><ele>429.5</ele><time>2026-04-19T09:54:58Z</time></trkpt><trkpt lat="43.02950407769766" lon="12.09850488893629"><ele>430.0</ele><time>2026-04-19T09:54:59Z</time></trkpt><trkpt lat="43.029516460792564" lon="12.09839781367785"><ele>430.5</ele><time>2026-04-19T09:55:00Z</time></trkpt><trkpt lat="43.02952385302926" lon="12.098299695865581"><ele>431.0</ele><time>2026-04-19T09:55:01Z</time></trkpt><trkpt lat="43.02953751414385" lon="12.098214153554325"><ele>431.5</ele><time>2026-04-19T09:55:02Z</time></trkpt><trkpt lat="43.02953882430548" lon="12.098124721096342"><ele>432.0</ele><time>2026-04-19T09:55:03Z</time></trkpt><trkpt lat="43.029527637719774" lon="12.097958245942673"><ele>430.0</ele><time>2026-04-19T09:55:05Z</time></trkpt><trkpt lat="43.02948632244894" lon="12.097815600656897"><ele>428.00000000000006</ele><time>2026-04-19T09:55:07Z</time></trkpt><trkpt lat="43.029425555776086" lon="12.09771973332639"><ele>426.0</ele><time>2026-04-19T09:55:09Z</time></trkpt><trkpt lat="43.02935675383809" lon="12.097629538455532"><ele>424.0</ele><time>2026-04-19T09:55:11Z</time></trkpt><trkpt lat="43.02927494761272" lon="12.097553540808388"><ele>422.0</ele><time>2026-04-19T09:55:13Z</time></trkpt><trkpt lat="43.02923714656661" lon="12.09748356147874"><ele>421.99999999999994</ele><time>2026-04-19T09:55:14Z</time></trkpt><trkpt lat="43.02918092675228" lon="12.097425171185938"><ele>422.0</ele><time>2026-04-19T09:55:15Z</time></trkpt><trkpt lat="43.02909850305323" lon="12.097340251906882"><ele>422.0</ele><time>2026-04-19T09:55:17Z</time></trkpt><trkpt lat="43.029017755994005" lon="12.097273937312535"><ele>422.0</ele><time>2026-04-19T09:55:19Z</time></trkpt><trkpt lat="43.0289554296942" lon="12.09722093076322"><ele>421.99999999999994</ele><time>2026-04-19T09:55:22Z</time></trkpt><trkpt lat="43.028884311729" lon="12.097224064542992"><ele>422.0</ele><time>2026-04-19T09:55:26Z</time></trkpt><trkpt lat="43.02881394784626" lon="12.097273215326478"><ele>422.75</ele><time>2026-04-19T09:55:28Z</time></trkpt><trkpt lat="43.02872466455911" lon="12.097350444085007"><ele>423.5</ele><time>2026-04-19T09:55:31Z</time></trkpt><trkpt lat="43.028632242420706" lon="12.097425590652827"><ele>424.25</ele><time>2026-04-19T09:55:33Z</time></trkpt><trkpt lat="43.02855121652272" lon="12.097318900072425"><ele>425.0</ele><time>2026-04-19T09:55:35Z</time></trkpt><trkpt lat="43.02843309774464" lon="12.097434613963106"><ele>424.99999999999994</ele><time>2026-04-19T09:55:36Z</time></trkpt><trkpt lat="43.02836269240805" lon="12.09742615031379"><ele>425.0</ele><time>2026-04-19T09:55:37Z</time></trkpt><trkpt lat="43.02829283250684" lon="12.09742236765196"><ele>425.0</ele><time>2026-04-19T09:55:39Z</time></trkpt><trkpt lat="43.02820824238715" lon="12.09738113632963"><ele>425.0</ele><time>2026-04-19T09:55:41Z</time></trkpt><trkpt lat="43.02810413361568" lon="12.09736997885295"><ele>424.99999999999994</ele><time>2026-04-19T09:55:43Z</time></trkpt><trkpt lat="43.0280252180432" lon="12.09738361332885"><ele>425.0</ele><time>2026-04-19T09:55:44Z</time></trkpt><trkpt lat="43.0279507189518" lon="12.097353117344136"><ele>427.4</ele><time>2026-04-19T09:55:45Z</time></trkpt><trkpt lat="43.02787739679948" lon="12.097344328210442"><ele>429.8</ele><time>2026-04-19T09:55:46Z</time></trkpt><trkpt lat="43.02778219568843" lon="12.097332916450572"><ele>432.20000000000005</ele><time>2026-04-19T09:55:47Z</time></trkpt><trkpt lat="43.027646899430785" lon="12.097318650921425"><ele>434.6</ele><time>2026-04-19T09:55:48Z</time></trkpt><trkpt lat="43.02751871692161" lon="12.097319366553467"><ele>437.0</ele><time>2026-04-19T09:55:49Z</time></trkpt><trkpt lat="43.02743401027706" lon="12.097307449931815"><ele>437.0</ele><time>2026-04-19T09:55:50Z</time></trkpt><trkpt lat="43.02733502558916" lon="12.0972864862988"><ele>437.00000000000006</ele><time>2026-04-19T09:55:52Z</time></trkpt><trkpt lat="43.02743622766903" lon="12.097280870079409"><ele>437.00000000000006</ele><time>2026-04-19T09:56:00Z</time></trkpt><trkpt lat="43.02755730170087" lon="12.097313442709424"><ele>437.0</ele><time>2026-04-19T09:56:01Z</time></trkpt><trkpt lat="43.02766873140308" lon="12.097332192050139"><ele>437.0</ele><time>2026-04-19T09:56:02Z</time></trkpt><trkpt lat="43.02778989069584" lon="12.097350022424832"><ele>437.0</ele><time>2026-04-19T09:56:03Z</time></trkpt><trkpt lat="43.02791477989217" lon="12.097367672727502"><ele>437.0</ele><time>2026-04-19T09:56:04Z</time></trkpt><trkpt lat="43.028033963368415" lon="12.097363096157196"><ele>437.0</ele><time>2026-04-19T09:56:05Z</time></trkpt><trkpt lat="43.02814302028465" lon="12.097374146603016"><ele>437.0</ele><time>2026-04-19T09:56:06Z</time></trkpt><trkpt lat="43.028245823783045" lon="12.097385164231081"><ele>437.0</ele><time>2026-04-19T09:56:07Z</time></trkpt><trkpt lat="43.02833647740869" lon="12.097394879677276"><ele>437.00000000000006</ele><time>2026-04-19T09:56:08Z</time></trkpt><trkpt lat="43.028468929990936" lon="12.097434707073104"><ele>437.00000000000006</ele><time>2026-04-19T09:56:10Z</time></trkpt><trkpt lat="43.028558346936215" lon="12.097452733481024"><ele>437.0</ele><time>2026-04-19T09:56:12Z</time></trkpt><trkpt lat="43.028564282561554" lon="12.097353113717478"><ele>437.0</ele><time>2026-04-19T09:56:19Z</time></trkpt><trkpt lat="43.02844687740122" lon="12.097279117911995"><ele>436.99999999999994</ele><time>2026-04-19T09:56:21Z</time></trkpt><trkpt lat="43.028379308485476" lon="12.097252272300985"><ele>437.0</ele><time>2026-04-19T09:56:22Z</time></trkpt><trkpt lat="43.02837110241809" lon="12.097140088977007"><ele>437.0</ele><time>2026-04-19T09:56:24Z</time></trkpt><trkpt lat="43.0284055608579" lon="12.097018871319047"><ele>437.0</ele><time>2026-04-19T09:56:26Z</time></trkpt><trkpt lat="43.02839501698197" lon="12.096932283698257"><ele>436.99999999999994</ele><time>2026-04-19T09:56:27Z</time></trkpt><trkpt lat="43.02834087226109" lon="12.09685760576833"><ele>437.0</ele><time>2026-04-19T09:56:28Z</time></trkpt><trkpt lat="43.02831597359052" lon="12.096745332576578"><ele>437.0</ele><time>2026-04-19T09:56:30Z</time></trkpt><trkpt lat="43.028443570343356" lon="12.096631485524508"><ele>437.0</ele><time>2026-04-19T09:56:33Z</time></trkpt><trkpt lat="43.028494585469225" lon="12.096572931588122"><ele>437.0</ele><time>2026-04-19T09:56:34Z</time></trkpt><trkpt lat="43.028526551503774" lon="12.096409273902642"><ele>437.0</ele><time>2026-04-19T09:56:36Z</time></trkpt><trkpt lat="43.028421600737396" lon="12.096270793121212"><ele>438.85714285714283</ele><time>2026-04-19T09:56:38Z</time></trkpt><trkpt lat="43.02836885932167" lon="12.096214186320411"><ele>440.7142857142858</ele><time>2026-04-19T09:56:39Z</time></trkpt><trkpt lat="43.02830809620531" lon="12.096156022093165"><ele>442.5714285714286</ele><time>2026-04-19T09:56:40Z</time></trkpt><trkpt lat="43.02824866269229" lon="12.096104302943361"><ele>444.42857142857144</ele><time>2026-04-19T09:56:41Z</time></trkpt><trkpt lat="43.028187224290335" lon="12.096052712272089"><ele>446.28571428571433</ele><time>2026-04-19T09:56:42Z</time></trkpt><trkpt lat="43.028120554096326" lon="12.095998670930273"><ele>448.1428571428572</ele><time>2026-04-19T09:56:43Z</time></trkpt><trkpt lat="43.02805638589676" lon="12.095946657592672"><ele>450.00000000000006</ele><time>2026-04-19T09:56:44Z</time></trkpt><trkpt lat="43.02798266033772" lon="12.095889768997862"><ele>452.2</ele><time>2026-04-19T09:56:45Z</time></trkpt><trkpt lat="43.027894832406865" lon="12.09583299920721"><ele>454.4</ele><time>2026-04-19T09:56:46Z</time></trkpt><trkpt lat="43.02779588747461" lon="12.095785315102264"><ele>456.6</ele><time>2026-04-19T09:56:47Z</time></trkpt><trkpt lat="43.02768761011024" lon="12.095744248672425"><ele>458.8</ele><time>2026-04-19T09:56:48Z</time></trkpt><trkpt lat="43.0275817921005" lon="12.095708973860942"><ele>461.0</ele><time>2026-04-19T09:56:49Z</time></trkpt><trkpt lat="43.02748020564563" lon="12.095679136209993"><ele>464.8</ele><time>2026-04-19T09:56:50Z</time></trkpt><trkpt lat="43.02736003759207" lon="12.09565247197071"><ele>468.6</ele><time>2026-04-19T09:56:51Z</time></trkpt><trkpt lat="43.02724004092224" lon="12.09565146920389"><ele>472.4</ele><time>2026-04-19T09:56:52Z</time></trkpt><trkpt lat="43.02714410355753" lon="12.095607764786005"><ele>476.2</ele><time>2026-04-19T09:56:53Z</time></trkpt><trkpt lat="43.027052600258166" lon="12.095600957203363"><ele>480.0</ele><time>2026-04-19T09:56:54Z</time></trkpt><trkpt lat="43.02699661302602" lon="12.095531099420787"><ele>480.0</ele><time>2026-04-19T09:56:55Z</time></trkpt><trkpt lat="43.02691551478712" lon="12.095407870667394"><ele>480.0</ele><time>2026-04-19T09:56:57Z</time></trkpt><trkpt lat="43.02686763381301" lon="12.095324991905345"><ele>480.0</ele><time>2026-04-19T09:56:58Z</time></trkpt><trkpt lat="43.02682219770416" lon="12.09522483145175"><ele>480.0</ele><time>2026-04-19T09:56:59Z</time></trkpt><trkpt lat="43.026770928356186" lon="12.095113142786786"><ele>480.0</ele><time>2026-04-19T09:57:00Z</time></trkpt><trkpt lat="43.02672145980797" lon="12.095002348520463"><ele>480.6666666666667</ele><time>2026-04-19T09:57:01Z</time></trkpt><trkpt lat="43.02667660768977" lon="12.094899779742768"><ele>481.33333333333337</ele><time>2026-04-19T09:57:02Z</time></trkpt><trkpt lat="43.02663745582876" lon="12.094813373302403"><ele>482.0</ele><time>2026-04-19T09:57:03Z</time></trkpt><trkpt lat="43.026589915685946" lon="12.094727038117611"><ele>482.6666666666667</ele><time>2026-04-19T09:57:04Z</time></trkpt><trkpt lat="43.02653912612909" lon="12.094637600029666"><ele>483.33333333333337</ele><time>2026-04-19T09:57:05Z</time></trkpt><trkpt lat="43.026472260142114" lon="12.094538863932275"><ele>484.0</ele><time>2026-04-19T09:57:06Z</time></trkpt><trkpt lat="43.02640141430866" lon="12.094439155429546"><ele>484.0</ele><time>2026-04-19T09:57:07Z</time></trkpt><trkpt lat="43.026327553787326" lon="12.094339704619303"><ele>484.0</ele><time>2026-04-19T09:57:08Z</time></trkpt><trkpt lat="43.02624635005808" lon="12.09425676507709"><ele>484.0</ele><time>2026-04-19T09:57:09Z</time></trkpt><trkpt lat="43.02618779608701" lon="12.094197840802021"><ele>484.0</ele><time>2026-04-19T09:57:10Z</time></trkpt><trkpt lat="43.02610824460516" lon="12.094093339393709"><ele>484.0</ele><time>2026-04-19T09:57:12Z</time></trkpt><trkpt lat="43.02605848397118" lon="12.094008873719265"><ele>484.4</ele><time>2026-04-19T09:57:13Z</time></trkpt><trkpt lat="43.026003155968425" lon="12.093894935657874"><ele>484.79999999999995</ele><time>2026-04-19T09:57:14Z</time></trkpt><trkpt lat="43.02594214267382" lon="12.093782451427314"><ele>485.20000000000005</ele><time>2026-04-19T09:57:15Z</time></trkpt><trkpt lat="43.025877499037136" lon="12.09366404472314"><ele>485.6</ele><time>2026-04-19T09:57:16Z</time></trkpt><trkpt lat="43.0257963890006" lon="12.093538514074794"><ele>486.0</ele><time>2026-04-19T09:57:17Z</time></trkpt><trkpt lat="43.025714931832105" lon="12.093422629932778"><ele>486.0</ele><time>2026-04-19T09:57:18Z</time></trkpt><trkpt lat="43.02562189803649" lon="12.093293096964002"><ele>486.0</ele><time>2026-04-19T09:57:19Z</time></trkpt><trkpt lat="43.02553229151767" lon="12.093164139038473"><ele>486.0</ele><time>2026-04-19T09:57:20Z</time></trkpt><trkpt lat="43.025448953663165" lon="12.093042070895747"><ele>486.0</ele><time>2026-04-19T09:57:21Z</time></trkpt><trkpt lat="43.02536812796704" lon="12.09292368247484"><ele>488.75</ele><time>2026-04-19T09:57:22Z</time></trkpt><trkpt lat="43.025298758070946" lon="12.092822322355083"><ele>491.5</ele><time>2026-04-19T09:57:23Z</time></trkpt><trkpt lat="43.02522758925554" lon="12.092720801451975"><ele>494.25</ele><time>2026-04-19T09:57:24Z</time></trkpt><trkpt lat="43.02513217144143" lon="12.09259389270921"><ele>497.0</ele><time>2026-04-19T09:57:25Z</time></trkpt><trkpt lat="43.0250376090324" lon="12.092474367812613"><ele>498.25</ele><time>2026-04-19T09:57:26Z</time></trkpt><trkpt lat="43.024944051040926" lon="12.092360228036036"><ele>499.5</ele><time>2026-04-19T09:57:27Z</time></trkpt><trkpt lat="43.02483375554154" lon="12.092236716537636"><ele>500.75</ele><time>2026-04-19T09:57:28Z</time></trkpt><trkpt lat="43.024714981828346" lon="12.092111682709152"><ele>502.0</ele><time>2026-04-19T09:57:29Z</time></trkpt><trkpt lat="43.02460513122823" lon="12.09199475059555"><ele>502.0</ele><time>2026-04-19T09:57:30Z</time></trkpt><trkpt lat="43.02451179932516" lon="12.091887819121254"><ele>502.0</ele><time>2026-04-19T09:57:31Z</time></trkpt><trkpt lat="43.02442407106083" lon="12.091783933909213"><ele>502.0</ele><time>2026-04-19T09:57:32Z</time></trkpt><trkpt lat="43.024345720582424" lon="12.091689054600394"><ele>502.0</ele><time>2026-04-19T09:57:33Z</time></trkpt><trkpt lat="43.024262615808944" lon="12.091587534835652"><ele>502.0</ele><time>2026-04-19T09:57:34Z</time></trkpt><trkpt lat="43.02416885921127" lon="12.091473002963664"><ele>502.0</ele><time>2026-04-19T09:57:35Z</time></trkpt><trkpt lat="43.02406948512369" lon="12.091351608731514"><ele>502.0</ele><time>2026-04-19T09:57:36Z</time></trkpt><trkpt lat="43.02397353380173" lon="12.091237274472329"><ele>502.0</ele><time>2026-04-19T09:57:37Z</time></trkpt><trkpt lat="43.023889561353336" lon="12.09114747725787"><ele>503.25</ele><time>2026-04-19T09:57:38Z</time></trkpt><trkpt lat="43.02380436568969" lon="12.091067066547845"><ele>504.5</ele><time>2026-04-19T09:57:39Z</time></trkpt><trkpt lat="43.023701729088096" lon="12.090985587577732"><ele>505.75</ele><time>2026-04-19T09:57:40Z</time></trkpt><trkpt lat="43.023593323313214" lon="12.09092072005643"><ele>507.0</ele><time>2026-04-19T09:57:41Z</time></trkpt><trkpt lat="43.023475609755046" lon="12.090876103829684"><ele>507.0</ele><time>2026-04-19T09:57:42Z</time></trkpt><trkpt lat="43.02337655743119" lon="12.090837198646165"><ele>507.00000000000006</ele><time>2026-04-19T09:57:43Z</time></trkpt><trkpt lat="43.02329194188521" lon="12.090803278075327"><ele>507.00000000000006</ele><time>2026-04-19T09:57:44Z</time></trkpt><trkpt lat="43.02320378444164" lon="12.090767800075808"><ele>507.0</ele><time>2026-04-19T09:57:45Z</time></trkpt><trkpt lat="43.02312273696047" lon="12.090732766582594"><ele>507.0</ele><time>2026-04-19T09:57:46Z</time></trkpt><trkpt lat="43.02304076775294" lon="12.090688066805125"><ele>509.40000000000003</ele><time>2026-04-19T09:57:47Z</time></trkpt><trkpt lat="43.02297332995691" lon="12.090646492987325"><ele>511.80000000000007</ele><time>2026-04-19T09:57:48Z</time></trkpt><trkpt lat="43.02290122367789" lon="12.090597203887828"><ele>514.2</ele><time>2026-04-19T09:57:49Z</time></trkpt><trkpt lat="43.02280882936051" lon="12.09052454855822"><ele>516.6</ele><time>2026-04-19T09:57:50Z</time></trkpt><trkpt lat="43.02271468837464" lon="12.090426184049106"><ele>519.0</ele><time>2026-04-19T09:57:51Z</time></trkpt><trkpt lat="43.02262786693682" lon="12.090320471858954"><ele>519.0</ele><time>2026-04-19T09:57:52Z</time></trkpt><trkpt lat="43.022544128814054" lon="12.090220782177218"><ele>519.0</ele><time>2026-04-19T09:57:53Z</time></trkpt><trkpt lat="43.02247236438302" lon="12.090140435948596"><ele>519.0</ele><time>2026-04-19T09:57:54Z</time></trkpt><trkpt lat="43.022396204690935" lon="12.090060411416196"><ele>519.0</ele><time>2026-04-19T09:57:55Z</time></trkpt><trkpt lat="43.02230267242061" lon="12.089977999274"><ele>519.0</ele><time>2026-04-19T09:57:56Z</time></trkpt><trkpt lat="43.022188196208155" lon="12.089900953407811"><ele>524.25</ele><time>2026-04-19T09:57:57Z</time></trkpt><trkpt lat="43.022084849587365" lon="12.089828213770309"><ele>529.5</ele><time>2026-04-19T09:57:58Z</time></trkpt><trkpt lat="43.02198590460212" lon="12.08974984423994"><ele>534.75</ele><time>2026-04-19T09:57:59Z</time></trkpt><trkpt lat="43.021871661207065" lon="12.089650802369682"><ele>540.0</ele><time>2026-04-19T09:58:00Z</time></trkpt><trkpt lat="43.021781307020724" lon="12.08955208287582"><ele>540.0</ele><time>2026-04-19T09:58:01Z</time></trkpt><trkpt lat="43.02171837021457" lon="12.089443069947748"><ele>540.0</ele><time>2026-04-19T09:58:02Z</time></trkpt><trkpt lat="43.021649001707424" lon="12.089311294649274"><ele>540.0</ele><time>2026-04-19T09:58:03Z</time></trkpt><trkpt lat="43.02156831988712" lon="12.08917724294204"><ele>540.0</ele><time>2026-04-19T09:58:04Z</time></trkpt><trkpt lat="43.02148005865835" lon="12.089054183662599"><ele>545.5</ele><time>2026-04-19T09:58:05Z</time></trkpt><trkpt lat="43.021370599683685" lon="12.088956562955266"><ele>551.0</ele><time>2026-04-19T09:58:06Z</time></trkpt><trkpt lat="43.021264678506455" lon="12.088838155411771"><ele>556.5</ele><time>2026-04-19T09:58:07Z</time></trkpt><trkpt lat="43.02116267295536" lon="12.088743859014489"><ele>562.0</ele><time>2026-04-19T09:58:08Z</time></trkpt><trkpt lat="43.02107265107347" lon="12.08867100061911"><ele>562.0</ele><time>2026-04-19T09:58:09Z</time></trkpt><trkpt lat="43.02096758475091" lon="12.088616677968064"><ele>562.0</ele><time>2026-04-19T09:58:10Z</time></trkpt><trkpt lat="43.02088452646204" lon="12.088531613150003"><ele>562.0</ele><time>2026-04-19T09:58:11Z</time></trkpt><trkpt lat="43.02078842003413" lon="12.088464343519252"><ele>562.0</ele><time>2026-04-19T09:58:12Z</time></trkpt><trkpt lat="43.02069892266758" lon="12.088437192661743"><ele>562.0</ele><time>2026-04-19T09:58:13Z</time></trkpt><trkpt lat="43.020616192657194" lon="12.088420513525604"><ele>563.0</ele><time>2026-04-19T09:58:14Z</time></trkpt><trkpt lat="43.02053130967838" lon="12.088392938157776"><ele>564.0</ele><time>2026-04-19T09:58:15Z</time></trkpt><trkpt lat="43.020439281193035" lon="12.088361611086885"><ele>565.0</ele><time>2026-04-19T09:58:16Z</time></trkpt><trkpt lat="43.020363826284964" lon="12.088290447631364"><ele>566.0</ele><time>2026-04-19T09:58:17Z</time></trkpt><trkpt lat="43.020277193109294" lon="12.088227741086074"><ele>567.0</ele><time>2026-04-19T09:58:18Z</time></trkpt><trkpt lat="43.02018890078092" lon="12.08815786808011"><ele>566.1666666666666</ele><time>2026-04-19T09:58:19Z</time></trkpt><trkpt lat="43.02012334880877" lon="12.088095353215229"><ele>565.3333333333334</ele><time>2026-04-19T09:58:20Z</time></trkpt><trkpt lat="43.02002206684752" lon="12.087989074019267"><ele>564.5</ele><time>2026-04-19T09:58:22Z</time></trkpt><trkpt lat="43.01997694982681" lon="12.087927066258553"><ele>563.6666666666667</ele><time>2026-04-19T09:58:23Z</time></trkpt><trkpt lat="43.01992660439818" lon="12.087825284826021"><ele>562.8333333333334</ele><time>2026-04-19T09:58:25Z</time></trkpt><trkpt lat="43.01989865864491" lon="12.0877299876679"><ele>562.0</ele><time>2026-04-19T09:58:26Z</time></trkpt><trkpt lat="43.019883973243054" lon="12.087641927836568"><ele>562.0</ele><time>2026-04-19T09:58:27Z</time></trkpt><trkpt lat="43.01986948580539" lon="12.08749462807588"><ele>562.0</ele><time>2026-04-19T09:58:29Z</time></trkpt><trkpt lat="43.019862847071735" lon="12.087364550254176"><ele>562.0</ele><time>2026-04-19T09:58:31Z</time></trkpt><trkpt lat="43.01985844614265" lon="12.087278320630118"><ele>562.0</ele><time>2026-04-19T09:58:32Z</time></trkpt><trkpt lat="43.019841966837305" lon="12.087142132300203"><ele>562.0</ele><time>2026-04-19T09:58:34Z</time></trkpt><trkpt lat="43.019820283692525" lon="12.087054057408904"><ele>562.0</ele><time>2026-04-19T09:58:35Z</time></trkpt><trkpt lat="43.01978666246772" lon="12.086960805818245"><ele>564.8000000000001</ele><time>2026-04-19T09:58:36Z</time></trkpt><trkpt lat="43.01974028531319" lon="12.086862295254665"><ele>567.6</ele><time>2026-04-19T09:58:37Z</time></trkpt><trkpt lat="43.01968012984748" lon="12.086747405895911"><ele>570.4000000000001</ele><time>2026-04-19T09:58:38Z</time></trkpt><trkpt lat="43.019595898565335" lon="12.086631488012829"><ele>573.2</ele><time>2026-04-19T09:58:39Z</time></trkpt><trkpt lat="43.01951809522937" lon="12.086512646495114"><ele>576.0</ele><time>2026-04-19T09:58:40Z</time></trkpt><trkpt lat="43.01944979944719" lon="12.0863763404831"><ele>577.25</ele><time>2026-04-19T09:58:41Z</time></trkpt><trkpt lat="43.019405451909925" lon="12.08624944320357"><ele>578.5</ele><time>2026-04-19T09:58:42Z</time></trkpt><trkpt lat="43.01937884113592" lon="12.086109799013181"><ele>579.75</ele><time>2026-04-19T09:58:43Z</time></trkpt><trkpt lat="43.01937605192713" lon="12.085926895261302"><ele>581.0</ele><time>2026-04-19T09:58:44Z</time></trkpt><trkpt lat="43.019363746321055" lon="12.085728624358671"><ele>584.0</ele><time>2026-04-19T09:58:45Z</time></trkpt><trkpt lat="43.019350273142976" lon="12.085497277335481"><ele>587.0</ele><time>2026-04-19T09:58:46Z</time></trkpt><trkpt lat="43.019338595862145" lon="12.085286876638605"><ele>590.0</ele><time>2026-04-19T09:58:47Z</time></trkpt><trkpt lat="43.019329829751136" lon="12.085114883246922"><ele>590.0</ele><time>2026-04-19T09:58:48Z</time></trkpt><trkpt lat="43.01932150984588" lon="12.084966702133146"><ele>590.0</ele><time>2026-04-19T09:58:49Z</time></trkpt><trkpt lat="43.019312105942184" lon="12.08482651891316"><ele>590.0</ele><time>2026-04-19T09:58:50Z</time></trkpt><trkpt lat="43.0193042362352" lon="12.084709205477052"><ele>590.0</ele><time>2026-04-19T09:58:51Z</time></trkpt><trkpt lat="43.019297787940516" lon="12.084613082602512"><ele>590.0</ele><time>2026-04-19T09:58:52Z</time></trkpt><trkpt lat="43.01927381094282" lon="12.084504342042965"><ele>591.3333333333333</ele><time>2026-04-19T09:58:54Z</time></trkpt><trkpt lat="43.0192043097059" lon="12.084384285942303"><ele>592.6666666666666</ele><time>2026-04-19T09:58:56Z</time></trkpt><trkpt lat="43.019141061941674" lon="12.084349472181405"><ele>594.0</ele><time>2026-04-19T09:58:57Z</time></trkpt><trkpt lat="43.019066525613106" lon="12.084265892238937"><ele>595.3333333333334</ele><time>2026-04-19T09:58:59Z</time></trkpt><trkpt lat="43.01902398212788" lon="12.084199356134727"><ele>596.6666666666667</ele><time>2026-04-19T09:59:00Z</time></trkpt><trkpt lat="43.01898328311668" lon="12.084128057998212"><ele>598.0</ele><time>2026-04-19T09:59:01Z</time></trkpt><trkpt lat="43.0189294513483" lon="12.084023883381633"><ele>602.1666666666667</ele><time>2026-04-19T09:59:02Z</time></trkpt><trkpt lat="43.018873510900086" lon="12.083909417784092"><ele>606.3333333333334</ele><time>2026-04-19T09:59:03Z</time></trkpt><trkpt lat="43.01882651618959" lon="12.083813301184778"><ele>610.5</ele><time>2026-04-19T09:59:04Z</time></trkpt><trkpt lat="43.01876678686676" lon="12.083682760763297"><ele>614.6666666666666</ele><time>2026-04-19T09:59:05Z</time></trkpt><trkpt lat="43.018737285188024" lon="12.083591520747037"><ele>618.8333333333333</ele><time>2026-04-19T09:59:06Z</time></trkpt><trkpt lat="43.018712626191245" lon="12.083500774343275"><ele>623.0</ele><time>2026-04-19T09:59:07Z</time></trkpt><trkpt lat="43.01868968240382" lon="12.083389067848119"><ele>624.25</ele><time>2026-04-19T09:59:08Z</time></trkpt><trkpt lat="43.01866832862251" lon="12.083241926889144"><ele>625.5</ele><time>2026-04-19T09:59:09Z</time></trkpt><trkpt lat="43.01864365672694" lon="12.083063143441208"><ele>626.75</ele><time>2026-04-19T09:59:10Z</time></trkpt><trkpt lat="43.01861678491726" lon="12.082887030630316"><ele>628.0</ele><time>2026-04-19T09:59:11Z</time></trkpt><trkpt lat="43.0185934740961" lon="12.08274285786912"><ele>628.0</ele><time>2026-04-19T09:59:12Z</time></trkpt><trkpt lat="43.01857038128679" lon="12.08260733079789"><ele>628.0</ele><time>2026-04-19T09:59:13Z</time></trkpt><trkpt lat="43.01853941585818" lon="12.082462006981533"><ele>628.0</ele><time>2026-04-19T09:59:14Z</time></trkpt><trkpt lat="43.01849836474056" lon="12.082325311130502"><ele>628.0</ele><time>2026-04-19T09:59:15Z</time></trkpt><trkpt lat="43.018457483269785" lon="12.082207628883657"><ele>628.0</ele><time>2026-04-19T09:59:16Z</time></trkpt><trkpt lat="43.01839628862115" lon="12.082060231755499"><ele>627.0</ele><time>2026-04-19T09:59:17Z</time></trkpt><trkpt lat="43.01829385663487" lon="12.081865727567486"><ele>626.0</ele><time>2026-04-19T09:59:18Z</time></trkpt><trkpt lat="43.01819029727677" lon="12.081741698319979"><ele>625.0</ele><time>2026-04-19T09:59:19Z</time></trkpt><trkpt lat="43.01812282789866" lon="12.081657496222329"><ele>624.0</ele><time>2026-04-19T09:59:20Z</time></trkpt><trkpt lat="43.018053589506856" lon="12.081565880695322"><ele>624.0</ele><time>2026-04-19T09:59:21Z</time></trkpt><trkpt lat="43.017980181793305" lon="12.081464465421947"><ele>624.0</ele><time>2026-04-19T09:59:22Z</time></trkpt><trkpt lat="43.01791888891251" lon="12.0813721502803"><ele>624.0</ele><time>2026-04-19T09:59:23Z</time></trkpt><trkpt lat="43.01785356777304" lon="12.081256912814498"><ele>624.0</ele><time>2026-04-19T09:59:24Z</time></trkpt><trkpt lat="43.01778562683843" lon="12.081132215366427"><ele>624.0</ele><time>2026-04-19T09:59:25Z</time></trkpt><trkpt lat="43.01771530510835" lon="12.081001586519355"><ele>624.0</ele><time>2026-04-19T09:59:26Z</time></trkpt><trkpt lat="43.01764339307632" lon="12.080866469226306"><ele>624.0</ele><time>2026-04-19T09:59:27Z</time></trkpt><trkpt lat="43.0175769534303" lon="12.080741362744305"><ele>624.0</ele><time>2026-04-19T09:59:28Z</time></trkpt><trkpt lat="43.017520672316515" lon="12.080635100487218"><ele>624.0</ele><time>2026-04-19T09:59:29Z</time></trkpt><trkpt lat="43.01747265174257" lon="12.080540994699238"><ele>624.0</ele><time>2026-04-19T09:59:30Z</time></trkpt><trkpt lat="43.01742909040449" lon="12.080455626941502"><ele>621.4</ele><time>2026-04-19T09:59:31Z</time></trkpt><trkpt lat="43.01737101319983" lon="12.080368024563917"><ele>618.8</ele><time>2026-04-19T09:59:32Z</time></trkpt><trkpt lat="43.01729471929911" lon="12.080281749483444"><ele>616.2</ele><time>2026-04-19T09:59:33Z</time></trkpt><trkpt lat="43.01718763548121" lon="12.080240378053478"><ele>613.6</ele><time>2026-04-19T09:59:34Z</time></trkpt><trkpt lat="43.01709340031673" lon="12.080193216231944"><ele>611.0</ele><time>2026-04-19T09:59:35Z</time></trkpt><trkpt lat="43.017013099912866" lon="12.080145728196271"><ele>611.0</ele><time>2026-04-19T09:59:36Z</time></trkpt><trkpt lat="43.01693594238387" lon="12.080081017202344"><ele>611.0</ele><time>2026-04-19T09:59:37Z</time></trkpt><trkpt lat="43.01685109511064" lon="12.079994219163321"><ele>611.0</ele><time>2026-04-19T09:59:38Z</time></trkpt><trkpt lat="43.016753699429906" lon="12.079891165222424"><ele>611.0</ele><time>2026-04-19T09:59:39Z</time></trkpt><trkpt lat="43.01664525006953" lon="12.07977278809324"><ele>610.25</ele><time>2026-04-19T09:59:40Z</time></trkpt><trkpt lat="43.01654060743893" lon="12.079656476831714"><ele>609.5</ele><time>2026-04-19T09:59:41Z</time></trkpt><trkpt lat="43.01642538583328" lon="12.079529219135065"><ele>608.75</ele><time>2026-04-19T09:59:42Z</time></trkpt><trkpt lat="43.016317610840694" lon="12.079418071032677"><ele>608.0</ele><time>2026-04-19T09:59:43Z</time></trkpt><trkpt lat="43.01620684944195" lon="12.079332125538095"><ele>608.0</ele><time>2026-04-19T09:59:44Z</time></trkpt><trkpt lat="43.016116171676295" lon="12.079206932640753"><ele>608.0</ele><time>2026-04-19T09:59:45Z</time></trkpt><trkpt lat="43.01601794618795" lon="12.079067816354728"><ele>608.0</ele><time>2026-04-19T09:59:46Z</time></trkpt><trkpt lat="43.015915686653486" lon="12.078914754977415"><ele>608.0</ele><time>2026-04-19T09:59:47Z</time></trkpt><trkpt lat="43.015819426953094" lon="12.07876686837212"><ele>607.0</ele><time>2026-04-19T09:59:48Z</time></trkpt><trkpt lat="43.01572769610448" lon="12.078630010523138"><ele>606.0</ele><time>2026-04-19T09:59:49Z</time></trkpt><trkpt lat="43.01563396596842" lon="12.078506685653139"><ele>605.0</ele><time>2026-04-19T09:59:50Z</time></trkpt><trkpt lat="43.01554895847331" lon="12.078399133018351"><ele>604.0</ele><time>2026-04-19T09:59:51Z</time></trkpt><trkpt lat="43.015476338412164" lon="12.078299279689649"><ele>605.8</ele><time>2026-04-19T09:59:52Z</time></trkpt><trkpt lat="43.01541683442326" lon="12.078183963674693"><ele>607.5999999999999</ele><time>2026-04-19T09:59:53Z</time></trkpt><trkpt lat="43.0153408072422" lon="12.07803643603624"><ele>609.4</ele><time>2026-04-19T09:59:54Z</time></trkpt><trkpt lat="43.01527066116142" lon="12.077930862856551"><ele>611.1999999999999</ele><time>2026-04-19T09:59:55Z</time></trkpt><trkpt lat="43.01519864597489" lon="12.077848161221532"><ele>613.0</ele><time>2026-04-19T09:59:56Z</time></trkpt><trkpt lat="43.015123796264355" lon="12.077779136097464"><ele>613.0</ele><time>2026-04-19T09:59:57Z</time></trkpt><trkpt lat="43.01503013024609" lon="12.077701986219905"><ele>613.0</ele><time>2026-04-19T09:59:58Z</time></trkpt><trkpt lat="43.01494460365506" lon="12.077670020890888"><ele>613.0</ele><time>2026-04-19T09:59:59Z</time></trkpt><trkpt lat="43.01486635441896" lon="12.077630975819268"><ele>613.0</ele><time>2026-04-19T10:00:00Z</time></trkpt><trkpt lat="43.014806438558715" lon="12.077577741214549"><ele>613.0</ele><time>2026-04-19T10:00:01Z</time></trkpt><trkpt lat="43.01475447684933" lon="12.077517281943905"><ele>613.0</ele><time>2026-04-19T10:00:02Z</time></trkpt><trkpt lat="43.01470008074903" lon="12.077367500101287"><ele>613.1666666666667</ele><time>2026-04-19T10:00:04Z</time></trkpt><trkpt lat="43.014689383184866" lon="12.077277855847003"><ele>613.3333333333334</ele><time>2026-04-19T10:00:05Z</time></trkpt><trkpt lat="43.014687078285014" lon="12.077155742316316"><ele>613.5</ele><time>2026-04-19T10:00:06Z</time></trkpt><trkpt lat="43.01466340394444" lon="12.077008719247551"><ele>613.6666666666666</ele><time>2026-04-19T10:00:07Z</time></trkpt><trkpt lat="43.01462279356938" lon="12.076896000984394"><ele>613.8333333333333</ele><time>2026-04-19T10:00:08Z</time></trkpt><trkpt lat="43.01455707590182" lon="12.07683828643329"><ele>614.0</ele><time>2026-04-19T10:00:09Z</time></trkpt><trkpt lat="43.01449516747508" lon="12.076776203192791"><ele>614.0</ele><time>2026-04-19T10:00:10Z</time></trkpt><trkpt lat="43.014430394381726" lon="12.076710853217795"><ele>614.0</ele><time>2026-04-19T10:00:11Z</time></trkpt><trkpt lat="43.01437886628941" lon="12.076658866855437"><ele>614.0</ele><time>2026-04-19T10:00:12Z</time></trkpt><trkpt lat="43.01432474122314" lon="12.076570328967591"><ele>614.0</ele><time>2026-04-19T10:00:14Z</time></trkpt><trkpt lat="43.014287753143556" lon="12.076469962127105"><ele>614.0</ele><time>2026-04-19T10:00:16Z</time></trkpt><trkpt lat="43.01426814641943" lon="12.076348354383603"><ele>614.0</ele><time>2026-04-19T10:00:18Z</time></trkpt><trkpt lat="43.01428360097921" lon="12.076247018056765"><ele>612.6666666666666</ele><time>2026-04-19T10:00:20Z</time></trkpt><trkpt lat="43.014315924646" lon="12.076163624367313"><ele>611.3333333333333</ele><time>2026-04-19T10:00:22Z</time></trkpt><trkpt lat="43.01436107429704" lon="12.07606007352214"><ele>610.0</ele><time>2026-04-19T10:00:25Z</time></trkpt><trkpt lat="43.01439458897531" lon="12.075984670569854"><ele>608.6666666666666</ele><time>2026-04-19T10:00:27Z</time></trkpt><trkpt lat="43.01446749190152" lon="12.075876365673338"><ele>607.3333333333334</ele><time>2026-04-19T10:00:29Z</time></trkpt><trkpt lat="43.01452910492833" lon="12.075796676260966"><ele>606.0</ele><time>2026-04-19T10:00:30Z</time></trkpt><trkpt lat="43.014573144318845" lon="12.075721867314908"><ele>603.6</ele><time>2026-04-19T10:00:31Z</time></trkpt><trkpt lat="43.014610904388235" lon="12.075603248050305"><ele>601.2</ele><time>2026-04-19T10:00:33Z</time></trkpt><trkpt lat="43.01460734502328" lon="12.075429478383157"><ele>598.8</ele><time>2026-04-19T10:00:35Z</time></trkpt><trkpt lat="43.01457375441594" lon="12.075305257335788"><ele>596.4</ele><time>2026-04-19T10:00:36Z</time></trkpt><trkpt lat="43.01452033859932" lon="12.075209390538705"><ele>594.0</ele><time>2026-04-19T10:00:37Z</time></trkpt><trkpt lat="43.01447846713521" lon="12.075139155987005"><ele>594.0</ele><time>2026-04-19T10:00:38Z</time></trkpt><trkpt lat="43.01443646988498" lon="12.075068608719242"><ele>594.0</ele><time>2026-04-19T10:00:39Z</time></trkpt><trkpt lat="43.014380212217965" lon="12.074980251428157"><ele>594.0</ele><time>2026-04-19T10:00:40Z</time></trkpt><trkpt lat="43.014314865675686" lon="12.074888270671707"><ele>594.0</ele><time>2026-04-19T10:00:41Z</time></trkpt><trkpt lat="43.0142655483891" lon="12.074804925789033"><ele>594.0</ele><time>2026-04-19T10:00:42Z</time></trkpt><trkpt lat="43.01421618909838" lon="12.074680891471843"><ele>594.0</ele><time>2026-04-19T10:00:43Z</time></trkpt><trkpt lat="43.014183344543845" lon="12.074563015975576"><ele>593.5</ele><time>2026-04-19T10:00:44Z</time></trkpt><trkpt lat="43.014152303313814" lon="12.07442422605265"><ele>593.0</ele><time>2026-04-19T10:00:45Z</time></trkpt><trkpt lat="43.01413497382774" lon="12.074272406229772"><ele>592.5</ele><time>2026-04-19T10:00:46Z</time></trkpt><trkpt lat="43.014106522401235" lon="12.07410410793182"><ele>592.0</ele><time>2026-04-19T10:00:47Z</time></trkpt><trkpt lat="43.01405371463288" lon="12.073955825930618"><ele>592.0</ele><time>2026-04-19T10:00:48Z</time></trkpt><trkpt lat="43.013974459244245" lon="12.073821014495767"><ele>592.0</ele><time>2026-04-19T10:00:49Z</time></trkpt><trkpt lat="43.013871200466745" lon="12.073666939802772"><ele>592.0</ele><time>2026-04-19T10:00:50Z</time></trkpt><trkpt lat="43.01377617860127" lon="12.073507850467156"><ele>592.0</ele><time>2026-04-19T10:00:51Z</time></trkpt><trkpt lat="43.01369366552663" lon="12.073365282277383"><ele>593.5</ele><time>2026-04-19T10:00:52Z</time></trkpt><trkpt lat="43.01361495299469" lon="12.073212416672543"><ele>595.0</ele><time>2026-04-19T10:00:53Z</time></trkpt><trkpt lat="43.01353604776635" lon="12.073044907560433"><ele>596.5</ele><time>2026-04-19T10:00:54Z</time></trkpt><trkpt lat="43.013473868642585" lon="12.072882855638568"><ele>598.0</ele><time>2026-04-19T10:00:55Z</time></trkpt><trkpt lat="43.013424608807554" lon="12.072736969404726"><ele>598.0</ele><time>2026-04-19T10:00:56Z</time></trkpt><trkpt lat="43.01338160051536" lon="12.07260783040144"><ele>598.0</ele><time>2026-04-19T10:00:57Z</time></trkpt><trkpt lat="43.01333921761817" lon="12.072491115231575"><ele>598.0</ele><time>2026-04-19T10:00:58Z</time></trkpt><trkpt lat="43.01329824993111" lon="12.072384958775983"><ele>598.0</ele><time>2026-04-19T10:00:59Z</time></trkpt><trkpt lat="43.01325584551808" lon="12.072276229666562"><ele>598.0</ele><time>2026-04-19T10:01:00Z</time></trkpt><trkpt lat="43.01321709723082" lon="12.072176805320646"><ele>597.5</ele><time>2026-04-19T10:01:01Z</time></trkpt><trkpt lat="43.013183603648194" lon="12.072088704299883"><ele>597.0</ele><time>2026-04-19T10:01:02Z</time></trkpt><trkpt lat="43.01315081717129" lon="12.072002463252526"><ele>596.5</ele><time>2026-04-19T10:01:03Z</time></trkpt><trkpt lat="43.01311787551126" lon="12.071918371851488"><ele>596.0</ele><time>2026-04-19T10:01:04Z</time></trkpt><trkpt lat="43.01306744965348" lon="12.071810113685437"><ele>595.5</ele><time>2026-04-19T10:01:05Z</time></trkpt><trkpt lat="43.0130178221567" lon="12.071723115880665"><ele>595.0</ele><time>2026-04-19T10:01:06Z</time></trkpt><trkpt lat="43.0129583978164" lon="12.07163734620011"><ele>593.1666666666667</ele><time>2026-04-19T10:01:07Z</time></trkpt><trkpt lat="43.012905666373584" lon="12.071554904230823"><ele>591.3333333333334</ele><time>2026-04-19T10:01:08Z</time></trkpt><trkpt lat="43.012858572556716" lon="12.071481122538124"><ele>589.5</ele><time>2026-04-19T10:01:09Z</time></trkpt><trkpt lat="43.01281456413894" lon="12.071404961279933"><ele>587.6666666666666</ele><time>2026-04-19T10:01:10Z</time></trkpt><trkpt lat="43.012769848971075" lon="12.071300590248391"><ele>585.8333333333333</ele><time>2026-04-19T10:01:11Z</time></trkpt><trkpt lat="43.01273810536868" lon="12.071154536824814"><ele>584.0</ele><time>2026-04-19T10:01:12Z</time></trkpt><trkpt lat="43.012705489489136" lon="12.071007376174183"><ele>584.0</ele><time>2026-04-19T10:01:13Z</time></trkpt><trkpt lat="43.01267446024508" lon="12.070853344580375"><ele>584.0</ele><time>2026-04-19T10:01:14Z</time></trkpt><trkpt lat="43.01264435061394" lon="12.07071785080772"><ele>584.0</ele><time>2026-04-19T10:01:15Z</time></trkpt><trkpt lat="43.012603763231716" lon="12.070597243243729"><ele>584.0</ele><time>2026-04-19T10:01:16Z</time></trkpt><trkpt lat="43.01257282778757" lon="12.070480500479825"><ele>584.0</ele><time>2026-04-19T10:01:17Z</time></trkpt><trkpt lat="43.012547524217496" lon="12.070383006692174"><ele>583.8</ele><time>2026-04-19T10:01:18Z</time></trkpt><trkpt lat="43.01252758227202" lon="12.070264206423028"><ele>583.5999999999999</ele><time>2026-04-19T10:01:19Z</time></trkpt><trkpt lat="43.012508598560125" lon="12.07012487202545"><ele>583.4</ele><time>2026-04-19T10:01:20Z</time></trkpt><trkpt lat="43.012483488550004" lon="12.070014381922167"><ele>583.1999999999999</ele><time>2026-04-19T10:01:21Z</time></trkpt><trkpt lat="43.012434053168015" lon="12.069917238391687"><ele>583.0</ele><time>2026-04-19T10:01:22Z</time></trkpt><trkpt lat="43.0123276297427" lon="12.069838955946945"><ele>581.25</ele><time>2026-04-19T10:01:23Z</time></trkpt><trkpt lat="43.012222243467264" lon="12.069750072732045"><ele>579.5</ele><time>2026-04-19T10:01:24Z</time></trkpt><trkpt lat="43.012139962021735" lon="12.069649683643345"><ele>577.75</ele><time>2026-04-19T10:01:25Z</time></trkpt><trkpt lat="43.012080849207116" lon="12.069517570637922"><ele>576.0</ele><time>2026-04-19T10:01:26Z</time></trkpt><trkpt lat="43.01199541548738" lon="12.06939287592241"><ele>576.0</ele><time>2026-04-19T10:01:27Z</time></trkpt><trkpt lat="43.01187989426834" lon="12.069274987831388"><ele>576.0</ele><time>2026-04-19T10:01:28Z</time></trkpt><trkpt lat="43.01175136728533" lon="12.069098127019242"><ele>576.0</ele><time>2026-04-19T10:01:29Z</time></trkpt><trkpt lat="43.01160812495518" lon="12.06893276611917"><ele>575.25</ele><time>2026-04-19T10:01:30Z</time></trkpt><trkpt lat="43.01149458630268" lon="12.068795205323683"><ele>574.5</ele><time>2026-04-19T10:01:31Z</time></trkpt><trkpt lat="43.01140444404771" lon="12.068698804044699"><ele>573.75</ele><time>2026-04-19T10:01:32Z</time></trkpt><trkpt lat="43.0113205193849" lon="12.068618998745459"><ele>573.0</ele><time>2026-04-19T10:01:33Z</time></trkpt><trkpt lat="43.01124154109744" lon="12.068545588950752"><ele>573.0</ele><time>2026-04-19T10:01:34Z</time></trkpt><trkpt lat="43.011164491938565" lon="12.068471679759238"><ele>573.0</ele><time>2026-04-19T10:01:35Z</time></trkpt><trkpt lat="43.01109949254624" lon="12.06840913462265"><ele>573.0</ele><time>2026-04-19T10:01:36Z</time></trkpt><trkpt lat="43.01104160303865" lon="12.068352831561345"><ele>573.0</ele><time>2026-04-19T10:01:37Z</time></trkpt><trkpt lat="43.010952620385154" lon="12.068249911504758"><ele>573.0</ele><time>2026-04-19T10:01:39Z</time></trkpt><trkpt lat="43.01091220736176" lon="12.068180190942657"><ele>573.0</ele><time>2026-04-19T10:01:40Z</time></trkpt><trkpt lat="43.01087384340256" lon="12.068097891343234"><ele>571.1666666666666</ele><time>2026-04-19T10:01:41Z</time></trkpt><trkpt lat="43.01083236805901" lon="12.06803124332409"><ele>569.3333333333334</ele><time>2026-04-19T10:01:42Z</time></trkpt><trkpt lat="43.0107913148014" lon="12.067965273051128"><ele>567.5</ele><time>2026-04-19T10:01:43Z</time></trkpt><trkpt lat="43.01074417238795" lon="12.067896281748778"><ele>565.6666666666667</ele><time>2026-04-19T10:01:44Z</time></trkpt><trkpt lat="43.01069892042133" lon="12.06783457986489"><ele>563.8333333333334</ele><time>2026-04-19T10:01:45Z</time></trkpt><trkpt lat="43.010636728291026" lon="12.067782028519165"><ele>562.0</ele><time>2026-04-19T10:01:46Z</time></trkpt><trkpt lat="43.010526722884926" lon="12.067716245717097"><ele>561.1666666666667</ele><time>2026-04-19T10:01:48Z</time></trkpt><trkpt lat="43.01046698882773" lon="12.067647897907973"><ele>560.3333333333334</ele><time>2026-04-19T10:01:50Z</time></trkpt><trkpt lat="43.01038576788485" lon="12.067534063576963"><ele>559.5</ele><time>2026-04-19T10:01:52Z</time></trkpt><trkpt lat="43.01033190007876" lon="12.067455888043684"><ele>558.6666666666666</ele><time>2026-04-19T10:01:53Z</time></trkpt><trkpt lat="43.01027768929568" lon="12.06737359961649"><ele>557.8333333333333</ele><time>2026-04-19T10:01:54Z</time></trkpt><trkpt lat="43.01022288456704" lon="12.067306523133913"><ele>557.0</ele><time>2026-04-19T10:01:55Z</time></trkpt><trkpt lat="43.01016810982379" lon="12.067207591649156"><ele>556.0</ele><time>2026-04-19T10:01:56Z</time></trkpt><trkpt lat="43.01007168282209" lon="12.06712353337295"><ele>555.0</ele><time>2026-04-19T10:01:57Z</time></trkpt><trkpt lat="43.00998448999098" lon="12.067076641849313"><ele>554.0</ele><time>2026-04-19T10:01:58Z</time></trkpt><trkpt lat="43.009920387644456" lon="12.067035952398811"><ele>553.0</ele><time>2026-04-19T10:01:59Z</time></trkpt><trkpt lat="43.00982766654473" lon="12.066977097297261"><ele>552.0</ele><time>2026-04-19T10:02:00Z</time></trkpt><trkpt lat="43.00974881319456" lon="12.0669231792116"><ele>552.0</ele><time>2026-04-19T10:02:01Z</time></trkpt><trkpt lat="43.00968199327396" lon="12.066871562329897"><ele>552.0</ele><time>2026-04-19T10:02:02Z</time></trkpt><trkpt lat="43.009621251834524" lon="12.066821976060977"><ele>552.0</ele><time>2026-04-19T10:02:03Z</time></trkpt><trkpt lat="43.0095658684124" lon="12.066773307204786"><ele>552.0</ele><time>2026-04-19T10:02:04Z</time></trkpt><trkpt lat="43.00951500054742" lon="12.066719434819014"><ele>552.0</ele><time>2026-04-19T10:02:05Z</time></trkpt><trkpt lat="43.00946386635337" lon="12.066644469127333"><ele>552.0</ele><time>2026-04-19T10:02:06Z</time></trkpt><trkpt lat="43.009418870286645" lon="12.06655934306796"><ele>552.0</ele><time>2026-04-19T10:02:07Z</time></trkpt><trkpt lat="43.009378796929965" lon="12.066464104161916"><ele>550.4</ele><time>2026-04-19T10:02:08Z</time></trkpt><trkpt lat="43.00935641272345" lon="12.066368853774788"><ele>548.8000000000001</ele><time>2026-04-19T10:02:09Z</time></trkpt><trkpt lat="43.00934404826067" lon="12.06622650372973"><ele>547.2</ele><time>2026-04-19T10:02:11Z</time></trkpt><trkpt lat="43.00925849364031" lon="12.066074300784008"><ele>545.6</ele><time>2026-04-19T10:02:13Z</time></trkpt><trkpt lat="43.009189996912525" lon="12.0659490174681"><ele>544.0</ele><time>2026-04-19T10:02:15Z</time></trkpt><trkpt lat="43.009145769472106" lon="12.06588197820691"><ele>544.8333333333334</ele><time>2026-04-19T10:02:16Z</time></trkpt><trkpt lat="43.00910854021897" lon="12.065800459473103"><ele>545.6666666666667</ele><time>2026-04-19T10:02:17Z</time></trkpt><trkpt lat="43.009055960189144" lon="12.065745591771687"><ele>546.5</ele><time>2026-04-19T10:02:18Z</time></trkpt><trkpt lat="43.0089823026567" lon="12.065685403088558"><ele>547.3333333333334</ele><time>2026-04-19T10:02:19Z</time></trkpt><trkpt lat="43.00889389456002" lon="12.065632347474931"><ele>548.1666666666666</ele><time>2026-04-19T10:02:20Z</time></trkpt><trkpt lat="43.008806790066025" lon="12.06557743565652"><ele>549.0</ele><time>2026-04-19T10:02:21Z</time></trkpt><trkpt lat="43.008734977777586" lon="12.065526827946146"><ele>549.0</ele><time>2026-04-19T10:02:22Z</time></trkpt><trkpt lat="43.0086598571832" lon="12.065471971694596"><ele>549.0</ele><time>2026-04-19T10:02:23Z</time></trkpt><trkpt lat="43.00857759023813" lon="12.06540315835374"><ele>549.0</ele><time>2026-04-19T10:02:24Z</time></trkpt><trkpt lat="43.008512682662904" lon="12.065323469417827"><ele>549.0</ele><time>2026-04-19T10:02:25Z</time></trkpt><trkpt lat="43.00846783048194" lon="12.065247045235871"><ele>549.0</ele><time>2026-04-19T10:02:26Z</time></trkpt><trkpt lat="43.00843099007224" lon="12.065159013687545"><ele>549.0</ele><time>2026-04-19T10:02:27Z</time></trkpt><trkpt lat="43.00839583179384" lon="12.065069725913304"><ele>549.0</ele><time>2026-04-19T10:02:28Z</time></trkpt><trkpt lat="43.00837494737605" lon="12.064971539866276"><ele>549.0</ele><time>2026-04-19T10:02:29Z</time></trkpt><trkpt lat="43.00840275130076" lon="12.06485455428968"><ele>549.0</ele><time>2026-04-19T10:02:30Z</time></trkpt><trkpt lat="43.00839292210756" lon="12.064641207874457"><ele>549.0</ele><time>2026-04-19T10:02:32Z</time></trkpt><trkpt lat="43.00835393724532" lon="12.064558462375526"><ele>549.0</ele><time>2026-04-19T10:02:33Z</time></trkpt><trkpt lat="43.00827434442157" lon="12.064501707034502"><ele>550.8</ele><time>2026-04-19T10:02:34Z</time></trkpt><trkpt lat="43.008206472124144" lon="12.064422271638366"><ele>552.5999999999999</ele><time>2026-04-19T10:02:35Z</time></trkpt><trkpt lat="43.0081195681151" lon="12.0643586065096"><ele>554.4</ele><time>2026-04-19T10:02:36Z</time></trkpt><trkpt lat="43.008022462598475" lon="12.064291430345017"><ele>556.1999999999999</ele><time>2026-04-19T10:02:37Z</time></trkpt><trkpt lat="43.00795362906577" lon="12.064204883875151"><ele>558.0</ele><time>2026-04-19T10:02:38Z</time></trkpt><trkpt lat="43.00789267812745" lon="12.06412040882179"><ele>554.5</ele><time>2026-04-19T10:02:39Z</time></trkpt><trkpt lat="43.00781962384383" lon="12.064013155917479"><ele>551.0</ele><time>2026-04-19T10:02:40Z</time></trkpt><trkpt lat="43.00774330131136" lon="12.063889263549397"><ele>547.5</ele><time>2026-04-19T10:02:41Z</time></trkpt><trkpt lat="43.00766878638161" lon="12.063746906072552"><ele>544.0</ele><time>2026-04-19T10:02:42Z</time></trkpt><trkpt lat="43.00759888155848" lon="12.063590102928107"><ele>544.0</ele><time>2026-04-19T10:02:43Z</time></trkpt><trkpt lat="43.007541658254134" lon="12.063441784577508"><ele>544.0</ele><time>2026-04-19T10:02:44Z</time></trkpt><trkpt lat="43.007499630794996" lon="12.063304446932266"><ele>544.0</ele><time>2026-04-19T10:02:45Z</time></trkpt><trkpt lat="43.00746390680067" lon="12.063173886350478"><ele>544.0</ele><time>2026-04-19T10:02:46Z</time></trkpt><trkpt lat="43.00743231956051" lon="12.063053036352837"><ele>544.0</ele><time>2026-04-19T10:02:47Z</time></trkpt><trkpt lat="43.00739568890364" lon="12.062929868171736"><ele>544.2</ele><time>2026-04-19T10:02:48Z</time></trkpt><trkpt lat="43.00734055225936" lon="12.062797822779064"><ele>544.4</ele><time>2026-04-19T10:02:49Z</time></trkpt><trkpt lat="43.007274515160056" lon="12.062657947940837"><ele>544.6</ele><time>2026-04-19T10:02:50Z</time></trkpt><trkpt lat="43.007208748771426" lon="12.062543460822114"><ele>544.8</ele><time>2026-04-19T10:02:51Z</time></trkpt><trkpt lat="43.00714259940177" lon="12.062445977390976"><ele>545.0</ele><time>2026-04-19T10:02:52Z</time></trkpt><trkpt lat="43.00708947135131" lon="12.062373113431368"><ele>545.1666666666666</ele><time>2026-04-19T10:02:53Z</time></trkpt><trkpt lat="43.00703900341434" lon="12.062307753747207"><ele>545.3333333333333</ele><time>2026-04-19T10:02:54Z</time></trkpt><trkpt lat="43.00692423510203" lon="12.062269252840748"><ele>545.5</ele><time>2026-04-19T10:02:56Z</time></trkpt><trkpt lat="43.006828149694265" lon="12.06229302469698"><ele>545.6666666666666</ele><time>2026-04-19T10:02:58Z</time></trkpt><trkpt lat="43.006774238176604" lon="12.06234202660607"><ele>545.8333333333334</ele><time>2026-04-19T10:02:59Z</time></trkpt><trkpt lat="43.00670854642018" lon="12.062422034131233"><ele>546.0</ele><time>2026-04-19T10:03:00Z</time></trkpt><trkpt lat="43.00663759152461" lon="12.062511523756898"><ele>546.0</ele><time>2026-04-19T10:03:01Z</time></trkpt><trkpt lat="43.006561345647036" lon="12.062598895160923"><ele>546.0</ele><time>2026-04-19T10:03:02Z</time></trkpt><trkpt lat="43.006466630388545" lon="12.062674567019577"><ele>546.0</ele><time>2026-04-19T10:03:03Z</time></trkpt><trkpt lat="43.006367102640226" lon="12.06272617468564"><ele>546.0</ele><time>2026-04-19T10:03:04Z</time></trkpt><trkpt lat="43.00626144583444" lon="12.062736965514466"><ele>546.0</ele><time>2026-04-19T10:03:05Z</time></trkpt><trkpt lat="43.00616621679365" lon="12.062712567508232"><ele>546.0</ele><time>2026-04-19T10:03:06Z</time></trkpt><trkpt lat="43.00608581854028" lon="12.06274042595659"><ele>546.0</ele><time>2026-04-19T10:03:07Z</time></trkpt><trkpt lat="43.00602144633744" lon="12.062730218821834"><ele>546.0</ele><time>2026-04-19T10:03:08Z</time></trkpt><trkpt lat="43.005968802981315" lon="12.062869146437716"><ele>546.0</ele><time>2026-04-19T10:03:10Z</time></trkpt><trkpt lat="43.00596052339944" lon="12.06296518339129"><ele>546.0</ele><time>2026-04-19T10:03:11Z</time></trkpt><trkpt lat="43.00597445939211" lon="12.063055676734628"><ele>546.0</ele><time>2026-04-19T10:03:12Z</time></trkpt><trkpt lat="43.00601338610175" lon="12.063166425879478"><ele>547.8</ele><time>2026-04-19T10:03:13Z</time></trkpt><trkpt lat="43.00607424284788" lon="12.063292652014878"><ele>549.6</ele><time>2026-04-19T10:03:14Z</time></trkpt><trkpt lat="43.00614282387529" lon="12.063407102974182"><ele>551.4</ele><time>2026-04-19T10:03:15Z</time></trkpt><trkpt lat="43.006193477716174" lon="12.063478664378493"><ele>553.2</ele><time>2026-04-19T10:03:16Z</time></trkpt><trkpt lat="43.00620637062714" lon="12.063649350858825"><ele>555.0</ele><time>2026-04-19T10:03:18Z</time></trkpt><trkpt lat="43.006159927012504" lon="12.06375607792833"><ele>555.0</ele><time>2026-04-19T10:03:19Z</time></trkpt><trkpt lat="43.00609067093206" lon="12.063863555708618"><ele>555.0</ele><time>2026-04-19T10:03:20Z</time></trkpt><trkpt lat="43.006004264737896" lon="12.064011168345385"><ele>555.0</ele><time>2026-04-19T10:03:21Z</time></trkpt><trkpt lat="43.00592672480697" lon="12.064158643560345"><ele>555.0</ele><time>2026-04-19T10:03:22Z</time></trkpt><trkpt lat="43.00587461111591" lon="12.064263943174478"><ele>557.0</ele><time>2026-04-19T10:03:23Z</time></trkpt><trkpt lat="43.00584637181135" lon="12.06434716455118"><ele>559.0</ele><time>2026-04-19T10:03:24Z</time></trkpt><trkpt lat="43.00579908191403" lon="12.064436779443048"><ele>561.0</ele><time>2026-04-19T10:03:25Z</time></trkpt><trkpt lat="43.00572451090724" lon="12.064492734549136"><ele>563.0</ele><time>2026-04-19T10:03:26Z</time></trkpt><trkpt lat="43.00563428511354" lon="12.06457957545641"><ele>565.0</ele><time>2026-04-19T10:03:27Z</time></trkpt><trkpt lat="43.005523750740394" lon="12.06466901358792"><ele>565.0</ele><time>2026-04-19T10:03:28Z</time></trkpt><trkpt lat="43.00540440762626" lon="12.064759850562846"><ele>565.0</ele><time>2026-04-19T10:03:29Z</time></trkpt><trkpt lat="43.00527928741009" lon="12.064867243873588"><ele>565.0</ele><time>2026-04-19T10:03:30Z</time></trkpt><trkpt lat="43.00514914608601" lon="12.064909436278308"><ele>565.0</ele><time>2026-04-19T10:03:31Z</time></trkpt><trkpt lat="43.00501166912173" lon="12.064968367300217"><ele>570.6666666666667</ele><time>2026-04-19T10:03:32Z</time></trkpt><trkpt lat="43.004845336308996" lon="12.065032591588217"><ele>576.3333333333334</ele><time>2026-04-19T10:03:33Z</time></trkpt><trkpt lat="43.0046674220129" lon="12.06509926745564"><ele>582.0</ele><time>2026-04-19T10:03:34Z</time></trkpt><trkpt lat="43.00453025608354" lon="12.065149232398213"><ele>582.0</ele><time>2026-04-19T10:03:35Z</time></trkpt><trkpt lat="43.004421838150904" lon="12.065188842714976"><ele>582.0</ele><time>2026-04-19T10:03:36Z</time></trkpt><trkpt lat="43.00431283435832" lon="12.065231479833571"><ele>582.0</ele><time>2026-04-19T10:03:37Z</time></trkpt><trkpt lat="43.00419079873072" lon="12.065284335888752"><ele>582.0</ele><time>2026-04-19T10:03:38Z</time></trkpt><trkpt lat="43.00406704576989" lon="12.065335360198697"><ele>581.5</ele><time>2026-04-19T10:03:39Z</time></trkpt><trkpt lat="43.003941159902375" lon="12.065370600154763"><ele>581.0</ele><time>2026-04-19T10:03:40Z</time></trkpt><trkpt lat="43.003809368407175" lon="12.065393885900885"><ele>580.5</ele><time>2026-04-19T10:03:41Z</time></trkpt><trkpt lat="43.0036652052583" lon="12.065415692056739"><ele>580.0</ele><time>2026-04-19T10:03:42Z</time></trkpt><trkpt lat="43.003514408687195" lon="12.065458780458806"><ele>580.0</ele><time>2026-04-19T10:03:43Z</time></trkpt><trkpt lat="43.00334010803522" lon="12.065471363685173"><ele>580.0</ele><time>2026-04-19T10:03:44Z</time></trkpt><trkpt lat="43.00317401403009" lon="12.065485753845092"><ele>580.0</ele><time>2026-04-19T10:03:45Z</time></trkpt><trkpt lat="43.00303504261129" lon="12.065511015677515"><ele>579.5</ele><time>2026-04-19T10:03:46Z</time></trkpt><trkpt lat="43.002908572887634" lon="12.065531577017001"><ele>579.0</ele><time>2026-04-19T10:03:47Z</time></trkpt><trkpt lat="43.00277955198649" lon="12.065558605677625"><ele>578.5</ele><time>2026-04-19T10:03:48Z</time></trkpt><trkpt lat="43.00264023314529" lon="12.065537721754808"><ele>578.0</ele><time>2026-04-19T10:03:49Z</time></trkpt><trkpt lat="43.00250300002367" lon="12.065531829052686"><ele>580.75</ele><time>2026-04-19T10:03:50Z</time></trkpt><trkpt lat="43.00235584870414" lon="12.065528962983555"><ele>583.5</ele><time>2026-04-19T10:03:51Z</time></trkpt><trkpt lat="43.00221938770347" lon="12.065497365797993"><ele>586.25</ele><time>2026-04-19T10:03:52Z</time></trkpt><trkpt lat="43.00209585346759" lon="12.065487631400917"><ele>589.0</ele><time>2026-04-19T10:03:53Z</time></trkpt><trkpt lat="43.00197907915763" lon="12.065499485324388"><ele>589.0</ele><time>2026-04-19T10:03:54Z</time></trkpt><trkpt lat="43.00185688885175" lon="12.065504929247963"><ele>589.0</ele><time>2026-04-19T10:03:55Z</time></trkpt><trkpt lat="43.00173108883055" lon="12.065546340997399"><ele>589.0</ele><time>2026-04-19T10:03:56Z</time></trkpt><trkpt lat="43.00159656107415" lon="12.065626773301105"><ele>589.0</ele><time>2026-04-19T10:03:57Z</time></trkpt><trkpt lat="43.001452276218224" lon="12.065734736000127"><ele>592.8</ele><time>2026-04-19T10:03:58Z</time></trkpt><trkpt lat="43.00132356195925" lon="12.065842825174975"><ele>596.5999999999999</ele><time>2026-04-19T10:03:59Z</time></trkpt><trkpt lat="43.00123035538813" lon="12.06591934248473"><ele>600.4</ele><time>2026-04-19T10:04:00Z</time></trkpt><trkpt lat="43.00116673510635" lon="12.06596046910265"><ele>604.1999999999999</ele><time>2026-04-19T10:04:01Z</time></trkpt><trkpt lat="43.00110154714889" lon="12.065958124837906"><ele>608.0</ele><time>2026-04-19T10:04:02Z</time></trkpt><trkpt lat="43.00103441225656" lon="12.065962300218407"><ele>608.0</ele><time>2026-04-19T10:04:03Z</time></trkpt><trkpt lat="43.00094539028789" lon="12.065937561210562"><ele>608.0</ele><time>2026-04-19T10:04:04Z</time></trkpt><trkpt lat="43.000856877277926" lon="12.06587212038241"><ele>608.0</ele><time>2026-04-19T10:04:05Z</time></trkpt><trkpt lat="43.00079301897642" lon="12.065803268807477"><ele>608.0</ele><time>2026-04-19T10:04:06Z</time></trkpt><trkpt lat="43.00072907522235" lon="12.0657582539726"><ele>608.0</ele><time>2026-04-19T10:04:08Z</time></trkpt><trkpt lat="43.00065105646225" lon="12.065768004288959"><ele>608.0</ele><time>2026-04-19T10:04:10Z</time></trkpt><trkpt lat="43.00057808145868" lon="12.065742628599613"><ele>605.0</ele><time>2026-04-19T10:04:11Z</time></trkpt><trkpt lat="43.00048828647214" lon="12.06572187533337"><ele>602.0</ele><time>2026-04-19T10:04:12Z</time></trkpt><trkpt lat="43.000397523725766" lon="12.065667368996586"><ele>599.0</ele><time>2026-04-19T10:04:13Z</time></trkpt><trkpt lat="43.00031070450101" lon="12.065608586347583"><ele>596.0</ele><time>2026-04-19T10:04:14Z</time></trkpt><trkpt lat="43.000236009636005" lon="12.065556597144932"><ele>593.0</ele><time>2026-04-19T10:04:15Z</time></trkpt><trkpt lat="43.000162959797386" lon="12.065508588966624"><ele>593.0</ele><time>2026-04-19T10:04:16Z</time></trkpt><trkpt lat="43.000085587391986" lon="12.06545971956101"><ele>593.0</ele><time>2026-04-19T10:04:17Z</time></trkpt><trkpt lat="43.000009961849614" lon="12.065411861606416"><ele>593.0</ele><time>2026-04-19T10:04:18Z</time></trkpt><trkpt lat="42.99992581754615" lon="12.065358529937031"><ele>593.0</ele><time>2026-04-19T10:04:19Z</time></trkpt><trkpt lat="42.99984511471526" lon="12.065305370453279"><ele>593.0</ele><time>2026-04-19T10:04:20Z</time></trkpt><trkpt lat="42.99976651504994" lon="12.065253730648015"><ele>593.0</ele><time>2026-04-19T10:04:21Z</time></trkpt><trkpt lat="42.99969337787742" lon="12.0652135289504"><ele>593.0</ele><time>2026-04-19T10:04:22Z</time></trkpt><trkpt lat="42.99962187278908" lon="12.065180900061494"><ele>593.0</ele><time>2026-04-19T10:04:23Z</time></trkpt><trkpt lat="42.99955919502305" lon="12.065157087659435"><ele>593.0</ele><time>2026-04-19T10:04:24Z</time></trkpt><trkpt lat="42.99949284063658" lon="12.065167928457843"><ele>593.0</ele><time>2026-04-19T10:04:25Z</time></trkpt><trkpt lat="42.99943077176783" lon="12.065151529902243"><ele>593.0</ele><time>2026-04-19T10:04:26Z</time></trkpt><trkpt lat="42.99934690017122" lon="12.065198223710398"><ele>593.0</ele><time>2026-04-19T10:04:27Z</time></trkpt><trkpt lat="42.99924451228188" lon="12.065219595569955"><ele>590.4</ele><time>2026-04-19T10:04:28Z</time></trkpt><trkpt lat="42.99914758256215" lon="12.065268600790148"><ele>587.8</ele><time>2026-04-19T10:04:29Z</time></trkpt><trkpt lat="42.99906270214884" lon="12.06531356127218"><ele>585.2</ele><time>2026-04-19T10:04:30Z</time></trkpt><trkpt lat="42.99898965843526" lon="12.065356669473308"><ele>582.6</ele><time>2026-04-19T10:04:31Z</time></trkpt><trkpt lat="42.998910091639054" lon="12.065414610807862"><ele>580.0</ele><time>2026-04-19T10:04:32Z</time></trkpt><trkpt lat="42.99881788758023" lon="12.06544965472583"><ele>580.0</ele><time>2026-04-19T10:04:33Z</time></trkpt><trkpt lat="42.99872549332905" lon="12.065479954444058"><ele>580.0</ele><time>2026-04-19T10:04:34Z</time></trkpt><trkpt lat="42.99862354242225" lon="12.065502781074839"><ele>580.0</ele><time>2026-04-19T10:04:35Z</time></trkpt><trkpt lat="42.998518650919024" lon="12.065487660701885"><ele>580.0</ele><time>2026-04-19T10:04:36Z</time></trkpt><trkpt lat="42.99841493572084" lon="12.065465890060405"><ele>580.0</ele><time>2026-04-19T10:04:37Z</time></trkpt><trkpt lat="42.99828890164295" lon="12.065440003882822"><ele>576.5</ele><time>2026-04-19T10:04:38Z</time></trkpt><trkpt lat="42.99815120132465" lon="12.065404325516004"><ele>573.0</ele><time>2026-04-19T10:04:39Z</time></trkpt><trkpt lat="42.99801650521025" lon="12.065367928817992"><ele>569.5</ele><time>2026-04-19T10:04:40Z</time></trkpt><trkpt lat="42.997905462935854" lon="12.065334435772947"><ele>566.0</ele><time>2026-04-19T10:04:41Z</time></trkpt><trkpt lat="42.99780897915283" lon="12.065283330168883"><ele>566.0</ele><time>2026-04-19T10:04:42Z</time></trkpt><trkpt lat="42.99771042100349" lon="12.065264108338315"><ele>566.0</ele><time>2026-04-19T10:04:43Z</time></trkpt><trkpt lat="42.99761698405768" lon="12.065260513688072"><ele>566.0</ele><time>2026-04-19T10:04:44Z</time></trkpt><trkpt lat="42.99752645706247" lon="12.065268206176299"><ele>566.0</ele><time>2026-04-19T10:04:45Z</time></trkpt><trkpt lat="42.99742617463349" lon="12.065281003075144"><ele>566.0</ele><time>2026-04-19T10:04:46Z</time></trkpt><trkpt lat="42.99732612388783" lon="12.065290343067726"><ele>565.4</ele><time>2026-04-19T10:04:47Z</time></trkpt><trkpt lat="42.99723113075687" lon="12.06531623226838"><ele>564.8</ele><time>2026-04-19T10:04:48Z</time></trkpt><trkpt lat="42.99713810031965" lon="12.06531908632188"><ele>564.1999999999999</ele><time>2026-04-19T10:04:49Z</time></trkpt><trkpt lat="42.99704279838894" lon="12.065294751257618"><ele>563.6</ele><time>2026-04-19T10:04:50Z</time></trkpt><trkpt lat="42.99696006952667" lon="12.065286731437386"><ele>563.0</ele><time>2026-04-19T10:04:51Z</time></trkpt><trkpt lat="42.996882432249514" lon="12.065255358494085"><ele>563.0</ele><time>2026-04-19T10:04:52Z</time></trkpt><trkpt lat="42.99678289103224" lon="12.065180211021934"><ele>563.0</ele><time>2026-04-19T10:04:53Z</time></trkpt><trkpt lat="42.99666725343377" lon="12.065125150790948"><ele>563.0</ele><time>2026-04-19T10:04:54Z</time></trkpt><trkpt lat="42.99656421864032" lon="12.065085629234614"><ele>563.0</ele><time>2026-04-19T10:04:55Z</time></trkpt><trkpt lat="42.99646954541427" lon="12.065054682048283"><ele>563.0</ele><time>2026-04-19T10:04:56Z</time></trkpt><trkpt lat="42.99637396334007" lon="12.065028479167403"><ele>561.0</ele><time>2026-04-19T10:04:57Z</time></trkpt><trkpt lat="42.996273787966885" lon="12.065012047004569"><ele>559.0</ele><time>2026-04-19T10:04:58Z</time></trkpt><trkpt lat="42.99616023764515" lon="12.065000204954282"><ele>557.0</ele><time>2026-04-19T10:04:59Z</time></trkpt><trkpt lat="42.9960310618868" lon="12.064992411506621"><ele>555.0</ele><time>2026-04-19T10:05:00Z</time></trkpt><trkpt lat="42.99591469681093" lon="12.064988075639649"><ele>553.0</ele><time>2026-04-19T10:05:01Z</time></trkpt><trkpt lat="42.995809862985524" lon="12.064986946519824"><ele>551.0</ele><time>2026-04-19T10:05:02Z</time></trkpt><trkpt lat="42.99570906550675" lon="12.064987369436878"><ele>549.0</ele><time>2026-04-19T10:05:03Z</time></trkpt><trkpt lat="42.99560917654209" lon="12.064993315445552"><ele>547.0</ele><time>2026-04-19T10:05:04Z</time></trkpt><trkpt lat="42.99551660623722" lon="12.065024799934006"><ele>545.0</ele><time>2026-04-19T10:05:05Z</time></trkpt><trkpt lat="42.99542525959353" lon="12.06503832478586"><ele>545.0</ele><time>2026-04-19T10:05:06Z</time></trkpt><trkpt lat="42.99534266198237" lon="12.065043499922732"><ele>545.0</ele><time>2026-04-19T10:05:07Z</time></trkpt><trkpt lat="42.99525716105748" lon="12.065071753900218"><ele>545.0</ele><time>2026-04-19T10:05:08Z</time></trkpt><trkpt lat="42.995181454650165" lon="12.065105110136543"><ele>545.0</ele><time>2026-04-19T10:05:09Z</time></trkpt><trkpt lat="42.99507075482136" lon="12.065137319027782"><ele>545.0</ele><time>2026-04-19T10:05:10Z</time></trkpt><trkpt lat="42.99496892641603" lon="12.065096291904739"><ele>542.0</ele><time>2026-04-19T10:05:11Z</time></trkpt><trkpt lat="42.994874558583675" lon="12.065062667184389"><ele>539.0</ele><time>2026-04-19T10:05:12Z</time></trkpt><trkpt lat="42.994765944339306" lon="12.065001118891596"><ele>536.0</ele><time>2026-04-19T10:05:13Z</time></trkpt><trkpt lat="42.994638270786155" lon="12.064914327236986"><ele>533.0</ele><time>2026-04-19T10:05:14Z</time></trkpt><trkpt lat="42.994506133458046" lon="12.064808526974605"><ele>529.6666666666666</ele><time>2026-04-19T10:05:15Z</time></trkpt><trkpt lat="42.994361662340914" lon="12.064688728198789"><ele>526.3333333333334</ele><time>2026-04-19T10:05:16Z</time></trkpt><trkpt lat="42.99421339979093" lon="12.064570399818493"><ele>523.0</ele><time>2026-04-19T10:05:17Z</time></trkpt><trkpt lat="42.994078845121315" lon="12.064491199255134"><ele>521.75</ele><time>2026-04-19T10:05:18Z</time></trkpt><trkpt lat="42.993972435335465" lon="12.064405657597918"><ele>520.5</ele><time>2026-04-19T10:05:19Z</time></trkpt><trkpt lat="42.9938447923879" lon="12.064322019468804"><ele>519.25</ele><time>2026-04-19T10:05:20Z</time></trkpt><trkpt lat="42.99368957824143" lon="12.064236462431513"><ele>518.0</ele><time>2026-04-19T10:05:21Z</time></trkpt><trkpt lat="42.99352238697481" lon="12.064130238755983"><ele>515.3333333333333</ele><time>2026-04-19T10:05:22Z</time></trkpt><trkpt lat="42.9933502990828" lon="12.064045650253831"><ele>512.6666666666666</ele><time>2026-04-19T10:05:23Z</time></trkpt><trkpt lat="42.99317601277672" lon="12.06396316029173"><ele>510.0</ele><time>2026-04-19T10:05:24Z</time></trkpt><trkpt lat="42.99300702490292" lon="12.063882750797418"><ele>510.0</ele><time>2026-04-19T10:05:25Z</time></trkpt><trkpt lat="42.992842073300054" lon="12.063829662711024"><ele>510.0</ele><time>2026-04-19T10:05:26Z</time></trkpt><trkpt lat="42.99269008251182" lon="12.063821980344429"><ele>510.0</ele><time>2026-04-19T10:05:27Z</time></trkpt><trkpt lat="42.992521987810875" lon="12.063799683928378"><ele>512.0</ele><time>2026-04-19T10:05:28Z</time></trkpt><trkpt lat="42.99233120840205" lon="12.063783346313228"><ele>514.0</ele><time>2026-04-19T10:05:29Z</time></trkpt><trkpt lat="42.992163889941345" lon="12.063774630832782"><ele>516.0</ele><time>2026-04-19T10:05:30Z</time></trkpt><trkpt lat="42.99200230722976" lon="12.063765893991144"><ele>516.0</ele><time>2026-04-19T10:05:31Z</time></trkpt><trkpt lat="42.991861158337244" lon="12.063758064129637"><ele>516.0</ele><time>2026-04-19T10:05:32Z</time></trkpt><trkpt lat="42.99174530929778" lon="12.063767653134363"><ele>516.0</ele><time>2026-04-19T10:05:33Z</time></trkpt><trkpt lat="42.99164930344723" lon="12.063739704193232"><ele>516.0</ele><time>2026-04-19T10:05:34Z</time></trkpt><trkpt lat="42.99155538742538" lon="12.063720225722669"><ele>517.0</ele><time>2026-04-19T10:05:35Z</time></trkpt><trkpt lat="42.99146294504548" lon="12.063686115653695"><ele>518.0</ele><time>2026-04-19T10:05:36Z</time></trkpt><trkpt lat="42.99138047100401" lon="12.063625187287876"><ele>519.0</ele><time>2026-04-19T10:05:37Z</time></trkpt><trkpt lat="42.99127332482891" lon="12.063534582961877"><ele>520.0</ele><time>2026-04-19T10:05:38Z</time></trkpt><trkpt lat="42.99116013666867" lon="12.063437037815932"><ele>521.0</ele><time>2026-04-19T10:05:39Z</time></trkpt><trkpt lat="42.99105479337776" lon="12.063319788597115"><ele>519.5</ele><time>2026-04-19T10:05:40Z</time></trkpt><trkpt lat="42.9909480017264" lon="12.06317964810332"><ele>518.0</ele><time>2026-04-19T10:05:41Z</time></trkpt><trkpt lat="42.990856397138586" lon="12.063049110224677"><ele>516.5</ele><time>2026-04-19T10:05:42Z</time></trkpt><trkpt lat="42.99074695308388" lon="12.062904963034239"><ele>515.0</ele><time>2026-04-19T10:05:43Z</time></trkpt><trkpt lat="42.990610266892375" lon="12.062771832953894"><ele>513.5</ele><time>2026-04-19T10:05:44Z</time></trkpt><trkpt lat="42.9904756130429" lon="12.062670188427887"><ele>512.0</ele><time>2026-04-19T10:05:45Z</time></trkpt><trkpt lat="42.990345964754" lon="12.062594578292178"><ele>510.5</ele><time>2026-04-19T10:05:46Z</time></trkpt><trkpt lat="42.99021174631394" lon="12.062524503897606"><ele>509.0</ele><time>2026-04-19T10:05:47Z</time></trkpt><trkpt lat="42.9900620167747" lon="12.062466038944228"><ele>509.0</ele><time>2026-04-19T10:05:48Z</time></trkpt><trkpt lat="42.98989116807022" lon="12.062443936493905"><ele>509.0</ele><time>2026-04-19T10:05:49Z</time></trkpt><trkpt lat="42.98972477251131" lon="12.062439503653737"><ele>509.0</ele><time>2026-04-19T10:05:50Z</time></trkpt><trkpt lat="42.989593149612666" lon="12.062450667942569"><ele>509.0</ele><time>2026-04-19T10:05:51Z</time></trkpt><trkpt lat="42.98948037199087" lon="12.062506218360355"><ele>509.0</ele><time>2026-04-19T10:05:52Z</time></trkpt><trkpt lat="42.98935690821656" lon="12.062567535105975"><ele>509.0</ele><time>2026-04-19T10:05:53Z</time></trkpt><trkpt lat="42.98922340215291" lon="12.062647574209478"><ele>509.0</ele><time>2026-04-19T10:05:54Z</time></trkpt><trkpt lat="42.98905862660658" lon="12.06271665299819"><ele>511.75</ele><time>2026-04-19T10:05:55Z</time></trkpt><trkpt lat="42.98891857862608" lon="12.062749062163876"><ele>514.5</ele><time>2026-04-19T10:05:56Z</time></trkpt><trkpt lat="42.988812525830845" lon="12.06280268658524"><ele>517.25</ele><time>2026-04-19T10:05:57Z</time></trkpt><trkpt lat="42.98871402847439" lon="12.062820051445433"><ele>520.0</ele><time>2026-04-19T10:05:58Z</time></trkpt><trkpt lat="42.98859870937124" lon="12.062873934588833"><ele>520.0</ele><time>2026-04-19T10:05:59Z</time></trkpt><trkpt lat="42.988459029341506" lon="12.06292988265547"><ele>520.0</ele><time>2026-04-19T10:06:00Z</time></trkpt><trkpt lat="42.98831817765968" lon="12.062966984129055"><ele>520.0</ele><time>2026-04-19T10:06:01Z</time></trkpt><trkpt lat="42.98820070889181" lon="12.062994781228204"><ele>520.0</ele><time>2026-04-19T10:06:02Z</time></trkpt><trkpt lat="42.988084866267265" lon="12.063005061566544"><ele>522.75</ele><time>2026-04-19T10:06:03Z</time></trkpt><trkpt lat="42.9879512505945" lon="12.06299919088672"><ele>525.5</ele><time>2026-04-19T10:06:04Z</time></trkpt><trkpt lat="42.987814100706196" lon="12.063012427882446"><ele>528.25</ele><time>2026-04-19T10:06:05Z</time></trkpt><trkpt lat="42.98767057664906" lon="12.063016803376184"><ele>531.0</ele><time>2026-04-19T10:06:06Z</time></trkpt><trkpt lat="42.987556462275364" lon="12.063053293710537"><ele>531.0</ele><time>2026-04-19T10:06:07Z</time></trkpt><trkpt lat="42.987469475490244" lon="12.06307366455997"><ele>531.0</ele><time>2026-04-19T10:06:08Z</time></trkpt><trkpt lat="42.98739383858144" lon="12.063093082585016"><ele>531.0</ele><time>2026-04-19T10:06:09Z</time></trkpt><trkpt lat="42.987331386872526" lon="12.063059713278797"><ele>531.0</ele><time>2026-04-19T10:06:10Z</time></trkpt><trkpt lat="42.987297344882144" lon="12.062979181651874"><ele>531.0</ele><time>2026-04-19T10:06:11Z</time></trkpt><trkpt lat="42.98727732460795" lon="12.062819552116581"><ele>531.0</ele><time>2026-04-19T10:06:13Z</time></trkpt><trkpt lat="42.98725550465826" lon="12.06273580644542"><ele>531.0</ele><time>2026-04-19T10:06:14Z</time></trkpt><trkpt lat="42.987227424148216" lon="12.062642763484357"><ele>531.0</ele><time>2026-04-19T10:06:15Z</time></trkpt><trkpt lat="42.987196073608786" lon="12.062558054843795"><ele>531.0</ele><time>2026-04-19T10:06:16Z</time></trkpt><trkpt lat="42.987159309704936" lon="12.06248083778184"><ele>531.0</ele><time>2026-04-19T10:06:17Z</time></trkpt><trkpt lat="42.98711723817217" lon="12.062403079411482"><ele>531.0</ele><time>2026-04-19T10:06:18Z</time></trkpt><trkpt lat="42.98706709826512" lon="12.062330494078877"><ele>531.0</ele><time>2026-04-19T10:06:19Z</time></trkpt><trkpt lat="42.98698318272032" lon="12.06227476171959"><ele>531.0</ele><time>2026-04-19T10:06:20Z</time></trkpt><trkpt lat="42.98689105193147" lon="12.062208718891533"><ele>528.3333333333334</ele><time>2026-04-19T10:06:21Z</time></trkpt><trkpt lat="42.986802135511724" lon="12.06215518459432"><ele>525.6666666666666</ele><time>2026-04-19T10:06:22Z</time></trkpt><trkpt lat="42.986723990592004" lon="12.062111053368461"><ele>523.0</ele><time>2026-04-19T10:06:23Z</time></trkpt><trkpt lat="42.986657958560194" lon="12.062079564905371"><ele>520.3333333333333</ele><time>2026-04-19T10:06:24Z</time></trkpt><trkpt lat="42.986546583212125" lon="12.062031992561218"><ele>517.6666666666666</ele><time>2026-04-19T10:06:26Z</time></trkpt><trkpt lat="42.986483630318524" lon="12.061985217984336"><ele>515.0</ele><time>2026-04-19T10:06:27Z</time></trkpt><trkpt lat="42.986404816450296" lon="12.061963342828841"><ele>514.0</ele><time>2026-04-19T10:06:28Z</time></trkpt><trkpt lat="42.986303634230154" lon="12.061956211101075"><ele>513.0</ele><time>2026-04-19T10:06:29Z</time></trkpt><trkpt lat="42.986203385391846" lon="12.061994174878105"><ele>512.0</ele><time>2026-04-19T10:06:30Z</time></trkpt><trkpt lat="42.986076633251514" lon="12.0620336867264"><ele>511.0</ele><time>2026-04-19T10:06:31Z</time></trkpt><trkpt lat="42.98595124279075" lon="12.062070778669614"><ele>508.25</ele><time>2026-04-19T10:06:32Z</time></trkpt><trkpt lat="42.985835849369266" lon="12.062055757716436"><ele>505.5</ele><time>2026-04-19T10:06:33Z</time></trkpt><trkpt lat="42.98571750891737" lon="12.06201933933082"><ele>502.75</ele><time>2026-04-19T10:06:34Z</time></trkpt><trkpt lat="42.98557836031963" lon="12.061985469630645"><ele>500.0</ele><time>2026-04-19T10:06:35Z</time></trkpt><trkpt lat="42.985445084668235" lon="12.06199943240965"><ele>500.0</ele><time>2026-04-19T10:06:36Z</time></trkpt><trkpt lat="42.98531514265012" lon="12.062009644590118"><ele>500.0</ele><time>2026-04-19T10:06:37Z</time></trkpt><trkpt lat="42.98519819935058" lon="12.06201328457078"><ele>500.0</ele><time>2026-04-19T10:06:38Z</time></trkpt><trkpt lat="42.98510794537896" lon="12.062027805494994"><ele>500.0</ele><time>2026-04-19T10:06:39Z</time></trkpt><trkpt lat="42.9850356837516" lon="12.062029418745372"><ele>500.0</ele><time>2026-04-19T10:06:40Z</time></trkpt><trkpt lat="42.98494996284107" lon="12.06196740000824"><ele>499.99999999999994</ele><time>2026-04-19T10:06:42Z</time></trkpt><trkpt lat="42.98494682586913" lon="12.061875836435037"><ele>500.0</ele><time>2026-04-19T10:06:43Z</time></trkpt><trkpt lat="42.984909736318926" lon="12.061764956133556"><ele>500.0</ele><time>2026-04-19T10:06:44Z</time></trkpt><trkpt lat="42.9848698835088" lon="12.061637956797755"><ele>500.0</ele><time>2026-04-19T10:06:45Z</time></trkpt><trkpt lat="42.984835908880676" lon="12.061534700443437"><ele>499.99999999999994</ele><time>2026-04-19T10:06:46Z</time></trkpt><trkpt lat="42.984803498504164" lon="12.061452658605514"><ele>500.0</ele><time>2026-04-19T10:06:47Z</time></trkpt><trkpt lat="42.984764269904566" lon="12.061379148265225"><ele>497.49999999999994</ele><time>2026-04-19T10:06:48Z</time></trkpt><trkpt lat="42.98467906964226" lon="12.061279355828173"><ele>495.0</ele><time>2026-04-19T10:06:50Z</time></trkpt><trkpt lat="42.984613448220344" lon="12.061264538255111"><ele>492.5</ele><time>2026-04-19T10:06:51Z</time></trkpt><trkpt lat="42.98454711165713" lon="12.061288785252014"><ele>490.0</ele><time>2026-04-19T10:06:52Z</time></trkpt><trkpt lat="42.984426438224105" lon="12.06131798752063"><ele>487.49999999999994</ele><time>2026-04-19T10:06:54Z</time></trkpt><trkpt lat="42.98435574338118" lon="12.06134618291007"><ele>485.0</ele><time>2026-04-19T10:06:55Z</time></trkpt><trkpt lat="42.98428129020518" lon="12.061413852094377"><ele>485.0</ele><time>2026-04-19T10:06:56Z</time></trkpt><trkpt lat="42.98420359335904" lon="12.061517193563878"><ele>485.0</ele><time>2026-04-19T10:06:57Z</time></trkpt><trkpt lat="42.984120139040165" lon="12.06164466854667"><ele>485.0</ele><time>2026-04-19T10:06:58Z</time></trkpt><trkpt lat="42.98402014312498" lon="12.061755627962947"><ele>485.0</ele><time>2026-04-19T10:06:59Z</time></trkpt><trkpt lat="42.983913121191485" lon="12.061825105465953"><ele>486.2</ele><time>2026-04-19T10:07:00Z</time></trkpt><trkpt lat="42.98379742138246" lon="12.061891924176686"><ele>487.4</ele><time>2026-04-19T10:07:01Z</time></trkpt><trkpt lat="42.983697469082614" lon="12.061945248072448"><ele>488.6</ele><time>2026-04-19T10:07:02Z</time></trkpt><trkpt lat="42.98360213344751" lon="12.061963360899583"><ele>489.8</ele><time>2026-04-19T10:07:03Z</time></trkpt><trkpt lat="42.98351022388431" lon="12.061977597932183"><ele>491.0</ele><time>2026-04-19T10:07:04Z</time></trkpt><trkpt lat="42.98341378857757" lon="12.061949618617378"><ele>488.25</ele><time>2026-04-19T10:07:05Z</time></trkpt><trkpt lat="42.98329353933455" lon="12.06191935520801"><ele>485.5</ele><time>2026-04-19T10:07:06Z</time></trkpt><trkpt lat="42.98316863343017" lon="12.061922579797969"><ele>482.75</ele><time>2026-04-19T10:07:07Z</time></trkpt><trkpt lat="42.98303615118277" lon="12.061942743969531"><ele>480.0</ele><time>2026-04-19T10:07:08Z</time></trkpt><trkpt lat="42.98289664094623" lon="12.061970585604877"><ele>480.0</ele><time>2026-04-19T10:07:09Z</time></trkpt><trkpt lat="42.98275990931419" lon="12.062014101201616"><ele>480.0</ele><time>2026-04-19T10:07:10Z</time></trkpt><trkpt lat="42.982652228749416" lon="12.062045292091458"><ele>480.0</ele><time>2026-04-19T10:07:11Z</time></trkpt><trkpt lat="42.982568736989165" lon="12.062047702884849"><ele>480.0</ele><time>2026-04-19T10:07:12Z</time></trkpt><trkpt lat="42.98249525142798" lon="12.062067338285326"><ele>480.0</ele><time>2026-04-19T10:07:13Z</time></trkpt><trkpt lat="42.98237996895766" lon="12.062098802476267"><ele>480.0</ele><time>2026-04-19T10:07:14Z</time></trkpt><trkpt lat="42.98224951365625" lon="12.062127592263506"><ele>480.0</ele><time>2026-04-19T10:07:15Z</time></trkpt><trkpt lat="42.98212863866486" lon="12.062145170152037"><ele>480.0</ele><time>2026-04-19T10:07:16Z</time></trkpt><trkpt lat="42.982009085632086" lon="12.062160493047065"><ele>480.0</ele><time>2026-04-19T10:07:17Z</time></trkpt><trkpt lat="42.981898445340875" lon="12.062205848718872"><ele>480.0</ele><time>2026-04-19T10:07:18Z</time></trkpt><trkpt lat="42.98177674519407" lon="12.062220338376198"><ele>480.0</ele><time>2026-04-19T10:07:19Z</time></trkpt><trkpt lat="42.98165651877077" lon="12.062221311434342"><ele>480.0</ele><time>2026-04-19T10:07:20Z</time></trkpt><trkpt lat="42.981531548076795" lon="12.062172539110232"><ele>480.0</ele><time>2026-04-19T10:07:21Z</time></trkpt><trkpt lat="42.981392863743054" lon="12.062144519117883"><ele>478.0</ele><time>2026-04-19T10:07:22Z</time></trkpt><trkpt lat="42.981263229165265" lon="12.062101895870011"><ele>476.0</ele><time>2026-04-19T10:07:23Z</time></trkpt><trkpt lat="42.981142935450876" lon="12.06205036546787"><ele>474.0</ele><time>2026-04-19T10:07:24Z</time></trkpt><trkpt lat="42.98102833238302" lon="12.062004933167346"><ele>472.0</ele><time>2026-04-19T10:07:25Z</time></trkpt><trkpt lat="42.980913961706264" lon="12.061973073467238"><ele>471.0</ele><time>2026-04-19T10:07:26Z</time></trkpt><trkpt lat="42.980806720614616" lon="12.06195957741592"><ele>470.00000000000006</ele><time>2026-04-19T10:07:27Z</time></trkpt><trkpt lat="42.980712070789686" lon="12.061932638288855"><ele>469.00000000000006</ele><time>2026-04-19T10:07:28Z</time></trkpt><trkpt lat="42.98062382192523" lon="12.061922945842422"><ele>468.0</ele><time>2026-04-19T10:07:29Z</time></trkpt><trkpt lat="42.98055407792101" lon="12.061899120060602"><ele>467.0</ele><time>2026-04-19T10:07:30Z</time></trkpt><trkpt lat="42.98047670945425" lon="12.061824096355034"><ele>467.0</ele><time>2026-04-19T10:07:31Z</time></trkpt><trkpt lat="42.980388603969956" lon="12.061730822312418"><ele>467.00000000000006</ele><time>2026-04-19T10:07:32Z</time></trkpt><trkpt lat="42.98028703552831" lon="12.06165730731836"><ele>467.00000000000006</ele><time>2026-04-19T10:07:33Z</time></trkpt><trkpt lat="42.980212435576014" lon="12.061579332210822"><ele>467.0</ele><time>2026-04-19T10:07:34Z</time></trkpt><trkpt lat="42.98013920750584" lon="12.061507326491054"><ele>467.0</ele><time>2026-04-19T10:07:35Z</time></trkpt><trkpt lat="42.980073289089795" lon="12.061447267807361"><ele>464.0</ele><time>2026-04-19T10:07:36Z</time></trkpt><trkpt lat="42.9800221377391" lon="12.061370298948004"><ele>461.00000000000006</ele><time>2026-04-19T10:07:37Z</time></trkpt><trkpt lat="42.97995864106395" lon="12.061321206269234"><ele>458.00000000000006</ele><time>2026-04-19T10:07:38Z</time></trkpt><trkpt lat="42.97987933748324" lon="12.061291373327165"><ele>455.0</ele><time>2026-04-19T10:07:39Z</time></trkpt><trkpt lat="42.97977961354462" lon="12.061299943054188"><ele>452.0</ele><time>2026-04-19T10:07:40Z</time></trkpt><trkpt lat="42.97967113769328" lon="12.061372538612373"><ele>452.8</ele><time>2026-04-19T10:07:41Z</time></trkpt><trkpt lat="42.97957728700406" lon="12.061423687724586"><ele>453.6</ele><time>2026-04-19T10:07:42Z</time></trkpt><trkpt lat="42.979479828519736" lon="12.06146334552381"><ele>454.40000000000003</ele><time>2026-04-19T10:07:43Z</time></trkpt><trkpt lat="42.97938055015346" lon="12.061556365426034"><ele>455.20000000000005</ele><time>2026-04-19T10:07:44Z</time></trkpt><trkpt lat="42.97930137256307" lon="12.06168772301628"><ele>456.0</ele><time>2026-04-19T10:07:45Z</time></trkpt><trkpt lat="42.97921818038163" lon="12.061806365375537"><ele>452.5</ele><time>2026-04-19T10:07:46Z</time></trkpt><trkpt lat="42.97912472196968" lon="12.061913227339067"><ele>449.0</ele><time>2026-04-19T10:07:47Z</time></trkpt><trkpt lat="42.97901732320079" lon="12.062020756536834"><ele>445.5</ele><time>2026-04-19T10:07:48Z</time></trkpt><trkpt lat="42.97891696602463" lon="12.062113157287556"><ele>442.0</ele><time>2026-04-19T10:07:49Z</time></trkpt><trkpt lat="42.97884733283843" lon="12.062202130346314"><ele>442.00000000000006</ele><time>2026-04-19T10:07:50Z</time></trkpt><trkpt lat="42.97878387606597" lon="12.062262910448295"><ele>442.0</ele><time>2026-04-19T10:07:51Z</time></trkpt><trkpt lat="42.97871909569112" lon="12.06229752911837"><ele>442.0</ele><time>2026-04-19T10:07:52Z</time></trkpt><trkpt lat="42.97865679188307" lon="12.062343790139854"><ele>442.0</ele><time>2026-04-19T10:07:53Z</time></trkpt><trkpt lat="42.978593556231225" lon="12.062395996207181"><ele>442.00000000000006</ele><time>2026-04-19T10:07:54Z</time></trkpt><trkpt lat="42.97851787482725" lon="12.06238687509291"><ele>442.0</ele><time>2026-04-19T10:07:55Z</time></trkpt><trkpt lat="42.9784146198344" lon="12.062279392532007"><ele>442.0</ele><time>2026-04-19T10:07:57Z</time></trkpt><trkpt lat="42.97835804598978" lon="12.062184228650448"><ele>442.00000000000006</ele><time>2026-04-19T10:07:58Z</time></trkpt><trkpt lat="42.978300417882" lon="12.062060601462491"><ele>442.00000000000006</ele><time>2026-04-19T10:07:59Z</time></trkpt><trkpt lat="42.978228388613786" lon="12.061957032766578"><ele>442.0</ele><time>2026-04-19T10:08:00Z</time></trkpt><trkpt lat="42.97812437315449" lon="12.061887467396422"><ele>442.0</ele><time>2026-04-19T10:08:01Z</time></trkpt><trkpt lat="42.97801606756158" lon="12.06186363769507"><ele>439.5</ele><time>2026-04-19T10:08:02Z</time></trkpt><trkpt lat="42.977886258079415" lon="12.061871380620728"><ele>437.0</ele><time>2026-04-19T10:08:03Z</time></trkpt><trkpt lat="42.97776057435636" lon="12.061864273759463"><ele>434.5</ele><time>2026-04-19T10:08:04Z</time></trkpt><trkpt lat="42.977635426931826" lon="12.06185537015096"><ele>432.0</ele><time>2026-04-19T10:08:05Z</time></trkpt><trkpt lat="42.9775096344096" lon="12.061846818829597"><ele>430.6</ele><time>2026-04-19T10:08:06Z</time></trkpt><trkpt lat="42.977383301544" lon="12.061839691009073"><ele>429.20000000000005</ele><time>2026-04-19T10:08:07Z</time></trkpt><trkpt lat="42.97726373580808" lon="12.061833878286928"><ele>427.8</ele><time>2026-04-19T10:08:08Z</time></trkpt><trkpt lat="42.97716395664605" lon="12.061832222007816"><ele>426.4</ele><time>2026-04-19T10:08:09Z</time></trkpt><trkpt lat="42.97706515975459" lon="12.061838788306707"><ele>425.0</ele><time>2026-04-19T10:08:10Z</time></trkpt><trkpt lat="42.97697224546915" lon="12.061855147816631"><ele>425.0</ele><time>2026-04-19T10:08:11Z</time></trkpt><trkpt lat="42.97687890163692" lon="12.061904547637498"><ele>425.0</ele><time>2026-04-19T10:08:12Z</time></trkpt><trkpt lat="42.97679560827569" lon="12.06198707787616"><ele>425.0</ele><time>2026-04-19T10:08:13Z</time></trkpt><trkpt lat="42.97670421881899" lon="12.062103303389774"><ele>425.0</ele><time>2026-04-19T10:08:14Z</time></trkpt><trkpt lat="42.976600782751746" lon="12.06223763874546"><ele>423.0</ele><time>2026-04-19T10:08:15Z</time></trkpt><trkpt lat="42.9765009077992" lon="12.062369643950593"><ele>421.0</ele><time>2026-04-19T10:08:16Z</time></trkpt><trkpt lat="42.976412200335766" lon="12.062473313021114"><ele>419.0</ele><time>2026-04-19T10:08:17Z</time></trkpt><trkpt lat="42.97633468908603" lon="12.062551467556673"><ele>417.0</ele><time>2026-04-19T10:08:18Z</time></trkpt><trkpt lat="42.97626259814871" lon="12.062613491291609"><ele>415.0</ele><time>2026-04-19T10:08:19Z</time></trkpt><trkpt lat="42.97619935988796" lon="12.062656056597955"><ele>414.4</ele><time>2026-04-19T10:08:20Z</time></trkpt><trkpt lat="42.97608113070743" lon="12.062683377333943"><ele>413.8</ele><time>2026-04-19T10:08:22Z</time></trkpt><trkpt lat="42.97601698387964" lon="12.062671070688005"><ele>413.20000000000005</ele><time>2026-04-19T10:08:23Z</time></trkpt><trkpt lat="42.97592380133291" lon="12.062631864092658"><ele>412.6</ele><time>2026-04-19T10:08:24Z</time></trkpt><trkpt lat="42.97580186926746" lon="12.062570209066603"><ele>412.0</ele><time>2026-04-19T10:08:25Z</time></trkpt><trkpt lat="42.97567400713717" lon="12.062519247153284"><ele>409.75</ele><time>2026-04-19T10:08:26Z</time></trkpt><trkpt lat="42.97556061830598" lon="12.062473075302027"><ele>407.5</ele><time>2026-04-19T10:08:27Z</time></trkpt><trkpt lat="42.975460296096806" lon="12.062425374946747"><ele>405.25</ele><time>2026-04-19T10:08:28Z</time></trkpt><trkpt lat="42.97535172865905" lon="12.06237861586489"><ele>403.0</ele><time>2026-04-19T10:08:29Z</time></trkpt><trkpt lat="42.97524422951558" lon="12.062264444555147"><ele>402.0</ele><time>2026-04-19T10:08:30Z</time></trkpt><trkpt lat="42.97513348301299" lon="12.06213805040303"><ele>401.0</ele><time>2026-04-19T10:08:31Z</time></trkpt><trkpt lat="42.97503764215608" lon="12.061989135580419"><ele>400.0</ele><time>2026-04-19T10:08:32Z</time></trkpt><trkpt lat="42.97495099652919" lon="12.06184878380183"><ele>399.0</ele><time>2026-04-19T10:08:33Z</time></trkpt><trkpt lat="42.97487177496665" lon="12.061729833865718"><ele>398.0</ele><time>2026-04-19T10:08:34Z</time></trkpt><trkpt lat="42.97478172167328" lon="12.06162449040773"><ele>397.0</ele><time>2026-04-19T10:08:35Z</time></trkpt><trkpt lat="42.974666297749835" lon="12.061525756455927"><ele>396.0</ele><time>2026-04-19T10:08:36Z</time></trkpt><trkpt lat="42.97453611351953" lon="12.061443912433997"><ele>395.0</ele><time>2026-04-19T10:08:37Z</time></trkpt><trkpt lat="42.97440401897012" lon="12.061343072093155"><ele>393.75</ele><time>2026-04-19T10:08:38Z</time></trkpt><trkpt lat="42.974270132085095" lon="12.061237304339441"><ele>392.5</ele><time>2026-04-19T10:08:39Z</time></trkpt><trkpt lat="42.97415457483137" lon="12.061143776558033"><ele>391.25</ele><time>2026-04-19T10:08:40Z</time></trkpt><trkpt lat="42.97404850731911" lon="12.061064336965362"><ele>390.0</ele><time>2026-04-19T10:08:41Z</time></trkpt><trkpt lat="42.973956988166584" lon="12.061006688691124"><ele>390.0</ele><time>2026-04-19T10:08:42Z</time></trkpt><trkpt lat="42.9738734166725" lon="12.06095691314115"><ele>390.0</ele><time>2026-04-19T10:08:43Z</time></trkpt><trkpt lat="42.97380692230853" lon="12.060917308828687"><ele>390.0</ele><time>2026-04-19T10:08:44Z</time></trkpt><trkpt lat="42.97373845214918" lon="12.060897523917859"><ele>390.0</ele><time>2026-04-19T10:08:45Z</time></trkpt><trkpt lat="42.973689957096205" lon="12.060841481783001"><ele>390.0</ele><time>2026-04-19T10:08:46Z</time></trkpt><trkpt lat="42.97359646094067" lon="12.0607856490127"><ele>390.0</ele><time>2026-04-19T10:08:48Z</time></trkpt><trkpt lat="42.97366911604251" lon="12.060633003653825"><ele>389.0</ele><time>2026-04-19T10:08:51Z</time></trkpt><trkpt lat="42.9737319762131" lon="12.060557732481092"><ele>388.0</ele><time>2026-04-19T10:08:52Z</time></trkpt><trkpt lat="42.973805102490644" lon="12.060456155769863"><ele>387.0</ele><time>2026-04-19T10:08:53Z</time></trkpt><trkpt lat="42.97386093123245" lon="12.060318975447188"><ele>386.0</ele><time>2026-04-19T10:08:54Z</time></trkpt><trkpt lat="42.973939253764954" lon="12.060190951629728"><ele>385.0</ele><time>2026-04-19T10:08:55Z</time></trkpt><trkpt lat="42.97401393618321" lon="12.060044197000067"><ele>384.5</ele><time>2026-04-19T10:08:56Z</time></trkpt><trkpt lat="42.974098274939166" lon="12.059894072237123"><ele>384.0</ele><time>2026-04-19T10:08:57Z</time></trkpt><trkpt lat="42.97418018752233" lon="12.05975211607664"><ele>383.5</ele><time>2026-04-19T10:08:58Z</time></trkpt><trkpt lat="42.974248996072575" lon="12.05961619339468"><ele>383.0</ele><time>2026-04-19T10:08:59Z</time></trkpt><trkpt lat="42.9743009138068" lon="12.059458606974893"><ele>383.6666666666667</ele><time>2026-04-19T10:09:00Z</time></trkpt><trkpt lat="42.9743458073784" lon="12.05927650658903"><ele>384.33333333333337</ele><time>2026-04-19T10:09:01Z</time></trkpt><trkpt lat="42.974360772660305" lon="12.05906849970255"><ele>385.0</ele><time>2026-04-19T10:09:02Z</time></trkpt><trkpt lat="42.97434497589953" lon="12.05884514497087"><ele>385.0</ele><time>2026-04-19T10:09:03Z</time></trkpt><trkpt lat="42.97431001014351" lon="12.058613930876222"><ele>385.0</ele><time>2026-04-19T10:09:04Z</time></trkpt><trkpt lat="42.97430375288974" lon="12.058369097343398"><ele>385.0</ele><time>2026-04-19T10:09:05Z</time></trkpt><trkpt lat="42.97429716818801" lon="12.0581226147713"><ele>383.0</ele><time>2026-04-19T10:09:06Z</time></trkpt><trkpt lat="42.97427794337961" lon="12.057890343749252"><ele>381.0</ele><time>2026-04-19T10:09:07Z</time></trkpt><trkpt lat="42.97429378697426" lon="12.057667944581423"><ele>379.0</ele><time>2026-04-19T10:09:08Z</time></trkpt><trkpt lat="42.97431343903959" lon="12.057459604006228"><ele>376.66666666666663</ele><time>2026-04-19T10:09:09Z</time></trkpt><trkpt lat="42.97435281907016" lon="12.057258824417056"><ele>374.3333333333333</ele><time>2026-04-19T10:09:10Z</time></trkpt><trkpt lat="42.974423232557776" lon="12.05704932364325"><ele>372.0</ele><time>2026-04-19T10:09:11Z</time></trkpt><trkpt lat="42.97452190650357" lon="12.056833232259871"><ele>369.0</ele><time>2026-04-19T10:09:12Z</time></trkpt><trkpt lat="42.974632440442505" lon="12.056612713894545"><ele>366.0</ele><time>2026-04-19T10:09:13Z</time></trkpt><trkpt lat="42.974715961707346" lon="12.056390492031761"><ele>363.0</ele><time>2026-04-19T10:09:14Z</time></trkpt><trkpt lat="42.97479748066353" lon="12.056167531194333"><ele>363.0</ele><time>2026-04-19T10:09:15Z</time></trkpt><trkpt lat="42.97486534320866" lon="12.055927643903871"><ele>363.0</ele><time>2026-04-19T10:09:16Z</time></trkpt><trkpt lat="42.9749545526157" lon="12.055709157970055"><ele>363.0</ele><time>2026-04-19T10:09:17Z</time></trkpt><trkpt lat="42.974981498655" lon="12.055464961177286"><ele>361.3333333333333</ele><time>2026-04-19T10:09:18Z</time></trkpt><trkpt lat="42.97502879758329" lon="12.05524606330391"><ele>359.66666666666663</ele><time>2026-04-19T10:09:19Z</time></trkpt><trkpt lat="42.97509406778139" lon="12.05503625649746"><ele>358.0</ele><time>2026-04-19T10:09:20Z</time></trkpt><trkpt lat="42.9751959848357" lon="12.05483039835765"><ele>356.66666666666663</ele><time>2026-04-19T10:09:21Z</time></trkpt><trkpt lat="42.9753222303133" lon="12.054610535011882"><ele>355.3333333333333</ele><time>2026-04-19T10:09:22Z</time></trkpt><trkpt lat="42.9754422823934" lon="12.054399415819242"><ele>354.0</ele><time>2026-04-19T10:09:23Z</time></trkpt><trkpt lat="42.97555661813998" lon="12.054206500768927"><ele>354.6666666666667</ele><time>2026-04-19T10:09:24Z</time></trkpt><trkpt lat="42.97563204711716" lon="12.054003944097252"><ele>355.33333333333337</ele><time>2026-04-19T10:09:25Z</time></trkpt><trkpt lat="42.975678405529976" lon="12.05376489486818"><ele>356.0</ele><time>2026-04-19T10:09:26Z</time></trkpt><trkpt lat="42.97567660981773" lon="12.053500654497066"><ele>354.0</ele><time>2026-04-19T10:09:27Z</time></trkpt><trkpt lat="42.97566527251565" lon="12.053236422685696"><ele>352.0</ele><time>2026-04-19T10:09:28Z</time></trkpt><trkpt lat="42.975662451928336" lon="12.05298607509895"><ele>350.0</ele><time>2026-04-19T10:09:29Z</time></trkpt><trkpt lat="42.9756692853531" lon="12.05273803776631"><ele>350.0</ele><time>2026-04-19T10:09:30Z</time></trkpt><trkpt lat="42.975702446757595" lon="12.052487376396575"><ele>350.0</ele><time>2026-04-19T10:09:31Z</time></trkpt><trkpt lat="42.97575826924806" lon="12.052244494712719"><ele>350.0</ele><time>2026-04-19T10:09:32Z</time></trkpt><trkpt lat="42.97582538055836" lon="12.052024599315551"><ele>349.33333333333337</ele><time>2026-04-19T10:09:33Z</time></trkpt><trkpt lat="42.97589954988765" lon="12.05181859947864"><ele>348.6666666666667</ele><time>2026-04-19T10:09:34Z</time></trkpt><trkpt lat="42.975968080885586" lon="12.051615611631412"><ele>348.0</ele><time>2026-04-19T10:09:35Z</time></trkpt><trkpt lat="42.97609943250153" lon="12.051469933310063"><ele>344.3333333333333</ele><time>2026-04-19T10:09:36Z</time></trkpt><trkpt lat="42.97622251632002" lon="12.05129180272447"><ele>340.66666666666663</ele><time>2026-04-19T10:09:37Z</time></trkpt><trkpt lat="42.97637605911562" lon="12.051145383312429"><ele>337.0</ele><time>2026-04-19T10:09:38Z</time></trkpt><trkpt lat="42.97651452764669" lon="12.050967490378147"><ele>335.66666666666663</ele><time>2026-04-19T10:09:39Z</time></trkpt><trkpt lat="42.976610675065054" lon="12.050748958727082"><ele>334.3333333333333</ele><time>2026-04-19T10:09:40Z</time></trkpt><trkpt lat="42.97666957715711" lon="12.050505678220409"><ele>333.0</ele><time>2026-04-19T10:09:41Z</time></trkpt><trkpt lat="42.97669475701327" lon="12.050241685092534"><ele>337.0</ele><time>2026-04-19T10:09:42Z</time></trkpt><trkpt lat="42.97669286806085" lon="12.049966888111218"><ele>341.0</ele><time>2026-04-19T10:09:43Z</time></trkpt><trkpt lat="42.97670932163019" lon="12.049692150988827"><ele>345.0</ele><time>2026-04-19T10:09:44Z</time></trkpt><trkpt lat="42.97671162494999" lon="12.049422796138002"><ele>345.0</ele><time>2026-04-19T10:09:45Z</time></trkpt><trkpt lat="42.97672511272813" lon="12.049170729742194"><ele>345.0</ele><time>2026-04-19T10:09:46Z</time></trkpt><trkpt lat="42.97675269981906" lon="12.04893916948271"><ele>345.0</ele><time>2026-04-19T10:09:47Z</time></trkpt><trkpt lat="42.976805697443474" lon="12.04872760307795"><ele>341.6666666666667</ele><time>2026-04-19T10:09:48Z</time></trkpt><trkpt lat="42.97689123262507" lon="12.04853457324586"><ele>338.33333333333337</ele><time>2026-04-19T10:09:49Z</time></trkpt><trkpt lat="42.97700696173981" lon="12.048345924153875"><ele>335.0</ele><time>2026-04-19T10:09:50Z</time></trkpt><trkpt lat="42.97715158596057" lon="12.048160332610122"><ele>336.0</ele><time>2026-04-19T10:09:51Z</time></trkpt><trkpt lat="42.97728687811748" lon="12.047960015087384"><ele>337.0</ele><time>2026-04-19T10:09:52Z</time></trkpt><trkpt lat="42.97741740235289" lon="12.047766948095814"><ele>338.0</ele><time>2026-04-19T10:09:53Z</time></trkpt><trkpt lat="42.97754968764853" lon="12.047601083041997"><ele>334.33333333333337</ele><time>2026-04-19T10:09:54Z</time></trkpt><trkpt lat="42.977675496948784" lon="12.047437860935473"><ele>330.6666666666667</ele><time>2026-04-19T10:09:55Z</time></trkpt><trkpt lat="42.97781693308995" lon="12.04728965066226"><ele>327.0</ele><time>2026-04-19T10:09:56Z</time></trkpt><trkpt lat="42.977973727730486" lon="12.047136709587885"><ele>327.0</ele><time>2026-04-19T10:09:57Z</time></trkpt><trkpt lat="42.97811980938671" lon="12.046999928157815"><ele>327.0</ele><time>2026-04-19T10:09:58Z</time></trkpt><trkpt lat="42.97825330843305" lon="12.046864638029474"><ele>327.0</ele><time>2026-04-19T10:09:59Z</time></trkpt><trkpt lat="42.978356247459544" lon="12.046714261623753"><ele>329.3333333333333</ele><time>2026-04-19T10:10:00Z</time></trkpt><trkpt lat="42.97845204143664" lon="12.046559530546823"><ele>331.66666666666663</ele><time>2026-04-19T10:10:01Z</time></trkpt><trkpt lat="42.97852532706349" lon="12.046349681568483"><ele>334.0</ele><time>2026-04-19T10:10:02Z</time></trkpt><trkpt lat="42.97863487812173" lon="12.046104199088925"><ele>334.0</ele><time>2026-04-19T10:10:03Z</time></trkpt><trkpt lat="42.97872721855223" lon="12.04582559337849"><ele>334.0</ele><time>2026-04-19T10:10:04Z</time></trkpt><trkpt lat="42.9788086270442" lon="12.045562304339137"><ele>334.0</ele><time>2026-04-19T10:10:05Z</time></trkpt><trkpt lat="42.97887832992416" lon="12.045317042248264"><ele>332.0</ele><time>2026-04-19T10:10:06Z</time></trkpt><trkpt lat="42.978934774552314" lon="12.04505976352031"><ele>330.0</ele><time>2026-04-19T10:10:07Z</time></trkpt><trkpt lat="42.97896662755282" lon="12.044801083049602"><ele>328.0</ele><time>2026-04-19T10:10:08Z</time></trkpt><trkpt lat="42.97896963600345" lon="12.04455391754866"><ele>327.66666666666663</ele><time>2026-04-19T10:10:09Z</time></trkpt><trkpt lat="42.97896103671966" lon="12.044319044198376"><ele>327.3333333333333</ele><time>2026-04-19T10:10:10Z</time></trkpt><trkpt lat="42.978947787642326" lon="12.044095889028707"><ele>327.0</ele><time>2026-04-19T10:10:11Z</time></trkpt><trkpt lat="42.97894852351834" lon="12.043888679074211"><ele>324.6666666666667</ele><time>2026-04-19T10:10:12Z</time></trkpt><trkpt lat="42.978978085079305" lon="12.043670864181564"><ele>322.33333333333337</ele><time>2026-04-19T10:10:13Z</time></trkpt><trkpt lat="42.97904511545664" lon="12.04344179320514"><ele>320.0</ele><time>2026-04-19T10:10:14Z</time></trkpt><trkpt lat="42.97912945888142" lon="12.043197082465548"><ele>321.6666666666667</ele><time>2026-04-19T10:10:15Z</time></trkpt><trkpt lat="42.97922866542468" lon="12.042939472773627"><ele>323.3333333333333</ele><time>2026-04-19T10:10:16Z</time></trkpt><trkpt lat="42.97933717114676" lon="12.042674680061129"><ele>325.0</ele><time>2026-04-19T10:10:17Z</time></trkpt><trkpt lat="42.97945826356002" lon="12.042397856427073"><ele>319.5</ele><time>2026-04-19T10:10:18Z</time></trkpt><trkpt lat="42.97958197633398" lon="12.042129200814596"><ele>314.0</ele><time>2026-04-19T10:10:19Z</time></trkpt><trkpt lat="42.9797160045684" lon="12.041881634603651"><ele>314.0</ele><time>2026-04-19T10:10:20Z</time></trkpt><trkpt lat="42.97986456227857" lon="12.041654685839067"><ele>314.0</ele><time>2026-04-19T10:10:21Z</time></trkpt><trkpt lat="42.98002691797614" lon="12.041450627387789"><ele>314.0</ele><time>2026-04-19T10:10:22Z</time></trkpt><trkpt lat="42.98018416517321" lon="12.041271346501425"><ele>315.6666666666667</ele><time>2026-04-19T10:10:23Z</time></trkpt><trkpt lat="42.98033986465156" lon="12.04111985127933"><ele>317.3333333333333</ele><time>2026-04-19T10:10:24Z</time></trkpt><trkpt lat="42.98049188838198" lon="12.04098332467743"><ele>319.0</ele><time>2026-04-19T10:10:25Z</time></trkpt><trkpt lat="42.980641367365905" lon="12.040849084520483"><ele>318.66666666666663</ele><time>2026-04-19T10:10:26Z</time></trkpt><trkpt lat="42.980796280965535" lon="12.040709963788023"><ele>318.3333333333333</ele><time>2026-04-19T10:10:27Z</time></trkpt><trkpt lat="42.980949972035646" lon="12.040569470311569"><ele>318.0</ele><time>2026-04-19T10:10:28Z</time></trkpt><trkpt lat="42.98109171328269" lon="12.040398034926309"><ele>317.6666666666667</ele><time>2026-04-19T10:10:29Z</time></trkpt><trkpt lat="42.98124788761855" lon="12.040251501590376"><ele>317.33333333333337</ele><time>2026-04-19T10:10:30Z</time></trkpt><trkpt lat="42.98139589882018" lon="12.040084334382277"><ele>317.0</ele><time>2026-04-19T10:10:31Z</time></trkpt><trkpt lat="42.98152907454247" lon="12.039899380486279"><ele>316.33333333333337</ele><time>2026-04-19T10:10:32Z</time></trkpt><trkpt lat="42.98165513735899" lon="12.039700094013861"><ele>315.6666666666667</ele><time>2026-04-19T10:10:33Z</time></trkpt><trkpt lat="42.98177494566572" lon="12.0395096868418"><ele>315.0</ele><time>2026-04-19T10:10:34Z</time></trkpt><trkpt lat="42.98188854766641" lon="12.039336627700568"><ele>314.0</ele><time>2026-04-19T10:10:35Z</time></trkpt><trkpt lat="42.981994206077054" lon="12.03917238660434"><ele>313.0</ele><time>2026-04-19T10:10:36Z</time></trkpt><trkpt lat="42.98209287077482" lon="12.039015139029761"><ele>312.0</ele><time>2026-04-19T10:10:37Z</time></trkpt><trkpt lat="42.98218813408384" lon="12.038865231103886"><ele>311.25</ele><time>2026-04-19T10:10:38Z</time></trkpt><trkpt lat="42.98227810025083" lon="12.038724960340515"><ele>310.5</ele><time>2026-04-19T10:10:39Z</time></trkpt><trkpt lat="42.98236140481872" lon="12.038590842435935"><ele>309.75</ele><time>2026-04-19T10:10:40Z</time></trkpt><trkpt lat="42.98244335838677" lon="12.038458036915285"><ele>309.0</ele><time>2026-04-19T10:10:41Z</time></trkpt><trkpt lat="42.982518076914914" lon="12.038337804742847"><ele>307.59999999999997</ele><time>2026-04-19T10:10:42Z</time></trkpt><trkpt lat="42.982587443551836" lon="12.03823266321421"><ele>306.2</ele><time>2026-04-19T10:10:43Z</time></trkpt><trkpt lat="42.98264107481844" lon="12.038143442306751"><ele>304.79999999999995</ele><time>2026-04-19T10:10:44Z</time></trkpt><trkpt lat="42.98266945632965" lon="12.038034816500527"><ele>303.4</ele><time>2026-04-19T10:10:46Z</time></trkpt><trkpt lat="42.98259131601446" lon="12.037936269463676"><ele>302.0</ele><time>2026-04-19T10:10:48Z</time></trkpt><trkpt lat="42.982549940537915" lon="12.037853571103051"><ele>301.8</ele><time>2026-04-19T10:10:49Z</time></trkpt><trkpt lat="42.98251182780109" lon="12.037739935429071"><ele>301.6</ele><time>2026-04-19T10:10:50Z</time></trkpt><trkpt lat="42.98248647190271" lon="12.037601763905254"><ele>301.40000000000003</ele><time>2026-04-19T10:10:51Z</time></trkpt><trkpt lat="42.98247981800091" lon="12.037454329244687"><ele>301.2</ele><time>2026-04-19T10:10:52Z</time></trkpt><trkpt lat="42.98247296012389" lon="12.037338540297215"><ele>301.0</ele><time>2026-04-19T10:10:53Z</time></trkpt><trkpt lat="42.98246296856414" lon="12.037212137274585"><ele>300.40000000000003</ele><time>2026-04-19T10:10:54Z</time></trkpt><trkpt lat="42.982454808552525" lon="12.037116283915159"><ele>299.8</ele><time>2026-04-19T10:10:55Z</time></trkpt><trkpt lat="42.98243837025687" lon="12.037004525975263"><ele>299.20000000000005</ele><time>2026-04-19T10:10:56Z</time></trkpt><trkpt lat="42.98240661917798" lon="12.03687990057975"><ele>298.6</ele><time>2026-04-19T10:10:57Z</time></trkpt><trkpt lat="42.982365126557205" lon="12.036735259529646"><ele>298.0</ele><time>2026-04-19T10:10:58Z</time></trkpt><trkpt lat="42.98230818397783" lon="12.036566541582188"><ele>297.8</ele><time>2026-04-19T10:10:59Z</time></trkpt><trkpt lat="42.98226025567625" lon="12.036420255284947"><ele>297.6</ele><time>2026-04-19T10:11:00Z</time></trkpt><trkpt lat="42.98222621139541" lon="12.036300025400667"><ele>297.4</ele><time>2026-04-19T10:11:01Z</time></trkpt><trkpt lat="42.98219268234993" lon="12.03616377490485"><ele>297.2</ele><time>2026-04-19T10:11:02Z</time></trkpt><trkpt lat="42.98214045864897" lon="12.036016638088427"><ele>297.0</ele><time>2026-04-19T10:11:03Z</time></trkpt><trkpt lat="42.98206582712964" lon="12.035890308736496"><ele>300.25</ele><time>2026-04-19T10:11:04Z</time></trkpt><trkpt lat="42.981988166005515" lon="12.03576183728346"><ele>303.5</ele><time>2026-04-19T10:11:05Z</time></trkpt><trkpt lat="42.981910617863996" lon="12.035618427567131"><ele>306.75</ele><time>2026-04-19T10:11:06Z</time></trkpt><trkpt lat="42.98183445606213" lon="12.03544980319896"><ele>310.0</ele><time>2026-04-19T10:11:07Z</time></trkpt><trkpt lat="42.98176717364207" lon="12.035281776929498"><ele>310.0</ele><time>2026-04-19T10:11:08Z</time></trkpt><trkpt lat="42.981721136746884" lon="12.035151138443949"><ele>310.0</ele><time>2026-04-19T10:11:09Z</time></trkpt><trkpt lat="42.98169507723699" lon="12.035034667976937"><ele>310.0</ele><time>2026-04-19T10:11:10Z</time></trkpt><trkpt lat="42.9816784419765" lon="12.034910409238284"><ele>310.0</ele><time>2026-04-19T10:11:11Z</time></trkpt><trkpt lat="42.98167338965079" lon="12.034769031670205"><ele>310.0</ele><time>2026-04-19T10:11:12Z</time></trkpt><trkpt lat="42.98168120103347" lon="12.034633045373413"><ele>312.6</ele><time>2026-04-19T10:11:13Z</time></trkpt><trkpt lat="42.98170509029989" lon="12.034494829317811"><ele>315.2</ele><time>2026-04-19T10:11:14Z</time></trkpt><trkpt lat="42.981736740827614" lon="12.034360570665742"><ele>317.79999999999995</ele><time>2026-04-19T10:11:15Z</time></trkpt><trkpt lat="42.98177672132126" lon="12.034215614889463"><ele>320.4</ele><time>2026-04-19T10:11:16Z</time></trkpt><trkpt lat="42.981813286578" lon="12.034088437188169"><ele>323.0</ele><time>2026-04-19T10:11:17Z</time></trkpt><trkpt lat="42.98184109780803" lon="12.033969910237879"><ele>323.5</ele><time>2026-04-19T10:11:18Z</time></trkpt><trkpt lat="42.98185596526645" lon="12.033855301405477"><ele>324.0</ele><time>2026-04-19T10:11:19Z</time></trkpt><trkpt lat="42.98186824589118" lon="12.03376206953428"><ele>324.5</ele><time>2026-04-19T10:11:20Z</time></trkpt><trkpt lat="42.981859400793915" lon="12.033650232332597"><ele>325.0</ele><time>2026-04-19T10:11:22Z</time></trkpt><trkpt lat="42.98181955382114" lon="12.033551444488626"><ele>325.5</ele><time>2026-04-19T10:11:24Z</time></trkpt><trkpt lat="42.98171599028122" lon="12.033452863472752"><ele>326.0</ele><time>2026-04-19T10:11:26Z</time></trkpt><trkpt lat="42.98164036037874" lon="12.033423489670009"><ele>321.8</ele><time>2026-04-19T10:11:27Z</time></trkpt><trkpt lat="42.98155035051506" lon="12.033404044856796"><ele>317.6</ele><time>2026-04-19T10:11:28Z</time></trkpt><trkpt lat="42.98144790387755" lon="12.033399530926845"><ele>313.4</ele><time>2026-04-19T10:11:29Z</time></trkpt><trkpt lat="42.98135323652477" lon="12.033404282773438"><ele>309.2</ele><time>2026-04-19T10:11:30Z</time></trkpt><trkpt lat="42.98126750218065" lon="12.033410224366184"><ele>305.0</ele><time>2026-04-19T10:11:31Z</time></trkpt><trkpt lat="42.981177690303774" lon="12.03341492447941"><ele>305.0</ele><time>2026-04-19T10:11:32Z</time></trkpt><trkpt lat="42.981094817895325" lon="12.03342002330302"><ele>305.0</ele><time>2026-04-19T10:11:33Z</time></trkpt><trkpt lat="42.98100887538282" lon="12.033422472904498"><ele>305.0</ele><time>2026-04-19T10:11:34Z</time></trkpt><trkpt lat="42.980922491091306" lon="12.033429596241943"><ele>305.0</ele><time>2026-04-19T10:11:35Z</time></trkpt><trkpt lat="42.980854525145496" lon="12.03343436785808"><ele>305.0</ele><time>2026-04-19T10:11:36Z</time></trkpt><trkpt lat="42.98075654431764" lon="12.033425315406358"><ele>305.0</ele><time>2026-04-19T10:11:38Z</time></trkpt><trkpt lat="42.980664059971076" lon="12.03340810716469"><ele>305.0</ele><time>2026-04-19T10:11:40Z</time></trkpt><trkpt lat="42.98063644017449" lon="12.03350167829328"><ele>305.0</ele><time>2026-04-19T10:11:43Z</time></trkpt><trkpt lat="42.98067517070958" lon="12.033570170035992"><ele>305.0</ele><time>2026-04-19T10:11:45Z</time></trkpt><trkpt lat="42.98074965869556" lon="12.033552861166108"><ele>305.0</ele><time>2026-04-19T10:11:47Z</time></trkpt><trkpt lat="42.980812864050016" lon="12.033450556903885"><ele>305.0</ele><time>2026-04-19T10:11:49Z</time></trkpt><trkpt lat="42.98088699356924" lon="12.033404370082637"><ele>305.0</ele><time>2026-04-19T10:11:51Z</time></trkpt><trkpt lat="42.98101584587201" lon="12.033410988842778"><ele>305.0</ele><time>2026-04-19T10:11:53Z</time></trkpt><trkpt lat="42.98111133248705" lon="12.03341608797222"><ele>305.0</ele><time>2026-04-19T10:11:54Z</time></trkpt><trkpt lat="42.98125213546044" lon="12.033409746477442"><ele>305.0</ele><time>2026-04-19T10:11:55Z</time></trkpt><trkpt lat="42.981401434605985" lon="12.033409513588326"><ele>305.0</ele><time>2026-04-19T10:11:56Z</time></trkpt><trkpt lat="42.98151518554812" lon="12.033406350219039"><ele>305.0</ele><time>2026-04-19T10:11:57Z</time></trkpt><trkpt lat="42.9816140660231" lon="12.033421204871173"><ele>305.0</ele><time>2026-04-19T10:11:58Z</time></trkpt><trkpt lat="42.98169906880322" lon="12.033451259702826"><ele>305.0</ele><time>2026-04-19T10:11:59Z</time></trkpt><trkpt lat="42.98176026743018" lon="12.033488081658787"><ele>305.0</ele><time>2026-04-19T10:12:00Z</time></trkpt><trkpt lat="42.98183226348282" lon="12.033538769074113"><ele>305.0</ele><time>2026-04-19T10:12:02Z</time></trkpt><trkpt lat="42.981920136049524" lon="12.033512706383041"><ele>305.0</ele><time>2026-04-19T10:12:06Z</time></trkpt><trkpt lat="42.98198232454331" lon="12.033449521644867"><ele>309.2</ele><time>2026-04-19T10:12:09Z</time></trkpt><trkpt lat="42.98200666614011" lon="12.033348091254854"><ele>313.4</ele><time>2026-04-19T10:12:11Z</time></trkpt><trkpt lat="42.98199944902066" lon="12.033199708737682"><ele>317.6</ele><time>2026-04-19T10:12:13Z</time></trkpt><trkpt lat="42.98199851687556" lon="12.033082067366422"><ele>321.8</ele><time>2026-04-19T10:12:14Z</time></trkpt><trkpt lat="42.98198664199733" lon="12.032949871075784"><ele>326.0</ele><time>2026-04-19T10:12:15Z</time></trkpt><trkpt lat="42.98197208520253" lon="12.03280815619268"><ele>326.20000000000005</ele><time>2026-04-19T10:12:16Z</time></trkpt><trkpt lat="42.981937028634775" lon="12.032684776631347"><ele>326.40000000000003</ele><time>2026-04-19T10:12:17Z</time></trkpt><trkpt lat="42.98189912650021" lon="12.032566435478177"><ele>326.6</ele><time>2026-04-19T10:12:18Z</time></trkpt><trkpt lat="42.98187694641453" lon="12.0324392899093"><ele>326.8</ele><time>2026-04-19T10:12:19Z</time></trkpt><trkpt lat="42.98187524757379" lon="12.032299926992971"><ele>327.0</ele><time>2026-04-19T10:12:20Z</time></trkpt><trkpt lat="42.98189416935316" lon="12.0321307242736"><ele>327.25</ele><time>2026-04-19T10:12:21Z</time></trkpt><trkpt lat="42.98192412615211" lon="12.03195130619909"><ele>327.5</ele><time>2026-04-19T10:12:22Z</time></trkpt><trkpt lat="42.98195353522344" lon="12.031773930806144"><ele>327.75</ele><time>2026-04-19T10:12:23Z</time></trkpt><trkpt lat="42.98198120937149" lon="12.031579986223516"><ele>328.0</ele><time>2026-04-19T10:12:24Z</time></trkpt><trkpt lat="42.981992801396906" lon="12.03138464003697"><ele>327.5</ele><time>2026-04-19T10:12:25Z</time></trkpt><trkpt lat="42.98199728233341" lon="12.03118622623333"><ele>327.0</ele><time>2026-04-19T10:12:26Z</time></trkpt><trkpt lat="42.98199544740825" lon="12.031001880388017"><ele>326.5</ele><time>2026-04-19T10:12:27Z</time></trkpt><trkpt lat="42.98200050311651" lon="12.030826656494478"><ele>326.0</ele><time>2026-04-19T10:12:28Z</time></trkpt><trkpt lat="42.98201588631184" lon="12.030648248551506"><ele>324.0</ele><time>2026-04-19T10:12:29Z</time></trkpt><trkpt lat="42.98204670928231" lon="12.030465498832095"><ele>322.0</ele><time>2026-04-19T10:12:30Z</time></trkpt><trkpt lat="42.982070856022304" lon="12.030294149921755"><ele>320.0</ele><time>2026-04-19T10:12:31Z</time></trkpt><trkpt lat="42.98208965879952" lon="12.030103879182425"><ele>318.0</ele><time>2026-04-19T10:12:32Z</time></trkpt><trkpt lat="42.98209591376272" lon="12.0299352936028"><ele>316.25</ele><time>2026-04-19T10:12:33Z</time></trkpt><trkpt lat="42.982097810843804" lon="12.02974919427013"><ele>314.5</ele><time>2026-04-19T10:12:34Z</time></trkpt><trkpt lat="42.98210938727967" lon="12.029545076792461"><ele>312.75</ele><time>2026-04-19T10:12:35Z</time></trkpt><trkpt lat="42.98212857983589" lon="12.029340651148301"><ele>311.0</ele><time>2026-04-19T10:12:36Z</time></trkpt><trkpt lat="42.98213863485257" lon="12.029133673364528"><ele>311.0</ele><time>2026-04-19T10:12:37Z</time></trkpt><trkpt lat="42.98214799123732" lon="12.028923895545704"><ele>311.0</ele><time>2026-04-19T10:12:38Z</time></trkpt><trkpt lat="42.98215946418747" lon="12.028715614044783"><ele>311.0</ele><time>2026-04-19T10:12:39Z</time></trkpt><trkpt lat="42.982172475312545" lon="12.028523422227547"><ele>311.0</ele><time>2026-04-19T10:12:40Z</time></trkpt><trkpt lat="42.98218477159463" lon="12.028320177007279"><ele>311.5</ele><time>2026-04-19T10:12:41Z</time></trkpt><trkpt lat="42.98219651396547" lon="12.028112123848425"><ele>312.0</ele><time>2026-04-19T10:12:42Z</time></trkpt><trkpt lat="42.982215516980375" lon="12.027913478287953"><ele>312.5</ele><time>2026-04-19T10:12:43Z</time></trkpt><trkpt lat="42.98222630516193" lon="12.027721712181862"><ele>313.0</ele><time>2026-04-19T10:12:44Z</time></trkpt><trkpt lat="42.982232477640096" lon="12.02753847890924"><ele>312.75</ele><time>2026-04-19T10:12:45Z</time></trkpt><trkpt lat="42.98224415860559" lon="12.02736108969101"><ele>312.5</ele><time>2026-04-19T10:12:46Z</time></trkpt><trkpt lat="42.98225599714123" lon="12.02717549351415"><ele>312.25</ele><time>2026-04-19T10:12:47Z</time></trkpt><trkpt lat="42.982269416365554" lon="12.026983701643518"><ele>312.0</ele><time>2026-04-19T10:12:48Z</time></trkpt><trkpt lat="42.98227904973128" lon="12.02679386429919"><ele>313.25</ele><time>2026-04-19T10:12:49Z</time></trkpt><trkpt lat="42.982288178462085" lon="12.026606614064955"><ele>314.5</ele><time>2026-04-19T10:12:50Z</time></trkpt><trkpt lat="42.982293540802644" lon="12.02641872574906"><ele>315.75</ele><time>2026-04-19T10:12:51Z</time></trkpt><trkpt lat="42.98229881105865" lon="12.026219558658413"><ele>317.0</ele><time>2026-04-19T10:12:52Z</time></trkpt><trkpt lat="42.98230302704538" lon="12.026030203375248"><ele>317.0</ele><time>2026-04-19T10:12:53Z</time></trkpt><trkpt lat="42.98230549618618" lon="12.02583057175608"><ele>317.0</ele><time>2026-04-19T10:12:54Z</time></trkpt><trkpt lat="42.98231583125107" lon="12.025588198499824"><ele>317.0</ele><time>2026-04-19T10:12:55Z</time></trkpt><trkpt lat="42.982330668717026" lon="12.025368952829538"><ele>317.2</ele><time>2026-04-19T10:12:56Z</time></trkpt><trkpt lat="42.982332519453024" lon="12.025192055489041"><ele>317.4</ele><time>2026-04-19T10:12:57Z</time></trkpt><trkpt lat="42.98233261366543" lon="12.02503131924386"><ele>317.6</ele><time>2026-04-19T10:12:58Z</time></trkpt><trkpt lat="42.98231905179815" lon="12.024889892530306"><ele>317.8</ele><time>2026-04-19T10:12:59Z</time></trkpt><trkpt lat="42.9823084417492" lon="12.02477188821142"><ele>318.0</ele><time>2026-04-19T10:13:00Z</time></trkpt><trkpt lat="42.98230230870852" lon="12.02466493684885"><ele>318.0</ele><time>2026-04-19T10:13:01Z</time></trkpt><trkpt lat="42.98230252152778" lon="12.024574163199707"><ele>318.0</ele><time>2026-04-19T10:13:02Z</time></trkpt><trkpt lat="42.98230828869023" lon="12.024444814533691"><ele>318.0</ele><time>2026-04-19T10:13:04Z</time></trkpt><trkpt lat="42.98225060098924" lon="12.024388026878292"><ele>318.0</ele><time>2026-04-19T10:13:06Z</time></trkpt><trkpt lat="42.98213667266296" lon="12.024407019100535"><ele>318.0</ele><time>2026-04-19T10:13:08Z</time></trkpt><trkpt lat="42.98204892405182" lon="12.0244317902637"><ele>318.0</ele><time>2026-04-19T10:13:09Z</time></trkpt><trkpt lat="42.98194979177622" lon="12.024449638246306"><ele>318.0</ele><time>2026-04-19T10:13:10Z</time></trkpt><trkpt lat="42.98184244977864" lon="12.024465190640488"><ele>318.0</ele><time>2026-04-19T10:13:11Z</time></trkpt><trkpt lat="42.98171871022617" lon="12.02447563416587"><ele>318.0</ele><time>2026-04-19T10:13:12Z</time></trkpt><trkpt lat="42.98159490790037" lon="12.024487655127503"><ele>318.0</ele><time>2026-04-19T10:13:13Z</time></trkpt><trkpt lat="42.98151940158102" lon="12.024499214792916"><ele>318.0</ele><time>2026-04-19T10:13:14Z</time></trkpt><trkpt lat="42.981451735017835" lon="12.024515987755372"><ele>319.3333333333333</ele><time>2026-04-19T10:13:15Z</time></trkpt><trkpt lat="42.98137514425963" lon="12.024515255989247"><ele>320.6666666666667</ele><time>2026-04-19T10:13:16Z</time></trkpt><trkpt lat="42.98128870392672" lon="12.024500356012028"><ele>322.0</ele><time>2026-04-19T10:13:17Z</time></trkpt><trkpt lat="42.981223687409894" lon="12.024479123497212"><ele>323.33333333333337</ele><time>2026-04-19T10:13:18Z</time></trkpt><trkpt lat="42.98111310478312" lon="12.024380407401418"><ele>324.6666666666667</ele><time>2026-04-19T10:13:20Z</time></trkpt><trkpt lat="42.981052959232834" lon="12.024327892787763"><ele>326.0</ele><time>2026-04-19T10:13:21Z</time></trkpt><trkpt lat="42.98099690824142" lon="12.02428689810797"><ele>326.0</ele><time>2026-04-19T10:13:22Z</time></trkpt><trkpt lat="42.98092988815832" lon="12.024248147887718"><ele>326.0</ele><time>2026-04-19T10:13:23Z</time></trkpt><trkpt lat="42.98086076072864" lon="12.024207542501665"><ele>326.0</ele><time>2026-04-19T10:13:24Z</time></trkpt><trkpt lat="42.98077788406374" lon="12.024167004176393"><ele>326.0</ele><time>2026-04-19T10:13:25Z</time></trkpt><trkpt lat="42.9806826816061" lon="12.024111626062972"><ele>326.0</ele><time>2026-04-19T10:13:26Z</time></trkpt><trkpt lat="42.98057303262631" lon="12.024056888166223"><ele>331.5</ele><time>2026-04-19T10:13:27Z</time></trkpt><trkpt lat="42.98046394258551" lon="12.024001152980066"><ele>337.0</ele><time>2026-04-19T10:13:28Z</time></trkpt><trkpt lat="42.98035867249394" lon="12.023943283009263"><ele>342.5</ele><time>2026-04-19T10:13:29Z</time></trkpt><trkpt lat="42.980250259001274" lon="12.023881077949417"><ele>348.0</ele><time>2026-04-19T10:13:30Z</time></trkpt><trkpt lat="42.98014429638056" lon="12.023824947481836"><ele>348.0</ele><time>2026-04-19T10:13:31Z</time></trkpt><trkpt lat="42.98003675283915" lon="12.023768166523544"><ele>348.0</ele><time>2026-04-19T10:13:32Z</time></trkpt><trkpt lat="42.97992508086794" lon="12.023708476232219"><ele>348.0</ele><time>2026-04-19T10:13:33Z</time></trkpt><trkpt lat="42.97978932893581" lon="12.02363051651014"><ele>348.0</ele><time>2026-04-19T10:13:34Z</time></trkpt><trkpt lat="42.979680360862794" lon="12.023572744319338"><ele>350.5</ele><time>2026-04-19T10:13:35Z</time></trkpt><trkpt lat="42.979580277205535" lon="12.023523722984846"><ele>353.0</ele><time>2026-04-19T10:13:36Z</time></trkpt><trkpt lat="42.97947785475455" lon="12.023472794750825"><ele>355.5</ele><time>2026-04-19T10:13:37Z</time></trkpt><trkpt lat="42.97937169357072" lon="12.023418179812063"><ele>358.0</ele><time>2026-04-19T10:13:38Z</time></trkpt><trkpt lat="42.979242287903375" lon="12.02334507315217"><ele>359.59999999999997</ele><time>2026-04-19T10:13:39Z</time></trkpt><trkpt lat="42.97913078036877" lon="12.02328770405531"><ele>361.2</ele><time>2026-04-19T10:13:40Z</time></trkpt><trkpt lat="42.97903560341008" lon="12.023232986807356"><ele>362.8</ele><time>2026-04-19T10:13:41Z</time></trkpt><trkpt lat="42.97894845325872" lon="12.023179499486545"><ele>364.4</ele><time>2026-04-19T10:13:42Z</time></trkpt><trkpt lat="42.97885406749942" lon="12.02312501067947"><ele>366.0</ele><time>2026-04-19T10:13:43Z</time></trkpt><trkpt lat="42.978766745933044" lon="12.023070490124066"><ele>366.0</ele><time>2026-04-19T10:13:44Z</time></trkpt><trkpt lat="42.97868915808021" lon="12.023024494106748"><ele>366.0</ele><time>2026-04-19T10:13:45Z</time></trkpt><trkpt lat="42.97860612088205" lon="12.022982621391069"><ele>366.0</ele><time>2026-04-19T10:13:46Z</time></trkpt><trkpt lat="42.978521238830574" lon="12.02294232518084"><ele>366.0</ele><time>2026-04-19T10:13:47Z</time></trkpt><trkpt lat="42.978466210211884" lon="12.02289089543034"><ele>366.0</ele><time>2026-04-19T10:13:48Z</time></trkpt><trkpt lat="42.97839988560304" lon="12.022839265887015"><ele>366.0</ele><time>2026-04-19T10:13:49Z</time></trkpt><trkpt lat="42.97832158686602" lon="12.022779798384809"><ele>368.0</ele><time>2026-04-19T10:13:50Z</time></trkpt><trkpt lat="42.97823835464495" lon="12.02271642749443"><ele>370.0</ele><time>2026-04-19T10:13:51Z</time></trkpt><trkpt lat="42.978155534804976" lon="12.022644732955321"><ele>372.0</ele><time>2026-04-19T10:13:52Z</time></trkpt><trkpt lat="42.97806640874589" lon="12.022595049466402"><ele>374.0</ele><time>2026-04-19T10:13:53Z</time></trkpt><trkpt lat="42.97794764545022" lon="12.0225454887308"><ele>376.0</ele><time>2026-04-19T10:13:54Z</time></trkpt><trkpt lat="42.977849466927836" lon="12.022518583146603"><ele>376.0</ele><time>2026-04-19T10:13:55Z</time></trkpt><trkpt lat="42.977764690079525" lon="12.0224948130731"><ele>376.0</ele><time>2026-04-19T10:13:56Z</time></trkpt><trkpt lat="42.977688571471546" lon="12.02244740429439"><ele>376.0</ele><time>2026-04-19T10:13:57Z</time></trkpt><trkpt lat="42.97760506148194" lon="12.022381415704245"><ele>376.0</ele><time>2026-04-19T10:13:58Z</time></trkpt><trkpt lat="42.977536799179525" lon="12.022322715956582"><ele>376.0</ele><time>2026-04-19T10:13:59Z</time></trkpt><trkpt lat="42.97745914349422" lon="12.022257859903782"><ele>376.0</ele><time>2026-04-19T10:14:00Z</time></trkpt><trkpt lat="42.97738807398142" lon="12.022215792821264"><ele>377.4</ele><time>2026-04-19T10:14:01Z</time></trkpt><trkpt lat="42.977314038351295" lon="12.02217597921408"><ele>378.8</ele><time>2026-04-19T10:14:02Z</time></trkpt><trkpt lat="42.97723340033641" lon="12.022124742897901"><ele>380.2</ele><time>2026-04-19T10:14:03Z</time></trkpt><trkpt lat="42.97716069889674" lon="12.022067032110318"><ele>381.59999999999997</ele><time>2026-04-19T10:14:04Z</time></trkpt><trkpt lat="42.9771007466261" lon="12.022008591451257"><ele>383.0</ele><time>2026-04-19T10:14:05Z</time></trkpt><trkpt lat="42.97696543933957" lon="12.0219806169302"><ele>383.0</ele><time>2026-04-19T10:14:07Z</time></trkpt><trkpt lat="42.97687290917592" lon="12.02197156924422"><ele>383.0</ele><time>2026-04-19T10:14:08Z</time></trkpt><trkpt lat="42.97678528993213" lon="12.021974620751136"><ele>383.0</ele><time>2026-04-19T10:14:09Z</time></trkpt><trkpt lat="42.9767158123646" lon="12.02199745822404"><ele>383.0</ele><time>2026-04-19T10:14:10Z</time></trkpt><trkpt lat="42.97664140807641" lon="12.0220386411601"><ele>383.0</ele><time>2026-04-19T10:14:12Z</time></trkpt><trkpt lat="42.9765587492249" lon="12.022053281531784"><ele>383.0</ele><time>2026-04-19T10:14:14Z</time></trkpt><trkpt lat="42.976456064852606" lon="12.022011011498865"><ele>386.1666666666667</ele><time>2026-04-19T10:14:16Z</time></trkpt><trkpt lat="42.976386911764905" lon="12.021969020348562"><ele>389.33333333333337</ele><time>2026-04-19T10:14:17Z</time></trkpt><trkpt lat="42.97630155142312" lon="12.021937451605945"><ele>392.5</ele><time>2026-04-19T10:14:18Z</time></trkpt><trkpt lat="42.976218294007325" lon="12.021903364794543"><ele>395.6666666666667</ele><time>2026-04-19T10:14:19Z</time></trkpt><trkpt lat="42.976136312663115" lon="12.021872489158461"><ele>398.8333333333333</ele><time>2026-04-19T10:14:20Z</time></trkpt><trkpt lat="42.97607273674262" lon="12.021850574305033"><ele>402.0</ele><time>2026-04-19T10:14:21Z</time></trkpt><trkpt lat="42.97599786474163" lon="12.021816599589451"><ele>402.0</ele><time>2026-04-19T10:14:22Z</time></trkpt><trkpt lat="42.97592754157125" lon="12.021770496753005"><ele>402.0</ele><time>2026-04-19T10:14:23Z</time></trkpt><trkpt lat="42.97585376579411" lon="12.021716116147267"><ele>402.0</ele><time>2026-04-19T10:14:24Z</time></trkpt><trkpt lat="42.975792583608055" lon="12.02166886743493"><ele>402.0</ele><time>2026-04-19T10:14:25Z</time></trkpt><trkpt lat="42.97573639226008" lon="12.021619012113398"><ele>402.0</ele><time>2026-04-19T10:14:26Z</time></trkpt><trkpt lat="42.975669420950624" lon="12.021409258861755"><ele>403.8333333333333</ele><time>2026-04-19T10:14:28Z</time></trkpt><trkpt lat="42.97559153319615" lon="12.021384024226435"><ele>405.66666666666663</ele><time>2026-04-19T10:14:29Z</time></trkpt><trkpt lat="42.97551248882547" lon="12.021363789776386"><ele>407.5</ele><time>2026-04-19T10:14:30Z</time></trkpt><trkpt lat="42.975433843200015" lon="12.02134440244473"><ele>409.3333333333333</ele><time>2026-04-19T10:14:31Z</time></trkpt><trkpt lat="42.9753604687373" lon="12.02132147519351"><ele>411.16666666666663</ele><time>2026-04-19T10:14:32Z</time></trkpt><trkpt lat="42.975278263670084" lon="12.021292890126485"><ele>413.0</ele><time>2026-04-19T10:14:33Z</time></trkpt><trkpt lat="42.975211360395704" lon="12.021271101329432"><ele>413.0</ele><time>2026-04-19T10:14:34Z</time></trkpt><trkpt lat="42.97514773514785" lon="12.021253103590121"><ele>413.0</ele><time>2026-04-19T10:14:35Z</time></trkpt><trkpt lat="42.97505028702777" lon="12.021225538438962"><ele>413.0</ele><time>2026-04-19T10:14:37Z</time></trkpt><trkpt lat="42.97493258499753" lon="12.021210001158126"><ele>413.0</ele><time>2026-04-19T10:14:39Z</time></trkpt><trkpt lat="42.974811677981265" lon="12.021178618104937"><ele>413.0</ele><time>2026-04-19T10:14:41Z</time></trkpt><trkpt lat="42.974718265689816" lon="12.02116320428455"><ele>414.3333333333333</ele><time>2026-04-19T10:14:50Z</time></trkpt><trkpt lat="42.974664071638394" lon="12.02111492483267"><ele>415.66666666666663</ele><time>2026-04-19T10:14:51Z</time></trkpt><trkpt lat="42.97458979085986" lon="12.021091254923306"><ele>417.0</ele><time>2026-04-19T10:14:52Z</time></trkpt><trkpt lat="42.97449812329651" lon="12.021075430624126"><ele>418.33333333333337</ele><time>2026-04-19T10:14:54Z</time></trkpt><trkpt lat="42.97447914246381" lon="12.020982860518048"><ele>419.6666666666667</ele><time>2026-04-19T10:14:57Z</time></trkpt><trkpt lat="42.9744937288861" lon="12.020896634705885"><ele>421.0</ele><time>2026-04-19T10:14:59Z</time></trkpt><trkpt lat="42.974579066369174" lon="12.020681207719772"><ele>421.0</ele><time>2026-04-19T10:15:01Z</time></trkpt><trkpt lat="42.97458177160502" lon="12.020539225653666"><ele>421.0</ele><time>2026-04-19T10:15:02Z</time></trkpt><trkpt lat="42.974595280583245" lon="12.020389752164538"><ele>421.0</ele><time>2026-04-19T10:15:03Z</time></trkpt><trkpt lat="42.974600041650824" lon="12.020249027326873"><ele>421.0</ele><time>2026-04-19T10:15:04Z</time></trkpt><trkpt lat="42.97460028032188" lon="12.02010115788627"><ele>421.0</ele><time>2026-04-19T10:15:05Z</time></trkpt><trkpt lat="42.974620382659914" lon="12.019930677943497"><ele>420.25</ele><time>2026-04-19T10:15:06Z</time></trkpt><trkpt lat="42.97460903371206" lon="12.019747375240106"><ele>419.5</ele><time>2026-04-19T10:15:07Z</time></trkpt><trkpt lat="42.97456092359803" lon="12.019556549642395"><ele>418.75</ele><time>2026-04-19T10:15:08Z</time></trkpt><trkpt lat="42.97454019784176" lon="12.01935825656001"><ele>418.0</ele><time>2026-04-19T10:15:09Z</time></trkpt><trkpt lat="42.974523988297776" lon="12.019182495422605"><ele>417.5</ele><time>2026-04-19T10:15:10Z</time></trkpt><trkpt lat="42.97450805975126" lon="12.019008753725382"><ele>417.0</ele><time>2026-04-19T10:15:11Z</time></trkpt><trkpt lat="42.97450681983921" lon="12.018810369435387"><ele>416.5</ele><time>2026-04-19T10:15:12Z</time></trkpt><trkpt lat="42.97448045579651" lon="12.01860404138692"><ele>416.0</ele><time>2026-04-19T10:15:13Z</time></trkpt><trkpt lat="42.97445576435781" lon="12.01842199719769"><ele>416.25</ele><time>2026-04-19T10:15:14Z</time></trkpt><trkpt lat="42.974429361383066" lon="12.018250263384706"><ele>416.5</ele><time>2026-04-19T10:15:15Z</time></trkpt><trkpt lat="42.9744004125849" lon="12.018086520526763"><ele>416.75</ele><time>2026-04-19T10:15:16Z</time></trkpt><trkpt lat="42.974369955462855" lon="12.017934651727046"><ele>417.0</ele><time>2026-04-19T10:15:17Z</time></trkpt><trkpt lat="42.97434313897056" lon="12.01780130281971"><ele>417.0</ele><time>2026-04-19T10:15:18Z</time></trkpt><trkpt lat="42.97431496033239" lon="12.01766118165248"><ele>417.0</ele><time>2026-04-19T10:15:19Z</time></trkpt><trkpt lat="42.97427318886096" lon="12.017512658742522"><ele>417.0</ele><time>2026-04-19T10:15:20Z</time></trkpt><trkpt lat="42.97421901693643" lon="12.017392868439222"><ele>417.0</ele><time>2026-04-19T10:15:21Z</time></trkpt><trkpt lat="42.97419501252582" lon="12.017270369364773"><ele>417.0</ele><time>2026-04-19T10:15:22Z</time></trkpt><trkpt lat="42.9741436919418" lon="12.017160557865136"><ele>421.5</ele><time>2026-04-19T10:15:23Z</time></trkpt><trkpt lat="42.9740605568974" lon="12.017093134599728"><ele>426.0</ele><time>2026-04-19T10:15:24Z</time></trkpt><trkpt lat="42.974006698170314" lon="12.01699132861154"><ele>430.5</ele><time>2026-04-19T10:15:25Z</time></trkpt><trkpt lat="42.97391692933253" lon="12.016871880007338"><ele>435.0</ele><time>2026-04-19T10:15:26Z</time></trkpt><trkpt lat="42.973815897704434" lon="12.01673008973362"><ele>434.2</ele><time>2026-04-19T10:15:27Z</time></trkpt><trkpt lat="42.973726513490305" lon="12.016599446542358"><ele>433.4</ele><time>2026-04-19T10:15:28Z</time></trkpt><trkpt lat="42.97366726493121" lon="12.016506702207955"><ele>432.6</ele><time>2026-04-19T10:15:29Z</time></trkpt><trkpt lat="42.97362559481955" lon="12.016428501281997"><ele>431.8</ele><time>2026-04-19T10:15:30Z</time></trkpt><trkpt lat="42.97358668211982" lon="12.016303750191424"><ele>431.0</ele><time>2026-04-19T10:15:32Z</time></trkpt><trkpt lat="42.973580169601966" lon="12.016169899307238"><ele>430.99999999999994</ele><time>2026-04-19T10:15:34Z</time></trkpt><trkpt lat="42.97360808741936" lon="12.016009963365857"><ele>431.0</ele><time>2026-04-19T10:15:36Z</time></trkpt><trkpt lat="42.97362727442527" lon="12.015913133158993"><ele>431.0</ele><time>2026-04-19T10:15:37Z</time></trkpt><trkpt lat="42.97363023011239" lon="12.015817760558473"><ele>431.0</ele><time>2026-04-19T10:15:38Z</time></trkpt><trkpt lat="42.973634628200486" lon="12.01573110131373"><ele>430.99999999999994</ele><time>2026-04-19T10:15:39Z</time></trkpt><trkpt lat="42.97362181279495" lon="12.015612826106237"><ele>431.0</ele><time>2026-04-19T10:15:40Z</time></trkpt><trkpt lat="42.97362200390889" lon="12.015468734018466"><ele>429.75</ele><time>2026-04-19T10:15:41Z</time></trkpt><trkpt lat="42.97360501381298" lon="12.01530104471361"><ele>428.5</ele><time>2026-04-19T10:15:42Z</time></trkpt><trkpt lat="42.97358773670652" lon="12.015130523057236"><ele>427.25</ele><time>2026-04-19T10:15:43Z</time></trkpt><trkpt lat="42.973572513504195" lon="12.014960563278189"><ele>426.0</ele><time>2026-04-19T10:15:44Z</time></trkpt><trkpt lat="42.9735578660963" lon="12.01478167500844"><ele>425.25</ele><time>2026-04-19T10:15:45Z</time></trkpt><trkpt lat="42.97354197709547" lon="12.014607571432894"><ele>424.5</ele><time>2026-04-19T10:15:46Z</time></trkpt><trkpt lat="42.97352342901593" lon="12.014437635006809"><ele>423.75</ele><time>2026-04-19T10:15:47Z</time></trkpt><trkpt lat="42.97350371982954" lon="12.014280826118965"><ele>423.0</ele><time>2026-04-19T10:15:48Z</time></trkpt><trkpt lat="42.97348182930509" lon="12.014122039640881"><ele>421.75</ele><time>2026-04-19T10:15:49Z</time></trkpt><trkpt lat="42.97345859100509" lon="12.013968819725864"><ele>420.5</ele><time>2026-04-19T10:15:50Z</time></trkpt><trkpt lat="42.97343246327996" lon="12.013812674374392"><ele>419.25</ele><time>2026-04-19T10:15:51Z</time></trkpt><trkpt lat="42.973398608034394" lon="12.013654283347615"><ele>418.0</ele><time>2026-04-19T10:15:52Z</time></trkpt><trkpt lat="42.97333540080903" lon="12.013502477259886"><ele>421.25</ele><time>2026-04-19T10:15:53Z</time></trkpt><trkpt lat="42.97329679412668" lon="12.013336221953892"><ele>424.5</ele><time>2026-04-19T10:15:54Z</time></trkpt><trkpt lat="42.973240413494246" lon="12.013181703887525"><ele>427.75</ele><time>2026-04-19T10:15:55Z</time></trkpt><trkpt lat="42.97318568553947" lon="12.013035790690902"><ele>431.0</ele><time>2026-04-19T10:15:56Z</time></trkpt><trkpt lat="42.97312095635368" lon="12.012914043593625"><ele>431.0</ele><time>2026-04-19T10:15:57Z</time></trkpt><trkpt lat="42.97309591182518" lon="12.012794563886146"><ele>431.0</ele><time>2026-04-19T10:15:58Z</time></trkpt><trkpt lat="42.97304380006481" lon="12.01267238748203"><ele>431.0</ele><time>2026-04-19T10:15:59Z</time></trkpt><trkpt lat="42.97297335081043" lon="12.012554651336426"><ele>431.0</ele><time>2026-04-19T10:16:00Z</time></trkpt><trkpt lat="42.972891144385244" lon="12.012443237510878"><ele>431.0</ele><time>2026-04-19T10:16:01Z</time></trkpt><trkpt lat="42.97280596148791" lon="12.012315866133369"><ele>428.75</ele><time>2026-04-19T10:16:02Z</time></trkpt><trkpt lat="42.972699729226555" lon="12.012175201257685"><ele>426.5</ele><time>2026-04-19T10:16:03Z</time></trkpt><trkpt lat="42.97262069880969" lon="12.012034696047172"><ele>424.25</ele><time>2026-04-19T10:16:04Z</time></trkpt><trkpt lat="42.972541588670275" lon="12.011900224325426"><ele>422.0</ele><time>2026-04-19T10:16:05Z</time></trkpt><trkpt lat="42.97245967882079" lon="12.011771646423394"><ele>426.8</ele><time>2026-04-19T10:16:06Z</time></trkpt><trkpt lat="42.97240210787082" lon="12.011643313291101"><ele>431.6</ele><time>2026-04-19T10:16:07Z</time></trkpt><trkpt lat="42.97234242601864" lon="12.011533296180291"><ele>436.40000000000003</ele><time>2026-04-19T10:16:08Z</time></trkpt><trkpt lat="42.97227765527008" lon="12.011438345196533"><ele>441.20000000000005</ele><time>2026-04-19T10:16:09Z</time></trkpt><trkpt lat="42.97221819760066" lon="12.01135190318574"><ele>446.0</ele><time>2026-04-19T10:16:10Z</time></trkpt><trkpt lat="42.97217618781267" lon="12.011238736134622"><ele>446.0</ele><time>2026-04-19T10:16:11Z</time></trkpt><trkpt lat="42.972164374922826" lon="12.01109296181732"><ele>446.0</ele><time>2026-04-19T10:16:12Z</time></trkpt><trkpt lat="42.97214550955584" lon="12.010910337642036"><ele>446.0</ele><time>2026-04-19T10:16:13Z</time></trkpt><trkpt lat="42.972114651437266" lon="12.010733762402063"><ele>446.0</ele><time>2026-04-19T10:16:14Z</time></trkpt><trkpt lat="42.97212036605435" lon="12.010565145083854"><ele>445.75</ele><time>2026-04-19T10:16:15Z</time></trkpt><trkpt lat="42.9720952442437" lon="12.01040372644772"><ele>445.5</ele><time>2026-04-19T10:16:16Z</time></trkpt><trkpt lat="42.97210895164102" lon="12.010237521795741"><ele>445.25</ele><time>2026-04-19T10:16:17Z</time></trkpt><trkpt lat="42.97210955647716" lon="12.010075107790815"><ele>445.0</ele><time>2026-04-19T10:16:18Z</time></trkpt><trkpt lat="42.97211167018064" lon="12.009928627929197"><ele>443.4</ele><time>2026-04-19T10:16:19Z</time></trkpt><trkpt lat="42.97209901617378" lon="12.009794637477434"><ele>441.8</ele><time>2026-04-19T10:16:20Z</time></trkpt><trkpt lat="42.972086695382046" lon="12.009659685138413"><ele>440.20000000000005</ele><time>2026-04-19T10:16:21Z</time></trkpt><trkpt lat="42.97206106570372" lon="12.009515960534939"><ele>438.6</ele><time>2026-04-19T10:16:22Z</time></trkpt><trkpt lat="42.97202534160076" lon="12.009367529730643"><ele>437.0</ele><time>2026-04-19T10:16:23Z</time></trkpt><trkpt lat="42.97197982317608" lon="12.009214788941804"><ele>436.0</ele><time>2026-04-19T10:16:24Z</time></trkpt><trkpt lat="42.97194275694973" lon="12.009049798061037"><ele>435.0</ele><time>2026-04-19T10:16:25Z</time></trkpt><trkpt lat="42.971882244432294" lon="12.008887950398753"><ele>434.0</ele><time>2026-04-19T10:16:26Z</time></trkpt><trkpt lat="42.971808137827416" lon="12.008751116173757"><ele>433.0</ele><time>2026-04-19T10:16:27Z</time></trkpt><trkpt lat="42.97174168709865" lon="12.0086004090475"><ele>437.0</ele><time>2026-04-19T10:16:28Z</time></trkpt><trkpt lat="42.97168002022083" lon="12.008459182048268"><ele>440.99999999999994</ele><time>2026-04-19T10:16:29Z</time></trkpt><trkpt lat="42.97163417093903" lon="12.008343888389957"><ele>444.99999999999994</ele><time>2026-04-19T10:16:30Z</time></trkpt><trkpt lat="42.97160161726044" lon="12.008226369119367"><ele>449.0</ele><time>2026-04-19T10:16:31Z</time></trkpt><trkpt lat="42.971544644967345" lon="12.008118417058553"><ele>453.0</ele><time>2026-04-19T10:16:32Z</time></trkpt><trkpt lat="42.97151729191599" lon="12.007971920330622"><ele>453.0</ele><time>2026-04-19T10:16:33Z</time></trkpt><trkpt lat="42.97150765885352" lon="12.007813282121374"><ele>452.99999999999994</ele><time>2026-04-19T10:16:34Z</time></trkpt><trkpt lat="42.97153982261408" lon="12.00767335251404"><ele>452.99999999999994</ele><time>2026-04-19T10:16:35Z</time></trkpt><trkpt lat="42.97154516732667" lon="12.00754867522935"><ele>453.0</ele><time>2026-04-19T10:16:36Z</time></trkpt><trkpt lat="42.97155097762917" lon="12.007416089088638"><ele>453.0</ele><time>2026-04-19T10:16:37Z</time></trkpt><trkpt lat="42.971557409226776" lon="12.007285278070214"><ele>452.59999999999997</ele><time>2026-04-19T10:16:38Z</time></trkpt><trkpt lat="42.971564370253944" lon="12.007143699106747"><ele>452.19999999999993</ele><time>2026-04-19T10:16:39Z</time></trkpt><trkpt lat="42.9715718149798" lon="12.006992282324324"><ele>451.8</ele><time>2026-04-19T10:16:40Z</time></trkpt><trkpt lat="42.97157898643977" lon="12.00684642334842"><ele>451.4</ele><time>2026-04-19T10:16:41Z</time></trkpt><trkpt lat="42.9715866596092" lon="12.006703672474938"><ele>451.0</ele><time>2026-04-19T10:16:42Z</time></trkpt><trkpt lat="42.97158083659797" lon="12.006565615341767"><ele>450.75</ele><time>2026-04-19T10:16:43Z</time></trkpt><trkpt lat="42.97158395710289" lon="12.00641089541262"><ele>450.5</ele><time>2026-04-19T10:16:44Z</time></trkpt><trkpt lat="42.9715703778151" lon="12.006247136039743"><ele>450.25</ele><time>2026-04-19T10:16:45Z</time></trkpt><trkpt lat="42.97154402309368" lon="12.006095152737856"><ele>450.0</ele><time>2026-04-19T10:16:46Z</time></trkpt><trkpt lat="42.97155405999578" lon="12.005951719978345"><ele>451.5</ele><time>2026-04-19T10:16:47Z</time></trkpt><trkpt lat="42.97155947414483" lon="12.005811984401605"><ele>453.0</ele><time>2026-04-19T10:16:48Z</time></trkpt><trkpt lat="42.97156987341516" lon="12.005644219063127"><ele>454.5</ele><time>2026-04-19T10:16:49Z</time></trkpt><trkpt lat="42.97158987042029" lon="12.005459001098966"><ele>456.0</ele><time>2026-04-19T10:16:50Z</time></trkpt><trkpt lat="42.97160507386425" lon="12.005268912850866"><ele>456.0</ele><time>2026-04-19T10:16:51Z</time></trkpt><trkpt lat="42.97160811059924" lon="12.00509147424683"><ele>456.0</ele><time>2026-04-19T10:16:52Z</time></trkpt><trkpt lat="42.971606800964025" lon="12.004949069115169"><ele>456.0</ele><time>2026-04-19T10:16:53Z</time></trkpt><trkpt lat="42.971611618297224" lon="12.004807740209893"><ele>456.0</ele><time>2026-04-19T10:16:54Z</time></trkpt><trkpt lat="42.97161435163096" lon="12.004649513130676"><ele>457.20000000000005</ele><time>2026-04-19T10:16:55Z</time></trkpt><trkpt lat="42.97160686963969" lon="12.004497767915868"><ele>458.40000000000003</ele><time>2026-04-19T10:16:56Z</time></trkpt><trkpt lat="42.97159810895043" lon="12.00438751679125"><ele>459.6</ele><time>2026-04-19T10:16:57Z</time></trkpt><trkpt lat="42.97158663132744" lon="12.004291859171124"><ele>460.8</ele><time>2026-04-19T10:16:58Z</time></trkpt><trkpt lat="42.97154156819652" lon="12.004130456024068"><ele>462.0</ele><time>2026-04-19T10:17:00Z</time></trkpt><trkpt lat="42.97150228686084" lon="12.004037774145083"><ele>462.6666666666667</ele><time>2026-04-19T10:17:01Z</time></trkpt><trkpt lat="42.971467518549495" lon="12.003943632230234"><ele>463.33333333333337</ele><time>2026-04-19T10:17:02Z</time></trkpt><trkpt lat="42.971439212957016" lon="12.003862843509275"><ele>464.0</ele><time>2026-04-19T10:17:03Z</time></trkpt><trkpt lat="42.97141383646939" lon="12.003772403127162"><ele>464.6666666666667</ele><time>2026-04-19T10:17:04Z</time></trkpt><trkpt lat="42.97141221250843" lon="12.003658293375201"><ele>465.33333333333337</ele><time>2026-04-19T10:17:05Z</time></trkpt><trkpt lat="42.971390935101425" lon="12.003523629309878"><ele>466.0</ele><time>2026-04-19T10:17:06Z</time></trkpt><trkpt lat="42.97135170992485" lon="12.003393218561353"><ele>467.25</ele><time>2026-04-19T10:17:07Z</time></trkpt><trkpt lat="42.971328974770906" lon="12.003251738323087"><ele>468.5</ele><time>2026-04-19T10:17:08Z</time></trkpt><trkpt lat="42.971288375771124" lon="12.003108680806498"><ele>469.75</ele><time>2026-04-19T10:17:09Z</time></trkpt><trkpt lat="42.971250236366515" lon="12.002928811018897"><ele>471.0</ele><time>2026-04-19T10:17:10Z</time></trkpt><trkpt lat="42.97121606742529" lon="12.00277352593811"><ele>471.0</ele><time>2026-04-19T10:17:11Z</time></trkpt><trkpt lat="42.971190696562886" lon="12.002651006133659"><ele>471.0</ele><time>2026-04-19T10:17:12Z</time></trkpt><trkpt lat="42.97116869374952" lon="12.002543339077707"><ele>471.0</ele><time>2026-04-19T10:17:13Z</time></trkpt><trkpt lat="42.97114426588662" lon="12.002423805362932"><ele>471.0</ele><time>2026-04-19T10:17:14Z</time></trkpt><trkpt lat="42.97112138983878" lon="12.00230794875268"><ele>471.0</ele><time>2026-04-19T10:17:15Z</time></trkpt><trkpt lat="42.971105627194724" lon="12.002219263041424"><ele>471.0</ele><time>2026-04-19T10:17:16Z</time></trkpt><trkpt lat="42.97108903504288" lon="12.00206615662374"><ele>470.8</ele><time>2026-04-19T10:17:18Z</time></trkpt><trkpt lat="42.97111221715705" lon="12.001882732880809"><ele>470.6</ele><time>2026-04-19T10:17:20Z</time></trkpt><trkpt lat="42.971139876347934" lon="12.001758475287394"><ele>470.4</ele><time>2026-04-19T10:17:21Z</time></trkpt><trkpt lat="42.97116455516908" lon="12.001651052571578"><ele>470.2</ele><time>2026-04-19T10:17:22Z</time></trkpt><trkpt lat="42.97118570909688" lon="12.001556823698875"><ele>470.0</ele><time>2026-04-19T10:17:24Z</time></trkpt><trkpt lat="42.97121059597265" lon="12.001429457845619"><ele>470.8</ele><time>2026-04-19T10:17:36Z</time></trkpt><trkpt lat="42.97123517303779" lon="12.001303677604554"><ele>471.6</ele><time>2026-04-19T10:17:37Z</time></trkpt><trkpt lat="42.97126193749805" lon="12.00116670269202"><ele>472.4</ele><time>2026-04-19T10:17:38Z</time></trkpt><trkpt lat="42.971291727558565" lon="12.001026869605143"><ele>473.2</ele><time>2026-04-19T10:17:39Z</time></trkpt><trkpt lat="42.97130844904174" lon="12.000880978743993"><ele>474.0</ele><time>2026-04-19T10:17:40Z</time></trkpt><trkpt lat="42.97134191736352" lon="12.000750289032212"><ele>472.4</ele><time>2026-04-19T10:17:41Z</time></trkpt><trkpt lat="42.971367501620556" lon="12.000642681044894"><ele>470.79999999999995</ele><time>2026-04-19T10:17:42Z</time></trkpt><trkpt lat="42.97140331042522" lon="12.000520047749616"><ele>469.20000000000005</ele><time>2026-04-19T10:17:44Z</time></trkpt><trkpt lat="42.971338354644566" lon="12.000415985967203"><ele>467.6</ele><time>2026-04-19T10:17:45Z</time></trkpt><trkpt lat="42.97127652451383" lon="12.000345597272148"><ele>466.0</ele><time>2026-04-19T10:17:46Z</time></trkpt><trkpt lat="42.97106755025916" lon="12.000165552549353"><ele>466.0</ele><time>2026-04-19T10:17:48Z</time></trkpt><trkpt lat="42.97098579868779" lon="12.000078860608182"><ele>466.0</ele><time>2026-04-19T10:17:49Z</time></trkpt><trkpt lat="42.970924624645846" lon="12.000026925845368"><ele>466.0</ele><time>2026-04-19T10:17:50Z</time></trkpt><trkpt lat="42.97086284411255" lon="11.999935898971112"><ele>466.0</ele><time>2026-04-19T10:17:52Z</time></trkpt><trkpt lat="42.97077692764135" lon="11.999829772784993"><ele>466.0</ele><time>2026-04-19T10:17:54Z</time></trkpt><trkpt lat="42.970615739333326" lon="11.999854957997375"><ele>466.0</ele><time>2026-04-19T10:17:55Z</time></trkpt><trkpt lat="42.970474403266216" lon="11.999811885125444"><ele>466.0</ele><time>2026-04-19T10:17:56Z</time></trkpt><trkpt lat="42.970318302221564" lon="11.99976854652617"><ele>466.0</ele><time>2026-04-19T10:17:57Z</time></trkpt><trkpt lat="42.970148736216245" lon="11.999684656223806"><ele>463.6666666666667</ele><time>2026-04-19T10:17:58Z</time></trkpt><trkpt lat="42.969969333297875" lon="11.999538966468434"><ele>461.33333333333337</ele><time>2026-04-19T10:17:59Z</time></trkpt><trkpt lat="42.96980036548923" lon="11.999378597487073"><ele>459.0</ele><time>2026-04-19T10:18:00Z</time></trkpt><trkpt lat="42.9696356321078" lon="11.999187278966238"><ele>460.33333333333337</ele><time>2026-04-19T10:18:01Z</time></trkpt><trkpt lat="42.96946631862425" lon="11.998977206265828"><ele>461.6666666666667</ele><time>2026-04-19T10:18:02Z</time></trkpt><trkpt lat="42.96930351500214" lon="11.998806561547777"><ele>463.0</ele><time>2026-04-19T10:18:03Z</time></trkpt><trkpt lat="42.96913106102743" lon="11.998681049596096"><ele>463.0</ele><time>2026-04-19T10:18:04Z</time></trkpt><trkpt lat="42.96894028274058" lon="11.998601766010134"><ele>463.0</ele><time>2026-04-19T10:18:05Z</time></trkpt><trkpt lat="42.96875010743435" lon="11.998535305624525"><ele>463.0</ele><time>2026-04-19T10:18:06Z</time></trkpt><trkpt lat="42.96856399157274" lon="11.998478846583945"><ele>463.0</ele><time>2026-04-19T10:18:07Z</time></trkpt><trkpt lat="42.96838084853846" lon="11.99841520299771"><ele>463.0</ele><time>2026-04-19T10:18:08Z</time></trkpt><trkpt lat="42.96820185945817" lon="11.998347082097869"><ele>463.0</ele><time>2026-04-19T10:18:09Z</time></trkpt><trkpt lat="42.968027000906055" lon="11.998274106024462"><ele>465.6666666666667</ele><time>2026-04-19T10:18:10Z</time></trkpt><trkpt lat="42.96784860019425" lon="11.998210090031575"><ele>468.33333333333337</ele><time>2026-04-19T10:18:11Z</time></trkpt><trkpt lat="42.967666483654" lon="11.998156559664352"><ele>471.0</ele><time>2026-04-19T10:18:12Z</time></trkpt><trkpt lat="42.96748551617818" lon="11.998112091495564"><ele>471.66666666666663</ele><time>2026-04-19T10:18:13Z</time></trkpt><trkpt lat="42.967299952354374" lon="11.99807776755"><ele>472.3333333333333</ele><time>2026-04-19T10:18:14Z</time></trkpt><trkpt lat="42.967115661244044" lon="11.998040748257354"><ele>473.0</ele><time>2026-04-19T10:18:15Z</time></trkpt><trkpt lat="42.96694556610763" lon="11.998003888909512"><ele>473.0</ele><time>2026-04-19T10:18:16Z</time></trkpt><trkpt lat="42.9667878452948" lon="11.997974805220224"><ele>473.0</ele><time>2026-04-19T10:18:17Z</time></trkpt><trkpt lat="42.96664053716441" lon="11.997955088904801"><ele>473.0</ele><time>2026-04-19T10:18:18Z</time></trkpt><trkpt lat="42.96649619891094" lon="11.997936249929008"><ele>474.75</ele><time>2026-04-19T10:18:19Z</time></trkpt><trkpt lat="42.96636261142021" lon="11.997928327591238"><ele>476.5</ele><time>2026-04-19T10:18:20Z</time></trkpt><trkpt lat="42.96623304053508" lon="11.997930097863529"><ele>478.25</ele><time>2026-04-19T10:18:21Z</time></trkpt><trkpt lat="42.966103509908635" lon="11.997940207443458"><ele>480.0</ele><time>2026-04-19T10:18:22Z</time></trkpt><trkpt lat="42.9659795491495" lon="11.997963211458496"><ele>480.75</ele><time>2026-04-19T10:18:23Z</time></trkpt><trkpt lat="42.96585308291255" lon="11.997997161991941"><ele>481.5</ele><time>2026-04-19T10:18:24Z</time></trkpt><trkpt lat="42.9657268061548" lon="11.998042631392781"><ele>482.25</ele><time>2026-04-19T10:18:25Z</time></trkpt><trkpt lat="42.965615230618575" lon="11.998092649985962"><ele>483.0</ele><time>2026-04-19T10:18:26Z</time></trkpt><trkpt lat="42.96551093431137" lon="11.998139852384638"><ele>483.0</ele><time>2026-04-19T10:18:27Z</time></trkpt><trkpt lat="42.965400412986206" lon="11.99819112303916"><ele>483.0</ele><time>2026-04-19T10:18:28Z</time></trkpt><trkpt lat="42.965246483676836" lon="11.998234564457933"><ele>483.0</ele><time>2026-04-19T10:18:29Z</time></trkpt><trkpt lat="42.96506838172932" lon="11.998296809835711"><ele>482.0</ele><time>2026-04-19T10:18:30Z</time></trkpt><trkpt lat="42.96491321788058" lon="11.998336380630294"><ele>481.0</ele><time>2026-04-19T10:18:31Z</time></trkpt><trkpt lat="42.96477616583329" lon="11.998352807944904"><ele>480.0</ele><time>2026-04-19T10:18:32Z</time></trkpt><trkpt lat="42.96463272730171" lon="11.998332145147735"><ele>479.0</ele><time>2026-04-19T10:18:33Z</time></trkpt><trkpt lat="42.96449402723624" lon="11.99826820320466"><ele>479.0</ele><time>2026-04-19T10:18:34Z</time></trkpt><trkpt lat="42.96436659158929" lon="11.998217923973368"><ele>479.0</ele><time>2026-04-19T10:18:35Z</time></trkpt><trkpt lat="42.964257606643905" lon="11.99817444844357"><ele>479.0</ele><time>2026-04-19T10:18:36Z</time></trkpt><trkpt lat="42.9641613481568" lon="11.998138631376104"><ele>479.0</ele><time>2026-04-19T10:18:37Z</time></trkpt><trkpt lat="42.964074798662786" lon="11.998120132089875"><ele>479.0</ele><time>2026-04-19T10:18:38Z</time></trkpt><trkpt lat="42.96399696357609" lon="11.998089928022019"><ele>479.16666666666663</ele><time>2026-04-19T10:18:39Z</time></trkpt><trkpt lat="42.96390962893053" lon="11.998061920975381"><ele>479.3333333333333</ele><time>2026-04-19T10:18:40Z</time></trkpt><trkpt lat="42.96382645985795" lon="11.998029863398605"><ele>479.5</ele><time>2026-04-19T10:18:41Z</time></trkpt><trkpt lat="42.96374278390834" lon="11.997994142633116"><ele>479.66666666666663</ele><time>2026-04-19T10:18:42Z</time></trkpt><trkpt lat="42.963657387832086" lon="11.997959097278082"><ele>479.8333333333333</ele><time>2026-04-19T10:18:43Z</time></trkpt><trkpt lat="42.96356502056887" lon="11.997921352817004"><ele>480.0</ele><time>2026-04-19T10:18:44Z</time></trkpt><trkpt lat="42.96346692067633" lon="11.997879223591086"><ele>480.0</ele><time>2026-04-19T10:18:45Z</time></trkpt><trkpt lat="42.96336508662007" lon="11.997830702734804"><ele>480.0</ele><time>2026-04-19T10:18:46Z</time></trkpt><trkpt lat="42.96325728186931" lon="11.997780953248819"><ele>480.0</ele><time>2026-04-19T10:18:47Z</time></trkpt><trkpt lat="42.9631490735425" lon="11.99773021468625"><ele>480.0</ele><time>2026-04-19T10:18:48Z</time></trkpt><trkpt lat="42.96303718049033" lon="11.997672367493617"><ele>479.75</ele><time>2026-04-19T10:18:49Z</time></trkpt><trkpt lat="42.96292264900873" lon="11.997613034777478"><ele>479.5</ele><time>2026-04-19T10:18:50Z</time></trkpt><trkpt lat="42.96280664511056" lon="11.9975530329309"><ele>479.25</ele><time>2026-04-19T10:18:51Z</time></trkpt><trkpt lat="42.962689435272736" lon="11.997496376696384"><ele>479.0</ele><time>2026-04-19T10:18:52Z</time></trkpt><trkpt lat="42.96257372245082" lon="11.997446539545654"><ele>479.2</ele><time>2026-04-19T10:18:53Z</time></trkpt><trkpt lat="42.96246249774157" lon="11.997387682813676"><ele>479.4</ele><time>2026-04-19T10:18:54Z</time></trkpt><trkpt lat="42.96235798495469" lon="11.997335403298441"><ele>479.6</ele><time>2026-04-19T10:18:55Z</time></trkpt><trkpt lat="42.96226337825945" lon="11.997281513466532"><ele>479.8</ele><time>2026-04-19T10:18:56Z</time></trkpt><trkpt lat="42.962165092692054" lon="11.997230080501996"><ele>480.0</ele><time>2026-04-19T10:18:57Z</time></trkpt><trkpt lat="42.962069940984385" lon="11.997189824941236"><ele>480.0</ele><time>2026-04-19T10:18:58Z</time></trkpt><trkpt lat="42.96198551442148" lon="11.997151199325014"><ele>480.0</ele><time>2026-04-19T10:18:59Z</time></trkpt><trkpt lat="42.96191279904117" lon="11.997117993709232"><ele>480.0</ele><time>2026-04-19T10:19:00Z</time></trkpt><trkpt lat="42.96180967677112" lon="11.9970740530141"><ele>480.0</ele><time>2026-04-19T10:19:02Z</time></trkpt><trkpt lat="42.961748904172865" lon="11.997046856891703"><ele>480.0</ele><time>2026-04-19T10:19:04Z</time></trkpt><trkpt lat="42.961675884854515" lon="11.997004337933094"><ele>480.0</ele><time>2026-04-19T10:19:07Z</time></trkpt><trkpt lat="42.961616544319895" lon="11.99695682750501"><ele>480.2</ele><time>2026-04-19T10:19:12Z</time></trkpt><trkpt lat="42.961515167265" lon="11.997040367891923"><ele>480.4</ele><time>2026-04-19T10:19:14Z</time></trkpt><trkpt lat="42.961458806205066" lon="11.997119024197074"><ele>480.6</ele><time>2026-04-19T10:19:15Z</time></trkpt><trkpt lat="42.961395942353654" lon="11.997215407718645"><ele>480.8</ele><time>2026-04-19T10:19:16Z</time></trkpt><trkpt lat="42.96133444339416" lon="11.997319960251767"><ele>481.0</ele><time>2026-04-19T10:19:17Z</time></trkpt><trkpt lat="42.96127100889416" lon="11.997422743497241"><ele>480.0</ele><time>2026-04-19T10:19:18Z</time></trkpt><trkpt lat="42.96119632287266" lon="11.99754017987404"><ele>479.0</ele><time>2026-04-19T10:19:19Z</time></trkpt><trkpt lat="42.96111167863273" lon="11.997680696178957"><ele>478.0</ele><time>2026-04-19T10:19:20Z</time></trkpt><trkpt lat="42.96103140377676" lon="11.997828240824155"><ele>477.0</ele><time>2026-04-19T10:19:21Z</time></trkpt><trkpt lat="42.96094926792888" lon="11.9979891829213"><ele>479.33333333333337</ele><time>2026-04-19T10:19:22Z</time></trkpt><trkpt lat="42.960863119915864" lon="11.998165828505732"><ele>481.6666666666667</ele><time>2026-04-19T10:19:23Z</time></trkpt><trkpt lat="42.9607773221334" lon="11.998342530929248"><ele>484.0</ele><time>2026-04-19T10:19:24Z</time></trkpt><trkpt lat="42.960687444699595" lon="11.998514437858189"><ele>484.0</ele><time>2026-04-19T10:19:25Z</time></trkpt><trkpt lat="42.96059860468656" lon="11.998673269425023"><ele>484.0</ele><time>2026-04-19T10:19:26Z</time></trkpt><trkpt lat="42.9605124303317" lon="11.998823517087265"><ele>484.0</ele><time>2026-04-19T10:19:27Z</time></trkpt><trkpt lat="42.96042850694858" lon="11.99895833918183"><ele>484.0</ele><time>2026-04-19T10:19:28Z</time></trkpt><trkpt lat="42.960341835267904" lon="11.999099123784495"><ele>485.25</ele><time>2026-04-19T10:19:29Z</time></trkpt><trkpt lat="42.96025098182488" lon="11.999241901887853"><ele>486.5</ele><time>2026-04-19T10:19:30Z</time></trkpt><trkpt lat="42.96015483392234" lon="11.999395029966271"><ele>487.75</ele><time>2026-04-19T10:19:31Z</time></trkpt><trkpt lat="42.96006514889758" lon="11.999534854268381"><ele>489.0</ele><time>2026-04-19T10:19:32Z</time></trkpt><trkpt lat="42.95997748985121" lon="11.999665828489526"><ele>489.25</ele><time>2026-04-19T10:19:33Z</time></trkpt><trkpt lat="42.959890764703985" lon="11.999788747567361"><ele>489.5</ele><time>2026-04-19T10:19:34Z</time></trkpt><trkpt lat="42.95980453476902" lon="11.999900429909317"><ele>489.75</ele><time>2026-04-19T10:19:35Z</time></trkpt><trkpt lat="42.959722672052386" lon="12.000001225567777"><ele>490.0</ele><time>2026-04-19T10:19:36Z</time></trkpt><trkpt lat="42.95964602250596" lon="12.000100562489862"><ele>490.0</ele><time>2026-04-19T10:19:37Z</time></trkpt><trkpt lat="42.95957083008484" lon="12.000200535485503"><ele>490.0</ele><time>2026-04-19T10:19:38Z</time></trkpt><trkpt lat="42.959488182725494" lon="12.000308277587967"><ele>490.0</ele><time>2026-04-19T10:19:39Z</time></trkpt><trkpt lat="42.959382085536504" lon="12.000438349024515"><ele>490.0</ele><time>2026-04-19T10:19:40Z</time></trkpt><trkpt lat="42.959237147946176" lon="12.000607976261827"><ele>490.33333333333337</ele><time>2026-04-19T10:19:41Z</time></trkpt><trkpt lat="42.95907074972164" lon="12.000784191316402"><ele>490.66666666666663</ele><time>2026-04-19T10:19:42Z</time></trkpt><trkpt lat="42.95889381544478" lon="12.000919748900639"><ele>491.0</ele><time>2026-04-19T10:19:43Z</time></trkpt><trkpt lat="42.95871708743351" lon="12.001016936534002"><ele>488.3333333333333</ele><time>2026-04-19T10:19:44Z</time></trkpt><trkpt lat="42.95853583925984" lon="12.001051303437118"><ele>485.66666666666663</ele><time>2026-04-19T10:19:45Z</time></trkpt><trkpt lat="42.958361468831946" lon="12.001099029813895"><ele>483.0</ele><time>2026-04-19T10:19:46Z</time></trkpt><trkpt lat="42.95819055314986" lon="12.001126214711027"><ele>483.0</ele><time>2026-04-19T10:19:47Z</time></trkpt><trkpt lat="42.95803224384213" lon="12.001163279421782"><ele>483.0</ele><time>2026-04-19T10:19:48Z</time></trkpt><trkpt lat="42.957887385076006" lon="12.001206950306335"><ele>483.0</ele><time>2026-04-19T10:19:49Z</time></trkpt><trkpt lat="42.957745721388335" lon="12.001251519860656"><ele>483.0</ele><time>2026-04-19T10:19:50Z</time></trkpt><trkpt lat="42.95762496174673" lon="12.001305856127964"><ele>483.0</ele><time>2026-04-19T10:19:51Z</time></trkpt><trkpt lat="42.957519362433544" lon="12.001373696127272"><ele>483.0</ele><time>2026-04-19T10:19:52Z</time></trkpt><trkpt lat="42.957426662457145" lon="12.00145930007817"><ele>483.0</ele><time>2026-04-19T10:19:53Z</time></trkpt><trkpt lat="42.957349025949256" lon="12.001537133642389"><ele>482.6666666666667</ele><time>2026-04-19T10:19:54Z</time></trkpt><trkpt lat="42.95727731096835" lon="12.00161234750415"><ele>482.33333333333337</ele><time>2026-04-19T10:19:55Z</time></trkpt><trkpt lat="42.957202880378695" lon="12.001690708059014"><ele>482.0</ele><time>2026-04-19T10:19:56Z</time></trkpt><trkpt lat="42.95712423789813" lon="12.001772523382307"><ele>481.6666666666667</ele><time>2026-04-19T10:19:57Z</time></trkpt><trkpt lat="42.95705758970157" lon="12.001843036861402"><ele>481.33333333333337</ele><time>2026-04-19T10:19:58Z</time></trkpt><trkpt lat="42.95700608000327" lon="12.001904289122395"><ele>481.0</ele><time>2026-04-19T10:19:59Z</time></trkpt><trkpt lat="42.95693083462751" lon="12.001995976172179"><ele>481.00000000000006</ele><time>2026-04-19T10:20:01Z</time></trkpt><trkpt lat="42.95684083695823" lon="12.00206290742091"><ele>481.0</ele><time>2026-04-19T10:20:03Z</time></trkpt><trkpt lat="42.9567392118321" lon="12.002059990374889"><ele>481.0</ele><time>2026-04-19T10:20:05Z</time></trkpt><trkpt lat="42.95667688237113" lon="12.00202864502456"><ele>481.0</ele><time>2026-04-19T10:20:07Z</time></trkpt><trkpt lat="42.95660727730863" lon="12.002030248894627"><ele>481.00000000000006</ele><time>2026-04-19T10:20:09Z</time></trkpt><trkpt lat="42.956511398247386" lon="12.002007716695978"><ele>481.0</ele><time>2026-04-19T10:20:11Z</time></trkpt><trkpt lat="42.95645556907623" lon="12.001942905250187"><ele>481.50000000000006</ele><time>2026-04-19T10:20:12Z</time></trkpt><trkpt lat="42.95640012514016" lon="12.001865475737272"><ele>482.0</ele><time>2026-04-19T10:20:13Z</time></trkpt><trkpt lat="42.95634255316281" lon="12.001775948764317"><ele>482.5</ele><time>2026-04-19T10:20:14Z</time></trkpt><trkpt lat="42.95627771310339" lon="12.00171502088659"><ele>483.0</ele><time>2026-04-19T10:20:15Z</time></trkpt><trkpt lat="42.9562019853885" lon="12.001680729072023"><ele>483.50000000000006</ele><time>2026-04-19T10:20:16Z</time></trkpt><trkpt lat="42.95613369906635" lon="12.00167328287436"><ele>484.0</ele><time>2026-04-19T10:20:17Z</time></trkpt><trkpt lat="42.95605334370372" lon="12.001707403115402"><ele>484.00000000000006</ele><time>2026-04-19T10:20:18Z</time></trkpt><trkpt lat="42.955981413341306" lon="12.001751073128412"><ele>484.0</ele><time>2026-04-19T10:20:19Z</time></trkpt><trkpt lat="42.955911861742045" lon="12.001791860339234"><ele>484.0</ele><time>2026-04-19T10:20:20Z</time></trkpt><trkpt lat="42.95583824086327" lon="12.001840213875248"><ele>484.0</ele><time>2026-04-19T10:20:21Z</time></trkpt><trkpt lat="42.955763459511225" lon="12.001894850893901"><ele>484.00000000000006</ele><time>2026-04-19T10:20:22Z</time></trkpt><trkpt lat="42.95569158089808" lon="12.001955211349438"><ele>484.0</ele><time>2026-04-19T10:20:23Z</time></trkpt><trkpt lat="42.95559914148617" lon="12.002039397634034"><ele>485.33333333333337</ele><time>2026-04-19T10:20:24Z</time></trkpt><trkpt lat="42.95549945236348" lon="12.002210783062592"><ele>486.66666666666663</ele><time>2026-04-19T10:20:25Z</time></trkpt><trkpt lat="42.955364523169926" lon="12.002375960924482"><ele>488.0</ele><time>2026-04-19T10:20:26Z</time></trkpt><trkpt lat="42.95519811591103" lon="12.002557531441887"><ele>485.66666666666663</ele><time>2026-04-19T10:20:27Z</time></trkpt><trkpt lat="42.95506336404074" lon="12.002711028384573"><ele>483.33333333333337</ele><time>2026-04-19T10:20:28Z</time></trkpt><trkpt lat="42.95493260602198" lon="12.002859245140842"><ele>481.0</ele><time>2026-04-19T10:20:29Z</time></trkpt><trkpt lat="42.954854140502384" lon="12.003047257259023"><ele>481.0</ele><time>2026-04-19T10:20:30Z</time></trkpt><trkpt lat="42.954755019247315" lon="12.003183305713923"><ele>481.0</ele><time>2026-04-19T10:20:31Z</time></trkpt><trkpt lat="42.954633160943395" lon="12.003242209357586"><ele>481.0</ele><time>2026-04-19T10:20:32Z</time></trkpt><trkpt lat="42.954516605182675" lon="12.00322168259762"><ele>481.0</ele><time>2026-04-19T10:20:33Z</time></trkpt><trkpt lat="42.95442074897988" lon="12.003164579177426"><ele>481.0</ele><time>2026-04-19T10:20:34Z</time></trkpt><trkpt lat="42.95431813397512" lon="12.003092262164667"><ele>481.0</ele><time>2026-04-19T10:20:35Z</time></trkpt><trkpt lat="42.95419432565562" lon="12.00306082194314"><ele>481.0</ele><time>2026-04-19T10:20:36Z</time></trkpt><trkpt lat="42.95407461638775" lon="12.00302263625387"><ele>481.0</ele><time>2026-04-19T10:20:37Z</time></trkpt><trkpt lat="42.95394327522368" lon="12.003006029759332"><ele>479.0</ele><time>2026-04-19T10:20:38Z</time></trkpt><trkpt lat="42.95380607449733" lon="12.003001730539713"><ele>477.0</ele><time>2026-04-19T10:20:39Z</time></trkpt><trkpt lat="42.953671165396514" lon="12.002998502591444"><ele>475.0</ele><time>2026-04-19T10:20:40Z</time></trkpt><trkpt lat="42.95354195502041" lon="12.003008656643866"><ele>473.0</ele><time>2026-04-19T10:20:41Z</time></trkpt><trkpt lat="42.95342062832773" lon="12.003016181041005"><ele>473.75</ele><time>2026-04-19T10:20:42Z</time></trkpt><trkpt lat="42.95330623675396" lon="12.002984175671362"><ele>474.5</ele><time>2026-04-19T10:20:43Z</time></trkpt><trkpt lat="42.95319139115593" lon="12.002947683603459"><ele>475.25</ele><time>2026-04-19T10:20:44Z</time></trkpt><trkpt lat="42.953082162792654" lon="12.002893817325745"><ele>476.0</ele><time>2026-04-19T10:20:45Z</time></trkpt><trkpt lat="42.95297296429883" lon="12.002826610023693"><ele>476.0</ele><time>2026-04-19T10:20:46Z</time></trkpt><trkpt lat="42.952870584419486" lon="12.00275201641376"><ele>476.0</ele><time>2026-04-19T10:20:47Z</time></trkpt><trkpt lat="42.95277149932708" lon="12.002658088848568"><ele>476.0</ele><time>2026-04-19T10:20:48Z</time></trkpt><trkpt lat="42.952691836249954" lon="12.002523396890073"><ele>476.0</ele><time>2026-04-19T10:20:49Z</time></trkpt><trkpt lat="42.95264755255" lon="12.002346370785459"><ele>479.3333333333333</ele><time>2026-04-19T10:20:50Z</time></trkpt><trkpt lat="42.952607704692014" lon="12.00213427638658"><ele>482.66666666666663</ele><time>2026-04-19T10:20:51Z</time></trkpt><trkpt lat="42.95256962900207" lon="12.00190706449971"><ele>486.0</ele><time>2026-04-19T10:20:52Z</time></trkpt><trkpt lat="42.9525178666896" lon="12.001724516659241"><ele>481.5</ele><time>2026-04-19T10:20:53Z</time></trkpt><trkpt lat="42.9524780803111" lon="12.001560605731429"><ele>477.0</ele><time>2026-04-19T10:20:54Z</time></trkpt><trkpt lat="42.952399876592715" lon="12.00142583035559"><ele>472.5</ele><time>2026-04-19T10:20:55Z</time></trkpt><trkpt lat="42.952276870972696" lon="12.001325910794684"><ele>468.0</ele><time>2026-04-19T10:20:56Z</time></trkpt><trkpt lat="42.9521544911661" lon="12.00123428748939"><ele>468.0</ele><time>2026-04-19T10:20:57Z</time></trkpt><trkpt lat="42.9520444391446" lon="12.001147255110496"><ele>468.0</ele><time>2026-04-19T10:20:58Z</time></trkpt><trkpt lat="42.95192798284909" lon="12.00107227849227"><ele>468.0</ele><time>2026-04-19T10:20:59Z</time></trkpt><trkpt lat="42.95180951027875" lon="12.001023420623161"><ele>468.0</ele><time>2026-04-19T10:21:00Z</time></trkpt><trkpt lat="42.95169345190913" lon="12.000969090864473"><ele>470.79999999999995</ele><time>2026-04-19T10:21:01Z</time></trkpt><trkpt lat="42.951583395850044" lon="12.000924313898361"><ele>473.59999999999997</ele><time>2026-04-19T10:21:02Z</time></trkpt><trkpt lat="42.95148258111178" lon="12.000886287341693"><ele>476.40000000000003</ele><time>2026-04-19T10:21:03Z</time></trkpt><trkpt lat="42.95138634715554" lon="12.00083483163448"><ele>479.20000000000005</ele><time>2026-04-19T10:21:04Z</time></trkpt><trkpt lat="42.95130948782614" lon="12.000807634165657"><ele>482.0</ele><time>2026-04-19T10:21:05Z</time></trkpt><trkpt lat="42.95120959042854" lon="12.000786284135199"><ele>482.0</ele><time>2026-04-19T10:21:07Z</time></trkpt><trkpt lat="42.95118327222113" lon="12.001017817033514"><ele>482.0</ele><time>2026-04-19T10:21:08Z</time></trkpt><trkpt lat="42.95118624776369" lon="12.00117572067628"><ele>482.0</ele><time>2026-04-19T10:21:09Z</time></trkpt><trkpt lat="42.95120200457979" lon="12.00134725957385"><ele>482.0</ele><time>2026-04-19T10:21:10Z</time></trkpt><trkpt lat="42.95119964341948" lon="12.001533385278496"><ele>486.0</ele><time>2026-04-19T10:21:11Z</time></trkpt><trkpt lat="42.951191217905546" lon="12.001714280068096"><ele>490.0</ele><time>2026-04-19T10:21:12Z</time></trkpt><trkpt lat="42.95118978135414" lon="12.001905410673393"><ele>494.0</ele><time>2026-04-19T10:21:13Z</time></trkpt><trkpt lat="42.95123108855841" lon="12.002096568042877"><ele>498.0</ele><time>2026-04-19T10:21:14Z</time></trkpt><trkpt lat="42.95131540283408" lon="12.002270811780834"><ele>498.0</ele><time>2026-04-19T10:21:15Z</time></trkpt><trkpt lat="42.9514243726565" lon="12.002417157410392"><ele>498.0</ele><time>2026-04-19T10:21:16Z</time></trkpt><trkpt lat="42.951488886534925" lon="12.002595798423924"><ele>498.0</ele><time>2026-04-19T10:21:17Z</time></trkpt><trkpt lat="42.95150886599101" lon="12.002790570526427"><ele>498.0</ele><time>2026-04-19T10:21:18Z</time></trkpt><trkpt lat="42.95151876845401" lon="12.003019283755885"><ele>497.66666666666663</ele><time>2026-04-19T10:21:19Z</time></trkpt><trkpt lat="42.9515234009558" lon="12.003289904177157"><ele>497.3333333333333</ele><time>2026-04-19T10:21:20Z</time></trkpt><trkpt lat="42.9515017071873" lon="12.003547966934189"><ele>497.0</ele><time>2026-04-19T10:21:21Z</time></trkpt><trkpt lat="42.951439826137815" lon="12.003735806506182"><ele>497.0</ele><time>2026-04-19T10:21:22Z</time></trkpt><trkpt lat="42.951350198713214" lon="12.003854604458402"><ele>497.0</ele><time>2026-04-19T10:21:23Z</time></trkpt><trkpt lat="42.9512423411949" lon="12.003930889355432"><ele>497.0</ele><time>2026-04-19T10:21:24Z</time></trkpt><trkpt lat="42.95110241695947" lon="12.004009646545464"><ele>497.0</ele><time>2026-04-19T10:21:25Z</time></trkpt><trkpt lat="42.95096055812843" lon="12.004124260255468"><ele>495.3333333333333</ele><time>2026-04-19T10:21:26Z</time></trkpt><trkpt lat="42.950804241284736" lon="12.004196797457455"><ele>493.66666666666663</ele><time>2026-04-19T10:21:27Z</time></trkpt><trkpt lat="42.950642893122065" lon="12.004276221553688"><ele>492.0</ele><time>2026-04-19T10:21:28Z</time></trkpt><trkpt lat="42.950484123721154" lon="12.004352260745513"><ele>492.0</ele><time>2026-04-19T10:21:29Z</time></trkpt><trkpt lat="42.95033216688597" lon="12.004422155994538"><ele>492.0</ele><time>2026-04-19T10:21:30Z</time></trkpt><trkpt lat="42.95018860829578" lon="12.004504854379322"><ele>492.0</ele><time>2026-04-19T10:21:31Z</time></trkpt><trkpt lat="42.95005770435007" lon="12.004573592660554"><ele>491.20000000000005</ele><time>2026-04-19T10:21:32Z</time></trkpt><trkpt lat="42.94993910542374" lon="12.00463414704879"><ele>490.40000000000003</ele><time>2026-04-19T10:21:33Z</time></trkpt><trkpt lat="42.949833073275045" lon="12.004678161760156"><ele>489.59999999999997</ele><time>2026-04-19T10:21:34Z</time></trkpt><trkpt lat="42.94974656443338" lon="12.004735219039379"><ele>488.79999999999995</ele><time>2026-04-19T10:21:35Z</time></trkpt><trkpt lat="42.949652381786954" lon="12.00478299672873"><ele>488.0</ele><time>2026-04-19T10:21:36Z</time></trkpt><trkpt lat="42.94958300630805" lon="12.004819589400704"><ele>487.99999999999994</ele><time>2026-04-19T10:21:37Z</time></trkpt><trkpt lat="42.949479972895716" lon="12.004828655281498"><ele>488.0</ele><time>2026-04-19T10:21:39Z</time></trkpt><trkpt lat="42.949394147963154" lon="12.004757511321873"><ele>488.0</ele><time>2026-04-19T10:21:41Z</time></trkpt><trkpt lat="42.94934538436733" lon="12.004698355289005"><ele>488.0</ele><time>2026-04-19T10:21:43Z</time></trkpt><trkpt lat="42.94929534408455" lon="12.004776720155949"><ele>487.99999999999994</ele><time>2026-04-19T10:21:47Z</time></trkpt><trkpt lat="42.94929437667034" lon="12.004875099879339"><ele>488.0</ele><time>2026-04-19T10:21:48Z</time></trkpt><trkpt lat="42.9493496018886" lon="12.00494034944261"><ele>488.0</ele><time>2026-04-19T10:21:49Z</time></trkpt><trkpt lat="42.94938755467195" lon="12.005010525253196"><ele>488.0</ele><time>2026-04-19T10:21:51Z</time></trkpt><trkpt lat="42.949556738897456" lon="12.00491538773019"><ele>488.0</ele><time>2026-04-19T10:21:52Z</time></trkpt><trkpt lat="42.94966712103474" lon="12.004831944717266"><ele>488.0</ele><time>2026-04-19T10:21:53Z</time></trkpt><trkpt lat="42.9498015948236" lon="12.004747970555377"><ele>488.0</ele><time>2026-04-19T10:21:54Z</time></trkpt><trkpt lat="42.94993740059848" lon="12.004663187026582"><ele>488.0</ele><time>2026-04-19T10:21:54.999Z</time></trkpt><trkpt lat="42.95012693547036" lon="12.004579844956217"><ele>488.0</ele><time>2026-04-19T10:21:56.999Z</time></trkpt><trkpt lat="42.95020890918873" lon="12.004522630664642"><ele>488.0</ele><time>2026-04-19T10:21:58.999Z</time></trkpt><trkpt lat="42.95014774640241" lon="12.004393664387841"><ele>488.0</ele><time>2026-04-19T10:22:05.999Z</time></trkpt><trkpt lat="42.95003724994049" lon="12.0043803868827"><ele>488.0</ele><time>2026-04-19T10:22:06.999Z</time></trkpt><trkpt lat="42.94992022193805" lon="12.004347626419264"><ele>488.0</ele><time>2026-04-19T10:22:07.999Z</time></trkpt><trkpt lat="42.94980927581071" lon="12.004311254475088"><ele>488.0</ele><time>2026-04-19T10:22:08.999Z</time></trkpt><trkpt lat="42.94970853002118" lon="12.004255952381447"><ele>488.0</ele><time>2026-04-19T10:22:09.999Z</time></trkpt><trkpt lat="42.94960981260972" lon="12.004217235488827"><ele>488.0</ele><time>2026-04-19T10:22:10.999Z</time></trkpt><trkpt lat="42.94953791036895" lon="12.004196001381159"><ele>488.0</ele><time>2026-04-19T10:22:11.999Z</time></trkpt><trkpt lat="42.94938083061402" lon="12.004160901990101"><ele>488.0</ele><time>2026-04-19T10:22:13.999Z</time></trkpt><trkpt lat="42.94925767906539" lon="12.004164595742639"><ele>485.0</ele><time>2026-04-19T10:22:14.999Z</time></trkpt><trkpt lat="42.949139541984756" lon="12.004198437445487"><ele>482.0</ele><time>2026-04-19T10:22:15.999Z</time></trkpt><trkpt lat="42.94902345230984" lon="12.004235644356006"><ele>479.0</ele><time>2026-04-19T10:22:16.999Z</time></trkpt><trkpt lat="42.94891451988966" lon="12.004272196079699"><ele>476.0</ele><time>2026-04-19T10:22:17.999Z</time></trkpt><trkpt lat="42.94881145934346" lon="12.004295965628398"><ele>476.0</ele><time>2026-04-19T10:22:18.999Z</time></trkpt><trkpt lat="42.94870261499525" lon="12.004298531539309"><ele>476.0</ele><time>2026-04-19T10:22:19.999Z</time></trkpt><trkpt lat="42.94860125282643" lon="12.004262206747887"><ele>476.0</ele><time>2026-04-19T10:22:20.999Z</time></trkpt><trkpt lat="42.94850096357308" lon="12.004237814841046"><ele>476.0</ele><time>2026-04-19T10:22:21.999Z</time></trkpt><trkpt lat="42.94841360745208" lon="12.004237046424306"><ele>476.0</ele><time>2026-04-19T10:22:22.999Z</time></trkpt><trkpt lat="42.948330871826634" lon="12.004232197736375"><ele>472.75</ele><time>2026-04-19T10:22:23.999Z</time></trkpt><trkpt lat="42.948227397421256" lon="12.004222107189412"><ele>469.5</ele><time>2026-04-19T10:22:24.999Z</time></trkpt><trkpt lat="42.94811969967221" lon="12.004279032241158"><ele>466.25</ele><time>2026-04-19T10:22:25.999Z</time></trkpt><trkpt lat="42.9480126255794" lon="12.004350164521547"><ele>463.0</ele><time>2026-04-19T10:22:26.999Z</time></trkpt><trkpt lat="42.947913959683966" lon="12.004423537032714"><ele>463.0</ele><time>2026-04-19T10:22:27.999Z</time></trkpt><trkpt lat="42.947818244015345" lon="12.004491498088715"><ele>462.99999999999994</ele><time>2026-04-19T10:22:28.999Z</time></trkpt><trkpt lat="42.9477151700765" lon="12.004534966918762"><ele>462.99999999999994</ele><time>2026-04-19T10:22:29.999Z</time></trkpt><trkpt lat="42.94761511907431" lon="12.004543329624958"><ele>463.0</ele><time>2026-04-19T10:22:30.999Z</time></trkpt><trkpt lat="42.94752572109853" lon="12.0045209223363"><ele>463.0</ele><time>2026-04-19T10:22:31.999Z</time></trkpt><trkpt lat="42.94743498401832" lon="12.004458492548322"><ele>461.2</ele><time>2026-04-19T10:22:32.999Z</time></trkpt><trkpt lat="42.94735169635546" lon="12.004368601563497"><ele>459.4</ele><time>2026-04-19T10:22:33.999Z</time></trkpt><trkpt lat="42.94727580692702" lon="12.004268236299396"><ele>457.59999999999997</ele><time>2026-04-19T10:22:34.999Z</time></trkpt><trkpt lat="42.94720971262467" lon="12.004173322003687"><ele>455.79999999999995</ele><time>2026-04-19T10:22:35.999Z</time></trkpt><trkpt lat="42.9471569086897" lon="12.004071644215866"><ele>454.0</ele><time>2026-04-19T10:22:36.999Z</time></trkpt><trkpt lat="42.947106786685595" lon="12.003970198728016"><ele>451.33333333333337</ele><time>2026-04-19T10:22:37.999Z</time></trkpt><trkpt lat="42.94706553650135" lon="12.003875099836911"><ele>448.6666666666667</ele><time>2026-04-19T10:22:38.999Z</time></trkpt><trkpt lat="42.947032682140254" lon="12.003790424833259"><ele>446.0</ele><time>2026-04-19T10:22:39.999Z</time></trkpt><trkpt lat="42.94701449649555" lon="12.003706894034872"><ele>443.33333333333337</ele><time>2026-04-19T10:22:40.999Z</time></trkpt><trkpt lat="42.946963477298205" lon="12.003552805384183"><ele>440.6666666666667</ele><time>2026-04-19T10:22:42.999Z</time></trkpt><trkpt lat="42.94692357238775" lon="12.00348572803862"><ele>438.0</ele><time>2026-04-19T10:22:43.999Z</time></trkpt><trkpt lat="42.94685254554633" lon="12.003437622647246"><ele>438.0</ele><time>2026-04-19T10:22:44.999Z</time></trkpt><trkpt lat="42.946786633005026" lon="12.003411735716467"><ele>438.0</ele><time>2026-04-19T10:22:45.999Z</time></trkpt><trkpt lat="42.946665420936355" lon="12.003370434350279"><ele>438.0</ele><time>2026-04-19T10:22:47.999Z</time></trkpt><trkpt lat="42.94652250408659" lon="12.003501936461653"><ele>438.0</ele><time>2026-04-19T10:22:49.999Z</time></trkpt><trkpt lat="42.946438339570605" lon="12.003574034578236"><ele>437.0</ele><time>2026-04-19T10:22:50.999Z</time></trkpt><trkpt lat="42.94635630801044" lon="12.0036863838388"><ele>436.0</ele><time>2026-04-19T10:22:51.999Z</time></trkpt><trkpt lat="42.94626397144134" lon="12.003809722136623"><ele>435.0</ele><time>2026-04-19T10:22:52.999Z</time></trkpt><trkpt lat="42.94618507304452" lon="12.003925864173484"><ele>434.0</ele><time>2026-04-19T10:22:53.999Z</time></trkpt><trkpt lat="42.94610999390464" lon="12.004004036381524"><ele>433.99999999999994</ele><time>2026-04-19T10:22:54.999Z</time></trkpt><trkpt lat="42.94604938939979" lon="12.004088060411958"><ele>434.0</ele><time>2026-04-19T10:22:55.999Z</time></trkpt><trkpt lat="42.94600112264272" lon="12.004188711108563"><ele>434.0</ele><time>2026-04-19T10:22:56.999Z</time></trkpt><trkpt lat="42.94597321945643" lon="12.004295305072366"><ele>434.0</ele><time>2026-04-19T10:22:57.999Z</time></trkpt><trkpt lat="42.94596693039291" lon="12.004404623598338"><ele>433.99999999999994</ele><time>2026-04-19T10:22:58.999Z</time></trkpt><trkpt lat="42.94597157797088" lon="12.00453572256543"><ele>434.0</ele><time>2026-04-19T10:22:59.999Z</time></trkpt><trkpt lat="42.945994057285155" lon="12.004699985458734"><ele>439.0</ele><time>2026-04-19T10:23:00.999Z</time></trkpt><trkpt lat="42.946023563662266" lon="12.004897804738334"><ele>444.0</ele><time>2026-04-19T10:23:01.999Z</time></trkpt><trkpt lat="42.94601394320856" lon="12.005080127859443"><ele>449.0</ele><time>2026-04-19T10:23:02.999Z</time></trkpt><trkpt lat="42.94600978418495" lon="12.005252292145942"><ele>454.0</ele><time>2026-04-19T10:23:03.999Z</time></trkpt><trkpt lat="42.94600390626357" lon="12.005410465924083"><ele>454.6666666666667</ele><time>2026-04-19T10:23:04.999Z</time></trkpt><trkpt lat="42.94599999984494" lon="12.005543504027031"><ele>455.33333333333337</ele><time>2026-04-19T10:23:05.999Z</time></trkpt><trkpt lat="42.94601837360573" lon="12.005656681923606"><ele>456.0</ele><time>2026-04-19T10:23:06.999Z</time></trkpt><trkpt lat="42.946010736034374" lon="12.005753233367919"><ele>456.66666666666663</ele><time>2026-04-19T10:23:07.999Z</time></trkpt><trkpt lat="42.9459768414305" lon="12.005835427656265"><ele>457.3333333333333</ele><time>2026-04-19T10:23:08.999Z</time></trkpt><trkpt lat="42.945921053996805" lon="12.005882461862093"><ele>458.0</ele><time>2026-04-19T10:23:09.999Z</time></trkpt><trkpt lat="42.94585770368334" lon="12.005896644062393"><ele>453.99999999999994</ele><time>2026-04-19T10:23:10.999Z</time></trkpt><trkpt lat="42.945801615128126" lon="12.005821162646024"><ele>450.0</ele><time>2026-04-19T10:23:11.999Z</time></trkpt><trkpt lat="42.94573428317958" lon="12.00576423128201"><ele>446.0</ele><time>2026-04-19T10:23:12.999Z</time></trkpt><trkpt lat="42.94566741493404" lon="12.005707234790828"><ele>442.0</ele><time>2026-04-19T10:23:13.999Z</time></trkpt><trkpt lat="42.94561455079022" lon="12.005650060414535"><ele>437.99999999999994</ele><time>2026-04-19T10:23:14.999Z</time></trkpt><trkpt lat="42.94555279256819" lon="12.005591399352037"><ele>434.0</ele><time>2026-04-19T10:23:15.999Z</time></trkpt><trkpt lat="42.945513869895095" lon="12.005496754750334"><ele>434.0</ele><time>2026-04-19T10:23:16.999Z</time></trkpt><trkpt lat="42.94546085180005" lon="12.00542709206665"><ele>434.0</ele><time>2026-04-19T10:23:17.999Z</time></trkpt><trkpt lat="42.9454115426208" lon="12.005362303348942"><ele>434.0</ele><time>2026-04-19T10:23:18.999Z</time></trkpt><trkpt lat="42.945336915197394" lon="12.005264054386862"><ele>434.0</ele><time>2026-04-19T10:23:19.999Z</time></trkpt><trkpt lat="42.94523839819111" lon="12.005170968863315"><ele>434.0</ele><time>2026-04-19T10:23:20.999Z</time></trkpt><trkpt lat="42.945112977198924" lon="12.00507270600309"><ele>432.5</ele><time>2026-04-19T10:23:21.999Z</time></trkpt><trkpt lat="42.94496303334798" lon="12.005024931892988"><ele>431.0</ele><time>2026-04-19T10:23:22.999Z</time></trkpt><trkpt lat="42.944828741691495" lon="12.00492210886455"><ele>429.5</ele><time>2026-04-19T10:23:23.999Z</time></trkpt><trkpt lat="42.944709732115086" lon="12.004827808462318"><ele>428.0</ele><time>2026-04-19T10:23:24.999Z</time></trkpt><trkpt lat="42.94459961209742" lon="12.004745594282923"><ele>426.0</ele><time>2026-04-19T10:23:25.999Z</time></trkpt><trkpt lat="42.94449733323571" lon="12.004669235675786"><ele>424.0</ele><time>2026-04-19T10:23:26.999Z</time></trkpt><trkpt lat="42.94439507508128" lon="12.004594813144376"><ele>422.0</ele><time>2026-04-19T10:23:27.999Z</time></trkpt><trkpt lat="42.94427784180549" lon="12.004532616119294"><ele>420.0</ele><time>2026-04-19T10:23:28.999Z</time></trkpt><trkpt lat="42.94419759392313" lon="12.004431944273682"><ele>420.0</ele><time>2026-04-19T10:23:29.999Z</time></trkpt><trkpt lat="42.944110547665304" lon="12.004322156979585"><ele>420.0</ele><time>2026-04-19T10:23:30.999Z</time></trkpt><trkpt lat="42.944033508116895" lon="12.004200243534466"><ele>420.0</ele><time>2026-04-19T10:23:31.999Z</time></trkpt><trkpt lat="42.943959662804204" lon="12.004062317859535"><ele>420.0</ele><time>2026-04-19T10:23:32.999Z</time></trkpt><trkpt lat="42.94389110548803" lon="12.003912200009509"><ele>416.5</ele><time>2026-04-19T10:23:33.999Z</time></trkpt><trkpt lat="42.94382488379548" lon="12.003750870723932"><ele>413.0</ele><time>2026-04-19T10:23:34.999Z</time></trkpt><trkpt lat="42.943758662160825" lon="12.003589969285217"><ele>409.5</ele><time>2026-04-19T10:23:35.999Z</time></trkpt><trkpt lat="42.94369137254449" lon="12.003445268740187"><ele>406.0</ele><time>2026-04-19T10:23:36.999Z</time></trkpt><trkpt lat="42.943625510889476" lon="12.003313904359054"><ele>407.25</ele><time>2026-04-19T10:23:37.999Z</time></trkpt><trkpt lat="42.94353729795498" lon="12.003176757930133"><ele>408.5</ele><time>2026-04-19T10:23:38.999Z</time></trkpt><trkpt lat="42.94343707887349" lon="12.0030419464328"><ele>409.75</ele><time>2026-04-19T10:23:39.999Z</time></trkpt><trkpt lat="42.9433469981478" lon="12.002930327146853"><ele>411.0</ele><time>2026-04-19T10:23:40.999Z</time></trkpt><trkpt lat="42.94326003782038" lon="12.002827398332913"><ele>411.0</ele><time>2026-04-19T10:23:41.999Z</time></trkpt><trkpt lat="42.943167102699036" lon="12.002719932684972"><ele>411.0</ele><time>2026-04-19T10:23:42.999Z</time></trkpt><trkpt lat="42.9430553615178" lon="12.002624193166096"><ele>411.0</ele><time>2026-04-19T10:23:43.999Z</time></trkpt><trkpt lat="42.94293051742633" lon="12.002544895070837"><ele>411.0</ele><time>2026-04-19T10:23:44.999Z</time></trkpt><trkpt lat="42.94279906252909" lon="12.00247543035532"><ele>411.25</ele><time>2026-04-19T10:23:45.999Z</time></trkpt><trkpt lat="42.94267825615524" lon="12.0024214710501"><ele>411.5</ele><time>2026-04-19T10:23:46.999Z</time></trkpt><trkpt lat="42.94256249128502" lon="12.002380731225067"><ele>411.75</ele><time>2026-04-19T10:23:47.999Z</time></trkpt><trkpt lat="42.942444412162" lon="12.002349987165127"><ele>412.0</ele><time>2026-04-19T10:23:49Z</time></trkpt><trkpt lat="42.942298513095416" lon="12.002370902431776"><ele>412.0</ele><time>2026-04-19T10:23:50Z</time></trkpt><trkpt lat="42.94214743684981" lon="12.002390403397992"><ele>412.0</ele><time>2026-04-19T10:23:51Z</time></trkpt><trkpt lat="42.94199674617157" lon="12.002368463849884"><ele>412.0</ele><time>2026-04-19T10:23:52Z</time></trkpt><trkpt lat="42.941881540219" lon="12.0023525760008"><ele>412.0</ele><time>2026-04-19T10:23:53Z</time></trkpt><trkpt lat="42.941794808960566" lon="12.002326133511724"><ele>411.6666666666667</ele><time>2026-04-19T10:23:54Z</time></trkpt><trkpt lat="42.941706119865714" lon="12.002272885878783"><ele>411.33333333333337</ele><time>2026-04-19T10:23:56Z</time></trkpt><trkpt lat="42.94162450608539" lon="12.002285603699097"><ele>411.0</ele><time>2026-04-19T10:23:58Z</time></trkpt><trkpt lat="42.94155342099529" lon="12.002282991900803"><ele>410.66666666666663</ele><time>2026-04-19T10:24:00Z</time></trkpt><trkpt lat="42.94143381700662" lon="12.002285028253711"><ele>410.3333333333333</ele><time>2026-04-19T10:24:02Z</time></trkpt><trkpt lat="42.94135692781223" lon="12.00229071350739"><ele>410.0</ele><time>2026-04-19T10:24:03Z</time></trkpt><trkpt lat="42.94127726671576" lon="12.002307296211104"><ele>409.99999999999994</ele><time>2026-04-19T10:24:04Z</time></trkpt><trkpt lat="42.94120442417043" lon="12.002310733966791"><ele>410.0</ele><time>2026-04-19T10:24:05Z</time></trkpt><trkpt lat="42.94113973850082" lon="12.002297857910511"><ele>410.0</ele><time>2026-04-19T10:24:06Z</time></trkpt><trkpt lat="42.94106681963935" lon="12.002265579419227"><ele>410.0</ele><time>2026-04-19T10:24:07Z</time></trkpt><trkpt lat="42.94099029910738" lon="12.002224777540151"><ele>409.99999999999994</ele><time>2026-04-19T10:24:08Z</time></trkpt><trkpt lat="42.94087985006363" lon="12.002153068533245"><ele>410.0</ele><time>2026-04-19T10:24:10Z</time></trkpt><trkpt lat="42.94077406669847" lon="12.002088984243018"><ele>410.99999999999994</ele><time>2026-04-19T10:24:12Z</time></trkpt><trkpt lat="42.94072265715217" lon="12.002039259170951"><ele>412.0</ele><time>2026-04-19T10:24:13Z</time></trkpt><trkpt lat="42.94067102899935" lon="12.001982235765327"><ele>413.0</ele><time>2026-04-19T10:24:14Z</time></trkpt><trkpt lat="42.94058147049165" lon="12.00190581797737"><ele>414.0</ele><time>2026-04-19T10:24:16Z</time></trkpt><trkpt lat="42.94049470623071" lon="12.001856182886408"><ele>414.99999999999994</ele><time>2026-04-19T10:24:18Z</time></trkpt><trkpt lat="42.940413127506034" lon="12.00182234930888"><ele>416.0</ele><time>2026-04-19T10:24:20Z</time></trkpt><trkpt lat="42.94049301213142" lon="12.001859231653073"><ele>416.0</ele><time>2026-04-19T10:24:38Z</time></trkpt><trkpt lat="42.94063445904309" lon="12.00194584333381"><ele>416.0</ele><time>2026-04-19T10:24:40Z</time></trkpt><trkpt lat="42.940709232591736" lon="12.002016977224333"><ele>416.0</ele><time>2026-04-19T10:24:41Z</time></trkpt><trkpt lat="42.940776062523916" lon="12.00208649227121"><ele>416.0</ele><time>2026-04-19T10:24:42Z</time></trkpt><trkpt lat="42.9408399290872" lon="12.00214357279372"><ele>416.0</ele><time>2026-04-19T10:24:43Z</time></trkpt><trkpt lat="42.94096713474858" lon="12.002235555837773"><ele>414.8</ele><time>2026-04-19T10:24:45Z</time></trkpt><trkpt lat="42.941027337663066" lon="12.002261079772115"><ele>413.6</ele><time>2026-04-19T10:24:46Z</time></trkpt><trkpt lat="42.94114207525736" lon="12.00231770921968"><ele>412.4</ele><time>2026-04-19T10:24:48Z</time></trkpt><trkpt lat="42.941256435811354" lon="12.002328175917555"><ele>411.2</ele><time>2026-04-19T10:24:50Z</time></trkpt><trkpt lat="42.941349390508634" lon="12.00230507701812"><ele>410.0</ele><time>2026-04-19T10:24:51Z</time></trkpt><trkpt lat="42.94145533982294" lon="12.002290259622384"><ele>410.0</ele><time>2026-04-19T10:24:52Z</time></trkpt><trkpt lat="42.94152540689841" lon="12.002292300749906"><ele>410.0</ele><time>2026-04-19T10:24:53Z</time></trkpt><trkpt lat="42.94161530530095" lon="12.002331794118822"><ele>410.0</ele><time>2026-04-19T10:24:55Z</time></trkpt><trkpt lat="42.941668237648194" lon="12.002277560918719"><ele>410.0</ele><time>2026-04-19T10:24:58Z</time></trkpt><trkpt lat="42.941541403029625" lon="12.002189795034763"><ele>410.0</ele><time>2026-04-19T10:25:01Z</time></trkpt><trkpt lat="42.94149564688997" lon="12.002022634444627"><ele>410.0</ele><time>2026-04-19T10:25:02Z</time></trkpt><trkpt lat="42.94141306927174" lon="12.001942235365043"><ele>410.0</ele><time>2026-04-19T10:25:03Z</time></trkpt><trkpt lat="42.941309269219104" lon="12.001854688795845"><ele>410.0</ele><time>2026-04-19T10:25:04Z</time></trkpt><trkpt lat="42.94121089609925" lon="12.001776778072381"><ele>410.0</ele><time>2026-04-19T10:25:05Z</time></trkpt><trkpt lat="42.94113767902158" lon="12.00165341062017"><ele>408.16666666666663</ele><time>2026-04-19T10:25:06Z</time></trkpt><trkpt lat="42.941054383037034" lon="12.001576443355187"><ele>406.3333333333333</ele><time>2026-04-19T10:25:07Z</time></trkpt><trkpt lat="42.94098169932225" lon="12.001505863804887"><ele>404.5</ele><time>2026-04-19T10:25:08Z</time></trkpt><trkpt lat="42.940925418982616" lon="12.001438281606958"><ele>402.66666666666663</ele><time>2026-04-19T10:25:09Z</time></trkpt><trkpt lat="42.94087066948668" lon="12.00135596524932"><ele>400.8333333333333</ele><time>2026-04-19T10:25:10Z</time></trkpt><trkpt lat="42.940821441661505" lon="12.001276729937187"><ele>399.0</ele><time>2026-04-19T10:25:11Z</time></trkpt><trkpt lat="42.940769758739776" lon="12.001201799980407"><ele>399.0</ele><time>2026-04-19T10:25:12Z</time></trkpt><trkpt lat="42.940688455200764" lon="12.00112484534605"><ele>399.0</ele><time>2026-04-19T10:25:13Z</time></trkpt><trkpt lat="42.94058090385925" lon="12.00104855808498"><ele>399.0</ele><time>2026-04-19T10:25:14Z</time></trkpt><trkpt lat="42.94046873260438" lon="12.00096300947499"><ele>399.0</ele><time>2026-04-19T10:25:15Z</time></trkpt><trkpt lat="42.940373630604974" lon="12.000890478788214"><ele>397.4</ele><time>2026-04-19T10:25:16Z</time></trkpt><trkpt lat="42.940294432059915" lon="12.000814407822954"><ele>395.79999999999995</ele><time>2026-04-19T10:25:17Z</time></trkpt><trkpt lat="42.94021759313163" lon="12.000743069621741"><ele>394.20000000000005</ele><time>2026-04-19T10:25:18Z</time></trkpt><trkpt lat="42.94013554717774" lon="12.000686238408646"><ele>392.6</ele><time>2026-04-19T10:25:19Z</time></trkpt><trkpt lat="42.94005531824359" lon="12.000657071578534"><ele>391.0</ele><time>2026-04-19T10:25:20Z</time></trkpt><trkpt lat="42.93997268527793" lon="12.000621825894294"><ele>389.5</ele><time>2026-04-19T10:25:21Z</time></trkpt><trkpt lat="42.93986733280683" lon="12.000610646020968"><ele>388.0</ele><time>2026-04-19T10:25:22Z</time></trkpt><trkpt lat="42.93975650006038" lon="12.000577731897321"><ele>386.5</ele><time>2026-04-19T10:25:23Z</time></trkpt><trkpt lat="42.939628961152664" lon="12.000566178146025"><ele>385.0</ele><time>2026-04-19T10:25:24Z</time></trkpt><trkpt lat="42.93949020222664" lon="12.000558076687936"><ele>385.0</ele><time>2026-04-19T10:25:25Z</time></trkpt><trkpt lat="42.93934952857415" lon="12.000545566527089"><ele>385.0</ele><time>2026-04-19T10:25:26Z</time></trkpt><trkpt lat="42.93922405007595" lon="12.000533545965867"><ele>385.0</ele><time>2026-04-19T10:25:27Z</time></trkpt><trkpt lat="42.93910826147078" lon="12.00051814795079"><ele>385.0</ele><time>2026-04-19T10:25:28Z</time></trkpt><trkpt lat="42.939006430181465" lon="12.00049710483851"><ele>384.50000000000006</ele><time>2026-04-19T10:25:29Z</time></trkpt><trkpt lat="42.93890943000986" lon="12.000462426074733"><ele>384.0</ele><time>2026-04-19T10:25:30Z</time></trkpt><trkpt lat="42.93882404697782" lon="12.000422291421216"><ele>383.5</ele><time>2026-04-19T10:25:31Z</time></trkpt><trkpt lat="42.9387452290639" lon="12.000379203673388"><ele>383.0</ele><time>2026-04-19T10:25:32Z</time></trkpt><trkpt lat="42.93867228863161" lon="12.000331461217247"><ele>382.5</ele><time>2026-04-19T10:25:33Z</time></trkpt><trkpt lat="42.93861679363704" lon="12.000275613195498"><ele>382.0</ele><time>2026-04-19T10:25:34Z</time></trkpt><trkpt lat="42.9385562773966" lon="12.00021209784231"><ele>382.0</ele><time>2026-04-19T10:25:35Z</time></trkpt><trkpt lat="42.938541999589454" lon="12.000096805660966"><ele>382.0</ele><time>2026-04-19T10:25:36Z</time></trkpt><trkpt lat="42.938518319411834" lon="11.99998333977434"><ele>382.0</ele><time>2026-04-19T10:25:37Z</time></trkpt><trkpt lat="42.93850325133045" lon="11.999843145959527"><ele>382.0</ele><time>2026-04-19T10:25:38Z</time></trkpt><trkpt lat="42.938488308961844" lon="11.999678165665172"><ele>382.0</ele><time>2026-04-19T10:25:39Z</time></trkpt><trkpt lat="42.938462337375334" lon="11.999518440177608"><ele>382.0</ele><time>2026-04-19T10:25:40Z</time></trkpt><trkpt lat="42.93845337065944" lon="11.99938079756756"><ele>382.0</ele><time>2026-04-19T10:25:41Z</time></trkpt><trkpt lat="42.93844466851779" lon="11.999252410746257"><ele>382.0</ele><time>2026-04-19T10:25:42Z</time></trkpt><trkpt lat="42.93843032549416" lon="11.999121663353483"><ele>382.0</ele><time>2026-04-19T10:25:43Z</time></trkpt><trkpt lat="42.93842926120346" lon="11.998996986095818"><ele>382.0</ele><time>2026-04-19T10:25:44Z</time></trkpt><trkpt lat="42.938412754103425" lon="11.99888178431369"><ele>381.3333333333333</ele><time>2026-04-19T10:25:45Z</time></trkpt><trkpt lat="42.938391243598495" lon="11.998770707611706"><ele>380.66666666666663</ele><time>2026-04-19T10:25:46Z</time></trkpt><trkpt lat="42.93836122433271" lon="11.998662864624817"><ele>380.0</ele><time>2026-04-19T10:25:47Z</time></trkpt><trkpt lat="42.938329733232024" lon="11.99855981701287"><ele>379.3333333333333</ele><time>2026-04-19T10:25:48Z</time></trkpt><trkpt lat="42.93827705620611" lon="11.998470357131998"><ele>378.6666666666667</ele><time>2026-04-19T10:25:49Z</time></trkpt><trkpt lat="42.938225647919246" lon="11.998392964001669"><ele>378.0</ele><time>2026-04-19T10:25:50Z</time></trkpt><trkpt lat="42.93814817060115" lon="11.99831935947417"><ele>378.0</ele><time>2026-04-19T10:25:51Z</time></trkpt><trkpt lat="42.93805149600732" lon="11.998239888968211"><ele>378.0</ele><time>2026-04-19T10:25:52Z</time></trkpt><trkpt lat="42.93793801155196" lon="11.99816061283761"><ele>378.0</ele><time>2026-04-19T10:25:53Z</time></trkpt><trkpt lat="42.9378353436513" lon="11.998094178912114"><ele>378.0</ele><time>2026-04-19T10:25:54Z</time></trkpt><trkpt lat="42.93775027542506" lon="11.998028891158402"><ele>378.0</ele><time>2026-04-19T10:25:55Z</time></trkpt><trkpt lat="42.93764916023256" lon="11.997964080513755"><ele>378.0</ele><time>2026-04-19T10:25:56Z</time></trkpt><trkpt lat="42.93758780070132" lon="11.997875039885237"><ele>378.0</ele><time>2026-04-19T10:25:57Z</time></trkpt><trkpt lat="42.93752653961242" lon="11.99779999383534"><ele>378.0</ele><time>2026-04-19T10:25:58Z</time></trkpt><trkpt lat="42.93745702560052" lon="11.997697945625129"><ele>378.0</ele><time>2026-04-19T10:25:59Z</time></trkpt><trkpt lat="42.93737333201842" lon="11.997579340097024"><ele>376.0</ele><time>2026-04-19T10:26:00Z</time></trkpt><trkpt lat="42.93730954246085" lon="11.997417293210951"><ele>374.0</ele><time>2026-04-19T10:26:01Z</time></trkpt><trkpt lat="42.937242874359036" lon="11.997278765030883"><ele>372.0</ele><time>2026-04-19T10:26:02Z</time></trkpt><trkpt lat="42.93716751877694" lon="11.997162856707062"><ele>370.0</ele><time>2026-04-19T10:26:03Z</time></trkpt><trkpt lat="42.93711581664181" lon="11.9970532415647"><ele>370.0</ele><time>2026-04-19T10:26:04Z</time></trkpt><trkpt lat="42.93705533012366" lon="11.996952755175759"><ele>370.0</ele><time>2026-04-19T10:26:05Z</time></trkpt><trkpt lat="42.936992288171204" lon="11.996868775399065"><ele>370.0</ele><time>2026-04-19T10:26:06Z</time></trkpt><trkpt lat="42.93691865855921" lon="11.996811778708265"><ele>370.0</ele><time>2026-04-19T10:26:07Z</time></trkpt><trkpt lat="42.936844002512224" lon="11.996797511009621"><ele>370.0</ele><time>2026-04-19T10:26:08Z</time></trkpt><trkpt lat="42.93677107371415" lon="11.996770005606113"><ele>370.0</ele><time>2026-04-19T10:26:09Z</time></trkpt><trkpt lat="42.93668340607072" lon="11.996763366349716"><ele>368.2</ele><time>2026-04-19T10:26:10Z</time></trkpt><trkpt lat="42.93658848652988" lon="11.996734960695617"><ele>366.4</ele><time>2026-04-19T10:26:11Z</time></trkpt><trkpt lat="42.93648368933783" lon="11.996731212883208"><ele>364.6</ele><time>2026-04-19T10:26:12Z</time></trkpt><trkpt lat="42.936392114869435" lon="11.99671447075516"><ele>362.8</ele><time>2026-04-19T10:26:13Z</time></trkpt><trkpt lat="42.93629634169779" lon="11.996670379818179"><ele>361.0</ele><time>2026-04-19T10:26:14Z</time></trkpt><trkpt lat="42.93619473403668" lon="11.996605807712953"><ele>359.75</ele><time>2026-04-19T10:26:15Z</time></trkpt><trkpt lat="42.9360818208544" lon="11.996530604820299"><ele>358.5</ele><time>2026-04-19T10:26:16Z</time></trkpt><trkpt lat="42.93597301674761" lon="11.996455246797847"><ele>357.25</ele><time>2026-04-19T10:26:17Z</time></trkpt><trkpt lat="42.935866263687515" lon="11.996376247789703"><ele>356.0</ele><time>2026-04-19T10:26:18Z</time></trkpt><trkpt lat="42.935773104063095" lon="11.996299020855592"><ele>354.83333333333337</ele><time>2026-04-19T10:26:19Z</time></trkpt><trkpt lat="42.93569957563393" lon="11.996232845171715"><ele>353.6666666666667</ele><time>2026-04-19T10:26:20Z</time></trkpt><trkpt lat="42.935637805481306" lon="11.996164924834567"><ele>352.5</ele><time>2026-04-19T10:26:21Z</time></trkpt><trkpt lat="42.93558651151414" lon="11.996088499192863"><ele>351.3333333333333</ele><time>2026-04-19T10:26:22Z</time></trkpt><trkpt lat="42.93553933064356" lon="11.99598901545787"><ele>350.16666666666663</ele><time>2026-04-19T10:26:23Z</time></trkpt><trkpt lat="42.9354859444757" lon="11.99585733022362"><ele>349.0</ele><time>2026-04-19T10:26:24Z</time></trkpt><trkpt lat="42.93543722775928" lon="11.995692433164553"><ele>348.25</ele><time>2026-04-19T10:26:25Z</time></trkpt><trkpt lat="42.93538678530318" lon="11.995517941133809"><ele>347.5</ele><time>2026-04-19T10:26:26Z</time></trkpt><trkpt lat="42.93531992480857" lon="11.995381900706006"><ele>346.75</ele><time>2026-04-19T10:26:27Z</time></trkpt><trkpt lat="42.935276016004586" lon="11.995239841197717"><ele>346.0</ele><time>2026-04-19T10:26:28Z</time></trkpt><trkpt lat="42.93521448908664" lon="11.9951227040404"><ele>346.0</ele><time>2026-04-19T10:26:29Z</time></trkpt><trkpt lat="42.93515288844506" lon="11.995009002757627"><ele>346.0</ele><time>2026-04-19T10:26:30Z</time></trkpt><trkpt lat="42.93507846159495" lon="11.994950585961202"><ele>346.0</ele><time>2026-04-19T10:26:31Z</time></trkpt><trkpt lat="42.93501241364319" lon="11.994898856915935"><ele>346.0</ele><time>2026-04-19T10:26:32Z</time></trkpt><trkpt lat="42.93494504015495" lon="11.994845399912359"><ele>346.0</ele><time>2026-04-19T10:26:33Z</time></trkpt><trkpt lat="42.93483037649719" lon="11.994796265600478"><ele>343.6</ele><time>2026-04-19T10:26:34Z</time></trkpt><trkpt lat="42.934783521389114" lon="11.994721616798762"><ele>341.20000000000005</ele><time>2026-04-19T10:26:35Z</time></trkpt><trkpt lat="42.934743515930855" lon="11.99460052636523"><ele>338.79999999999995</ele><time>2026-04-19T10:26:36Z</time></trkpt><trkpt lat="42.93484766003424" lon="11.994403100218303"><ele>336.4</ele><time>2026-04-19T10:26:37Z</time></trkpt><trkpt lat="42.93488881797008" lon="11.994282607317853"><ele>334.0</ele><time>2026-04-19T10:26:38Z</time></trkpt><trkpt lat="42.93493389241975" lon="11.994123675226643"><ele>333.25</ele><time>2026-04-19T10:26:39Z</time></trkpt><trkpt lat="42.934976316952245" lon="11.993950445106941"><ele>332.5</ele><time>2026-04-19T10:26:40Z</time></trkpt><trkpt lat="42.935012476693664" lon="11.993784931842276"><ele>331.75</ele><time>2026-04-19T10:26:41Z</time></trkpt><trkpt lat="42.93502493743683" lon="11.993637089669054"><ele>331.0</ele><time>2026-04-19T10:26:42Z</time></trkpt><trkpt lat="42.93504548315263" lon="11.993514871560754"><ele>331.0</ele><time>2026-04-19T10:26:43Z</time></trkpt><trkpt lat="42.935067614103325" lon="11.993376273716516"><ele>331.0</ele><time>2026-04-19T10:26:44Z</time></trkpt><trkpt lat="42.93505907812706" lon="11.993228987105901"><ele>331.0</ele><time>2026-04-19T10:26:45Z</time></trkpt><trkpt lat="42.93503837541707" lon="11.993072793977143"><ele>331.0</ele><time>2026-04-19T10:26:46Z</time></trkpt><trkpt lat="42.93499743208464" lon="11.992931860526808"><ele>331.0</ele><time>2026-04-19T10:26:47Z</time></trkpt><trkpt lat="42.93494542506271" lon="11.992808936918355"><ele>331.0</ele><time>2026-04-19T10:26:48Z</time></trkpt><trkpt lat="42.9348875896434" lon="11.992702370636614"><ele>331.0</ele><time>2026-04-19T10:26:49Z</time></trkpt><trkpt lat="42.93480384187313" lon="11.992587045327994"><ele>331.0</ele><time>2026-04-19T10:26:50Z</time></trkpt><trkpt lat="42.934699528604476" lon="11.992481576277251"><ele>331.0</ele><time>2026-04-19T10:26:51Z</time></trkpt><trkpt lat="42.934561980041195" lon="11.992396567120139"><ele>329.3333333333333</ele><time>2026-04-19T10:26:52Z</time></trkpt><trkpt lat="42.93441651136114" lon="11.992273912190676"><ele>327.6666666666667</ele><time>2026-04-19T10:26:53Z</time></trkpt><trkpt lat="42.934244064480154" lon="11.992150554345358"><ele>326.0</ele><time>2026-04-19T10:26:54Z</time></trkpt><trkpt lat="42.93406999197553" lon="11.992028926202758"><ele>330.6666666666667</ele><time>2026-04-19T10:26:55Z</time></trkpt><trkpt lat="42.93392575971689" lon="11.991930406598758"><ele>335.3333333333333</ele><time>2026-04-19T10:26:56Z</time></trkpt><trkpt lat="42.93379175271349" lon="11.99183783479093"><ele>340.0</ele><time>2026-04-19T10:26:57Z</time></trkpt><trkpt lat="42.93366017140805" lon="11.991770012191328"><ele>340.0</ele><time>2026-04-19T10:26:58Z</time></trkpt><trkpt lat="42.933528225397296" lon="11.991674909264392"><ele>340.0</ele><time>2026-04-19T10:26:59Z</time></trkpt><trkpt lat="42.933391348658716" lon="11.991595860667632"><ele>340.0</ele><time>2026-04-19T10:27:00Z</time></trkpt><trkpt lat="42.933241941119434" lon="11.991530546824348"><ele>338.0</ele><time>2026-04-19T10:27:01Z</time></trkpt><trkpt lat="42.93308881266033" lon="11.9914559104102"><ele>336.0</ele><time>2026-04-19T10:27:02Z</time></trkpt><trkpt lat="42.932923043004344" lon="11.991389861079913"><ele>334.0</ele><time>2026-04-19T10:27:03Z</time></trkpt><trkpt lat="42.93275138321971" lon="11.991316854241292"><ele>334.0</ele><time>2026-04-19T10:27:04Z</time></trkpt><trkpt lat="42.932602035135396" lon="11.991257348597319"><ele>334.0</ele><time>2026-04-19T10:27:05Z</time></trkpt><trkpt lat="42.93245980537324" lon="11.99121203963004"><ele>334.0</ele><time>2026-04-19T10:27:06Z</time></trkpt><trkpt lat="42.93232445999092" lon="11.991184835784034"><ele>334.0</ele><time>2026-04-19T10:27:07Z</time></trkpt><trkpt lat="42.93218993109121" lon="11.991157966800895"><ele>334.25</ele><time>2026-04-19T10:27:08Z</time></trkpt><trkpt lat="42.932062944704185" lon="11.991114953659531"><ele>334.5</ele><time>2026-04-19T10:27:09Z</time></trkpt><trkpt lat="42.93194803564781" lon="11.99105590420078"><ele>334.75</ele><time>2026-04-19T10:27:10Z</time></trkpt><trkpt lat="42.931847479654785" lon="11.990974449996397"><ele>335.0</ele><time>2026-04-19T10:27:11Z</time></trkpt><trkpt lat="42.93175807503001" lon="11.990851357286404"><ele>334.0</ele><time>2026-04-19T10:27:12Z</time></trkpt><trkpt lat="42.93166958172044" lon="11.99067822227513"><ele>333.0</ele><time>2026-04-19T10:27:13Z</time></trkpt><trkpt lat="42.93157763055591" lon="11.990476895356158"><ele>332.0</ele><time>2026-04-19T10:27:14Z</time></trkpt><trkpt lat="42.93150779591839" lon="11.990307719346978"><ele>332.0</ele><time>2026-04-19T10:27:15Z</time></trkpt><trkpt lat="42.93144953577744" lon="11.990144292717163"><ele>332.0</ele><time>2026-04-19T10:27:16Z</time></trkpt><trkpt lat="42.93140405614972" lon="11.989958282698883"><ele>332.0</ele><time>2026-04-19T10:27:17Z</time></trkpt><trkpt lat="42.931375832826916" lon="11.989734547089448"><ele>332.0</ele><time>2026-04-19T10:27:18Z</time></trkpt><trkpt lat="42.931339781160375" lon="11.989502896917703"><ele>331.5</ele><time>2026-04-19T10:27:19Z</time></trkpt><trkpt lat="42.931289589560926" lon="11.98929045304724"><ele>331.0</ele><time>2026-04-19T10:27:20Z</time></trkpt><trkpt lat="42.931229269081285" lon="11.989106322038856"><ele>330.5</ele><time>2026-04-19T10:27:21Z</time></trkpt><trkpt lat="42.931173411397026" lon="11.988938309068356"><ele>330.0</ele><time>2026-04-19T10:27:22Z</time></trkpt><trkpt lat="42.931128370369414" lon="11.988777838594968"><ele>329.5</ele><time>2026-04-19T10:27:23Z</time></trkpt><trkpt lat="42.931096702354324" lon="11.988616704835586"><ele>329.0</ele><time>2026-04-19T10:27:24Z</time></trkpt><trkpt lat="42.93107361367595" lon="11.988458768295297"><ele>328.5</ele><time>2026-04-19T10:27:25Z</time></trkpt><trkpt lat="42.931053433236855" lon="11.988316273522333"><ele>328.0</ele><time>2026-04-19T10:27:26Z</time></trkpt><trkpt lat="42.93102911367235" lon="11.988178822264677"><ele>328.2</ele><time>2026-04-19T10:27:27Z</time></trkpt><trkpt lat="42.930999987693276" lon="11.98805557728747"><ele>328.4</ele><time>2026-04-19T10:27:28Z</time></trkpt><trkpt lat="42.930969948565" lon="11.987936753854953"><ele>328.59999999999997</ele><time>2026-04-19T10:27:29Z</time></trkpt><trkpt lat="42.93093328969982" lon="11.987809650112334"><ele>328.79999999999995</ele><time>2026-04-19T10:27:30Z</time></trkpt><trkpt lat="42.93089018911156" lon="11.987677327854072"><ele>329.0</ele><time>2026-04-19T10:27:31Z</time></trkpt><trkpt lat="42.930841500660215" lon="11.987545519824838"><ele>327.0</ele><time>2026-04-19T10:27:32Z</time></trkpt><trkpt lat="42.93078835785156" lon="11.98741836832096"><ele>325.0</ele><time>2026-04-19T10:27:33Z</time></trkpt><trkpt lat="42.9307340396853" lon="11.987299983690646"><ele>323.0</ele><time>2026-04-19T10:27:34Z</time></trkpt><trkpt lat="42.930671004134666" lon="11.987187533545724"><ele>321.0</ele><time>2026-04-19T10:27:35Z</time></trkpt><trkpt lat="42.93061161501963" lon="11.987094208281931"><ele>319.0</ele><time>2026-04-19T10:27:36Z</time></trkpt><trkpt lat="42.93054390264214" lon="11.987005646952564"><ele>319.0</ele><time>2026-04-19T10:27:37Z</time></trkpt><trkpt lat="42.93046648302409" lon="11.9869192873228"><ele>319.0</ele><time>2026-04-19T10:27:38Z</time></trkpt><trkpt lat="42.93036407830146" lon="11.986851181754917"><ele>319.0</ele><time>2026-04-19T10:27:39Z</time></trkpt><trkpt lat="42.9302900343312" lon="11.986754055722601"><ele>319.0</ele><time>2026-04-19T10:27:40Z</time></trkpt><trkpt lat="42.93021484629812" lon="11.986682678999525"><ele>319.0</ele><time>2026-04-19T10:27:41Z</time></trkpt><trkpt lat="42.93013607094225" lon="11.986595173267453"><ele>318.75</ele><time>2026-04-19T10:27:42Z</time></trkpt><trkpt lat="42.930048375536636" lon="11.986485435794522"><ele>318.5</ele><time>2026-04-19T10:27:43Z</time></trkpt><trkpt lat="42.92994780292157" lon="11.986357750657474"><ele>318.25</ele><time>2026-04-19T10:27:44Z</time></trkpt><trkpt lat="42.92984368414056" lon="11.986235377575944"><ele>318.0</ele><time>2026-04-19T10:27:45Z</time></trkpt><trkpt lat="42.9297354544556" lon="11.98613956435704"><ele>318.0</ele><time>2026-04-19T10:27:46Z</time></trkpt><trkpt lat="42.929632041912214" lon="11.986033302093501"><ele>318.0</ele><time>2026-04-19T10:27:47Z</time></trkpt><trkpt lat="42.92952780981726" lon="11.985911440680974"><ele>318.0</ele><time>2026-04-19T10:27:48Z</time></trkpt><trkpt lat="42.92942652255218" lon="11.985812912538433"><ele>318.0</ele><time>2026-04-19T10:27:49Z</time></trkpt><trkpt lat="42.92933565254926" lon="11.985724995185429"><ele>316.6</ele><time>2026-04-19T10:27:50Z</time></trkpt><trkpt lat="42.929249297109884" lon="11.985643930920691"><ele>315.20000000000005</ele><time>2026-04-19T10:27:51Z</time></trkpt><trkpt lat="42.92915998276833" lon="11.98557578071215"><ele>313.8</ele><time>2026-04-19T10:27:52Z</time></trkpt><trkpt lat="42.9290556499241" lon="11.98552433409149"><ele>312.40000000000003</ele><time>2026-04-19T10:27:53Z</time></trkpt><trkpt lat="42.92894379498586" lon="11.985513938908227"><ele>311.0</ele><time>2026-04-19T10:27:54Z</time></trkpt><trkpt lat="42.92883945635376" lon="11.985509154549144"><ele>310.6666666666667</ele><time>2026-04-19T10:27:55Z</time></trkpt><trkpt lat="42.92873593033954" lon="11.985529693049305"><ele>310.33333333333337</ele><time>2026-04-19T10:27:56Z</time></trkpt><trkpt lat="42.928638223975156" lon="11.985573781229235"><ele>310.0</ele><time>2026-04-19T10:27:57Z</time></trkpt><trkpt lat="42.928553960328045" lon="11.985602231507553"><ele>309.6666666666667</ele><time>2026-04-19T10:27:58Z</time></trkpt><trkpt lat="42.92848174673157" lon="11.985615158744363"><ele>309.3333333333333</ele><time>2026-04-19T10:27:59Z</time></trkpt><trkpt lat="42.928417467693386" lon="11.985606304131826"><ele>309.0</ele><time>2026-04-19T10:28:00Z</time></trkpt><trkpt lat="42.92833838647243" lon="11.985533777028104"><ele>309.0</ele><time>2026-04-19T10:28:02Z</time></trkpt><trkpt lat="42.92833483542709" lon="11.985447015247118"><ele>309.0</ele><time>2026-04-19T10:28:03Z</time></trkpt><trkpt lat="42.928366203921776" lon="11.985285160217362"><ele>309.0</ele><time>2026-04-19T10:28:05Z</time></trkpt><trkpt lat="42.92837827097888" lon="11.98515974939307"><ele>309.0</ele><time>2026-04-19T10:28:06Z</time></trkpt><trkpt lat="42.92839331230737" lon="11.985017313252822"><ele>309.0</ele><time>2026-04-19T10:28:07Z</time></trkpt><trkpt lat="42.928414968474215" lon="11.984864264898613"><ele>309.0</ele><time>2026-04-19T10:28:08Z</time></trkpt><trkpt lat="42.92843663579425" lon="11.984703992446516"><ele>309.0</ele><time>2026-04-19T10:28:09Z</time></trkpt><trkpt lat="42.928451355136986" lon="11.984518695571566"><ele>309.0</ele><time>2026-04-19T10:28:10Z</time></trkpt><trkpt lat="42.92845883687475" lon="11.984305157128846"><ele>309.0</ele><time>2026-04-19T10:28:11Z</time></trkpt><trkpt lat="42.92844658984692" lon="11.984084348866343"><ele>306.25</ele><time>2026-04-19T10:28:12Z</time></trkpt><trkpt lat="42.92840314083796" lon="11.983866252669493"><ele>303.5</ele><time>2026-04-19T10:28:13Z</time></trkpt><trkpt lat="42.92835071283298" lon="11.983678396710948"><ele>300.75</ele><time>2026-04-19T10:28:14Z</time></trkpt><trkpt lat="42.92830322766205" lon="11.983511299726437"><ele>298.0</ele><time>2026-04-19T10:28:15Z</time></trkpt><trkpt lat="42.92826774441542" lon="11.983356640545685"><ele>295.6</ele><time>2026-04-19T10:28:16Z</time></trkpt><trkpt lat="42.928246987261716" lon="11.983205212710951"><ele>293.20000000000005</ele><time>2026-04-19T10:28:17Z</time></trkpt><trkpt lat="42.92823651790971" lon="11.983067214938448"><ele>290.8</ele><time>2026-04-19T10:28:18Z</time></trkpt><trkpt lat="42.92822899735715" lon="11.982949239571589"><ele>288.40000000000003</ele><time>2026-04-19T10:28:19Z</time></trkpt><trkpt lat="42.92821879384801" lon="11.982827266719179"><ele>286.0</ele><time>2026-04-19T10:28:20Z</time></trkpt><trkpt lat="42.928223857164774" lon="11.982727796575896"><ele>286.0</ele><time>2026-04-19T10:28:21Z</time></trkpt><trkpt lat="42.92822481757849" lon="11.982635463214251"><ele>286.0</ele><time>2026-04-19T10:28:22Z</time></trkpt><trkpt lat="42.928220302074784" lon="11.982545366143315"><ele>286.0</ele><time>2026-04-19T10:28:23Z</time></trkpt><trkpt lat="42.92822026490815" lon="11.982454355960192"><ele>286.0</ele><time>2026-04-19T10:28:24Z</time></trkpt><trkpt lat="42.92818241797166" lon="11.982359920352458"><ele>286.0</ele><time>2026-04-19T10:28:25Z</time></trkpt><trkpt lat="42.92810586862655" lon="11.9822894609841"><ele>286.0</ele><time>2026-04-19T10:28:26Z</time></trkpt><trkpt lat="42.92803004471353" lon="11.982175112672039"><ele>284.25</ele><time>2026-04-19T10:28:27Z</time></trkpt><trkpt lat="42.927908149232394" lon="11.982082532746173"><ele>282.5</ele><time>2026-04-19T10:28:28Z</time></trkpt><trkpt lat="42.92781970665085" lon="11.981961735924179"><ele>280.75</ele><time>2026-04-19T10:28:29Z</time></trkpt><trkpt lat="42.9277361884255" lon="11.981866202163426"><ele>279.0</ele><time>2026-04-19T10:28:30Z</time></trkpt><trkpt lat="42.927654259718466" lon="11.981772486484157"><ele>277.4</ele><time>2026-04-19T10:28:31Z</time></trkpt><trkpt lat="42.92756892419138" lon="11.981673225069455"><ele>275.79999999999995</ele><time>2026-04-19T10:28:32Z</time></trkpt><trkpt lat="42.927490354777866" lon="11.98157357092794"><ele>274.20000000000005</ele><time>2026-04-19T10:28:33Z</time></trkpt><trkpt lat="42.927425326179296" lon="11.981475786030076"><ele>272.6</ele><time>2026-04-19T10:28:34Z</time></trkpt><trkpt lat="42.927371746924166" lon="11.981369348059552"><ele>271.0</ele><time>2026-04-19T10:28:35Z</time></trkpt><trkpt lat="42.92731128518609" lon="11.981238645343069"><ele>270.25</ele><time>2026-04-19T10:28:36Z</time></trkpt><trkpt lat="42.927273818173134" lon="11.98106478682655"><ele>269.5</ele><time>2026-04-19T10:28:37Z</time></trkpt><trkpt lat="42.927239156860345" lon="11.980874583812327"><ele>268.75</ele><time>2026-04-19T10:28:38Z</time></trkpt><trkpt lat="42.92721019199865" lon="11.980695337324333"><ele>268.0</ele><time>2026-04-19T10:28:39Z</time></trkpt><trkpt lat="42.927181415873704" lon="11.98053600142029"><ele>266.4</ele><time>2026-04-19T10:28:40Z</time></trkpt><trkpt lat="42.92718151032677" lon="11.980390680755294"><ele>264.8</ele><time>2026-04-19T10:28:41Z</time></trkpt><trkpt lat="42.92717519585521" lon="11.98026846639949"><ele>263.2</ele><time>2026-04-19T10:28:42Z</time></trkpt><trkpt lat="42.92716727946418" lon="11.980154802063415"><ele>261.6</ele><time>2026-04-19T10:28:43Z</time></trkpt><trkpt lat="42.9271605401895" lon="11.980064393250291"><ele>260.0</ele><time>2026-04-19T10:28:44Z</time></trkpt><trkpt lat="42.92715142659435" lon="11.979903160114631"><ele>259.5</ele><time>2026-04-19T10:28:46Z</time></trkpt><trkpt lat="42.927139596271246" lon="11.979722927594414"><ele>259.0</ele><time>2026-04-19T10:28:48Z</time></trkpt><trkpt lat="42.927124996872976" lon="11.979589284619266"><ele>258.5</ele><time>2026-04-19T10:28:49Z</time></trkpt><trkpt lat="42.9270976882033" lon="11.979449178960119"><ele>258.0</ele><time>2026-04-19T10:28:50Z</time></trkpt><trkpt lat="42.92705458629552" lon="11.979299371874582"><ele>256.75</ele><time>2026-04-19T10:28:51Z</time></trkpt><trkpt lat="42.926998735859875" lon="11.979151176569216"><ele>255.5</ele><time>2026-04-19T10:28:52Z</time></trkpt><trkpt lat="42.92693046084744" lon="11.978986092064293"><ele>254.25</ele><time>2026-04-19T10:28:53Z</time></trkpt><trkpt lat="42.92685341482567" lon="11.978807597651393"><ele>253.0</ele><time>2026-04-19T10:28:54Z</time></trkpt><trkpt lat="42.926769479279635" lon="11.978630047616067"><ele>252.8</ele><time>2026-04-19T10:28:55Z</time></trkpt><trkpt lat="42.92668779060352" lon="11.978490024534672"><ele>252.60000000000002</ele><time>2026-04-19T10:28:56Z</time></trkpt><trkpt lat="42.926628032267494" lon="11.978354531335375"><ele>252.39999999999998</ele><time>2026-04-19T10:28:57Z</time></trkpt><trkpt lat="42.9265768134988" lon="11.97823554824438"><ele>252.2</ele><time>2026-04-19T10:28:58Z</time></trkpt><trkpt lat="42.92653159611277" lon="11.978142309152272"><ele>252.0</ele><time>2026-04-19T10:28:59Z</time></trkpt><trkpt lat="42.92647704308927" lon="11.978011625863822"><ele>251.6</ele><time>2026-04-19T10:29:01Z</time></trkpt><trkpt lat="42.92647135389345" lon="11.977895211684155"><ele>251.2</ele><time>2026-04-19T10:29:03Z</time></trkpt><trkpt lat="42.92654129102647" lon="11.977803504595506"><ele>250.8</ele><time>2026-04-19T10:29:05Z</time></trkpt><trkpt lat="42.926607794923505" lon="11.977799091957776"><ele>250.4</ele><time>2026-04-19T10:29:06Z</time></trkpt><trkpt lat="42.926705154692016" lon="11.977749433075479"><ele>250.0</ele><time>2026-04-19T10:29:07Z</time></trkpt><trkpt lat="42.92683247350291" lon="11.97772041894662"><ele>250.0</ele><time>2026-04-19T10:29:08Z</time></trkpt><trkpt lat="42.92698357849858" lon="11.977704236813784"><ele>250.0</ele><time>2026-04-19T10:29:09Z</time></trkpt><trkpt lat="42.927140638538916" lon="11.977638390573881"><ele>250.0</ele><time>2026-04-19T10:29:10Z</time></trkpt><trkpt lat="42.927325604407905" lon="11.977583385492398"><ele>249.33333333333331</ele><time>2026-04-19T10:29:11Z</time></trkpt><trkpt lat="42.927512071695034" lon="11.977503632752605"><ele>248.66666666666669</ele><time>2026-04-19T10:29:12Z</time></trkpt><trkpt lat="42.927693649055264" lon="11.977421896399367"><ele>248.0</ele><time>2026-04-19T10:29:13Z</time></trkpt><trkpt lat="42.92785871386506" lon="11.977352331751614"><ele>249.33333333333334</ele><time>2026-04-19T10:29:14Z</time></trkpt><trkpt lat="42.928013559416655" lon="11.977285979967286"><ele>250.66666666666669</ele><time>2026-04-19T10:29:15Z</time></trkpt><trkpt lat="42.92816368089567" lon="11.977196819223858"><ele>252.0</ele><time>2026-04-19T10:29:16Z</time></trkpt><trkpt lat="42.92831158247634" lon="11.977084126129824"><ele>253.66666666666669</ele><time>2026-04-19T10:29:17Z</time></trkpt><trkpt lat="42.92845124098766" lon="11.97696717199963"><ele>255.33333333333334</ele><time>2026-04-19T10:29:18Z</time></trkpt><trkpt lat="42.92858169254758" lon="11.97686344980101"><ele>257.0</ele><time>2026-04-19T10:29:19Z</time></trkpt><trkpt lat="42.92869808423045" lon="11.976754278102293"><ele>255.25</ele><time>2026-04-19T10:29:20Z</time></trkpt><trkpt lat="42.92880599828029" lon="11.976654664887384"><ele>253.5</ele><time>2026-04-19T10:29:21Z</time></trkpt><trkpt lat="42.928919936424336" lon="11.976546193023369"><ele>251.75</ele><time>2026-04-19T10:29:22Z</time></trkpt><trkpt lat="42.92904015254381" lon="11.976428945748054"><ele>250.0</ele><time>2026-04-19T10:29:23Z</time></trkpt><trkpt lat="42.929163998718835" lon="11.976312998761664"><ele>251.5</ele><time>2026-04-19T10:29:24Z</time></trkpt><trkpt lat="42.92930235076738" lon="11.976239663461422"><ele>253.0</ele><time>2026-04-19T10:29:25Z</time></trkpt><trkpt lat="42.92943220470475" lon="11.97614531008848"><ele>254.5</ele><time>2026-04-19T10:29:26Z</time></trkpt><trkpt lat="42.92957723874967" lon="11.97607910941674"><ele>256.0</ele><time>2026-04-19T10:29:27Z</time></trkpt><trkpt lat="42.92972822459873" lon="11.976020963436726"><ele>256.0</ele><time>2026-04-19T10:29:28Z</time></trkpt><trkpt lat="42.929881427549944" lon="11.975973110497272"><ele>256.0</ele><time>2026-04-19T10:29:29Z</time></trkpt><trkpt lat="42.93003929561961" lon="11.975926165096038"><ele>256.0</ele><time>2026-04-19T10:29:30Z</time></trkpt><trkpt lat="42.93020226839447" lon="11.97587358867901"><ele>254.0</ele><time>2026-04-19T10:29:31Z</time></trkpt><trkpt lat="42.93036131685696" lon="11.975818546775713"><ele>252.0</ele><time>2026-04-19T10:29:32Z</time></trkpt><trkpt lat="42.93050472423608" lon="11.975764454376867"><ele>250.0</ele><time>2026-04-19T10:29:33Z</time></trkpt><trkpt lat="42.93064423533266" lon="11.9757149201865"><ele>250.0</ele><time>2026-04-19T10:29:34Z</time></trkpt><trkpt lat="42.930790250891214" lon="11.975666433930478"><ele>250.0</ele><time>2026-04-19T10:29:35Z</time></trkpt><trkpt lat="42.93094119650683" lon="11.975617641685503"><ele>250.0</ele><time>2026-04-19T10:29:36Z</time></trkpt><trkpt lat="42.931091304006976" lon="11.975563071663492"><ele>250.75</ele><time>2026-04-19T10:29:37Z</time></trkpt><trkpt lat="42.931227966240435" lon="11.975510732773522"><ele>251.5</ele><time>2026-04-19T10:29:38Z</time></trkpt><trkpt lat="42.931353822291086" lon="11.975460651099475"><ele>252.25</ele><time>2026-04-19T10:29:39Z</time></trkpt><trkpt lat="42.931467401212785" lon="11.975409612705713"><ele>253.0</ele><time>2026-04-19T10:29:40Z</time></trkpt><trkpt lat="42.93157593321861" lon="11.975375502498032"><ele>253.0</ele><time>2026-04-19T10:29:41Z</time></trkpt><trkpt lat="42.93166679796263" lon="11.97531249297156"><ele>253.0</ele><time>2026-04-19T10:29:42Z</time></trkpt><trkpt lat="42.931758455091085" lon="11.975313419078129"><ele>253.0</ele><time>2026-04-19T10:29:43Z</time></trkpt><trkpt lat="42.93182407984474" lon="11.975309063439875"><ele>253.0</ele><time>2026-04-19T10:29:44Z</time></trkpt><trkpt lat="42.93185018896208" lon="11.975172957695358"><ele>253.0</ele><time>2026-04-19T10:29:46Z</time></trkpt><trkpt lat="42.93174158048818" lon="11.975044041511708"><ele>252.25</ele><time>2026-04-19T10:29:48Z</time></trkpt><trkpt lat="42.93166672186487" lon="11.974942055632727"><ele>251.5</ele><time>2026-04-19T10:29:49Z</time></trkpt><trkpt lat="42.93158154097271" lon="11.97480948563384"><ele>250.75</ele><time>2026-04-19T10:29:50Z</time></trkpt><trkpt lat="42.931490314371345" lon="11.974667398338438"><ele>250.0</ele><time>2026-04-19T10:29:51Z</time></trkpt><trkpt lat="42.931383819141374" lon="11.974512082738334"><ele>250.0</ele><time>2026-04-19T10:29:52Z</time></trkpt><trkpt lat="42.93127335479428" lon="11.974344182629233"><ele>250.0</ele><time>2026-04-19T10:29:53Z</time></trkpt><trkpt lat="42.93116456486412" lon="11.97419328799871"><ele>250.0</ele><time>2026-04-19T10:29:54Z</time></trkpt><trkpt lat="42.93106601826541" lon="11.97404045504841"><ele>249.75</ele><time>2026-04-19T10:29:55Z</time></trkpt><trkpt lat="42.930977577584336" lon="11.973877469732267"><ele>249.5</ele><time>2026-04-19T10:29:56Z</time></trkpt><trkpt lat="42.93088887061098" lon="11.973718359423788"><ele>249.25</ele><time>2026-04-19T10:29:57Z</time></trkpt><trkpt lat="42.93081909735931" lon="11.973537386096385"><ele>249.0</ele><time>2026-04-19T10:29:58Z</time></trkpt><trkpt lat="42.93078451355597" lon="11.973330783372184"><ele>248.0</ele><time>2026-04-19T10:29:59Z</time></trkpt><trkpt lat="42.930730503567894" lon="11.973123789147534"><ele>247.0</ele><time>2026-04-19T10:30:00Z</time></trkpt><trkpt lat="42.930711830366775" lon="11.97289824943819"><ele>246.0</ele><time>2026-04-19T10:30:01Z</time></trkpt><trkpt lat="42.930729812713075" lon="11.972663913045128"><ele>245.33333333333331</ele><time>2026-04-19T10:30:02Z</time></trkpt><trkpt lat="42.93075578707812" lon="11.972424182988208"><ele>244.66666666666666</ele><time>2026-04-19T10:30:03Z</time></trkpt><trkpt lat="42.930800248256425" lon="11.972192158267816"><ele>244.0</ele><time>2026-04-19T10:30:04Z</time></trkpt><trkpt lat="42.93087158623816" lon="11.971976111119005"><ele>244.66666666666666</ele><time>2026-04-19T10:30:05Z</time></trkpt><trkpt lat="42.93095863260762" lon="11.971784882418962"><ele>245.33333333333331</ele><time>2026-04-19T10:30:06Z</time></trkpt><trkpt lat="42.93105575859448" lon="11.97160916364615"><ele>246.0</ele><time>2026-04-19T10:30:07Z</time></trkpt><trkpt lat="42.93117375305821" lon="11.971455817223049"><ele>246.0</ele><time>2026-04-19T10:30:08Z</time></trkpt><trkpt lat="42.93129624501351" lon="11.971317773588325"><ele>246.0</ele><time>2026-04-19T10:30:09Z</time></trkpt><trkpt lat="42.93141556774652" lon="11.97118088383988"><ele>246.0</ele><time>2026-04-19T10:30:10Z</time></trkpt><trkpt lat="42.93154151729762" lon="11.97106574502547"><ele>246.0</ele><time>2026-04-19T10:30:11Z</time></trkpt><trkpt lat="42.93165225270588" lon="11.970935983149246"><ele>246.0</ele><time>2026-04-19T10:30:12Z</time></trkpt><trkpt lat="42.931747072948404" lon="11.97077574784201"><ele>246.0</ele><time>2026-04-19T10:30:13Z</time></trkpt><trkpt lat="42.931812416519634" lon="11.970578945338369"><ele>245.66666666666669</ele><time>2026-04-19T10:30:14Z</time></trkpt><trkpt lat="42.9318440790638" lon="11.970362925599519"><ele>245.33333333333334</ele><time>2026-04-19T10:30:15Z</time></trkpt><trkpt lat="42.93184475274069" lon="11.970132689316177"><ele>245.0</ele><time>2026-04-19T10:30:16Z</time></trkpt><trkpt lat="42.9318281387115" lon="11.969891244449496"><ele>245.0</ele><time>2026-04-19T10:30:17Z</time></trkpt><trkpt lat="42.93181140611833" lon="11.969653265268079"><ele>245.0</ele><time>2026-04-19T10:30:18Z</time></trkpt><trkpt lat="42.93179671053045" lon="11.969415457678695"><ele>245.0</ele><time>2026-04-19T10:30:19Z</time></trkpt><trkpt lat="42.93178360273869" lon="11.969180533392436"><ele>245.0</ele><time>2026-04-19T10:30:20Z</time></trkpt><trkpt lat="42.93177289833963" lon="11.96893616468074"><ele>245.0</ele><time>2026-04-19T10:30:21Z</time></trkpt><trkpt lat="42.93178018905296" lon="11.968692033505084"><ele>245.0</ele><time>2026-04-19T10:30:22Z</time></trkpt><trkpt lat="42.931772230072944" lon="11.968460475417464"><ele>246.0</ele><time>2026-04-19T10:30:23Z</time></trkpt><trkpt lat="42.93176246149395" lon="11.968231143648936"><ele>247.0</ele><time>2026-04-19T10:30:24Z</time></trkpt><trkpt lat="42.93175297453571" lon="11.96799745501425"><ele>248.0</ele><time>2026-04-19T10:30:25Z</time></trkpt><trkpt lat="42.931728717186374" lon="11.967778599011416"><ele>248.0</ele><time>2026-04-19T10:30:26Z</time></trkpt><trkpt lat="42.93173392088957" lon="11.967565841175915"><ele>248.0</ele><time>2026-04-19T10:30:27Z</time></trkpt><trkpt lat="42.93170839077386" lon="11.967355445988016"><ele>248.0</ele><time>2026-04-19T10:30:28Z</time></trkpt><trkpt lat="42.93169659694209" lon="11.96714514338947"><ele>247.0</ele><time>2026-04-19T10:30:29Z</time></trkpt><trkpt lat="42.931665001329335" lon="11.966936636846771"><ele>246.0</ele><time>2026-04-19T10:30:30Z</time></trkpt><trkpt lat="42.9316109030035" lon="11.966719105525002"><ele>245.0</ele><time>2026-04-19T10:30:31Z</time></trkpt><trkpt lat="42.93153286582357" lon="11.966500118121346"><ele>245.0</ele><time>2026-04-19T10:30:32Z</time></trkpt><trkpt lat="42.93142970057108" lon="11.966283984682102"><ele>245.0</ele><time>2026-04-19T10:30:33Z</time></trkpt><trkpt lat="42.93130601542247" lon="11.966075424656948"><ele>245.0</ele><time>2026-04-19T10:30:34Z</time></trkpt><trkpt lat="42.93116555505255" lon="11.965863038821265"><ele>244.66666666666669</ele><time>2026-04-19T10:30:35Z</time></trkpt><trkpt lat="42.931020514610026" lon="11.965643277288477"><ele>244.33333333333331</ele><time>2026-04-19T10:30:36Z</time></trkpt><trkpt lat="42.93087440087761" lon="11.965412005578257"><ele>244.0</ele><time>2026-04-19T10:30:37Z</time></trkpt><trkpt lat="42.930733456057226" lon="11.965184411299788"><ele>244.0</ele><time>2026-04-19T10:30:38Z</time></trkpt><trkpt lat="42.930594526219004" lon="11.964963623866295"><ele>244.0</ele><time>2026-04-19T10:30:39Z</time></trkpt><trkpt lat="42.93045788341288" lon="11.964744763588948"><ele>244.0</ele><time>2026-04-19T10:30:40Z</time></trkpt><trkpt lat="42.930321087475114" lon="11.964524103922514"><ele>244.0</ele><time>2026-04-19T10:30:41Z</time></trkpt><trkpt lat="42.93018783687139" lon="11.964308386229128"><ele>244.0</ele><time>2026-04-19T10:30:42Z</time></trkpt><trkpt lat="42.93005128325014" lon="11.964089461939174"><ele>244.0</ele><time>2026-04-19T10:30:43Z</time></trkpt><trkpt lat="42.92991775780636" lon="11.963878868719508"><ele>244.33333333333331</ele><time>2026-04-19T10:30:44Z</time></trkpt><trkpt lat="42.92977825885031" lon="11.963670922476766"><ele>244.66666666666669</ele><time>2026-04-19T10:30:45Z</time></trkpt><trkpt lat="42.929625826995114" lon="11.963467799962594"><ele>245.0</ele><time>2026-04-19T10:30:46Z</time></trkpt><trkpt lat="42.92948281143702" lon="11.96324137660248"><ele>244.0</ele><time>2026-04-19T10:30:47Z</time></trkpt><trkpt lat="42.92927868113634" lon="11.963066036541976"><ele>243.0</ele><time>2026-04-19T10:30:48Z</time></trkpt><trkpt lat="42.9290930746" lon="11.962865699876781"><ele>243.0</ele><time>2026-04-19T10:30:49Z</time></trkpt><trkpt lat="42.92890083380696" lon="11.962659835178915"><ele>243.0</ele><time>2026-04-19T10:30:50Z</time></trkpt><trkpt lat="42.928721863993104" lon="11.962443707031525"><ele>243.0</ele><time>2026-04-19T10:30:51Z</time></trkpt><trkpt lat="42.92853563320249" lon="11.962247513100476"><ele>243.0</ele><time>2026-04-19T10:30:52Z</time></trkpt><trkpt lat="42.92835711802524" lon="11.962058883216116"><ele>242.66666666666669</ele><time>2026-04-19T10:30:53Z</time></trkpt><trkpt lat="42.92819839308096" lon="11.96189060586774"><ele>242.33333333333334</ele><time>2026-04-19T10:30:54Z</time></trkpt><trkpt lat="42.92805133470398" lon="11.961732089480687"><ele>242.0</ele><time>2026-04-19T10:30:55Z</time></trkpt><trkpt lat="42.92791048239775" lon="11.961582079341738"><ele>242.0</ele><time>2026-04-19T10:30:56Z</time></trkpt><trkpt lat="42.927780624155076" lon="11.96143674225446"><ele>242.0</ele><time>2026-04-19T10:30:57Z</time></trkpt><trkpt lat="42.92766740788147" lon="11.961245335076718"><ele>242.0</ele><time>2026-04-19T10:30:58Z</time></trkpt><trkpt lat="42.927566570369635" lon="11.960998234489585"><ele>243.0</ele><time>2026-04-19T10:30:59Z</time></trkpt><trkpt lat="42.92747771037322" lon="11.960762858223774"><ele>244.0</ele><time>2026-04-19T10:31:00Z</time></trkpt><trkpt lat="42.92740301220612" lon="11.960563439428562"><ele>245.0</ele><time>2026-04-19T10:31:01Z</time></trkpt><trkpt lat="42.92730874797966" lon="11.960381261538721"><ele>245.0</ele><time>2026-04-19T10:31:02Z</time></trkpt><trkpt lat="42.92723577679916" lon="11.960208190165437"><ele>245.0</ele><time>2026-04-19T10:31:03Z</time></trkpt><trkpt lat="42.92711554968603" lon="11.960110165178703"><ele>245.0</ele><time>2026-04-19T10:31:04Z</time></trkpt><trkpt lat="42.926995067927955" lon="11.960011177800508"><ele>245.0</ele><time>2026-04-19T10:31:05Z</time></trkpt><trkpt lat="42.9268345375577" lon="11.960041772570996"><ele>244.33333333333334</ele><time>2026-04-19T10:31:06Z</time></trkpt><trkpt lat="42.92667827527549" lon="11.960101219504791"><ele>243.66666666666669</ele><time>2026-04-19T10:31:07Z</time></trkpt><trkpt lat="42.92650744134506" lon="11.96020364564397"><ele>243.0</ele><time>2026-04-19T10:31:08Z</time></trkpt><trkpt lat="42.92630272385705" lon="11.960302701410505"><ele>243.0</ele><time>2026-04-19T10:31:09Z</time></trkpt><trkpt lat="42.926102754886294" lon="11.960413223007855"><ele>243.0</ele><time>2026-04-19T10:31:10Z</time></trkpt><trkpt lat="42.92592462356636" lon="11.960499868337095"><ele>243.0</ele><time>2026-04-19T10:31:11Z</time></trkpt><trkpt lat="42.92575248576284" lon="11.960555828700294"><ele>242.66666666666669</ele><time>2026-04-19T10:31:12Z</time></trkpt><trkpt lat="42.92557027173776" lon="11.960546537782944"><ele>242.33333333333334</ele><time>2026-04-19T10:31:13Z</time></trkpt><trkpt lat="42.92539247524433" lon="11.960465457757634"><ele>242.0</ele><time>2026-04-19T10:31:14Z</time></trkpt><trkpt lat="42.92522034641739" lon="11.96031493984008"><ele>242.0</ele><time>2026-04-19T10:31:15Z</time></trkpt><trkpt lat="42.92504016070756" lon="11.96010944475393"><ele>242.0</ele><time>2026-04-19T10:31:16Z</time></trkpt><trkpt lat="42.924840258797" lon="11.95989080793112"><ele>242.0</ele><time>2026-04-19T10:31:17Z</time></trkpt><trkpt lat="42.9246730193288" lon="11.959640753045953"><ele>242.0</ele><time>2026-04-19T10:31:18Z</time></trkpt><trkpt lat="42.92454330930421" lon="11.95936129970294"><ele>242.0</ele><time>2026-04-19T10:31:19Z</time></trkpt><trkpt lat="42.92437769040677" lon="11.95908091011819"><ele>242.0</ele><time>2026-04-19T10:31:20Z</time></trkpt><trkpt lat="42.924226737910715" lon="11.958796606657682"><ele>242.0</ele><time>2026-04-19T10:31:21Z</time></trkpt><trkpt lat="42.92405162667896" lon="11.958529473967273"><ele>242.0</ele><time>2026-04-19T10:31:22Z</time></trkpt><trkpt lat="42.923870152723524" lon="11.958270010215255"><ele>244.5</ele><time>2026-04-19T10:31:23Z</time></trkpt><trkpt lat="42.92370310702014" lon="11.958006729995311"><ele>247.0</ele><time>2026-04-19T10:31:24Z</time></trkpt><trkpt lat="42.923538031127464" lon="11.957738263541197"><ele>246.5</ele><time>2026-04-19T10:31:25Z</time></trkpt><trkpt lat="42.923366548602985" lon="11.957465902357377"><ele>246.0</ele><time>2026-04-19T10:31:26Z</time></trkpt><trkpt lat="42.92319465890344" lon="11.957188222889405"><ele>246.0</ele><time>2026-04-19T10:31:27Z</time></trkpt><trkpt lat="42.92303316278882" lon="11.95691631890911"><ele>246.0</ele><time>2026-04-19T10:31:28Z</time></trkpt><trkpt lat="42.92288471848839" lon="11.956651381906942"><ele>247.0</ele><time>2026-04-19T10:31:29Z</time></trkpt><trkpt lat="42.922745894233515" lon="11.956383052644497"><ele>248.0</ele><time>2026-04-19T10:31:30Z</time></trkpt><trkpt lat="42.9226151371458" lon="11.95612000078991"><ele>245.0</ele><time>2026-04-19T10:31:31Z</time></trkpt><trkpt lat="42.922481439965914" lon="11.955851020868161"><ele>242.0</ele><time>2026-04-19T10:31:32Z</time></trkpt><trkpt lat="42.922345500752186" lon="11.955578247578966"><ele>242.0</ele><time>2026-04-19T10:31:33Z</time></trkpt><trkpt lat="42.92221177844735" lon="11.955309378029748"><ele>242.0</ele><time>2026-04-19T10:31:34Z</time></trkpt><trkpt lat="42.92207416449686" lon="11.955041816937245"><ele>242.5</ele><time>2026-04-19T10:31:35Z</time></trkpt><trkpt lat="42.921948316452706" lon="11.954749757026699"><ele>243.0</ele><time>2026-04-19T10:31:36Z</time></trkpt><trkpt lat="42.921810650924385" lon="11.954472685806742"><ele>243.5</ele><time>2026-04-19T10:31:37Z</time></trkpt><trkpt lat="42.921670802966155" lon="11.95419222708756"><ele>244.0</ele><time>2026-04-19T10:31:38Z</time></trkpt><trkpt lat="42.92151973512298" lon="11.953930478574977"><ele>244.0</ele><time>2026-04-19T10:31:39Z</time></trkpt><trkpt lat="42.92138253511803" lon="11.953651508761043"><ele>244.0</ele><time>2026-04-19T10:31:40Z</time></trkpt><trkpt lat="42.92124833120517" lon="11.953377167155585"><ele>243.5</ele><time>2026-04-19T10:31:41Z</time></trkpt><trkpt lat="42.921109151585135" lon="11.953105441714152"><ele>243.0</ele><time>2026-04-19T10:31:42Z</time></trkpt><trkpt lat="42.92098414477737" lon="11.952827842171384"><ele>244.5</ele><time>2026-04-19T10:31:43Z</time></trkpt><trkpt lat="42.92084834283206" lon="11.952558355469124"><ele>246.0</ele><time>2026-04-19T10:31:44Z</time></trkpt><trkpt lat="42.92069683483998" lon="11.952298459426741"><ele>247.0</ele><time>2026-04-19T10:31:45Z</time></trkpt><trkpt lat="42.92056163776444" lon="11.952029012107227"><ele>248.0</ele><time>2026-04-19T10:31:46Z</time></trkpt><trkpt lat="42.92042843474051" lon="11.951761091807604"><ele>246.5</ele><time>2026-04-19T10:31:47Z</time></trkpt><trkpt lat="42.920296030121385" lon="11.951496170895314"><ele>245.0</ele><time>2026-04-19T10:31:48Z</time></trkpt><trkpt lat="42.92016238439816" lon="11.951231475594437"><ele>245.0</ele><time>2026-04-19T10:31:49Z</time></trkpt><trkpt lat="42.92002490529612" lon="11.950953469649777"><ele>245.0</ele><time>2026-04-19T10:31:50Z</time></trkpt><trkpt lat="42.9198872800103" lon="11.95066987549978"><ele>245.0</ele><time>2026-04-19T10:31:51Z</time></trkpt><trkpt lat="42.91974652408259" lon="11.950383881465358"><ele>245.0</ele><time>2026-04-19T10:31:52Z</time></trkpt><trkpt lat="42.91960293275576" lon="11.95009747914191"><ele>245.5</ele><time>2026-04-19T10:31:53Z</time></trkpt><trkpt lat="42.91946225715344" lon="11.9498155542479"><ele>246.0</ele><time>2026-04-19T10:31:54Z</time></trkpt><trkpt lat="42.919320788563454" lon="11.949528490153448"><ele>246.0</ele><time>2026-04-19T10:31:55Z</time></trkpt><trkpt lat="42.91917544438597" lon="11.94923881054749"><ele>246.0</ele><time>2026-04-19T10:31:56Z</time></trkpt><trkpt lat="42.919026370099644" lon="11.948949221223954"><ele>246.0</ele><time>2026-04-19T10:31:57Z</time></trkpt><trkpt lat="42.91887789324974" lon="11.948663478873943"><ele>246.0</ele><time>2026-04-19T10:31:58Z</time></trkpt><trkpt lat="42.9187467120583" lon="11.948365106986655"><ele>246.5</ele><time>2026-04-19T10:31:59Z</time></trkpt><trkpt lat="42.91859413091146" lon="11.948095535175934"><ele>247.0</ele><time>2026-04-19T10:32:00Z</time></trkpt><trkpt lat="42.91845587714522" lon="11.947817659044036"><ele>250.5</ele><time>2026-04-19T10:32:01Z</time></trkpt><trkpt lat="42.918330968400575" lon="11.947528172200402"><ele>254.0</ele><time>2026-04-19T10:32:02Z</time></trkpt><trkpt lat="42.91819484399765" lon="11.94726016257348"><ele>254.0</ele><time>2026-04-19T10:32:03Z</time></trkpt><trkpt lat="42.9180601242601" lon="11.946995787428456"><ele>254.0</ele><time>2026-04-19T10:32:04Z</time></trkpt><trkpt lat="42.9179276265297" lon="11.94673636210962"><ele>253.5</ele><time>2026-04-19T10:32:05Z</time></trkpt><trkpt lat="42.91779791778272" lon="11.946476242819227"><ele>253.0</ele><time>2026-04-19T10:32:06Z</time></trkpt><trkpt lat="42.91766675718568" lon="11.946219140005816"><ele>260.0</ele><time>2026-04-19T10:32:07Z</time></trkpt><trkpt lat="42.91752697769735" lon="11.945971557010012"><ele>267.0</ele><time>2026-04-19T10:32:08Z</time></trkpt><trkpt lat="42.917376694627535" lon="11.945736857457694"><ele>267.0</ele><time>2026-04-19T10:32:09Z</time></trkpt><trkpt lat="42.91721944759683" lon="11.945506618589615"><ele>267.0</ele><time>2026-04-19T10:32:10Z</time></trkpt><trkpt lat="42.91706149307426" lon="11.945279175694207"><ele>267.0</ele><time>2026-04-19T10:32:11Z</time></trkpt><trkpt lat="42.91690512545569" lon="11.945050759850993"><ele>267.0</ele><time>2026-04-19T10:32:12Z</time></trkpt><trkpt lat="42.91674874038672" lon="11.944820307365445"><ele>272.5</ele><time>2026-04-19T10:32:13Z</time></trkpt><trkpt lat="42.91659361400848" lon="11.944591710194606"><ele>278.0</ele><time>2026-04-19T10:32:14Z</time></trkpt><trkpt lat="42.916440084635745" lon="11.944365466241399"><ele>276.33333333333337</ele><time>2026-04-19T10:32:15Z</time></trkpt><trkpt lat="42.91630169622282" lon="11.944154602719372"><ele>274.6666666666667</ele><time>2026-04-19T10:32:16Z</time></trkpt><trkpt lat="42.916176236950584" lon="11.94395704721742"><ele>273.0</ele><time>2026-04-19T10:32:17Z</time></trkpt><trkpt lat="42.916055208270556" lon="11.943766463174725"><ele>273.0</ele><time>2026-04-19T10:32:18Z</time></trkpt><trkpt lat="42.91593648880586" lon="11.943579515457873"><ele>273.0</ele><time>2026-04-19T10:32:19Z</time></trkpt><trkpt lat="42.91581708443483" lon="11.943391489216388"><ele>273.0</ele><time>2026-04-19T10:32:20Z</time></trkpt><trkpt lat="42.91566368486829" lon="11.94324254708101"><ele>276.3333333333333</ele><time>2026-04-19T10:32:21Z</time></trkpt><trkpt lat="42.915552938483856" lon="11.943023769045787"><ele>279.66666666666663</ele><time>2026-04-19T10:32:22Z</time></trkpt><trkpt lat="42.9154476573689" lon="11.942765678794181"><ele>283.0</ele><time>2026-04-19T10:32:23Z</time></trkpt><trkpt lat="42.91535341205552" lon="11.942479960732426"><ele>283.0</ele><time>2026-04-19T10:32:24Z</time></trkpt><trkpt lat="42.91526065062151" lon="11.942169837238417"><ele>283.0</ele><time>2026-04-19T10:32:25Z</time></trkpt><trkpt lat="42.91516687569669" lon="11.941842626671427"><ele>286.0</ele><time>2026-04-19T10:32:26Z</time></trkpt><trkpt lat="42.91506751261386" lon="11.941502465682367"><ele>289.0</ele><time>2026-04-19T10:32:27Z</time></trkpt><trkpt lat="42.914961006409214" lon="11.941158274203273"><ele>290.5</ele><time>2026-04-19T10:32:28Z</time></trkpt><trkpt lat="42.91485550104314" lon="11.940813580280828"><ele>292.0</ele><time>2026-04-19T10:32:29Z</time></trkpt><trkpt lat="42.91474579685243" lon="11.940480877064818"><ele>292.0</ele><time>2026-04-19T10:32:30Z</time></trkpt><trkpt lat="42.91464649876897" lon="11.940168999842712"><ele>292.0</ele><time>2026-04-19T10:32:31Z</time></trkpt><trkpt lat="42.91455714052062" lon="11.939875044059614"><ele>293.0</ele><time>2026-04-19T10:32:32Z</time></trkpt><trkpt lat="42.91448298584357" lon="11.939604889638831"><ele>294.0</ele><time>2026-04-19T10:32:33Z</time></trkpt><trkpt lat="42.914402824367244" lon="11.939346437350341"><ele>295.0</ele><time>2026-04-19T10:32:34Z</time></trkpt><trkpt lat="42.91430111353277" lon="11.939111244314775"><ele>296.3333333333333</ele><time>2026-04-19T10:32:35Z</time></trkpt><trkpt lat="42.91418265538548" lon="11.938893709462628"><ele>297.6666666666667</ele><time>2026-04-19T10:32:36Z</time></trkpt><trkpt lat="42.914052368424684" lon="11.938710320431456"><ele>299.0</ele><time>2026-04-19T10:32:37Z</time></trkpt><trkpt lat="42.913917718073336" lon="11.938542451443226"><ele>300.6666666666667</ele><time>2026-04-19T10:32:38Z</time></trkpt><trkpt lat="42.91379017369215" lon="11.93837991209981"><ele>302.3333333333333</ele><time>2026-04-19T10:32:39Z</time></trkpt><trkpt lat="42.91367062242789" lon="11.93822914670041"><ele>304.0</ele><time>2026-04-19T10:32:40Z</time></trkpt><trkpt lat="42.91356058573715" lon="11.938091477051069"><ele>304.0</ele><time>2026-04-19T10:32:41Z</time></trkpt><trkpt lat="42.913450457908205" lon="11.937956374827944"><ele>304.0</ele><time>2026-04-19T10:32:42Z</time></trkpt><trkpt lat="42.91333124113067" lon="11.937809007479384"><ele>304.0</ele><time>2026-04-19T10:32:43Z</time></trkpt><trkpt lat="42.91321222152483" lon="11.937647980580014"><ele>304.0</ele><time>2026-04-19T10:32:44Z</time></trkpt><trkpt lat="42.91310725736794" lon="11.937494333827445"><ele>304.0</ele><time>2026-04-19T10:32:45Z</time></trkpt><trkpt lat="42.91301398640054" lon="11.937356665939289"><ele>304.0</ele><time>2026-04-19T10:32:46Z</time></trkpt><trkpt lat="42.91292177957887" lon="11.937216565174447"><ele>304.0</ele><time>2026-04-19T10:32:47Z</time></trkpt><trkpt lat="42.91282072717938" lon="11.937056202444799"><ele>304.0</ele><time>2026-04-19T10:32:48Z</time></trkpt><trkpt lat="42.91270471615499" lon="11.936842005547332"><ele>304.0</ele><time>2026-04-19T10:32:49Z</time></trkpt><trkpt lat="42.9125904064498" lon="11.936583521994757"><ele>304.0</ele><time>2026-04-19T10:32:50Z</time></trkpt><trkpt lat="42.912476339562375" lon="11.936275694406318"><ele>304.0</ele><time>2026-04-19T10:32:51Z</time></trkpt><trkpt lat="42.91234378839537" lon="11.935971176785845"><ele>304.0</ele><time>2026-04-19T10:32:52Z</time></trkpt><trkpt lat="42.91219779766995" lon="11.935684674955748"><ele>304.0</ele><time>2026-04-19T10:32:53Z</time></trkpt><trkpt lat="42.9120657498542" lon="11.93542882028121"><ele>304.0</ele><time>2026-04-19T10:32:54Z</time></trkpt><trkpt lat="42.911955945672986" lon="11.9351945950457"><ele>304.0</ele><time>2026-04-19T10:32:55Z</time></trkpt><trkpt lat="42.91185075824136" lon="11.934962845172763"><ele>304.66666666666663</ele><time>2026-04-19T10:32:56Z</time></trkpt><trkpt lat="42.91173799087568" lon="11.934747966376976"><ele>305.3333333333333</ele><time>2026-04-19T10:32:57Z</time></trkpt><trkpt lat="42.91160175406247" lon="11.934558363489673"><ele>306.0</ele><time>2026-04-19T10:32:58Z</time></trkpt><trkpt lat="42.911432163182766" lon="11.934419419720426"><ele>306.0</ele><time>2026-04-19T10:32:59Z</time></trkpt><trkpt lat="42.91123035818576" lon="11.934314437991254"><ele>306.0</ele><time>2026-04-19T10:33:00Z</time></trkpt><trkpt lat="42.91101670416401" lon="11.934226279583603"><ele>306.0</ele><time>2026-04-19T10:33:01Z</time></trkpt><trkpt lat="42.91079686089407" lon="11.934128154975024"><ele>310.0</ele><time>2026-04-19T10:33:02Z</time></trkpt><trkpt lat="42.91057399107592" lon="11.934016565357913"><ele>314.0</ele><time>2026-04-19T10:33:03Z</time></trkpt><trkpt lat="42.910339861628046" lon="11.933895730880332"><ele>314.0</ele><time>2026-04-19T10:33:04Z</time></trkpt><trkpt lat="42.91011505880793" lon="11.933783043248422"><ele>314.0</ele><time>2026-04-19T10:33:05Z</time></trkpt><trkpt lat="42.90991032979058" lon="11.93368607781137"><ele>315.0</ele><time>2026-04-19T10:33:06Z</time></trkpt><trkpt lat="42.9097112475481" lon="11.933579992626019"><ele>316.0</ele><time>2026-04-19T10:33:07Z</time></trkpt><trkpt lat="42.90950198916143" lon="11.933443624345808"><ele>317.0</ele><time>2026-04-19T10:33:08Z</time></trkpt><trkpt lat="42.90929165961308" lon="11.93327773803836"><ele>321.0</ele><time>2026-04-19T10:33:09Z</time></trkpt><trkpt lat="42.90909135841051" lon="11.933077558111291"><ele>325.0</ele><time>2026-04-19T10:33:10Z</time></trkpt><trkpt lat="42.908876019589464" lon="11.932887529582974"><ele>325.0</ele><time>2026-04-19T10:33:11Z</time></trkpt><trkpt lat="42.90863626606058" lon="11.93274842013399"><ele>325.0</ele><time>2026-04-19T10:33:12Z</time></trkpt><trkpt lat="42.90836437539605" lon="11.93261670390728"><ele>327.5</ele><time>2026-04-19T10:33:13Z</time></trkpt><trkpt lat="42.90808529383924" lon="11.932466598884545"><ele>330.0</ele><time>2026-04-19T10:33:14Z</time></trkpt><trkpt lat="42.90779468050613" lon="11.932305663541198"><ele>327.5</ele><time>2026-04-19T10:33:15Z</time></trkpt><trkpt lat="42.90750282447532" lon="11.932149748174547"><ele>325.0</ele><time>2026-04-19T10:33:16Z</time></trkpt><trkpt lat="42.90724414888362" lon="11.932010015083295"><ele>325.0</ele><time>2026-04-19T10:33:17Z</time></trkpt><trkpt lat="42.907020624224494" lon="11.93189038278034"><ele>325.0</ele><time>2026-04-19T10:33:18Z</time></trkpt><trkpt lat="42.90682304206489" lon="11.931804515329382"><ele>325.0</ele><time>2026-04-19T10:33:19Z</time></trkpt><trkpt lat="42.90662867199828" lon="11.931762296339834"><ele>326.66666666666663</ele><time>2026-04-19T10:33:20Z</time></trkpt><trkpt lat="42.90644294752355" lon="11.93175529113383"><ele>328.3333333333333</ele><time>2026-04-19T10:33:21Z</time></trkpt><trkpt lat="42.9062716002864" lon="11.931763979959573"><ele>330.0</ele><time>2026-04-19T10:33:22Z</time></trkpt><trkpt lat="42.9061199386468" lon="11.931774038105532"><ele>330.0</ele><time>2026-04-19T10:33:23Z</time></trkpt><trkpt lat="42.905984591637015" lon="11.931769150624056"><ele>330.0</ele><time>2026-04-19T10:33:24Z</time></trkpt><trkpt lat="42.905858852060625" lon="11.931752270881685"><ele>330.0</ele><time>2026-04-19T10:33:25Z</time></trkpt><trkpt lat="42.90574753382683" lon="11.931690437685369"><ele>330.0</ele><time>2026-04-19T10:33:26Z</time></trkpt><trkpt lat="42.905635879949166" lon="11.931620513737807"><ele>333.0</ele><time>2026-04-19T10:33:27Z</time></trkpt><trkpt lat="42.9055484623753" lon="11.931538018030654"><ele>336.0</ele><time>2026-04-19T10:33:28Z</time></trkpt><trkpt lat="42.90548213862919" lon="11.931455121594768"><ele>339.0</ele><time>2026-04-19T10:33:29Z</time></trkpt><trkpt lat="42.90543621463711" lon="11.931380466106404"><ele>342.0</ele><time>2026-04-19T10:33:30Z</time></trkpt><trkpt lat="42.905378401327226" lon="11.93128001427521"><ele>345.0</ele><time>2026-04-19T10:33:32Z</time></trkpt><trkpt lat="42.9053125521255" lon="11.931453569541242"><ele>345.0</ele><time>2026-04-19T10:33:35Z</time></trkpt><trkpt lat="42.90530864810611" lon="11.931556527436662"><ele>345.0</ele><time>2026-04-19T10:33:36Z</time></trkpt><trkpt lat="42.905214974568935" lon="11.931684864951519"><ele>345.0</ele><time>2026-04-19T10:33:38Z</time></trkpt><trkpt lat="42.90514441240431" lon="11.931787068040347"><ele>345.0</ele><time>2026-04-19T10:33:39Z</time></trkpt><trkpt lat="42.90507996926209" lon="11.931911090776007"><ele>345.0</ele><time>2026-04-19T10:33:40Z</time></trkpt><trkpt lat="42.905007889849536" lon="11.932022737648428"><ele>345.75</ele><time>2026-04-19T10:33:41Z</time></trkpt><trkpt lat="42.904938389403696" lon="11.932122559075873"><ele>346.5</ele><time>2026-04-19T10:33:42Z</time></trkpt><trkpt lat="42.904844173036395" lon="11.932194939590014"><ele>347.25</ele><time>2026-04-19T10:33:43Z</time></trkpt><trkpt lat="42.90472447159636" lon="11.932293605329077"><ele>348.0</ele><time>2026-04-19T10:33:44Z</time></trkpt><trkpt lat="42.904590872451294" lon="11.932402769665686"><ele>348.0</ele><time>2026-04-19T10:33:45Z</time></trkpt><trkpt lat="42.90446107451178" lon="11.93253632700402"><ele>348.0</ele><time>2026-04-19T10:33:46Z</time></trkpt><trkpt lat="42.904330879757254" lon="11.932643588073907"><ele>348.0</ele><time>2026-04-19T10:33:47Z</time></trkpt><trkpt lat="42.904186846534984" lon="11.932761438425073"><ele>350.5</ele><time>2026-04-19T10:33:48Z</time></trkpt><trkpt lat="42.90407312397848" lon="11.932955648652381"><ele>353.0</ele><time>2026-04-19T10:33:49Z</time></trkpt><trkpt lat="42.903979611079684" lon="11.933086223979208"><ele>355.5</ele><time>2026-04-19T10:33:50Z</time></trkpt><trkpt lat="42.90391214175638" lon="11.933187983236158"><ele>358.0</ele><time>2026-04-19T10:33:51Z</time></trkpt><trkpt lat="42.90384917150757" lon="11.933273465135164"><ele>358.0</ele><time>2026-04-19T10:33:52Z</time></trkpt><trkpt lat="42.9038000182811" lon="11.933352138382967"><ele>358.0</ele><time>2026-04-19T10:33:53Z</time></trkpt><trkpt lat="42.903750128743674" lon="11.933428872833689"><ele>358.0</ele><time>2026-04-19T10:33:54Z</time></trkpt><trkpt lat="42.903699914067666" lon="11.933516371210123"><ele>358.0</ele><time>2026-04-19T10:33:55Z</time></trkpt><trkpt lat="42.90363408870261" lon="11.933588898115948"><ele>358.0</ele><time>2026-04-19T10:33:56Z</time></trkpt><trkpt lat="42.90358221055728" lon="11.93367154068165"><ele>358.0</ele><time>2026-04-19T10:33:57Z</time></trkpt><trkpt lat="42.90354601596653" lon="11.933764094699217"><ele>357.66666666666663</ele><time>2026-04-19T10:33:58Z</time></trkpt><trkpt lat="42.90350341303826" lon="11.933833703055855"><ele>357.3333333333333</ele><time>2026-04-19T10:33:59Z</time></trkpt><trkpt lat="42.903431490879825" lon="11.93396217209975"><ele>357.0</ele><time>2026-04-19T10:34:01Z</time></trkpt><trkpt lat="42.9033910108023" lon="11.934068108254982"><ele>356.6666666666667</ele><time>2026-04-19T10:34:03Z</time></trkpt><trkpt lat="42.903407957179" lon="11.934166659585136"><ele>356.33333333333337</ele><time>2026-04-19T10:34:05Z</time></trkpt><trkpt lat="42.90344855928328" lon="11.934290398956419"><ele>356.0</ele><time>2026-04-19T10:34:09Z</time></trkpt><trkpt lat="42.90342787897297" lon="11.93410088124975"><ele>356.0</ele><time>2026-04-19T10:34:14Z</time></trkpt><trkpt lat="42.90340515596234" lon="11.93402062858057"><ele>356.0</ele><time>2026-04-19T10:34:16Z</time></trkpt><trkpt lat="42.90347017910034" lon="11.933875721430024"><ele>356.0</ele><time>2026-04-19T10:34:18Z</time></trkpt><trkpt lat="42.903527327227636" lon="11.933785913308919"><ele>356.0</ele><time>2026-04-19T10:34:19Z</time></trkpt><trkpt lat="42.903595274265356" lon="11.933680858615325"><ele>356.0</ele><time>2026-04-19T10:34:20Z</time></trkpt><trkpt lat="42.90367058286047" lon="11.933561128954342"><ele>356.4</ele><time>2026-04-19T10:34:21Z</time></trkpt><trkpt lat="42.90374001399459" lon="11.933449865532742"><ele>356.8</ele><time>2026-04-19T10:34:22Z</time></trkpt><trkpt lat="42.90379105123879" lon="11.933364819646929"><ele>357.2</ele><time>2026-04-19T10:34:23Z</time></trkpt><trkpt lat="42.903868078049726" lon="11.933251772953302"><ele>357.59999999999997</ele><time>2026-04-19T10:34:25Z</time></trkpt><trkpt lat="42.903912843405024" lon="11.93318867140009"><ele>358.0</ele><time>2026-04-19T10:34:26Z</time></trkpt><trkpt lat="42.90400758948623" lon="11.933052131988397"><ele>358.0</ele><time>2026-04-19T10:34:28Z</time></trkpt><trkpt lat="42.9040791941117" lon="11.932946343556253"><ele>358.0</ele><time>2026-04-19T10:34:29Z</time></trkpt><trkpt lat="42.904160213518914" lon="11.932832997144242"><ele>358.0</ele><time>2026-04-19T10:34:30Z</time></trkpt><trkpt lat="42.904248336926784" lon="11.932725000511937"><ele>358.0</ele><time>2026-04-19T10:34:31Z</time></trkpt><trkpt lat="42.90433103083079" lon="11.932634316792182"><ele>358.0</ele><time>2026-04-19T10:34:32Z</time></trkpt><trkpt lat="42.904420429593046" lon="11.932556478047102"><ele>356.3333333333333</ele><time>2026-04-19T10:34:33Z</time></trkpt><trkpt lat="42.90450352812662" lon="11.932492795187644"><ele>354.66666666666663</ele><time>2026-04-19T10:34:34Z</time></trkpt><trkpt lat="42.90459216030357" lon="11.932454439490622"><ele>353.0</ele><time>2026-04-19T10:34:35Z</time></trkpt><trkpt lat="42.90466200571392" lon="11.932397628462716"><ele>351.3333333333333</ele><time>2026-04-19T10:34:36Z</time></trkpt><trkpt lat="42.90471819267827" lon="11.93235162434525"><ele>349.6666666666667</ele><time>2026-04-19T10:34:37Z</time></trkpt><trkpt lat="42.904806979877065" lon="11.932278928175027"><ele>348.0</ele><time>2026-04-19T10:34:39Z</time></trkpt><trkpt lat="42.9048650353585" lon="11.932211822378209"><ele>348.0</ele><time>2026-04-19T10:34:42Z</time></trkpt><trkpt lat="42.904772471889224" lon="11.932053107789915"><ele>348.0</ele><time>2026-04-19T10:34:43Z</time></trkpt><trkpt lat="42.904714331784724" lon="11.931981459691125"><ele>348.0</ele><time>2026-04-19T10:34:44Z</time></trkpt><trkpt lat="42.90464485058297" lon="11.931888377032045"><ele>348.0</ele><time>2026-04-19T10:34:45Z</time></trkpt><trkpt lat="42.9045763355421" lon="11.931801350655485"><ele>348.0</ele><time>2026-04-19T10:34:46Z</time></trkpt><trkpt lat="42.90452962001707" lon="11.931728676580585"><ele>347.4</ele><time>2026-04-19T10:34:47Z</time></trkpt><trkpt lat="42.90450116879244" lon="11.93160641206234"><ele>346.79999999999995</ele><time>2026-04-19T10:34:50Z</time></trkpt><trkpt lat="42.90446657793456" lon="11.93149381465253"><ele>346.2</ele><time>2026-04-19T10:34:52Z</time></trkpt><trkpt lat="42.90437840109634" lon="11.931375829293609"><ele>345.6</ele><time>2026-04-19T10:34:55Z</time></trkpt><trkpt lat="42.904288484462384" lon="11.93128272135786"><ele>345.0</ele><time>2026-04-19T10:34:56Z</time></trkpt><trkpt lat="42.9041698153052" lon="11.931181356551615"><ele>345.0</ele><time>2026-04-19T10:34:57Z</time></trkpt><trkpt lat="42.90404566673548" lon="11.931083677592154"><ele>345.0</ele><time>2026-04-19T10:34:58Z</time></trkpt><trkpt lat="42.90391810418515" lon="11.930977238384159"><ele>345.0</ele><time>2026-04-19T10:34:59Z</time></trkpt><trkpt lat="42.9037934520237" lon="11.930876773230525"><ele>345.0</ele><time>2026-04-19T10:35:00Z</time></trkpt><trkpt lat="42.90367450804937" lon="11.930776898073702"><ele>345.75</ele><time>2026-04-19T10:35:01Z</time></trkpt><trkpt lat="42.90356458574282" lon="11.930685251483776"><ele>346.5</ele><time>2026-04-19T10:35:02Z</time></trkpt><trkpt lat="42.90346047628671" lon="11.930599341723893"><ele>347.25</ele><time>2026-04-19T10:35:03Z</time></trkpt><trkpt lat="42.903358866923945" lon="11.930520693056694"><ele>348.0</ele><time>2026-04-19T10:35:04Z</time></trkpt><trkpt lat="42.90326421329077" lon="11.93044520168653"><ele>347.6666666666667</ele><time>2026-04-19T10:35:05Z</time></trkpt><trkpt lat="42.90317839699167" lon="11.930377520925052"><ele>347.3333333333333</ele><time>2026-04-19T10:35:06Z</time></trkpt><trkpt lat="42.9031030497451" lon="11.930316553642593"><ele>347.0</ele><time>2026-04-19T10:35:07Z</time></trkpt><trkpt lat="42.90305069628162" lon="11.930258548319983"><ele>346.66666666666663</ele><time>2026-04-19T10:35:08Z</time></trkpt><trkpt lat="42.90300651674806" lon="11.930183024868604"><ele>346.3333333333333</ele><time>2026-04-19T10:35:10Z</time></trkpt><trkpt lat="42.90301311869652" lon="11.93007145595534"><ele>346.0</ele><time>2026-04-19T10:35:11Z</time></trkpt><trkpt lat="42.903018521010495" lon="11.929959650263541"><ele>346.0</ele><time>2026-04-19T10:35:12Z</time></trkpt><trkpt lat="42.90300772644069" lon="11.92984251262969"><ele>346.0</ele><time>2026-04-19T10:35:13Z</time></trkpt><trkpt lat="42.90299714616247" lon="11.929729515258943"><ele>346.0</ele><time>2026-04-19T10:35:14Z</time></trkpt><trkpt lat="42.9029875617512" lon="11.92962420462812"><ele>346.0</ele><time>2026-04-19T10:35:15Z</time></trkpt><trkpt lat="42.90298009059149" lon="11.929516564557828"><ele>346.0</ele><time>2026-04-19T10:35:16Z</time></trkpt><trkpt lat="42.902975475997" lon="11.929417673343565"><ele>346.0</ele><time>2026-04-19T10:35:17Z</time></trkpt><trkpt lat="42.90298350660196" lon="11.929324941049282"><ele>346.0</ele><time>2026-04-19T10:35:18Z</time></trkpt><trkpt lat="42.9030014490442" lon="11.929235928606339"><ele>346.0</ele><time>2026-04-19T10:35:19Z</time></trkpt><trkpt lat="42.90303681173122" lon="11.929138557250392"><ele>346.0</ele><time>2026-04-19T10:35:20Z</time></trkpt><trkpt lat="42.90308683209097" lon="11.929019094203584"><ele>346.0</ele><time>2026-04-19T10:35:21Z</time></trkpt><trkpt lat="42.90313170944955" lon="11.928881373937084"><ele>346.0</ele><time>2026-04-19T10:35:22Z</time></trkpt><trkpt lat="42.90319524803278" lon="11.928749531648677"><ele>346.8</ele><time>2026-04-19T10:35:23Z</time></trkpt><trkpt lat="42.90325435152465" lon="11.92861257162546"><ele>347.6</ele><time>2026-04-19T10:35:24Z</time></trkpt><trkpt lat="42.903318024928964" lon="11.928492788060451"><ele>348.4</ele><time>2026-04-19T10:35:25Z</time></trkpt><trkpt lat="42.90337309842053" lon="11.928375796963863"><ele>349.2</ele><time>2026-04-19T10:35:26Z</time></trkpt><trkpt lat="42.90342056514784" lon="11.92823790116822"><ele>350.0</ele><time>2026-04-19T10:35:27Z</time></trkpt><trkpt lat="42.903484972441404" lon="11.928102534598215"><ele>350.5</ele><time>2026-04-19T10:35:28Z</time></trkpt><trkpt lat="42.90354058153999" lon="11.927944894977468"><ele>351.0</ele><time>2026-04-19T10:35:29Z</time></trkpt><trkpt lat="42.90359445931702" lon="11.927766911205788"><ele>351.5</ele><time>2026-04-19T10:35:30Z</time></trkpt><trkpt lat="42.90363418827581" lon="11.927600880346214"><ele>352.0</ele><time>2026-04-19T10:35:31Z</time></trkpt><trkpt lat="42.903663360111366" lon="11.927440863426298"><ele>352.0</ele><time>2026-04-19T10:35:32Z</time></trkpt><trkpt lat="42.90369193665914" lon="11.927267003146111"><ele>352.0</ele><time>2026-04-19T10:35:33Z</time></trkpt><trkpt lat="42.90371329632699" lon="11.92713062109644"><ele>352.0</ele><time>2026-04-19T10:35:34Z</time></trkpt><trkpt lat="42.903727934399775" lon="11.927024971326755"><ele>352.0</ele><time>2026-04-19T10:35:35Z</time></trkpt><trkpt lat="42.90373968235816" lon="11.926841534158205"><ele>352.0</ele><time>2026-04-19T10:35:37Z</time></trkpt><trkpt lat="42.903748107553" lon="11.926749657748246"><ele>351.20000000000005</ele><time>2026-04-19T10:35:38Z</time></trkpt><trkpt lat="42.90378195356802" lon="11.926605813214332"><ele>350.4</ele><time>2026-04-19T10:35:40Z</time></trkpt><trkpt lat="42.90378715214547" lon="11.926443445452069"><ele>349.6</ele><time>2026-04-19T10:35:42Z</time></trkpt><trkpt lat="42.90379452525575" lon="11.926350300280628"><ele>348.79999999999995</ele><time>2026-04-19T10:35:43Z</time></trkpt><trkpt lat="42.90381757829674" lon="11.926218518297935"><ele>348.0</ele><time>2026-04-19T10:35:44Z</time></trkpt><trkpt lat="42.90388201085802" lon="11.926084853098297"><ele>348.0</ele><time>2026-04-19T10:35:45Z</time></trkpt><trkpt lat="42.90394398202594" lon="11.925947041083507"><ele>348.0</ele><time>2026-04-19T10:35:46Z</time></trkpt><trkpt lat="42.90400642138378" lon="11.925793747454476"><ele>348.0</ele><time>2026-04-19T10:35:47Z</time></trkpt><trkpt lat="42.904050532271036" lon="11.925629297528964"><ele>348.0</ele><time>2026-04-19T10:35:48Z</time></trkpt><trkpt lat="42.904094940063445" lon="11.925449958299824"><ele>347.75</ele><time>2026-04-19T10:35:49Z</time></trkpt><trkpt lat="42.904131873576" lon="11.925281361597827"><ele>347.5</ele><time>2026-04-19T10:35:50Z</time></trkpt><trkpt lat="42.90414741774438" lon="11.92511215134885"><ele>347.25</ele><time>2026-04-19T10:35:51Z</time></trkpt><trkpt lat="42.90414960167538" lon="11.9249579436142"><ele>347.0</ele><time>2026-04-19T10:35:52Z</time></trkpt><trkpt lat="42.90414667639041" lon="11.924819267752973"><ele>346.5</ele><time>2026-04-19T10:35:53Z</time></trkpt><trkpt lat="42.904173727288466" lon="11.924697842585084"><ele>346.0</ele><time>2026-04-19T10:35:54Z</time></trkpt><trkpt lat="42.904191012393426" lon="11.924599724323862"><ele>345.5</ele><time>2026-04-19T10:35:55Z</time></trkpt><trkpt lat="42.904230050291304" lon="11.924502238420597"><ele>345.0</ele><time>2026-04-19T10:35:56Z</time></trkpt><trkpt lat="42.904286004261984" lon="11.924424984014582"><ele>344.5</ele><time>2026-04-19T10:35:57Z</time></trkpt><trkpt lat="42.904356589453506" lon="11.924322407932985"><ele>344.0</ele><time>2026-04-19T10:35:58Z</time></trkpt><trkpt lat="42.90441023511057" lon="11.924229081934184"><ele>346.6</ele><time>2026-04-19T10:35:59Z</time></trkpt><trkpt lat="42.90447741551805" lon="11.924080920650344"><ele>349.2</ele><time>2026-04-19T10:36:01Z</time></trkpt><trkpt lat="42.90449374406917" lon="11.923939460490859"><ele>351.8</ele><time>2026-04-19T10:36:02Z</time></trkpt><trkpt lat="42.90450473191754" lon="11.92382166898436"><ele>354.40000000000003</ele><time>2026-04-19T10:36:03Z</time></trkpt><trkpt lat="42.90452513713997" lon="11.923724000930859"><ele>357.0</ele><time>2026-04-19T10:36:04Z</time></trkpt><trkpt lat="42.904575083783186" lon="11.92361645861161"><ele>357.0</ele><time>2026-04-19T10:36:05Z</time></trkpt><trkpt lat="42.904620335332204" lon="11.923481472194302"><ele>357.0</ele><time>2026-04-19T10:36:06Z</time></trkpt><trkpt lat="42.90466556042948" lon="11.923340017762388"><ele>357.0</ele><time>2026-04-19T10:36:07Z</time></trkpt><trkpt lat="42.90470660605992" lon="11.923186820201018"><ele>357.0</ele><time>2026-04-19T10:36:08Z</time></trkpt><trkpt lat="42.904719899254786" lon="11.923017415413735"><ele>356.40000000000003</ele><time>2026-04-19T10:36:09Z</time></trkpt><trkpt lat="42.904722206804664" lon="11.922841407430965"><ele>355.8</ele><time>2026-04-19T10:36:10Z</time></trkpt><trkpt lat="42.90473005995146" lon="11.922687807647513"><ele>355.2</ele><time>2026-04-19T10:36:11Z</time></trkpt><trkpt lat="42.90474036805301" lon="11.922562372219067"><ele>354.6</ele><time>2026-04-19T10:36:12Z</time></trkpt><trkpt lat="42.904752085544935" lon="11.92243203108016"><ele>354.0</ele><time>2026-04-19T10:36:13Z</time></trkpt><trkpt lat="42.904762658692256" lon="11.922314453762025"><ele>353.3333333333333</ele><time>2026-04-19T10:36:14Z</time></trkpt><trkpt lat="42.90476892712934" lon="11.92221461294676"><ele>352.6666666666667</ele><time>2026-04-19T10:36:15Z</time></trkpt><trkpt lat="42.90476819272039" lon="11.922096080807345"><ele>352.0</ele><time>2026-04-19T10:36:16Z</time></trkpt><trkpt lat="42.90475157141743" lon="11.921971824378796"><ele>351.33333333333337</ele><time>2026-04-19T10:36:17Z</time></trkpt><trkpt lat="42.904725180044714" lon="11.921868935651736"><ele>350.6666666666667</ele><time>2026-04-19T10:36:18Z</time></trkpt><trkpt lat="42.904667884416874" lon="11.921758886124737"><ele>350.0</ele><time>2026-04-19T10:36:19Z</time></trkpt><trkpt lat="42.904616909317475" lon="11.921642654315802"><ele>349.8</ele><time>2026-04-19T10:36:20Z</time></trkpt><trkpt lat="42.9045720930571" lon="11.921507363647299"><ele>349.6</ele><time>2026-04-19T10:36:21Z</time></trkpt><trkpt lat="42.90453274401021" lon="11.921363919137184"><ele>349.4</ele><time>2026-04-19T10:36:22Z</time></trkpt><trkpt lat="42.904501730866315" lon="11.921239144827565"><ele>349.2</ele><time>2026-04-19T10:36:23Z</time></trkpt><trkpt lat="42.904480935080144" lon="11.921124309447048"><ele>349.0</ele><time>2026-04-19T10:36:24Z</time></trkpt><trkpt lat="42.904468672711" lon="11.92102298553857"><ele>349.0</ele><time>2026-04-19T10:36:25Z</time></trkpt><trkpt lat="42.90447386800554" lon="11.920925768434806"><ele>349.0</ele><time>2026-04-19T10:36:26Z</time></trkpt><trkpt lat="42.904479605718514" lon="11.920790350166412"><ele>349.0</ele><time>2026-04-19T10:36:27Z</time></trkpt><trkpt lat="42.90448750447556" lon="11.920637512683413"><ele>349.0</ele><time>2026-04-19T10:36:28Z</time></trkpt><trkpt lat="42.904495495846554" lon="11.920482883173836"><ele>349.0</ele><time>2026-04-19T10:36:29Z</time></trkpt><trkpt lat="42.90450397259498" lon="11.920354895393114"><ele>349.5</ele><time>2026-04-19T10:36:30Z</time></trkpt><trkpt lat="42.904513224537276" lon="11.920241754160806"><ele>350.0</ele><time>2026-04-19T10:36:31Z</time></trkpt><trkpt lat="42.90452281196612" lon="11.9201373575535"><ele>350.5</ele><time>2026-04-19T10:36:32Z</time></trkpt><trkpt lat="42.904532080922756" lon="11.92003642849879"><ele>351.0</ele><time>2026-04-19T10:36:33Z</time></trkpt><trkpt lat="42.90455473255993" lon="11.919920347115985"><ele>351.5</ele><time>2026-04-19T10:36:34Z</time></trkpt><trkpt lat="42.90457206974933" lon="11.919783725998585"><ele>352.0</ele><time>2026-04-19T10:36:35Z</time></trkpt><trkpt lat="42.90467574918416" lon="11.919612390163875"><ele>352.5</ele><time>2026-04-19T10:36:36Z</time></trkpt><trkpt lat="42.90472497935185" lon="11.919394946183697"><ele>353.0</ele><time>2026-04-19T10:36:37Z</time></trkpt><trkpt lat="42.904768819825584" lon="11.919221436246678"><ele>353.5</ele><time>2026-04-19T10:36:38Z</time></trkpt><trkpt lat="42.90480906512702" lon="11.919121620851321"><ele>354.0</ele><time>2026-04-19T10:36:39Z</time></trkpt><trkpt lat="42.90486385638095" lon="11.919041519825575"><ele>354.0</ele><time>2026-04-19T10:36:40Z</time></trkpt><trkpt lat="42.90493170124596" lon="11.918966509328936"><ele>354.0</ele><time>2026-04-19T10:36:41Z</time></trkpt><trkpt lat="42.90498899250036" lon="11.918889595865839"><ele>354.0</ele><time>2026-04-19T10:36:42Z</time></trkpt><trkpt lat="42.90504436640034" lon="11.918790197075108"><ele>354.0</ele><time>2026-04-19T10:36:43Z</time></trkpt><trkpt lat="42.90509028905228" lon="11.918678547962108"><ele>354.0</ele><time>2026-04-19T10:36:44Z</time></trkpt><trkpt lat="42.905131211893284" lon="11.918535249095182"><ele>357.0</ele><time>2026-04-19T10:36:45Z</time></trkpt><trkpt lat="42.90515933713331" lon="11.918363832409216"><ele>360.0</ele><time>2026-04-19T10:36:46Z</time></trkpt><trkpt lat="42.90517070093293" lon="11.91817636994599"><ele>363.0</ele><time>2026-04-19T10:36:47Z</time></trkpt><trkpt lat="42.90516900982696" lon="11.917973831420227"><ele>366.0</ele><time>2026-04-19T10:36:48Z</time></trkpt><trkpt lat="42.905162252846786" lon="11.917780084516632"><ele>366.0</ele><time>2026-04-19T10:36:49Z</time></trkpt><trkpt lat="42.90514729927768" lon="11.917618838823913"><ele>366.0</ele><time>2026-04-19T10:36:50Z</time></trkpt><trkpt lat="42.90513771691656" lon="11.917475917188321"><ele>366.0</ele><time>2026-04-19T10:36:51Z</time></trkpt><trkpt lat="42.905137387346834" lon="11.9173527548621"><ele>366.0</ele><time>2026-04-19T10:36:52Z</time></trkpt><trkpt lat="42.90513485537133" lon="11.917232497640073"><ele>366.0</ele><time>2026-04-19T10:36:53Z</time></trkpt><trkpt lat="42.905124642539946" lon="11.917119012741503"><ele>366.0</ele><time>2026-04-19T10:36:54Z</time></trkpt><trkpt lat="42.90509476738823" lon="11.916989145547506"><ele>366.0</ele><time>2026-04-19T10:36:55Z</time></trkpt><trkpt lat="42.90506768024163" lon="11.916848551511679"><ele>366.0</ele><time>2026-04-19T10:36:56Z</time></trkpt><trkpt lat="42.90502486062577" lon="11.916727741573839"><ele>366.0</ele><time>2026-04-19T10:36:57Z</time></trkpt><trkpt lat="42.90496898854311" lon="11.916605260853913"><ele>366.0</ele><time>2026-04-19T10:36:58Z</time></trkpt><trkpt lat="42.90491223079165" lon="11.916455823026192"><ele>365.6</ele><time>2026-04-19T10:36:59Z</time></trkpt><trkpt lat="42.904855674988255" lon="11.91629883186829"><ele>365.20000000000005</ele><time>2026-04-19T10:37:00Z</time></trkpt><trkpt lat="42.904779107941586" lon="11.916166231558861"><ele>364.79999999999995</ele><time>2026-04-19T10:37:01Z</time></trkpt><trkpt lat="42.90471416010498" lon="11.9160545242694"><ele>364.4</ele><time>2026-04-19T10:37:02Z</time></trkpt><trkpt lat="42.904658541785935" lon="11.915958863326725"><ele>364.0</ele><time>2026-04-19T10:37:03Z</time></trkpt><trkpt lat="42.904609591161126" lon="11.915866096150761"><ele>363.8333333333333</ele><time>2026-04-19T10:37:04Z</time></trkpt><trkpt lat="42.90456878504092" lon="11.915762493422967"><ele>363.66666666666663</ele><time>2026-04-19T10:37:05Z</time></trkpt><trkpt lat="42.90453705335435" lon="11.915667375280604"><ele>363.5</ele><time>2026-04-19T10:37:06Z</time></trkpt><trkpt lat="42.90450989591321" lon="11.915585141918555"><ele>363.3333333333333</ele><time>2026-04-19T10:37:07Z</time></trkpt><trkpt lat="42.90446399812817" lon="11.915460266057986"><ele>363.1666666666667</ele><time>2026-04-19T10:37:09Z</time></trkpt><trkpt lat="42.90442265110604" lon="11.915335099640446"><ele>363.0</ele><time>2026-04-19T10:37:11Z</time></trkpt><trkpt lat="42.90441250034161" lon="11.91523210035908"><ele>363.0</ele><time>2026-04-19T10:37:12Z</time></trkpt><trkpt lat="42.90438715828346" lon="11.915088665882385"><ele>363.0</ele><time>2026-04-19T10:37:13Z</time></trkpt><trkpt lat="42.90437242268283" lon="11.914923757471403"><ele>363.0</ele><time>2026-04-19T10:37:14Z</time></trkpt><trkpt lat="42.90435065573937" lon="11.914773546953832"><ele>363.0</ele><time>2026-04-19T10:37:15Z</time></trkpt><trkpt lat="42.90432680474348" lon="11.914669194301482"><ele>363.0</ele><time>2026-04-19T10:37:16Z</time></trkpt><trkpt lat="42.90431580543424" lon="11.91453884752334"><ele>363.79999999999995</ele><time>2026-04-19T10:37:17Z</time></trkpt><trkpt lat="42.904322559723255" lon="11.914398139678221"><ele>364.6</ele><time>2026-04-19T10:37:18Z</time></trkpt><trkpt lat="42.90434030754898" lon="11.91426029138651"><ele>365.4</ele><time>2026-04-19T10:37:19Z</time></trkpt><trkpt lat="42.90434345914719" lon="11.914131874933027"><ele>366.20000000000005</ele><time>2026-04-19T10:37:20Z</time></trkpt><trkpt lat="42.90433619179924" lon="11.913989923463252"><ele>367.0</ele><time>2026-04-19T10:37:21Z</time></trkpt><trkpt lat="42.90433172059491" lon="11.913869725563588"><ele>367.6</ele><time>2026-04-19T10:37:22Z</time></trkpt><trkpt lat="42.90435145173367" lon="11.913739526400182"><ele>368.20000000000005</ele><time>2026-04-19T10:37:23Z</time></trkpt><trkpt lat="42.90437439503025" lon="11.913628012566612"><ele>368.8</ele><time>2026-04-19T10:37:24Z</time></trkpt><trkpt lat="42.904387094108124" lon="11.913493555364736"><ele>369.4</ele><time>2026-04-19T10:37:26Z</time></trkpt><trkpt lat="42.90439804008876" lon="11.913356046658436"><ele>370.0</ele><time>2026-04-19T10:37:28Z</time></trkpt><trkpt lat="42.90439235207184" lon="11.91326164100311"><ele>371.4</ele><time>2026-04-19T10:37:29Z</time></trkpt><trkpt lat="42.90439235207062" lon="11.913166795588959"><ele>372.8</ele><time>2026-04-19T10:37:30Z</time></trkpt><trkpt lat="42.90452594198299" lon="11.91306313607041"><ele>374.20000000000005</ele><time>2026-04-19T10:37:31Z</time></trkpt><trkpt lat="42.90458146776426" lon="11.91297216497196"><ele>375.6</ele><time>2026-04-19T10:37:32Z</time></trkpt><trkpt lat="42.90465226325343" lon="11.912877659612333"><ele>377.0</ele><time>2026-04-19T10:37:34Z</time></trkpt><trkpt lat="42.90467377131112" lon="11.912722037689907"><ele>377.0</ele><time>2026-04-19T10:37:36Z</time></trkpt><trkpt lat="42.90465692716122" lon="11.912619084200001"><ele>377.0</ele><time>2026-04-19T10:37:37Z</time></trkpt><trkpt lat="42.904654926259944" lon="11.912484644506875"><ele>377.0</ele><time>2026-04-19T10:37:38Z</time></trkpt><trkpt lat="42.90467007886135" lon="11.912360126397145"><ele>377.0</ele><time>2026-04-19T10:37:39Z</time></trkpt><trkpt lat="42.904698168043794" lon="11.912265808607398"><ele>377.0</ele><time>2026-04-19T10:37:40Z</time></trkpt><trkpt lat="42.90472475247091" lon="11.912187253259358"><ele>377.0</ele><time>2026-04-19T10:37:41Z</time></trkpt><trkpt lat="42.90475834534543" lon="11.912100277059526"><ele>378.1666666666667</ele><time>2026-04-19T10:37:42Z</time></trkpt><trkpt lat="42.90480050844419" lon="11.91198207035189"><ele>379.33333333333337</ele><time>2026-04-19T10:37:43Z</time></trkpt><trkpt lat="42.90485443498483" lon="11.911868295309784"><ele>380.5</ele><time>2026-04-19T10:37:44Z</time></trkpt><trkpt lat="42.904898188318775" lon="11.911769870399997"><ele>381.6666666666667</ele><time>2026-04-19T10:37:45Z</time></trkpt><trkpt lat="42.90492341240849" lon="11.911669254081064"><ele>382.8333333333333</ele><time>2026-04-19T10:37:46Z</time></trkpt><trkpt lat="42.904931977259956" lon="11.9115653561367"><ele>384.0</ele><time>2026-04-19T10:37:47Z</time></trkpt><trkpt lat="42.90494322114419" lon="11.911468953944361"><ele>384.5</ele><time>2026-04-19T10:37:48Z</time></trkpt><trkpt lat="42.90500210272309" lon="11.91137519006089"><ele>385.0</ele><time>2026-04-19T10:37:50Z</time></trkpt><trkpt lat="42.90509434319454" lon="11.911384519309694"><ele>385.5</ele><time>2026-04-19T10:37:52Z</time></trkpt><trkpt lat="42.905136563407694" lon="11.911504437639346"><ele>386.0</ele><time>2026-04-19T10:37:54Z</time></trkpt><trkpt lat="42.905123335294775" lon="11.911596436577376"><ele>386.5</ele><time>2026-04-19T10:37:55Z</time></trkpt><trkpt lat="42.90511639279282" lon="11.911707301225462"><ele>387.0</ele><time>2026-04-19T10:37:56Z</time></trkpt><trkpt lat="42.90511236673852" lon="11.911838074280162"><ele>386.5</ele><time>2026-04-19T10:37:57Z</time></trkpt><trkpt lat="42.90511071944511" lon="11.911948586271917"><ele>386.0</ele><time>2026-04-19T10:37:58Z</time></trkpt><trkpt lat="42.90509386123439" lon="11.912038975693655"><ele>385.5</ele><time>2026-04-19T10:37:59Z</time></trkpt><trkpt lat="42.905059321118365" lon="11.912122198509804"><ele>385.0</ele><time>2026-04-19T10:38:00Z</time></trkpt><trkpt lat="42.905031213971405" lon="11.912199437250987"><ele>384.5</ele><time>2026-04-19T10:38:01Z</time></trkpt><trkpt lat="42.90501633470333" lon="11.912335940934062"><ele>384.0</ele><time>2026-04-19T10:38:03Z</time></trkpt><trkpt lat="42.90506404473984" lon="11.912437767691856"><ele>385.5</ele><time>2026-04-19T10:38:05Z</time></trkpt><trkpt lat="42.90515598105158" lon="11.912454579852188"><ele>387.0</ele><time>2026-04-19T10:38:07Z</time></trkpt><trkpt lat="42.90522024058523" lon="11.912348219981034"><ele>388.5</ele><time>2026-04-19T10:38:09Z</time></trkpt><trkpt lat="42.905247359025665" lon="11.91226482186107"><ele>390.0</ele><time>2026-04-19T10:38:10Z</time></trkpt><trkpt lat="42.90527384550349" lon="11.912159698903457"><ele>391.5</ele><time>2026-04-19T10:38:11Z</time></trkpt><trkpt lat="42.90530574501097" lon="11.912045834418137"><ele>393.0</ele><time>2026-04-19T10:38:12Z</time></trkpt><trkpt lat="42.90533225475942" lon="11.91195982403387"><ele>393.0</ele><time>2026-04-19T10:38:13Z</time></trkpt><trkpt lat="42.90538102634829" lon="11.911834439383087"><ele>393.0</ele><time>2026-04-19T10:38:15Z</time></trkpt><trkpt lat="42.90547616485124" lon="11.911811562452062"><ele>393.0</ele><time>2026-04-19T10:38:17Z</time></trkpt><trkpt lat="42.90554437729051" lon="11.911828529321319"><ele>393.0</ele><time>2026-04-19T10:38:18Z</time></trkpt><trkpt lat="42.90561821458444" lon="11.91189752752589"><ele>393.0</ele><time>2026-04-19T10:38:19Z</time></trkpt><trkpt lat="42.905715573749625" lon="11.911934292089086"><ele>393.0</ele><time>2026-04-19T10:38:20Z</time></trkpt><trkpt lat="42.905824503429116" lon="11.911958104620275"><ele>393.0</ele><time>2026-04-19T10:38:21Z</time></trkpt><trkpt lat="42.90592449431812" lon="11.911991390823495"><ele>393.0</ele><time>2026-04-19T10:38:22Z</time></trkpt><trkpt lat="42.906016290594174" lon="11.912040574013963"><ele>393.0</ele><time>2026-04-19T10:38:23Z</time></trkpt><trkpt lat="42.906122413291506" lon="11.912052869737877"><ele>393.0</ele><time>2026-04-19T10:38:24Z</time></trkpt><trkpt lat="42.90621154403701" lon="11.912087154754445"><ele>395.6666666666667</ele><time>2026-04-19T10:38:25Z</time></trkpt><trkpt lat="42.9062974227752" lon="11.912134558168601"><ele>398.33333333333337</ele><time>2026-04-19T10:38:26Z</time></trkpt><trkpt lat="42.90637494876189" lon="11.91214455439038"><ele>401.0</ele><time>2026-04-19T10:38:27Z</time></trkpt><trkpt lat="42.906445949256266" lon="11.91217538688578"><ele>403.6666666666667</ele><time>2026-04-19T10:38:28Z</time></trkpt><trkpt lat="42.9065085437782" lon="11.912199167152115"><ele>406.33333333333337</ele><time>2026-04-19T10:38:29Z</time></trkpt><trkpt lat="42.906567391539575" lon="11.912244283761273"><ele>409.0</ele><time>2026-04-19T10:38:33Z</time></trkpt><trkpt lat="42.90657933195591" lon="11.911996084173504"><ele>409.0</ele><time>2026-04-19T10:38:36Z</time></trkpt><trkpt lat="42.90655788587054" lon="11.911837357637081"><ele>409.0</ele><time>2026-04-19T10:38:37Z</time></trkpt><trkpt lat="42.906518886902056" lon="11.911679128446428"><ele>409.0</ele><time>2026-04-19T10:38:38Z</time></trkpt><trkpt lat="42.90648916695825" lon="11.911462228526092"><ele>409.0</ele><time>2026-04-19T10:38:39Z</time></trkpt><trkpt lat="42.90641498758939" lon="11.91126460105742"><ele>410.33333333333337</ele><time>2026-04-19T10:38:40Z</time></trkpt><trkpt lat="42.90629064218434" lon="11.911110520974637"><ele>411.66666666666663</ele><time>2026-04-19T10:38:41Z</time></trkpt><trkpt lat="42.906127813636566" lon="11.911011331335244"><ele>413.0</ele><time>2026-04-19T10:38:42Z</time></trkpt><trkpt lat="42.90593849501165" lon="11.910960070097515"><ele>413.0</ele><time>2026-04-19T10:38:43Z</time></trkpt><trkpt lat="42.90576932361573" lon="11.910935745547896"><ele>413.0</ele><time>2026-04-19T10:38:44Z</time></trkpt><trkpt lat="42.90564017720735" lon="11.910848329887676"><ele>413.0</ele><time>2026-04-19T10:38:45Z</time></trkpt><trkpt lat="42.90551685453322" lon="11.910739915187836"><ele>413.0</ele><time>2026-04-19T10:38:46Z</time></trkpt><trkpt lat="42.90543963093137" lon="11.910538921298816"><ele>413.0</ele><time>2026-04-19T10:38:47Z</time></trkpt><trkpt lat="42.9053845891318" lon="11.910315870414616"><ele>413.0</ele><time>2026-04-19T10:38:48Z</time></trkpt><trkpt lat="42.90533458453551" lon="11.910046087735724"><ele>417.3333333333333</ele><time>2026-04-19T10:38:49Z</time></trkpt><trkpt lat="42.90527248452088" lon="11.909775292645888"><ele>421.66666666666663</ele><time>2026-04-19T10:38:50Z</time></trkpt><trkpt lat="42.90520616992363" lon="11.909536114415125"><ele>426.0</ele><time>2026-04-19T10:38:51Z</time></trkpt><trkpt lat="42.9051491371538" lon="11.909316320411595"><ele>429.33333333333337</ele><time>2026-04-19T10:38:52Z</time></trkpt><trkpt lat="42.905116221155936" lon="11.909096373345207"><ele>432.6666666666667</ele><time>2026-04-19T10:38:53Z</time></trkpt><trkpt lat="42.90510877540013" lon="11.908854237684263"><ele>436.0</ele><time>2026-04-19T10:38:54Z</time></trkpt><trkpt lat="42.905137609208" lon="11.908613081884852"><ele>437.33333333333337</ele><time>2026-04-19T10:38:55Z</time></trkpt><trkpt lat="42.905185412392726" lon="11.908382872055817"><ele>438.66666666666663</ele><time>2026-04-19T10:38:56Z</time></trkpt><trkpt lat="42.90523780377846" lon="11.908181715211326"><ele>440.0</ele><time>2026-04-19T10:38:57Z</time></trkpt><trkpt lat="42.90528377773868" lon="11.90798365294798"><ele>440.0</ele><time>2026-04-19T10:38:58Z</time></trkpt><trkpt lat="42.90529107710299" lon="11.907797537744742"><ele>440.0</ele><time>2026-04-19T10:38:59Z</time></trkpt><trkpt lat="42.905272704385546" lon="11.907622540581233"><ele>440.0</ele><time>2026-04-19T10:39:00Z</time></trkpt><trkpt lat="42.905197532939845" lon="11.907450585577282"><ele>440.0</ele><time>2026-04-19T10:39:01Z</time></trkpt><trkpt lat="42.9050952571449" lon="11.90729338893214"><ele>438.0</ele><time>2026-04-19T10:39:02Z</time></trkpt><trkpt lat="42.904977827093866" lon="11.90713679447696"><ele>436.0</ele><time>2026-04-19T10:39:03Z</time></trkpt><trkpt lat="42.904898670851644" lon="11.90693977773901"><ele>434.0</ele><time>2026-04-19T10:39:04Z</time></trkpt><trkpt lat="42.904826035308034" lon="11.90672022398298"><ele>434.0</ele><time>2026-04-19T10:39:05Z</time></trkpt><trkpt lat="42.90477029553193" lon="11.906469462110136"><ele>434.0</ele><time>2026-04-19T10:39:06Z</time></trkpt><trkpt lat="42.90469702418951" lon="11.906209803319385"><ele>434.0</ele><time>2026-04-19T10:39:07Z</time></trkpt><trkpt lat="42.90461407646687" lon="11.905950393468917"><ele>439.0</ele><time>2026-04-19T10:39:08Z</time></trkpt><trkpt lat="42.9044981129953" lon="11.905715855464171"><ele>444.0</ele><time>2026-04-19T10:39:09Z</time></trkpt><trkpt lat="42.904380997173945" lon="11.905513681941613"><ele>449.0</ele><time>2026-04-19T10:39:10Z</time></trkpt><trkpt lat="42.904289854299606" lon="11.905330917028788"><ele>440.3333333333333</ele><time>2026-04-19T10:39:11Z</time></trkpt><trkpt lat="42.904216347239085" lon="11.905149144592434"><ele>431.66666666666663</ele><time>2026-04-19T10:39:12Z</time></trkpt><trkpt lat="42.90418011788998" lon="11.904941204278606"><ele>423.0</ele><time>2026-04-19T10:39:13Z</time></trkpt><trkpt lat="42.90416248659995" lon="11.904697575862146"><ele>423.0</ele><time>2026-04-19T10:39:14Z</time></trkpt><trkpt lat="42.90414171869698" lon="11.904426004818658"><ele>423.0</ele><time>2026-04-19T10:39:15Z</time></trkpt><trkpt lat="42.90412086602495" lon="11.904177260450457"><ele>423.0</ele><time>2026-04-19T10:39:16Z</time></trkpt><trkpt lat="42.904103300767034" lon="11.903960021820371"><ele>425.5</ele><time>2026-04-19T10:39:17Z</time></trkpt><trkpt lat="42.90411549849452" lon="11.903774541924424"><ele>428.0</ele><time>2026-04-19T10:39:18Z</time></trkpt><trkpt lat="42.904181389778586" lon="11.903620694787366"><ele>430.5</ele><time>2026-04-19T10:39:19Z</time></trkpt><trkpt lat="42.90429342172382" lon="11.903468796685214"><ele>433.0</ele><time>2026-04-19T10:39:20Z</time></trkpt><trkpt lat="42.90443412025683" lon="11.903269038421525"><ele>443.0</ele><time>2026-04-19T10:39:21Z</time></trkpt><trkpt lat="42.90457567372272" lon="11.903047715350931"><ele>453.0</ele><time>2026-04-19T10:39:22Z</time></trkpt><trkpt lat="42.90473791125058" lon="11.902805886995734"><ele>453.0</ele><time>2026-04-19T10:39:23Z</time></trkpt><trkpt lat="42.90492059090645" lon="11.9025817864343"><ele>453.0</ele><time>2026-04-19T10:39:24Z</time></trkpt><trkpt lat="42.905065290074575" lon="11.902378861528051"><ele>455.0</ele><time>2026-04-19T10:39:25Z</time></trkpt><trkpt lat="42.9051765599239" lon="11.902195111920726"><ele>457.0</ele><time>2026-04-19T10:39:26Z</time></trkpt><trkpt lat="42.905278233817555" lon="11.902059421777123"><ele>459.0</ele><time>2026-04-19T10:39:27Z</time></trkpt><trkpt lat="42.90534545083788" lon="11.901914090729505"><ele>461.0</ele><time>2026-04-19T10:39:28Z</time></trkpt><trkpt lat="42.905356202677396" lon="11.901752361843402"><ele>459.0</ele><time>2026-04-19T10:39:29Z</time></trkpt><trkpt lat="42.90531030598348" lon="11.901597855318327"><ele>457.0</ele><time>2026-04-19T10:39:30Z</time></trkpt><trkpt lat="42.905203977764785" lon="11.901469367076102"><ele>455.0</ele><time>2026-04-19T10:39:31Z</time></trkpt><trkpt lat="42.90505231253286" lon="11.901398948656372"><ele>453.0</ele><time>2026-04-19T10:39:32Z</time></trkpt><trkpt lat="42.904862461170026" lon="11.901379360453562"><ele>449.0</ele><time>2026-04-19T10:39:33Z</time></trkpt><trkpt lat="42.90465889435258" lon="11.901407064757867"><ele>445.0</ele><time>2026-04-19T10:39:34Z</time></trkpt><trkpt lat="42.904494524243745" lon="11.90148117134902"><ele>441.0</ele><time>2026-04-19T10:39:35Z</time></trkpt><trkpt lat="42.90434855869536" lon="11.901522552232828"><ele>439.5</ele><time>2026-04-19T10:39:36Z</time></trkpt><trkpt lat="42.90421350100063" lon="11.901517712866433"><ele>438.0</ele><time>2026-04-19T10:39:37Z</time></trkpt><trkpt lat="42.904074062539834" lon="11.901470982337287"><ele>436.5</ele><time>2026-04-19T10:39:38Z</time></trkpt><trkpt lat="42.903941886032925" lon="11.901359719893826"><ele>435.0</ele><time>2026-04-19T10:39:39Z</time></trkpt><trkpt lat="42.903832180999196" lon="11.901197345731443"><ele>435.0</ele><time>2026-04-19T10:39:40Z</time></trkpt><trkpt lat="42.90377549034405" lon="11.90097152140846"><ele>435.0</ele><time>2026-04-19T10:39:41Z</time></trkpt><trkpt lat="42.90373960894792" lon="11.900704723373366"><ele>435.0</ele><time>2026-04-19T10:39:42Z</time></trkpt><trkpt lat="42.90368378685889" lon="11.90044015323249"><ele>438.33333333333337</ele><time>2026-04-19T10:39:43Z</time></trkpt><trkpt lat="42.9036237918015" lon="11.90020306052605"><ele>441.6666666666667</ele><time>2026-04-19T10:39:44Z</time></trkpt><trkpt lat="42.90349822434569" lon="11.90000329905249"><ele>445.0</ele><time>2026-04-19T10:39:45Z</time></trkpt><trkpt lat="42.90329669005487" lon="11.899862629647105"><ele>445.0</ele><time>2026-04-19T10:39:46Z</time></trkpt><trkpt lat="42.90308719127689" lon="11.899756995311966"><ele>445.0</ele><time>2026-04-19T10:39:47Z</time></trkpt><trkpt lat="42.902899430801874" lon="11.899678639290592"><ele>445.0</ele><time>2026-04-19T10:39:48Z</time></trkpt><trkpt lat="42.902754114240246" lon="11.899559359702865"><ele>445.0</ele><time>2026-04-19T10:39:49Z</time></trkpt><trkpt lat="42.902635077228325" lon="11.899379355059999"><ele>445.0</ele><time>2026-04-19T10:39:50Z</time></trkpt><trkpt lat="42.902571901958076" lon="11.899124891386764"><ele>445.0</ele><time>2026-04-19T10:39:51Z</time></trkpt><trkpt lat="42.90247188488979" lon="11.898864171065776"><ele>445.0</ele><time>2026-04-19T10:39:52Z</time></trkpt><trkpt lat="42.90235076163139" lon="11.898619516790742"><ele>445.0</ele><time>2026-04-19T10:39:53Z</time></trkpt><trkpt lat="42.90222403544388" lon="11.898374408727937"><ele>445.0</ele><time>2026-04-19T10:39:54Z</time></trkpt><trkpt lat="42.90206643795903" lon="11.898159158009687"><ele>444.5</ele><time>2026-04-19T10:39:55Z</time></trkpt><trkpt lat="42.90187147412162" lon="11.897965958226278"><ele>444.0</ele><time>2026-04-19T10:39:56Z</time></trkpt><trkpt lat="42.90167577897881" lon="11.89781743162227"><ele>444.0</ele><time>2026-04-19T10:39:57Z</time></trkpt><trkpt lat="42.90148728993322" lon="11.897723835612927"><ele>444.0</ele><time>2026-04-19T10:39:58Z</time></trkpt><trkpt lat="42.90131770445974" lon="11.897634614849483"><ele>444.0</ele><time>2026-04-19T10:39:59Z</time></trkpt><trkpt lat="42.90117100436696" lon="11.897539966438835"><ele>446.5</ele><time>2026-04-19T10:40:00Z</time></trkpt><trkpt lat="42.90105123032294" lon="11.897402911069562"><ele>449.0</ele><time>2026-04-19T10:40:01Z</time></trkpt><trkpt lat="42.90098609571023" lon="11.897225394634939"><ele>451.5</ele><time>2026-04-19T10:40:02Z</time></trkpt><trkpt lat="42.90098315185607" lon="11.897023999477595"><ele>454.0</ele><time>2026-04-19T10:40:03Z</time></trkpt><trkpt lat="42.9010013198605" lon="11.896799818853365"><ele>456.33333333333337</ele><time>2026-04-19T10:40:04Z</time></trkpt><trkpt lat="42.90102516556193" lon="11.896560009561322"><ele>458.66666666666663</ele><time>2026-04-19T10:40:05Z</time></trkpt><trkpt lat="42.90104317579622" lon="11.89630616852714"><ele>461.0</ele><time>2026-04-19T10:40:06Z</time></trkpt><trkpt lat="42.90107598216333" lon="11.896060823415457"><ele>461.0</ele><time>2026-04-19T10:40:07Z</time></trkpt><trkpt lat="42.90109519005381" lon="11.895844368383392"><ele>461.0</ele><time>2026-04-19T10:40:08Z</time></trkpt><trkpt lat="42.901102611764344" lon="11.89565051149523"><ele>461.0</ele><time>2026-04-19T10:40:09Z</time></trkpt><trkpt lat="42.90107421894151" lon="11.895477379015839"><ele>461.0</ele><time>2026-04-19T10:40:10Z</time></trkpt><trkpt lat="42.90099011087427" lon="11.895343945277912"><ele>456.3333333333333</ele><time>2026-04-19T10:40:11Z</time></trkpt><trkpt lat="42.900858304277314" lon="11.895260811629926"><ele>451.66666666666663</ele><time>2026-04-19T10:40:12Z</time></trkpt><trkpt lat="42.90069693332278" lon="11.895238422028427"><ele>447.0</ele><time>2026-04-19T10:40:13Z</time></trkpt><trkpt lat="42.90051581999882" lon="11.895201769349978"><ele>450.0</ele><time>2026-04-19T10:40:14Z</time></trkpt><trkpt lat="42.900357984142744" lon="11.895070476426383"><ele>453.0</ele><time>2026-04-19T10:40:15Z</time></trkpt><trkpt lat="42.90020192121182" lon="11.894944505673909"><ele>456.0</ele><time>2026-04-19T10:40:16Z</time></trkpt><trkpt lat="42.90001363634328" lon="11.894876280216582"><ele>456.33333333333337</ele><time>2026-04-19T10:40:17Z</time></trkpt><trkpt lat="42.89981804949989" lon="11.894829229660886"><ele>456.6666666666667</ele><time>2026-04-19T10:40:18Z</time></trkpt><trkpt lat="42.89963282813615" lon="11.894736128773182"><ele>457.0</ele><time>2026-04-19T10:40:19Z</time></trkpt><trkpt lat="42.89943605768329" lon="11.89460751524498"><ele>456.5</ele><time>2026-04-19T10:40:20Z</time></trkpt><trkpt lat="42.8992351568407" lon="11.894459189834043"><ele>456.0</ele><time>2026-04-19T10:40:21Z</time></trkpt><trkpt lat="42.89903740468992" lon="11.894315710962392"><ele>461.0</ele><time>2026-04-19T10:40:22Z</time></trkpt><trkpt lat="42.89884850902934" lon="11.894176067360458"><ele>466.0</ele><time>2026-04-19T10:40:23Z</time></trkpt><trkpt lat="42.89867264600458" lon="11.894040946795567"><ele>471.0</ele><time>2026-04-19T10:40:24Z</time></trkpt><trkpt lat="42.898523174843575" lon="11.893917960045412"><ele>470.33333333333337</ele><time>2026-04-19T10:40:25Z</time></trkpt><trkpt lat="42.89838909563603" lon="11.893789521843049"><ele>469.6666666666667</ele><time>2026-04-19T10:40:26Z</time></trkpt><trkpt lat="42.89826735753542" lon="11.893666693248363"><ele>469.0</ele><time>2026-04-19T10:40:27Z</time></trkpt><trkpt lat="42.89815886877777" lon="11.893551689670582"><ele>469.0</ele><time>2026-04-19T10:40:28Z</time></trkpt><trkpt lat="42.89805725508092" lon="11.893422919385301"><ele>469.0</ele><time>2026-04-19T10:40:29Z</time></trkpt><trkpt lat="42.89797425560626" lon="11.893264596359165"><ele>469.0</ele><time>2026-04-19T10:40:30Z</time></trkpt><trkpt lat="42.897898121900724" lon="11.893071120065391"><ele>469.0</ele><time>2026-04-19T10:40:31Z</time></trkpt><trkpt lat="42.89780483753612" lon="11.89287013220669"><ele>475.33333333333337</ele><time>2026-04-19T10:40:32Z</time></trkpt><trkpt lat="42.89772357619196" lon="11.892653628379065"><ele>481.66666666666663</ele><time>2026-04-19T10:40:33Z</time></trkpt><trkpt lat="42.897658759733346" lon="11.892423799185055"><ele>488.0</ele><time>2026-04-19T10:40:34Z</time></trkpt><trkpt lat="42.8976184257456" lon="11.892179763176168"><ele>489.0</ele><time>2026-04-19T10:40:35Z</time></trkpt><trkpt lat="42.897607567315106" lon="11.891923477191641"><ele>490.0</ele><time>2026-04-19T10:40:36Z</time></trkpt><trkpt lat="42.89757123027199" lon="11.891704711172602"><ele>491.0</ele><time>2026-04-19T10:40:37Z</time></trkpt><trkpt lat="42.89745178194854" lon="11.89151392983513"><ele>491.0</ele><time>2026-04-19T10:40:38Z</time></trkpt><trkpt lat="42.8973811346203" lon="11.8913019661955"><ele>491.0</ele><time>2026-04-19T10:40:39Z</time></trkpt><trkpt lat="42.897355467294354" lon="11.891078271389828"><ele>491.0</ele><time>2026-04-19T10:40:40Z</time></trkpt><trkpt lat="42.897384591878655" lon="11.89085248977397"><ele>492.5</ele><time>2026-04-19T10:40:41Z</time></trkpt><trkpt lat="42.89745244462333" lon="11.890641059977725"><ele>494.0</ele><time>2026-04-19T10:40:42Z</time></trkpt><trkpt lat="42.89752328871146" lon="11.8904535260163"><ele>495.5</ele><time>2026-04-19T10:40:43Z</time></trkpt><trkpt lat="42.897539376219235" lon="11.890284948535745"><ele>497.0</ele><time>2026-04-19T10:40:44Z</time></trkpt><trkpt lat="42.897501944584725" lon="11.890127907924764"><ele>499.0</ele><time>2026-04-19T10:40:45Z</time></trkpt><trkpt lat="42.89740108408595" lon="11.889972661996262"><ele>501.0</ele><time>2026-04-19T10:40:46Z</time></trkpt><trkpt lat="42.897290309466484" lon="11.889793765203024"><ele>503.0</ele><time>2026-04-19T10:40:47Z</time></trkpt><trkpt lat="42.89716380875978" lon="11.889633033539514"><ele>503.0</ele><time>2026-04-19T10:40:48Z</time></trkpt><trkpt lat="42.8970577043201" lon="11.889489891769824"><ele>503.0</ele><time>2026-04-19T10:40:49Z</time></trkpt><trkpt lat="42.89692421647183" lon="11.889407116701861"><ele>503.0</ele><time>2026-04-19T10:40:50Z</time></trkpt><trkpt lat="42.89678178705692" lon="11.889406929395074"><ele>503.0</ele><time>2026-04-19T10:40:51Z</time></trkpt><trkpt lat="42.89667130483581" lon="11.889374574546068"><ele>502.5</ele><time>2026-04-19T10:40:52Z</time></trkpt><trkpt lat="42.89658292609503" lon="11.889285328448432"><ele>502.0</ele><time>2026-04-19T10:40:53Z</time></trkpt><trkpt lat="42.89658010886684" lon="11.889109590609266"><ele>501.5</ele><time>2026-04-19T10:40:54Z</time></trkpt><trkpt lat="42.89660648155153" lon="11.888956562759208"><ele>501.0</ele><time>2026-04-19T10:40:55Z</time></trkpt><trkpt lat="42.89665696085952" lon="11.888796774860236"><ele>501.0</ele><time>2026-04-19T10:40:56Z</time></trkpt><trkpt lat="42.89673900019385" lon="11.888630076635613"><ele>501.0</ele><time>2026-04-19T10:40:57Z</time></trkpt><trkpt lat="42.8968636189838" lon="11.888472930738205"><ele>501.0</ele><time>2026-04-19T10:40:58Z</time></trkpt><trkpt lat="42.89700739340216" lon="11.88832472662912"><ele>505.25</ele><time>2026-04-19T10:40:59Z</time></trkpt><trkpt lat="42.897108764505006" lon="11.888182848794797"><ele>509.5</ele><time>2026-04-19T10:41:00Z</time></trkpt><trkpt lat="42.897161999459875" lon="11.88803346300294"><ele>513.75</ele><time>2026-04-19T10:41:01Z</time></trkpt><trkpt lat="42.89715335562533" lon="11.88785805817102"><ele>518.0</ele><time>2026-04-19T10:41:02Z</time></trkpt><trkpt lat="42.897081858244036" lon="11.887701013157102"><ele>518.0</ele><time>2026-04-19T10:41:03Z</time></trkpt><trkpt lat="42.89696468843208" lon="11.887611574933462"><ele>518.0</ele><time>2026-04-19T10:41:04Z</time></trkpt><trkpt lat="42.89684146241224" lon="11.887590070343082"><ele>518.0</ele><time>2026-04-19T10:41:05Z</time></trkpt><trkpt lat="42.896710096942826" lon="11.887632882735659"><ele>518.0</ele><time>2026-04-19T10:41:06Z</time></trkpt><trkpt lat="42.89658216693104" lon="11.887683057947719"><ele>517.75</ele><time>2026-04-19T10:41:07Z</time></trkpt><trkpt lat="42.8964627923112" lon="11.88762918356677"><ele>517.5</ele><time>2026-04-19T10:41:08Z</time></trkpt><trkpt lat="42.89634800148385" lon="11.887535595467611"><ele>517.25</ele><time>2026-04-19T10:41:09Z</time></trkpt><trkpt lat="42.89626277897446" lon="11.887372022781692"><ele>517.0</ele><time>2026-04-19T10:41:10Z</time></trkpt><trkpt lat="42.89620856760806" lon="11.88715741735787"><ele>517.0</ele><time>2026-04-19T10:41:11Z</time></trkpt><trkpt lat="42.89613997972718" lon="11.886927539606418"><ele>517.0</ele><time>2026-04-19T10:41:12Z</time></trkpt><trkpt lat="42.896059033111854" lon="11.886749929365392"><ele>517.0</ele><time>2026-04-19T10:41:13Z</time></trkpt><trkpt lat="42.89599005178597" lon="11.886578205453912"><ele>517.0</ele><time>2026-04-19T10:41:14Z</time></trkpt><trkpt lat="42.89589638393614" lon="11.886453202170147"><ele>517.0</ele><time>2026-04-19T10:41:15Z</time></trkpt><trkpt lat="42.89580357742546" lon="11.886360767487574"><ele>517.0</ele><time>2026-04-19T10:41:16Z</time></trkpt><trkpt lat="42.89573160686822" lon="11.886289214278689"><ele>517.0</ele><time>2026-04-19T10:41:17Z</time></trkpt><trkpt lat="42.89567774742018" lon="11.886237223601228"><ele>517.0</ele><time>2026-04-19T10:41:18Z</time></trkpt><trkpt lat="42.89559909085946" lon="11.886164224909292"><ele>517.0</ele><time>2026-04-19T10:41:20Z</time></trkpt><trkpt lat="42.895679283275314" lon="11.886103624177734"><ele>517.0</ele><time>2026-04-19T10:41:23Z</time></trkpt><trkpt lat="42.89578468756078" lon="11.886088602529348"><ele>517.0</ele><time>2026-04-19T10:41:26Z</time></trkpt><trkpt lat="42.8958968000275" lon="11.886050198653122"><ele>517.0</ele><time>2026-04-19T10:41:28Z</time></trkpt><trkpt lat="42.89600947443925" lon="11.886035117415028"><ele>517.0</ele><time>2026-04-19T10:41:30Z</time></trkpt><trkpt lat="42.89608143603263" lon="11.886022258293295"><ele>519.8000000000001</ele><time>2026-04-19T10:41:31Z</time></trkpt><trkpt lat="42.89615376595301" lon="11.886025243046637"><ele>522.6</ele><time>2026-04-19T10:41:32Z</time></trkpt><trkpt lat="42.89625154136606" lon="11.885956714719722"><ele>525.4000000000001</ele><time>2026-04-19T10:41:34Z</time></trkpt><trkpt lat="42.89629302304938" lon="11.885824177858598"><ele>528.2</ele><time>2026-04-19T10:41:36Z</time></trkpt><trkpt lat="42.896263454218385" lon="11.885675694709693"><ele>531.0</ele><time>2026-04-19T10:41:38Z</time></trkpt><trkpt lat="42.8961924613152" lon="11.885638377990933"><ele>533.2</ele><time>2026-04-19T10:41:39Z</time></trkpt><trkpt lat="42.896145183703304" lon="11.88552631118825"><ele>535.4000000000001</ele><time>2026-04-19T10:41:41Z</time></trkpt><trkpt lat="42.89619040957954" lon="11.885438570969429"><ele>537.6</ele><time>2026-04-19T10:41:44Z</time></trkpt><trkpt lat="42.89625767476124" lon="11.885400960896138"><ele>539.8000000000001</ele><time>2026-04-19T10:41:46Z</time></trkpt><trkpt lat="42.89636590425567" lon="11.885416120873572"><ele>542.0</ele><time>2026-04-19T10:41:48Z</time></trkpt><trkpt lat="42.89648012272086" lon="11.885409969588393"><ele>542.0</ele><time>2026-04-19T10:41:50Z</time></trkpt><trkpt lat="42.89653680833076" lon="11.885363419917127"><ele>542.0</ele><time>2026-04-19T10:41:51Z</time></trkpt><trkpt lat="42.89659850584889" lon="11.885307581192421"><ele>542.0</ele><time>2026-04-19T10:41:52Z</time></trkpt><trkpt lat="42.89666619694631" lon="11.885240949587851"><ele>542.0</ele><time>2026-04-19T10:41:53Z</time></trkpt><trkpt lat="42.896732170449916" lon="11.885150249592941"><ele>542.0</ele><time>2026-04-19T10:41:54Z</time></trkpt><trkpt lat="42.89679302880629" lon="11.885057947020881"><ele>542.0</ele><time>2026-04-19T10:41:55Z</time></trkpt><trkpt lat="42.89686083037881" lon="11.88495391195315"><ele>547.0</ele><time>2026-04-19T10:41:56Z</time></trkpt><trkpt lat="42.896918670989635" lon="11.884838484938559"><ele>552.0</ele><time>2026-04-19T10:41:57Z</time></trkpt><trkpt lat="42.89699091618812" lon="11.884724562054837"><ele>557.0</ele><time>2026-04-19T10:41:58Z</time></trkpt><trkpt lat="42.89704708491944" lon="11.88457252447198"><ele>562.0</ele><time>2026-04-19T10:41:59Z</time></trkpt><trkpt lat="42.897130974411084" lon="11.884441429868861"><ele>562.0</ele><time>2026-04-19T10:42:00Z</time></trkpt><trkpt lat="42.89718156312371" lon="11.884338951727148"><ele>562.0</ele><time>2026-04-19T10:42:01Z</time></trkpt><trkpt lat="42.89721822821573" lon="11.884260713396996"><ele>562.0</ele><time>2026-04-19T10:42:02Z</time></trkpt><trkpt lat="42.89726891364154" lon="11.884144660868449"><ele>562.0</ele><time>2026-04-19T10:42:04Z</time></trkpt><trkpt lat="42.89734205272332" lon="11.884081095991746"><ele>562.0</ele><time>2026-04-19T10:42:07Z</time></trkpt><trkpt lat="42.89742379414303" lon="11.884133320549108"><ele>562.0</ele><time>2026-04-19T10:42:09Z</time></trkpt><trkpt lat="42.89747025856759" lon="11.884196425228694"><ele>562.0</ele><time>2026-04-19T10:42:10Z</time></trkpt><trkpt lat="42.89753145349546" lon="11.884272640137524"><ele>562.0</ele><time>2026-04-19T10:42:11Z</time></trkpt><trkpt lat="42.89759610241158" lon="11.884366489277323"><ele>562.0</ele><time>2026-04-19T10:42:12Z</time></trkpt><trkpt lat="42.89763836112699" lon="11.884452641804861"><ele>562.0</ele><time>2026-04-19T10:42:13Z</time></trkpt><trkpt lat="42.89766480437625" lon="11.88455888902899"><ele>562.0</ele><time>2026-04-19T10:42:14Z</time></trkpt><trkpt lat="42.89770593780187" lon="11.884659635147006"><ele>562.0</ele><time>2026-04-19T10:42:15Z</time></trkpt><trkpt lat="42.897754521250285" lon="11.884751948431928"><ele>564.6666666666667</ele><time>2026-04-19T10:42:16Z</time></trkpt><trkpt lat="42.89781638211921" lon="11.884823118795413"><ele>567.3333333333334</ele><time>2026-04-19T10:42:17Z</time></trkpt><trkpt lat="42.89787882678696" lon="11.884899149744793"><ele>570.0</ele><time>2026-04-19T10:42:18Z</time></trkpt><trkpt lat="42.897947416663165" lon="11.884969627505296"><ele>572.6666666666666</ele><time>2026-04-19T10:42:19Z</time></trkpt><trkpt lat="42.898007284790786" lon="11.885039437135989"><ele>575.3333333333333</ele><time>2026-04-19T10:42:20Z</time></trkpt><trkpt lat="42.89807985050531" lon="11.885050365798758"><ele>578.0</ele><time>2026-04-19T10:42:21Z</time></trkpt><trkpt lat="42.89818249922743" lon="11.885057519292555"><ele>578.0</ele><time>2026-04-19T10:42:23Z</time></trkpt><trkpt lat="42.89829268819986" lon="11.885058710383534"><ele>578.0</ele><time>2026-04-19T10:42:25Z</time></trkpt><trkpt lat="42.8983767710037" lon="11.885036964757525"><ele>578.0</ele><time>2026-04-19T10:42:27Z</time></trkpt><trkpt lat="42.898467207451446" lon="11.8850212570126"><ele>578.0</ele><time>2026-04-19T10:42:29Z</time></trkpt><trkpt lat="42.898577091213056" lon="11.885011852402853"><ele>578.0</ele><time>2026-04-19T10:42:31Z</time></trkpt><trkpt lat="42.898692583908534" lon="11.884976314954923"><ele>579.0</ele><time>2026-04-19T10:42:33Z</time></trkpt><trkpt lat="42.89877953387561" lon="11.884930204941284"><ele>580.0</ele><time>2026-04-19T10:42:35Z</time></trkpt><trkpt lat="42.89885112562017" lon="11.884858298168817"><ele>581.0</ele><time>2026-04-19T10:42:37Z</time></trkpt><trkpt lat="42.898882762411596" lon="11.88478041900239"><ele>582.0</ele><time>2026-04-19T10:42:38Z</time></trkpt><trkpt lat="42.89889662647024" lon="11.88464061603979"><ele>583.0</ele><time>2026-04-19T10:42:40Z</time></trkpt><trkpt lat="42.89890088842708" lon="11.884473879938172"><ele>583.0</ele><time>2026-04-19T10:42:42Z</time></trkpt><trkpt lat="42.898936507855225" lon="11.884356400949303"><ele>583.0</ele><time>2026-04-19T10:42:44Z</time></trkpt><trkpt lat="42.898976688775925" lon="11.88422018473852"><ele>583.0</ele><time>2026-04-19T10:42:46Z</time></trkpt><trkpt lat="42.89894750462987" lon="11.884022860095584"><ele>583.0</ele><time>2026-04-19T10:42:47Z</time></trkpt><trkpt lat="42.89901430458598" lon="11.883875761821114"><ele>587.0</ele><time>2026-04-19T10:42:54Z</time></trkpt><trkpt lat="42.89888989410221" lon="11.883834865111854"><ele>591.0</ele><time>2026-04-19T10:42:57Z</time></trkpt><trkpt lat="42.898839037375694" lon="11.883783867433255"><ele>595.0</ele><time>2026-04-19T10:42:58Z</time></trkpt><trkpt lat="42.89879097520909" lon="11.88370828435883"><ele>599.0</ele><time>2026-04-19T10:42:59Z</time></trkpt><trkpt lat="42.898755135110434" lon="11.883634887744916"><ele>603.0</ele><time>2026-04-19T10:43:00Z</time></trkpt><trkpt lat="42.89869911092945" lon="11.883469465720852"><ele>605.8333333333334</ele><time>2026-04-19T10:43:02Z</time></trkpt><trkpt lat="42.89867457236805" lon="11.883369749183258"><ele>608.6666666666666</ele><time>2026-04-19T10:43:03Z</time></trkpt><trkpt lat="42.898643727310244" lon="11.88327572814003"><ele>611.5</ele><time>2026-04-19T10:43:04Z</time></trkpt><trkpt lat="42.89859828135856" lon="11.883197975294394"><ele>614.3333333333333</ele><time>2026-04-19T10:43:05Z</time></trkpt><trkpt lat="42.898550928820015" lon="11.8831162524332"><ele>617.1666666666666</ele><time>2026-04-19T10:43:06Z</time></trkpt><trkpt lat="42.89851316289076" lon="11.883026477250002"><ele>620.0</ele><time>2026-04-19T10:43:07Z</time></trkpt><trkpt lat="42.89847426246097" lon="11.882930600900476"><ele>620.0</ele><time>2026-04-19T10:43:08Z</time></trkpt><trkpt lat="42.89844659003935" lon="11.882843842290258"><ele>620.0</ele><time>2026-04-19T10:43:09Z</time></trkpt><trkpt lat="42.89839424720752" lon="11.882735681740519"><ele>620.0</ele><time>2026-04-19T10:43:11Z</time></trkpt><trkpt lat="42.898273611135984" lon="11.88271402435003"><ele>620.0</ele><time>2026-04-19T10:43:13Z</time></trkpt><trkpt lat="42.89819974593401" lon="11.882714057383948"><ele>620.0</ele><time>2026-04-19T10:43:14Z</time></trkpt><trkpt lat="42.89812910198047" lon="11.882682102183592"><ele>620.0</ele><time>2026-04-19T10:43:15Z</time></trkpt><trkpt lat="42.89804915019599" lon="11.882635055755042"><ele>618.4</ele><time>2026-04-19T10:43:16Z</time></trkpt><trkpt lat="42.897968828594514" lon="11.882585840805364"><ele>616.8</ele><time>2026-04-19T10:43:17Z</time></trkpt><trkpt lat="42.89788293885603" lon="11.882551887781018"><ele>615.2</ele><time>2026-04-19T10:43:18Z</time></trkpt><trkpt lat="42.89778425257404" lon="11.88253507689898"><ele>613.6</ele><time>2026-04-19T10:43:19Z</time></trkpt><trkpt lat="42.89769380334843" lon="11.882489130979323"><ele>612.0</ele><time>2026-04-19T10:43:20Z</time></trkpt><trkpt lat="42.89760343650011" lon="11.882441601007026"><ele>609.1666666666666</ele><time>2026-04-19T10:43:21Z</time></trkpt><trkpt lat="42.8975367075433" lon="11.882385236717907"><ele>606.3333333333334</ele><time>2026-04-19T10:43:22Z</time></trkpt><trkpt lat="42.89747505966744" lon="11.882326103201192"><ele>603.5</ele><time>2026-04-19T10:43:23Z</time></trkpt><trkpt lat="42.89741308500652" lon="11.882253611614654"><ele>600.6666666666667</ele><time>2026-04-19T10:43:24Z</time></trkpt><trkpt lat="42.89735152510983" lon="11.882154959457976"><ele>597.8333333333334</ele><time>2026-04-19T10:43:25Z</time></trkpt><trkpt lat="42.89730412375614" lon="11.882061958962737"><ele>595.0</ele><time>2026-04-19T10:43:26Z</time></trkpt><trkpt lat="42.89725389123128" lon="11.881965866399284"><ele>595.0</ele><time>2026-04-19T10:43:27Z</time></trkpt><trkpt lat="42.897196836201864" lon="11.8818567459132"><ele>595.0</ele><time>2026-04-19T10:43:28Z</time></trkpt><trkpt lat="42.89713521760463" lon="11.88174034859895"><ele>595.0</ele><time>2026-04-19T10:43:29Z</time></trkpt><trkpt lat="42.897078774714764" lon="11.881617732691979"><ele>595.0</ele><time>2026-04-19T10:43:30Z</time></trkpt><trkpt lat="42.89701885274138" lon="11.881502933125482"><ele>595.0</ele><time>2026-04-19T10:43:31Z</time></trkpt><trkpt lat="42.89695764745457" lon="11.881411008435542"><ele>596.4</ele><time>2026-04-19T10:43:32Z</time></trkpt><trkpt lat="42.896895629210945" lon="11.881342386976824"><ele>597.8</ele><time>2026-04-19T10:43:33Z</time></trkpt><trkpt lat="42.896827881970495" lon="11.881227905040284"><ele>599.2</ele><time>2026-04-19T10:43:35Z</time></trkpt><trkpt lat="42.89679269295715" lon="11.88114508074804"><ele>600.6</ele><time>2026-04-19T10:43:36Z</time></trkpt><trkpt lat="42.89674866447709" lon="11.881024670136188"><ele>602.0</ele><time>2026-04-19T10:43:37Z</time></trkpt><trkpt lat="42.896700575939725" lon="11.880877440646294"><ele>606.2</ele><time>2026-04-19T10:43:38Z</time></trkpt><trkpt lat="42.89665722601861" lon="11.880730294650716"><ele>610.4000000000001</ele><time>2026-04-19T10:43:39Z</time></trkpt><trkpt lat="42.896607909755176" lon="11.880610160914634"><ele>614.5999999999999</ele><time>2026-04-19T10:43:40Z</time></trkpt><trkpt lat="42.89654345912753" lon="11.880503576864829"><ele>618.8</ele><time>2026-04-19T10:43:41Z</time></trkpt><trkpt lat="42.89648336220051" lon="11.880422537425051"><ele>623.0</ele><time>2026-04-19T10:43:42Z</time></trkpt><trkpt lat="42.89642746673888" lon="11.880369184965334"><ele>623.0</ele><time>2026-04-19T10:43:43Z</time></trkpt><trkpt lat="42.89635924950388" lon="11.880332719045555"><ele>623.0</ele><time>2026-04-19T10:43:44Z</time></trkpt><trkpt lat="42.89627977039555" lon="11.880315808057166"><ele>623.0</ele><time>2026-04-19T10:43:45Z</time></trkpt><trkpt lat="42.89619023921528" lon="11.880307832795237"><ele>623.0</ele><time>2026-04-19T10:43:46Z</time></trkpt><trkpt lat="42.89612039352908" lon="11.880299192842404"><ele>623.0</ele><time>2026-04-19T10:43:47Z</time></trkpt><trkpt lat="42.89601285787375" lon="11.880306889372058"><ele>623.0</ele><time>2026-04-19T10:43:49Z</time></trkpt><trkpt lat="42.895906878451825" lon="11.880344915750385"><ele>624.0</ele><time>2026-04-19T10:43:51Z</time></trkpt><trkpt lat="42.895783368259984" lon="11.880310645540423"><ele>625.0</ele><time>2026-04-19T10:43:53Z</time></trkpt><trkpt lat="42.89570613805829" lon="11.880242397249267"><ele>626.0</ele><time>2026-04-19T10:43:54Z</time></trkpt><trkpt lat="42.89560291718724" lon="11.88014191815207"><ele>627.0</ele><time>2026-04-19T10:43:55Z</time></trkpt><trkpt lat="42.89550140484654" lon="11.880048333861371"><ele>627.0</ele><time>2026-04-19T10:43:56Z</time></trkpt><trkpt lat="42.89540930830716" lon="11.87998237693206"><ele>627.0</ele><time>2026-04-19T10:43:57Z</time></trkpt><trkpt lat="42.895331652255344" lon="11.879927353939722"><ele>627.0</ele><time>2026-04-19T10:43:58Z</time></trkpt><trkpt lat="42.89526745705372" lon="11.8798494328428"><ele>627.0</ele><time>2026-04-19T10:43:59Z</time></trkpt><trkpt lat="42.89519965158671" lon="11.879749088110618"><ele>627.0</ele><time>2026-04-19T10:44:00Z</time></trkpt><trkpt lat="42.89513410986337" lon="11.879667993411255"><ele>625.8000000000001</ele><time>2026-04-19T10:44:01Z</time></trkpt><trkpt lat="42.895060157407094" lon="11.879616987864406"><ele>624.6</ele><time>2026-04-19T10:44:02Z</time></trkpt><trkpt lat="42.89495838054166" lon="11.879584974108536"><ele>623.4000000000001</ele><time>2026-04-19T10:44:03Z</time></trkpt><trkpt lat="42.89483579782035" lon="11.87955604456675"><ele>622.2</ele><time>2026-04-19T10:44:04Z</time></trkpt><trkpt lat="42.894720334673536" lon="11.879511940969378"><ele>621.0</ele><time>2026-04-19T10:44:05Z</time></trkpt><trkpt lat="42.89461408723097" lon="11.879463922016713"><ele>621.0</ele><time>2026-04-19T10:44:06Z</time></trkpt><trkpt lat="42.894520173574065" lon="11.879443344240467"><ele>621.0</ele><time>2026-04-19T10:44:07Z</time></trkpt><trkpt lat="42.89441570953817" lon="11.87944261405625"><ele>621.0</ele><time>2026-04-19T10:44:08Z</time></trkpt><trkpt lat="42.894288264766956" lon="11.879465092568386"><ele>621.0</ele><time>2026-04-19T10:44:09Z</time></trkpt><trkpt lat="42.89415515020986" lon="11.879500797340606"><ele>622.5</ele><time>2026-04-19T10:44:10Z</time></trkpt><trkpt lat="42.89402290502525" lon="11.879549795954675"><ele>624.0</ele><time>2026-04-19T10:44:11Z</time></trkpt><trkpt lat="42.89392649114886" lon="11.879575005066888"><ele>625.5</ele><time>2026-04-19T10:44:12Z</time></trkpt><trkpt lat="42.893860714133744" lon="11.879593084734088"><ele>627.0</ele><time>2026-04-19T10:44:13Z</time></trkpt><trkpt lat="42.89380160298985" lon="11.879632706753997"><ele>628.5</ele><time>2026-04-19T10:44:14Z</time></trkpt><trkpt lat="42.89374689981418" lon="11.87968352910849"><ele>630.0</ele><time>2026-04-19T10:44:15Z</time></trkpt><trkpt lat="42.89367839141053" lon="11.879729750709846"><ele>630.0</ele><time>2026-04-19T10:44:16Z</time></trkpt><trkpt lat="42.89359376278933" lon="11.879764004507313"><ele>630.0</ele><time>2026-04-19T10:44:17Z</time></trkpt><trkpt lat="42.8935190368431" lon="11.879777236783717"><ele>630.0</ele><time>2026-04-19T10:44:18Z</time></trkpt><trkpt lat="42.89342935961764" lon="11.879780259365806"><ele>630.0</ele><time>2026-04-19T10:44:19Z</time></trkpt><trkpt lat="42.8933345618106" lon="11.879758078462368"><ele>630.0</ele><time>2026-04-19T10:44:20Z</time></trkpt><trkpt lat="42.89323010500346" lon="11.879719344626036"><ele>630.0</ele><time>2026-04-19T10:44:21Z</time></trkpt><trkpt lat="42.89314092806222" lon="11.879687677107224"><ele>630.0</ele><time>2026-04-19T10:44:22Z</time></trkpt><trkpt lat="42.89307424068671" lon="11.879657056036239"><ele>630.0</ele><time>2026-04-19T10:44:23Z</time></trkpt><trkpt lat="42.89294121253328" lon="11.879554945033082"><ele>630.0</ele><time>2026-04-19T10:44:25Z</time></trkpt><trkpt lat="42.89287014954716" lon="11.879476493212366"><ele>630.0</ele><time>2026-04-19T10:44:26Z</time></trkpt><trkpt lat="42.89280861747321" lon="11.879405629881935"><ele>630.0</ele><time>2026-04-19T10:44:27Z</time></trkpt><trkpt lat="42.8927476808488" lon="11.879343472259597"><ele>630.0</ele><time>2026-04-19T10:44:28Z</time></trkpt><trkpt lat="42.89268723627785" lon="11.879284012097513"><ele>630.0</ele><time>2026-04-19T10:44:29Z</time></trkpt><trkpt lat="42.89261617159778" lon="11.879230055065998"><ele>630.0</ele><time>2026-04-19T10:44:30Z</time></trkpt><trkpt lat="42.892530452275984" lon="11.879181485430548"><ele>630.0</ele><time>2026-04-19T10:44:31Z</time></trkpt><trkpt lat="42.8924598631936" lon="11.87913643020349"><ele>630.0</ele><time>2026-04-19T10:44:32Z</time></trkpt><trkpt lat="42.892395276857286" lon="11.879080874233106"><ele>628.3333333333334</ele><time>2026-04-19T10:44:33Z</time></trkpt><trkpt lat="42.89231563616214" lon="11.879021490941682"><ele>626.6666666666666</ele><time>2026-04-19T10:44:34Z</time></trkpt><trkpt lat="42.89223016027005" lon="11.87895722667629"><ele>625.0</ele><time>2026-04-19T10:44:35Z</time></trkpt><trkpt lat="42.89216150101312" lon="11.878888939830265"><ele>623.3333333333333</ele><time>2026-04-19T10:44:36Z</time></trkpt><trkpt lat="42.892103779287496" lon="11.878799595809378"><ele>621.6666666666666</ele><time>2026-04-19T10:44:37Z</time></trkpt><trkpt lat="42.89205207352922" lon="11.878706741790204"><ele>620.0</ele><time>2026-04-19T10:44:38Z</time></trkpt><trkpt lat="42.89199864235989" lon="11.878640178496441"><ele>620.0</ele><time>2026-04-19T10:44:39Z</time></trkpt><trkpt lat="42.89193715263576" lon="11.87859165621098"><ele>620.0</ele><time>2026-04-19T10:44:40Z</time></trkpt><trkpt lat="42.89184927350564" lon="11.87854456496455"><ele>620.0</ele><time>2026-04-19T10:44:41Z</time></trkpt><trkpt lat="42.891743670812545" lon="11.878515329760978"><ele>620.0</ele><time>2026-04-19T10:44:42Z</time></trkpt><trkpt lat="42.89164486367558" lon="11.878501464056933"><ele>620.0</ele><time>2026-04-19T10:44:43Z</time></trkpt><trkpt lat="42.89152869569291" lon="11.878525666360696"><ele>616.4</ele><time>2026-04-19T10:44:44Z</time></trkpt><trkpt lat="42.8914146117038" lon="11.878555904262877"><ele>612.8</ele><time>2026-04-19T10:44:45Z</time></trkpt><trkpt lat="42.89132229788422" lon="11.87857414137607"><ele>609.2</ele><time>2026-04-19T10:44:46Z</time></trkpt><trkpt lat="42.89122798753835" lon="11.878576081479448"><ele>605.6</ele><time>2026-04-19T10:44:47Z</time></trkpt><trkpt lat="42.89113623606477" lon="11.878555083737824"><ele>602.0</ele><time>2026-04-19T10:44:48Z</time></trkpt><trkpt lat="42.891053045806544" lon="11.87851455537089"><ele>602.0</ele><time>2026-04-19T10:44:49Z</time></trkpt><trkpt lat="42.890963111848485" lon="11.87847459498685"><ele>602.0</ele><time>2026-04-19T10:44:50Z</time></trkpt><trkpt lat="42.890865963756056" lon="11.87846719337097"><ele>602.0</ele><time>2026-04-19T10:44:51Z</time></trkpt><trkpt lat="42.89076542933805" lon="11.878498814470415"><ele>602.0</ele><time>2026-04-19T10:44:52Z</time></trkpt><trkpt lat="42.89067212255088" lon="11.878570315390096"><ele>602.0</ele><time>2026-04-19T10:44:53Z</time></trkpt><trkpt lat="42.89056588299987" lon="11.878614209986678"><ele>602.0</ele><time>2026-04-19T10:44:54Z</time></trkpt><trkpt lat="42.89047091311929" lon="11.878608913898034"><ele>602.0</ele><time>2026-04-19T10:44:55Z</time></trkpt><trkpt lat="42.89036642285859" lon="11.878572691871392"><ele>602.0</ele><time>2026-04-19T10:44:56Z</time></trkpt><trkpt lat="42.89024512890227" lon="11.87853856327105"><ele>602.0</ele><time>2026-04-19T10:44:57Z</time></trkpt><trkpt lat="42.89011580181492" lon="11.878512395814736"><ele>603.5</ele><time>2026-04-19T10:44:58Z</time></trkpt><trkpt lat="42.889982116543074" lon="11.878518142831581"><ele>605.0</ele><time>2026-04-19T10:44:59Z</time></trkpt><trkpt lat="42.88984977767136" lon="11.878529348005669"><ele>606.5</ele><time>2026-04-19T10:45:00Z</time></trkpt><trkpt lat="42.889702012437965" lon="11.878521658506124"><ele>608.0</ele><time>2026-04-19T10:45:01Z</time></trkpt><trkpt lat="42.88958328566423" lon="11.87851590202445"><ele>608.0</ele><time>2026-04-19T10:45:02Z</time></trkpt><trkpt lat="42.88947718652443" lon="11.878511909264397"><ele>608.0</ele><time>2026-04-19T10:45:03Z</time></trkpt><trkpt lat="42.88935901798752" lon="11.878509756755571"><ele>608.0</ele><time>2026-04-19T10:45:04Z</time></trkpt><trkpt lat="42.889251633617846" lon="11.878489323264857"><ele>608.0</ele><time>2026-04-19T10:45:05Z</time></trkpt><trkpt lat="42.88915224886759" lon="11.878451014739198"><ele>608.0</ele><time>2026-04-19T10:45:06Z</time></trkpt><trkpt lat="42.889050668560195" lon="11.87843291919421"><ele>609.4</ele><time>2026-04-19T10:45:07Z</time></trkpt><trkpt lat="42.888952995252296" lon="11.87846688263028"><ele>610.8</ele><time>2026-04-19T10:45:08Z</time></trkpt><trkpt lat="42.888826488216345" lon="11.878484832531361"><ele>612.2</ele><time>2026-04-19T10:45:09Z</time></trkpt><trkpt lat="42.88871967170216" lon="11.878460420592155"><ele>613.6</ele><time>2026-04-19T10:45:10Z</time></trkpt><trkpt lat="42.88861163997617" lon="11.878446802131391"><ele>615.0</ele><time>2026-04-19T10:45:11Z</time></trkpt><trkpt lat="42.888474344372135" lon="11.878479941164864"><ele>615.2</ele><time>2026-04-19T10:45:12Z</time></trkpt><trkpt lat="42.888320406616764" lon="11.87856177957098"><ele>615.4</ele><time>2026-04-19T10:45:13Z</time></trkpt><trkpt lat="42.88819686417351" lon="11.878614785737637"><ele>615.6</ele><time>2026-04-19T10:45:14Z</time></trkpt><trkpt lat="42.88811977523893" lon="11.878637803252566"><ele>615.8</ele><time>2026-04-19T10:45:15Z</time></trkpt><trkpt lat="42.88804855447273" lon="11.878643074711341"><ele>616.0</ele><time>2026-04-19T10:45:16Z</time></trkpt><trkpt lat="42.88797334160997" lon="11.87862097874611"><ele>616.0</ele><time>2026-04-19T10:45:17Z</time></trkpt><trkpt lat="42.88787932796564" lon="11.878574312701978"><ele>616.0</ele><time>2026-04-19T10:45:18Z</time></trkpt><trkpt lat="42.88776183852623" lon="11.87852259261315"><ele>616.0</ele><time>2026-04-19T10:45:19Z</time></trkpt><trkpt lat="42.887655666332506" lon="11.87849323994459"><ele>616.0</ele><time>2026-04-19T10:45:20Z</time></trkpt><trkpt lat="42.88753127189612" lon="11.878487561008106"><ele>615.6666666666667</ele><time>2026-04-19T10:45:21Z</time></trkpt><trkpt lat="42.88739894193649" lon="11.878506340929937"><ele>615.3333333333334</ele><time>2026-04-19T10:45:22Z</time></trkpt><trkpt lat="42.8872472851545" lon="11.87855666028642"><ele>615.0</ele><time>2026-04-19T10:45:23Z</time></trkpt><trkpt lat="42.88706888629665" lon="11.878632399838825"><ele>615.0</ele><time>2026-04-19T10:45:24Z</time></trkpt><trkpt lat="42.886900293444974" lon="11.87868141972681"><ele>615.0</ele><time>2026-04-19T10:45:25Z</time></trkpt><trkpt lat="42.88675069575505" lon="11.87871146843129"><ele>615.0</ele><time>2026-04-19T10:45:26Z</time></trkpt><trkpt lat="42.88659814734101" lon="11.878758448228352"><ele>616.5</ele><time>2026-04-19T10:45:27Z</time></trkpt><trkpt lat="42.886453414852774" lon="11.878810674467388"><ele>618.0</ele><time>2026-04-19T10:45:28Z</time></trkpt><trkpt lat="42.886315599516365" lon="11.878868179949537"><ele>619.5</ele><time>2026-04-19T10:45:29Z</time></trkpt><trkpt lat="42.886171832273625" lon="11.87892646452132"><ele>621.0</ele><time>2026-04-19T10:45:30Z</time></trkpt><trkpt lat="42.88605408041442" lon="11.878961631178132"><ele>621.0</ele><time>2026-04-19T10:45:31Z</time></trkpt><trkpt lat="42.885951665973124" lon="11.879002419611776"><ele>621.0</ele><time>2026-04-19T10:45:32Z</time></trkpt><trkpt lat="42.88586041775737" lon="11.8790478642016"><ele>621.0</ele><time>2026-04-19T10:45:33Z</time></trkpt><trkpt lat="42.885757409864894" lon="11.879110173495976"><ele>621.0</ele><time>2026-04-19T10:45:34Z</time></trkpt><trkpt lat="42.88567541575258" lon="11.879186660188052"><ele>621.0</ele><time>2026-04-19T10:45:35Z</time></trkpt><trkpt lat="42.885613867647386" lon="11.879257302149577"><ele>621.0</ele><time>2026-04-19T10:45:36Z</time></trkpt><trkpt lat="42.885547594821205" lon="11.87931020985455"><ele>621.0</ele><time>2026-04-19T10:45:37Z</time></trkpt><trkpt lat="42.885469867454795" lon="11.879338095361442"><ele>621.0</ele><time>2026-04-19T10:45:38Z</time></trkpt><trkpt lat="42.885379370104644" lon="11.879355688681798"><ele>621.0</ele><time>2026-04-19T10:45:39Z</time></trkpt><trkpt lat="42.88529480064563" lon="11.879325319265172"><ele>621.0</ele><time>2026-04-19T10:45:40Z</time></trkpt><trkpt lat="42.88520148463777" lon="11.879324094420408"><ele>621.0</ele><time>2026-04-19T10:45:41Z</time></trkpt><trkpt lat="42.88509097364151" lon="11.87928889299863"><ele>623.75</ele><time>2026-04-19T10:45:42Z</time></trkpt><trkpt lat="42.88498087882403" lon="11.8792255726781"><ele>626.5</ele><time>2026-04-19T10:45:43Z</time></trkpt><trkpt lat="42.884847344935885" lon="11.87917201387855"><ele>629.25</ele><time>2026-04-19T10:45:44Z</time></trkpt><trkpt lat="42.88470485370265" lon="11.879152784153552"><ele>632.0</ele><time>2026-04-19T10:45:45Z</time></trkpt><trkpt lat="42.8845435455748" lon="11.879165963405873"><ele>632.0</ele><time>2026-04-19T10:45:46Z</time></trkpt><trkpt lat="42.884354293251214" lon="11.879160481601659"><ele>632.0</ele><time>2026-04-19T10:45:47Z</time></trkpt><trkpt lat="42.88416998877671" lon="11.879140098257336"><ele>632.0</ele><time>2026-04-19T10:45:48Z</time></trkpt><trkpt lat="42.88401301724079" lon="11.879135400262518"><ele>630.5</ele><time>2026-04-19T10:45:49Z</time></trkpt><trkpt lat="42.88387341289155" lon="11.879127077751464"><ele>629.0</ele><time>2026-04-19T10:45:50Z</time></trkpt><trkpt lat="42.88374556678892" lon="11.879120050349446"><ele>627.5</ele><time>2026-04-19T10:45:51Z</time></trkpt><trkpt lat="42.88362852365928" lon="11.879112645279221"><ele>626.0</ele><time>2026-04-19T10:45:52Z</time></trkpt><trkpt lat="42.88352864508171" lon="11.879099508912374"><ele>626.0</ele><time>2026-04-19T10:45:53Z</time></trkpt><trkpt lat="42.883448056831135" lon="11.879080511277188"><ele>626.0</ele><time>2026-04-19T10:45:54Z</time></trkpt><trkpt lat="42.88338333056709" lon="11.879050523806413"><ele>626.0</ele><time>2026-04-19T10:45:55Z</time></trkpt><trkpt lat="42.88330538554153" lon="11.878994964911785"><ele>626.0</ele><time>2026-04-19T10:45:57Z</time></trkpt><trkpt lat="42.88329343663171" lon="11.878897746115086"><ele>626.0</ele><time>2026-04-19T10:45:59Z</time></trkpt><trkpt lat="42.883243301413565" lon="11.878691727414214"><ele>626.3333333333333</ele><time>2026-04-19T10:46:01Z</time></trkpt><trkpt lat="42.883214302311856" lon="11.878582462802086"><ele>626.6666666666666</ele><time>2026-04-19T10:46:02Z</time></trkpt><trkpt lat="42.88317833787091" lon="11.878491479484145"><ele>627.0</ele><time>2026-04-19T10:46:03Z</time></trkpt><trkpt lat="42.88312566999931" lon="11.878415115307563"><ele>627.3333333333334</ele><time>2026-04-19T10:46:04Z</time></trkpt><trkpt lat="42.88304682269949" lon="11.878353062942313"><ele>627.6666666666667</ele><time>2026-04-19T10:46:05Z</time></trkpt><trkpt lat="42.88294287194975" lon="11.87833612887997"><ele>628.0</ele><time>2026-04-19T10:46:06Z</time></trkpt><trkpt lat="42.882839304944156" lon="11.878307608982306"><ele>628.0</ele><time>2026-04-19T10:46:07Z</time></trkpt><trkpt lat="42.88272667150547" lon="11.878298280715144"><ele>628.0</ele><time>2026-04-19T10:46:08Z</time></trkpt><trkpt lat="42.88260503024544" lon="11.87831388586553"><ele>628.0</ele><time>2026-04-19T10:46:09Z</time></trkpt><trkpt lat="42.8824779400429" lon="11.878319627167356"><ele>628.0</ele><time>2026-04-19T10:46:10Z</time></trkpt><trkpt lat="42.882345646182415" lon="11.87837131568711"><ele>626.5</ele><time>2026-04-19T10:46:11Z</time></trkpt><trkpt lat="42.88221057593026" lon="11.878397194392766"><ele>625.0</ele><time>2026-04-19T10:46:12Z</time></trkpt><trkpt lat="42.882080429203086" lon="11.878460464476788"><ele>623.5</ele><time>2026-04-19T10:46:13Z</time></trkpt><trkpt lat="42.881933349171035" lon="11.878489482144383"><ele>622.0</ele><time>2026-04-19T10:46:14Z</time></trkpt><trkpt lat="42.881797820472684" lon="11.878528644503364"><ele>619.8000000000001</ele><time>2026-04-19T10:46:15Z</time></trkpt><trkpt lat="42.88166955537042" lon="11.87854277314165"><ele>617.6</ele><time>2026-04-19T10:46:16Z</time></trkpt><trkpt lat="42.88155638051157" lon="11.878553455729898"><ele>615.4000000000001</ele><time>2026-04-19T10:46:17Z</time></trkpt><trkpt lat="42.88145911332697" lon="11.878582091858785"><ele>613.2</ele><time>2026-04-19T10:46:18Z</time></trkpt><trkpt lat="42.8813679753311" lon="11.878568179135952"><ele>611.0</ele><time>2026-04-19T10:46:19Z</time></trkpt><trkpt lat="42.88128825665481" lon="11.878525289171582"><ele>611.0</ele><time>2026-04-19T10:46:20Z</time></trkpt><trkpt lat="42.88122262997719" lon="11.878503125799194"><ele>611.0</ele><time>2026-04-19T10:46:21Z</time></trkpt><trkpt lat="42.88116252212778" lon="11.878474516642303"><ele>611.0</ele><time>2026-04-19T10:46:22Z</time></trkpt><trkpt lat="42.88108288133472" lon="11.878421310463118"><ele>611.0</ele><time>2026-04-19T10:46:23Z</time></trkpt><trkpt lat="42.881000828325725" lon="11.878332685258721"><ele>611.0</ele><time>2026-04-19T10:46:24Z</time></trkpt><trkpt lat="42.880921700715184" lon="11.878210433116655"><ele>611.0</ele><time>2026-04-19T10:46:25Z</time></trkpt><trkpt lat="42.88083680077547" lon="11.878152328570515"><ele>615.25</ele><time>2026-04-19T10:46:26Z</time></trkpt><trkpt lat="42.88073605598946" lon="11.87813748322647"><ele>619.5</ele><time>2026-04-19T10:46:27Z</time></trkpt><trkpt lat="42.88062172245042" lon="11.87810416728202"><ele>623.75</ele><time>2026-04-19T10:46:28Z</time></trkpt><trkpt lat="42.88048342083269" lon="11.878077414465777"><ele>628.0</ele><time>2026-04-19T10:46:29Z</time></trkpt><trkpt lat="42.880337537173105" lon="11.878015942965822"><ele>628.0</ele><time>2026-04-19T10:46:30Z</time></trkpt><trkpt lat="42.880213661108236" lon="11.877972298366107"><ele>628.0</ele><time>2026-04-19T10:46:31Z</time></trkpt><trkpt lat="42.88010756773063" lon="11.877931299899004"><ele>628.0</ele><time>2026-04-19T10:46:32Z</time></trkpt><trkpt lat="42.880011350511346" lon="11.877884252778424"><ele>628.0</ele><time>2026-04-19T10:46:33.001Z</time></trkpt><trkpt lat="42.879922114242596" lon="11.877834308934009"><ele>628.0</ele><time>2026-04-19T10:46:34.001Z</time></trkpt><trkpt lat="42.87980329736242" lon="11.877779708067283"><ele>628.75</ele><time>2026-04-19T10:46:35.001Z</time></trkpt><trkpt lat="42.87967364357959" lon="11.877685827095364"><ele>629.5</ele><time>2026-04-19T10:46:36.001Z</time></trkpt><trkpt lat="42.879556993738476" lon="11.87757844324677"><ele>630.25</ele><time>2026-04-19T10:46:37.001Z</time></trkpt><trkpt lat="42.87944453522401" lon="11.877519057010403"><ele>631.0</ele><time>2026-04-19T10:46:38.001Z</time></trkpt><trkpt lat="42.879355045961866" lon="11.877447377114315"><ele>629.2</ele><time>2026-04-19T10:46:39.001Z</time></trkpt><trkpt lat="42.87926464787703" lon="11.877382758654848"><ele>627.4000000000001</ele><time>2026-04-19T10:46:40Z</time></trkpt><trkpt lat="42.879166708369496" lon="11.87730281895266"><ele>625.6</ele><time>2026-04-19T10:46:41Z</time></trkpt><trkpt lat="42.879070407575824" lon="11.877247323218493"><ele>623.8000000000001</ele><time>2026-04-19T10:46:42Z</time></trkpt><trkpt lat="42.87898564531865" lon="11.87719758817796"><ele>622.0</ele><time>2026-04-19T10:46:43Z</time></trkpt><trkpt lat="42.87890367289478" lon="11.877159436446316"><ele>622.0</ele><time>2026-04-19T10:46:44Z</time></trkpt><trkpt lat="42.87883456900476" lon="11.877111286129457"><ele>622.0</ele><time>2026-04-19T10:46:45Z</time></trkpt><trkpt lat="42.878782050072466" lon="11.877026546949937"><ele>622.0</ele><time>2026-04-19T10:46:46Z</time></trkpt><trkpt lat="42.87871859202286" lon="11.87693794733685"><ele>622.0</ele><time>2026-04-19T10:46:47Z</time></trkpt><trkpt lat="42.878650080251354" lon="11.876811007484871"><ele>622.0</ele><time>2026-04-19T10:46:48Z</time></trkpt><trkpt lat="42.878601481206985" lon="11.876675832202368"><ele>621.6666666666667</ele><time>2026-04-19T10:46:49Z</time></trkpt><trkpt lat="42.87856550359771" lon="11.876571402028667"><ele>621.3333333333334</ele><time>2026-04-19T10:46:50Z</time></trkpt><trkpt lat="42.878529968301365" lon="11.87648392610265"><ele>621.0</ele><time>2026-04-19T10:46:51Z</time></trkpt><trkpt lat="42.87847966518932" lon="11.876419291027995"><ele>620.6666666666666</ele><time>2026-04-19T10:46:52Z</time></trkpt><trkpt lat="42.87842056954152" lon="11.876350120220291"><ele>620.3333333333333</ele><time>2026-04-19T10:46:53Z</time></trkpt><trkpt lat="42.878334720768805" lon="11.87624664563706"><ele>620.0</ele><time>2026-04-19T10:46:54Z</time></trkpt><trkpt lat="42.87822763023236" lon="11.876163033686524"><ele>618.75</ele><time>2026-04-19T10:46:55Z</time></trkpt><trkpt lat="42.878126157057075" lon="11.876091419219799"><ele>617.5</ele><time>2026-04-19T10:46:56Z</time></trkpt><trkpt lat="42.87801699005376" lon="11.876045125524048"><ele>616.25</ele><time>2026-04-19T10:46:57Z</time></trkpt><trkpt lat="42.87789225858936" lon="11.875980272957564"><ele>615.0</ele><time>2026-04-19T10:46:58Z</time></trkpt><trkpt lat="42.87775710135472" lon="11.875917641660667"><ele>613.5</ele><time>2026-04-19T10:46:59Z</time></trkpt><trkpt lat="42.87761156295827" lon="11.875880850490118"><ele>612.0</ele><time>2026-04-19T10:47:00Z</time></trkpt><trkpt lat="42.87749132154272" lon="11.875836265298794"><ele>610.5</ele><time>2026-04-19T10:47:01Z</time></trkpt><trkpt lat="42.877379811568964" lon="11.875826683364146"><ele>609.0</ele><time>2026-04-19T10:47:02Z</time></trkpt><trkpt lat="42.87728475594668" lon="11.875795842470206"><ele>607.2</ele><time>2026-04-19T10:47:03Z</time></trkpt><trkpt lat="42.87721006612107" lon="11.875777209381432"><ele>605.4</ele><time>2026-04-19T10:47:04Z</time></trkpt><trkpt lat="42.87709782700834" lon="11.875699255518908"><ele>603.6</ele><time>2026-04-19T10:47:06Z</time></trkpt><trkpt lat="42.87699642953938" lon="11.875698832127915"><ele>601.8</ele><time>2026-04-19T10:47:07Z</time></trkpt><trkpt lat="42.87688077601815" lon="11.875686484414903"><ele>600.0</ele><time>2026-04-19T10:47:08Z</time></trkpt><trkpt lat="42.87675331116754" lon="11.87565713552648"><ele>598.3333333333334</ele><time>2026-04-19T10:47:09Z</time></trkpt><trkpt lat="42.87660551141507" lon="11.875592119278606"><ele>596.6666666666667</ele><time>2026-04-19T10:47:10Z</time></trkpt><trkpt lat="42.87643398754451" lon="11.875536069622568"><ele>595.0</ele><time>2026-04-19T10:47:11Z</time></trkpt><trkpt lat="42.87625824596927" lon="11.875489138767866"><ele>595.0</ele><time>2026-04-19T10:47:12Z</time></trkpt><trkpt lat="42.876096058120204" lon="11.875445095220197"><ele>595.0</ele><time>2026-04-19T10:47:13Z</time></trkpt><trkpt lat="42.875941464320114" lon="11.875402180190227"><ele>595.0</ele><time>2026-04-19T10:47:14Z</time></trkpt><trkpt lat="42.875793592431" lon="11.875364850275055"><ele>593.5</ele><time>2026-04-19T10:47:15Z</time></trkpt><trkpt lat="42.8756482712896" lon="11.87534300113912"><ele>592.0</ele><time>2026-04-19T10:47:16Z</time></trkpt><trkpt lat="42.87550501444582" lon="11.875339160659893"><ele>590.5</ele><time>2026-04-19T10:47:17Z</time></trkpt><trkpt lat="42.875361181772774" lon="11.875354877779463"><ele>589.0</ele><time>2026-04-19T10:47:18Z</time></trkpt><trkpt lat="42.87521857331642" lon="11.875386257930094"><ele>588.0</ele><time>2026-04-19T10:47:19Z</time></trkpt><trkpt lat="42.875079871289905" lon="11.875408931542577"><ele>587.0</ele><time>2026-04-19T10:47:20Z</time></trkpt><trkpt lat="42.87494640736696" lon="11.875451533310523"><ele>586.0</ele><time>2026-04-19T10:47:21Z</time></trkpt><trkpt lat="42.87482232794978" lon="11.875519418054434"><ele>585.0</ele><time>2026-04-19T10:47:22Z</time></trkpt><trkpt lat="42.87471726210787" lon="11.875626955548995"><ele>585.0</ele><time>2026-04-19T10:47:23Z</time></trkpt><trkpt lat="42.874627376725556" lon="11.875761232404907"><ele>585.0</ele><time>2026-04-19T10:47:24Z</time></trkpt><trkpt lat="42.874532567841136" lon="11.875870408647245"><ele>585.0</ele><time>2026-04-19T10:47:25Z</time></trkpt><trkpt lat="42.87441148087101" lon="11.875935698179207"><ele>585.0</ele><time>2026-04-19T10:47:26Z</time></trkpt><trkpt lat="42.874269334382575" lon="11.87589146450461"><ele>583.5</ele><time>2026-04-19T10:47:27Z</time></trkpt><trkpt lat="42.87412144357778" lon="11.875848393062686"><ele>582.0</ele><time>2026-04-19T10:47:28Z</time></trkpt><trkpt lat="42.87399163083218" lon="11.875802902538599"><ele>580.5</ele><time>2026-04-19T10:47:29Z</time></trkpt><trkpt lat="42.87386565752427" lon="11.875778953714459"><ele>579.0</ele><time>2026-04-19T10:47:30Z</time></trkpt><trkpt lat="42.87376630240097" lon="11.875768537277011"><ele>579.0</ele><time>2026-04-19T10:47:31Z</time></trkpt><trkpt lat="42.873692787804416" lon="11.875759815566571"><ele>579.0</ele><time>2026-04-19T10:47:32Z</time></trkpt><trkpt lat="42.87361662269184" lon="11.87571548251486"><ele>579.0</ele><time>2026-04-19T10:47:34Z</time></trkpt><trkpt lat="42.87367660607323" lon="11.875543974482609"><ele>579.0</ele><time>2026-04-19T10:47:37Z</time></trkpt><trkpt lat="42.87371376627935" lon="11.875424570239225"><ele>579.0</ele><time>2026-04-19T10:47:38Z</time></trkpt><trkpt lat="42.873777724780844" lon="11.875294009389123"><ele>579.0</ele><time>2026-04-19T10:47:39Z</time></trkpt><trkpt lat="42.873846476197464" lon="11.875121931542864"><ele>579.0</ele><time>2026-04-19T10:47:40Z</time></trkpt><trkpt lat="42.87391217009763" lon="11.874936563638357"><ele>579.0</ele><time>2026-04-19T10:47:41Z</time></trkpt><trkpt lat="42.873982918799896" lon="11.87471889318037"><ele>574.6666666666666</ele><time>2026-04-19T10:47:42Z</time></trkpt><trkpt lat="42.87405570749169" lon="11.87447868550491"><ele>570.3333333333333</ele><time>2026-04-19T10:47:43Z</time></trkpt><trkpt lat="42.87413088422494" lon="11.87424206841971"><ele>566.0</ele><time>2026-04-19T10:47:44Z</time></trkpt><trkpt lat="42.87420134020266" lon="11.873999458441132"><ele>564.3333333333333</ele><time>2026-04-19T10:47:45Z</time></trkpt><trkpt lat="42.8742450468978" lon="11.873737700504785"><ele>562.6666666666666</ele><time>2026-04-19T10:47:46Z</time></trkpt><trkpt lat="42.874249280220624" lon="11.873483550562618"><ele>561.0</ele><time>2026-04-19T10:47:47Z</time></trkpt><trkpt lat="42.87421178050494" lon="11.87323684449898"><ele>561.0</ele><time>2026-04-19T10:47:48Z</time></trkpt><trkpt lat="42.874160004597805" lon="11.873003313190779"><ele>561.0</ele><time>2026-04-19T10:47:49Z</time></trkpt><trkpt lat="42.874089224282336" lon="11.87277096986352"><ele>561.0</ele><time>2026-04-19T10:47:50Z</time></trkpt><trkpt lat="42.874009500382336" lon="11.872544861185292"><ele>563.3333333333334</ele><time>2026-04-19T10:47:51Z</time></trkpt><trkpt lat="42.87395485665867" lon="11.872304818299073"><ele>565.6666666666667</ele><time>2026-04-19T10:47:52Z</time></trkpt><trkpt lat="42.87391032200791" lon="11.872046535980232"><ele>568.0</ele><time>2026-04-19T10:47:53Z</time></trkpt><trkpt lat="42.873883855160294" lon="11.87175230737261"><ele>570.0</ele><time>2026-04-19T10:47:54Z</time></trkpt><trkpt lat="42.8738630526485" lon="11.871437493509763"><ele>572.0</ele><time>2026-04-19T10:47:55Z</time></trkpt><trkpt lat="42.87382621918969" lon="11.871132020838688"><ele>574.5</ele><time>2026-04-19T10:47:56Z</time></trkpt><trkpt lat="42.873812834297425" lon="11.870822397368842"><ele>577.0</ele><time>2026-04-19T10:47:57Z</time></trkpt><trkpt lat="42.87379362261133" lon="11.870517098017675"><ele>577.0</ele><time>2026-04-19T10:47:58Z</time></trkpt><trkpt lat="42.87377596006949" lon="11.870226219708519"><ele>577.0</ele><time>2026-04-19T10:47:59Z</time></trkpt><trkpt lat="42.873748643652306" lon="11.869938909989795"><ele>577.0</ele><time>2026-04-19T10:48:00Z</time></trkpt><trkpt lat="42.873692336977385" lon="11.869651599571624"><ele>575.5</ele><time>2026-04-19T10:48:01Z</time></trkpt><trkpt lat="42.87360071715601" lon="11.869373350012928"><ele>574.0</ele><time>2026-04-19T10:48:02Z</time></trkpt><trkpt lat="42.87346732344103" lon="11.869108856767701"><ele>572.3333333333334</ele><time>2026-04-19T10:48:03Z</time></trkpt><trkpt lat="42.87332744157792" lon="11.86886690210579"><ele>570.6666666666666</ele><time>2026-04-19T10:48:04Z</time></trkpt><trkpt lat="42.87320107176349" lon="11.868642304230335"><ele>569.0</ele><time>2026-04-19T10:48:05Z</time></trkpt><trkpt lat="42.87310010568784" lon="11.86842204525279"><ele>569.0</ele><time>2026-04-19T10:48:06Z</time></trkpt><trkpt lat="42.87303101616454" lon="11.868194480215767"><ele>569.0</ele><time>2026-04-19T10:48:07Z</time></trkpt><trkpt lat="42.87299678885261" lon="11.867939312694144"><ele>569.0</ele><time>2026-04-19T10:48:08Z</time></trkpt><trkpt lat="42.87301561096489" lon="11.867654531041135"><ele>568.3333333333333</ele><time>2026-04-19T10:48:09Z</time></trkpt><trkpt lat="42.87298896129516" lon="11.867358109242364"><ele>567.6666666666666</ele><time>2026-04-19T10:48:10Z</time></trkpt><trkpt lat="42.87297245507981" lon="11.86708243556672"><ele>567.0</ele><time>2026-04-19T10:48:11Z</time></trkpt><trkpt lat="42.8729237059465" lon="11.8668243432467"><ele>566.0</ele><time>2026-04-19T10:48:12Z</time></trkpt><trkpt lat="42.87282646889919" lon="11.866598496365157"><ele>565.0</ele><time>2026-04-19T10:48:13Z</time></trkpt><trkpt lat="42.87267869107266" lon="11.866388416220282"><ele>564.0</ele><time>2026-04-19T10:48:14Z</time></trkpt><trkpt lat="42.87250224409893" lon="11.86619679349328"><ele>564.0</ele><time>2026-04-19T10:48:15Z</time></trkpt><trkpt lat="42.87233571586421" lon="11.86598587751561"><ele>564.0</ele><time>2026-04-19T10:48:16Z</time></trkpt><trkpt lat="42.872180734660084" lon="11.865777630826637"><ele>564.0</ele><time>2026-04-19T10:48:17Z</time></trkpt><trkpt lat="42.87204981524856" lon="11.865550544818309"><ele>565.0</ele><time>2026-04-19T10:48:18Z</time></trkpt><trkpt lat="42.87195357412866" lon="11.865290085917584"><ele>566.0</ele><time>2026-04-19T10:48:19Z</time></trkpt><trkpt lat="42.87187679661275" lon="11.864992059939246"><ele>567.0</ele><time>2026-04-19T10:48:20Z</time></trkpt><trkpt lat="42.87178132241002" lon="11.864691475442914"><ele>565.5</ele><time>2026-04-19T10:48:21Z</time></trkpt><trkpt lat="42.87167654092401" lon="11.864390595598667"><ele>564.0</ele><time>2026-04-19T10:48:22Z</time></trkpt><trkpt lat="42.87153297498092" lon="11.864097173904385"><ele>567.0</ele><time>2026-04-19T10:48:23Z</time></trkpt><trkpt lat="42.87136951638739" lon="11.863792492119494"><ele>570.0</ele><time>2026-04-19T10:48:24.001Z</time></trkpt><trkpt lat="42.871219851079815" lon="11.863495058164569"><ele>570.0</ele><time>2026-04-19T10:48:25.001Z</time></trkpt><trkpt lat="42.87109201042834" lon="11.863224150777414"><ele>570.0</ele><time>2026-04-19T10:48:26.001Z</time></trkpt><trkpt lat="42.870965754818286" lon="11.862973885383036"><ele>569.6666666666666</ele><time>2026-04-19T10:48:27.001Z</time></trkpt><trkpt lat="42.87081711717255" lon="11.862752170285392"><ele>569.3333333333333</ele><time>2026-04-19T10:48:28.001Z</time></trkpt><trkpt lat="42.87063304015236" lon="11.862578129913844"><ele>569.0</ele><time>2026-04-19T10:48:29.001Z</time></trkpt><trkpt lat="42.87042954719663" lon="11.86244869767535"><ele>569.3333333333333</ele><time>2026-04-19T10:48:30.001Z</time></trkpt><trkpt lat="42.87023857666228" lon="11.862347431486928"><ele>569.6666666666666</ele><time>2026-04-19T10:48:31.001Z</time></trkpt><trkpt lat="42.87006538161335" lon="11.862241868506697"><ele>570.0</ele><time>2026-04-19T10:48:32.001Z</time></trkpt><trkpt lat="42.86992332541431" lon="11.86207126189871"><ele>570.0</ele><time>2026-04-19T10:48:33.001Z</time></trkpt><trkpt lat="42.86975804957541" lon="11.861910901263185"><ele>570.0</ele><time>2026-04-19T10:48:34.001Z</time></trkpt><trkpt lat="42.86962523801947" lon="11.861686294970445"><ele>570.0</ele><time>2026-04-19T10:48:35.001Z</time></trkpt><trkpt lat="42.869505811742684" lon="11.861447579747392"><ele>574.3333333333334</ele><time>2026-04-19T10:48:36.001Z</time></trkpt><trkpt lat="42.869413230387096" lon="11.861213814182221"><ele>578.6666666666667</ele><time>2026-04-19T10:48:37.001Z</time></trkpt><trkpt lat="42.86935537443882" lon="11.860988367137374"><ele>583.0</ele><time>2026-04-19T10:48:38.001Z</time></trkpt><trkpt lat="42.86931544544743" lon="11.860783482146292"><ele>583.0</ele><time>2026-04-19T10:48:39.001Z</time></trkpt><trkpt lat="42.86931948111386" lon="11.860570288844931"><ele>583.0</ele><time>2026-04-19T10:48:40.001Z</time></trkpt><trkpt lat="42.86936386485203" lon="11.860342658657663"><ele>583.0</ele><time>2026-04-19T10:48:41.001Z</time></trkpt><trkpt lat="42.869474986329294" lon="11.86011009086341"><ele>583.0</ele><time>2026-04-19T10:48:42.001Z</time></trkpt><trkpt lat="42.869598801885594" lon="11.859838080791603"><ele>583.0</ele><time>2026-04-19T10:48:43.001Z</time></trkpt><trkpt lat="42.86972432392066" lon="11.859528098306585"><ele>580.5</ele><time>2026-04-19T10:48:44.001Z</time></trkpt><trkpt lat="42.86988121910389" lon="11.85921384635723"><ele>578.0</ele><time>2026-04-19T10:48:45.001Z</time></trkpt><trkpt lat="42.87001826252082" lon="11.85891292992812"><ele>573.6666666666666</ele><time>2026-04-19T10:48:46Z</time></trkpt><trkpt lat="42.870132613399306" lon="11.85865052152569"><ele>569.3333333333334</ele><time>2026-04-19T10:48:47Z</time></trkpt><trkpt lat="42.87024047827791" lon="11.858403319849915"><ele>565.0</ele><time>2026-04-19T10:48:48Z</time></trkpt><trkpt lat="42.87032627677466" lon="11.858155061925213"><ele>565.0</ele><time>2026-04-19T10:48:49Z</time></trkpt><trkpt lat="42.87036573864345" lon="11.857894530121524"><ele>565.0</ele><time>2026-04-19T10:48:50Z</time></trkpt><trkpt lat="42.870372372740526" lon="11.857604766939073"><ele>565.0</ele><time>2026-04-19T10:48:51Z</time></trkpt><trkpt lat="42.87036527175101" lon="11.8573067953175"><ele>566.0</ele><time>2026-04-19T10:48:52Z</time></trkpt><trkpt lat="42.87036309047523" lon="11.857013920630765"><ele>567.0</ele><time>2026-04-19T10:48:53Z</time></trkpt><trkpt lat="42.870362779730165" lon="11.856729753685068"><ele>568.0</ele><time>2026-04-19T10:48:54Z</time></trkpt><trkpt lat="42.87034831648609" lon="11.856438628883845"><ele>568.3333333333334</ele><time>2026-04-19T10:48:55Z</time></trkpt><trkpt lat="42.870304604613956" lon="11.856154554826713"><ele>568.6666666666666</ele><time>2026-04-19T10:48:56Z</time></trkpt><trkpt lat="42.87022979433734" lon="11.855871762338072"><ele>569.0</ele><time>2026-04-19T10:48:57Z</time></trkpt><trkpt lat="42.87014396518921" lon="11.855611056091929"><ele>569.0</ele><time>2026-04-19T10:48:58Z</time></trkpt><trkpt lat="42.87006712858812" lon="11.855358360047784"><ele>569.0</ele><time>2026-04-19T10:48:59Z</time></trkpt><trkpt lat="42.87000983743218" lon="11.855096479569086"><ele>569.0</ele><time>2026-04-19T10:49:00Z</time></trkpt><trkpt lat="42.86997785032017" lon="11.85482363745841"><ele>569.6666666666666</ele><time>2026-04-19T10:49:01Z</time></trkpt><trkpt lat="42.86996679692329" lon="11.854549293515715"><ele>570.3333333333334</ele><time>2026-04-19T10:49:02Z</time></trkpt><trkpt lat="42.86997039661393" lon="11.854289241724628"><ele>571.0</ele><time>2026-04-19T10:49:03Z</time></trkpt><trkpt lat="42.86997509492945" lon="11.854042553028576"><ele>569.6666666666667</ele><time>2026-04-19T10:49:04Z</time></trkpt><trkpt lat="42.869962855370865" lon="11.853807072429081"><ele>568.3333333333334</ele><time>2026-04-19T10:49:05Z</time></trkpt><trkpt lat="42.86992549915082" lon="11.853577552714858"><ele>567.0</ele><time>2026-04-19T10:49:06Z</time></trkpt><trkpt lat="42.86985337988086" lon="11.853377954484252"><ele>565.3333333333334</ele><time>2026-04-19T10:49:07Z</time></trkpt><trkpt lat="42.86975599719474" lon="11.853208123220972"><ele>563.6666666666667</ele><time>2026-04-19T10:49:08Z</time></trkpt><trkpt lat="42.8696534869138" lon="11.85305535507998"><ele>562.0</ele><time>2026-04-19T10:49:09Z</time></trkpt><trkpt lat="42.869559832394685" lon="11.852909317506008"><ele>562.0</ele><time>2026-04-19T10:49:10Z</time></trkpt><trkpt lat="42.86948623076876" lon="11.852754235266636"><ele>562.0</ele><time>2026-04-19T10:49:11Z</time></trkpt><trkpt lat="42.86942504330697" lon="11.85258850584784"><ele>562.0</ele><time>2026-04-19T10:49:12Z</time></trkpt><trkpt lat="42.869386881092446" lon="11.852415073278806"><ele>562.0</ele><time>2026-04-19T10:49:13Z</time></trkpt><trkpt lat="42.869376505766574" lon="11.852241819953543"><ele>560.5</ele><time>2026-04-19T10:49:14Z</time></trkpt><trkpt lat="42.869387202423475" lon="11.852072609095703"><ele>559.0</ele><time>2026-04-19T10:49:15Z</time></trkpt><trkpt lat="42.869405065347124" lon="11.851896225430165"><ele>557.5</ele><time>2026-04-19T10:49:16Z</time></trkpt><trkpt lat="42.86943237943571" lon="11.851717718002188"><ele>556.0</ele><time>2026-04-19T10:49:17Z</time></trkpt><trkpt lat="42.869475290414975" lon="11.85154428240284"><ele>553.75</ele><time>2026-04-19T10:49:18Z</time></trkpt><trkpt lat="42.869526930840706" lon="11.851366015948003"><ele>551.5</ele><time>2026-04-19T10:49:19Z</time></trkpt><trkpt lat="42.86956878845553" lon="11.851177464230046"><ele>549.25</ele><time>2026-04-19T10:49:20Z</time></trkpt><trkpt lat="42.869606266352584" lon="11.850978615099377"><ele>547.0</ele><time>2026-04-19T10:49:21Z</time></trkpt><trkpt lat="42.869640731896766" lon="11.850777785187947"><ele>546.0</ele><time>2026-04-19T10:49:22Z</time></trkpt><trkpt lat="42.869668430970684" lon="11.850577228295887"><ele>545.0</ele><time>2026-04-19T10:49:23Z</time></trkpt><trkpt lat="42.86968353363396" lon="11.850369446092685"><ele>544.0</ele><time>2026-04-19T10:49:24Z</time></trkpt><trkpt lat="42.869689820482996" lon="11.850152085013098"><ele>544.3333333333334</ele><time>2026-04-19T10:49:25Z</time></trkpt><trkpt lat="42.869700892524406" lon="11.849926897022145"><ele>544.6666666666666</ele><time>2026-04-19T10:49:26Z</time></trkpt><trkpt lat="42.8697182602668" lon="11.849700982318984"><ele>545.0</ele><time>2026-04-19T10:49:27Z</time></trkpt><trkpt lat="42.869725206400325" lon="11.849469010905702"><ele>545.0</ele><time>2026-04-19T10:49:28Z</time></trkpt><trkpt lat="42.86969920062988" lon="11.849232817962738"><ele>545.0</ele><time>2026-04-19T10:49:29Z</time></trkpt><trkpt lat="42.86963772273952" lon="11.848993919277067"><ele>545.0</ele><time>2026-04-19T10:49:30Z</time></trkpt><trkpt lat="42.869551975726374" lon="11.848771108036981"><ele>545.0</ele><time>2026-04-19T10:49:31Z</time></trkpt><trkpt lat="42.86945068382343" lon="11.848570301364283"><ele>545.0</ele><time>2026-04-19T10:49:32Z</time></trkpt><trkpt lat="42.86933968399283" lon="11.848368876817508"><ele>545.0</ele><time>2026-04-19T10:49:33Z</time></trkpt><trkpt lat="42.869230536062986" lon="11.848167977024499"><ele>543.0</ele><time>2026-04-19T10:49:34Z</time></trkpt><trkpt lat="42.86912318531008" lon="11.84795820508677"><ele>541.0</ele><time>2026-04-19T10:49:35Z</time></trkpt><trkpt lat="42.869019374340134" lon="11.847751385510573"><ele>539.0</ele><time>2026-04-19T10:49:36Z</time></trkpt><trkpt lat="42.86891416626332" lon="11.847544918305863"><ele>539.0</ele><time>2026-04-19T10:49:37Z</time></trkpt><trkpt lat="42.868810493743425" lon="11.847348734217194"><ele>539.0</ele><time>2026-04-19T10:49:38Z</time></trkpt><trkpt lat="42.86871200906615" lon="11.847149686943355"><ele>539.0</ele><time>2026-04-19T10:49:39Z</time></trkpt><trkpt lat="42.868633833843816" lon="11.846934810913698"><ele>537.0</ele><time>2026-04-19T10:49:40Z</time></trkpt><trkpt lat="42.86857640548493" lon="11.846705186650837"><ele>535.0</ele><time>2026-04-19T10:49:41Z</time></trkpt><trkpt lat="42.86853889745275" lon="11.846461007258215"><ele>533.0</ele><time>2026-04-19T10:49:42Z</time></trkpt><trkpt lat="42.868507226243146" lon="11.846208573076309"><ele>530.3333333333333</ele><time>2026-04-19T10:49:43Z</time></trkpt><trkpt lat="42.868479423794454" lon="11.84594815396821"><ele>527.6666666666666</ele><time>2026-04-19T10:49:44Z</time></trkpt><trkpt lat="42.86845048566466" lon="11.845682995105994"><ele>525.0</ele><time>2026-04-19T10:49:45Z</time></trkpt><trkpt lat="42.868405649081765" lon="11.845427158564087"><ele>523.3333333333334</ele><time>2026-04-19T10:49:46Z</time></trkpt><trkpt lat="42.86832593109125" lon="11.845184568482727"><ele>521.6666666666667</ele><time>2026-04-19T10:49:47Z</time></trkpt><trkpt lat="42.86822171774455" lon="11.84496366371308"><ele>520.0</ele><time>2026-04-19T10:49:48Z</time></trkpt><trkpt lat="42.868118176724636" lon="11.844750085776989"><ele>519.3333333333334</ele><time>2026-04-19T10:49:49Z</time></trkpt><trkpt lat="42.86801892688562" lon="11.8445416397437"><ele>518.6666666666666</ele><time>2026-04-19T10:49:50Z</time></trkpt><trkpt lat="42.86790584769683" lon="11.844358580378294"><ele>518.0</ele><time>2026-04-19T10:49:51Z</time></trkpt><trkpt lat="42.8677711066538" lon="11.844201942312507"><ele>519.0</ele><time>2026-04-19T10:49:52Z</time></trkpt><trkpt lat="42.867625593597616" lon="11.844072123507496"><ele>520.0</ele><time>2026-04-19T10:49:53Z</time></trkpt><trkpt lat="42.86746856713988" lon="11.843964309844745"><ele>521.0</ele><time>2026-04-19T10:49:54Z</time></trkpt><trkpt lat="42.867297179836214" lon="11.843889465706027"><ele>521.0</ele><time>2026-04-19T10:49:55Z</time></trkpt><trkpt lat="42.8671190023025" lon="11.843855406565622"><ele>521.0</ele><time>2026-04-19T10:49:56Z</time></trkpt><trkpt lat="42.866947447580536" lon="11.843800880097891"><ele>521.0</ele><time>2026-04-19T10:49:57Z</time></trkpt><trkpt lat="42.86679756952824" lon="11.843735929143367"><ele>521.0</ele><time>2026-04-19T10:49:58Z</time></trkpt><trkpt lat="42.8666700399906" lon="11.843625769170744"><ele>521.0</ele><time>2026-04-19T10:49:59Z</time></trkpt><trkpt lat="42.86657522363522" lon="11.843468213498175"><ele>521.0</ele><time>2026-04-19T10:50:00Z</time></trkpt><trkpt lat="42.866514977038065" lon="11.843282432707353"><ele>521.0</ele><time>2026-04-19T10:50:01Z</time></trkpt><trkpt lat="42.866482879251244" lon="11.843075459468835"><ele>518.6666666666666</ele><time>2026-04-19T10:50:02Z</time></trkpt><trkpt lat="42.866483547410844" lon="11.8428545585648"><ele>516.3333333333334</ele><time>2026-04-19T10:50:03Z</time></trkpt><trkpt lat="42.866490790935714" lon="11.842619911246496"><ele>514.0</ele><time>2026-04-19T10:50:04Z</time></trkpt><trkpt lat="42.86648130762534" lon="11.842384493683099"><ele>510.6666666666667</ele><time>2026-04-19T10:50:05Z</time></trkpt><trkpt lat="42.866484448036076" lon="11.842143298970335"><ele>507.33333333333337</ele><time>2026-04-19T10:50:06Z</time></trkpt><trkpt lat="42.866477446140806" lon="11.841903996176356"><ele>504.0</ele><time>2026-04-19T10:50:07Z</time></trkpt><trkpt lat="42.86647824814649" lon="11.841676638821292"><ele>504.0</ele><time>2026-04-19T10:50:08Z</time></trkpt><trkpt lat="42.86645789189461" lon="11.841465745167174"><ele>504.0</ele><time>2026-04-19T10:50:09Z</time></trkpt><trkpt lat="42.86641945184615" lon="11.841274312954532"><ele>504.0</ele><time>2026-04-19T10:50:10Z</time></trkpt><trkpt lat="42.86639702471768" lon="11.841081597607356"><ele>504.0</ele><time>2026-04-19T10:50:11Z</time></trkpt><trkpt lat="42.86636371887388" lon="11.840887580805006"><ele>504.0</ele><time>2026-04-19T10:50:12Z</time></trkpt><trkpt lat="42.86631832125691" lon="11.840687213997043"><ele>504.0</ele><time>2026-04-19T10:50:13Z</time></trkpt><trkpt lat="42.86626257181758" lon="11.840474229588079"><ele>504.0</ele><time>2026-04-19T10:50:14Z</time></trkpt><trkpt lat="42.866206729496724" lon="11.840252433022927"><ele>505.33333333333337</ele><time>2026-04-19T10:50:15Z</time></trkpt><trkpt lat="42.86615065140151" lon="11.840012758163878"><ele>506.6666666666667</ele><time>2026-04-19T10:50:16Z</time></trkpt><trkpt lat="42.86609116155071" lon="11.839754068307872"><ele>508.0</ele><time>2026-04-19T10:50:17Z</time></trkpt><trkpt lat="42.86602414640357" lon="11.839477668020344"><ele>508.6666666666667</ele><time>2026-04-19T10:50:18Z</time></trkpt><trkpt lat="42.86595630460776" lon="11.839196268611563"><ele>509.33333333333337</ele><time>2026-04-19T10:50:19Z</time></trkpt><trkpt lat="42.865892510303105" lon="11.838916238184815"><ele>510.0</ele><time>2026-04-19T10:50:20Z</time></trkpt><trkpt lat="42.865835238115615" lon="11.838657408740433"><ele>513.3333333333334</ele><time>2026-04-19T10:50:21Z</time></trkpt><trkpt lat="42.865782255837885" lon="11.838423794442031"><ele>516.6666666666667</ele><time>2026-04-19T10:50:22Z</time></trkpt><trkpt lat="42.865731125401915" lon="11.838205895292935"><ele>520.0</ele><time>2026-04-19T10:50:23Z</time></trkpt><trkpt lat="42.86568016482391" lon="11.837996366766534"><ele>520.0</ele><time>2026-04-19T10:50:24Z</time></trkpt><trkpt lat="42.86564799254511" lon="11.837764205712068"><ele>520.0</ele><time>2026-04-19T10:50:25Z</time></trkpt><trkpt lat="42.865604087724705" lon="11.83752475104875"><ele>520.0</ele><time>2026-04-19T10:50:26Z</time></trkpt><trkpt lat="42.86556468232664" lon="11.837273569570154"><ele>521.0</ele><time>2026-04-19T10:50:27Z</time></trkpt><trkpt lat="42.86551672009156" lon="11.837016916709691"><ele>522.0</ele><time>2026-04-19T10:50:28.001Z</time></trkpt><trkpt lat="42.86549072150437" lon="11.836756336845689"><ele>523.0</ele><time>2026-04-19T10:50:29.001Z</time></trkpt><trkpt lat="42.865464055032" lon="11.836492275813645"><ele>523.0</ele><time>2026-04-19T10:50:30.001Z</time></trkpt><trkpt lat="42.86543398800428" lon="11.836222252706602"><ele>523.0</ele><time>2026-04-19T10:50:31.001Z</time></trkpt><trkpt lat="42.86540247385373" lon="11.835950141549466"><ele>523.0</ele><time>2026-04-19T10:50:32.001Z</time></trkpt><trkpt lat="42.86536933761525" lon="11.835672803298676"><ele>522.3333333333334</ele><time>2026-04-19T10:50:33.001Z</time></trkpt><trkpt lat="42.8653384903477" lon="11.835396375141906"><ele>521.6666666666666</ele><time>2026-04-19T10:50:34.001Z</time></trkpt><trkpt lat="42.86531200324084" lon="11.835133399807042"><ele>521.0</ele><time>2026-04-19T10:50:35.001Z</time></trkpt><trkpt lat="42.86528979748208" lon="11.834870445548663"><ele>520.0</ele><time>2026-04-19T10:50:36.001Z</time></trkpt><trkpt lat="42.8652661275333" lon="11.834601243766178"><ele>519.0</ele><time>2026-04-19T10:50:37.001Z</time></trkpt><trkpt lat="42.86523956401899" lon="11.834324207444878"><ele>518.0</ele><time>2026-04-19T10:50:38.001Z</time></trkpt><trkpt lat="42.865211310559864" lon="11.834049410924074"><ele>517.0</ele><time>2026-04-19T10:50:39.001Z</time></trkpt><trkpt lat="42.865182762011614" lon="11.833786224321745"><ele>516.0</ele><time>2026-04-19T10:50:40.001Z</time></trkpt><trkpt lat="42.865151768956835" lon="11.833533904672946"><ele>515.0</ele><time>2026-04-19T10:50:41.001Z</time></trkpt><trkpt lat="42.865104521217376" lon="11.833282179622419"><ele>512.0</ele><time>2026-04-19T10:50:42.001Z</time></trkpt><trkpt lat="42.86504034288635" lon="11.833041725693908"><ele>509.0</ele><time>2026-04-19T10:50:43.001Z</time></trkpt><trkpt lat="42.864980631557984" lon="11.832804183776725"><ele>506.0</ele><time>2026-04-19T10:50:44.001Z</time></trkpt><trkpt lat="42.86493291837505" lon="11.83257568640132"><ele>506.0</ele><time>2026-04-19T10:50:45.001Z</time></trkpt><trkpt lat="42.864885954824125" lon="11.832354956962"><ele>506.0</ele><time>2026-04-19T10:50:46.001Z</time></trkpt><trkpt lat="42.864836906622706" lon="11.832171427544555"><ele>506.0</ele><time>2026-04-19T10:50:47.001Z</time></trkpt><trkpt lat="42.864775713822965" lon="11.832019400882897"><ele>506.0</ele><time>2026-04-19T10:50:48.001Z</time></trkpt><trkpt lat="42.86469019261972" lon="11.831917619917787"><ele>506.0</ele><time>2026-04-19T10:50:49.001Z</time></trkpt><trkpt lat="42.864586291857655" lon="11.831894022282885"><ele>506.0</ele><time>2026-04-19T10:50:50.001Z</time></trkpt><trkpt lat="42.86448308718677" lon="11.831956951402418"><ele>506.0</ele><time>2026-04-19T10:50:51.001Z</time></trkpt><trkpt lat="42.86441102706934" lon="11.832076549611415"><ele>506.0</ele><time>2026-04-19T10:50:52Z</time></trkpt><trkpt lat="42.864391622551416" lon="11.832223802102684"><ele>506.0</ele><time>2026-04-19T10:50:53Z</time></trkpt><trkpt lat="42.86441917240435" lon="11.83238467960226"><ele>506.0</ele><time>2026-04-19T10:50:54Z</time></trkpt><trkpt lat="42.86446742439181" lon="11.832543939410293"><ele>506.0</ele><time>2026-04-19T10:50:55Z</time></trkpt><trkpt lat="42.86449292098503" lon="11.832681624813938"><ele>506.0</ele><time>2026-04-19T10:50:56Z</time></trkpt><trkpt lat="42.86446386262795" lon="11.832806294853006"><ele>506.0</ele><time>2026-04-19T10:50:57Z</time></trkpt><trkpt lat="42.8643881120148" lon="11.832900154201816"><ele>506.0</ele><time>2026-04-19T10:50:58Z</time></trkpt><trkpt lat="42.864284965915466" lon="11.832927182965264"><ele>502.25</ele><time>2026-04-19T10:50:59Z</time></trkpt><trkpt lat="42.864182201561384" lon="11.8328641792341"><ele>498.5</ele><time>2026-04-19T10:51:00Z</time></trkpt><trkpt lat="42.864102451385094" lon="11.832714979531593"><ele>494.75</ele><time>2026-04-19T10:51:01Z</time></trkpt><trkpt lat="42.86400845411129" lon="11.832563309464009"><ele>491.0</ele><time>2026-04-19T10:51:02Z</time></trkpt><trkpt lat="42.863901283087635" lon="11.832423998683268"><ele>491.0</ele><time>2026-04-19T10:51:03Z</time></trkpt><trkpt lat="42.86381762326253" lon="11.832286452775515"><ele>491.0</ele><time>2026-04-19T10:51:04Z</time></trkpt><trkpt lat="42.86373777135854" lon="11.832174907050527"><ele>491.0</ele><time>2026-04-19T10:51:05Z</time></trkpt><trkpt lat="42.86365857690498" lon="11.832078800880566"><ele>491.0</ele><time>2026-04-19T10:51:06Z</time></trkpt><trkpt lat="42.863574782105594" lon="11.832002008370214"><ele>491.0</ele><time>2026-04-19T10:51:07Z</time></trkpt><trkpt lat="42.86348284313167" lon="11.831941312079914"><ele>491.0</ele><time>2026-04-19T10:51:08Z</time></trkpt><trkpt lat="42.86334755573202" lon="11.831878598247851"><ele>491.0</ele><time>2026-04-19T10:51:09Z</time></trkpt><trkpt lat="42.8631687330819" lon="11.831812328336314"><ele>491.0</ele><time>2026-04-19T10:51:10Z</time></trkpt><trkpt lat="42.86301097955493" lon="11.831764739757709"><ele>491.3333333333333</ele><time>2026-04-19T10:51:11Z</time></trkpt><trkpt lat="42.862882661731156" lon="11.831717621048861"><ele>491.66666666666663</ele><time>2026-04-19T10:51:12Z</time></trkpt><trkpt lat="42.862785285598505" lon="11.83166307862996"><ele>492.0</ele><time>2026-04-19T10:51:13Z</time></trkpt><trkpt lat="42.862717729449216" lon="11.831633095242504"><ele>492.33333333333337</ele><time>2026-04-19T10:51:14Z</time></trkpt><trkpt lat="42.86265565174926" lon="11.831597210650868"><ele>492.6666666666667</ele><time>2026-04-19T10:51:16Z</time></trkpt><trkpt lat="42.86271709044258" lon="11.831644764993005"><ele>493.0</ele><time>2026-04-19T10:51:23Z</time></trkpt><trkpt lat="42.86284240077845" lon="11.83174514595447"><ele>493.0</ele><time>2026-04-19T10:51:24Z</time></trkpt><trkpt lat="42.862957455109424" lon="11.831783207907705"><ele>493.0</ele><time>2026-04-19T10:51:25Z</time></trkpt><trkpt lat="42.86309848273852" lon="11.831832074452043"><ele>493.0</ele><time>2026-04-19T10:51:26Z</time></trkpt><trkpt lat="42.86326310628679" lon="11.831892880189516"><ele>493.0</ele><time>2026-04-19T10:51:27Z</time></trkpt><trkpt lat="42.86343210659171" lon="11.831969196878314"><ele>492.33333333333337</ele><time>2026-04-19T10:51:28Z</time></trkpt><trkpt lat="42.86360825079181" lon="11.832084370132943"><ele>491.66666666666663</ele><time>2026-04-19T10:51:29Z</time></trkpt><trkpt lat="42.86377431981699" lon="11.83226678719174"><ele>491.0</ele><time>2026-04-19T10:51:30Z</time></trkpt><trkpt lat="42.863931453565236" lon="11.832506509368045"><ele>489.75</ele><time>2026-04-19T10:51:31Z</time></trkpt><trkpt lat="42.86404804181833" lon="11.83271912693782"><ele>488.5</ele><time>2026-04-19T10:51:32Z</time></trkpt><trkpt lat="42.86414251690757" lon="11.832868946680463"><ele>487.25</ele><time>2026-04-19T10:51:33Z</time></trkpt><trkpt lat="42.86423039050238" lon="11.83294583253063"><ele>486.0</ele><time>2026-04-19T10:51:34Z</time></trkpt><trkpt lat="42.86429572616866" lon="11.832969990131291"><ele>491.0</ele><time>2026-04-19T10:51:35Z</time></trkpt><trkpt lat="42.864421243750144" lon="11.832904655007164"><ele>496.0</ele><time>2026-04-19T10:51:37Z</time></trkpt><trkpt lat="42.86448664473283" lon="11.832822766444881"><ele>501.0</ele><time>2026-04-19T10:51:38Z</time></trkpt><trkpt lat="42.864525015735765" lon="11.83267132734701"><ele>506.0</ele><time>2026-04-19T10:51:39Z</time></trkpt><trkpt lat="42.86449589083755" lon="11.832509984492939"><ele>506.0</ele><time>2026-04-19T10:51:40Z</time></trkpt><trkpt lat="42.86445281258565" lon="11.832360359018212"><ele>506.0</ele><time>2026-04-19T10:51:41Z</time></trkpt><trkpt lat="42.864445547886966" lon="11.832216906831388"><ele>506.0</ele><time>2026-04-19T10:51:42Z</time></trkpt><trkpt lat="42.86444210831635" lon="11.83211648887983"><ele>506.0</ele><time>2026-04-19T10:51:43Z</time></trkpt><trkpt lat="42.86446512694507" lon="11.832029759103458"><ele>506.0</ele><time>2026-04-19T10:51:44Z</time></trkpt><trkpt lat="42.86454046805338" lon="11.831967019772943"><ele>506.0</ele><time>2026-04-19T10:51:45Z</time></trkpt><trkpt lat="42.864638260869135" lon="11.831954713304121"><ele>506.0</ele><time>2026-04-19T10:51:46Z</time></trkpt><trkpt lat="42.86473527232986" lon="11.832012780138147"><ele>506.0</ele><time>2026-04-19T10:51:47Z</time></trkpt><trkpt lat="42.8648109902044" lon="11.832134152797556"><ele>506.0</ele><time>2026-04-19T10:51:48Z</time></trkpt><trkpt lat="42.86485105519277" lon="11.832299084042445"><ele>506.0</ele><time>2026-04-19T10:51:49Z</time></trkpt><trkpt lat="42.864880017160004" lon="11.832494167910617"><ele>506.0</ele><time>2026-04-19T10:51:50Z</time></trkpt><trkpt lat="42.86492778729498" lon="11.832706041382684"><ele>506.0</ele><time>2026-04-19T10:51:51Z</time></trkpt><trkpt lat="42.86498861608164" lon="11.832944153562245"><ele>506.0</ele><time>2026-04-19T10:51:52Z</time></trkpt><trkpt lat="42.86505771278454" lon="11.83323550763056"><ele>510.5</ele><time>2026-04-19T10:51:53Z</time></trkpt><trkpt lat="42.86512018454462" lon="11.833554027632589"><ele>515.0</ele><time>2026-04-19T10:51:54Z</time></trkpt><trkpt lat="42.86515556801996" lon="11.833836703860866"><ele>515.0</ele><time>2026-04-19T10:51:55Z</time></trkpt><trkpt lat="42.86517480622568" lon="11.834076738920368"><ele>515.0</ele><time>2026-04-19T10:51:56Z</time></trkpt><trkpt lat="42.86518904197094" lon="11.834293720821439"><ele>515.0</ele><time>2026-04-19T10:51:57Z</time></trkpt><trkpt lat="42.865207179034144" lon="11.83448735170889"><ele>515.6</ele><time>2026-04-19T10:51:58Z</time></trkpt><trkpt lat="42.86522644566361" lon="11.83464598332728"><ele>516.2</ele><time>2026-04-19T10:51:59Z</time></trkpt><trkpt lat="42.86526061897761" lon="11.83474264187733"><ele>516.8</ele><time>2026-04-19T10:52:00Z</time></trkpt><trkpt lat="42.86537153310731" lon="11.834761784653749"><ele>517.4</ele><time>2026-04-19T10:52:02Z</time></trkpt><trkpt lat="42.865442609339055" lon="11.834701535119146"><ele>518.0</ele><time>2026-04-19T10:52:03Z</time></trkpt><trkpt lat="42.86550844044739" lon="11.834605196153303"><ele>518.0</ele><time>2026-04-19T10:52:04Z</time></trkpt><trkpt lat="42.86556933034659" lon="11.834479827697592"><ele>518.0</ele><time>2026-04-19T10:52:05Z</time></trkpt><trkpt lat="42.86558588069419" lon="11.834090346837002"><ele>518.0</ele><time>2026-04-19T10:52:07Z</time></trkpt><trkpt lat="42.86559744337786" lon="11.833865029822315"><ele>517.0</ele><time>2026-04-19T10:52:08Z</time></trkpt><trkpt lat="42.865586706298544" lon="11.83361855893947"><ele>516.0</ele><time>2026-04-19T10:52:09Z</time></trkpt><trkpt lat="42.865602260895606" lon="11.833355700513872"><ele>515.0</ele><time>2026-04-19T10:52:10Z</time></trkpt><trkpt lat="42.86561762844067" lon="11.833102347937295"><ele>515.0</ele><time>2026-04-19T10:52:11Z</time></trkpt><trkpt lat="42.865622365258915" lon="11.832856188445"><ele>515.0</ele><time>2026-04-19T10:52:12Z</time></trkpt><trkpt lat="42.86561857241864" lon="11.83262037566857"><ele>515.0</ele><time>2026-04-19T10:52:13Z</time></trkpt><trkpt lat="42.86556612611411" lon="11.832401414908443"><ele>515.6666666666666</ele><time>2026-04-19T10:52:14Z</time></trkpt><trkpt lat="42.865475141041806" lon="11.832196602596381"><ele>516.3333333333334</ele><time>2026-04-19T10:52:15Z</time></trkpt><trkpt lat="42.86537487333752" lon="11.831982916602978"><ele>517.0</ele><time>2026-04-19T10:52:16Z</time></trkpt><trkpt lat="42.865264695762704" lon="11.831753006735685"><ele>515.3333333333334</ele><time>2026-04-19T10:52:17Z</time></trkpt><trkpt lat="42.86514495976297" lon="11.831524192724768"><ele>513.6666666666666</ele><time>2026-04-19T10:52:18Z</time></trkpt><trkpt lat="42.86500541149703" lon="11.831307802009588"><ele>512.0</ele><time>2026-04-19T10:52:19Z</time></trkpt><trkpt lat="42.86484594709365" lon="11.831119319017034"><ele>512.0</ele><time>2026-04-19T10:52:20Z</time></trkpt><trkpt lat="42.86467869420211" lon="11.830977097240236"><ele>512.0</ele><time>2026-04-19T10:52:21Z</time></trkpt><trkpt lat="42.86452498117804" lon="11.830879516913624"><ele>512.0</ele><time>2026-04-19T10:52:22Z</time></trkpt><trkpt lat="42.86440046283093" lon="11.83076796084171"><ele>512.0</ele><time>2026-04-19T10:52:23Z</time></trkpt><trkpt lat="42.864306094468546" lon="11.830645323378763"><ele>512.0</ele><time>2026-04-19T10:52:24Z</time></trkpt><trkpt lat="42.8642468331587" lon="11.830494283132365"><ele>512.0</ele><time>2026-04-19T10:52:25Z</time></trkpt><trkpt lat="42.864193358895385" lon="11.830313321359311"><ele>512.0</ele><time>2026-04-19T10:52:26Z</time></trkpt><trkpt lat="42.86413459603039" lon="11.830101116382588"><ele>515.6666666666666</ele><time>2026-04-19T10:52:27Z</time></trkpt><trkpt lat="42.864069872399476" lon="11.829869522660706"><ele>519.3333333333334</ele><time>2026-04-19T10:52:28Z</time></trkpt><trkpt lat="42.86400027941329" lon="11.829651184096809"><ele>523.0</ele><time>2026-04-19T10:52:29Z</time></trkpt><trkpt lat="42.86392979100356" lon="11.829438444620969"><ele>523.6666666666667</ele><time>2026-04-19T10:52:30Z</time></trkpt><trkpt lat="42.863859618336654" lon="11.829233531190027"><ele>524.3333333333334</ele><time>2026-04-19T10:52:31Z</time></trkpt><trkpt lat="42.86379912046429" lon="11.829028948039454"><ele>525.0</ele><time>2026-04-19T10:52:32Z</time></trkpt><trkpt lat="42.86375489412104" lon="11.828817576301077"><ele>525.0</ele><time>2026-04-19T10:52:33Z</time></trkpt><trkpt lat="42.86371726247313" lon="11.82858921246157"><ele>525.0</ele><time>2026-04-19T10:52:34Z</time></trkpt><trkpt lat="42.8636815855519" lon="11.828349783778679"><ele>525.0</ele><time>2026-04-19T10:52:35Z</time></trkpt><trkpt lat="42.863645796999094" lon="11.828099848022687"><ele>527.6666666666666</ele><time>2026-04-19T10:52:36Z</time></trkpt><trkpt lat="42.863606440822174" lon="11.827842537264893"><ele>530.3333333333333</ele><time>2026-04-19T10:52:37Z</time></trkpt><trkpt lat="42.86355029452818" lon="11.827616477850444"><ele>533.0</ele><time>2026-04-19T10:52:38Z</time></trkpt><trkpt lat="42.863501669383005" lon="11.827414946772853"><ele>535.3333333333333</ele><time>2026-04-19T10:52:39Z</time></trkpt><trkpt lat="42.86345322819918" lon="11.827218461736999"><ele>537.6666666666666</ele><time>2026-04-19T10:52:40Z</time></trkpt><trkpt lat="42.863452182940335" lon="11.827005047264825"><ele>540.0</ele><time>2026-04-19T10:52:41Z</time></trkpt><trkpt lat="42.86346575343853" lon="11.82678757214163"><ele>542.0</ele><time>2026-04-19T10:52:42Z</time></trkpt><trkpt lat="42.86348274557227" lon="11.826589562883703"><ele>544.0</ele><time>2026-04-19T10:52:43Z</time></trkpt><trkpt lat="42.86348119521622" lon="11.826407680320825"><ele>546.0</ele><time>2026-04-19T10:52:44Z</time></trkpt><trkpt lat="42.86346306041599" lon="11.826218239208488"><ele>548.0</ele><time>2026-04-19T10:52:45Z</time></trkpt><trkpt lat="42.8633980946899" lon="11.826032688487796"><ele>544.0</ele><time>2026-04-19T10:52:46Z</time></trkpt><trkpt lat="42.86329745920932" lon="11.825857202443029"><ele>540.0</ele><time>2026-04-19T10:52:47Z</time></trkpt><trkpt lat="42.86316252127188" lon="11.82571086633517"><ele>536.0</ele><time>2026-04-19T10:52:48Z</time></trkpt><trkpt lat="42.86301215834265" lon="11.825584308507397"><ele>536.0</ele><time>2026-04-19T10:52:49Z</time></trkpt><trkpt lat="42.86286419268449" lon="11.82544640282939"><ele>536.0</ele><time>2026-04-19T10:52:50Z</time></trkpt><trkpt lat="42.86273114886497" lon="11.825267505245774"><ele>536.0</ele><time>2026-04-19T10:52:51Z</time></trkpt><trkpt lat="42.8625951049706" lon="11.825087254330262"><ele>535.6666666666666</ele><time>2026-04-19T10:52:52Z</time></trkpt><trkpt lat="42.86246836767003" lon="11.824899366957398"><ele>535.3333333333334</ele><time>2026-04-19T10:52:53Z</time></trkpt><trkpt lat="42.86235267973728" lon="11.824713170643216"><ele>535.0</ele><time>2026-04-19T10:52:54Z</time></trkpt><trkpt lat="42.86226322674533" lon="11.824539567698334"><ele>535.0</ele><time>2026-04-19T10:52:55Z</time></trkpt><trkpt lat="42.86220945699727" lon="11.824372556816176"><ele>535.0</ele><time>2026-04-19T10:52:56Z</time></trkpt><trkpt lat="42.86216160912405" lon="11.824199111076716"><ele>535.0</ele><time>2026-04-19T10:52:57Z</time></trkpt><trkpt lat="42.862113386158825" lon="11.824024917141884"><ele>535.0</ele><time>2026-04-19T10:52:58Z</time></trkpt><trkpt lat="42.862145056328096" lon="11.823836967081165"><ele>537.5</ele><time>2026-04-19T10:52:59Z</time></trkpt><trkpt lat="42.86216795585118" lon="11.823654312281192"><ele>540.0</ele><time>2026-04-19T10:53:00Z</time></trkpt><trkpt lat="42.862197587966065" lon="11.823457638871616"><ele>542.5</ele><time>2026-04-19T10:53:01Z</time></trkpt><trkpt lat="42.86220886988278" lon="11.823265817063028"><ele>545.0</ele><time>2026-04-19T10:53:02Z</time></trkpt><trkpt lat="42.86221285771497" lon="11.823067812240858"><ele>547.25</ele><time>2026-04-19T10:53:03Z</time></trkpt><trkpt lat="42.86220243860663" lon="11.822875780073542"><ele>549.5</ele><time>2026-04-19T10:53:04.001Z</time></trkpt><trkpt lat="42.8622161246417" lon="11.822719006127926"><ele>551.75</ele><time>2026-04-19T10:53:05Z</time></trkpt><trkpt lat="42.86222773393959" lon="11.822461678128336"><ele>554.0</ele><time>2026-04-19T10:53:07Z</time></trkpt><trkpt lat="42.86222509495909" lon="11.82235514947836"><ele>554.6666666666666</ele><time>2026-04-19T10:53:08Z</time></trkpt><trkpt lat="42.862231368857614" lon="11.822262347955732"><ele>555.3333333333333</ele><time>2026-04-19T10:53:09Z</time></trkpt><trkpt lat="42.8622324313667" lon="11.822159209256961"><ele>556.0</ele><time>2026-04-19T10:53:11Z</time></trkpt><trkpt lat="42.862105665381485" lon="11.82223907982341"><ele>556.6666666666666</ele><time>2026-04-19T10:53:13Z</time></trkpt><trkpt lat="42.86202680475373" lon="11.82229515248818"><ele>557.3333333333334</ele><time>2026-04-19T10:53:16Z</time></trkpt><trkpt lat="42.861962080538845" lon="11.822309684180224"><ele>558.0</ele><time>2026-04-19T10:53:17Z</time></trkpt><trkpt lat="42.86190073495783" lon="11.82222334932661"><ele>558.0</ele><time>2026-04-19T10:53:18Z</time></trkpt><trkpt lat="42.861809438911855" lon="11.822163657191505"><ele>558.0</ele><time>2026-04-19T10:53:19Z</time></trkpt><trkpt lat="42.861720766893676" lon="11.822076587774992"><ele>558.0</ele><time>2026-04-19T10:53:20Z</time></trkpt><trkpt lat="42.86163270133393" lon="11.821999093330858"><ele>558.0</ele><time>2026-04-19T10:53:21Z</time></trkpt><trkpt lat="42.86154926764554" lon="11.82193177752651"><ele>558.0</ele><time>2026-04-19T10:53:22Z</time></trkpt><trkpt lat="42.861464942251246" lon="11.821879836096803"><ele>555.6</ele><time>2026-04-19T10:53:23Z</time></trkpt><trkpt lat="42.86137948073847" lon="11.821860245864263"><ele>553.1999999999999</ele><time>2026-04-19T10:53:24Z</time></trkpt><trkpt lat="42.86128797772815" lon="11.821871349274543"><ele>550.8</ele><time>2026-04-19T10:53:25Z</time></trkpt><trkpt lat="42.86118922778127" lon="11.821891940403447"><ele>548.4</ele><time>2026-04-19T10:53:26Z</time></trkpt><trkpt lat="42.86107926207329" lon="11.8218836680145"><ele>546.0</ele><time>2026-04-19T10:53:27Z</time></trkpt><trkpt lat="42.86097896552317" lon="11.821869948284325"><ele>545.5</ele><time>2026-04-19T10:53:28Z</time></trkpt><trkpt lat="42.86089123372295" lon="11.821794512152186"><ele>545.0</ele><time>2026-04-19T10:53:29Z</time></trkpt><trkpt lat="42.86082448623387" lon="11.821731296925282"><ele>544.5</ele><time>2026-04-19T10:53:30Z</time></trkpt><trkpt lat="42.860768073349334" lon="11.821667236646558"><ele>544.0</ele><time>2026-04-19T10:53:32Z</time></trkpt><trkpt lat="42.860721803641475" lon="11.821594875599063"><ele>543.5</ele><time>2026-04-19T10:53:34Z</time></trkpt><trkpt lat="42.86067489596376" lon="11.82152693277663"><ele>543.0</ele><time>2026-04-19T10:53:35Z</time></trkpt><trkpt lat="42.860621795462635" lon="11.821448788410997"><ele>543.0</ele><time>2026-04-19T10:53:36Z</time></trkpt><trkpt lat="42.86058120183331" lon="11.82137107133982"><ele>543.0</ele><time>2026-04-19T10:53:37Z</time></trkpt><trkpt lat="42.86054504384785" lon="11.821288923656889"><ele>543.0</ele><time>2026-04-19T10:53:38Z</time></trkpt><trkpt lat="42.860493727885135" lon="11.821163413814054"><ele>543.0</ele><time>2026-04-19T10:53:40Z</time></trkpt><trkpt lat="42.86046372597791" lon="11.820997749134888"><ele>543.0</ele><time>2026-04-19T10:53:42Z</time></trkpt><trkpt lat="42.86047380637202" lon="11.82091130213449"><ele>543.0</ele><time>2026-04-19T10:53:43Z</time></trkpt><trkpt lat="42.860483140850924" lon="11.820790155640925"><ele>545.0</ele><time>2026-04-19T10:53:44Z</time></trkpt><trkpt lat="42.860490355635804" lon="11.82068747819339"><ele>547.0</ele><time>2026-04-19T10:53:45Z</time></trkpt><trkpt lat="42.86049931016026" lon="11.82057554662514"><ele>549.0</ele><time>2026-04-19T10:53:46Z</time></trkpt><trkpt lat="42.8605040716951" lon="11.820474459021053"><ele>551.0</ele><time>2026-04-19T10:53:47Z</time></trkpt><trkpt lat="42.86050058223836" lon="11.820351125534387"><ele>553.0</ele><time>2026-04-19T10:53:48Z</time></trkpt><trkpt lat="42.860472731155326" lon="11.820204619746406"><ele>555.0</ele><time>2026-04-19T10:53:49Z</time></trkpt><trkpt lat="42.86043172936381" lon="11.820077279676063"><ele>556.7142857142858</ele><time>2026-04-19T10:53:50Z</time></trkpt><trkpt lat="42.86039708361153" lon="11.819966822194928"><ele>558.4285714285714</ele><time>2026-04-19T10:53:51Z</time></trkpt><trkpt lat="42.86037293590579" lon="11.819887509280811"><ele>560.1428571428571</ele><time>2026-04-19T10:53:52Z</time></trkpt><trkpt lat="42.86034750775082" lon="11.81980399181231"><ele>561.8571428571429</ele><time>2026-04-19T10:53:53Z</time></trkpt><trkpt lat="42.860319072225465" lon="11.8197161791569"><ele>563.5714285714286</ele><time>2026-04-19T10:53:54Z</time></trkpt><trkpt lat="42.8602889319962" lon="11.81963781598095"><ele>565.2857142857143</ele><time>2026-04-19T10:53:55Z</time></trkpt><trkpt lat="42.86024730580052" lon="11.819539615981112"><ele>567.0</ele><time>2026-04-19T10:53:57Z</time></trkpt><trkpt lat="42.860190684437036" lon="11.819406274192435"><ele>564.6</ele><time>2026-04-19T10:53:59Z</time></trkpt><trkpt lat="42.86007148085305" lon="11.819340960292372"><ele>562.2</ele><time>2026-04-19T10:54:00Z</time></trkpt><trkpt lat="42.859982579448776" lon="11.81929748349054"><ele>559.8</ele><time>2026-04-19T10:54:01Z</time></trkpt><trkpt lat="42.8599198015363" lon="11.819268890293982"><ele>557.4</ele><time>2026-04-19T10:54:02Z</time></trkpt><trkpt lat="42.85983679022829" lon="11.819237883946403"><ele>555.0</ele><time>2026-04-19T10:54:04Z</time></trkpt><trkpt lat="42.859761416983304" lon="11.819217142776353"><ele>555.0</ele><time>2026-04-19T10:54:06Z</time></trkpt><trkpt lat="42.85967432951544" lon="11.81919705482064"><ele>555.0</ele><time>2026-04-19T10:54:08Z</time></trkpt><trkpt lat="42.85958179101864" lon="11.819179971423775"><ele>555.0</ele><time>2026-04-19T10:54:09Z</time></trkpt><trkpt lat="42.859466200175596" lon="11.819158548171414"><ele>555.0</ele><time>2026-04-19T10:54:10Z</time></trkpt><trkpt lat="42.8593487507567" lon="11.819134737925813"><ele>555.0</ele><time>2026-04-19T10:54:11Z</time></trkpt><trkpt lat="42.859255764602565" lon="11.819115887064948"><ele>551.25</ele><time>2026-04-19T10:54:12Z</time></trkpt><trkpt lat="42.85917283561438" lon="11.819099580884691"><ele>547.5</ele><time>2026-04-19T10:54:13Z</time></trkpt><trkpt lat="42.85904693727628" lon="11.819062394282707"><ele>543.75</ele><time>2026-04-19T10:54:15Z</time></trkpt><trkpt lat="42.85896347387335" lon="11.818993688211858"><ele>540.0</ele><time>2026-04-19T10:54:17Z</time></trkpt><trkpt lat="42.858856897908815" lon="11.818869479608923"><ele>540.0</ele><time>2026-04-19T10:54:19Z</time></trkpt><trkpt lat="42.85879606628662" lon="11.818772203598108"><ele>540.0</ele><time>2026-04-19T10:54:20Z</time></trkpt><trkpt lat="42.85872467856901" lon="11.818661422928065"><ele>540.0</ele><time>2026-04-19T10:54:21Z</time></trkpt><trkpt lat="42.85865588493244" lon="11.818571834342016"><ele>540.0</ele><time>2026-04-19T10:54:22Z</time></trkpt><trkpt lat="42.85859362351376" lon="11.818498940906721"><ele>540.0</ele><time>2026-04-19T10:54:23Z</time></trkpt><trkpt lat="42.85853253613357" lon="11.81843220276139"><ele>540.8</ele><time>2026-04-19T10:54:24Z</time></trkpt><trkpt lat="42.858469767186314" lon="11.818371117925757"><ele>541.6</ele><time>2026-04-19T10:54:25Z</time></trkpt><trkpt lat="42.85838403545649" lon="11.818308776665004"><ele>542.4</ele><time>2026-04-19T10:54:26Z</time></trkpt><trkpt lat="42.85826632349163" lon="11.818251600834571"><ele>543.2</ele><time>2026-04-19T10:54:27Z</time></trkpt><trkpt lat="42.85816001162026" lon="11.8181646427461"><ele>544.0</ele><time>2026-04-19T10:54:28Z</time></trkpt><trkpt lat="42.85806357332651" lon="11.818099600267455"><ele>541.4</ele><time>2026-04-19T10:54:29Z</time></trkpt><trkpt lat="42.85798010228823" lon="11.818041462094413"><ele>538.8</ele><time>2026-04-19T10:54:30Z</time></trkpt><trkpt lat="42.85789729465764" lon="11.817980070927135"><ele>536.2</ele><time>2026-04-19T10:54:31Z</time></trkpt><trkpt lat="42.85781505696763" lon="11.817911908869108"><ele>533.6</ele><time>2026-04-19T10:54:32Z</time></trkpt><trkpt lat="42.85771042828474" lon="11.817844640146737"><ele>531.0</ele><time>2026-04-19T10:54:33Z</time></trkpt><trkpt lat="42.857607820407594" lon="11.817785876760714"><ele>528.2</ele><time>2026-04-19T10:54:34Z</time></trkpt><trkpt lat="42.85751479328779" lon="11.817737962767843"><ele>525.4000000000001</ele><time>2026-04-19T10:54:35Z</time></trkpt><trkpt lat="42.85742277896014" lon="11.817698955516835"><ele>522.6</ele><time>2026-04-19T10:54:36Z</time></trkpt><trkpt lat="42.857330478587585" lon="11.81766254120491"><ele>519.8000000000001</ele><time>2026-04-19T10:54:37Z</time></trkpt><trkpt lat="42.85724131628971" lon="11.817637895055546"><ele>517.0</ele><time>2026-04-19T10:54:38Z</time></trkpt><trkpt lat="42.85714185343475" lon="11.817634514648088"><ele>517.0</ele><time>2026-04-19T10:54:39Z</time></trkpt><trkpt lat="42.857021273134926" lon="11.817634044803018"><ele>517.0</ele><time>2026-04-19T10:54:40Z</time></trkpt><trkpt lat="42.85688340586447" lon="11.817630190405202"><ele>517.0</ele><time>2026-04-19T10:54:41Z</time></trkpt><trkpt lat="42.85675308536893" lon="11.817614996173619"><ele>517.0</ele><time>2026-04-19T10:54:42Z</time></trkpt><trkpt lat="42.85663256618227" lon="11.817604901560735"><ele>516.2</ele><time>2026-04-19T10:54:43Z</time></trkpt><trkpt lat="42.85651015391451" lon="11.817599609113163"><ele>515.4000000000001</ele><time>2026-04-19T10:54:44Z</time></trkpt><trkpt lat="42.856400968015336" lon="11.817583814408906"><ele>514.5999999999999</ele><time>2026-04-19T10:54:45Z</time></trkpt><trkpt lat="42.85631396529128" lon="11.817565707372614"><ele>513.8</ele><time>2026-04-19T10:54:46Z</time></trkpt><trkpt lat="42.85624481522858" lon="11.81755084570474"><ele>513.0</ele><time>2026-04-19T10:54:47Z</time></trkpt><trkpt lat="42.85614553245246" lon="11.817477610758353"><ele>513.0</ele><time>2026-04-19T10:54:49Z</time></trkpt><trkpt lat="42.85605422240174" lon="11.817344976535951"><ele>513.0</ele><time>2026-04-19T10:54:51Z</time></trkpt><trkpt lat="42.85599413764593" lon="11.81727201703556"><ele>513.0</ele><time>2026-04-19T10:54:52Z</time></trkpt><trkpt lat="42.855904598742505" lon="11.817182511761487"><ele>513.0</ele><time>2026-04-19T10:54:53Z</time></trkpt><trkpt lat="42.855806691978316" lon="11.817095089329117"><ele>513.0</ele><time>2026-04-19T10:54:54Z</time></trkpt><trkpt lat="42.855708351713425" lon="11.817015530266543"><ele>511.79999999999995</ele><time>2026-04-19T10:54:55Z</time></trkpt><trkpt lat="42.85561457900693" lon="11.816957623366816"><ele>510.59999999999997</ele><time>2026-04-19T10:54:56Z</time></trkpt><trkpt lat="42.85552705309776" lon="11.816907388904562"><ele>509.40000000000003</ele><time>2026-04-19T10:54:57Z</time></trkpt><trkpt lat="42.855440992866676" lon="11.816857395944785"><ele>508.20000000000005</ele><time>2026-04-19T10:54:58Z</time></trkpt><trkpt lat="42.85536149311621" lon="11.816809017341397"><ele>507.0</ele><time>2026-04-19T10:54:59Z</time></trkpt><trkpt lat="42.85527172517993" lon="11.816768482923093"><ele>507.0</ele><time>2026-04-19T10:55:00Z</time></trkpt><trkpt lat="42.85519456933824" lon="11.8166676705275"><ele>507.00000000000006</ele><time>2026-04-19T10:55:01Z</time></trkpt><trkpt lat="42.85511766955212" lon="11.816568986072564"><ele>507.00000000000006</ele><time>2026-04-19T10:55:02Z</time></trkpt><trkpt lat="42.85505123643601" lon="11.816463863798988"><ele>507.0</ele><time>2026-04-19T10:55:03Z</time></trkpt><trkpt lat="42.85499871372265" lon="11.816363879758955"><ele>507.0</ele><time>2026-04-19T10:55:04Z</time></trkpt><trkpt lat="42.854946076612194" lon="11.816276538947246"><ele>507.6666666666667</ele><time>2026-04-19T10:55:05Z</time></trkpt><trkpt lat="42.8548999561327" lon="11.816200010039259"><ele>508.33333333333337</ele><time>2026-04-19T10:55:06Z</time></trkpt><trkpt lat="42.854849195158465" lon="11.816120353645827"><ele>509.0</ele><time>2026-04-19T10:55:07Z</time></trkpt><trkpt lat="42.854787916259006" lon="11.816046749598712"><ele>509.6666666666667</ele><time>2026-04-19T10:55:08Z</time></trkpt><trkpt lat="42.8547144551991" lon="11.81599442245876"><ele>510.33333333333337</ele><time>2026-04-19T10:55:09Z</time></trkpt><trkpt lat="42.8546076750996" lon="11.815984940138396"><ele>511.0</ele><time>2026-04-19T10:55:10Z</time></trkpt><trkpt lat="42.85451572137572" lon="11.815984455753872"><ele>511.00000000000006</ele><time>2026-04-19T10:55:11Z</time></trkpt><trkpt lat="42.85442531485452" lon="11.816040711905975"><ele>511.0</ele><time>2026-04-19T10:55:12Z</time></trkpt><trkpt lat="42.85434461874966" lon="11.816051025744766"><ele>511.0</ele><time>2026-04-19T10:55:13Z</time></trkpt><trkpt lat="42.85428037333763" lon="11.816109788661384"><ele>511.0</ele><time>2026-04-19T10:55:14Z</time></trkpt><trkpt lat="42.854203929126136" lon="11.816132462691181"><ele>511.00000000000006</ele><time>2026-04-19T10:55:15Z</time></trkpt><trkpt lat="42.85412708358337" lon="11.816127411965603"><ele>511.0</ele><time>2026-04-19T10:55:16Z</time></trkpt><trkpt lat="42.85406126013254" lon="11.816048481034713"><ele>505.0</ele><time>2026-04-19T10:55:17Z</time></trkpt><trkpt lat="42.853989587445085" lon="11.815963366513524"><ele>499.0</ele><time>2026-04-19T10:55:18Z</time></trkpt><trkpt lat="42.85389479222822" lon="11.815835747563185"><ele>493.0</ele><time>2026-04-19T10:55:19Z</time></trkpt><trkpt lat="42.85380447778989" lon="11.815701247608372"><ele>487.0</ele><time>2026-04-19T10:55:20Z</time></trkpt><trkpt lat="42.85370453876048" lon="11.81555469110924"><ele>487.0</ele><time>2026-04-19T10:55:21Z</time></trkpt><trkpt lat="42.85359732375601" lon="11.815399943845614"><ele>487.0</ele><time>2026-04-19T10:55:22Z</time></trkpt><trkpt lat="42.85348117669364" lon="11.815230683707787"><ele>487.0</ele><time>2026-04-19T10:55:23Z</time></trkpt><trkpt lat="42.85336241130204" lon="11.815052055473133"><ele>485.0</ele><time>2026-04-19T10:55:24Z</time></trkpt><trkpt lat="42.85323805565125" lon="11.814860164765504"><ele>483.0</ele><time>2026-04-19T10:55:25Z</time></trkpt><trkpt lat="42.85310871934118" lon="11.814648898012384"><ele>481.0</ele><time>2026-04-19T10:55:26Z</time></trkpt><trkpt lat="42.853011405463214" lon="11.814474475111503"><ele>481.0</ele><time>2026-04-19T10:55:27Z</time></trkpt><trkpt lat="42.85293657302587" lon="11.814339780330785"><ele>481.0</ele><time>2026-04-19T10:55:28Z</time></trkpt><trkpt lat="42.852869736057215" lon="11.814221886805004"><ele>481.0</ele><time>2026-04-19T10:55:29Z</time></trkpt><trkpt lat="42.852806732444186" lon="11.814121794429331"><ele>481.0</ele><time>2026-04-19T10:55:30Z</time></trkpt><trkpt lat="42.85274056181543" lon="11.81402685374856"><ele>481.0</ele><time>2026-04-19T10:55:31Z</time></trkpt><trkpt lat="42.85266367319681" lon="11.813947638139744"><ele>485.0</ele><time>2026-04-19T10:55:32Z</time></trkpt><trkpt lat="42.85257065015517" lon="11.813890380287155"><ele>489.0</ele><time>2026-04-19T10:55:33Z</time></trkpt><trkpt lat="42.85246120120706" lon="11.813860774300784"><ele>493.0</ele><time>2026-04-19T10:55:34Z</time></trkpt><trkpt lat="42.852341873575014" lon="11.81384634376321"><ele>497.0</ele><time>2026-04-19T10:55:35Z</time></trkpt><trkpt lat="42.85221012830273" lon="11.813846711629754"><ele>497.0</ele><time>2026-04-19T10:55:36Z</time></trkpt><trkpt lat="42.85209336265116" lon="11.81386849810625"><ele>497.00000000000006</ele><time>2026-04-19T10:55:37Z</time></trkpt><trkpt lat="42.85200702023483" lon="11.813871761476793"><ele>497.00000000000006</ele><time>2026-04-19T10:55:38Z</time></trkpt><trkpt lat="42.85193090085353" lon="11.813881156522491"><ele>497.0</ele><time>2026-04-19T10:55:39Z</time></trkpt><trkpt lat="42.851832537035634" lon="11.813866588106967"><ele>497.0</ele><time>2026-04-19T10:55:40Z</time></trkpt><trkpt lat="42.851720578611435" lon="11.8138156686439"><ele>497.25</ele><time>2026-04-19T10:55:41Z</time></trkpt><trkpt lat="42.85164019311764" lon="11.813678393784423"><ele>497.5</ele><time>2026-04-19T10:55:42Z</time></trkpt><trkpt lat="42.85152836003365" lon="11.813544516586937"><ele>497.75</ele><time>2026-04-19T10:55:43Z</time></trkpt><trkpt lat="42.851417925412825" lon="11.81341287658718"><ele>498.0</ele><time>2026-04-19T10:55:44Z</time></trkpt><trkpt lat="42.85129400423709" lon="11.813287435892853"><ele>499.0</ele><time>2026-04-19T10:55:45Z</time></trkpt><trkpt lat="42.85114951548567" lon="11.813168205479798"><ele>500.0</ele><time>2026-04-19T10:55:46Z</time></trkpt><trkpt lat="42.85099237809104" lon="11.81305757623864"><ele>501.0</ele><time>2026-04-19T10:55:47Z</time></trkpt><trkpt lat="42.85085318479525" lon="11.812973913299802"><ele>501.8</ele><time>2026-04-19T10:55:48Z</time></trkpt><trkpt lat="42.85073911638461" lon="11.812920623648484"><ele>502.6</ele><time>2026-04-19T10:55:49Z</time></trkpt><trkpt lat="42.85063672015912" lon="11.812895963967412"><ele>503.4</ele><time>2026-04-19T10:55:50Z</time></trkpt><trkpt lat="42.85053090545697" lon="11.812891568154182"><ele>504.2</ele><time>2026-04-19T10:55:51Z</time></trkpt><trkpt lat="42.850427042608764" lon="11.81290569548152"><ele>505.0</ele><time>2026-04-19T10:55:52Z</time></trkpt><trkpt lat="42.85031961043188" lon="11.812990127016251"><ele>505.0</ele><time>2026-04-19T10:55:53Z</time></trkpt><trkpt lat="42.85022970766722" lon="11.81306048049679"><ele>505.0</ele><time>2026-04-19T10:55:54Z</time></trkpt><trkpt lat="42.85014537189436" lon="11.813131518859763"><ele>505.0</ele><time>2026-04-19T10:55:55Z</time></trkpt><trkpt lat="42.850052444026076" lon="11.813180430372013"><ele>505.0</ele><time>2026-04-19T10:55:56Z</time></trkpt><trkpt lat="42.84995814259896" lon="11.813196657577038"><ele>505.0</ele><time>2026-04-19T10:55:57Z</time></trkpt><trkpt lat="42.84986860813464" lon="11.81315377552649"><ele>504.0</ele><time>2026-04-19T10:55:58Z</time></trkpt><trkpt lat="42.84980102381846" lon="11.813135503023842"><ele>503.0</ele><time>2026-04-19T10:55:59Z</time></trkpt><trkpt lat="42.849683329371544" lon="11.813081665509172"><ele>502.0</ele><time>2026-04-19T10:56:01Z</time></trkpt><trkpt lat="42.849582460094155" lon="11.812990739378275"><ele>501.0</ele><time>2026-04-19T10:56:03Z</time></trkpt><trkpt lat="42.84952460192437" lon="11.812932678258603"><ele>500.0</ele><time>2026-04-19T10:56:04Z</time></trkpt><trkpt lat="42.849463076185486" lon="11.812871126404362"><ele>499.99999999999994</ele><time>2026-04-19T10:56:05Z</time></trkpt><trkpt lat="42.849403417858746" lon="11.8128114427903"><ele>500.0</ele><time>2026-04-19T10:56:06Z</time></trkpt><trkpt lat="42.849342225993425" lon="11.812749808040357"><ele>500.0</ele><time>2026-04-19T10:56:07Z</time></trkpt><trkpt lat="42.84928034337455" lon="11.812684554124099"><ele>500.0</ele><time>2026-04-19T10:56:08Z</time></trkpt><trkpt lat="42.84922162703595" lon="11.812618643646951"><ele>499.99999999999994</ele><time>2026-04-19T10:56:09Z</time></trkpt><trkpt lat="42.84916481440271" lon="11.81254569179099"><ele>500.0</ele><time>2026-04-19T10:56:10Z</time></trkpt><trkpt lat="42.849108329707995" lon="11.812468374758991"><ele>500.0</ele><time>2026-04-19T10:56:11Z</time></trkpt><trkpt lat="42.849063462033975" lon="11.812387885418362"><ele>500.0</ele><time>2026-04-19T10:56:12Z</time></trkpt><trkpt lat="42.849021072795566" lon="11.81229068402277"><ele>500.0</ele><time>2026-04-19T10:56:13Z</time></trkpt><trkpt lat="42.84899883525505" lon="11.81217811318792"><ele>500.0</ele><time>2026-04-19T10:56:14Z</time></trkpt><trkpt lat="42.84895253785681" lon="11.81203805533461"><ele>500.0</ele><time>2026-04-19T10:56:15Z</time></trkpt><trkpt lat="42.84887781653895" lon="11.811874971499865"><ele>496.25</ele><time>2026-04-19T10:56:16Z</time></trkpt><trkpt lat="42.84879150186871" lon="11.811696339707435"><ele>492.5</ele><time>2026-04-19T10:56:17Z</time></trkpt><trkpt lat="42.848722452355226" lon="11.81154983786159"><ele>488.75</ele><time>2026-04-19T10:56:18Z</time></trkpt><trkpt lat="42.84866818846149" lon="11.811434706795568"><ele>485.0</ele><time>2026-04-19T10:56:19Z</time></trkpt><trkpt lat="42.84861832786866" lon="11.81133366453497"><ele>485.0</ele><time>2026-04-19T10:56:20Z</time></trkpt><trkpt lat="42.848569481254515" lon="11.811234749138608"><ele>485.0</ele><time>2026-04-19T10:56:21Z</time></trkpt><trkpt lat="42.84851679312577" lon="11.81113431093676"><ele>485.0</ele><time>2026-04-19T10:56:22Z</time></trkpt><trkpt lat="42.848441610904395" lon="11.811023317847337"><ele>485.0</ele><time>2026-04-19T10:56:23Z</time></trkpt><trkpt lat="42.84831212819901" lon="11.810943897986359"><ele>485.0</ele><time>2026-04-19T10:56:24Z</time></trkpt><trkpt lat="42.848201328740984" lon="11.810902182642872"><ele>486.0</ele><time>2026-04-19T10:56:25Z</time></trkpt><trkpt lat="42.84811519880816" lon="11.810860212414656"><ele>487.0</ele><time>2026-04-19T10:56:26Z</time></trkpt><trkpt lat="42.84803790041546" lon="11.810813019675278"><ele>488.0</ele><time>2026-04-19T10:56:27Z</time></trkpt><trkpt lat="42.84797207768058" lon="11.810740483520268"><ele>489.0</ele><time>2026-04-19T10:56:28Z</time></trkpt><trkpt lat="42.84791274840417" lon="11.810633180101659"><ele>490.0</ele><time>2026-04-19T10:56:29Z</time></trkpt><trkpt lat="42.847835107000655" lon="11.810515756534073"><ele>490.0</ele><time>2026-04-19T10:56:30Z</time></trkpt><trkpt lat="42.847749880473785" lon="11.810395296721449"><ele>490.0</ele><time>2026-04-19T10:56:31Z</time></trkpt><trkpt lat="42.84766194769249" lon="11.810274625053644"><ele>490.0</ele><time>2026-04-19T10:56:32Z</time></trkpt><trkpt lat="42.84757221146585" lon="11.810158661533842"><ele>490.0</ele><time>2026-04-19T10:56:33Z</time></trkpt><trkpt lat="42.84747463108933" lon="11.810044469440106"><ele>488.0</ele><time>2026-04-19T10:56:34Z</time></trkpt><trkpt lat="42.847360285790664" lon="11.80992134284876"><ele>486.0</ele><time>2026-04-19T10:56:35Z</time></trkpt><trkpt lat="42.84724428981258" lon="11.809805323405762"><ele>484.0</ele><time>2026-04-19T10:56:36Z</time></trkpt><trkpt lat="42.847120995174116" lon="11.809690233897811"><ele>482.0</ele><time>2026-04-19T10:56:37Z</time></trkpt><trkpt lat="42.84700265426251" lon="11.80959016684539"><ele>482.0</ele><time>2026-04-19T10:56:38Z</time></trkpt><trkpt lat="42.84688798382354" lon="11.809496780152092"><ele>482.0</ele><time>2026-04-19T10:56:39Z</time></trkpt><trkpt lat="42.846775996026885" lon="11.80940697398109"><ele>482.0</ele><time>2026-04-19T10:56:40Z</time></trkpt><trkpt lat="42.846665405038415" lon="11.809321099056096"><ele>482.0</ele><time>2026-04-19T10:56:41Z</time></trkpt><trkpt lat="42.84656535005518" lon="11.809244342331235"><ele>480.5</ele><time>2026-04-19T10:56:42Z</time></trkpt><trkpt lat="42.84646906391037" lon="11.809170476701846"><ele>479.0</ele><time>2026-04-19T10:56:43Z</time></trkpt><trkpt lat="42.846367292581185" lon="11.809091145304276"><ele>477.5</ele><time>2026-04-19T10:56:44Z</time></trkpt><trkpt lat="42.846260067195104" lon="11.808997331026577"><ele>476.0</ele><time>2026-04-19T10:56:45Z</time></trkpt><trkpt lat="42.84616039308217" lon="11.808902490619912"><ele>476.0</ele><time>2026-04-19T10:56:46Z</time></trkpt><trkpt lat="42.84606461550693" lon="11.808831944065725"><ele>476.0</ele><time>2026-04-19T10:56:47Z</time></trkpt><trkpt lat="42.84596737238928" lon="11.808777548464036"><ele>476.0</ele><time>2026-04-19T10:56:48Z</time></trkpt><trkpt lat="42.845863447952965" lon="11.808734029458869"><ele>476.0</ele><time>2026-04-19T10:56:49Z</time></trkpt><trkpt lat="42.845748820097455" lon="11.808701722978451"><ele>476.0</ele><time>2026-04-19T10:56:50Z</time></trkpt><trkpt lat="42.845620289795626" lon="11.808677048068029"><ele>477.25</ele><time>2026-04-19T10:56:51Z</time></trkpt><trkpt lat="42.845489246202064" lon="11.80865356975373"><ele>478.5</ele><time>2026-04-19T10:56:52Z</time></trkpt><trkpt lat="42.84535456391671" lon="11.808628720787553"><ele>479.75</ele><time>2026-04-19T10:56:53Z</time></trkpt><trkpt lat="42.8452230181302" lon="11.80860072816058"><ele>481.0</ele><time>2026-04-19T10:56:54Z</time></trkpt><trkpt lat="42.8451023841533" lon="11.80856703818344"><ele>481.0</ele><time>2026-04-19T10:56:55Z</time></trkpt><trkpt lat="42.84499750426431" lon="11.80851462823592"><ele>481.0</ele><time>2026-04-19T10:56:56Z</time></trkpt><trkpt lat="42.84489774618094" lon="11.808436551362695"><ele>481.0</ele><time>2026-04-19T10:56:57Z</time></trkpt><trkpt lat="42.84480817502822" lon="11.808331482257598"><ele>481.0</ele><time>2026-04-19T10:56:58Z</time></trkpt><trkpt lat="42.84473388185516" lon="11.808205071463012"><ele>479.75</ele><time>2026-04-19T10:56:59Z</time></trkpt><trkpt lat="42.844656309684034" lon="11.808043803552968"><ele>478.5</ele><time>2026-04-19T10:57:00Z</time></trkpt><trkpt lat="42.8445781069255" lon="11.80787726544456"><ele>477.25</ele><time>2026-04-19T10:57:01Z</time></trkpt><trkpt lat="42.844500248853386" lon="11.807709132041934"><ele>476.0</ele><time>2026-04-19T10:57:02Z</time></trkpt><trkpt lat="42.84441933786788" lon="11.807548990044594"><ele>475.75</ele><time>2026-04-19T10:57:03Z</time></trkpt><trkpt lat="42.844324562240146" lon="11.807396720259385"><ele>475.5</ele><time>2026-04-19T10:57:04Z</time></trkpt><trkpt lat="42.8442295760515" lon="11.807263566496056"><ele>475.25</ele><time>2026-04-19T10:57:05Z</time></trkpt><trkpt lat="42.84412142717237" lon="11.80711979968773"><ele>475.0</ele><time>2026-04-19T10:57:06Z</time></trkpt><trkpt lat="42.8440070959902" lon="11.806979145059328"><ele>475.0</ele><time>2026-04-19T10:57:07Z</time></trkpt><trkpt lat="42.8438975862898" lon="11.806847052915993"><ele>475.0</ele><time>2026-04-19T10:57:08Z</time></trkpt><trkpt lat="42.84380020601433" lon="11.80671750706183"><ele>475.0</ele><time>2026-04-19T10:57:09Z</time></trkpt><trkpt lat="42.84370433415299" lon="11.806570533758544"><ele>475.0</ele><time>2026-04-19T10:57:10Z</time></trkpt><trkpt lat="42.84361162721991" lon="11.806414790328182"><ele>472.33333333333337</ele><time>2026-04-19T10:57:11Z</time></trkpt><trkpt lat="42.843513350590335" lon="11.806232643772983"><ele>469.66666666666663</ele><time>2026-04-19T10:57:12Z</time></trkpt><trkpt lat="42.84341432709471" lon="11.806041608961475"><ele>467.0</ele><time>2026-04-19T10:57:13Z</time></trkpt><trkpt lat="42.8433097478395" lon="11.805835102601982"><ele>465.66666666666663</ele><time>2026-04-19T10:57:14Z</time></trkpt><trkpt lat="42.84320301227835" lon="11.805622892613494"><ele>464.33333333333337</ele><time>2026-04-19T10:57:15Z</time></trkpt><trkpt lat="42.84308990111955" lon="11.805398712233501"><ele>463.0</ele><time>2026-04-19T10:57:16Z</time></trkpt><trkpt lat="42.84297801656252" lon="11.80518178552384"><ele>460.33333333333337</ele><time>2026-04-19T10:57:17Z</time></trkpt><trkpt lat="42.84285694033231" lon="11.804951716438898"><ele>457.66666666666663</ele><time>2026-04-19T10:57:18Z</time></trkpt><trkpt lat="42.84273985366199" lon="11.804735202155056"><ele>455.0</ele><time>2026-04-19T10:57:19Z</time></trkpt><trkpt lat="42.842639056524106" lon="11.804532828199248"><ele>455.0</ele><time>2026-04-19T10:57:20Z</time></trkpt><trkpt lat="42.84253674457545" lon="11.804332258659974"><ele>455.0</ele><time>2026-04-19T10:57:21Z</time></trkpt><trkpt lat="42.84243375517842" lon="11.804134892627559"><ele>455.0</ele><time>2026-04-19T10:57:22Z</time></trkpt><trkpt lat="42.84233795299617" lon="11.803951300398376"><ele>455.75</ele><time>2026-04-19T10:57:23Z</time></trkpt><trkpt lat="42.84224891044113" lon="11.803778601486668"><ele>456.5</ele><time>2026-04-19T10:57:24Z</time></trkpt><trkpt lat="42.84216784915124" lon="11.803614009184603"><ele>457.25</ele><time>2026-04-19T10:57:25Z</time></trkpt><trkpt lat="42.84208855288875" lon="11.803451522199268"><ele>458.0</ele><time>2026-04-19T10:57:26Z</time></trkpt><trkpt lat="42.84200552216765" lon="11.803292528816135"><ele>458.25</ele><time>2026-04-19T10:57:27Z</time></trkpt><trkpt lat="42.841916036783175" lon="11.803141237922173"><ele>458.5</ele><time>2026-04-19T10:57:28Z</time></trkpt><trkpt lat="42.84182084181745" lon="11.80300256799959"><ele>458.75</ele><time>2026-04-19T10:57:29Z</time></trkpt><trkpt lat="42.84171186958063" lon="11.802867277242761"><ele>459.0</ele><time>2026-04-19T10:57:30Z</time></trkpt><trkpt lat="42.841598253381896" lon="11.802753493741887"><ele>456.25</ele><time>2026-04-19T10:57:31Z</time></trkpt><trkpt lat="42.84149185838427" lon="11.80266268620184"><ele>453.5</ele><time>2026-04-19T10:57:32Z</time></trkpt><trkpt lat="42.84138861529337" lon="11.802593430048708"><ele>450.75</ele><time>2026-04-19T10:57:33Z</time></trkpt><trkpt lat="42.8412893079535" lon="11.802541510130093"><ele>448.0</ele><time>2026-04-19T10:57:34Z</time></trkpt><trkpt lat="42.841189229774045" lon="11.802508744984769"><ele>448.0</ele><time>2026-04-19T10:57:35Z</time></trkpt><trkpt lat="42.84107556856311" lon="11.802538515504082"><ele>448.0</ele><time>2026-04-19T10:57:36Z</time></trkpt><trkpt lat="42.84096004698963" lon="11.80256765903103"><ele>448.0</ele><time>2026-04-19T10:57:37Z</time></trkpt><trkpt lat="42.84083000112827" lon="11.802622785189552"><ele>448.0</ele><time>2026-04-19T10:57:38Z</time></trkpt><trkpt lat="42.84067532503395" lon="11.802688403874708"><ele>447.0</ele><time>2026-04-19T10:57:39Z</time></trkpt><trkpt lat="42.840510302637355" lon="11.802758502017221"><ele>446.0</ele><time>2026-04-19T10:57:40Z</time></trkpt><trkpt lat="42.84033001943841" lon="11.802803727761086"><ele>445.0</ele><time>2026-04-19T10:57:41Z</time></trkpt><trkpt lat="42.84013703942754" lon="11.802887089546596"><ele>444.6666666666667</ele><time>2026-04-19T10:57:42Z</time></trkpt><trkpt lat="42.83994561260661" lon="11.80296180600702"><ele>444.33333333333337</ele><time>2026-04-19T10:57:43Z</time></trkpt><trkpt lat="42.839775138966715" lon="11.803032844367428"><ele>444.0</ele><time>2026-04-19T10:57:44Z</time></trkpt><trkpt lat="42.83961924755214" lon="11.803087697257698"><ele>444.0</ele><time>2026-04-19T10:57:45Z</time></trkpt><trkpt lat="42.83946577097834" lon="11.803150883195729"><ele>444.0</ele><time>2026-04-19T10:57:46Z</time></trkpt><trkpt lat="42.83932977730691" lon="11.803210970160702"><ele>444.0</ele><time>2026-04-19T10:57:47Z</time></trkpt><trkpt lat="42.839207382294006" lon="11.803265760196453"><ele>444.0</ele><time>2026-04-19T10:57:48Z</time></trkpt><trkpt lat="42.839096210217825" lon="11.803290543031334"><ele>445.0</ele><time>2026-04-19T10:57:49Z</time></trkpt><trkpt lat="42.83900053061329" lon="11.80332982517393"><ele>446.0</ele><time>2026-04-19T10:57:50Z</time></trkpt><trkpt lat="42.83890588805455" lon="11.803365905108313"><ele>447.0</ele><time>2026-04-19T10:57:51Z</time></trkpt><trkpt lat="42.83881794735308" lon="11.803401020846412"><ele>448.0</ele><time>2026-04-19T10:57:52Z</time></trkpt><trkpt lat="42.83871478506441" lon="11.803395696928105"><ele>449.0</ele><time>2026-04-19T10:57:53Z</time></trkpt><trkpt lat="42.83861543012755" lon="11.803360370230852"><ele>449.0</ele><time>2026-04-19T10:57:54Z</time></trkpt><trkpt lat="42.83853556330521" lon="11.803264030685169"><ele>449.0</ele><time>2026-04-19T10:57:55Z</time></trkpt><trkpt lat="42.838443911449886" lon="11.803148635953768"><ele>449.0</ele><time>2026-04-19T10:57:56Z</time></trkpt><trkpt lat="42.8383480719425" lon="11.803024728093717"><ele>449.0</ele><time>2026-04-19T10:57:57Z</time></trkpt><trkpt lat="42.83824401214227" lon="11.80289306680785"><ele>449.3333333333333</ele><time>2026-04-19T10:57:58Z</time></trkpt><trkpt lat="42.83813090466974" lon="11.802750035150266"><ele>449.66666666666663</ele><time>2026-04-19T10:57:59Z</time></trkpt><trkpt lat="42.838014963711586" lon="11.802602841567152"><ele>450.0</ele><time>2026-04-19T10:58:00Z</time></trkpt><trkpt lat="42.83789293824514" lon="11.802447923027604"><ele>450.0</ele><time>2026-04-19T10:58:01Z</time></trkpt><trkpt lat="42.83776979262378" lon="11.802291530879392"><ele>450.0</ele><time>2026-04-19T10:58:02Z</time></trkpt><trkpt lat="42.83765103559227" lon="11.802140558358625"><ele>450.0</ele><time>2026-04-19T10:58:03Z</time></trkpt><trkpt lat="42.83752733031026" lon="11.80197980342533"><ele>446.66666666666663</ele><time>2026-04-19T10:58:04Z</time></trkpt><trkpt lat="42.83740680838126" lon="11.801802802245902"><ele>443.3333333333333</ele><time>2026-04-19T10:58:05Z</time></trkpt><trkpt lat="42.8372937322174" lon="11.801607381006916"><ele>440.0</ele><time>2026-04-19T10:58:06Z</time></trkpt><trkpt lat="42.837177473274664" lon="11.801388370705412"><ele>440.0</ele><time>2026-04-19T10:58:07Z</time></trkpt><trkpt lat="42.83705911469986" lon="11.801155418497267"><ele>440.0</ele><time>2026-04-19T10:58:08Z</time></trkpt><trkpt lat="42.83693616884569" lon="11.800924557945665"><ele>440.0</ele><time>2026-04-19T10:58:09Z</time></trkpt><trkpt lat="42.836810435237666" lon="11.80068587973258"><ele>437.3333333333333</ele><time>2026-04-19T10:58:10Z</time></trkpt><trkpt lat="42.83668832557074" lon="11.800454592893656"><ele>434.66666666666663</ele><time>2026-04-19T10:58:11Z</time></trkpt><trkpt lat="42.836564116172035" lon="11.800227242789457"><ele>432.0</ele><time>2026-04-19T10:58:12Z</time></trkpt><trkpt lat="42.836449998982" lon="11.800027793559257"><ele>431.0</ele><time>2026-04-19T10:58:13Z</time></trkpt><trkpt lat="42.83633608092081" lon="11.799829470600182"><ele>430.0</ele><time>2026-04-19T10:58:14Z</time></trkpt><trkpt lat="42.836222364079305" lon="11.799631889343416"><ele>429.0</ele><time>2026-04-19T10:58:15Z</time></trkpt><trkpt lat="42.83610757392524" lon="11.799432443248502"><ele>431.0</ele><time>2026-04-19T10:58:16Z</time></trkpt><trkpt lat="42.83599192173599" lon="11.799236968390979"><ele>433.0</ele><time>2026-04-19T10:58:17Z</time></trkpt><trkpt lat="42.8358846913824" lon="11.79905827040728"><ele>435.0</ele><time>2026-04-19T10:58:18Z</time></trkpt><trkpt lat="42.83579283226297" lon="11.798899937846206"><ele>435.0</ele><time>2026-04-19T10:58:19Z</time></trkpt><trkpt lat="42.83570510318913" lon="11.798744952338737"><ele>435.0</ele><time>2026-04-19T10:58:20Z</time></trkpt><trkpt lat="42.83562327156717" lon="11.798577706560366"><ele>435.0</ele><time>2026-04-19T10:58:21Z</time></trkpt><trkpt lat="42.83556672541004" lon="11.798406661851251"><ele>435.0</ele><time>2026-04-19T10:58:22Z</time></trkpt><trkpt lat="42.835528506015194" lon="11.798242348878919"><ele>434.66666666666663</ele><time>2026-04-19T10:58:23Z</time></trkpt><trkpt lat="42.8354905350732" lon="11.79806155306747"><ele>434.3333333333333</ele><time>2026-04-19T10:58:24Z</time></trkpt><trkpt lat="42.83546203435672" lon="11.797839534129631"><ele>434.0</ele><time>2026-04-19T10:58:25Z</time></trkpt><trkpt lat="42.835441690027665" lon="11.797561453492994"><ele>433.3333333333333</ele><time>2026-04-19T10:58:26Z</time></trkpt><trkpt lat="42.83542569728417" lon="11.79727637198367"><ele>432.66666666666663</ele><time>2026-04-19T10:58:27Z</time></trkpt><trkpt lat="42.83540819684617" lon="11.796972304788468"><ele>432.0</ele><time>2026-04-19T10:58:28Z</time></trkpt><trkpt lat="42.83538252125616" lon="11.796716106302853"><ele>431.33333333333337</ele><time>2026-04-19T10:58:29Z</time></trkpt><trkpt lat="42.83535376236012" lon="11.796491614051103"><ele>430.6666666666667</ele><time>2026-04-19T10:58:30Z</time></trkpt><trkpt lat="42.8353307087969" lon="11.7962911751211"><ele>430.0</ele><time>2026-04-19T10:58:31Z</time></trkpt><trkpt lat="42.83532143962928" lon="11.796101443771816"><ele>430.25</ele><time>2026-04-19T10:58:32Z</time></trkpt><trkpt lat="42.835326552068594" lon="11.795925709616206"><ele>430.5</ele><time>2026-04-19T10:58:33Z</time></trkpt><trkpt lat="42.83532352034947" lon="11.795765185066376"><ele>430.75</ele><time>2026-04-19T10:58:34Z</time></trkpt><trkpt lat="42.83530529992171" lon="11.795600841716453"><ele>431.0</ele><time>2026-04-19T10:58:35Z</time></trkpt><trkpt lat="42.835264909415635" lon="11.795432811482474"><ele>431.0</ele><time>2026-04-19T10:58:36Z</time></trkpt><trkpt lat="42.83521763152547" lon="11.795269010562214"><ele>431.0</ele><time>2026-04-19T10:58:37Z</time></trkpt><trkpt lat="42.835168630924116" lon="11.795114278570896"><ele>431.0</ele><time>2026-04-19T10:58:38Z</time></trkpt><trkpt lat="42.835117025507756" lon="11.794958597702427"><ele>431.0</ele><time>2026-04-19T10:58:39Z</time></trkpt><trkpt lat="42.835069108361864" lon="11.794814150367365"><ele>431.5</ele><time>2026-04-19T10:58:40Z</time></trkpt><trkpt lat="42.8350215345646" lon="11.794673046652223"><ele>432.0</ele><time>2026-04-19T10:58:41Z</time></trkpt><trkpt lat="42.83495957053604" lon="11.794509880012484"><ele>432.5</ele><time>2026-04-19T10:58:42Z</time></trkpt><trkpt lat="42.834887306105934" lon="11.794345335736095"><ele>433.0</ele><time>2026-04-19T10:58:43Z</time></trkpt><trkpt lat="42.83480432526468" lon="11.794178800370403"><ele>433.0</ele><time>2026-04-19T10:58:44Z</time></trkpt><trkpt lat="42.83469519782326" lon="11.794014594186574"><ele>433.0</ele><time>2026-04-19T10:58:45Z</time></trkpt><trkpt lat="42.83455637155582" lon="11.793869301978653"><ele>433.0</ele><time>2026-04-19T10:58:46Z</time></trkpt><trkpt lat="42.83440921867677" lon="11.793724248257034"><ele>429.0</ele><time>2026-04-19T10:58:47Z</time></trkpt><trkpt lat="42.834268783207094" lon="11.793577460672847"><ele>425.0</ele><time>2026-04-19T10:58:48Z</time></trkpt><trkpt lat="42.83414471869592" lon="11.79344442061551"><ele>421.0</ele><time>2026-04-19T10:58:49Z</time></trkpt><trkpt lat="42.834028493924144" lon="11.793309066908785"><ele>420.33333333333337</ele><time>2026-04-19T10:58:50Z</time></trkpt><trkpt lat="42.8339190903331" lon="11.793159843630283"><ele>419.66666666666663</ele><time>2026-04-19T10:58:51Z</time></trkpt><trkpt lat="42.83380719999203" lon="11.792991295516833"><ele>419.0</ele><time>2026-04-19T10:58:52Z</time></trkpt><trkpt lat="42.83370062926302" lon="11.792831442590405"><ele>419.0</ele><time>2026-04-19T10:58:53Z</time></trkpt><trkpt lat="42.83359586689112" lon="11.792678524450526"><ele>419.0</ele><time>2026-04-19T10:58:54Z</time></trkpt><trkpt lat="42.83350065946077" lon="11.792540208556204"><ele>419.0</ele><time>2026-04-19T10:58:55Z</time></trkpt><trkpt lat="42.83340963021569" lon="11.792413042732585"><ele>419.0</ele><time>2026-04-19T10:58:56Z</time></trkpt><trkpt lat="42.83332177300231" lon="11.79230024061517"><ele>418.79999999999995</ele><time>2026-04-19T10:58:57Z</time></trkpt><trkpt lat="42.8332438212495" lon="11.79220290102835"><ele>418.59999999999997</ele><time>2026-04-19T10:58:58Z</time></trkpt><trkpt lat="42.83316550491604" lon="11.792120562627147"><ele>418.4</ele><time>2026-04-19T10:58:59Z</time></trkpt><trkpt lat="42.833088177891874" lon="11.792049863321456"><ele>418.2</ele><time>2026-04-19T10:59:00Z</time></trkpt><trkpt lat="42.83300780100111" lon="11.791988796627274"><ele>418.0</ele><time>2026-04-19T10:59:01Z</time></trkpt><trkpt lat="42.83292525653591" lon="11.79194040205544"><ele>418.0</ele><time>2026-04-19T10:59:02Z</time></trkpt><trkpt lat="42.83283759822778" lon="11.791912415159846"><ele>418.0</ele><time>2026-04-19T10:59:03Z</time></trkpt><trkpt lat="42.832746033453745" lon="11.79189747325577"><ele>418.0</ele><time>2026-04-19T10:59:04Z</time></trkpt><trkpt lat="42.83264082729398" lon="11.791912274802147"><ele>418.0</ele><time>2026-04-19T10:59:05Z</time></trkpt><trkpt lat="42.832535600128715" lon="11.791937439790727"><ele>418.0</ele><time>2026-04-19T10:59:06Z</time></trkpt><trkpt lat="42.83240727930294" lon="11.791995189305075"><ele>417.5</ele><time>2026-04-19T10:59:07Z</time></trkpt><trkpt lat="42.832281740954016" lon="11.79208511855616"><ele>417.0</ele><time>2026-04-19T10:59:08Z</time></trkpt><trkpt lat="42.832171131071476" lon="11.792151904513991"><ele>416.5</ele><time>2026-04-19T10:59:09Z</time></trkpt><trkpt lat="42.83207392456868" lon="11.792211940482758"><ele>416.0</ele><time>2026-04-19T10:59:10Z</time></trkpt><trkpt lat="42.83198556025471" lon="11.792288837624268"><ele>416.0</ele><time>2026-04-19T10:59:11Z</time></trkpt><trkpt lat="42.83190783543033" lon="11.792397649835666"><ele>416.0</ele><time>2026-04-19T10:59:12Z</time></trkpt><trkpt lat="42.83184646107184" lon="11.792521826344657"><ele>416.0</ele><time>2026-04-19T10:59:13Z</time></trkpt><trkpt lat="42.83180040149297" lon="11.792672581731313"><ele>416.0</ele><time>2026-04-19T10:59:14Z</time></trkpt><trkpt lat="42.8317586491687" lon="11.792853773111434"><ele>413.0</ele><time>2026-04-19T10:59:15Z</time></trkpt><trkpt lat="42.83172487298203" lon="11.793029963835641"><ele>410.0</ele><time>2026-04-19T10:59:16Z</time></trkpt><trkpt lat="42.831688421711405" lon="11.793166229503045"><ele>407.0</ele><time>2026-04-19T10:59:17Z</time></trkpt><trkpt lat="42.831643403581715" lon="11.793287865671209"><ele>404.0</ele><time>2026-04-19T10:59:18Z</time></trkpt><trkpt lat="42.83157863101371" lon="11.793400791455962"><ele>401.0</ele><time>2026-04-19T10:59:19Z</time></trkpt><trkpt lat="42.83149206817874" lon="11.793508516199395"><ele>398.75</ele><time>2026-04-19T10:59:20Z</time></trkpt><trkpt lat="42.83139815539477" lon="11.793581369260426"><ele>396.5</ele><time>2026-04-19T10:59:21Z</time></trkpt><trkpt lat="42.83128250898284" lon="11.793590263124424"><ele>394.25</ele><time>2026-04-19T10:59:22Z</time></trkpt><trkpt lat="42.8311576301229" lon="11.793589374892369"><ele>392.0</ele><time>2026-04-19T10:59:23Z</time></trkpt><trkpt lat="42.8310097897376" lon="11.79357896894805"><ele>392.66666666666663</ele><time>2026-04-19T10:59:24Z</time></trkpt><trkpt lat="42.83083493930169" lon="11.793564446238143"><ele>393.33333333333337</ele><time>2026-04-19T10:59:25Z</time></trkpt><trkpt lat="42.8306459981739" lon="11.793553412972836"><ele>394.0</ele><time>2026-04-19T10:59:26Z</time></trkpt><trkpt lat="42.83045303705916" lon="11.793544464239345"><ele>394.0</ele><time>2026-04-19T10:59:27Z</time></trkpt><trkpt lat="42.83024106386404" lon="11.79353655960403"><ele>394.0</ele><time>2026-04-19T10:59:28Z</time></trkpt><trkpt lat="42.83000572740465" lon="11.79352877499785"><ele>394.0</ele><time>2026-04-19T10:59:29Z</time></trkpt><trkpt lat="42.829790917879535" lon="11.793522833523317"><ele>392.33333333333337</ele><time>2026-04-19T10:59:30Z</time></trkpt><trkpt lat="42.82959997739081" lon="11.793533750211692"><ele>390.66666666666663</ele><time>2026-04-19T10:59:31Z</time></trkpt><trkpt lat="42.82942470037104" lon="11.793530803250777"><ele>389.0</ele><time>2026-04-19T10:59:32Z</time></trkpt><trkpt lat="42.829245775702496" lon="11.793511574862189"><ele>387.66666666666663</ele><time>2026-04-19T10:59:33Z</time></trkpt><trkpt lat="42.829074454157514" lon="11.793529493953745"><ele>386.33333333333337</ele><time>2026-04-19T10:59:34Z</time></trkpt><trkpt lat="42.82891648167278" lon="11.79358329743717"><ele>385.0</ele><time>2026-04-19T10:59:35Z</time></trkpt><trkpt lat="42.82876080094348" lon="11.793686348250558"><ele>385.0</ele><time>2026-04-19T10:59:36Z</time></trkpt><trkpt lat="42.82860121609962" lon="11.793795028672736"><ele>385.0</ele><time>2026-04-19T10:59:37Z</time></trkpt><trkpt lat="42.82846162544477" lon="11.793889717825005"><ele>385.0</ele><time>2026-04-19T10:59:38Z</time></trkpt><trkpt lat="42.828341919898065" lon="11.793965057281833"><ele>386.75</ele><time>2026-04-19T10:59:39Z</time></trkpt><trkpt lat="42.82823571770814" lon="11.794019561761745"><ele>388.5</ele><time>2026-04-19T10:59:40Z</time></trkpt><trkpt lat="42.82813195529685" lon="11.794056826317446"><ele>390.25</ele><time>2026-04-19T10:59:41Z</time></trkpt><trkpt lat="42.82800540728016" lon="11.794052820565147"><ele>392.0</ele><time>2026-04-19T10:59:42Z</time></trkpt><trkpt lat="42.82787435746178" lon="11.794056717201032"><ele>392.0</ele><time>2026-04-19T10:59:43Z</time></trkpt><trkpt lat="42.82775182780262" lon="11.794060905420038"><ele>392.0</ele><time>2026-04-19T10:59:44Z</time></trkpt><trkpt lat="42.82764971676693" lon="11.794063951835621"><ele>392.0</ele><time>2026-04-19T10:59:45Z</time></trkpt><trkpt lat="42.82754753773833" lon="11.79406031799793"><ele>392.0</ele><time>2026-04-19T10:59:46Z</time></trkpt><trkpt lat="42.827436119921096" lon="11.794026868302856"><ele>392.0</ele><time>2026-04-19T10:59:47Z</time></trkpt><trkpt lat="42.82732164923591" lon="11.793967227006943"><ele>392.66666666666663</ele><time>2026-04-19T10:59:48Z</time></trkpt><trkpt lat="42.82717581431272" lon="11.793885311901022"><ele>393.33333333333337</ele><time>2026-04-19T10:59:49Z</time></trkpt><trkpt lat="42.82703258397699" lon="11.793798160288137"><ele>394.0</ele><time>2026-04-19T10:59:50Z</time></trkpt><trkpt lat="42.82690609213432" lon="11.793721119516624"><ele>391.25</ele><time>2026-04-19T10:59:51Z</time></trkpt><trkpt lat="42.82678612973621" lon="11.79365636229769"><ele>388.5</ele><time>2026-04-19T10:59:52Z</time></trkpt><trkpt lat="42.82667599105367" lon="11.79360121367786"><ele>385.75</ele><time>2026-04-19T10:59:53Z</time></trkpt><trkpt lat="42.82657155334821" lon="11.793551848723688"><ele>383.0</ele><time>2026-04-19T10:59:54Z</time></trkpt><trkpt lat="42.82648115956564" lon="11.793513026717648"><ele>383.0</ele><time>2026-04-19T10:59:55Z</time></trkpt><trkpt lat="42.826405537451464" lon="11.793481715391172"><ele>383.0</ele><time>2026-04-19T10:59:56Z</time></trkpt><trkpt lat="42.82633996869409" lon="11.793454566653644"><ele>383.0</ele><time>2026-04-19T10:59:57Z</time></trkpt><trkpt lat="42.826271684544274" lon="11.793432531030605"><ele>383.0</ele><time>2026-04-19T10:59:58Z</time></trkpt><trkpt lat="42.82618177152221" lon="11.793431262726457"><ele>383.0</ele><time>2026-04-19T10:59:59Z</time></trkpt><trkpt lat="42.8260860831929" lon="11.79350111818738"><ele>383.0</ele><time>2026-04-19T11:00:00Z</time></trkpt><trkpt lat="42.82598102280202" lon="11.793579900276965"><ele>381.0</ele><time>2026-04-19T11:00:01Z</time></trkpt><trkpt lat="42.82587201739771" lon="11.793704606542795"><ele>379.0</ele><time>2026-04-19T11:00:02Z</time></trkpt><trkpt lat="42.825762063463635" lon="11.793856384995577"><ele>377.0</ele><time>2026-04-19T11:00:03Z</time></trkpt><trkpt lat="42.825639631399696" lon="11.79403094265024"><ele>377.0</ele><time>2026-04-19T11:00:04Z</time></trkpt><trkpt lat="42.82552364614347" lon="11.794188103172802"><ele>377.0</ele><time>2026-04-19T11:00:05Z</time></trkpt><trkpt lat="42.825420976609244" lon="11.794320602745078"><ele>377.0</ele><time>2026-04-19T11:00:06Z</time></trkpt><trkpt lat="42.82532623552182" lon="11.794440237181593"><ele>377.0</ele><time>2026-04-19T11:00:07Z</time></trkpt><trkpt lat="42.825241163701676" lon="11.794541989725662"><ele>375.40000000000003</ele><time>2026-04-19T11:00:08Z</time></trkpt><trkpt lat="42.825160543305834" lon="11.794630059740895"><ele>373.8</ele><time>2026-04-19T11:00:09Z</time></trkpt><trkpt lat="42.82507048918107" lon="11.794683806551411"><ele>372.2</ele><time>2026-04-19T11:00:10Z</time></trkpt><trkpt lat="42.824964815328244" lon="11.794736111872162"><ele>370.6</ele><time>2026-04-19T11:00:11Z</time></trkpt><trkpt lat="42.82483395953834" lon="11.794772419067082"><ele>369.0</ele><time>2026-04-19T11:00:12Z</time></trkpt><trkpt lat="42.82468450443483" lon="11.79479588447223"><ele>369.0</ele><time>2026-04-19T11:00:13Z</time></trkpt><trkpt lat="42.824523477596564" lon="11.79480883205876"><ele>369.0</ele><time>2026-04-19T11:00:14Z</time></trkpt><trkpt lat="42.82436168308349" lon="11.794823803649034"><ele>369.0</ele><time>2026-04-19T11:00:15Z</time></trkpt><trkpt lat="42.82420041753546" lon="11.794847136944624"><ele>367.0</ele><time>2026-04-19T11:00:16Z</time></trkpt><trkpt lat="42.8240396508273" lon="11.794880331754412"><ele>365.0</ele><time>2026-04-19T11:00:17Z</time></trkpt><trkpt lat="42.82388229286572" lon="11.794914023806154"><ele>363.0</ele><time>2026-04-19T11:00:18Z</time></trkpt><trkpt lat="42.82373334705273" lon="11.794944299539786"><ele>363.0</ele><time>2026-04-19T11:00:19Z</time></trkpt><trkpt lat="42.823593732291926" lon="11.794969837558172"><ele>363.0</ele><time>2026-04-19T11:00:20Z</time></trkpt><trkpt lat="42.823436218081476" lon="11.794998312931272"><ele>363.0</ele><time>2026-04-19T11:00:21Z</time></trkpt><trkpt lat="42.82327932059078" lon="11.795025525909969"><ele>361.5</ele><time>2026-04-19T11:00:22Z</time></trkpt><trkpt lat="42.823138153186044" lon="11.795047151845825"><ele>360.0</ele><time>2026-04-19T11:00:23Z</time></trkpt><trkpt lat="42.823004177450954" lon="11.795064694135533"><ele>358.5</ele><time>2026-04-19T11:00:24Z</time></trkpt><trkpt lat="42.82288094689738" lon="11.795085634378125"><ele>357.0</ele><time>2026-04-19T11:00:25Z</time></trkpt><trkpt lat="42.822764715838325" lon="11.795115802334442"><ele>357.0</ele><time>2026-04-19T11:00:26Z</time></trkpt><trkpt lat="42.82266133271851" lon="11.795160207783079"><ele>357.0</ele><time>2026-04-19T11:00:27Z</time></trkpt><trkpt lat="42.822572710885055" lon="11.795236485960038"><ele>357.0</ele><time>2026-04-19T11:00:28Z</time></trkpt><trkpt lat="42.82247242196656" lon="11.795324972130272"><ele>357.0</ele><time>2026-04-19T11:00:29Z</time></trkpt><trkpt lat="42.82236785377529" lon="11.795459041882479"><ele>354.6666666666667</ele><time>2026-04-19T11:00:30Z</time></trkpt><trkpt lat="42.822260481648485" lon="11.795626720700639"><ele>352.33333333333337</ele><time>2026-04-19T11:00:31Z</time></trkpt><trkpt lat="42.8221461484234" lon="11.795814465493537"><ele>350.0</ele><time>2026-04-19T11:00:32Z</time></trkpt><trkpt lat="42.822014639667636" lon="11.795987245992775"><ele>348.0</ele><time>2026-04-19T11:00:33Z</time></trkpt><trkpt lat="42.82189222603378" lon="11.796180686057708"><ele>346.0</ele><time>2026-04-19T11:00:34Z</time></trkpt><trkpt lat="42.821762660480424" lon="11.796381993162225"><ele>344.0</ele><time>2026-04-19T11:00:35Z</time></trkpt><trkpt lat="42.82161754416522" lon="11.796582738004489"><ele>344.0</ele><time>2026-04-19T11:00:36Z</time></trkpt><trkpt lat="42.82146545061779" lon="11.796768428372806"><ele>344.0</ele><time>2026-04-19T11:00:37Z</time></trkpt><trkpt lat="42.82132020791876" lon="11.796934385277202"><ele>344.0</ele><time>2026-04-19T11:00:38Z</time></trkpt><trkpt lat="42.8211851032272" lon="11.797086362672491"><ele>341.33333333333337</ele><time>2026-04-19T11:00:39Z</time></trkpt><trkpt lat="42.82105573575386" lon="11.797227887211006"><ele>338.6666666666667</ele><time>2026-04-19T11:00:40Z</time></trkpt><trkpt lat="42.82093109298388" lon="11.797361795211952"><ele>336.0</ele><time>2026-04-19T11:00:41Z</time></trkpt><trkpt lat="42.8208146600165" lon="11.79748556767506"><ele>336.0</ele><time>2026-04-19T11:00:42Z</time></trkpt><trkpt lat="42.82069234625981" lon="11.797615058722325"><ele>336.0</ele><time>2026-04-19T11:00:43Z</time></trkpt><trkpt lat="42.8205783072764" lon="11.797734922129623"><ele>336.0</ele><time>2026-04-19T11:00:44Z</time></trkpt><trkpt lat="42.82047422835184" lon="11.79784153473288"><ele>336.0</ele><time>2026-04-19T11:00:45Z</time></trkpt><trkpt lat="42.82037634040033" lon="11.797941349300402"><ele>334.8</ele><time>2026-04-19T11:00:46Z</time></trkpt><trkpt lat="42.82028754204009" lon="11.798051318121274"><ele>333.6</ele><time>2026-04-19T11:00:47Z</time></trkpt><trkpt lat="42.820186603777714" lon="11.79812574378916"><ele>332.4</ele><time>2026-04-19T11:00:48Z</time></trkpt><trkpt lat="42.820103701772986" lon="11.798202758418508"><ele>331.2</ele><time>2026-04-19T11:00:49Z</time></trkpt><trkpt lat="42.82002997497484" lon="11.798271249428236"><ele>330.0</ele><time>2026-04-19T11:00:50Z</time></trkpt><trkpt lat="42.81996259931204" lon="11.798334537455942"><ele>330.0</ele><time>2026-04-19T11:00:51Z</time></trkpt><trkpt lat="42.8199030064873" lon="11.798391250546212"><ele>330.0</ele><time>2026-04-19T11:00:52Z</time></trkpt><trkpt lat="42.81985819339393" lon="11.798461371424882"><ele>330.0</ele><time>2026-04-19T11:00:53Z</time></trkpt><trkpt lat="42.81975199927196" lon="11.798529520749515"><ele>330.0</ele><time>2026-04-19T11:00:55Z</time></trkpt><trkpt lat="42.819678993719776" lon="11.798583885008464"><ele>330.0</ele><time>2026-04-19T11:00:57Z</time></trkpt><trkpt lat="42.819574423054654" lon="11.798459829048419"><ele>330.0</ele><time>2026-04-19T11:00:59Z</time></trkpt><trkpt lat="42.8195166492794" lon="11.798376541516594"><ele>330.0</ele><time>2026-04-19T11:01:00Z</time></trkpt><trkpt lat="42.81944325384621" lon="11.798258917606002"><ele>330.0</ele><time>2026-04-19T11:01:01Z</time></trkpt><trkpt lat="42.81941917038141" lon="11.7980935044479"><ele>330.0</ele><time>2026-04-19T11:01:02Z</time></trkpt><trkpt lat="42.819403710421945" lon="11.797930205935367"><ele>330.0</ele><time>2026-04-19T11:01:03Z</time></trkpt><trkpt lat="42.819429852368565" lon="11.797756792888213"><ele>329.3333333333333</ele><time>2026-04-19T11:01:04Z</time></trkpt><trkpt lat="42.81949105484573" lon="11.797588561368123"><ele>328.66666666666663</ele><time>2026-04-19T11:01:05Z</time></trkpt><trkpt lat="42.81959126225395" lon="11.797410221266246"><ele>328.0</ele><time>2026-04-19T11:01:06Z</time></trkpt><trkpt lat="42.81969536680228" lon="11.797193356122039"><ele>328.0</ele><time>2026-04-19T11:01:07Z</time></trkpt><trkpt lat="42.81982820088282" lon="11.796989433087763"><ele>328.0</ele><time>2026-04-19T11:01:08Z</time></trkpt><trkpt lat="42.81993621435555" lon="11.796771145952492"><ele>328.0</ele><time>2026-04-19T11:01:09Z</time></trkpt><trkpt lat="42.820049215569796" lon="11.796527611926416"><ele>330.3333333333333</ele><time>2026-04-19T11:01:10Z</time></trkpt><trkpt lat="42.82015487812122" lon="11.796273788829074"><ele>332.6666666666667</ele><time>2026-04-19T11:01:11Z</time></trkpt><trkpt lat="42.82025257301563" lon="11.79601892170389"><ele>335.0</ele><time>2026-04-19T11:01:12Z</time></trkpt><trkpt lat="42.820347066290644" lon="11.795753527257938"><ele>330.33333333333337</ele><time>2026-04-19T11:01:13Z</time></trkpt><trkpt lat="42.82043911374046" lon="11.795487442395789"><ele>325.6666666666667</ele><time>2026-04-19T11:01:14Z</time></trkpt><trkpt lat="42.820524184064936" lon="11.795233463169286"><ele>321.0</ele><time>2026-04-19T11:01:15Z</time></trkpt><trkpt lat="42.82069180901536" lon="11.794764549341021"><ele>318.0</ele><time>2026-04-19T11:01:17Z</time></trkpt><trkpt lat="42.82076572508418" lon="11.79454348414804"><ele>315.0</ele><time>2026-04-19T11:01:18Z</time></trkpt><trkpt lat="42.82083785614864" lon="11.79432775748264"><ele>312.0</ele><time>2026-04-19T11:01:19Z</time></trkpt><trkpt lat="42.82090731186229" lon="11.794132553719654"><ele>309.6666666666667</ele><time>2026-04-19T11:01:20Z</time></trkpt><trkpt lat="42.82098096955073" lon="11.793939746669368"><ele>307.33333333333337</ele><time>2026-04-19T11:01:21Z</time></trkpt><trkpt lat="42.82106066310521" lon="11.793749440425598"><ele>305.0</ele><time>2026-04-19T11:01:22Z</time></trkpt><trkpt lat="42.82113365969153" lon="11.793542201938068"><ele>307.6666666666667</ele><time>2026-04-19T11:01:23Z</time></trkpt><trkpt lat="42.82122314721566" lon="11.7933495837265"><ele>310.3333333333333</ele><time>2026-04-19T11:01:24Z</time></trkpt><trkpt lat="42.821328134522105" lon="11.793167710458247"><ele>313.0</ele><time>2026-04-19T11:01:25Z</time></trkpt><trkpt lat="42.82142238221941" lon="11.792968729292351"><ele>313.0</ele><time>2026-04-19T11:01:26Z</time></trkpt><trkpt lat="42.82152095437471" lon="11.792764036577747"><ele>313.0</ele><time>2026-04-19T11:01:27Z</time></trkpt><trkpt lat="42.82162338956889" lon="11.792551672345825"><ele>313.0</ele><time>2026-04-19T11:01:28Z</time></trkpt><trkpt lat="42.821712095871156" lon="11.79232765139794"><ele>313.3333333333333</ele><time>2026-04-19T11:01:29Z</time></trkpt><trkpt lat="42.82181619015189" lon="11.792113836354165"><ele>313.6666666666667</ele><time>2026-04-19T11:01:30Z</time></trkpt><trkpt lat="42.821917981748" lon="11.791905436046237"><ele>314.0</ele><time>2026-04-19T11:01:31Z</time></trkpt><trkpt lat="42.82201916794486" lon="11.791701491405934"><ele>311.33333333333337</ele><time>2026-04-19T11:01:32Z</time></trkpt><trkpt lat="42.82210481601794" lon="11.7915188007134"><ele>308.6666666666667</ele><time>2026-04-19T11:01:33Z</time></trkpt><trkpt lat="42.82216797192328" lon="11.791324821363093"><ele>306.0</ele><time>2026-04-19T11:01:34Z</time></trkpt><trkpt lat="42.822178940418354" lon="11.791096445255684"><ele>303.6666666666667</ele><time>2026-04-19T11:01:35Z</time></trkpt><trkpt lat="42.822221462598506" lon="11.79087434121223"><ele>301.33333333333337</ele><time>2026-04-19T11:01:36Z</time></trkpt><trkpt lat="42.82225156730795" lon="11.790646909398218"><ele>299.0</ele><time>2026-04-19T11:01:37Z</time></trkpt><trkpt lat="42.8222955718739" lon="11.790413289839586"><ele>299.0</ele><time>2026-04-19T11:01:38Z</time></trkpt><trkpt lat="42.822337218715255" lon="11.790182806040896"><ele>299.0</ele><time>2026-04-19T11:01:39Z</time></trkpt><trkpt lat="42.82237674481282" lon="11.78995654710237"><ele>299.0</ele><time>2026-04-19T11:01:40Z</time></trkpt><trkpt lat="42.82242525708096" lon="11.789729621202381"><ele>299.33333333333337</ele><time>2026-04-19T11:01:41Z</time></trkpt><trkpt lat="42.82249669478888" lon="11.789492831079537"><ele>299.6666666666667</ele><time>2026-04-19T11:01:42Z</time></trkpt><trkpt lat="42.8226301719369" lon="11.789281061732703"><ele>300.0</ele><time>2026-04-19T11:01:43Z</time></trkpt><trkpt lat="42.82277235509068" lon="11.789023522227723"><ele>300.0</ele><time>2026-04-19T11:01:44Z</time></trkpt><trkpt lat="42.822917553374744" lon="11.788736224965508"><ele>300.0</ele><time>2026-04-19T11:01:45Z</time></trkpt><trkpt lat="42.82308714663112" lon="11.788441204340975"><ele>298.0</ele><time>2026-04-19T11:01:46Z</time></trkpt><trkpt lat="42.823262182744486" lon="11.788123619018375"><ele>296.0</ele><time>2026-04-19T11:01:47Z</time></trkpt><trkpt lat="42.82343030725308" lon="11.787816481099672"><ele>296.5</ele><time>2026-04-19T11:01:48Z</time></trkpt><trkpt lat="42.823599089252916" lon="11.787508007900897"><ele>297.0</ele><time>2026-04-19T11:01:49Z</time></trkpt><trkpt lat="42.82376794235035" lon="11.787200028640342"><ele>297.0</ele><time>2026-04-19T11:01:50Z</time></trkpt><trkpt lat="42.82393592504252" lon="11.78689874607395"><ele>297.0</ele><time>2026-04-19T11:01:51Z</time></trkpt><trkpt lat="42.82409042203401" lon="11.786595762650725"><ele>296.0</ele><time>2026-04-19T11:01:52Z</time></trkpt><trkpt lat="42.82422552304308" lon="11.786281470953856"><ele>295.0</ele><time>2026-04-19T11:01:53Z</time></trkpt><trkpt lat="42.824334846568874" lon="11.785949042594138"><ele>299.5</ele><time>2026-04-19T11:01:54Z</time></trkpt><trkpt lat="42.82442103490429" lon="11.785606854843666"><ele>304.0</ele><time>2026-04-19T11:01:55Z</time></trkpt><trkpt lat="42.82449412341292" lon="11.785265997945425"><ele>305.0</ele><time>2026-04-19T11:01:56Z</time></trkpt><trkpt lat="42.82454905493814" lon="11.784918705715342"><ele>306.0</ele><time>2026-04-19T11:01:57Z</time></trkpt><trkpt lat="42.82459804734544" lon="11.784578291344515"><ele>305.5</ele><time>2026-04-19T11:01:58Z</time></trkpt><trkpt lat="42.824646742489335" lon="11.784255308158487"><ele>305.0</ele><time>2026-04-19T11:01:59Z</time></trkpt><trkpt lat="42.8247150084487" lon="11.78395922123645"><ele>305.0</ele><time>2026-04-19T11:02:00Z</time></trkpt><trkpt lat="42.8247688429104" lon="11.78366644882269"><ele>305.0</ele><time>2026-04-19T11:02:01Z</time></trkpt><trkpt lat="42.82482254170236" lon="11.783370359952752"><ele>305.0</ele><time>2026-04-19T11:02:02Z</time></trkpt><trkpt lat="42.82487624218452" lon="11.783072613128354"><ele>303.0</ele><time>2026-04-19T11:02:03Z</time></trkpt><trkpt lat="42.824929200664926" lon="11.782776401362351"><ele>301.0</ele><time>2026-04-19T11:02:04Z</time></trkpt><trkpt lat="42.82496666744885" lon="11.782470402123424"><ele>298.5</ele><time>2026-04-19T11:02:05Z</time></trkpt><trkpt lat="42.82501730711969" lon="11.782167791696807"><ele>296.0</ele><time>2026-04-19T11:02:06Z</time></trkpt><trkpt lat="42.825060479243014" lon="11.78186356426083"><ele>295.5</ele><time>2026-04-19T11:02:07Z</time></trkpt><trkpt lat="42.82509312394576" lon="11.781550656145372"><ele>295.0</ele><time>2026-04-19T11:02:08Z</time></trkpt><trkpt lat="42.82511300165371" lon="11.78123663717143"><ele>294.0</ele><time>2026-04-19T11:02:09Z</time></trkpt><trkpt lat="42.82512765046347" lon="11.780925616432924"><ele>293.0</ele><time>2026-04-19T11:02:10Z</time></trkpt><trkpt lat="42.82514565953667" lon="11.7806099042734"><ele>293.6666666666667</ele><time>2026-04-19T11:02:11Z</time></trkpt><trkpt lat="42.82517062788139" lon="11.78030570080312"><ele>294.3333333333333</ele><time>2026-04-19T11:02:12Z</time></trkpt><trkpt lat="42.82520901472554" lon="11.780003975126158"><ele>295.0</ele><time>2026-04-19T11:02:13Z</time></trkpt><trkpt lat="42.82528762925483" lon="11.779722278575147"><ele>295.0</ele><time>2026-04-19T11:02:14Z</time></trkpt><trkpt lat="42.825331858091346" lon="11.779433405016531"><ele>295.0</ele><time>2026-04-19T11:02:15Z</time></trkpt><trkpt lat="42.82537597158824" lon="11.779140010457468"><ele>295.0</ele><time>2026-04-19T11:02:16Z</time></trkpt><trkpt lat="42.82540005626386" lon="11.778847214350296"><ele>294.66666666666663</ele><time>2026-04-19T11:02:17Z</time></trkpt><trkpt lat="42.82542318559056" lon="11.778572787389404"><ele>294.3333333333333</ele><time>2026-04-19T11:02:18Z</time></trkpt><trkpt lat="42.825452193679084" lon="11.778313009393798"><ele>294.0</ele><time>2026-04-19T11:02:19Z</time></trkpt><trkpt lat="42.82547744507283" lon="11.77803925504455"><ele>293.6666666666667</ele><time>2026-04-19T11:02:20Z</time></trkpt><trkpt lat="42.82548343640182" lon="11.777755296331206"><ele>293.33333333333337</ele><time>2026-04-19T11:02:21Z</time></trkpt><trkpt lat="42.825458651047235" lon="11.777463021890968"><ele>293.0</ele><time>2026-04-19T11:02:22Z</time></trkpt><trkpt lat="42.82542435043931" lon="11.777163060294555"><ele>294.0</ele><time>2026-04-19T11:02:23Z</time></trkpt><trkpt lat="42.82537727698938" lon="11.776867512992194"><ele>295.0</ele><time>2026-04-19T11:02:24Z</time></trkpt><trkpt lat="42.8253298274861" lon="11.776569604665157"><ele>296.0</ele><time>2026-04-19T11:02:25Z</time></trkpt><trkpt lat="42.825275398551284" lon="11.776271370627962"><ele>296.5</ele><time>2026-04-19T11:02:26Z</time></trkpt><trkpt lat="42.825063851742186" lon="11.776010240487288"><ele>297.0</ele><time>2026-04-19T11:02:27Z</time></trkpt><trkpt lat="42.8249762810391" lon="11.775707053778921"><ele>297.0</ele><time>2026-04-19T11:02:28Z</time></trkpt><trkpt lat="42.82488193318465" lon="11.775406052730245"><ele>297.0</ele><time>2026-04-19T11:02:29Z</time></trkpt><trkpt lat="42.82478922461358" lon="11.77510764297151"><ele>298.0</ele><time>2026-04-19T11:02:30Z</time></trkpt><trkpt lat="42.82469725711752" lon="11.774806778637812"><ele>299.0</ele><time>2026-04-19T11:02:31Z</time></trkpt><trkpt lat="42.82460504343151" lon="11.77450219756719"><ele>301.0</ele><time>2026-04-19T11:02:32Z</time></trkpt><trkpt lat="42.824511717046775" lon="11.774200281339269"><ele>303.0</ele><time>2026-04-19T11:02:33Z</time></trkpt><trkpt lat="42.824421800849755" lon="11.773901840142882"><ele>303.0</ele><time>2026-04-19T11:02:34Z</time></trkpt><trkpt lat="42.82433736281951" lon="11.773624532009011"><ele>303.0</ele><time>2026-04-19T11:02:35Z</time></trkpt><trkpt lat="42.82425533413282" lon="11.773369314683222"><ele>303.0</ele><time>2026-04-19T11:02:36Z</time></trkpt><trkpt lat="42.82417340446444" lon="11.773120538305866"><ele>300.6666666666667</ele><time>2026-04-19T11:02:37Z</time></trkpt><trkpt lat="42.82409889388829" lon="11.772886731534296"><ele>298.33333333333337</ele><time>2026-04-19T11:02:38Z</time></trkpt><trkpt lat="42.824027349841664" lon="11.772638076967505"><ele>296.0</ele><time>2026-04-19T11:02:39Z</time></trkpt><trkpt lat="42.82395526528839" lon="11.772384356631118"><ele>296.0</ele><time>2026-04-19T11:02:40Z</time></trkpt><trkpt lat="42.82388098317809" lon="11.772133725084286"><ele>296.0</ele><time>2026-04-19T11:02:41Z</time></trkpt><trkpt lat="42.823812049538084" lon="11.771878757411265"><ele>296.0</ele><time>2026-04-19T11:02:42Z</time></trkpt><trkpt lat="42.82376212717523" lon="11.771612542678687"><ele>296.0</ele><time>2026-04-19T11:02:43Z</time></trkpt><trkpt lat="42.82372671611686" lon="11.771325136335511"><ele>296.0</ele><time>2026-04-19T11:02:44Z</time></trkpt><trkpt lat="42.823692115139885" lon="11.771031364363315"><ele>296.0</ele><time>2026-04-19T11:02:45Z</time></trkpt><trkpt lat="42.8236665880305" lon="11.770737620174776"><ele>296.0</ele><time>2026-04-19T11:02:46Z</time></trkpt><trkpt lat="42.82366589341575" lon="11.770436947071264"><ele>296.0</ele><time>2026-04-19T11:02:47Z</time></trkpt><trkpt lat="42.823680961806076" lon="11.770131993504057"><ele>296.0</ele><time>2026-04-19T11:02:48Z</time></trkpt><trkpt lat="42.823711261801165" lon="11.769827767376405"><ele>297.5</ele><time>2026-04-19T11:02:49Z</time></trkpt><trkpt lat="42.82375818894182" lon="11.769525149216003"><ele>299.0</ele><time>2026-04-19T11:02:50Z</time></trkpt><trkpt lat="42.823821074205426" lon="11.769212517659534"><ele>299.0</ele><time>2026-04-19T11:02:51Z</time></trkpt><trkpt lat="42.82390146064574" lon="11.76889865882042"><ele>299.0</ele><time>2026-04-19T11:02:52Z</time></trkpt><trkpt lat="42.824001127828325" lon="11.7685923593484"><ele>299.0</ele><time>2026-04-19T11:02:53Z</time></trkpt><trkpt lat="42.82411685086169" lon="11.768295661078113"><ele>299.0</ele><time>2026-04-19T11:02:54Z</time></trkpt><trkpt lat="42.82425011215331" lon="11.768011594690474"><ele>300.0</ele><time>2026-04-19T11:02:55Z</time></trkpt><trkpt lat="42.8244019717516" lon="11.767741113260161"><ele>301.0</ele><time>2026-04-19T11:02:56Z</time></trkpt><trkpt lat="42.824563657386385" lon="11.767484484769593"><ele>301.0</ele><time>2026-04-19T11:02:57Z</time></trkpt><trkpt lat="42.82473781048884" lon="11.767236097716852"><ele>301.0</ele><time>2026-04-19T11:02:58Z</time></trkpt><trkpt lat="42.82491580269439" lon="11.767001673894837"><ele>300.3333333333333</ele><time>2026-04-19T11:02:59Z</time></trkpt><trkpt lat="42.825083089332445" lon="11.766784642157129"><ele>299.6666666666667</ele><time>2026-04-19T11:03:00Z</time></trkpt><trkpt lat="42.825243229190995" lon="11.76658681610944"><ele>299.0</ele><time>2026-04-19T11:03:01Z</time></trkpt><trkpt lat="42.825401652820425" lon="11.766392415306935"><ele>299.33333333333337</ele><time>2026-04-19T11:03:02Z</time></trkpt><trkpt lat="42.82555941708567" lon="11.766187809016813"><ele>299.6666666666667</ele><time>2026-04-19T11:03:03Z</time></trkpt><trkpt lat="42.82571772280779" lon="11.765969675118495"><ele>300.0</ele><time>2026-04-19T11:03:04Z</time></trkpt><trkpt lat="42.82588388894969" lon="11.765743755170416"><ele>303.0</ele><time>2026-04-19T11:03:05Z</time></trkpt><trkpt lat="42.82605836310282" lon="11.765515948467117"><ele>306.0</ele><time>2026-04-19T11:03:06Z</time></trkpt><trkpt lat="42.82623895135437" lon="11.765283969829046"><ele>304.0</ele><time>2026-04-19T11:03:07Z</time></trkpt><trkpt lat="42.826421295540754" lon="11.765047478443554"><ele>302.0</ele><time>2026-04-19T11:03:08Z</time></trkpt><trkpt lat="42.82660432593502" lon="11.764808058085341"><ele>302.0</ele><time>2026-04-19T11:03:09Z</time></trkpt><trkpt lat="42.826789352149774" lon="11.76456825757364"><ele>302.0</ele><time>2026-04-19T11:03:10Z</time></trkpt><trkpt lat="42.8269744388919" lon="11.764329170381384"><ele>303.5</ele><time>2026-04-19T11:03:11Z</time></trkpt><trkpt lat="42.827158577494224" lon="11.764088640681457"><ele>305.0</ele><time>2026-04-19T11:03:12Z</time></trkpt><trkpt lat="42.827344864941324" lon="11.763848849705907"><ele>305.0</ele><time>2026-04-19T11:03:13Z</time></trkpt><trkpt lat="42.82752635558368" lon="11.763608270300598"><ele>305.0</ele><time>2026-04-19T11:03:14Z</time></trkpt><trkpt lat="42.82770087649891" lon="11.763376645561157"><ele>306.5</ele><time>2026-04-19T11:03:15Z</time></trkpt><trkpt lat="42.82787578479047" lon="11.763146722512086"><ele>308.0</ele><time>2026-04-19T11:03:16Z</time></trkpt><trkpt lat="42.82805394522955" lon="11.762932371337524"><ele>308.0</ele><time>2026-04-19T11:03:17Z</time></trkpt><trkpt lat="42.8282415764429" lon="11.76273484553629"><ele>308.0</ele><time>2026-04-19T11:03:18Z</time></trkpt><trkpt lat="42.828437047361504" lon="11.762554224422106"><ele>307.5</ele><time>2026-04-19T11:03:19Z</time></trkpt><trkpt lat="42.828640512946265" lon="11.762377879696695"><ele>307.0</ele><time>2026-04-19T11:03:20Z</time></trkpt><trkpt lat="42.82884587548037" lon="11.762196284154601"><ele>307.0</ele><time>2026-04-19T11:03:21Z</time></trkpt><trkpt lat="42.82905154252403" lon="11.762013684134882"><ele>307.0</ele><time>2026-04-19T11:03:22Z</time></trkpt><trkpt lat="42.829256917775815" lon="11.761822684748005"><ele>308.0</ele><time>2026-04-19T11:03:23Z</time></trkpt><trkpt lat="42.829460197887684" lon="11.761632066665364"><ele>309.0</ele><time>2026-04-19T11:03:24Z</time></trkpt><trkpt lat="42.82966370744278" lon="11.761443540609346"><ele>309.0</ele><time>2026-04-19T11:03:25Z</time></trkpt><trkpt lat="42.82986550086693" lon="11.761257208947372"><ele>309.0</ele><time>2026-04-19T11:03:26Z</time></trkpt><trkpt lat="42.83007222697096" lon="11.761066403987984"><ele>311.5</ele><time>2026-04-19T11:03:27Z</time></trkpt><trkpt lat="42.8302793576877" lon="11.760879004720415"><ele>314.0</ele><time>2026-04-19T11:03:28Z</time></trkpt><trkpt lat="42.83049015794993" lon="11.760690902686365"><ele>314.0</ele><time>2026-04-19T11:03:29Z</time></trkpt><trkpt lat="42.83069824519491" lon="11.760502477415939"><ele>314.0</ele><time>2026-04-19T11:03:30Z</time></trkpt><trkpt lat="42.8309060314418" lon="11.760308802190055"><ele>314.0</ele><time>2026-04-19T11:03:31Z</time></trkpt><trkpt lat="42.83110929695995" lon="11.760118454454934"><ele>314.0</ele><time>2026-04-19T11:03:32Z</time></trkpt><trkpt lat="42.83131452849781" lon="11.759953291894748"><ele>314.0</ele><time>2026-04-19T11:03:33Z</time></trkpt><trkpt lat="42.831508655498055" lon="11.75977764203616"><ele>314.0</ele><time>2026-04-19T11:03:34Z</time></trkpt><trkpt lat="42.83168764128971" lon="11.75959011998548"><ele>315.0</ele><time>2026-04-19T11:03:35Z</time></trkpt><trkpt lat="42.83187663811808" lon="11.75942454224934"><ele>316.0</ele><time>2026-04-19T11:03:36Z</time></trkpt><trkpt lat="42.83206082683206" lon="11.75926068882837"><ele>317.0</ele><time>2026-04-19T11:03:37Z</time></trkpt><trkpt lat="42.83224321853964" lon="11.759094789766198"><ele>317.5</ele><time>2026-04-19T11:03:38Z</time></trkpt><trkpt lat="42.83242577902961" lon="11.758921681844287"><ele>318.0</ele><time>2026-04-19T11:03:39Z</time></trkpt><trkpt lat="42.83262385991984" lon="11.758762949538"><ele>318.5</ele><time>2026-04-19T11:03:40Z</time></trkpt><trkpt lat="42.83282105546211" lon="11.758582836998508"><ele>319.0</ele><time>2026-04-19T11:03:41Z</time></trkpt><trkpt lat="42.833008159955824" lon="11.75841194139185"><ele>319.0</ele><time>2026-04-19T11:03:42Z</time></trkpt><trkpt lat="42.833179258942614" lon="11.75825538624161"><ele>319.0</ele><time>2026-04-19T11:03:43Z</time></trkpt><trkpt lat="42.8333423209896" lon="11.758105811255312"><ele>319.0</ele><time>2026-04-19T11:03:44Z</time></trkpt><trkpt lat="42.83349405674462" lon="11.757966625740679"><ele>319.0</ele><time>2026-04-19T11:03:45Z</time></trkpt><trkpt lat="42.83363872699657" lon="11.757834200053933"><ele>319.0</ele><time>2026-04-19T11:03:46Z</time></trkpt><trkpt lat="42.83377792755362" lon="11.757707626322576"><ele>319.0</ele><time>2026-04-19T11:03:47Z</time></trkpt><trkpt lat="42.83392224050897" lon="11.757576403927535"><ele>319.0</ele><time>2026-04-19T11:03:48Z</time></trkpt><trkpt lat="42.834064436567765" lon="11.757446283127548"><ele>319.0</ele><time>2026-04-19T11:03:49Z</time></trkpt><trkpt lat="42.83419593992382" lon="11.757324560992501"><ele>319.0</ele><time>2026-04-19T11:03:50Z</time></trkpt><trkpt lat="42.8343268563201" lon="11.75720510337053"><ele>319.3333333333333</ele><time>2026-04-19T11:03:51Z</time></trkpt><trkpt lat="42.834462259704445" lon="11.757086092865116"><ele>319.6666666666667</ele><time>2026-04-19T11:03:52Z</time></trkpt><trkpt lat="42.834609163078156" lon="11.756970056882691"><ele>320.0</ele><time>2026-04-19T11:03:53Z</time></trkpt><trkpt lat="42.834769369233996" lon="11.756867948652884"><ele>320.0</ele><time>2026-04-19T11:03:54Z</time></trkpt><trkpt lat="42.83494225693703" lon="11.756776029843492"><ele>320.0</ele><time>2026-04-19T11:03:55Z</time></trkpt><trkpt lat="42.835116551151394" lon="11.756667347348966"><ele>320.0</ele><time>2026-04-19T11:03:56Z</time></trkpt><trkpt lat="42.835297445298266" lon="11.756586962445333"><ele>320.33333333333337</ele><time>2026-04-19T11:03:57Z</time></trkpt><trkpt lat="42.83546478810336" lon="11.756508753805686"><ele>320.6666666666667</ele><time>2026-04-19T11:03:58Z</time></trkpt><trkpt lat="42.835619432094425" lon="11.756425434496158"><ele>321.0</ele><time>2026-04-19T11:03:59Z</time></trkpt><trkpt lat="42.83576865735953" lon="11.756372260091913"><ele>321.0</ele><time>2026-04-19T11:04:00Z</time></trkpt><trkpt lat="42.83590905309501" lon="11.756303994625782"><ele>321.0</ele><time>2026-04-19T11:04:01Z</time></trkpt><trkpt lat="42.83605001318932" lon="11.75623545475932"><ele>321.0</ele><time>2026-04-19T11:04:02Z</time></trkpt><trkpt lat="42.83617731084507" lon="11.756150202338917"><ele>321.0</ele><time>2026-04-19T11:04:03Z</time></trkpt><trkpt lat="42.83630061296953" lon="11.75608935057128"><ele>321.0</ele><time>2026-04-19T11:04:04Z</time></trkpt><trkpt lat="42.83643340155186" lon="11.756046408344906"><ele>321.0</ele><time>2026-04-19T11:04:05Z</time></trkpt><trkpt lat="42.83656633443536" lon="11.755980814972842"><ele>321.0</ele><time>2026-04-19T11:04:06Z</time></trkpt><trkpt lat="42.836708216532855" lon="11.755910805812016"><ele>321.0</ele><time>2026-04-19T11:04:07Z</time></trkpt><trkpt lat="42.83685066541484" lon="11.755841970157585"><ele>321.0</ele><time>2026-04-19T11:04:08Z</time></trkpt><trkpt lat="42.83699258544394" lon="11.755772258369003"><ele>321.0</ele><time>2026-04-19T11:04:09Z</time></trkpt><trkpt lat="42.83713265020668" lon="11.755703697727332"><ele>321.0</ele><time>2026-04-19T11:04:10Z</time></trkpt><trkpt lat="42.83726503324656" lon="11.75563888786107"><ele>321.0</ele><time>2026-04-19T11:04:11Z</time></trkpt><trkpt lat="42.83739919026735" lon="11.755573209502694"><ele>321.0</ele><time>2026-04-19T11:04:12Z</time></trkpt><trkpt lat="42.837531531716024" lon="11.755508419979408"><ele>321.0</ele><time>2026-04-19T11:04:13Z</time></trkpt><trkpt lat="42.83779143627559" lon="11.755381113815602"><ele>321.0</ele><time>2026-04-19T11:04:15Z</time></trkpt><trkpt lat="42.83790615889138" lon="11.755324501254782"><ele>320.6</ele><time>2026-04-19T11:04:16Z</time></trkpt><trkpt lat="42.8380138592888" lon="11.755270750950162"><ele>320.20000000000005</ele><time>2026-04-19T11:04:17Z</time></trkpt><trkpt lat="42.838119503854955" lon="11.755218037577276"><ele>319.79999999999995</ele><time>2026-04-19T11:04:18Z</time></trkpt><trkpt lat="42.83821889142146" lon="11.755168582710752"><ele>319.4</ele><time>2026-04-19T11:04:19Z</time></trkpt><trkpt lat="42.838308247676444" lon="11.755124119355566"><ele>319.0</ele><time>2026-04-19T11:04:20Z</time></trkpt><trkpt lat="42.838375941406035" lon="11.755090435351892"><ele>319.0</ele><time>2026-04-19T11:04:21Z</time></trkpt><trkpt lat="42.83832984329864" lon="11.754769377658775"><ele>319.0</ele><time>2026-04-19T11:04:23Z</time></trkpt><trkpt lat="42.83832049037758" lon="11.75462434287267"><ele>319.0</ele><time>2026-04-19T11:04:24Z</time></trkpt><trkpt lat="42.838310815219096" lon="11.7544734333566"><ele>319.0</ele><time>2026-04-19T11:04:25Z</time></trkpt><trkpt lat="42.838347892929754" lon="11.754332998464232"><ele>319.0</ele><time>2026-04-19T11:04:26Z</time></trkpt><trkpt lat="42.838428421662016" lon="11.754219923329387"><ele>319.0</ele><time>2026-04-19T11:04:27Z</time></trkpt><trkpt lat="42.8385367615" lon="11.754146713405257"><ele>319.0</ele><time>2026-04-19T11:04:28Z</time></trkpt><trkpt lat="42.83867668848549" lon="11.754168473220165"><ele>319.0</ele><time>2026-04-19T11:04:29Z</time></trkpt><trkpt lat="42.83883948817137" lon="11.754147931327852"><ele>319.0</ele><time>2026-04-19T11:04:30Z</time></trkpt><trkpt lat="42.83903064495996" lon="11.754123517049551"><ele>319.0</ele><time>2026-04-19T11:04:31Z</time></trkpt><trkpt lat="42.83922497502763" lon="11.754097962018955"><ele>319.66666666666663</ele><time>2026-04-19T11:04:32Z</time></trkpt><trkpt lat="42.83941724426388" lon="11.75405588788097"><ele>320.3333333333333</ele><time>2026-04-19T11:04:33Z</time></trkpt><trkpt lat="42.83962308220983" lon="11.753995516985437"><ele>321.0</ele><time>2026-04-19T11:04:34Z</time></trkpt><trkpt lat="42.839832571511465" lon="11.75391739236178"><ele>321.0</ele><time>2026-04-19T11:04:35Z</time></trkpt><trkpt lat="42.84004800059838" lon="11.75384077607236"><ele>321.0</ele><time>2026-04-19T11:04:36Z</time></trkpt><trkpt lat="42.840269784562054" lon="11.753773724579963"><ele>321.0</ele><time>2026-04-19T11:04:37Z</time></trkpt><trkpt lat="42.84047928978132" lon="11.75372262014529"><ele>321.0</ele><time>2026-04-19T11:04:38Z</time></trkpt><trkpt lat="42.84068957743733" lon="11.753677139371204"><ele>321.0</ele><time>2026-04-19T11:04:39Z</time></trkpt><trkpt lat="42.84090901164817" lon="11.753616325812395"><ele>321.0</ele><time>2026-04-19T11:04:40Z</time></trkpt><trkpt lat="42.84114952962658" lon="11.753597742243475"><ele>321.0</ele><time>2026-04-19T11:04:41Z</time></trkpt><trkpt lat="42.8414159327412" lon="11.75358616372406"><ele>321.0</ele><time>2026-04-19T11:04:42Z</time></trkpt><trkpt lat="42.84169847950391" lon="11.753574570478808"><ele>321.0</ele><time>2026-04-19T11:04:43Z</time></trkpt><trkpt lat="42.8419643066227" lon="11.753562165637637"><ele>321.5</ele><time>2026-04-19T11:04:44Z</time></trkpt><trkpt lat="42.84223439249412" lon="11.753549226367687"><ele>322.0</ele><time>2026-04-19T11:04:45Z</time></trkpt><trkpt lat="42.84250609395735" lon="11.753537601410967"><ele>322.0</ele><time>2026-04-19T11:04:46Z</time></trkpt><trkpt lat="42.84277601154613" lon="11.753533614192772"><ele>322.0</ele><time>2026-04-19T11:04:47Z</time></trkpt><trkpt lat="42.84302431730303" lon="11.75353133684975"><ele>322.0</ele><time>2026-04-19T11:04:48Z</time></trkpt><trkpt lat="42.84326016868755" lon="11.753523695669482"><ele>322.0</ele><time>2026-04-19T11:04:49Z</time></trkpt><trkpt lat="42.843482275161946" lon="11.753517614968416"><ele>322.66666666666663</ele><time>2026-04-19T11:04:50Z</time></trkpt><trkpt lat="42.843688724811294" lon="11.753509951908867"><ele>323.3333333333333</ele><time>2026-04-19T11:04:51Z</time></trkpt><trkpt lat="42.84384225987955" lon="11.753505665135634"><ele>324.0</ele><time>2026-04-19T11:04:52Z</time></trkpt><trkpt lat="42.8439469840287" lon="11.753500627588455"><ele>324.0</ele><time>2026-04-19T11:04:53Z</time></trkpt><trkpt lat="42.844017312052046" lon="11.753479339466658"><ele>324.0</ele><time>2026-04-19T11:04:54Z</time></trkpt><trkpt lat="42.844065432658276" lon="11.753238181956297"><ele>324.0</ele><time>2026-04-19T11:04:57Z</time></trkpt><trkpt lat="42.84401290117604" lon="11.7531127075629"><ele>324.0</ele><time>2026-04-19T11:04:58Z</time></trkpt><trkpt lat="42.843973058421824" lon="11.752932644009947"><ele>324.0</ele><time>2026-04-19T11:04:59Z</time></trkpt><trkpt lat="42.84390507040206" lon="11.752717125900087"><ele>324.0</ele><time>2026-04-19T11:05:00Z</time></trkpt><trkpt lat="42.843825259068936" lon="11.752469767302246"><ele>324.0</ele><time>2026-04-19T11:05:01Z</time></trkpt><trkpt lat="42.84373291095463" lon="11.752184502862526"><ele>323.5</ele><time>2026-04-19T11:05:02Z</time></trkpt><trkpt lat="42.84363033568544" lon="11.751869487721827"><ele>323.0</ele><time>2026-04-19T11:05:03Z</time></trkpt><trkpt lat="42.843541369992366" lon="11.751597108986267"><ele>322.0</ele><time>2026-04-19T11:05:04Z</time></trkpt><trkpt lat="42.84345875066917" lon="11.751360141908313"><ele>321.0</ele><time>2026-04-19T11:05:05Z</time></trkpt><trkpt lat="42.84336668076678" lon="11.751143939798466"><ele>320.0</ele><time>2026-04-19T11:05:06Z</time></trkpt><trkpt lat="42.84329519548725" lon="11.750959695489627"><ele>320.0</ele><time>2026-04-19T11:05:07Z</time></trkpt><trkpt lat="42.8432297072378" lon="11.750818008069997"><ele>320.0</ele><time>2026-04-19T11:05:08Z</time></trkpt><trkpt lat="42.84317491173961" lon="11.750728005952976"><ele>320.0</ele><time>2026-04-19T11:05:09Z</time></trkpt><trkpt lat="42.84312309901963" lon="11.75061621435103"><ele>320.0</ele><time>2026-04-19T11:05:10Z</time></trkpt><trkpt lat="42.843077024990606" lon="11.750463268234645"><ele>320.0</ele><time>2026-04-19T11:05:11Z</time></trkpt><trkpt lat="42.843038498701475" lon="11.750305809434243"><ele>320.6</ele><time>2026-04-19T11:05:12Z</time></trkpt><trkpt lat="42.84300613426835" lon="11.750166025776924"><ele>321.2</ele><time>2026-04-19T11:05:13Z</time></trkpt><trkpt lat="42.842973289751804" lon="11.750027330405713"><ele>321.79999999999995</ele><time>2026-04-19T11:05:14Z</time></trkpt><trkpt lat="42.842939858593084" lon="11.749905125796063"><ele>322.4</ele><time>2026-04-19T11:05:15Z</time></trkpt><trkpt lat="42.84289331778343" lon="11.749792692041137"><ele>323.0</ele><time>2026-04-19T11:05:16Z</time></trkpt><trkpt lat="42.84286646387385" lon="11.749661256798783"><ele>323.0</ele><time>2026-04-19T11:05:17Z</time></trkpt><trkpt lat="42.842880663364404" lon="11.749518868613016"><ele>323.0</ele><time>2026-04-19T11:05:18Z</time></trkpt><trkpt lat="42.84292990464988" lon="11.749387241101525"><ele>323.0</ele><time>2026-04-19T11:05:19Z</time></trkpt><trkpt lat="42.84298152019689" lon="11.749250824240393"><ele>323.0</ele><time>2026-04-19T11:05:20Z</time></trkpt><trkpt lat="42.84304458033834" lon="11.74908117636834"><ele>325.0</ele><time>2026-04-19T11:05:21Z</time></trkpt><trkpt lat="42.843101892612275" lon="11.748893021198533"><ele>327.0</ele><time>2026-04-19T11:05:22Z</time></trkpt><trkpt lat="42.843152135550355" lon="11.748693805971042"><ele>329.0</ele><time>2026-04-19T11:05:23Z</time></trkpt><trkpt lat="42.84319900947993" lon="11.748522023589032"><ele>331.0</ele><time>2026-04-19T11:05:24Z</time></trkpt><trkpt lat="42.84323551087884" lon="11.74839117730272"><ele>332.4</ele><time>2026-04-19T11:05:25Z</time></trkpt><trkpt lat="42.84326542506913" lon="11.748292534057404"><ele>333.8</ele><time>2026-04-19T11:05:26Z</time></trkpt><trkpt lat="42.84332043925664" lon="11.748157581806776"><ele>335.2</ele><time>2026-04-19T11:05:28Z</time></trkpt><trkpt lat="42.84343107721747" lon="11.748100534892211"><ele>336.59999999999997</ele><time>2026-04-19T11:05:30Z</time></trkpt><trkpt lat="42.843506985527576" lon="11.748135479612788"><ele>338.0</ele><time>2026-04-19T11:05:31Z</time></trkpt><trkpt lat="42.84357028949531" lon="11.748205996115049"><ele>339.4</ele><time>2026-04-19T11:05:32Z</time></trkpt><trkpt lat="42.84364274947482" lon="11.74831200153937"><ele>340.79999999999995</ele><time>2026-04-19T11:05:33Z</time></trkpt><trkpt lat="42.84369897084452" lon="11.748424952421272"><ele>342.2</ele><time>2026-04-19T11:05:34Z</time></trkpt><trkpt lat="42.84376691239995" lon="11.748523298424592"><ele>343.6</ele><time>2026-04-19T11:05:35Z</time></trkpt><trkpt lat="42.84383128232996" lon="11.748594453098788"><ele>345.0</ele><time>2026-04-19T11:05:36Z</time></trkpt><trkpt lat="42.84388570894263" lon="11.748641118354715"><ele>345.0</ele><time>2026-04-19T11:05:37Z</time></trkpt><trkpt lat="42.84394783466554" lon="11.748667137371744"><ele>345.0</ele><time>2026-04-19T11:05:38Z</time></trkpt><trkpt lat="42.84403470200803" lon="11.748641155430263"><ele>345.0</ele><time>2026-04-19T11:05:39Z</time></trkpt><trkpt lat="42.84411503185984" lon="11.748577512529641"><ele>345.0</ele><time>2026-04-19T11:05:40Z</time></trkpt><trkpt lat="42.84418589369933" lon="11.748474759234309"><ele>345.0</ele><time>2026-04-19T11:05:41Z</time></trkpt><trkpt lat="42.84423709162632" lon="11.748362463173724"><ele>345.0</ele><time>2026-04-19T11:05:42Z</time></trkpt><trkpt lat="42.8442934011634" lon="11.748241059704075"><ele>343.25</ele><time>2026-04-19T11:05:43Z</time></trkpt><trkpt lat="42.84434705220453" lon="11.748113658977498"><ele>341.5</ele><time>2026-04-19T11:05:44Z</time></trkpt><trkpt lat="42.844405833379646" lon="11.747975718941705"><ele>339.75</ele><time>2026-04-19T11:05:45Z</time></trkpt><trkpt lat="42.8444697771413" lon="11.747847427461222"><ele>338.0</ele><time>2026-04-19T11:05:46Z</time></trkpt><trkpt lat="42.844556249919286" lon="11.747702526068451"><ele>342.0</ele><time>2026-04-19T11:05:47Z</time></trkpt><trkpt lat="42.844646084336205" lon="11.747556040662484"><ele>346.0</ele><time>2026-04-19T11:05:48Z</time></trkpt><trkpt lat="42.84472848357208" lon="11.74741862877771"><ele>350.0</ele><time>2026-04-19T11:05:49Z</time></trkpt><trkpt lat="42.8448044360683" lon="11.747289761152294"><ele>354.0</ele><time>2026-04-19T11:05:50Z</time></trkpt><trkpt lat="42.84486408232604" lon="11.747176837189857"><ele>354.0</ele><time>2026-04-19T11:05:51Z</time></trkpt><trkpt lat="42.844908401141765" lon="11.74707003894619"><ele>354.0</ele><time>2026-04-19T11:05:52Z</time></trkpt><trkpt lat="42.84494213602023" lon="11.746965839134086"><ele>354.0</ele><time>2026-04-19T11:05:53Z</time></trkpt><trkpt lat="42.844951589281884" lon="11.746836913694851"><ele>354.0</ele><time>2026-04-19T11:05:54Z</time></trkpt><trkpt lat="42.844937982789915" lon="11.746690221479751"><ele>354.0</ele><time>2026-04-19T11:05:55Z</time></trkpt><trkpt lat="42.84491245943963" lon="11.746545319574192"><ele>355.5</ele><time>2026-04-19T11:05:56Z</time></trkpt><trkpt lat="42.844882670966626" lon="11.746385702622296"><ele>357.0</ele><time>2026-04-19T11:05:57Z</time></trkpt><trkpt lat="42.844852266444" lon="11.746217479345725"><ele>358.5</ele><time>2026-04-19T11:05:58Z</time></trkpt><trkpt lat="42.84483198177426" lon="11.746060889208989"><ele>360.0</ele><time>2026-04-19T11:05:59Z</time></trkpt><trkpt lat="42.84482011797776" lon="11.745896143631585"><ele>361.0</ele><time>2026-04-19T11:06:00Z</time></trkpt><trkpt lat="42.84482463657557" lon="11.74572952427968"><ele>362.0</ele><time>2026-04-19T11:06:01Z</time></trkpt><trkpt lat="42.844842968762855" lon="11.745571180348737"><ele>363.0</ele><time>2026-04-19T11:06:02Z</time></trkpt><trkpt lat="42.84488235804544" lon="11.745395301660201"><ele>364.0</ele><time>2026-04-19T11:06:03Z</time></trkpt><trkpt lat="42.84493660575599" lon="11.745176009464751"><ele>366.0</ele><time>2026-04-19T11:06:04Z</time></trkpt><trkpt lat="42.84500219862797" lon="11.744908595812023"><ele>368.0</ele><time>2026-04-19T11:06:05Z</time></trkpt><trkpt lat="42.84505870465195" lon="11.744668919622445"><ele>370.0</ele><time>2026-04-19T11:06:06Z</time></trkpt><trkpt lat="42.8451058014657" lon="11.744474263551462"><ele>370.5</ele><time>2026-04-19T11:06:07Z</time></trkpt><trkpt lat="42.845152379014245" lon="11.744291064238682"><ele>371.0</ele><time>2026-04-19T11:06:08Z</time></trkpt><trkpt lat="42.84519634219153" lon="11.744123779936283"><ele>371.5</ele><time>2026-04-19T11:06:09Z</time></trkpt><trkpt lat="42.845245875184474" lon="11.743957138093727"><ele>372.0</ele><time>2026-04-19T11:06:10Z</time></trkpt><trkpt lat="42.84531293440626" lon="11.74382184164355"><ele>372.0</ele><time>2026-04-19T11:06:11Z</time></trkpt><trkpt lat="42.84540769956617" lon="11.743695610967292"><ele>372.0</ele><time>2026-04-19T11:06:12Z</time></trkpt><trkpt lat="42.84551667368066" lon="11.743597152772592"><ele>372.0</ele><time>2026-04-19T11:06:13Z</time></trkpt><trkpt lat="42.84563466139951" lon="11.743496316228708"><ele>372.0</ele><time>2026-04-19T11:06:14Z</time></trkpt><trkpt lat="42.84575413760664" lon="11.743407113484569"><ele>375.25</ele><time>2026-04-19T11:06:15Z</time></trkpt><trkpt lat="42.84586244234139" lon="11.743339804185021"><ele>378.5</ele><time>2026-04-19T11:06:16Z</time></trkpt><trkpt lat="42.845958386263156" lon="11.743295400013732"><ele>381.75</ele><time>2026-04-19T11:06:17Z</time></trkpt><trkpt lat="42.846058282951425" lon="11.743268746766182"><ele>385.0</ele><time>2026-04-19T11:06:18Z</time></trkpt><trkpt lat="42.846185784630656" lon="11.74326077854298"><ele>385.33333333333337</ele><time>2026-04-19T11:06:19Z</time></trkpt><trkpt lat="42.84633897383743" lon="11.74327331728731"><ele>385.66666666666663</ele><time>2026-04-19T11:06:20Z</time></trkpt><trkpt lat="42.8465153254218" lon="11.74328278997926"><ele>386.0</ele><time>2026-04-19T11:06:21Z</time></trkpt><trkpt lat="42.84670650310843" lon="11.743317175099342"><ele>388.0</ele><time>2026-04-19T11:06:22Z</time></trkpt><trkpt lat="42.84688716147196" lon="11.743338112226143"><ele>390.0</ele><time>2026-04-19T11:06:23Z</time></trkpt><trkpt lat="42.847060248110544" lon="11.743354086277568"><ele>392.0</ele><time>2026-04-19T11:06:24Z</time></trkpt><trkpt lat="42.84722611187421" lon="11.743368850609572"><ele>392.0</ele><time>2026-04-19T11:06:25Z</time></trkpt><trkpt lat="42.847377619984" lon="11.743394421973612"><ele>392.0</ele><time>2026-04-19T11:06:26Z</time></trkpt><trkpt lat="42.84751983365233" lon="11.743380290939546"><ele>392.0</ele><time>2026-04-19T11:06:27Z</time></trkpt><trkpt lat="42.847680969928724" lon="11.743363828859929"><ele>395.0</ele><time>2026-04-19T11:06:28Z</time></trkpt><trkpt lat="42.8478387083278" lon="11.743327132063756"><ele>398.0</ele><time>2026-04-19T11:06:29Z</time></trkpt><trkpt lat="42.84800400429475" lon="11.743296191697397"><ele>401.0</ele><time>2026-04-19T11:06:30Z</time></trkpt><trkpt lat="42.84818443314059" lon="11.743208410613192"><ele>401.0</ele><time>2026-04-19T11:06:31Z</time></trkpt><trkpt lat="42.8483405245778" lon="11.743127930759007"><ele>401.0</ele><time>2026-04-19T11:06:32Z</time></trkpt><trkpt lat="42.84845614618063" lon="11.743019734038441"><ele>401.0</ele><time>2026-04-19T11:06:33Z</time></trkpt><trkpt lat="42.848570211941194" lon="11.742957153446913"><ele>401.0</ele><time>2026-04-19T11:06:34Z</time></trkpt><trkpt lat="42.84867426408948" lon="11.742903111235032"><ele>400.75</ele><time>2026-04-19T11:06:35Z</time></trkpt><trkpt lat="42.84878175658444" lon="11.742848238432806"><ele>400.5</ele><time>2026-04-19T11:06:36Z</time></trkpt><trkpt lat="42.84889860986573" lon="11.742820770821604"><ele>400.25</ele><time>2026-04-19T11:06:37Z</time></trkpt><trkpt lat="42.84900120164676" lon="11.742760528387748"><ele>400.0</ele><time>2026-04-19T11:06:38Z</time></trkpt><trkpt lat="42.8491024159936" lon="11.742693821581518"><ele>400.0</ele><time>2026-04-19T11:06:39Z</time></trkpt><trkpt lat="42.849204567205646" lon="11.742603061416766"><ele>400.0</ele><time>2026-04-19T11:06:40Z</time></trkpt><trkpt lat="42.849294492298434" lon="11.7424778397961"><ele>400.0</ele><time>2026-04-19T11:06:41Z</time></trkpt><trkpt lat="42.84936526969793" lon="11.742363844741552"><ele>400.0</ele><time>2026-04-19T11:06:42Z</time></trkpt><trkpt lat="42.849439059597294" lon="11.74224438379989"><ele>400.0</ele><time>2026-04-19T11:06:43Z</time></trkpt><trkpt lat="42.84951404203556" lon="11.742127055043865"><ele>400.0</ele><time>2026-04-19T11:06:44Z</time></trkpt><trkpt lat="42.849596946933794" lon="11.741993285280463"><ele>400.0</ele><time>2026-04-19T11:06:45Z</time></trkpt><trkpt lat="42.849688419861856" lon="11.741868945937137"><ele>400.0</ele><time>2026-04-19T11:06:46Z</time></trkpt><trkpt lat="42.84976844434903" lon="11.741733365329637"><ele>400.0</ele><time>2026-04-19T11:06:47Z</time></trkpt><trkpt lat="42.849853074433504" lon="11.741591046292069"><ele>400.0</ele><time>2026-04-19T11:06:48Z</time></trkpt><trkpt lat="42.84993799552752" lon="11.74146745480585"><ele>400.0</ele><time>2026-04-19T11:06:49Z</time></trkpt><trkpt lat="42.85002730190235" lon="11.74137490295694"><ele>400.0</ele><time>2026-04-19T11:06:50Z</time></trkpt><trkpt lat="42.850121910812526" lon="11.74128737392617"><ele>401.25</ele><time>2026-04-19T11:06:51Z</time></trkpt><trkpt lat="42.85023680351262" lon="11.741187144909896"><ele>402.5</ele><time>2026-04-19T11:06:52Z</time></trkpt><trkpt lat="42.850366826737336" lon="11.741076277559747"><ele>403.75</ele><time>2026-04-19T11:06:53Z</time></trkpt><trkpt lat="42.85047824713878" lon="11.740986917457153"><ele>405.0</ele><time>2026-04-19T11:06:54Z</time></trkpt><trkpt lat="42.85056665780647" lon="11.740924718607936"><ele>405.8</ele><time>2026-04-19T11:06:55Z</time></trkpt><trkpt lat="42.85065011430082" lon="11.740875699307752"><ele>406.6</ele><time>2026-04-19T11:06:56Z</time></trkpt><trkpt lat="42.85072360161339" lon="11.740830512949"><ele>407.4</ele><time>2026-04-19T11:06:57Z</time></trkpt><trkpt lat="42.85079383397748" lon="11.740781153241333"><ele>408.2</ele><time>2026-04-19T11:06:58Z</time></trkpt><trkpt lat="42.85086952648309" lon="11.740668549009738"><ele>409.0</ele><time>2026-04-19T11:06:59Z</time></trkpt><trkpt lat="42.850905843503774" lon="11.740515759977168"><ele>409.0</ele><time>2026-04-19T11:07:00Z</time></trkpt><trkpt lat="42.85093094753829" lon="11.740359203430398"><ele>409.0</ele><time>2026-04-19T11:07:01Z</time></trkpt><trkpt lat="42.85095770759696" lon="11.740219221892756"><ele>409.0</ele><time>2026-04-19T11:07:02Z</time></trkpt><trkpt lat="42.85098777646902" lon="11.740085496935254"><ele>409.0</ele><time>2026-04-19T11:07:03Z</time></trkpt><trkpt lat="42.85101536754177" lon="11.739975608120796"><ele>409.0</ele><time>2026-04-19T11:07:04Z</time></trkpt><trkpt lat="42.85104619846852" lon="11.739885198792882"><ele>408.4285714285714</ele><time>2026-04-19T11:07:05Z</time></trkpt><trkpt lat="42.851083069751525" lon="11.739797184641354"><ele>407.8571428571429</ele><time>2026-04-19T11:07:06Z</time></trkpt><trkpt lat="42.851127179751586" lon="11.739717841834674"><ele>407.2857142857143</ele><time>2026-04-19T11:07:07Z</time></trkpt><trkpt lat="42.85117112018185" lon="11.739646159969668"><ele>406.71428571428567</ele><time>2026-04-19T11:07:08Z</time></trkpt><trkpt lat="42.85121629901267" lon="11.739576241116367"><ele>406.1428571428571</ele><time>2026-04-19T11:07:09Z</time></trkpt><trkpt lat="42.851259994573816" lon="11.739504119261147"><ele>405.57142857142856</ele><time>2026-04-19T11:07:10Z</time></trkpt><trkpt lat="42.851303286587616" lon="11.739408017755236"><ele>405.0</ele><time>2026-04-19T11:07:11Z</time></trkpt><trkpt lat="42.851336900921915" lon="11.739300705611"><ele>404.6666666666667</ele><time>2026-04-19T11:07:12Z</time></trkpt><trkpt lat="42.85136027247211" lon="11.73918887406434"><ele>404.33333333333337</ele><time>2026-04-19T11:07:13Z</time></trkpt><trkpt lat="42.851368975879446" lon="11.739078496926139"><ele>404.0</ele><time>2026-04-19T11:07:14Z</time></trkpt><trkpt lat="42.851341129453786" lon="11.738964746406738"><ele>403.6666666666667</ele><time>2026-04-19T11:07:15Z</time></trkpt><trkpt lat="42.851269962092104" lon="11.738868813365112"><ele>403.33333333333337</ele><time>2026-04-19T11:07:16Z</time></trkpt><trkpt lat="42.851202220513805" lon="11.738796196687167"><ele>403.0</ele><time>2026-04-19T11:07:17Z</time></trkpt><trkpt lat="42.85112195650975" lon="11.738712484877313"><ele>403.0</ele><time>2026-04-19T11:07:18Z</time></trkpt><trkpt lat="42.85101885068905" lon="11.73860914764889"><ele>403.0</ele><time>2026-04-19T11:07:19Z</time></trkpt><trkpt lat="42.85090800873574" lon="11.738504455236999"><ele>403.0</ele><time>2026-04-19T11:07:20Z</time></trkpt><trkpt lat="42.8508077025039" lon="11.73841043954833"><ele>403.0</ele><time>2026-04-19T11:07:21Z</time></trkpt><trkpt lat="42.85071671668627" lon="11.738325264737059"><ele>403.59999999999997</ele><time>2026-04-19T11:07:22Z</time></trkpt><trkpt lat="42.85063936160852" lon="11.738250666814494"><ele>404.2</ele><time>2026-04-19T11:07:23Z</time></trkpt><trkpt lat="42.85056520430485" lon="11.738173040394898"><ele>404.8</ele><time>2026-04-19T11:07:24Z</time></trkpt><trkpt lat="42.85050249856395" lon="11.738097164844158"><ele>405.4</ele><time>2026-04-19T11:07:25Z</time></trkpt><trkpt lat="42.850449389335004" lon="11.738011606664706"><ele>406.0</ele><time>2026-04-19T11:07:26Z</time></trkpt><trkpt lat="42.850390660698906" lon="11.737870780284375"><ele>406.0</ele><time>2026-04-19T11:07:28Z</time></trkpt><trkpt lat="42.85037786720252" lon="11.737719387032513"><ele>406.0</ele><time>2026-04-19T11:07:30Z</time></trkpt><trkpt lat="42.8504276505028" lon="11.737567566536725"><ele>406.0</ele><time>2026-04-19T11:07:32Z</time></trkpt><trkpt lat="42.850522516852166" lon="11.737473352387884"><ele>406.0</ele><time>2026-04-19T11:07:34Z</time></trkpt><trkpt lat="42.850594636044654" lon="11.737455024607252"><ele>406.0</ele><time>2026-04-19T11:07:35Z</time></trkpt><trkpt lat="42.85067629301512" lon="11.737423524135659"><ele>408.20000000000005</ele><time>2026-04-19T11:07:36Z</time></trkpt><trkpt lat="42.85076974438237" lon="11.737357949285585"><ele>410.40000000000003</ele><time>2026-04-19T11:07:37Z</time></trkpt><trkpt lat="42.850831253631284" lon="11.737317820609826"><ele>412.6</ele><time>2026-04-19T11:07:38Z</time></trkpt><trkpt lat="42.85090897577966" lon="11.737278441854727"><ele>414.8</ele><time>2026-04-19T11:07:39Z</time></trkpt><trkpt lat="42.8509905110712" lon="11.73721000753921"><ele>417.0</ele><time>2026-04-19T11:07:40Z</time></trkpt><trkpt lat="42.85108546457721" lon="11.737123198863603"><ele>417.0</ele><time>2026-04-19T11:07:41Z</time></trkpt><trkpt lat="42.85116801964991" lon="11.73704215390538"><ele>417.0</ele><time>2026-04-19T11:07:42Z</time></trkpt><trkpt lat="42.851248601715994" lon="11.73695814186849"><ele>417.0</ele><time>2026-04-19T11:07:43Z</time></trkpt><trkpt lat="42.85133178062272" lon="11.73686724033348"><ele>417.0</ele><time>2026-04-19T11:07:44Z</time></trkpt><trkpt lat="42.85141286157694" lon="11.736774328849334"><ele>417.0</ele><time>2026-04-19T11:07:45Z</time></trkpt><trkpt lat="42.851486056723935" lon="11.736688867899788"><ele>418.8</ele><time>2026-04-19T11:07:46Z</time></trkpt><trkpt lat="42.85155577143007" lon="11.736600894256668"><ele>420.6</ele><time>2026-04-19T11:07:47Z</time></trkpt><trkpt lat="42.851634824617534" lon="11.736503814598624"><ele>422.40000000000003</ele><time>2026-04-19T11:07:48Z</time></trkpt><trkpt lat="42.851704157229925" lon="11.736446042829451"><ele>424.20000000000005</ele><time>2026-04-19T11:07:49Z</time></trkpt><trkpt lat="42.85178050187534" lon="11.736410453372908"><ele>426.0</ele><time>2026-04-19T11:07:50Z</time></trkpt><trkpt lat="42.85187262432097" lon="11.736383646708742"><ele>426.0</ele><time>2026-04-19T11:07:51Z</time></trkpt><trkpt lat="42.85197875850091" lon="11.736357991388056"><ele>426.0</ele><time>2026-04-19T11:07:52Z</time></trkpt><trkpt lat="42.85209396432306" lon="11.736336348100899"><ele>426.0</ele><time>2026-04-19T11:07:53Z</time></trkpt><trkpt lat="42.852192883435194" lon="11.736314031584797"><ele>426.0</ele><time>2026-04-19T11:07:54Z</time></trkpt><trkpt lat="42.85228508666022" lon="11.736283613997207"><ele>426.0</ele><time>2026-04-19T11:07:55Z</time></trkpt><trkpt lat="42.85236618707075" lon="11.736247004137962"><ele>426.0</ele><time>2026-04-19T11:07:56Z</time></trkpt><trkpt lat="42.85245686262998" lon="11.736193958636644"><ele>426.0</ele><time>2026-04-19T11:07:57Z</time></trkpt><trkpt lat="42.85254948592517" lon="11.73610698072212"><ele>426.0</ele><time>2026-04-19T11:07:58Z</time></trkpt><trkpt lat="42.85262816243042" lon="11.736020843440805"><ele>426.0</ele><time>2026-04-19T11:07:59Z</time></trkpt><trkpt lat="42.85269712887118" lon="11.735943752134844"><ele>426.0</ele><time>2026-04-19T11:08:00Z</time></trkpt><trkpt lat="42.85276909739701" lon="11.735882804029826"><ele>428.6</ele><time>2026-04-19T11:08:01Z</time></trkpt><trkpt lat="42.85285025345004" lon="11.73583323078469"><ele>431.20000000000005</ele><time>2026-04-19T11:08:02Z</time></trkpt><trkpt lat="42.8529492712002" lon="11.735837556564187"><ele>433.79999999999995</ele><time>2026-04-19T11:08:03Z</time></trkpt><trkpt lat="42.853045022010875" lon="11.735810154506327"><ele>436.4</ele><time>2026-04-19T11:08:04Z</time></trkpt><trkpt lat="42.853134207599574" lon="11.735777003650888"><ele>439.0</ele><time>2026-04-19T11:08:05Z</time></trkpt><trkpt lat="42.853216115301834" lon="11.73574397998126"><ele>439.00000000000006</ele><time>2026-04-19T11:08:06Z</time></trkpt><trkpt lat="42.85333362974765" lon="11.735691855273092"><ele>439.0</ele><time>2026-04-19T11:08:08Z</time></trkpt><trkpt lat="42.85339459167817" lon="11.735664277597989"><ele>439.0</ele><time>2026-04-19T11:08:09Z</time></trkpt><trkpt lat="42.85345978798727" lon="11.735633123838769"><ele>439.0</ele><time>2026-04-19T11:08:10Z</time></trkpt><trkpt lat="42.85352377943067" lon="11.73560119989532"><ele>439.00000000000006</ele><time>2026-04-19T11:08:11Z</time></trkpt><trkpt lat="42.85359749308447" lon="11.735560183167983"><ele>439.0</ele><time>2026-04-19T11:08:12Z</time></trkpt><trkpt lat="42.85367155154206" lon="11.73551199609318"><ele>441.00000000000006</ele><time>2026-04-19T11:08:13Z</time></trkpt><trkpt lat="42.853734079611435" lon="11.735467236981261"><ele>443.0</ele><time>2026-04-19T11:08:14Z</time></trkpt><trkpt lat="42.85379341929556" lon="11.735421374960424"><ele>445.0</ele><time>2026-04-19T11:08:15Z</time></trkpt><trkpt lat="42.853853969693695" lon="11.735366456832761"><ele>447.0</ele><time>2026-04-19T11:08:16Z</time></trkpt><trkpt lat="42.85391184057014" lon="11.73530708735337"><ele>449.00000000000006</ele><time>2026-04-19T11:08:17Z</time></trkpt><trkpt lat="42.85397363092863" lon="11.735241277437392"><ele>451.0</ele><time>2026-04-19T11:08:18Z</time></trkpt><trkpt lat="42.854054579093926" lon="11.73515668796389"><ele>451.0</ele><time>2026-04-19T11:08:20Z</time></trkpt><trkpt lat="42.85414852784678" lon="11.735059222779405"><ele>451.0</ele><time>2026-04-19T11:08:22Z</time></trkpt><trkpt lat="42.854210489574434" lon="11.735001659128526"><ele>451.0</ele><time>2026-04-19T11:08:23Z</time></trkpt><trkpt lat="42.854323719410786" lon="11.73493087086421"><ele>451.0</ele><time>2026-04-19T11:08:25Z</time></trkpt><trkpt lat="42.85438778638837" lon="11.734900089592655"><ele>451.0</ele><time>2026-04-19T11:08:26Z</time></trkpt><trkpt lat="42.85446539625765" lon="11.73486402844327"><ele>453.00000000000006</ele><time>2026-04-19T11:08:27Z</time></trkpt><trkpt lat="42.85453346972663" lon="11.734835513141997"><ele>455.0</ele><time>2026-04-19T11:08:28Z</time></trkpt><trkpt lat="42.85465142212857" lon="11.734796548216229"><ele>457.0</ele><time>2026-04-19T11:08:30Z</time></trkpt><trkpt lat="42.85476687902591" lon="11.734808895871572"><ele>459.0</ele><time>2026-04-19T11:08:32Z</time></trkpt><trkpt lat="42.854833067514335" lon="11.734840945094556"><ele>461.00000000000006</ele><time>2026-04-19T11:08:33Z</time></trkpt><trkpt lat="42.85489027245528" lon="11.734884593230632"><ele>463.0</ele><time>2026-04-19T11:08:34Z</time></trkpt><trkpt lat="42.854959402306676" lon="11.73493457570122"><ele>463.00000000000006</ele><time>2026-04-19T11:08:35Z</time></trkpt><trkpt lat="42.855025249878985" lon="11.734950359259479"><ele>463.0</ele><time>2026-04-19T11:08:36Z</time></trkpt><trkpt lat="42.85512873008882" lon="11.734982311958126"><ele>463.0</ele><time>2026-04-19T11:08:38Z</time></trkpt><trkpt lat="42.85519106145797" lon="11.734956954273457"><ele>463.0</ele><time>2026-04-19T11:08:39Z</time></trkpt><trkpt lat="42.85523778114776" lon="11.734888638658834"><ele>463.00000000000006</ele><time>2026-04-19T11:08:40Z</time></trkpt><trkpt lat="42.85526303803751" lon="11.73477488286499"><ele>463.0</ele><time>2026-04-19T11:08:41Z</time></trkpt><trkpt lat="42.85528933578558" lon="11.734654544415918"><ele>463.6666666666667</ele><time>2026-04-19T11:08:42Z</time></trkpt><trkpt lat="42.85531168016087" lon="11.734560587895825"><ele>464.33333333333337</ele><time>2026-04-19T11:08:43Z</time></trkpt><trkpt lat="42.85537558840339" lon="11.734473097834847"><ele>465.0</ele><time>2026-04-19T11:08:45Z</time></trkpt><trkpt lat="42.85544831155579" lon="11.73443901504173"><ele>465.66666666666663</ele><time>2026-04-19T11:08:47Z</time></trkpt><trkpt lat="42.85554141134875" lon="11.734426952545263"><ele>466.3333333333333</ele><time>2026-04-19T11:08:49Z</time></trkpt><trkpt lat="42.8556305152815" lon="11.734421483643555"><ele>467.0</ele><time>2026-04-19T11:08:51Z</time></trkpt><trkpt lat="42.85569296416973" lon="11.73440472806042"><ele>466.99999999999994</ele><time>2026-04-19T11:08:52Z</time></trkpt><trkpt lat="42.855760642994426" lon="11.734410321314106"><ele>467.0</ele><time>2026-04-19T11:08:53Z</time></trkpt><trkpt lat="42.85588347786898" lon="11.734394527554246"><ele>467.0</ele><time>2026-04-19T11:08:55Z</time></trkpt><trkpt lat="42.85596355948714" lon="11.734403404107663"><ele>467.0</ele><time>2026-04-19T11:08:57Z</time></trkpt><trkpt lat="42.85604529822197" lon="11.734398280766495"><ele>466.99999999999994</ele><time>2026-04-19T11:08:59Z</time></trkpt><trkpt lat="42.856111769331115" lon="11.734391823093636"><ele>467.0</ele><time>2026-04-19T11:09:00Z</time></trkpt><trkpt lat="42.856184938585145" lon="11.734384992914867"><ele>470.66666666666663</ele><time>2026-04-19T11:09:01Z</time></trkpt><trkpt lat="42.856261266499445" lon="11.734377867933706"><ele>474.3333333333333</ele><time>2026-04-19T11:09:02Z</time></trkpt><trkpt lat="42.85632996470074" lon="11.73437145508552"><ele>478.0</ele><time>2026-04-19T11:09:03Z</time></trkpt><trkpt lat="42.85641393116359" lon="11.734360780285858"><ele>481.66666666666663</ele><time>2026-04-19T11:09:05Z</time></trkpt><trkpt lat="42.8565054666582" lon="11.734342818147349"><ele>485.3333333333333</ele><time>2026-04-19T11:09:07Z</time></trkpt><trkpt lat="42.85662159588207" lon="11.734303009348423"><ele>489.0</ele><time>2026-04-19T11:09:09Z</time></trkpt><trkpt lat="42.85673888496338" lon="11.734244611523087"><ele>489.1666666666667</ele><time>2026-04-19T11:09:11Z</time></trkpt><trkpt lat="42.856813278785026" lon="11.73420482949813"><ele>489.33333333333337</ele><time>2026-04-19T11:09:13Z</time></trkpt><trkpt lat="42.85689102857178" lon="11.73415541041644"><ele>489.5</ele><time>2026-04-19T11:09:14Z</time></trkpt><trkpt lat="42.85696406524915" lon="11.73410905280279"><ele>489.6666666666667</ele><time>2026-04-19T11:09:15Z</time></trkpt><trkpt lat="42.85706800333466" lon="11.734053612097854"><ele>489.83333333333337</ele><time>2026-04-19T11:09:17Z</time></trkpt><trkpt lat="42.85714066444081" lon="11.73401034110644"><ele>490.0</ele><time>2026-04-19T11:09:19Z</time></trkpt><trkpt lat="42.857222691253405" lon="11.733929242042429"><ele>490.00000000000006</ele><time>2026-04-19T11:09:21Z</time></trkpt><trkpt lat="42.8572752273784" lon="11.733869997824232"><ele>490.0</ele><time>2026-04-19T11:09:22Z</time></trkpt><trkpt lat="42.857325227410534" lon="11.73380329778347"><ele>490.0</ele><time>2026-04-19T11:09:23Z</time></trkpt><trkpt lat="42.857373214610405" lon="11.733735021010045"><ele>490.0</ele><time>2026-04-19T11:09:24Z</time></trkpt><trkpt lat="42.857428850106594" lon="11.733655006975969"><ele>490.00000000000006</ele><time>2026-04-19T11:09:25Z</time></trkpt><trkpt lat="42.85750169205444" lon="11.733546031309018"><ele>490.0</ele><time>2026-04-19T11:09:27Z</time></trkpt><trkpt lat="42.85759019418684" lon="11.733409262068488"><ele>490.8</ele><time>2026-04-19T11:09:28Z</time></trkpt><trkpt lat="42.8576666906031" lon="11.733296963569355"><ele>491.6</ele><time>2026-04-19T11:09:29Z</time></trkpt><trkpt lat="42.85773411637588" lon="11.733199741700911"><ele>492.4</ele><time>2026-04-19T11:09:30Z</time></trkpt><trkpt lat="42.857787497677215" lon="11.733123518863417"><ele>493.2</ele><time>2026-04-19T11:09:31Z</time></trkpt><trkpt lat="42.857848160541046" lon="11.73303689897758"><ele>494.0</ele><time>2026-04-19T11:09:32Z</time></trkpt><trkpt lat="42.85790908201646" lon="11.73294990977589"><ele>493.99999999999994</ele><time>2026-04-19T11:09:33Z</time></trkpt><trkpt lat="42.857961181021146" lon="11.732875518150589"><ele>494.0</ele><time>2026-04-19T11:09:34Z</time></trkpt><trkpt lat="42.85800717429973" lon="11.732810511784914"><ele>494.0</ele><time>2026-04-19T11:09:35Z</time></trkpt><trkpt lat="42.85805377089816" lon="11.732745324703986"><ele>494.0</ele><time>2026-04-19T11:09:36Z</time></trkpt><trkpt lat="42.85809948643944" lon="11.732684635944963"><ele>493.99999999999994</ele><time>2026-04-19T11:09:37Z</time></trkpt><trkpt lat="42.85818388293503" lon="11.732579456871441"><ele>494.0</ele><time>2026-04-19T11:09:39Z</time></trkpt><trkpt lat="42.85824792265831" lon="11.732510944465323"><ele>493.8333333333333</ele><time>2026-04-19T11:09:40Z</time></trkpt><trkpt lat="42.85832019835251" lon="11.732460759323038"><ele>493.66666666666663</ele><time>2026-04-19T11:09:41Z</time></trkpt><trkpt lat="42.85841211563533" lon="11.732424010932151"><ele>493.5</ele><time>2026-04-19T11:09:42Z</time></trkpt><trkpt lat="42.858491317603395" lon="11.732397390331206"><ele>493.33333333333337</ele><time>2026-04-19T11:09:43Z</time></trkpt><trkpt lat="42.858582447847006" lon="11.732375674238765"><ele>493.1666666666667</ele><time>2026-04-19T11:09:45Z</time></trkpt><trkpt lat="42.85864479479683" lon="11.732359007960548"><ele>493.0</ele><time>2026-04-19T11:09:46Z</time></trkpt><trkpt lat="42.8587552531757" lon="11.732311885458927"><ele>493.0</ele><time>2026-04-19T11:09:48Z</time></trkpt><trkpt lat="42.858833658280844" lon="11.73225105272558"><ele>492.99999999999994</ele><time>2026-04-19T11:09:49Z</time></trkpt><trkpt lat="42.85890428451044" lon="11.732144489891494"><ele>492.99999999999994</ele><time>2026-04-19T11:09:50Z</time></trkpt><trkpt lat="42.8589738352527" lon="11.732019884211637"><ele>493.0</ele><time>2026-04-19T11:09:51Z</time></trkpt><trkpt lat="42.85904099278565" lon="11.731896981882432"><ele>493.0</ele><time>2026-04-19T11:09:52Z</time></trkpt><trkpt lat="42.85910899018979" lon="11.731764332456002"><ele>492.4</ele><time>2026-04-19T11:09:53Z</time></trkpt><trkpt lat="42.85917630799545" lon="11.731632945319681"><ele>491.79999999999995</ele><time>2026-04-19T11:09:54Z</time></trkpt><trkpt lat="42.859246901609964" lon="11.731505057066917"><ele>491.2</ele><time>2026-04-19T11:09:55Z</time></trkpt><trkpt lat="42.859312317536926" lon="11.731396021421405"><ele>490.6</ele><time>2026-04-19T11:09:56Z</time></trkpt><trkpt lat="42.859377313453855" lon="11.731290037391386"><ele>490.0</ele><time>2026-04-19T11:09:57Z</time></trkpt><trkpt lat="42.85944985242402" lon="11.73117492118524"><ele>493.0</ele><time>2026-04-19T11:09:58Z</time></trkpt><trkpt lat="42.85952891034023" lon="11.731056610808027"><ele>496.0</ele><time>2026-04-19T11:09:59Z</time></trkpt><trkpt lat="42.85961234520127" lon="11.73095222550969"><ele>499.0</ele><time>2026-04-19T11:10:00Z</time></trkpt><trkpt lat="42.85969294442325" lon="11.730854884187048"><ele>502.0</ele><time>2026-04-19T11:10:01Z</time></trkpt><trkpt lat="42.85978626427239" lon="11.730744485730783"><ele>502.0</ele><time>2026-04-19T11:10:02Z</time></trkpt><trkpt lat="42.859868736335976" lon="11.730648003876984"><ele>502.00000000000006</ele><time>2026-04-19T11:10:03Z</time></trkpt><trkpt lat="42.859956374653805" lon="11.730550628196555"><ele>502.00000000000006</ele><time>2026-04-19T11:10:04Z</time></trkpt><trkpt lat="42.86003878413945" lon="11.730462569131161"><ele>502.0</ele><time>2026-04-19T11:10:05Z</time></trkpt><trkpt lat="42.86011896840211" lon="11.730377982881853"><ele>502.0</ele><time>2026-04-19T11:10:06Z</time></trkpt><trkpt lat="42.86018860354481" lon="11.73030636377338"><ele>502.0</ele><time>2026-04-19T11:10:07Z</time></trkpt><trkpt lat="42.86026129326678" lon="11.730231740656238"><ele>502.00000000000006</ele><time>2026-04-19T11:10:08Z</time></trkpt><trkpt lat="42.86033738194226" lon="11.73015361610961"><ele>502.00000000000006</ele><time>2026-04-19T11:10:09Z</time></trkpt><trkpt lat="42.860424846075446" lon="11.730066912507334"><ele>502.0</ele><time>2026-04-19T11:10:10Z</time></trkpt><trkpt lat="42.86051553740173" lon="11.729972254996726"><ele>502.0</ele><time>2026-04-19T11:10:11Z</time></trkpt><trkpt lat="42.86058771049746" lon="11.72988522190881"><ele>502.0</ele><time>2026-04-19T11:10:12Z</time></trkpt><trkpt lat="42.860648894590405" lon="11.729798812654604"><ele>502.00000000000006</ele><time>2026-04-19T11:10:13Z</time></trkpt><trkpt lat="42.86069864606124" lon="11.729697548298285"><ele>502.00000000000006</ele><time>2026-04-19T11:10:14Z</time></trkpt><trkpt lat="42.86072356761381" lon="11.729584053305794"><ele>502.0</ele><time>2026-04-19T11:10:15Z</time></trkpt><trkpt lat="42.8607398350832" lon="11.729451072824812"><ele>502.0</ele><time>2026-04-19T11:10:16Z</time></trkpt><trkpt lat="42.86074297807556" lon="11.729314003818029"><ele>502.50000000000006</ele><time>2026-04-19T11:10:17Z</time></trkpt><trkpt lat="42.860756979407526" lon="11.729207040575114"><ele>503.0</ele><time>2026-04-19T11:10:18Z</time></trkpt><trkpt lat="42.8607737492684" lon="11.729101687573861"><ele>503.5</ele><time>2026-04-19T11:10:19Z</time></trkpt><trkpt lat="42.860801781800006" lon="11.728989300636673"><ele>504.0</ele><time>2026-04-19T11:10:20Z</time></trkpt><trkpt lat="42.86084577931379" lon="11.728878494948914"><ele>504.50000000000006</ele><time>2026-04-19T11:10:21Z</time></trkpt><trkpt lat="42.86089735992747" lon="11.72877412495233"><ele>505.0</ele><time>2026-04-19T11:10:22Z</time></trkpt><trkpt lat="42.86094549225814" lon="11.728693011978315"><ele>504.0</ele><time>2026-04-19T11:10:23Z</time></trkpt><trkpt lat="42.86101042268413" lon="11.728602845969368"><ele>503.0</ele><time>2026-04-19T11:10:24Z</time></trkpt><trkpt lat="42.86108322841822" lon="11.72852004671336"><ele>502.0</ele><time>2026-04-19T11:10:25Z</time></trkpt><trkpt lat="42.861153924569486" lon="11.72844590010836"><ele>501.0</ele><time>2026-04-19T11:10:26Z</time></trkpt><trkpt lat="42.86123412710528" lon="11.728365059072402"><ele>500.0</ele><time>2026-04-19T11:10:27Z</time></trkpt><trkpt lat="42.861329975205564" lon="11.728272639595843"><ele>502.0</ele><time>2026-04-19T11:10:28Z</time></trkpt><trkpt lat="42.86143002689599" lon="11.728183893346412"><ele>504.0</ele><time>2026-04-19T11:10:29Z</time></trkpt><trkpt lat="42.86155508380878" lon="11.728083504924372"><ele>506.0</ele><time>2026-04-19T11:10:30Z</time></trkpt><trkpt lat="42.86168095654025" lon="11.727979790695898"><ele>508.0</ele><time>2026-04-19T11:10:31Z</time></trkpt><trkpt lat="42.86179601736132" lon="11.727860087611187"><ele>508.0</ele><time>2026-04-19T11:10:32Z</time></trkpt><trkpt lat="42.86192529249164" lon="11.727738334223199"><ele>508.0</ele><time>2026-04-19T11:10:33Z</time></trkpt><trkpt lat="42.862072475547514" lon="11.727615825902022"><ele>508.0</ele><time>2026-04-19T11:10:34Z</time></trkpt><trkpt lat="42.86220998553116" lon="11.72750206105982"><ele>511.33333333333337</ele><time>2026-04-19T11:10:35Z</time></trkpt><trkpt lat="42.86233898548063" lon="11.727396490339155"><ele>514.6666666666666</ele><time>2026-04-19T11:10:36Z</time></trkpt><trkpt lat="42.86247974939775" lon="11.727278378721897"><ele>518.0</ele><time>2026-04-19T11:10:37Z</time></trkpt><trkpt lat="42.86263614152632" lon="11.727147308164856"><ele>518.6666666666666</ele><time>2026-04-19T11:10:38Z</time></trkpt><trkpt lat="42.86279081091697" lon="11.727022293405586"><ele>519.3333333333334</ele><time>2026-04-19T11:10:39Z</time></trkpt><trkpt lat="42.86292757673101" lon="11.72691122514355"><ele>520.0</ele><time>2026-04-19T11:10:40Z</time></trkpt><trkpt lat="42.86306697128559" lon="11.726779042309772"><ele>521.0</ele><time>2026-04-19T11:10:41Z</time></trkpt><trkpt lat="42.863184842046664" lon="11.726666848297086"><ele>522.0</ele><time>2026-04-19T11:10:42Z</time></trkpt><trkpt lat="42.86329816227538" lon="11.72656417812685"><ele>523.0</ele><time>2026-04-19T11:10:43Z</time></trkpt><trkpt lat="42.86342040261386" lon="11.726457836695745"><ele>524.0</ele><time>2026-04-19T11:10:44Z</time></trkpt><trkpt lat="42.863538953694686" lon="11.726355427599154"><ele>523.5</ele><time>2026-04-19T11:10:45Z</time></trkpt><trkpt lat="42.86366367152579" lon="11.726247666948032"><ele>523.0</ele><time>2026-04-19T11:10:46Z</time></trkpt><trkpt lat="42.86376988385465" lon="11.726152814810405"><ele>522.5</ele><time>2026-04-19T11:10:47Z</time></trkpt><trkpt lat="42.863868689856204" lon="11.726063685602174"><ele>522.0</ele><time>2026-04-19T11:10:48Z</time></trkpt><trkpt lat="42.86396807338936" lon="11.72597370189763"><ele>522.0</ele><time>2026-04-19T11:10:49Z</time></trkpt><trkpt lat="42.86406554635999" lon="11.725887801275336"><ele>522.0</ele><time>2026-04-19T11:10:50Z</time></trkpt><trkpt lat="42.86416236574403" lon="11.725805578353844"><ele>522.0</ele><time>2026-04-19T11:10:51Z</time></trkpt><trkpt lat="42.86423767914384" lon="11.72574636527991"><ele>522.0</ele><time>2026-04-19T11:10:52Z</time></trkpt><trkpt lat="42.86431011008405" lon="11.725702050635672"><ele>522.0</ele><time>2026-04-19T11:10:53Z</time></trkpt><trkpt lat="42.86439008391528" lon="11.725656291307367"><ele>519.6</ele><time>2026-04-19T11:10:54Z</time></trkpt><trkpt lat="42.86446454998263" lon="11.725610006237556"><ele>517.2</ele><time>2026-04-19T11:10:55Z</time></trkpt><trkpt lat="42.86454655199065" lon="11.725552723232667"><ele>514.8</ele><time>2026-04-19T11:10:56Z</time></trkpt><trkpt lat="42.864630453932186" lon="11.725479623939359"><ele>512.4</ele><time>2026-04-19T11:10:57Z</time></trkpt><trkpt lat="42.86470298580919" lon="11.725399121695887"><ele>510.0</ele><time>2026-04-19T11:10:58Z</time></trkpt><trkpt lat="42.86477725762438" lon="11.725287936658509"><ele>513.0</ele><time>2026-04-19T11:10:59Z</time></trkpt><trkpt lat="42.864837529922085" lon="11.725158611125538"><ele>516.0</ele><time>2026-04-19T11:11:00Z</time></trkpt><trkpt lat="42.864901038434006" lon="11.72500983256401"><ele>519.0</ele><time>2026-04-19T11:11:01Z</time></trkpt><trkpt lat="42.86496765550222" lon="11.724869393426479"><ele>522.0</ele><time>2026-04-19T11:11:02Z</time></trkpt><trkpt lat="42.86503717853074" lon="11.724722827823097"><ele>521.5</ele><time>2026-04-19T11:11:03Z</time></trkpt><trkpt lat="42.86511431915606" lon="11.724557988098999"><ele>521.0</ele><time>2026-04-19T11:11:04Z</time></trkpt><trkpt lat="42.86518222908799" lon="11.724400915623912"><ele>520.5</ele><time>2026-04-19T11:11:05Z</time></trkpt><trkpt lat="42.865250090603034" lon="11.724243853185358"><ele>520.0</ele><time>2026-04-19T11:11:06Z</time></trkpt><trkpt lat="42.865314560491136" lon="11.72412016982286"><ele>520.0</ele><time>2026-04-19T11:11:07Z</time></trkpt><trkpt lat="42.86540233651601" lon="11.724007900027376"><ele>520.0</ele><time>2026-04-19T11:11:08Z</time></trkpt><trkpt lat="42.86551823161405" lon="11.723893212926622"><ele>520.0</ele><time>2026-04-19T11:11:09Z</time></trkpt><trkpt lat="42.865643814952755" lon="11.723767762794104"><ele>520.0</ele><time>2026-04-19T11:11:10Z</time></trkpt><trkpt lat="42.865754853026864" lon="11.723667528820355"><ele>520.0</ele><time>2026-04-19T11:11:11Z</time></trkpt><trkpt lat="42.86585357656854" lon="11.723588983387298"><ele>520.0</ele><time>2026-04-19T11:11:12Z</time></trkpt><trkpt lat="42.86594039307814" lon="11.72350850399488"><ele>520.0</ele><time>2026-04-19T11:11:13Z</time></trkpt><trkpt lat="42.86602689354396" lon="11.723411571720458"><ele>520.0</ele><time>2026-04-19T11:11:14Z</time></trkpt><trkpt lat="42.86610361072512" lon="11.723285669632872"><ele>521.6666666666667</ele><time>2026-04-19T11:11:15Z</time></trkpt><trkpt lat="42.86616813177975" lon="11.723127016458726"><ele>523.3333333333334</ele><time>2026-04-19T11:11:16Z</time></trkpt><trkpt lat="42.86625017339457" lon="11.722952054028468"><ele>525.0</ele><time>2026-04-19T11:11:17Z</time></trkpt><trkpt lat="42.866339405072345" lon="11.722761758400095"><ele>529.0</ele><time>2026-04-19T11:11:18Z</time></trkpt><trkpt lat="42.86642940093771" lon="11.72255786676742"><ele>533.0</ele><time>2026-04-19T11:11:19Z</time></trkpt><trkpt lat="42.86651409245706" lon="11.72233523049807"><ele>537.0</ele><time>2026-04-19T11:11:20Z</time></trkpt><trkpt lat="42.866611790394515" lon="11.722098393743757"><ele>534.6666666666666</ele><time>2026-04-19T11:11:21Z</time></trkpt><trkpt lat="42.86671170853883" lon="11.721861826155276"><ele>532.3333333333333</ele><time>2026-04-19T11:11:22Z</time></trkpt><trkpt lat="42.86679410652768" lon="11.721666739648295"><ele>530.0</ele><time>2026-04-19T11:11:23Z</time></trkpt><trkpt lat="42.86685608714004" lon="11.72151446899889"><ele>530.0</ele><time>2026-04-19T11:11:24Z</time></trkpt><trkpt lat="42.8669081404318" lon="11.721358520538761"><ele>530.0</ele><time>2026-04-19T11:11:25Z</time></trkpt><trkpt lat="42.866954784007696" lon="11.721171647240999"><ele>530.0</ele><time>2026-04-19T11:11:26Z</time></trkpt><trkpt lat="42.86699335655749" lon="11.720992503143547"><ele>530.0</ele><time>2026-04-19T11:11:27Z</time></trkpt><trkpt lat="42.867024901961074" lon="11.720845485820131"><ele>532.2</ele><time>2026-04-19T11:11:28Z</time></trkpt><trkpt lat="42.867048273414404" lon="11.720721245941611"><ele>534.4</ele><time>2026-04-19T11:11:29Z</time></trkpt><trkpt lat="42.867061632528205" lon="11.720585947719185"><ele>536.6</ele><time>2026-04-19T11:11:30Z</time></trkpt><trkpt lat="42.86706069578949" lon="11.72046550669548"><ele>538.8</ele><time>2026-04-19T11:11:31Z</time></trkpt><trkpt lat="42.86703242990967" lon="11.720333317678488"><ele>541.0</ele><time>2026-04-19T11:11:32Z</time></trkpt><trkpt lat="42.86698567862887" lon="11.720191522816922"><ele>544.4</ele><time>2026-04-19T11:11:33Z</time></trkpt><trkpt lat="42.86693974525152" lon="11.720055712853545"><ele>547.8</ele><time>2026-04-19T11:11:34Z</time></trkpt><trkpt lat="42.8668951501737" lon="11.719916619468176"><ele>551.1999999999999</ele><time>2026-04-19T11:11:35Z</time></trkpt><trkpt lat="42.86686251483684" lon="11.71979814524244"><ele>554.6</ele><time>2026-04-19T11:11:36Z</time></trkpt><trkpt lat="42.86684812068609" lon="11.719695569578889"><ele>558.0</ele><time>2026-04-19T11:11:37.001Z</time></trkpt><trkpt lat="42.866840725014185" lon="11.71959047375127"><ele>558.0</ele><time>2026-04-19T11:11:38.001Z</time></trkpt><trkpt lat="42.86684589262682" lon="11.719498058244781"><ele>558.0</ele><time>2026-04-19T11:11:39.001Z</time></trkpt><trkpt lat="42.86686317568276" lon="11.719409991998717"><ele>558.0</ele><time>2026-04-19T11:11:40.001Z</time></trkpt><trkpt lat="42.86689302009992" lon="11.719329143016763"><ele>558.0</ele><time>2026-04-19T11:11:41.001Z</time></trkpt><trkpt lat="42.866942180574235" lon="11.719255420423446"><ele>558.0</ele><time>2026-04-19T11:11:42.001Z</time></trkpt><trkpt lat="42.867013188341986" lon="11.7191821008927"><ele>558.0</ele><time>2026-04-19T11:11:43.001Z</time></trkpt><trkpt lat="42.867103901441084" lon="11.719060152372398"><ele>560.0</ele><time>2026-04-19T11:11:44.001Z</time></trkpt><trkpt lat="42.86716450366402" lon="11.718912589337645"><ele>562.0</ele><time>2026-04-19T11:11:45.001Z</time></trkpt><trkpt lat="42.867216986214316" lon="11.718759316971909"><ele>564.0</ele><time>2026-04-19T11:11:46.001Z</time></trkpt><trkpt lat="42.8672761611085" lon="11.718601968607814"><ele>566.0</ele><time>2026-04-19T11:11:47.001Z</time></trkpt><trkpt lat="42.86734718373633" lon="11.718437024960402"><ele>566.0</ele><time>2026-04-19T11:11:48.001Z</time></trkpt><trkpt lat="42.867426550405014" lon="11.718266592193332"><ele>566.0</ele><time>2026-04-19T11:11:49Z</time></trkpt><trkpt lat="42.86750647369059" lon="11.718115559158706"><ele>566.0</ele><time>2026-04-19T11:11:50Z</time></trkpt><trkpt lat="42.86759407507693" lon="11.71797997349601"><ele>566.0</ele><time>2026-04-19T11:11:51Z</time></trkpt><trkpt lat="42.86768967162756" lon="11.717854230484962"><ele>570.0</ele><time>2026-04-19T11:11:52Z</time></trkpt><trkpt lat="42.867805087281155" lon="11.717724581409447"><ele>574.0</ele><time>2026-04-19T11:11:53Z</time></trkpt><trkpt lat="42.867943003080924" lon="11.717572291151694"><ele>578.0</ele><time>2026-04-19T11:11:54Z</time></trkpt><trkpt lat="42.86806042023742" lon="11.717409809317193"><ele>578.0</ele><time>2026-04-19T11:11:55Z</time></trkpt><trkpt lat="42.8681559037288" lon="11.717275701905423"><ele>578.0</ele><time>2026-04-19T11:11:56Z</time></trkpt><trkpt lat="42.868239398351946" lon="11.717157247181914"><ele>578.0</ele><time>2026-04-19T11:11:57Z</time></trkpt><trkpt lat="42.868326528279205" lon="11.7170635441977"><ele>578.0</ele><time>2026-04-19T11:11:58Z</time></trkpt><trkpt lat="42.86839964871383" lon="11.717010710398542"><ele>579.8</ele><time>2026-04-19T11:11:59Z</time></trkpt><trkpt lat="42.868470151662926" lon="11.716961043069983"><ele>581.5999999999999</ele><time>2026-04-19T11:12:00Z</time></trkpt><trkpt lat="42.868550877407664" lon="11.716901096057567"><ele>583.4000000000001</ele><time>2026-04-19T11:12:01Z</time></trkpt><trkpt lat="42.86863529424794" lon="11.716821004019858"><ele>585.2</ele><time>2026-04-19T11:12:02Z</time></trkpt><trkpt lat="42.86871355289672" lon="11.71671284358136"><ele>587.0</ele><time>2026-04-19T11:12:03Z</time></trkpt><trkpt lat="42.868780536898946" lon="11.716587900639155"><ele>587.0</ele><time>2026-04-19T11:12:04Z</time></trkpt><trkpt lat="42.868846364171176" lon="11.716466302264196"><ele>587.0</ele><time>2026-04-19T11:12:05Z</time></trkpt><trkpt lat="42.86889962153372" lon="11.71636382551491"><ele>587.0</ele><time>2026-04-19T11:12:06Z</time></trkpt><trkpt lat="42.868947206862394" lon="11.716272262644445"><ele>587.0</ele><time>2026-04-19T11:12:07Z</time></trkpt><trkpt lat="42.86900987170329" lon="11.716161674979512"><ele>587.0</ele><time>2026-04-19T11:12:08Z</time></trkpt><trkpt lat="42.86908409574074" lon="11.716046650899193"><ele>584.75</ele><time>2026-04-19T11:12:09Z</time></trkpt><trkpt lat="42.86916248544752" lon="11.71593894905163"><ele>582.5</ele><time>2026-04-19T11:12:10Z</time></trkpt><trkpt lat="42.86924715859189" lon="11.715825204833855"><ele>580.25</ele><time>2026-04-19T11:12:11Z</time></trkpt><trkpt lat="42.86933341584353" lon="11.715710589492284"><ele>578.0</ele><time>2026-04-19T11:12:12Z</time></trkpt><trkpt lat="42.86941943255831" lon="11.715599799696063"><ele>580.6</ele><time>2026-04-19T11:12:13Z</time></trkpt><trkpt lat="42.86948603372804" lon="11.715475619545744"><ele>583.1999999999999</ele><time>2026-04-19T11:12:14Z</time></trkpt><trkpt lat="42.86952788459692" lon="11.71534816805977"><ele>585.8</ele><time>2026-04-19T11:12:15Z</time></trkpt><trkpt lat="42.8695647967923" lon="11.715238507352515"><ele>588.4</ele><time>2026-04-19T11:12:16Z</time></trkpt><trkpt lat="42.8696077395943" lon="11.71513966865359"><ele>591.0</ele><time>2026-04-19T11:12:17Z</time></trkpt><trkpt lat="42.8696520751898" lon="11.715059063066034"><ele>591.0</ele><time>2026-04-19T11:12:18Z</time></trkpt><trkpt lat="42.869704288328286" lon="11.714978017225473"><ele>591.0</ele><time>2026-04-19T11:12:19Z</time></trkpt><trkpt lat="42.86977137796147" lon="11.714883982594197"><ele>591.0</ele><time>2026-04-19T11:12:20Z</time></trkpt><trkpt lat="42.869840782412915" lon="11.71478785190011"><ele>591.0</ele><time>2026-04-19T11:12:21Z</time></trkpt><trkpt lat="42.86990077108706" lon="11.714708031441825"><ele>591.0</ele><time>2026-04-19T11:12:22Z</time></trkpt><trkpt lat="42.86995211193739" lon="11.714645764653662"><ele>591.0</ele><time>2026-04-19T11:12:23Z</time></trkpt><trkpt lat="42.87000235636166" lon="11.71459230846743"><ele>591.0</ele><time>2026-04-19T11:12:24Z</time></trkpt><trkpt lat="42.87006461281056" lon="11.71453632597166"><ele>591.0</ele><time>2026-04-19T11:12:25Z</time></trkpt><trkpt lat="42.87013693188347" lon="11.71448462548676"><ele>591.0</ele><time>2026-04-19T11:12:26Z</time></trkpt><trkpt lat="42.8702175928531" lon="11.714434414850711"><ele>591.0</ele><time>2026-04-19T11:12:27Z</time></trkpt><trkpt lat="42.870302117462096" lon="11.714389247970711"><ele>591.0</ele><time>2026-04-19T11:12:28Z</time></trkpt><trkpt lat="42.87036669155238" lon="11.714360260043449"><ele>591.0</ele><time>2026-04-19T11:12:29Z</time></trkpt><trkpt lat="42.87043620596168" lon="11.714333016561028"><ele>589.6</ele><time>2026-04-19T11:12:30Z</time></trkpt><trkpt lat="42.870511947536606" lon="11.714310918537725"><ele>588.2</ele><time>2026-04-19T11:12:31Z</time></trkpt><trkpt lat="42.87059550596678" lon="11.714295697787303"><ele>586.8</ele><time>2026-04-19T11:12:32Z</time></trkpt><trkpt lat="42.870693391881126" lon="11.7142736812101"><ele>585.4</ele><time>2026-04-19T11:12:33Z</time></trkpt><trkpt lat="42.87080463943627" lon="11.714298497531127"><ele>584.0</ele><time>2026-04-19T11:12:34Z</time></trkpt><trkpt lat="42.87091684128295" lon="11.714294452689469"><ele>587.0</ele><time>2026-04-19T11:12:35Z</time></trkpt><trkpt lat="42.871031292760634" lon="11.714268290398824"><ele>590.0</ele><time>2026-04-19T11:12:36Z</time></trkpt><trkpt lat="42.87114127402698" lon="11.714226567443374"><ele>593.0</ele><time>2026-04-19T11:12:37Z</time></trkpt><trkpt lat="42.8712371920707" lon="11.714174660243481"><ele>596.0</ele><time>2026-04-19T11:12:38Z</time></trkpt><trkpt lat="42.87132026804073" lon="11.714112586199947"><ele>599.0</ele><time>2026-04-19T11:12:39Z</time></trkpt><trkpt lat="42.8713987667527" lon="11.714017938460804"><ele>599.0</ele><time>2026-04-19T11:12:40Z</time></trkpt><trkpt lat="42.87146206556325" lon="11.71390747366938"><ele>599.0</ele><time>2026-04-19T11:12:41Z</time></trkpt><trkpt lat="42.87151856965903" lon="11.713775652875443"><ele>599.0</ele><time>2026-04-19T11:12:42Z</time></trkpt><trkpt lat="42.871583699772415" lon="11.713650987140404"><ele>599.0</ele><time>2026-04-19T11:12:43Z</time></trkpt><trkpt lat="42.871663523658505" lon="11.713536236857404"><ele>599.0</ele><time>2026-04-19T11:12:44Z</time></trkpt><trkpt lat="42.87173795967534" lon="11.713454973906575"><ele>600.2</ele><time>2026-04-19T11:12:45Z</time></trkpt><trkpt lat="42.871813587967935" lon="11.71339142595372"><ele>601.4</ele><time>2026-04-19T11:12:46Z</time></trkpt><trkpt lat="42.871904075474106" lon="11.713337685864797"><ele>602.6</ele><time>2026-04-19T11:12:47Z</time></trkpt><trkpt lat="42.87201312905109" lon="11.713280876078281"><ele>603.8</ele><time>2026-04-19T11:12:48Z</time></trkpt><trkpt lat="42.87212991218581" lon="11.713232126890585"><ele>605.0</ele><time>2026-04-19T11:12:49Z</time></trkpt><trkpt lat="42.8722448005757" lon="11.71318154086999"><ele>605.0</ele><time>2026-04-19T11:12:50Z</time></trkpt><trkpt lat="42.87234111012807" lon="11.713127667305384"><ele>605.0</ele><time>2026-04-19T11:12:51Z</time></trkpt><trkpt lat="42.87242706093119" lon="11.713071037151002"><ele>605.0</ele><time>2026-04-19T11:12:52Z</time></trkpt><trkpt lat="42.87251066588628" lon="11.712986193878386"><ele>605.0</ele><time>2026-04-19T11:12:53Z</time></trkpt><trkpt lat="42.872578722309946" lon="11.712881557892178"><ele>605.0</ele><time>2026-04-19T11:12:54Z</time></trkpt><trkpt lat="42.87260803737326" lon="11.712732114383382"><ele>606.6</ele><time>2026-04-19T11:12:55Z</time></trkpt><trkpt lat="42.872634744112496" lon="11.712599423788202"><ele>608.2</ele><time>2026-04-19T11:12:56Z</time></trkpt><trkpt lat="42.872668814398224" lon="11.712477329111099"><ele>609.8</ele><time>2026-04-19T11:12:57Z</time></trkpt><trkpt lat="42.87271162521572" lon="11.71236983255501"><ele>611.4</ele><time>2026-04-19T11:12:58Z</time></trkpt><trkpt lat="42.87277493757102" lon="11.71228608292462"><ele>613.0</ele><time>2026-04-19T11:12:59Z</time></trkpt><trkpt lat="42.87285068338194" lon="11.712226722983"><ele>613.0</ele><time>2026-04-19T11:13:00Z</time></trkpt><trkpt lat="42.87293547557229" lon="11.712155475895173"><ele>613.0</ele><time>2026-04-19T11:13:01Z</time></trkpt><trkpt lat="42.87301723340372" lon="11.712058816771433"><ele>613.0</ele><time>2026-04-19T11:13:02Z</time></trkpt><trkpt lat="42.87309328811055" lon="11.711945102228793"><ele>613.0</ele><time>2026-04-19T11:13:03Z</time></trkpt><trkpt lat="42.87319257186291" lon="11.711845237610017"><ele>613.0</ele><time>2026-04-19T11:13:04Z</time></trkpt><trkpt lat="42.873300367258885" lon="11.711753464505383"><ele>613.25</ele><time>2026-04-19T11:13:05Z</time></trkpt><trkpt lat="42.87341049856688" lon="11.711655214396066"><ele>613.5</ele><time>2026-04-19T11:13:06Z</time></trkpt><trkpt lat="42.87351933007813" lon="11.711562453355546"><ele>613.75</ele><time>2026-04-19T11:13:07Z</time></trkpt><trkpt lat="42.87363347190181" lon="11.71148555050504"><ele>614.0</ele><time>2026-04-19T11:13:08Z</time></trkpt><trkpt lat="42.87375277344467" lon="11.711432784858658"><ele>614.0</ele><time>2026-04-19T11:13:09Z</time></trkpt><trkpt lat="42.87386694581898" lon="11.711380341594483"><ele>614.0</ele><time>2026-04-19T11:13:10Z</time></trkpt><trkpt lat="42.873979534745686" lon="11.71130348579408"><ele>614.0</ele><time>2026-04-19T11:13:11Z</time></trkpt><trkpt lat="42.87406103885899" lon="11.711164781045285"><ele>614.0</ele><time>2026-04-19T11:13:12Z</time></trkpt><trkpt lat="42.87414262410821" lon="11.711043121911308"><ele>613.8</ele><time>2026-04-19T11:13:13Z</time></trkpt><trkpt lat="42.87421111820706" lon="11.710940919657508"><ele>613.5999999999999</ele><time>2026-04-19T11:13:14Z</time></trkpt><trkpt lat="42.874273577143306" lon="11.710855150524832"><ele>613.4</ele><time>2026-04-19T11:13:15Z</time></trkpt><trkpt lat="42.87435111745108" lon="11.710781900896079"><ele>613.1999999999999</ele><time>2026-04-19T11:13:16Z</time></trkpt><trkpt lat="42.87442446555686" lon="11.710702941115676"><ele>613.0</ele><time>2026-04-19T11:13:17Z</time></trkpt><trkpt lat="42.87451427535805" lon="11.710633193584078"><ele>613.0</ele><time>2026-04-19T11:13:18Z</time></trkpt><trkpt lat="42.87461945681973" lon="11.710567121744978"><ele>613.0</ele><time>2026-04-19T11:13:19Z</time></trkpt><trkpt lat="42.874737709539865" lon="11.710503753669357"><ele>613.0</ele><time>2026-04-19T11:13:20Z</time></trkpt><trkpt lat="42.87484621128371" lon="11.71040897245468"><ele>613.0</ele><time>2026-04-19T11:13:21Z</time></trkpt><trkpt lat="42.8749654439304" lon="11.71036239494686"><ele>613.0</ele><time>2026-04-19T11:13:22Z</time></trkpt><trkpt lat="42.87507083712118" lon="11.710317963767084"><ele>613.0</ele><time>2026-04-19T11:13:23Z</time></trkpt><trkpt lat="42.875172544856106" lon="11.710301854182159"><ele>613.0</ele><time>2026-04-19T11:13:24Z</time></trkpt><trkpt lat="42.875294710540906" lon="11.710311380714485"><ele>613.0</ele><time>2026-04-19T11:13:25Z</time></trkpt><trkpt lat="42.87543144257923" lon="11.710308850603298"><ele>613.6666666666667</ele><time>2026-04-19T11:13:26Z</time></trkpt><trkpt lat="42.87557776037003" lon="11.710285299301683"><ele>614.3333333333334</ele><time>2026-04-19T11:13:27Z</time></trkpt><trkpt lat="42.87572900151029" lon="11.710272497586391"><ele>615.0</ele><time>2026-04-19T11:13:28Z</time></trkpt><trkpt lat="42.87587955498082" lon="11.710246938355"><ele>616.0</ele><time>2026-04-19T11:13:29Z</time></trkpt><trkpt lat="42.87603285355239" lon="11.71022820183881"><ele>617.0</ele><time>2026-04-19T11:13:30.001Z</time></trkpt><trkpt lat="42.87617684646268" lon="11.710221676965475"><ele>618.0</ele><time>2026-04-19T11:13:31.001Z</time></trkpt><trkpt lat="42.87632203836944" lon="11.710253197799242"><ele>619.0</ele><time>2026-04-19T11:13:32.001Z</time></trkpt><trkpt lat="42.876461030070395" lon="11.710276291949862"><ele>619.0</ele><time>2026-04-19T11:13:33.001Z</time></trkpt><trkpt lat="42.87658622642921" lon="11.710291873530236"><ele>619.0</ele><time>2026-04-19T11:13:34.001Z</time></trkpt><trkpt lat="42.87671192936974" lon="11.710263279934498"><ele>619.0</ele><time>2026-04-19T11:13:35.001Z</time></trkpt><trkpt lat="42.87684052395105" lon="11.710221419857069"><ele>619.0</ele><time>2026-04-19T11:13:36.001Z</time></trkpt><trkpt lat="42.87696734922699" lon="11.710159923892386"><ele>617.25</ele><time>2026-04-19T11:13:37.001Z</time></trkpt><trkpt lat="42.877101611994846" lon="11.710081692131709"><ele>615.5</ele><time>2026-04-19T11:13:38.001Z</time></trkpt><trkpt lat="42.87723413427499" lon="11.710012202402538"><ele>613.75</ele><time>2026-04-19T11:13:39.001Z</time></trkpt><trkpt lat="42.877348345757284" lon="11.709947973912707"><ele>612.0</ele><time>2026-04-19T11:13:40.001Z</time></trkpt><trkpt lat="42.87745397461284" lon="11.709858228104844"><ele>612.0</ele><time>2026-04-19T11:13:41.001Z</time></trkpt><trkpt lat="42.87755393998082" lon="11.709745371889465"><ele>612.0</ele><time>2026-04-19T11:13:42.001Z</time></trkpt><trkpt lat="42.8776664714789" lon="11.709641783722887"><ele>612.0</ele><time>2026-04-19T11:13:43.001Z</time></trkpt><trkpt lat="42.877774403041066" lon="11.709499723498418"><ele>612.0</ele><time>2026-04-19T11:13:44.001Z</time></trkpt><trkpt lat="42.877910306603994" lon="11.7093947364235"><ele>611.3333333333334</ele><time>2026-04-19T11:13:45.001Z</time></trkpt><trkpt lat="42.87805002685753" lon="11.709269227797913"><ele>610.6666666666667</ele><time>2026-04-19T11:13:46.001Z</time></trkpt><trkpt lat="42.878178707356454" lon="11.70915343752448"><ele>610.0</ele><time>2026-04-19T11:13:47.001Z</time></trkpt><trkpt lat="42.878286610873786" lon="11.70903657646883"><ele>610.0</ele><time>2026-04-19T11:13:48.001Z</time></trkpt><trkpt lat="42.87839532478255" lon="11.708943769951222"><ele>610.0</ele><time>2026-04-19T11:13:49.001Z</time></trkpt><trkpt lat="42.87850437773263" lon="11.708853236455735"><ele>610.0</ele><time>2026-04-19T11:13:50.001Z</time></trkpt><trkpt lat="42.87861372939374" lon="11.708760012362765"><ele>610.0</ele><time>2026-04-19T11:13:51.001Z</time></trkpt><trkpt lat="42.87870657096533" lon="11.708654414379126"><ele>608.75</ele><time>2026-04-19T11:13:52.001Z</time></trkpt><trkpt lat="42.87879948704224" lon="11.708549101764891"><ele>607.5</ele><time>2026-04-19T11:13:53.001Z</time></trkpt><trkpt lat="42.87887751186481" lon="11.708405789257844"><ele>606.25</ele><time>2026-04-19T11:13:54.001Z</time></trkpt><trkpt lat="42.87894990586091" lon="11.708252816934698"><ele>605.0</ele><time>2026-04-19T11:13:55Z</time></trkpt><trkpt lat="42.87902937094231" lon="11.708078986052225"><ele>605.0</ele><time>2026-04-19T11:13:56Z</time></trkpt><trkpt lat="42.87912215452965" lon="11.707869227343238"><ele>605.0</ele><time>2026-04-19T11:13:57Z</time></trkpt><trkpt lat="42.87923141418225" lon="11.707620903216547"><ele>605.0</ele><time>2026-04-19T11:13:58Z</time></trkpt><trkpt lat="42.87938013210336" lon="11.707368446882288"><ele>605.0</ele><time>2026-04-19T11:13:59Z</time></trkpt><trkpt lat="42.87948406730166" lon="11.7070140281778"><ele>605.0</ele><time>2026-04-19T11:14:00Z</time></trkpt><trkpt lat="42.87962837766802" lon="11.706685536640778"><ele>607.5</ele><time>2026-04-19T11:14:01Z</time></trkpt><trkpt lat="42.87977772587321" lon="11.706346201047216"><ele>610.0</ele><time>2026-04-19T11:14:02Z</time></trkpt><trkpt lat="42.87990707483983" lon="11.706049942162764"><ele>608.6666666666667</ele><time>2026-04-19T11:14:03Z</time></trkpt><trkpt lat="42.8800243208648" lon="11.705780762370457"><ele>607.3333333333334</ele><time>2026-04-19T11:14:04Z</time></trkpt><trkpt lat="42.88013033568825" lon="11.705537402332295"><ele>606.0</ele><time>2026-04-19T11:14:05Z</time></trkpt><trkpt lat="42.88021412921648" lon="11.705303826589514"><ele>609.0</ele><time>2026-04-19T11:14:06Z</time></trkpt><trkpt lat="42.88032180021904" lon="11.705104980043902"><ele>612.0</ele><time>2026-04-19T11:14:07Z</time></trkpt><trkpt lat="42.88041699955744" lon="11.704897394470626"><ele>615.0</ele><time>2026-04-19T11:14:08Z</time></trkpt><trkpt lat="42.88050606141897" lon="11.704665773632833"><ele>615.0</ele><time>2026-04-19T11:14:09Z</time></trkpt><trkpt lat="42.880608400597744" lon="11.704443887214195"><ele>615.0</ele><time>2026-04-19T11:14:10Z</time></trkpt><trkpt lat="42.88071193050524" lon="11.704223738549267"><ele>615.0</ele><time>2026-04-19T11:14:11Z</time></trkpt><trkpt lat="42.880813314761994" lon="11.70401854122055"><ele>614.6666666666666</ele><time>2026-04-19T11:14:12Z</time></trkpt><trkpt lat="42.8809037887555" lon="11.703810596413204"><ele>614.3333333333333</ele><time>2026-04-19T11:14:13Z</time></trkpt><trkpt lat="42.88097333167313" lon="11.703578709208415"><ele>614.0</ele><time>2026-04-19T11:14:14Z</time></trkpt><trkpt lat="42.881014456156635" lon="11.703324778048142"><ele>614.0</ele><time>2026-04-19T11:14:15Z</time></trkpt><trkpt lat="42.88104261779576" lon="11.703067863461387"><ele>614.0</ele><time>2026-04-19T11:14:16Z</time></trkpt><trkpt lat="42.881068996131425" lon="11.702818190997373"><ele>614.0</ele><time>2026-04-19T11:14:17Z</time></trkpt><trkpt lat="42.881096879828625" lon="11.702566158050747"><ele>614.0</ele><time>2026-04-19T11:14:18Z</time></trkpt><trkpt lat="42.881140082615076" lon="11.702314555352757"><ele>614.0</ele><time>2026-04-19T11:14:19Z</time></trkpt><trkpt lat="42.88114519770743" lon="11.702036745055683"><ele>614.0</ele><time>2026-04-19T11:14:20Z</time></trkpt><trkpt lat="42.88115850642737" lon="11.701752834131385"><ele>614.0</ele><time>2026-04-19T11:14:21Z</time></trkpt><trkpt lat="42.881168020677386" lon="11.70145874299179"><ele>614.0</ele><time>2026-04-19T11:14:22Z</time></trkpt><trkpt lat="42.881170314166965" lon="11.701166748565406"><ele>614.0</ele><time>2026-04-19T11:14:23Z</time></trkpt><trkpt lat="42.88116907160539" lon="11.700894483749861"><ele>614.0</ele><time>2026-04-19T11:14:24Z</time></trkpt><trkpt lat="42.88116349304859" lon="11.70064710167926"><ele>614.0</ele><time>2026-04-19T11:14:25Z</time></trkpt><trkpt lat="42.881161153087774" lon="11.700409437791674"><ele>614.0</ele><time>2026-04-19T11:14:26Z</time></trkpt><trkpt lat="42.88115801042545" lon="11.700171376319632"><ele>612.0</ele><time>2026-04-19T11:14:27Z</time></trkpt><trkpt lat="42.88115370457097" lon="11.699940294299722"><ele>610.0</ele><time>2026-04-19T11:14:28Z</time></trkpt><trkpt lat="42.881126419307556" lon="11.69973758621819"><ele>608.0</ele><time>2026-04-19T11:14:29Z</time></trkpt><trkpt lat="42.88109200035296" lon="11.69955645857331"><ele>606.6</ele><time>2026-04-19T11:14:30Z</time></trkpt><trkpt lat="42.881054319032735" lon="11.699396624119968"><ele>605.1999999999999</ele><time>2026-04-19T11:14:31Z</time></trkpt><trkpt lat="42.88101865640727" lon="11.699257339994219"><ele>603.8</ele><time>2026-04-19T11:14:32Z</time></trkpt><trkpt lat="42.881008085983076" lon="11.699141303398838"><ele>602.4</ele><time>2026-04-19T11:14:33Z</time></trkpt><trkpt lat="42.88097199937183" lon="11.699049321583495"><ele>601.0</ele><time>2026-04-19T11:14:34Z</time></trkpt><trkpt lat="42.88096155995249" lon="11.698957540879078"><ele>601.0</ele><time>2026-04-19T11:14:35Z</time></trkpt><trkpt lat="42.88093740034754" lon="11.6988198082638"><ele>601.0</ele><time>2026-04-19T11:14:37Z</time></trkpt><trkpt lat="42.88088975113602" lon="11.698658283878464"><ele>601.0</ele><time>2026-04-19T11:15:12.001Z</time></trkpt><trkpt lat="42.88088529562813" lon="11.698532832890224"><ele>601.0</ele><time>2026-04-19T11:15:13.001Z</time></trkpt><trkpt lat="42.88086327105529" lon="11.698398535149314"><ele>601.0</ele><time>2026-04-19T11:15:14.001Z</time></trkpt><trkpt lat="42.88083772421693" lon="11.698242759997125"><ele>603.75</ele><time>2026-04-19T11:15:15.001Z</time></trkpt><trkpt lat="42.88080501010218" lon="11.698074631206586"><ele>606.5</ele><time>2026-04-19T11:15:16.001Z</time></trkpt><trkpt lat="42.8807490817759" lon="11.69790487603089"><ele>609.25</ele><time>2026-04-19T11:15:17.001Z</time></trkpt><trkpt lat="42.88066021875003" lon="11.697773267865196"><ele>612.0</ele><time>2026-04-19T11:15:18.001Z</time></trkpt><trkpt lat="42.8805735611547" lon="11.697667091817035"><ele>612.0</ele><time>2026-04-19T11:15:19.001Z</time></trkpt><trkpt lat="42.88047152737285" lon="11.697605063668647"><ele>612.0</ele><time>2026-04-19T11:15:20.001Z</time></trkpt><trkpt lat="42.88034787772248" lon="11.69761137118108"><ele>612.0</ele><time>2026-04-19T11:15:21.001Z</time></trkpt><trkpt lat="42.88021845260013" lon="11.697691651161177"><ele>612.0</ele><time>2026-04-19T11:15:22.001Z</time></trkpt><trkpt lat="42.88008566906661" lon="11.69781785863357"><ele>614.0</ele><time>2026-04-19T11:15:23.001Z</time></trkpt><trkpt lat="42.87994270590631" lon="11.697916051247288"><ele>616.0</ele><time>2026-04-19T11:15:24.001Z</time></trkpt><trkpt lat="42.87980382102575" lon="11.698000572188182"><ele>618.0</ele><time>2026-04-19T11:15:25.001Z</time></trkpt><trkpt lat="42.87965389333501" lon="11.697989158274659"><ele>618.0</ele><time>2026-04-19T11:15:26.001Z</time></trkpt><trkpt lat="42.87949664209708" lon="11.697974045471128"><ele>618.0</ele><time>2026-04-19T11:15:27.001Z</time></trkpt><trkpt lat="42.879319255190566" lon="11.697953441818333"><ele>618.0</ele><time>2026-04-19T11:15:28.001Z</time></trkpt><trkpt lat="42.879130746735626" lon="11.697929121579937"><ele>619.6666666666666</ele><time>2026-04-19T11:15:29.001Z</time></trkpt><trkpt lat="42.878920941790355" lon="11.69787955809647"><ele>621.3333333333333</ele><time>2026-04-19T11:15:30.001Z</time></trkpt><trkpt lat="42.87874591889365" lon="11.697802125241429"><ele>623.0</ele><time>2026-04-19T11:15:31.001Z</time></trkpt><trkpt lat="42.878647618645175" lon="11.697707158775367"><ele>626.5</ele><time>2026-04-19T11:15:32.001Z</time></trkpt><trkpt lat="42.878633911757284" lon="11.697548700538302"><ele>630.0</ele><time>2026-04-19T11:15:34.001Z</time></trkpt><trkpt lat="42.8786695891951" lon="11.697440300893463"><ele>633.5</ele><time>2026-04-19T11:15:35.001Z</time></trkpt><trkpt lat="42.878741053730195" lon="11.697309257014018"><ele>637.0</ele><time>2026-04-19T11:15:36.001Z</time></trkpt><trkpt lat="42.87883250754562" lon="11.697165403470407"><ele>637.0</ele><time>2026-04-19T11:15:37.001Z</time></trkpt><trkpt lat="42.87892668071958" lon="11.696996553441823"><ele>637.0</ele><time>2026-04-19T11:15:38.001Z</time></trkpt><trkpt lat="42.879009229756974" lon="11.69687539255164"><ele>637.0</ele><time>2026-04-19T11:15:39.001Z</time></trkpt><trkpt lat="42.87905632406964" lon="11.696767239225762"><ele>637.0</ele><time>2026-04-19T11:15:40.001Z</time></trkpt><trkpt lat="42.87909717430974" lon="11.696670281023222"><ele>639.75</ele><time>2026-04-19T11:15:41.001Z</time></trkpt><trkpt lat="42.879076824466196" lon="11.696554019931815"><ele>642.5</ele><time>2026-04-19T11:15:42.001Z</time></trkpt><trkpt lat="42.878974903158145" lon="11.696484636926675"><ele>645.25</ele><time>2026-04-19T11:15:43.001Z</time></trkpt><trkpt lat="42.87886432858194" lon="11.696434703355244"><ele>648.0</ele><time>2026-04-19T11:15:44.001Z</time></trkpt><trkpt lat="42.87872332945602" lon="11.696369393736262"><ele>648.0</ele><time>2026-04-19T11:15:45.001Z</time></trkpt><trkpt lat="42.878581122700524" lon="11.696309550197029"><ele>648.0</ele><time>2026-04-19T11:15:46.001Z</time></trkpt><trkpt lat="42.87845564735251" lon="11.696252066303256"><ele>648.0</ele><time>2026-04-19T11:15:47.001Z</time></trkpt><trkpt lat="42.87836772109958" lon="11.696195634155217"><ele>648.0</ele><time>2026-04-19T11:15:48.001Z</time></trkpt><trkpt lat="42.878325449588885" lon="11.696116864327053"><ele>649.25</ele><time>2026-04-19T11:15:49.001Z</time></trkpt><trkpt lat="42.87833771125589" lon="11.695943290690723"><ele>650.5</ele><time>2026-04-19T11:15:51.001Z</time></trkpt><trkpt lat="42.87843467234986" lon="11.695895025440006"><ele>651.75</ele><time>2026-04-19T11:15:52.001Z</time></trkpt><trkpt lat="42.8785434769616" lon="11.695838700276878"><ele>653.0</ele><time>2026-04-19T11:15:53.001Z</time></trkpt><trkpt lat="42.87862240214919" lon="11.695722646397696"><ele>653.0</ele><time>2026-04-19T11:15:54.001Z</time></trkpt><trkpt lat="42.87865605113288" lon="11.695579135305728"><ele>653.0</ele><time>2026-04-19T11:15:55.001Z</time></trkpt><trkpt lat="42.878631006333535" lon="11.695411187881495"><ele>653.0</ele><time>2026-04-19T11:15:56.001Z</time></trkpt><trkpt lat="42.878558869858104" lon="11.695268400440606"><ele>653.0</ele><time>2026-04-19T11:15:57.001Z</time></trkpt><trkpt lat="42.87844274838608" lon="11.695172041608537"><ele>658.3333333333333</ele><time>2026-04-19T11:15:58.001Z</time></trkpt><trkpt lat="42.878297372535556" lon="11.695136519287635"><ele>663.6666666666666</ele><time>2026-04-19T11:15:59.001Z</time></trkpt><trkpt lat="42.87813647820455" lon="11.695159309239795"><ele>669.0</ele><time>2026-04-19T11:16:00.001Z</time></trkpt><trkpt lat="42.877958829522775" lon="11.695219049897238"><ele>669.0</ele><time>2026-04-19T11:16:01Z</time></trkpt><trkpt lat="42.87779313500339" lon="11.695227247513994"><ele>669.0</ele><time>2026-04-19T11:16:02Z</time></trkpt><trkpt lat="42.87768923444444" lon="11.695217996899036"><ele>669.0</ele><time>2026-04-19T11:16:03Z</time></trkpt><trkpt lat="42.877629717094024" lon="11.695184966763351"><ele>669.0</ele><time>2026-04-19T11:16:04Z</time></trkpt><trkpt lat="42.87760954654314" lon="11.695093194869358"><ele>669.0</ele><time>2026-04-19T11:16:05Z</time></trkpt><trkpt lat="42.87764083686229" lon="11.69499325409886"><ele>669.0</ele><time>2026-04-19T11:16:06Z</time></trkpt><trkpt lat="42.87772181763399" lon="11.694904626113589"><ele>669.0</ele><time>2026-04-19T11:16:07Z</time></trkpt><trkpt lat="42.87778919023409" lon="11.694763224362307"><ele>669.0</ele><time>2026-04-19T11:16:08Z</time></trkpt><trkpt lat="42.877834915134095" lon="11.694615048560815"><ele>669.0</ele><time>2026-04-19T11:16:09Z</time></trkpt><trkpt lat="42.87781801499619" lon="11.694470438045949"><ele>670.5</ele><time>2026-04-19T11:16:10Z</time></trkpt><trkpt lat="42.87774408294154" lon="11.694374744170087"><ele>672.0</ele><time>2026-04-19T11:16:11Z</time></trkpt><trkpt lat="42.87763016743059" lon="11.694309111560802"><ele>673.5</ele><time>2026-04-19T11:16:12Z</time></trkpt><trkpt lat="42.87752336796997" lon="11.694218020130867"><ele>675.0</ele><time>2026-04-19T11:16:13Z</time></trkpt><trkpt lat="42.87751911420488" lon="11.694035512006868"><ele>679.6666666666666</ele><time>2026-04-19T11:16:14Z</time></trkpt><trkpt lat="42.877462368848455" lon="11.693814934764701"><ele>684.3333333333333</ele><time>2026-04-19T11:16:15Z</time></trkpt><trkpt lat="42.87737530994278" lon="11.693583057636097"><ele>689.0</ele><time>2026-04-19T11:16:16Z</time></trkpt><trkpt lat="42.877273571613365" lon="11.693335504279695"><ele>691.3333333333333</ele><time>2026-04-19T11:16:17Z</time></trkpt><trkpt lat="42.87720304194724" lon="11.693127952335784"><ele>693.6666666666666</ele><time>2026-04-19T11:16:18Z</time></trkpt><trkpt lat="42.87712392348815" lon="11.69294975625992"><ele>696.0</ele><time>2026-04-19T11:16:19Z</time></trkpt><trkpt lat="42.87702353461398" lon="11.6928255224793"><ele>698.0</ele><time>2026-04-19T11:16:20Z</time></trkpt><trkpt lat="42.876946920881366" lon="11.692719086689083"><ele>700.0</ele><time>2026-04-19T11:16:21Z</time></trkpt><trkpt lat="42.8768811629534" lon="11.692601261730397"><ele>702.0</ele><time>2026-04-19T11:16:22Z</time></trkpt><trkpt lat="42.876862717370216" lon="11.69245412483267"><ele>704.0</ele><time>2026-04-19T11:16:23Z</time></trkpt><trkpt lat="42.876881579654835" lon="11.692308620212465"><ele>706.0</ele><time>2026-04-19T11:16:24Z</time></trkpt><trkpt lat="42.876856594796635" lon="11.692206169311804"><ele>706.0</ele><time>2026-04-19T11:16:25Z</time></trkpt><trkpt lat="42.87679824226378" lon="11.692144238595304"><ele>706.0</ele><time>2026-04-19T11:16:26Z</time></trkpt><trkpt lat="42.876709746938566" lon="11.69211804112287"><ele>706.0</ele><time>2026-04-19T11:16:27Z</time></trkpt><trkpt lat="42.87658762815976" lon="11.692223106211593"><ele>706.0</ele><time>2026-04-19T11:16:28Z</time></trkpt><trkpt lat="42.876465259828244" lon="11.692318349645186"><ele>707.5999999999999</ele><time>2026-04-19T11:16:29Z</time></trkpt><trkpt lat="42.87632805334929" lon="11.692387048782745"><ele>709.2</ele><time>2026-04-19T11:16:30Z</time></trkpt><trkpt lat="42.876231413591285" lon="11.692433735199689"><ele>710.8</ele><time>2026-04-19T11:16:31Z</time></trkpt><trkpt lat="42.87616659354893" lon="11.692386386677445"><ele>712.4000000000001</ele><time>2026-04-19T11:16:32Z</time></trkpt><trkpt lat="42.87612833384951" lon="11.692306684314861"><ele>714.0</ele><time>2026-04-19T11:16:33Z</time></trkpt><trkpt lat="42.87615028654979" lon="11.692200915894462"><ele>714.0</ele><time>2026-04-19T11:16:34Z</time></trkpt><trkpt lat="42.87619232145786" lon="11.692112018980769"><ele>714.0</ele><time>2026-04-19T11:16:35Z</time></trkpt><trkpt lat="42.87620558739188" lon="11.691961072889399"><ele>714.0</ele><time>2026-04-19T11:16:36Z</time></trkpt><trkpt lat="42.87623223341084" lon="11.691791831579959"><ele>714.0</ele><time>2026-04-19T11:16:37Z</time></trkpt><trkpt lat="42.87624373734827" lon="11.691620506212132"><ele>714.0</ele><time>2026-04-19T11:16:38Z</time></trkpt><trkpt lat="42.876221236387366" lon="11.691415089779715"><ele>718.3333333333334</ele><time>2026-04-19T11:16:39Z</time></trkpt><trkpt lat="42.87618057072802" lon="11.691182573770101"><ele>722.6666666666667</ele><time>2026-04-19T11:16:40Z</time></trkpt><trkpt lat="42.87613131782542" lon="11.690919578309694"><ele>727.0</ele><time>2026-04-19T11:16:41Z</time></trkpt><trkpt lat="42.876109146819566" lon="11.690669645830909"><ele>728.5</ele><time>2026-04-19T11:16:42Z</time></trkpt><trkpt lat="42.876084814663514" lon="11.690487143227235"><ele>730.0</ele><time>2026-04-19T11:16:43Z</time></trkpt><trkpt lat="42.876088550055734" lon="11.690352654594534"><ele>731.5</ele><time>2026-04-19T11:16:44Z</time></trkpt><trkpt lat="42.876143702227985" lon="11.690208076056116"><ele>733.0</ele><time>2026-04-19T11:16:45Z</time></trkpt><trkpt lat="42.87621199617905" lon="11.689996552686516"><ele>734.6666666666667</ele><time>2026-04-19T11:16:46Z</time></trkpt><trkpt lat="42.87626373269898" lon="11.689743555385686"><ele>736.3333333333334</ele><time>2026-04-19T11:16:47Z</time></trkpt><trkpt lat="42.876341355110206" lon="11.689524028323893"><ele>738.0</ele><time>2026-04-19T11:16:48Z</time></trkpt><trkpt lat="42.87639932596405" lon="11.68934618797528"><ele>740.75</ele><time>2026-04-19T11:16:49Z</time></trkpt><trkpt lat="42.87645390625902" lon="11.689196176903542"><ele>743.5</ele><time>2026-04-19T11:16:50Z</time></trkpt><trkpt lat="42.87649847242034" lon="11.689033687977483"><ele>746.25</ele><time>2026-04-19T11:16:51Z</time></trkpt><trkpt lat="42.87650727235843" lon="11.688822645429507"><ele>749.0</ele><time>2026-04-19T11:16:52Z</time></trkpt><trkpt lat="42.87654613760986" lon="11.6885698134465"><ele>751.6666666666666</ele><time>2026-04-19T11:16:53Z</time></trkpt><trkpt lat="42.87657752104183" lon="11.688266076655546"><ele>754.3333333333334</ele><time>2026-04-19T11:16:54Z</time></trkpt><trkpt lat="42.876608366723225" lon="11.687988237934208"><ele>757.0</ele><time>2026-04-19T11:16:55.001Z</time></trkpt><trkpt lat="42.87666806792212" lon="11.687793340870547"><ele>758.4000000000001</ele><time>2026-04-19T11:16:56.001Z</time></trkpt><trkpt lat="42.87673962473153" lon="11.687642011029006"><ele>759.8000000000001</ele><time>2026-04-19T11:16:57.001Z</time></trkpt><trkpt lat="42.87680648689108" lon="11.687495146682403"><ele>761.2</ele><time>2026-04-19T11:16:58.001Z</time></trkpt><trkpt lat="42.87683228217505" lon="11.687361684302799"><ele>762.6</ele><time>2026-04-19T11:16:59.001Z</time></trkpt><trkpt lat="42.87682097022345" lon="11.687240902798813"><ele>764.0</ele><time>2026-04-19T11:17:00.001Z</time></trkpt><trkpt lat="42.87679938095054" lon="11.687089821933721"><ele>764.0</ele><time>2026-04-19T11:17:01.001Z</time></trkpt><trkpt lat="42.87667764544625" lon="11.68695239661799"><ele>764.0</ele><time>2026-04-19T11:17:02.001Z</time></trkpt><trkpt lat="42.87656457250015" lon="11.686800115284912"><ele>764.0</ele><time>2026-04-19T11:17:03.001Z</time></trkpt><trkpt lat="42.876483739921945" lon="11.68660362552033"><ele>767.3333333333333</ele><time>2026-04-19T11:17:04.001Z</time></trkpt><trkpt lat="42.8763787477771" lon="11.6863801883913"><ele>770.6666666666666</ele><time>2026-04-19T11:17:05.001Z</time></trkpt><trkpt lat="42.87626604072819" lon="11.68619547304559"><ele>774.0</ele><time>2026-04-19T11:17:06.001Z</time></trkpt><trkpt lat="42.87620247255642" lon="11.686058302368362"><ele>776.25</ele><time>2026-04-19T11:17:07.001Z</time></trkpt><trkpt lat="42.87620789936266" lon="11.68590483548254"><ele>778.5</ele><time>2026-04-19T11:17:08.001Z</time></trkpt><trkpt lat="42.87621214281778" lon="11.685731929635034"><ele>780.75</ele><time>2026-04-19T11:17:09.001Z</time></trkpt><trkpt lat="42.876197139072666" lon="11.68552705168526"><ele>783.0</ele><time>2026-04-19T11:17:10.001Z</time></trkpt><trkpt lat="42.87619032412541" lon="11.685314114194126"><ele>784.0</ele><time>2026-04-19T11:17:11.001Z</time></trkpt><trkpt lat="42.876202758523085" lon="11.685102284386856"><ele>785.0</ele><time>2026-04-19T11:17:12.001Z</time></trkpt><trkpt lat="42.87620065742837" lon="11.684889854527448"><ele>786.0</ele><time>2026-04-19T11:17:13.001Z</time></trkpt><trkpt lat="42.87618313644807" lon="11.684697235621071"><ele>786.0</ele><time>2026-04-19T11:17:14.001Z</time></trkpt><trkpt lat="42.87620674221829" lon="11.684528502132517"><ele>786.0</ele><time>2026-04-19T11:17:15.001Z</time></trkpt><trkpt lat="42.876237645370864" lon="11.684370555788526"><ele>786.0</ele><time>2026-04-19T11:17:16.001Z</time></trkpt><trkpt lat="42.87630942101863" lon="11.684198059119147"><ele>786.0</ele><time>2026-04-19T11:17:17.001Z</time></trkpt><trkpt lat="42.87639271700941" lon="11.684031103329328"><ele>786.25</ele><time>2026-04-19T11:17:18.001Z</time></trkpt><trkpt lat="42.876476872408126" lon="11.683863525447293"><ele>786.5</ele><time>2026-04-19T11:17:19.001Z</time></trkpt><trkpt lat="42.87655898313638" lon="11.683700018938127"><ele>786.75</ele><time>2026-04-19T11:17:20.001Z</time></trkpt><trkpt lat="42.87662371739783" lon="11.683531959896024"><ele>787.0</ele><time>2026-04-19T11:17:21.001Z</time></trkpt><trkpt lat="42.876694030639335" lon="11.683383476543277"><ele>785.5</ele><time>2026-04-19T11:17:22.001Z</time></trkpt><trkpt lat="42.87675780045887" lon="11.683241487298766"><ele>784.0</ele><time>2026-04-19T11:17:23.001Z</time></trkpt><trkpt lat="42.87683236435379" lon="11.68311489085581"><ele>782.5</ele><time>2026-04-19T11:17:24.001Z</time></trkpt><trkpt lat="42.87689203347621" lon="11.682969386480375"><ele>781.0</ele><time>2026-04-19T11:17:25.001Z</time></trkpt><trkpt lat="42.876949229323934" lon="11.68282179195459"><ele>782.4</ele><time>2026-04-19T11:17:26.001Z</time></trkpt><trkpt lat="42.87700224748907" lon="11.682681384314284"><ele>783.8</ele><time>2026-04-19T11:17:27.001Z</time></trkpt><trkpt lat="42.877037987166766" lon="11.682532986475275"><ele>785.1999999999999</ele><time>2026-04-19T11:17:28.001Z</time></trkpt><trkpt lat="42.87708587217257" lon="11.682405454270809"><ele>786.5999999999999</ele><time>2026-04-19T11:17:29.001Z</time></trkpt><trkpt lat="42.87713156997482" lon="11.682310341377706"><ele>788.0</ele><time>2026-04-19T11:17:30.001Z</time></trkpt><trkpt lat="42.877155968067754" lon="11.682215052859275"><ele>788.0000000000001</ele><time>2026-04-19T11:17:31.001Z</time></trkpt><trkpt lat="42.87717234518353" lon="11.682108787499415"><ele>788.0</ele><time>2026-04-19T11:17:32.001Z</time></trkpt><trkpt lat="42.87716681974078" lon="11.681998788400273"><ele>788.0</ele><time>2026-04-19T11:17:33.001Z</time></trkpt><trkpt lat="42.87718714567452" lon="11.681889483340154"><ele>788.0</ele><time>2026-04-19T11:17:34.001Z</time></trkpt><trkpt lat="42.877233942707775" lon="11.681792423837269"><ele>788.0000000000001</ele><time>2026-04-19T11:17:35.001Z</time></trkpt><trkpt lat="42.87726866222209" lon="11.68168444632564"><ele>788.0</ele><time>2026-04-19T11:17:36.001Z</time></trkpt><trkpt lat="42.87729312185793" lon="11.681556277068331"><ele>789.8</ele><time>2026-04-19T11:17:37.001Z</time></trkpt><trkpt lat="42.877347834649065" lon="11.681437119597419"><ele>791.5999999999999</ele><time>2026-04-19T11:17:38.001Z</time></trkpt><trkpt lat="42.87738941158249" lon="11.681305269993436"><ele>793.4000000000001</ele><time>2026-04-19T11:17:39.001Z</time></trkpt><trkpt lat="42.877433177041276" lon="11.681163019557202"><ele>795.2</ele><time>2026-04-19T11:17:40.001Z</time></trkpt><trkpt lat="42.877463768037074" lon="11.681015218028682"><ele>797.0</ele><time>2026-04-19T11:17:41.001Z</time></trkpt><trkpt lat="42.87750722080029" lon="11.6808687858563"><ele>798.75</ele><time>2026-04-19T11:17:42.001Z</time></trkpt><trkpt lat="42.877537193634424" lon="11.68073051781832"><ele>800.5</ele><time>2026-04-19T11:17:43.001Z</time></trkpt><trkpt lat="42.87754709520188" lon="11.680587013435915"><ele>802.25</ele><time>2026-04-19T11:17:44.001Z</time></trkpt><trkpt lat="42.87749197997336" lon="11.680291881868994"><ele>804.0</ele><time>2026-04-19T11:17:46.001Z</time></trkpt><trkpt lat="42.87744587424369" lon="11.680155558051188"><ele>804.75</ele><time>2026-04-19T11:17:47.001Z</time></trkpt><trkpt lat="42.877400810234626" lon="11.680016908159311"><ele>805.5</ele><time>2026-04-19T11:17:48.001Z</time></trkpt><trkpt lat="42.87736346038021" lon="11.679870009329555"><ele>806.25</ele><time>2026-04-19T11:17:49.001Z</time></trkpt><trkpt lat="42.877336092970694" lon="11.679688026875745"><ele>807.0</ele><time>2026-04-19T11:17:50.001Z</time></trkpt><trkpt lat="42.87733245028499" lon="11.679506548205152"><ele>807.8</ele><time>2026-04-19T11:17:51.001Z</time></trkpt><trkpt lat="42.877343177534264" lon="11.679339666737683"><ele>808.6</ele><time>2026-04-19T11:17:52.001Z</time></trkpt><trkpt lat="42.87737178405156" lon="11.679193274128545"><ele>809.4</ele><time>2026-04-19T11:17:53.001Z</time></trkpt><trkpt lat="42.87743262723029" lon="11.679075037181141"><ele>810.1999999999999</ele><time>2026-04-19T11:17:54.001Z</time></trkpt><trkpt lat="42.87752194297732" lon="11.679015434766889"><ele>811.0</ele><time>2026-04-19T11:17:55.001Z</time></trkpt><trkpt lat="42.87759080894663" lon="11.678971007945695"><ele>810.9999999999999</ele><time>2026-04-19T11:17:56.001Z</time></trkpt><trkpt lat="42.8776609556913" lon="11.678963554628464"><ele>811.0</ele><time>2026-04-19T11:17:57.001Z</time></trkpt><trkpt lat="42.87777230102115" lon="11.678922193709834"><ele>811.0</ele><time>2026-04-19T11:17:59.001Z</time></trkpt><trkpt lat="42.877858934092444" lon="11.678874333087714"><ele>811.0</ele><time>2026-04-19T11:18:01.001Z</time></trkpt><trkpt lat="42.87792319131139" lon="11.678831908949148"><ele>810.9999999999999</ele><time>2026-04-19T11:18:03.001Z</time></trkpt><trkpt lat="42.87797773827398" lon="11.678788843801527"><ele>811.0</ele><time>2026-04-19T11:18:05.001Z</time></trkpt><trkpt lat="42.87803669865239" lon="11.678731492013172"><ele>810.9999999999999</ele><time>2026-04-19T11:18:08Z</time></trkpt><trkpt lat="42.877991901780376" lon="11.67856704457117"><ele>811.0</ele><time>2026-04-19T11:18:10Z</time></trkpt><trkpt lat="42.87795597222146" lon="11.678484520691699"><ele>811.0</ele><time>2026-04-19T11:18:11Z</time></trkpt><trkpt lat="42.87794141614883" lon="11.67839120053584"><ele>811.0</ele><time>2026-04-19T11:18:12Z</time></trkpt><trkpt lat="42.87793391642916" lon="11.67827953024205"><ele>810.9999999999999</ele><time>2026-04-19T11:18:13Z</time></trkpt><trkpt lat="42.877933900010646" lon="11.678165154881432"><ele>811.0</ele><time>2026-04-19T11:18:14Z</time></trkpt><trkpt lat="42.87795904855232" lon="11.678054076061828"><ele>810.9999999999999</ele><time>2026-04-19T11:18:15Z</time></trkpt><trkpt lat="42.87796019586991" lon="11.67793928092704"><ele>811.0</ele><time>2026-04-19T11:18:16Z</time></trkpt><trkpt lat="42.87798571527133" lon="11.677830674346513"><ele>811.0</ele><time>2026-04-19T11:18:17Z</time></trkpt><trkpt lat="42.87803335296087" lon="11.677734744929833"><ele>811.0</ele><time>2026-04-19T11:18:18Z</time></trkpt><trkpt lat="42.878072402026035" lon="11.677633378761568"><ele>810.9999999999999</ele><time>2026-04-19T11:18:19Z</time></trkpt><trkpt lat="42.87812620475915" lon="11.677549131017535"><ele>811.0</ele><time>2026-04-19T11:18:20Z</time></trkpt><trkpt lat="42.87818150449014" lon="11.67746426381299"><ele>811.8</ele><time>2026-04-19T11:18:21Z</time></trkpt><trkpt lat="42.87823950716821" lon="11.6773786280362"><ele>812.5999999999999</ele><time>2026-04-19T11:18:22Z</time></trkpt><trkpt lat="42.87830626328147" lon="11.677283409123543"><ele>813.4</ele><time>2026-04-19T11:18:23Z</time></trkpt><trkpt lat="42.87836347360947" lon="11.677172400651328"><ele>814.2</ele><time>2026-04-19T11:18:24Z</time></trkpt><trkpt lat="42.87842966304494" lon="11.677079458932827"><ele>815.0</ele><time>2026-04-19T11:18:25Z</time></trkpt><trkpt lat="42.878494183069535" lon="11.676990194900046"><ele>815.2</ele><time>2026-04-19T11:18:26Z</time></trkpt><trkpt lat="42.87856917259738" lon="11.67691665245616"><ele>815.4</ele><time>2026-04-19T11:18:27Z</time></trkpt><trkpt lat="42.87863258333995" lon="11.676828987910124"><ele>815.5999999999999</ele><time>2026-04-19T11:18:28Z</time></trkpt><trkpt lat="42.87869160655287" lon="11.676715470059994"><ele>815.8</ele><time>2026-04-19T11:18:29Z</time></trkpt><trkpt lat="42.878775026986645" lon="11.676631051899813"><ele>816.0</ele><time>2026-04-19T11:18:30Z</time></trkpt><trkpt lat="42.87884643993015" lon="11.676532770637094"><ele>816.0</ele><time>2026-04-19T11:18:31Z</time></trkpt><trkpt lat="42.87892468243293" lon="11.676425476090463"><ele>816.0</ele><time>2026-04-19T11:18:32Z</time></trkpt><trkpt lat="42.87899434994943" lon="11.676303950552358"><ele>816.0</ele><time>2026-04-19T11:18:33Z</time></trkpt><trkpt lat="42.87907474724887" lon="11.67618847278769"><ele>816.0</ele><time>2026-04-19T11:18:34Z</time></trkpt><trkpt lat="42.879158996914555" lon="11.676069528884295"><ele>816.75</ele><time>2026-04-19T11:18:35Z</time></trkpt><trkpt lat="42.87925916093533" lon="11.67596412162702"><ele>817.5</ele><time>2026-04-19T11:18:36Z</time></trkpt><trkpt lat="42.879350342858686" lon="11.675839087094252"><ele>818.25</ele><time>2026-04-19T11:18:37Z</time></trkpt><trkpt lat="42.87944691809336" lon="11.675706652471863"><ele>819.0</ele><time>2026-04-19T11:18:38Z</time></trkpt><trkpt lat="42.8795471064267" lon="11.6755692607869"><ele>819.5</ele><time>2026-04-19T11:18:39Z</time></trkpt><trkpt lat="42.87964961656588" lon="11.675426818156836"><ele>820.0</ele><time>2026-04-19T11:18:40Z</time></trkpt><trkpt lat="42.879747437071806" lon="11.675289964604838"><ele>820.5</ele><time>2026-04-19T11:18:41Z</time></trkpt><trkpt lat="42.87984942519958" lon="11.675147280588023"><ele>821.0</ele><time>2026-04-19T11:18:42Z</time></trkpt><trkpt lat="42.879956788679976" lon="11.674997076270984"><ele>821.6666666666667</ele><time>2026-04-19T11:18:43Z</time></trkpt><trkpt lat="42.880065493595225" lon="11.674844733814705"><ele>822.3333333333333</ele><time>2026-04-19T11:18:44Z</time></trkpt><trkpt lat="42.880175877085854" lon="11.674695472682068"><ele>823.0</ele><time>2026-04-19T11:18:45Z</time></trkpt><trkpt lat="42.88028421039979" lon="11.674570944182866"><ele>823.5999999999999</ele><time>2026-04-19T11:18:46Z</time></trkpt><trkpt lat="42.880382621354414" lon="11.674462129613044"><ele>824.1999999999999</ele><time>2026-04-19T11:18:47Z</time></trkpt><trkpt lat="42.88048562479872" lon="11.67439792253866"><ele>824.8</ele><time>2026-04-19T11:18:48Z</time></trkpt><trkpt lat="42.880588295009645" lon="11.674377978556606"><ele>825.4</ele><time>2026-04-19T11:18:49Z</time></trkpt><trkpt lat="42.88067147764432" lon="11.674327266096068"><ele>826.0</ele><time>2026-04-19T11:18:50Z</time></trkpt><trkpt lat="42.8807516918435" lon="11.67429720393789"><ele>826.4</ele><time>2026-04-19T11:18:51Z</time></trkpt><trkpt lat="42.88083061633648" lon="11.674269935975424"><ele>826.8</ele><time>2026-04-19T11:18:52Z</time></trkpt><trkpt lat="42.88092187735811" lon="11.674243952902433"><ele>827.1999999999999</ele><time>2026-04-19T11:18:53Z</time></trkpt><trkpt lat="42.88104648046518" lon="11.674199303742324"><ele>827.5999999999999</ele><time>2026-04-19T11:18:54Z</time></trkpt><trkpt lat="42.88118629614874" lon="11.67414771099054"><ele>828.0</ele><time>2026-04-19T11:18:55Z</time></trkpt><trkpt lat="42.88133147135786" lon="11.674096035362883"><ele>828.5999999999999</ele><time>2026-04-19T11:18:56Z</time></trkpt><trkpt lat="42.88145223030552" lon="11.674046307034345"><ele>829.1999999999999</ele><time>2026-04-19T11:18:57Z</time></trkpt><trkpt lat="42.88154935431101" lon="11.673999048099777"><ele>829.8</ele><time>2026-04-19T11:18:58Z</time></trkpt><trkpt lat="42.88163081173478" lon="11.673937760200868"><ele>830.4</ele><time>2026-04-19T11:18:59Z</time></trkpt><trkpt lat="42.88170167581691" lon="11.673855650065255"><ele>831.0</ele><time>2026-04-19T11:19:00Z</time></trkpt><trkpt lat="42.88177876108611" lon="11.673747489139842"><ele>831.0</ele><time>2026-04-19T11:19:01Z</time></trkpt><trkpt lat="42.88186435364811" lon="11.673634599472203"><ele>831.0</ele><time>2026-04-19T11:19:02Z</time></trkpt><trkpt lat="42.88195432098455" lon="11.673521115804753"><ele>831.0</ele><time>2026-04-19T11:19:03Z</time></trkpt><trkpt lat="42.882044957371726" lon="11.673415344618231"><ele>831.0</ele><time>2026-04-19T11:19:04.001Z</time></trkpt><trkpt lat="42.88212881303303" lon="11.67331836153452"><ele>831.4</ele><time>2026-04-19T11:19:05.001Z</time></trkpt><trkpt lat="42.88220841769929" lon="11.673225400649608"><ele>831.8</ele><time>2026-04-19T11:19:06.001Z</time></trkpt><trkpt lat="42.88228964585015" lon="11.673125806397936"><ele>832.1999999999999</ele><time>2026-04-19T11:19:07.001Z</time></trkpt><trkpt lat="42.8823730056951" lon="11.673026181156049"><ele>832.5999999999999</ele><time>2026-04-19T11:19:08.001Z</time></trkpt><trkpt lat="42.88245340603154" lon="11.672922165935962"><ele>833.0</ele><time>2026-04-19T11:19:09.001Z</time></trkpt><trkpt lat="42.88253156627315" lon="11.672820046123398"><ele>834.4</ele><time>2026-04-19T11:19:10.001Z</time></trkpt><trkpt lat="42.882609589780124" lon="11.672719342617988"><ele>835.8</ele><time>2026-04-19T11:19:11.001Z</time></trkpt><trkpt lat="42.882687634401925" lon="11.672619303816159"><ele>837.2</ele><time>2026-04-19T11:19:12.001Z</time></trkpt><trkpt lat="42.8827665044827" lon="11.672517180639328"><ele>838.6</ele><time>2026-04-19T11:19:13.001Z</time></trkpt><trkpt lat="42.882845668965636" lon="11.672414382903643"><ele>840.0</ele><time>2026-04-19T11:19:14.001Z</time></trkpt><trkpt lat="42.882925198385486" lon="11.672318049346758"><ele>840.0</ele><time>2026-04-19T11:19:15.001Z</time></trkpt><trkpt lat="42.88299181202773" lon="11.672243697545253"><ele>840.0</ele><time>2026-04-19T11:19:16.001Z</time></trkpt><trkpt lat="42.88305463423833" lon="11.67220936912296"><ele>840.0</ele><time>2026-04-19T11:19:17.001Z</time></trkpt><trkpt lat="42.88314976332937" lon="11.672153797059279"><ele>840.0</ele><time>2026-04-19T11:19:19.001Z</time></trkpt><trkpt lat="42.88322443565134" lon="11.672103135909254"><ele>840.0</ele><time>2026-04-19T11:19:21.001Z</time></trkpt><trkpt lat="42.883288538339244" lon="11.672027035929316"><ele>840.0</ele><time>2026-04-19T11:19:29.001Z</time></trkpt><trkpt lat="42.883342730188446" lon="11.671951141531215"><ele>841.2</ele><time>2026-04-19T11:19:53.001Z</time></trkpt><trkpt lat="42.8833522226592" lon="11.671855462823608"><ele>842.4</ele><time>2026-04-19T11:19:55.001Z</time></trkpt><trkpt lat="42.883398563944525" lon="11.671742859299446"><ele>843.5999999999999</ele><time>2026-04-19T11:20:01.001Z</time></trkpt><trkpt lat="42.8834680585124" lon="11.671665739507807"><ele>844.8</ele><time>2026-04-19T11:20:02.001Z</time></trkpt><trkpt lat="42.88355553150432" lon="11.671562338944396"><ele>846.0</ele><time>2026-04-19T11:20:03.001Z</time></trkpt><trkpt lat="42.88364596455492" lon="11.671450489974031"><ele>846.0</ele><time>2026-04-19T11:20:04.001Z</time></trkpt><trkpt lat="42.88375157511667" lon="11.671315859039648"><ele>846.0</ele><time>2026-04-19T11:20:05.001Z</time></trkpt><trkpt lat="42.88385782451171" lon="11.671189080012637"><ele>846.0</ele><time>2026-04-19T11:20:06.001Z</time></trkpt><trkpt lat="42.88396707123648" lon="11.671054852916187"><ele>846.0</ele><time>2026-04-19T11:20:07.001Z</time></trkpt><trkpt lat="42.88405698584867" lon="11.67091635842468"><ele>846.5999999999999</ele><time>2026-04-19T11:20:08.001Z</time></trkpt><trkpt lat="42.884122392361775" lon="11.670781278774"><ele>847.2</ele><time>2026-04-19T11:20:09.001Z</time></trkpt><trkpt lat="42.88416973186092" lon="11.6706490705168"><ele>847.8</ele><time>2026-04-19T11:20:10.001Z</time></trkpt><trkpt lat="42.88423243245666" lon="11.67052971693185"><ele>848.4000000000001</ele><time>2026-04-19T11:20:11.001Z</time></trkpt><trkpt lat="42.8842876254909" lon="11.670404124826035"><ele>849.0</ele><time>2026-04-19T11:20:12.001Z</time></trkpt><trkpt lat="42.88434592851972" lon="11.670272623423338"><ele>851.25</ele><time>2026-04-19T11:20:13Z</time></trkpt><trkpt lat="42.884443424802974" lon="11.670191982431833"><ele>853.5</ele><time>2026-04-19T11:20:14Z</time></trkpt><trkpt lat="42.88456085223164" lon="11.670173036966384"><ele>855.75</ele><time>2026-04-19T11:20:15Z</time></trkpt><trkpt lat="42.88467770372807" lon="11.670147432353666"><ele>858.0</ele><time>2026-04-19T11:20:16Z</time></trkpt><trkpt lat="42.88479562574983" lon="11.670127592983793"><ele>858.0</ele><time>2026-04-19T11:20:17Z</time></trkpt><trkpt lat="42.88490960350132" lon="11.67009462087134"><ele>858.0</ele><time>2026-04-19T11:20:18Z</time></trkpt><trkpt lat="42.88502630282049" lon="11.670082611668311"><ele>858.0</ele><time>2026-04-19T11:20:19Z</time></trkpt><trkpt lat="42.88514381814645" lon="11.67006656277418"><ele>858.0</ele><time>2026-04-19T11:20:20Z</time></trkpt><trkpt lat="42.88524854503643" lon="11.670050697612313"><ele>858.25</ele><time>2026-04-19T11:20:21Z</time></trkpt><trkpt lat="42.88535691434767" lon="11.670032655498384"><ele>858.5</ele><time>2026-04-19T11:20:22Z</time></trkpt><trkpt lat="42.88548126707776" lon="11.670011793366672"><ele>858.75</ele><time>2026-04-19T11:20:23Z</time></trkpt><trkpt lat="42.88560438172544" lon="11.669992049505945"><ele>859.0</ele><time>2026-04-19T11:20:24Z</time></trkpt><trkpt lat="42.885706577032316" lon="11.669969743836111"><ele>859.0</ele><time>2026-04-19T11:20:25Z</time></trkpt><trkpt lat="42.8857976634837" lon="11.669934380802081"><ele>859.0000000000001</ele><time>2026-04-19T11:20:26Z</time></trkpt><trkpt lat="42.885894603049756" lon="11.669873654997774"><ele>859.0000000000001</ele><time>2026-04-19T11:20:27Z</time></trkpt><trkpt lat="42.8859874510471" lon="11.669782792262446"><ele>859.0</ele><time>2026-04-19T11:20:28Z</time></trkpt><trkpt lat="42.88606603097293" lon="11.669660282039148"><ele>859.0</ele><time>2026-04-19T11:20:29Z</time></trkpt><trkpt lat="42.886127095341536" lon="11.669492467120758"><ele>855.6666666666666</ele><time>2026-04-19T11:20:30Z</time></trkpt><trkpt lat="42.88619155234913" lon="11.669289495897251"><ele>852.3333333333333</ele><time>2026-04-19T11:20:31Z</time></trkpt><trkpt lat="42.88623266628241" lon="11.669079519327871"><ele>849.0</ele><time>2026-04-19T11:20:32Z</time></trkpt><trkpt lat="42.88627961061674" lon="11.668867901873133"><ele>849.0</ele><time>2026-04-19T11:20:33Z</time></trkpt><trkpt lat="42.886344518433965" lon="11.668663389292128"><ele>849.0</ele><time>2026-04-19T11:20:34Z</time></trkpt><trkpt lat="42.88641583178171" lon="11.668476765966078"><ele>849.0</ele><time>2026-04-19T11:20:35Z</time></trkpt><trkpt lat="42.88648925947819" lon="11.668322244474178"><ele>848.5</ele><time>2026-04-19T11:20:36Z</time></trkpt><trkpt lat="42.88656785788538" lon="11.668191335685844"><ele>848.0</ele><time>2026-04-19T11:20:37Z</time></trkpt><trkpt lat="42.88664267908933" lon="11.668069896516007"><ele>847.5</ele><time>2026-04-19T11:20:38Z</time></trkpt><trkpt lat="42.886719110944604" lon="11.667945943558822"><ele>847.0</ele><time>2026-04-19T11:20:39Z</time></trkpt><trkpt lat="42.886799432298524" lon="11.667822025763508"><ele>849.75</ele><time>2026-04-19T11:20:40Z</time></trkpt><trkpt lat="42.88688029922232" lon="11.667683860937927"><ele>852.5</ele><time>2026-04-19T11:20:41Z</time></trkpt><trkpt lat="42.886988894210575" lon="11.667566489892803"><ele>855.25</ele><time>2026-04-19T11:20:42Z</time></trkpt><trkpt lat="42.887113279201664" lon="11.667484320264325"><ele>858.0</ele><time>2026-04-19T11:20:43Z</time></trkpt><trkpt lat="42.88724098465876" lon="11.667390678239888"><ele>858.0</ele><time>2026-04-19T11:20:44Z</time></trkpt><trkpt lat="42.88739936310487" lon="11.667280605055725"><ele>858.0</ele><time>2026-04-19T11:20:45Z</time></trkpt><trkpt lat="42.8875653500267" lon="11.66716535486387"><ele>858.0</ele><time>2026-04-19T11:20:46Z</time></trkpt><trkpt lat="42.887721571463594" lon="11.667069576726872"><ele>858.6666666666667</ele><time>2026-04-19T11:20:47Z</time></trkpt><trkpt lat="42.88788590814344" lon="11.66700318835666"><ele>859.3333333333334</ele><time>2026-04-19T11:20:48Z</time></trkpt><trkpt lat="42.88805986393989" lon="11.666965775900605"><ele>860.0</ele><time>2026-04-19T11:20:49Z</time></trkpt><trkpt lat="42.8882300324666" lon="11.666925074017078"><ele>862.0</ele><time>2026-04-19T11:20:50Z</time></trkpt><trkpt lat="42.88839998501679" lon="11.666921327950545"><ele>864.0</ele><time>2026-04-19T11:20:51Z</time></trkpt><trkpt lat="42.88856623206775" lon="11.66686922174042"><ele>866.0</ele><time>2026-04-19T11:20:52Z</time></trkpt><trkpt lat="42.88872314526276" lon="11.666773857294544"><ele>866.0</ele><time>2026-04-19T11:20:53Z</time></trkpt><trkpt lat="42.8888742690393" lon="11.666666721054394"><ele>866.0</ele><time>2026-04-19T11:20:54Z</time></trkpt><trkpt lat="42.889009682118804" lon="11.666543535279454"><ele>866.0</ele><time>2026-04-19T11:20:55Z</time></trkpt><trkpt lat="42.889116520950026" lon="11.666388122435878"><ele>866.0</ele><time>2026-04-19T11:20:56Z</time></trkpt><trkpt lat="42.88918915914731" lon="11.666213251204752"><ele>866.0</ele><time>2026-04-19T11:20:57Z</time></trkpt><trkpt lat="42.88931076479112" lon="11.666133616590038"><ele>866.0</ele><time>2026-04-19T11:20:58Z</time></trkpt><trkpt lat="42.88943163842134" lon="11.666105641108983"><ele>866.0</ele><time>2026-04-19T11:20:59Z</time></trkpt><trkpt lat="42.88956791673842" lon="11.666083847107279"><ele>866.0</ele><time>2026-04-19T11:21:00Z</time></trkpt><trkpt lat="42.889692207867284" lon="11.666087090245897"><ele>865.9999999999999</ele><time>2026-04-19T11:21:01Z</time></trkpt><trkpt lat="42.8897868677243" lon="11.666098414617933"><ele>865.9999999999999</ele><time>2026-04-19T11:21:02Z</time></trkpt><trkpt lat="42.88987115235723" lon="11.666173083374288"><ele>866.0</ele><time>2026-04-19T11:21:03Z</time></trkpt><trkpt lat="42.88997496729738" lon="11.666247989853629"><ele>866.0</ele><time>2026-04-19T11:21:04Z</time></trkpt><trkpt lat="42.89011977142152" lon="11.666327059710458"><ele>867.3333333333334</ele><time>2026-04-19T11:21:05Z</time></trkpt><trkpt lat="42.890302638050066" lon="11.666409897785801"><ele>868.6666666666667</ele><time>2026-04-19T11:21:06Z</time></trkpt><trkpt lat="42.89049418007998" lon="11.66649911329562"><ele>870.0</ele><time>2026-04-19T11:21:07Z</time></trkpt><trkpt lat="42.89068313921139" lon="11.666596400469952"><ele>870.0</ele><time>2026-04-19T11:21:08Z</time></trkpt><trkpt lat="42.89087829062906" lon="11.6667024455408"><ele>870.0</ele><time>2026-04-19T11:21:09.001Z</time></trkpt><trkpt lat="42.89106851151654" lon="11.666802833939512"><ele>870.0</ele><time>2026-04-19T11:21:10.001Z</time></trkpt><trkpt lat="42.89126182297229" lon="11.666909184066965"><ele>869.6666666666667</ele><time>2026-04-19T11:21:11.001Z</time></trkpt><trkpt lat="42.89146175400587" lon="11.667021434416558"><ele>869.3333333333334</ele><time>2026-04-19T11:21:12.001Z</time></trkpt><trkpt lat="42.89166599708506" lon="11.667134860135544"><ele>869.0</ele><time>2026-04-19T11:21:13.001Z</time></trkpt><trkpt lat="42.89186730262567" lon="11.667243726772734"><ele>869.0</ele><time>2026-04-19T11:21:14.001Z</time></trkpt><trkpt lat="42.892071725887796" lon="11.667348650512475"><ele>869.0</ele><time>2026-04-19T11:21:15.001Z</time></trkpt><trkpt lat="42.89227944823375" lon="11.667451303943581"><ele>869.0</ele><time>2026-04-19T11:21:16.001Z</time></trkpt><trkpt lat="42.892488108628775" lon="11.667551189446039"><ele>869.6666666666667</ele><time>2026-04-19T11:21:17.001Z</time></trkpt><trkpt lat="42.89269181390271" lon="11.667646361471412"><ele>870.3333333333333</ele><time>2026-04-19T11:21:18.001Z</time></trkpt><trkpt lat="42.89290364293629" lon="11.667747153136094"><ele>871.0</ele><time>2026-04-19T11:21:19.001Z</time></trkpt><trkpt lat="42.89311920028233" lon="11.667841583405513"><ele>868.0</ele><time>2026-04-19T11:21:20.001Z</time></trkpt><trkpt lat="42.8933371533899" lon="11.66793426822597"><ele>865.0</ele><time>2026-04-19T11:21:21.001Z</time></trkpt><trkpt lat="42.89355403868096" lon="11.668026700374597"><ele>865.0</ele><time>2026-04-19T11:21:22.001Z</time></trkpt><trkpt lat="42.89376642534903" lon="11.668120656118223"><ele>865.0</ele><time>2026-04-19T11:21:23.001Z</time></trkpt><trkpt lat="42.89397927488368" lon="11.668215164240788"><ele>865.0</ele><time>2026-04-19T11:21:24.001Z</time></trkpt><trkpt lat="42.894188849527204" lon="11.668302861287671"><ele>866.0</ele><time>2026-04-19T11:21:25.001Z</time></trkpt><trkpt lat="42.894384125421674" lon="11.668385239022582"><ele>867.0</ele><time>2026-04-19T11:21:26.001Z</time></trkpt><trkpt lat="42.89456777726689" lon="11.668470796561474"><ele>868.0</ele><time>2026-04-19T11:21:27.001Z</time></trkpt><trkpt lat="42.89474681938803" lon="11.668550273999125"><ele>868.0</ele><time>2026-04-19T11:21:28.001Z</time></trkpt><trkpt lat="42.89492214652786" lon="11.668595433987496"><ele>868.0</ele><time>2026-04-19T11:21:29.001Z</time></trkpt><trkpt lat="42.89510330158379" lon="11.668595404259145"><ele>868.0</ele><time>2026-04-19T11:21:30.001Z</time></trkpt><trkpt lat="42.8952990765999" lon="11.668544492340875"><ele>868.0</ele><time>2026-04-19T11:21:31.001Z</time></trkpt><trkpt lat="42.895500978673454" lon="11.668455460388557"><ele>868.0</ele><time>2026-04-19T11:21:32.001Z</time></trkpt><trkpt lat="42.89569882521801" lon="11.668365240823153"><ele>868.0</ele><time>2026-04-19T11:21:33.001Z</time></trkpt><trkpt lat="42.89588499077149" lon="11.66832405874654"><ele>868.3333333333333</ele><time>2026-04-19T11:21:34.001Z</time></trkpt><trkpt lat="42.89606097237887" lon="11.668273127989691"><ele>868.6666666666667</ele><time>2026-04-19T11:21:35.001Z</time></trkpt><trkpt lat="42.89625830042567" lon="11.66829411249444"><ele>869.0</ele><time>2026-04-19T11:21:36.001Z</time></trkpt><trkpt lat="42.89647221169547" lon="11.668335868215912"><ele>869.0</ele><time>2026-04-19T11:21:37.001Z</time></trkpt><trkpt lat="42.8967010583369" lon="11.668377864254879"><ele>869.0</ele><time>2026-04-19T11:21:38.001Z</time></trkpt><trkpt lat="42.89694345644877" lon="11.668422210505407"><ele>872.5</ele><time>2026-04-19T11:21:39.001Z</time></trkpt><trkpt lat="42.89717625111235" lon="11.668472701451275"><ele>876.0</ele><time>2026-04-19T11:21:40.001Z</time></trkpt><trkpt lat="42.89739092190473" lon="11.668530678334653"><ele>875.6666666666667</ele><time>2026-04-19T11:21:41.001Z</time></trkpt><trkpt lat="42.89758922146492" lon="11.668579992041888"><ele>875.3333333333334</ele><time>2026-04-19T11:21:42.001Z</time></trkpt><trkpt lat="42.89777851690264" lon="11.668625316648955"><ele>875.0</ele><time>2026-04-19T11:21:43.001Z</time></trkpt><trkpt lat="42.89795701602828" lon="11.668657081005355"><ele>875.0</ele><time>2026-04-19T11:21:44.001Z</time></trkpt><trkpt lat="42.89813615342602" lon="11.668655483029031"><ele>875.0</ele><time>2026-04-19T11:21:45.001Z</time></trkpt><trkpt lat="42.89830831429047" lon="11.668593252819834"><ele>875.0</ele><time>2026-04-19T11:21:46.001Z</time></trkpt><trkpt lat="42.89847364397164" lon="11.668466380287294"><ele>874.3333333333334</ele><time>2026-04-19T11:21:47.001Z</time></trkpt><trkpt lat="42.898642463714545" lon="11.6682904403723"><ele>873.6666666666667</ele><time>2026-04-19T11:21:48.001Z</time></trkpt><trkpt lat="42.89884580344107" lon="11.668154943768139"><ele>873.0</ele><time>2026-04-19T11:21:49.001Z</time></trkpt><trkpt lat="42.89904915340642" lon="11.667989846646954"><ele>873.0</ele><time>2026-04-19T11:21:50.001Z</time></trkpt><trkpt lat="42.89921676842003" lon="11.66770036779917"><ele>873.0</ele><time>2026-04-19T11:21:51.001Z</time></trkpt><trkpt lat="42.899403706462074" lon="11.667509021192261"><ele>873.0</ele><time>2026-04-19T11:21:52.001Z</time></trkpt><trkpt lat="42.89958430052389" lon="11.667348417053352"><ele>873.0</ele><time>2026-04-19T11:21:53.001Z</time></trkpt><trkpt lat="42.899760890997555" lon="11.667243278724772"><ele>873.0</ele><time>2026-04-19T11:21:54.001Z</time></trkpt><trkpt lat="42.89993176139217" lon="11.667196613439495"><ele>873.5</ele><time>2026-04-19T11:21:55.001Z</time></trkpt><trkpt lat="42.90009936097702" lon="11.667214803199188"><ele>874.0</ele><time>2026-04-19T11:21:56.001Z</time></trkpt><trkpt lat="42.90023523018381" lon="11.667272155545644"><ele>874.5</ele><time>2026-04-19T11:21:57.001Z</time></trkpt><trkpt lat="42.90031230517751" lon="11.667321987465384"><ele>875.0</ele><time>2026-04-19T11:21:58.001Z</time></trkpt><trkpt lat="42.90043304434058" lon="11.667239777322607"><ele>875.0</ele><time>2026-04-19T11:22:00.001Z</time></trkpt><trkpt lat="42.900512381128735" lon="11.667136145210073"><ele>875.0</ele><time>2026-04-19T11:22:01.001Z</time></trkpt><trkpt lat="42.90060378536599" lon="11.667042975067982"><ele>875.0</ele><time>2026-04-19T11:22:02.001Z</time></trkpt><trkpt lat="42.90072947023726" lon="11.666940108235476"><ele>875.0</ele><time>2026-04-19T11:22:03.001Z</time></trkpt><trkpt lat="42.90089242797457" lon="11.666835776762008"><ele>879.0</ele><time>2026-04-19T11:22:04.001Z</time></trkpt><trkpt lat="42.901086403693036" lon="11.666752486343286"><ele>883.0</ele><time>2026-04-19T11:22:05.001Z</time></trkpt><trkpt lat="42.9012908130164" lon="11.666726917452639"><ele>887.0</ele><time>2026-04-19T11:22:06.001Z</time></trkpt><trkpt lat="42.901506801681094" lon="11.666752365154329"><ele>887.0</ele><time>2026-04-19T11:22:07.001Z</time></trkpt><trkpt lat="42.90172320013844" lon="11.666802285827064"><ele>887.0</ele><time>2026-04-19T11:22:08.001Z</time></trkpt><trkpt lat="42.90190532354244" lon="11.666847093432104"><ele>887.0</ele><time>2026-04-19T11:22:09.001Z</time></trkpt><trkpt lat="42.90207076574122" lon="11.666844239927233"><ele>892.3333333333334</ele><time>2026-04-19T11:22:10.001Z</time></trkpt><trkpt lat="42.90221865175277" lon="11.666782101008163"><ele>897.6666666666667</ele><time>2026-04-19T11:22:11.001Z</time></trkpt><trkpt lat="42.90235273218198" lon="11.666658414981333"><ele>903.0</ele><time>2026-04-19T11:22:12.001Z</time></trkpt><trkpt lat="42.902459058254166" lon="11.666501619318115"><ele>903.0</ele><time>2026-04-19T11:22:13.001Z</time></trkpt><trkpt lat="42.902528108757004" lon="11.666309631010053"><ele>903.0</ele><time>2026-04-19T11:22:14.001Z</time></trkpt><trkpt lat="42.90255293195505" lon="11.666094017889174"><ele>903.0</ele><time>2026-04-19T11:22:15.001Z</time></trkpt><trkpt lat="42.90253389752676" lon="11.665867123418309"><ele>902.6666666666667</ele><time>2026-04-19T11:22:16.001Z</time></trkpt><trkpt lat="42.902472417450866" lon="11.66563033617004"><ele>902.3333333333334</ele><time>2026-04-19T11:22:17.001Z</time></trkpt><trkpt lat="42.902366842427064" lon="11.665393692650753"><ele>902.0</ele><time>2026-04-19T11:22:18.001Z</time></trkpt><trkpt lat="42.90222828941523" lon="11.66515072109077"><ele>906.0</ele><time>2026-04-19T11:22:19.001Z</time></trkpt><trkpt lat="42.902076765894535" lon="11.664885094328998"><ele>910.0</ele><time>2026-04-19T11:22:20.001Z</time></trkpt><trkpt lat="42.90193108530251" lon="11.664582687328226"><ele>908.5</ele><time>2026-04-19T11:22:21.001Z</time></trkpt><trkpt lat="42.90180661219869" lon="11.664240210615201"><ele>907.0</ele><time>2026-04-19T11:22:22.001Z</time></trkpt><trkpt lat="42.90172816817964" lon="11.663917098350867"><ele>907.0</ele><time>2026-04-19T11:22:23.001Z</time></trkpt><trkpt lat="42.901649825150464" lon="11.6636285800394"><ele>907.0</ele><time>2026-04-19T11:22:24.001Z</time></trkpt><trkpt lat="42.901580922263214" lon="11.663361490256364"><ele>907.0</ele><time>2026-04-19T11:22:25.001Z</time></trkpt><trkpt lat="42.90155102968365" lon="11.66312741346577"><ele>911.0</ele><time>2026-04-19T11:22:26.001Z</time></trkpt><trkpt lat="42.90155922623947" lon="11.662912636306364"><ele>915.0</ele><time>2026-04-19T11:22:27.001Z</time></trkpt><trkpt lat="42.90160502714942" lon="11.662718845713783"><ele>919.0</ele><time>2026-04-19T11:22:28.001Z</time></trkpt><trkpt lat="42.901691433499586" lon="11.662558447773813"><ele>924.6666666666666</ele><time>2026-04-19T11:22:29.001Z</time></trkpt><trkpt lat="42.90181934436172" lon="11.662435324874483"><ele>930.3333333333333</ele><time>2026-04-19T11:22:30.001Z</time></trkpt><trkpt lat="42.90196723500468" lon="11.662369481473656"><ele>936.0</ele><time>2026-04-19T11:22:31.001Z</time></trkpt><trkpt lat="42.9021333734084" lon="11.66236157245838"><ele>936.0</ele><time>2026-04-19T11:22:32.001Z</time></trkpt><trkpt lat="42.90231870027064" lon="11.662418212996794"><ele>936.0</ele><time>2026-04-19T11:22:33.001Z</time></trkpt><trkpt lat="42.902521363559515" lon="11.662529839174749"><ele>936.0</ele><time>2026-04-19T11:22:34.001Z</time></trkpt><trkpt lat="42.90274136620524" lon="11.662683440051325"><ele>938.5</ele><time>2026-04-19T11:22:35.001Z</time></trkpt><trkpt lat="42.902977126357726" lon="11.662822095907712"><ele>941.0</ele><time>2026-04-19T11:22:36.001Z</time></trkpt><trkpt lat="42.90320616823464" lon="11.662887177959824"><ele>941.6666666666667</ele><time>2026-04-19T11:22:37.001Z</time></trkpt><trkpt lat="42.90341806242809" lon="11.662894186663577"><ele>942.3333333333333</ele><time>2026-04-19T11:22:38.001Z</time></trkpt><trkpt lat="42.90364302004009" lon="11.662842201547114"><ele>943.0</ele><time>2026-04-19T11:22:39.001Z</time></trkpt><trkpt lat="42.90388901045516" lon="11.662730981074347"><ele>946.0</ele><time>2026-04-19T11:22:40.001Z</time></trkpt><trkpt lat="42.904135112078016" lon="11.662600670164297"><ele>949.0</ele><time>2026-04-19T11:22:41.001Z</time></trkpt><trkpt lat="42.90434899164334" lon="11.662522739612932"><ele>951.3333333333333</ele><time>2026-04-19T11:22:42.001Z</time></trkpt><trkpt lat="42.90455180115576" lon="11.662492199252373"><ele>953.6666666666667</ele><time>2026-04-19T11:22:43.001Z</time></trkpt><trkpt lat="42.90473381583965" lon="11.662545441287708"><ele>956.0</ele><time>2026-04-19T11:22:44.001Z</time></trkpt><trkpt lat="42.904903988873656" lon="11.662609824598558"><ele>956.0</ele><time>2026-04-19T11:22:45.001Z</time></trkpt><trkpt lat="42.90505784523788" lon="11.66261800258205"><ele>956.0</ele><time>2026-04-19T11:22:46.001Z</time></trkpt><trkpt lat="42.90522264115792" lon="11.66256133623505"><ele>956.0</ele><time>2026-04-19T11:22:47.001Z</time></trkpt><trkpt lat="42.90541929541053" lon="11.662441049277318"><ele>957.5</ele><time>2026-04-19T11:22:48.001Z</time></trkpt><trkpt lat="42.905626946779975" lon="11.662305230853157"><ele>959.0</ele><time>2026-04-19T11:22:49.001Z</time></trkpt><trkpt lat="42.90585382325829" lon="11.662173888773236"><ele>962.0</ele><time>2026-04-19T11:22:50.001Z</time></trkpt><trkpt lat="42.90610021889205" lon="11.662040104808138"><ele>965.0</ele><time>2026-04-19T11:22:51.001Z</time></trkpt><trkpt lat="42.90635016146223" lon="11.661869799403041"><ele>967.5</ele><time>2026-04-19T11:22:52.001Z</time></trkpt><trkpt lat="42.906604144424975" lon="11.661662008101057"><ele>970.0</ele><time>2026-04-19T11:22:53.001Z</time></trkpt><trkpt lat="42.90686171705669" lon="11.661440864441598"><ele>972.5</ele><time>2026-04-19T11:22:54.001Z</time></trkpt><trkpt lat="42.90711950762615" lon="11.661217312849216"><ele>975.0</ele><time>2026-04-19T11:22:55.001Z</time></trkpt><trkpt lat="42.90735979807112" lon="11.661042232599533"><ele>981.5</ele><time>2026-04-19T11:22:56.001Z</time></trkpt><trkpt lat="42.90758931585031" lon="11.660878841424903"><ele>988.0</ele><time>2026-04-19T11:22:57.001Z</time></trkpt><trkpt lat="42.90785179922466" lon="11.660761612096668"><ele>988.0</ele><time>2026-04-19T11:22:58.001Z</time></trkpt><trkpt lat="42.90812895189149" lon="11.66066804922013"><ele>988.0</ele><time>2026-04-19T11:22:59.001Z</time></trkpt><trkpt lat="42.90836121599866" lon="11.660574379932157"><ele>989.3333333333333</ele><time>2026-04-19T11:23:00.001Z</time></trkpt><trkpt lat="42.908565210506126" lon="11.66051021844429"><ele>990.6666666666667</ele><time>2026-04-19T11:23:01.001Z</time></trkpt><trkpt lat="42.908752639556425" lon="11.660459078552298"><ele>992.0</ele><time>2026-04-19T11:23:02.001Z</time></trkpt><trkpt lat="42.90893595284853" lon="11.660434265604357"><ele>992.0</ele><time>2026-04-19T11:23:03.001Z</time></trkpt><trkpt lat="42.909128312215074" lon="11.66038513621537"><ele>992.0</ele><time>2026-04-19T11:23:04.001Z</time></trkpt><trkpt lat="42.90933085873916" lon="11.660251123685748"><ele>992.0</ele><time>2026-04-19T11:23:05.001Z</time></trkpt><trkpt lat="42.90953323973573" lon="11.66006517237774"><ele>999.5</ele><time>2026-04-19T11:23:06.001Z</time></trkpt><trkpt lat="42.90973693941404" lon="11.659849528110415"><ele>1007.0</ele><time>2026-04-19T11:23:07.001Z</time></trkpt><trkpt lat="42.9099320187942" lon="11.659673442906213"><ele>1007.6666666666667</ele><time>2026-04-19T11:23:08.001Z</time></trkpt><trkpt lat="42.91011795100839" lon="11.659569798185522"><ele>1008.3333333333333</ele><time>2026-04-19T11:23:09.001Z</time></trkpt><trkpt lat="42.9103052242011" lon="11.65947835211395"><ele>1009.0</ele><time>2026-04-19T11:23:10.001Z</time></trkpt><trkpt lat="42.91047327388913" lon="11.659340258539688"><ele>1013.3333333333333</ele><time>2026-04-19T11:23:11.001Z</time></trkpt><trkpt lat="42.9106046065169" lon="11.659166648145767"><ele>1017.6666666666667</ele><time>2026-04-19T11:23:12.001Z</time></trkpt><trkpt lat="42.91070799087166" lon="11.658957648535772"><ele>1022.0</ele><time>2026-04-19T11:23:13.001Z</time></trkpt><trkpt lat="42.91078231169803" lon="11.658763875766544"><ele>1025.25</ele><time>2026-04-19T11:23:14.001Z</time></trkpt><trkpt lat="42.91084111234578" lon="11.658600584818874"><ele>1028.5</ele><time>2026-04-19T11:23:15.001Z</time></trkpt><trkpt lat="42.91087866550373" lon="11.65846527260609"><ele>1031.75</ele><time>2026-04-19T11:23:16.001Z</time></trkpt><trkpt lat="42.91092245408925" lon="11.658342266839814"><ele>1035.0</ele><time>2026-04-19T11:23:17.001Z</time></trkpt><trkpt lat="42.911024975651266" lon="11.658284781673208"><ele>1035.75</ele><time>2026-04-19T11:23:18.001Z</time></trkpt><trkpt lat="42.911149843676114" lon="11.658349637199422"><ele>1036.5</ele><time>2026-04-19T11:23:19.001Z</time></trkpt><trkpt lat="42.9112902843611" lon="11.658325044825423"><ele>1037.25</ele><time>2026-04-19T11:23:20.001Z</time></trkpt><trkpt lat="42.91145024398195" lon="11.65831249929234"><ele>1038.0</ele><time>2026-04-19T11:23:21.001Z</time></trkpt><trkpt lat="42.91162437428492" lon="11.658271504159856"><ele>1039.5</ele><time>2026-04-19T11:23:22.001Z</time></trkpt><trkpt lat="42.91179943799476" lon="11.658247052875755"><ele>1041.0</ele><time>2026-04-19T11:23:23.001Z</time></trkpt><trkpt lat="42.911943219212674" lon="11.658251467666714"><ele>1042.5</ele><time>2026-04-19T11:23:24.001Z</time></trkpt><trkpt lat="42.912059876620056" lon="11.658236317868397"><ele>1044.0</ele><time>2026-04-19T11:23:25.001Z</time></trkpt><trkpt lat="42.912161469935825" lon="11.658155314385898"><ele>1044.0</ele><time>2026-04-19T11:23:26.001Z</time></trkpt><trkpt lat="42.912245743323986" lon="11.657997936844385"><ele>1044.0</ele><time>2026-04-19T11:23:27.001Z</time></trkpt><trkpt lat="42.9123248799479" lon="11.657797827114617"><ele>1044.0</ele><time>2026-04-19T11:23:28.001Z</time></trkpt><trkpt lat="42.91244168355376" lon="11.657632632346886"><ele>1047.3333333333333</ele><time>2026-04-19T11:23:29.001Z</time></trkpt><trkpt lat="42.91255270763136" lon="11.657532388245217"><ele>1050.6666666666665</ele><time>2026-04-19T11:23:30.001Z</time></trkpt><trkpt lat="42.912694521305646" lon="11.657506179489616"><ele>1054.0</ele><time>2026-04-19T11:23:31.001Z</time></trkpt><trkpt lat="42.91287376290691" lon="11.657472385747338"><ele>1056.75</ele><time>2026-04-19T11:23:32.001Z</time></trkpt><trkpt lat="42.913046993010276" lon="11.657439204641571"><ele>1059.5</ele><time>2026-04-19T11:23:33.001Z</time></trkpt><trkpt lat="42.91318618221898" lon="11.657432208427657"><ele>1062.25</ele><time>2026-04-19T11:23:34.001Z</time></trkpt><trkpt lat="42.913285928060155" lon="11.65753145970921"><ele>1065.0</ele><time>2026-04-19T11:23:35.001Z</time></trkpt><trkpt lat="42.913373957702476" lon="11.657653651462242"><ele>1066.3333333333333</ele><time>2026-04-19T11:23:36.001Z</time></trkpt><trkpt lat="42.91347914980342" lon="11.657807187254694"><ele>1067.6666666666665</ele><time>2026-04-19T11:23:37.001Z</time></trkpt><trkpt lat="42.91359068029226" lon="11.657985340399174"><ele>1069.0</ele><time>2026-04-19T11:23:38.001Z</time></trkpt><trkpt lat="42.91372814696095" lon="11.65809187808544"><ele>1069.0</ele><time>2026-04-19T11:23:39.001Z</time></trkpt><trkpt lat="42.913892454708936" lon="11.658104792378378"><ele>1069.0</ele><time>2026-04-19T11:23:40.001Z</time></trkpt><trkpt lat="42.91406437726028" lon="11.658053094829699"><ele>1069.0</ele><time>2026-04-19T11:23:41.001Z</time></trkpt><trkpt lat="42.91424810094915" lon="11.657944976216074"><ele>1070.6666666666665</ele><time>2026-04-19T11:23:42.001Z</time></trkpt><trkpt lat="42.914447947735205" lon="11.657831077020523"><ele>1072.3333333333333</ele><time>2026-04-19T11:23:43.001Z</time></trkpt><trkpt lat="42.91465800513271" lon="11.657722145327751"><ele>1074.0</ele><time>2026-04-19T11:23:44.001Z</time></trkpt><trkpt lat="42.91486411507807" lon="11.657683133104724"><ele>1080.6666666666667</ele><time>2026-04-19T11:23:45.001Z</time></trkpt><trkpt lat="42.91504884441796" lon="11.65768789765322"><ele>1087.3333333333335</ele><time>2026-04-19T11:23:46.001Z</time></trkpt><trkpt lat="42.915229318179925" lon="11.657691349017462"><ele>1094.0</ele><time>2026-04-19T11:23:47.001Z</time></trkpt><trkpt lat="42.915403833067515" lon="11.65766136259653"><ele>1094.3333333333335</ele><time>2026-04-19T11:23:48.001Z</time></trkpt><trkpt lat="42.91558170850791" lon="11.657596888463704"><ele>1094.6666666666667</ele><time>2026-04-19T11:23:49.001Z</time></trkpt><trkpt lat="42.91576649939309" lon="11.65760006244902"><ele>1095.0</ele><time>2026-04-19T11:23:50.001Z</time></trkpt><trkpt lat="42.91595111982005" lon="11.657599429338726"><ele>1095.6666666666667</ele><time>2026-04-19T11:23:51.001Z</time></trkpt><trkpt lat="42.91611917206091" lon="11.657606375515458"><ele>1096.3333333333335</ele><time>2026-04-19T11:23:52.001Z</time></trkpt><trkpt lat="42.91629461221108" lon="11.657542624708496"><ele>1097.0</ele><time>2026-04-19T11:23:53.001Z</time></trkpt><trkpt lat="42.91645061154764" lon="11.657420472159117"><ele>1097.0</ele><time>2026-04-19T11:23:54.001Z</time></trkpt><trkpt lat="42.91658976699748" lon="11.65728708228594"><ele>1097.0</ele><time>2026-04-19T11:23:55.001Z</time></trkpt><trkpt lat="42.91675367586156" lon="11.657294486382138"><ele>1097.0</ele><time>2026-04-19T11:23:56.001Z</time></trkpt><trkpt lat="42.91693393073848" lon="11.657283619074505"><ele>1099.0</ele><time>2026-04-19T11:23:57.001Z</time></trkpt><trkpt lat="42.91712030548131" lon="11.657246672930013"><ele>1101.0</ele><time>2026-04-19T11:23:58.001Z</time></trkpt><trkpt lat="42.91728940215318" lon="11.657244600601048"><ele>1103.0</ele><time>2026-04-19T11:23:59.001Z</time></trkpt><trkpt lat="42.917426877470234" lon="11.657282453734744"><ele>1103.0</ele><time>2026-04-19T11:24:00.001Z</time></trkpt><trkpt lat="42.917558916157404" lon="11.657335225342099"><ele>1103.0</ele><time>2026-04-19T11:24:01.001Z</time></trkpt><trkpt lat="42.91770736588092" lon="11.657348038411428"><ele>1103.0</ele><time>2026-04-19T11:24:02.001Z</time></trkpt><trkpt lat="42.91785029592301" lon="11.657342864325416"><ele>1103.0</ele><time>2026-04-19T11:24:03.001Z</time></trkpt><trkpt lat="42.917976155106274" lon="11.657341653790189"><ele>1103.75</ele><time>2026-04-19T11:24:04.001Z</time></trkpt><trkpt lat="42.918091435129845" lon="11.657392670908258"><ele>1104.5</ele><time>2026-04-19T11:24:05.001Z</time></trkpt><trkpt lat="42.91819645025746" lon="11.657500163973658"><ele>1105.25</ele><time>2026-04-19T11:24:06.001Z</time></trkpt><trkpt lat="42.918239596245606" lon="11.657700078582144"><ele>1106.0</ele><time>2026-04-19T11:24:07.001Z</time></trkpt><trkpt lat="42.91825862757958" lon="11.657921937292022"><ele>1106.0</ele><time>2026-04-19T11:24:08.001Z</time></trkpt><trkpt lat="42.918281769236685" lon="11.658185745825978"><ele>1106.0</ele><time>2026-04-19T11:24:09.001Z</time></trkpt><trkpt lat="42.91832261733107" lon="11.65846063642847"><ele>1106.0</ele><time>2026-04-19T11:24:10.001Z</time></trkpt><trkpt lat="42.91840981735407" lon="11.658699267394134"><ele>1106.3333333333335</ele><time>2026-04-19T11:24:11.001Z</time></trkpt><trkpt lat="42.91852611923697" lon="11.658912701641503"><ele>1106.6666666666667</ele><time>2026-04-19T11:24:12.001Z</time></trkpt><trkpt lat="42.91863511202235" lon="11.659106520339135"><ele>1107.0</ele><time>2026-04-19T11:24:13.001Z</time></trkpt><trkpt lat="42.91872250693721" lon="11.659289004068178"><ele>1106.5</ele><time>2026-04-19T11:24:14.001Z</time></trkpt><trkpt lat="42.918817865949464" lon="11.659461105386718"><ele>1106.0</ele><time>2026-04-19T11:24:15.001Z</time></trkpt><trkpt lat="42.91890618748801" lon="11.659620537177812"><ele>1105.5</ele><time>2026-04-19T11:24:16.001Z</time></trkpt><trkpt lat="42.91901456995883" lon="11.659743820977639"><ele>1105.0</ele><time>2026-04-19T11:24:17.001Z</time></trkpt><trkpt lat="42.91915492133679" lon="11.659819808408356"><ele>1106.6666666666665</ele><time>2026-04-19T11:24:18.001Z</time></trkpt><trkpt lat="42.91932207226992" lon="11.659833711846245"><ele>1108.3333333333333</ele><time>2026-04-19T11:24:19.001Z</time></trkpt><trkpt lat="42.91949949067143" lon="11.659790282446183"><ele>1110.0</ele><time>2026-04-19T11:24:20.001Z</time></trkpt><trkpt lat="42.91968343709478" lon="11.659727157081862"><ele>1110.0</ele><time>2026-04-19T11:24:21.001Z</time></trkpt><trkpt lat="42.91984860112716" lon="11.659679091095713"><ele>1110.0</ele><time>2026-04-19T11:24:22.001Z</time></trkpt><trkpt lat="42.91999686661961" lon="11.659622483556246"><ele>1110.0</ele><time>2026-04-19T11:24:23.001Z</time></trkpt><trkpt lat="42.920126561045144" lon="11.659536098248815"><ele>1108.25</ele><time>2026-04-19T11:24:24.001Z</time></trkpt><trkpt lat="42.920225827648885" lon="11.659419143850107"><ele>1106.5</ele><time>2026-04-19T11:24:25.001Z</time></trkpt><trkpt lat="42.920276886559684" lon="11.659268152349334"><ele>1104.75</ele><time>2026-04-19T11:24:26.001Z</time></trkpt><trkpt lat="42.92027721822967" lon="11.659090838503689"><ele>1103.0</ele><time>2026-04-19T11:24:27.001Z</time></trkpt><trkpt lat="42.920228973818915" lon="11.658918559470395"><ele>1103.0</ele><time>2026-04-19T11:24:28.001Z</time></trkpt><trkpt lat="42.92015025565875" lon="11.658761777049335"><ele>1103.0</ele><time>2026-04-19T11:24:29.001Z</time></trkpt><trkpt lat="42.920128887930474" lon="11.658573707482306"><ele>1103.0</ele><time>2026-04-19T11:24:30.001Z</time></trkpt><trkpt lat="42.92016497577934" lon="11.658390876735593"><ele>1103.0</ele><time>2026-04-19T11:24:31.001Z</time></trkpt><trkpt lat="42.92022849880326" lon="11.65818780606085"><ele>1101.0</ele><time>2026-04-19T11:24:32.001Z</time></trkpt><trkpt lat="42.92030064995483" lon="11.6580047371413"><ele>1099.0</ele><time>2026-04-19T11:24:33.001Z</time></trkpt><trkpt lat="42.920385618928215" lon="11.657859970100528"><ele>1097.0</ele><time>2026-04-19T11:24:34.001Z</time></trkpt><trkpt lat="42.920532774988395" lon="11.657846351325174"><ele>1095.0</ele><time>2026-04-19T11:24:35.001Z</time></trkpt><trkpt lat="42.920675689367414" lon="11.657805064037658"><ele>1091.0</ele><time>2026-04-19T11:24:36.001Z</time></trkpt><trkpt lat="42.92083254465668" lon="11.65778297698239"><ele>1087.0</ele><time>2026-04-19T11:24:37.001Z</time></trkpt><trkpt lat="42.921001378924494" lon="11.657823948872018"><ele>1083.0</ele><time>2026-04-19T11:24:38.001Z</time></trkpt><trkpt lat="42.92118366604252" lon="11.657887665704878"><ele>1082.0</ele><time>2026-04-19T11:24:39.001Z</time></trkpt><trkpt lat="42.92137139557966" lon="11.65796567918635"><ele>1081.0</ele><time>2026-04-19T11:24:40.001Z</time></trkpt><trkpt lat="42.92156488644449" lon="11.658026675475734"><ele>1080.0</ele><time>2026-04-19T11:24:41.001Z</time></trkpt><trkpt lat="42.92175678328474" lon="11.658081230699434"><ele>1076.0</ele><time>2026-04-19T11:24:42.001Z</time></trkpt><trkpt lat="42.921937831847764" lon="11.658136757101468"><ele>1072.0</ele><time>2026-04-19T11:24:43.001Z</time></trkpt><trkpt lat="42.92211490153943" lon="11.658189628691279"><ele>1068.0</ele><time>2026-04-19T11:24:44.001Z</time></trkpt><trkpt lat="42.92228443948768" lon="11.658212635815996"><ele>1068.0</ele><time>2026-04-19T11:24:45.001Z</time></trkpt><trkpt lat="42.92245941729487" lon="11.65817766535474"><ele>1068.0</ele><time>2026-04-19T11:24:46.001Z</time></trkpt><trkpt lat="42.922624437245766" lon="11.658105391042833"><ele>1068.0</ele><time>2026-04-19T11:24:47.001Z</time></trkpt><trkpt lat="42.92277789889315" lon="11.658030783465032"><ele>1065.25</ele><time>2026-04-19T11:24:48.001Z</time></trkpt><trkpt lat="42.92289843994155" lon="11.657960523515039"><ele>1062.5</ele><time>2026-04-19T11:24:49.001Z</time></trkpt><trkpt lat="42.92299704108126" lon="11.657854755714803"><ele>1059.75</ele><time>2026-04-19T11:24:50.001Z</time></trkpt><trkpt lat="42.92306773545747" lon="11.657702455307053"><ele>1057.0</ele><time>2026-04-19T11:24:51.001Z</time></trkpt><trkpt lat="42.9230946308135" lon="11.657480918189524"><ele>1055.6666666666665</ele><time>2026-04-19T11:24:52.001Z</time></trkpt><trkpt lat="42.923085519533224" lon="11.657228513425844"><ele>1054.3333333333333</ele><time>2026-04-19T11:24:53.001Z</time></trkpt><trkpt lat="42.923050360475166" lon="11.656932033025512"><ele>1053.0</ele><time>2026-04-19T11:24:54.001Z</time></trkpt><trkpt lat="42.923036278384906" lon="11.656609401407774"><ele>1052.3333333333333</ele><time>2026-04-19T11:24:55.001Z</time></trkpt><trkpt lat="42.92300429231385" lon="11.656334299742168"><ele>1051.6666666666665</ele><time>2026-04-19T11:24:56.001Z</time></trkpt><trkpt lat="42.92299393755378" lon="11.65613263873055"><ele>1051.0</ele><time>2026-04-19T11:24:57.001Z</time></trkpt><trkpt lat="42.92300365285451" lon="11.655965417081775"><ele>1049.6</ele><time>2026-04-19T11:24:58.001Z</time></trkpt><trkpt lat="42.923006569161274" lon="11.655827480520545"><ele>1048.1999999999998</ele><time>2026-04-19T11:24:59.001Z</time></trkpt><trkpt lat="42.92301692531936" lon="11.655704315283828"><ele>1046.8000000000002</ele><time>2026-04-19T11:25:00.001Z</time></trkpt><trkpt lat="42.923093985728315" lon="11.65560904534497"><ele>1045.4</ele><time>2026-04-19T11:25:01.001Z</time></trkpt><trkpt lat="42.92321054483941" lon="11.655593262106754"><ele>1044.0</ele><time>2026-04-19T11:25:02.001Z</time></trkpt><trkpt lat="42.923332724986174" lon="11.655636168742515"><ele>1037.6666666666667</ele><time>2026-04-19T11:25:03.001Z</time></trkpt><trkpt lat="42.9234877666072" lon="11.655684634878881"><ele>1031.3333333333335</ele><time>2026-04-19T11:25:04.001Z</time></trkpt><trkpt lat="42.92365678227771" lon="11.655743417358131"><ele>1025.0</ele><time>2026-04-19T11:25:05.001Z</time></trkpt><trkpt lat="42.92381181047065" lon="11.655791202798826"><ele>1025.0</ele><time>2026-04-19T11:25:06.001Z</time></trkpt><trkpt lat="42.92393690515678" lon="11.655897979874277"><ele>1025.0</ele><time>2026-04-19T11:25:07.001Z</time></trkpt><trkpt lat="42.92402290774561" lon="11.65609505810937"><ele>1025.0</ele><time>2026-04-19T11:25:08.001Z</time></trkpt><trkpt lat="42.92414043098871" lon="11.656314654804023"><ele>1020.6666666666667</ele><time>2026-04-19T11:25:09.001Z</time></trkpt><trkpt lat="42.924242189048606" lon="11.6565658106542"><ele>1016.3333333333333</ele><time>2026-04-19T11:25:10.001Z</time></trkpt><trkpt lat="42.92433901435745" lon="11.65675766922691"><ele>1012.0</ele><time>2026-04-19T11:25:11.001Z</time></trkpt><trkpt lat="42.924433495988296" lon="11.656924609083832"><ele>1015.0</ele><time>2026-04-19T11:25:12.001Z</time></trkpt><trkpt lat="42.92454135609591" lon="11.657063414256893"><ele>1018.0</ele><time>2026-04-19T11:25:13.001Z</time></trkpt><trkpt lat="42.92467214562915" lon="11.657136687869633"><ele>1021.0</ele><time>2026-04-19T11:25:14.001Z</time></trkpt><trkpt lat="42.924821619078116" lon="11.657148172175788"><ele>1024.0</ele><time>2026-04-19T11:25:15.001Z</time></trkpt><trkpt lat="42.92497339380646" lon="11.657089451327847"><ele>1024.3333333333333</ele><time>2026-04-19T11:25:16.001Z</time></trkpt><trkpt lat="42.92512806006409" lon="11.656978702378447"><ele>1024.6666666666667</ele><time>2026-04-19T11:25:17.001Z</time></trkpt><trkpt lat="42.92529284439657" lon="11.656833785368306"><ele>1025.0</ele><time>2026-04-19T11:25:18.001Z</time></trkpt><trkpt lat="42.925480548320145" lon="11.65665737365511"><ele>1017.0</ele><time>2026-04-19T11:25:19.001Z</time></trkpt><trkpt lat="42.925689054639996" lon="11.656461785206302"><ele>1009.0</ele><time>2026-04-19T11:25:20.001Z</time></trkpt><trkpt lat="42.925883216642276" lon="11.656278077085487"><ele>1009.6666666666666</ele><time>2026-04-19T11:25:21.001Z</time></trkpt><trkpt lat="42.92605505275611" lon="11.656124047310138"><ele>1010.3333333333333</ele><time>2026-04-19T11:25:22.001Z</time></trkpt><trkpt lat="42.92620252607921" lon="11.65598668247421"><ele>1011.0</ele><time>2026-04-19T11:25:23.001Z</time></trkpt><trkpt lat="42.92631042275121" lon="11.655821486577787"><ele>1006.3333333333333</ele><time>2026-04-19T11:25:24.001Z</time></trkpt><trkpt lat="42.9263765582456" lon="11.65561202363404"><ele>1001.6666666666666</ele><time>2026-04-19T11:25:25.001Z</time></trkpt><trkpt lat="42.92641380415654" lon="11.655381119253333"><ele>997.0</ele><time>2026-04-19T11:25:26.001Z</time></trkpt><trkpt lat="42.92648647161738" lon="11.655184719593038"><ele>994.25</ele><time>2026-04-19T11:25:27.001Z</time></trkpt><trkpt lat="42.926571866357854" lon="11.65502226041122"><ele>991.5</ele><time>2026-04-19T11:25:28.001Z</time></trkpt><trkpt lat="42.92666147995153" lon="11.654882636260721"><ele>988.75</ele><time>2026-04-19T11:25:29.001Z</time></trkpt><trkpt lat="42.92673624074794" lon="11.654764914922211"><ele>986.0</ele><time>2026-04-19T11:25:30.001Z</time></trkpt><trkpt lat="42.926796802851186" lon="11.654662298223819"><ele>985.1666666666667</ele><time>2026-04-19T11:25:31.001Z</time></trkpt><trkpt lat="42.92683922142912" lon="11.65458935090496"><ele>984.3333333333334</ele><time>2026-04-19T11:25:32.001Z</time></trkpt><trkpt lat="42.92688138133525" lon="11.654495803066913"><ele>983.5</ele><time>2026-04-19T11:25:34.001Z</time></trkpt><trkpt lat="42.92687635417724" lon="11.654668725862368"><ele>982.6666666666667</ele><time>2026-04-19T11:25:38.001Z</time></trkpt><trkpt lat="42.92691102259958" lon="11.65478166581488"><ele>981.8333333333334</ele><time>2026-04-19T11:25:40.001Z</time></trkpt><trkpt lat="42.926967903755" lon="11.654839914801048"><ele>981.0</ele><time>2026-04-19T11:25:41.001Z</time></trkpt><trkpt lat="42.92703959392824" lon="11.654901146547925"><ele>981.0</ele><time>2026-04-19T11:25:42.001Z</time></trkpt><trkpt lat="42.92711511359922" lon="11.654968581950156"><ele>980.9999999999999</ele><time>2026-04-19T11:25:43.001Z</time></trkpt><trkpt lat="42.92720271520983" lon="11.65502763335251"><ele>980.9999999999999</ele><time>2026-04-19T11:25:44.001Z</time></trkpt><trkpt lat="42.927282541295185" lon="11.655109584108493"><ele>981.0</ele><time>2026-04-19T11:25:45.001Z</time></trkpt><trkpt lat="42.927374760965726" lon="11.655158887487026"><ele>981.0</ele><time>2026-04-19T11:25:46.001Z</time></trkpt><trkpt lat="42.92745775462675" lon="11.655233403216364"><ele>981.5</ele><time>2026-04-19T11:25:47.001Z</time></trkpt><trkpt lat="42.92754882960416" lon="11.655314778845916"><ele>982.0</ele><time>2026-04-19T11:25:48.001Z</time></trkpt><trkpt lat="42.92764111247403" lon="11.655399607623927"><ele>982.5</ele><time>2026-04-19T11:25:49.001Z</time></trkpt><trkpt lat="42.92774115682545" lon="11.65549711156655"><ele>983.0</ele><time>2026-04-19T11:25:50.001Z</time></trkpt><trkpt lat="42.92784139797438" lon="11.655597218014867"><ele>983.0</ele><time>2026-04-19T11:25:51.001Z</time></trkpt><trkpt lat="42.927925068186454" lon="11.655679350366698"><ele>983.0</ele><time>2026-04-19T11:25:52.001Z</time></trkpt><trkpt lat="42.928014649860664" lon="11.655770072220506"><ele>983.0</ele><time>2026-04-19T11:25:53.001Z</time></trkpt><trkpt lat="42.928104000508064" lon="11.65586134087187"><ele>983.0</ele><time>2026-04-19T11:25:54.001Z</time></trkpt><trkpt lat="42.92816996138608" lon="11.655964306910583"><ele>983.0</ele><time>2026-04-19T11:25:55.001Z</time></trkpt><trkpt lat="42.928240759257534" lon="11.65605159513187"><ele>984.0</ele><time>2026-04-19T11:25:56.001Z</time></trkpt><trkpt lat="42.928299986304076" lon="11.65613317987505"><ele>985.0</ele><time>2026-04-19T11:25:57.001Z</time></trkpt><trkpt lat="42.92836488434429" lon="11.656202454025854"><ele>986.0</ele><time>2026-04-19T11:25:58.001Z</time></trkpt><trkpt lat="42.92842208901119" lon="11.656307642165652"><ele>987.0</ele><time>2026-04-19T11:26:00.001Z</time></trkpt><trkpt lat="42.92846533268794" lon="11.656438675353913"><ele>988.0</ele><time>2026-04-19T11:26:02.001Z</time></trkpt><trkpt lat="42.9284783519561" lon="11.65655044586082"><ele>988.6666666666666</ele><time>2026-04-19T11:26:03.001Z</time></trkpt><trkpt lat="42.928522092521405" lon="11.656653816929317"><ele>989.3333333333333</ele><time>2026-04-19T11:26:04.001Z</time></trkpt><trkpt lat="42.92855422262545" lon="11.656761721465378"><ele>990.0</ele><time>2026-04-19T11:26:05.001Z</time></trkpt><trkpt lat="42.928589039536405" lon="11.656856904903625"><ele>990.6666666666667</ele><time>2026-04-19T11:26:06.001Z</time></trkpt><trkpt lat="42.92862600484053" lon="11.656931762460992"><ele>991.3333333333334</ele><time>2026-04-19T11:26:07.001Z</time></trkpt><trkpt lat="42.92867145870209" lon="11.657010247716945"><ele>992.0</ele><time>2026-04-19T11:26:08.001Z</time></trkpt><trkpt lat="42.92871518643923" lon="11.657082641209998"><ele>992.0</ele><time>2026-04-19T11:26:09.001Z</time></trkpt><trkpt lat="42.928757720145455" lon="11.657149654692928"><ele>992.0</ele><time>2026-04-19T11:26:10.001Z</time></trkpt><trkpt lat="42.92882045371687" lon="11.65722558161734"><ele>992.0</ele><time>2026-04-19T11:26:11.001Z</time></trkpt><trkpt lat="42.928917411789115" lon="11.657296771043796"><ele>992.0</ele><time>2026-04-19T11:26:12.001Z</time></trkpt><trkpt lat="42.92902082600073" lon="11.657333867548651"><ele>992.0</ele><time>2026-04-19T11:26:13.001Z</time></trkpt><trkpt lat="42.92912534206736" lon="11.657344836210463"><ele>992.0</ele><time>2026-04-19T11:26:14.001Z</time></trkpt><trkpt lat="42.92921842948201" lon="11.657324376198044"><ele>992.0</ele><time>2026-04-19T11:26:15.001Z</time></trkpt><trkpt lat="42.929303187065635" lon="11.657327907230659"><ele>992.0</ele><time>2026-04-19T11:26:16.001Z</time></trkpt><trkpt lat="42.92940034025552" lon="11.657328732534276"><ele>992.0</ele><time>2026-04-19T11:26:17.001Z</time></trkpt><trkpt lat="42.929502029102764" lon="11.6573192915385"><ele>992.0</ele><time>2026-04-19T11:26:18.001Z</time></trkpt><trkpt lat="42.929596456369744" lon="11.657289094714464"><ele>991.0000000000001</ele><time>2026-04-19T11:26:19.001Z</time></trkpt><trkpt lat="42.92967491168733" lon="11.657301946329921"><ele>990.0</ele><time>2026-04-19T11:26:20.001Z</time></trkpt><trkpt lat="42.92974937728781" lon="11.657290357308666"><ele>989.0</ele><time>2026-04-19T11:26:21.001Z</time></trkpt><trkpt lat="42.929813933126425" lon="11.657279857770444"><ele>988.0</ele><time>2026-04-19T11:26:22.001Z</time></trkpt><trkpt lat="42.929883994328456" lon="11.657268156621624"><ele>987.0000000000001</ele><time>2026-04-19T11:26:23.001Z</time></trkpt><trkpt lat="42.929982040451485" lon="11.657242523916675"><ele>986.0</ele><time>2026-04-19T11:26:24.001Z</time></trkpt><trkpt lat="42.93008309219314" lon="11.657258351488245"><ele>984.5999999999999</ele><time>2026-04-19T11:26:25.001Z</time></trkpt><trkpt lat="42.93018606404472" lon="11.657285796835586"><ele>983.1999999999999</ele><time>2026-04-19T11:26:26.001Z</time></trkpt><trkpt lat="42.93028278890617" lon="11.657304285999292"><ele>981.8000000000001</ele><time>2026-04-19T11:26:27.001Z</time></trkpt><trkpt lat="42.930379293578575" lon="11.657321810471526"><ele>980.4000000000001</ele><time>2026-04-19T11:26:28.001Z</time></trkpt><trkpt lat="42.93047304735064" lon="11.657339813616877"><ele>979.0</ele><time>2026-04-19T11:26:29.001Z</time></trkpt><trkpt lat="42.930571389887845" lon="11.657369785180896"><ele>979.0</ele><time>2026-04-19T11:26:30.001Z</time></trkpt><trkpt lat="42.930675211784674" lon="11.657399402265957"><ele>979.0000000000001</ele><time>2026-04-19T11:26:31.001Z</time></trkpt><trkpt lat="42.9307847805926" lon="11.657425902887509"><ele>979.0000000000001</ele><time>2026-04-19T11:26:32.001Z</time></trkpt><trkpt lat="42.93089403547892" lon="11.657441381289605"><ele>979.0</ele><time>2026-04-19T11:26:33.001Z</time></trkpt><trkpt lat="42.93098433617135" lon="11.657443115115646"><ele>979.0</ele><time>2026-04-19T11:26:34.001Z</time></trkpt><trkpt lat="42.93107753849023" lon="11.657440637722466"><ele>977.75</ele><time>2026-04-19T11:26:35.001Z</time></trkpt><trkpt lat="42.93119105241933" lon="11.657421596427245"><ele>976.5</ele><time>2026-04-19T11:26:36.001Z</time></trkpt><trkpt lat="42.931317451649534" lon="11.657399739963694"><ele>975.25</ele><time>2026-04-19T11:26:37.001Z</time></trkpt><trkpt lat="42.93144233095726" lon="11.657396125559183"><ele>974.0</ele><time>2026-04-19T11:26:38.001Z</time></trkpt><trkpt lat="42.93155190390143" lon="11.657386654111273"><ele>974.0</ele><time>2026-04-19T11:26:39.001Z</time></trkpt><trkpt lat="42.93165314586705" lon="11.657379350435198"><ele>974.0000000000001</ele><time>2026-04-19T11:26:40.001Z</time></trkpt><trkpt lat="42.93173422890475" lon="11.657347628193353"><ele>974.0000000000001</ele><time>2026-04-19T11:26:41.001Z</time></trkpt><trkpt lat="42.93181469757529" lon="11.657314467272359"><ele>974.0</ele><time>2026-04-19T11:26:42.001Z</time></trkpt><trkpt lat="42.9319038701205" lon="11.657275215380963"><ele>974.0</ele><time>2026-04-19T11:26:43.001Z</time></trkpt><trkpt lat="42.93201557226643" lon="11.657224851919745"><ele>973.25</ele><time>2026-04-19T11:26:44.001Z</time></trkpt><trkpt lat="42.93214418922914" lon="11.657174430840515"><ele>972.5</ele><time>2026-04-19T11:26:45.001Z</time></trkpt><trkpt lat="42.93226299008456" lon="11.657123065554535"><ele>971.75</ele><time>2026-04-19T11:26:46.001Z</time></trkpt><trkpt lat="42.93236596277664" lon="11.657075849371383"><ele>971.0</ele><time>2026-04-19T11:26:47.001Z</time></trkpt><trkpt lat="42.932450878302056" lon="11.657027330952014"><ele>971.0</ele><time>2026-04-19T11:26:48.001Z</time></trkpt><trkpt lat="42.93255167720358" lon="11.656977105437864"><ele>970.9999999999999</ele><time>2026-04-19T11:26:49.001Z</time></trkpt><trkpt lat="42.932650122704025" lon="11.656929016852821"><ele>970.9999999999999</ele><time>2026-04-19T11:26:50.001Z</time></trkpt><trkpt lat="42.932750460846556" lon="11.656892756788206"><ele>971.0</ele><time>2026-04-19T11:26:51.001Z</time></trkpt><trkpt lat="42.932868376744864" lon="11.656861343902435"><ele>971.0</ele><time>2026-04-19T11:26:52.001Z</time></trkpt><trkpt lat="42.93299678150788" lon="11.656842507788875"><ele>970.25</ele><time>2026-04-19T11:26:53.001Z</time></trkpt><trkpt lat="42.93311087921886" lon="11.656828792225008"><ele>969.5</ele><time>2026-04-19T11:26:54.001Z</time></trkpt><trkpt lat="42.933215341560086" lon="11.656815503023203"><ele>968.75</ele><time>2026-04-19T11:26:55.001Z</time></trkpt><trkpt lat="42.93333287848042" lon="11.656817589601557"><ele>968.0</ele><time>2026-04-19T11:26:56.001Z</time></trkpt><trkpt lat="42.933461388102295" lon="11.656849945196413"><ele>968.0</ele><time>2026-04-19T11:26:57.001Z</time></trkpt><trkpt lat="42.93360408371172" lon="11.65689583818222"><ele>968.0</ele><time>2026-04-19T11:26:58.001Z</time></trkpt><trkpt lat="42.93373203146574" lon="11.656940912396081"><ele>968.0</ele><time>2026-04-19T11:26:59.001Z</time></trkpt><trkpt lat="42.933843159889925" lon="11.656984394367997"><ele>968.0</ele><time>2026-04-19T11:27:00.001Z</time></trkpt><trkpt lat="42.933972173412" lon="11.657010254068497"><ele>968.0</ele><time>2026-04-19T11:27:01.001Z</time></trkpt><trkpt lat="42.93408025749482" lon="11.657027473050487"><ele>968.0</ele><time>2026-04-19T11:27:02.001Z</time></trkpt><trkpt lat="42.93417661676942" lon="11.657043927582825"><ele>968.0</ele><time>2026-04-19T11:27:03.001Z</time></trkpt><trkpt lat="42.93425986976952" lon="11.657081414538416"><ele>968.0</ele><time>2026-04-19T11:27:04.001Z</time></trkpt><trkpt lat="42.93434647898992" lon="11.65717215483226"><ele>968.0</ele><time>2026-04-19T11:27:05.001Z</time></trkpt><trkpt lat="42.93444710209855" lon="11.657200346397092"><ele>968.0000000000001</ele><time>2026-04-19T11:27:06.001Z</time></trkpt><trkpt lat="42.93454656036997" lon="11.657231864663036"><ele>968.0</ele><time>2026-04-19T11:27:07.001Z</time></trkpt><trkpt lat="42.93464148486857" lon="11.657265669333215"><ele>968.0</ele><time>2026-04-19T11:27:08.001Z</time></trkpt><trkpt lat="42.934714692676785" lon="11.657262248940427"><ele>968.0</ele><time>2026-04-19T11:27:09.001Z</time></trkpt><trkpt lat="42.93481146023928" lon="11.65724046060717"><ele>968.0000000000001</ele><time>2026-04-19T11:27:10.001Z</time></trkpt><trkpt lat="42.93488071742649" lon="11.657194127355382"><ele>968.0</ele><time>2026-04-19T11:27:11.001Z</time></trkpt><trkpt lat="42.93496622713888" lon="11.657175316078451"><ele>968.0000000000001</ele><time>2026-04-19T11:27:12.001Z</time></trkpt><trkpt lat="42.9350484138529" lon="11.657103717645812"><ele>968.0</ele><time>2026-04-19T11:27:13.001Z</time></trkpt><trkpt lat="42.93511318131225" lon="11.657068072338614"><ele>968.0</ele><time>2026-04-19T11:27:14.001Z</time></trkpt><trkpt lat="42.93519991200153" lon="11.657044335310047"><ele>968.0</ele><time>2026-04-19T11:27:15.001Z</time></trkpt><trkpt lat="42.93528090592178" lon="11.657042147668703"><ele>968.0000000000001</ele><time>2026-04-19T11:27:16.001Z</time></trkpt><trkpt lat="42.93537200229197" lon="11.65705218122786"><ele>968.0</ele><time>2026-04-19T11:27:17.001Z</time></trkpt><trkpt lat="42.9354833427387" lon="11.65705160521069"><ele>968.5</ele><time>2026-04-19T11:27:18.001Z</time></trkpt><trkpt lat="42.93560809409373" lon="11.65711952523207"><ele>969.0</ele><time>2026-04-19T11:27:19.001Z</time></trkpt><trkpt lat="42.93574764097675" lon="11.657162785707452"><ele>969.5</ele><time>2026-04-19T11:27:20.001Z</time></trkpt><trkpt lat="42.93587036751525" lon="11.657213547223021"><ele>970.0</ele><time>2026-04-19T11:27:21.001Z</time></trkpt><trkpt lat="42.935957808233205" lon="11.657280917537468"><ele>970.0</ele><time>2026-04-19T11:27:22.001Z</time></trkpt><trkpt lat="42.93604224081827" lon="11.657335591711652"><ele>970.0</ele><time>2026-04-19T11:27:23.001Z</time></trkpt><trkpt lat="42.936120482013465" lon="11.657372307199687"><ele>970.0</ele><time>2026-04-19T11:27:24.001Z</time></trkpt><trkpt lat="42.93618886571558" lon="11.657452430303195"><ele>970.0</ele><time>2026-04-19T11:27:25.001Z</time></trkpt><trkpt lat="42.93626868596555" lon="11.657567510344904"><ele>970.0</ele><time>2026-04-19T11:27:26.001Z</time></trkpt><trkpt lat="42.936344474953685" lon="11.657702833243931"><ele>969.0</ele><time>2026-04-19T11:27:27.001Z</time></trkpt><trkpt lat="42.93641911469537" lon="11.657821968054298"><ele>968.0</ele><time>2026-04-19T11:27:28.001Z</time></trkpt><trkpt lat="42.93648270983181" lon="11.65793281764251"><ele>967.0</ele><time>2026-04-19T11:27:29.001Z</time></trkpt><trkpt lat="42.936541690804354" lon="11.658061013492683"><ele>966.0</ele><time>2026-04-19T11:27:30.001Z</time></trkpt><trkpt lat="42.93660318854486" lon="11.658184437007717"><ele>965.0</ele><time>2026-04-19T11:27:31.001Z</time></trkpt><trkpt lat="42.93667068447116" lon="11.658302790617961"><ele>963.2</ele><time>2026-04-19T11:27:32.001Z</time></trkpt><trkpt lat="42.93672320815649" lon="11.658443149388962"><ele>961.4</ele><time>2026-04-19T11:27:33.001Z</time></trkpt><trkpt lat="42.93677350657881" lon="11.658574799332088"><ele>959.5999999999999</ele><time>2026-04-19T11:27:34.001Z</time></trkpt><trkpt lat="42.93682107349435" lon="11.658696612148173"><ele>957.8</ele><time>2026-04-19T11:27:35.001Z</time></trkpt><trkpt lat="42.936866711401905" lon="11.658812068305819"><ele>956.0</ele><time>2026-04-19T11:27:36.001Z</time></trkpt><trkpt lat="42.93691203737945" lon="11.658921543425123"><ele>956.0000000000001</ele><time>2026-04-19T11:27:37.001Z</time></trkpt><trkpt lat="42.93695017963815" lon="11.659010279015888"><ele>956.0</ele><time>2026-04-19T11:27:38.001Z</time></trkpt><trkpt lat="42.9369863608885" lon="11.659093868289563"><ele>956.0000000000001</ele><time>2026-04-19T11:27:39.001Z</time></trkpt><trkpt lat="42.93703645500623" lon="11.659173499282542"><ele>956.0000000000001</ele><time>2026-04-19T11:27:40.001Z</time></trkpt><trkpt lat="42.937094651725495" lon="11.65924053406556"><ele>956.0</ele><time>2026-04-19T11:27:41.001Z</time></trkpt><trkpt lat="42.93715483165689" lon="11.659307773470802"><ele>956.0000000000001</ele><time>2026-04-19T11:27:42.001Z</time></trkpt><trkpt lat="42.93719838583967" lon="11.659376570969933"><ele>956.0000000000001</ele><time>2026-04-19T11:27:43.001Z</time></trkpt><trkpt lat="42.9372728270704" lon="11.659457510586066"><ele>955.0</ele><time>2026-04-19T11:27:45.001Z</time></trkpt><trkpt lat="42.93735874352304" lon="11.659538538032871"><ele>953.9999999999999</ele><time>2026-04-19T11:27:47.001Z</time></trkpt><trkpt lat="42.9374485082202" lon="11.659637675174512"><ele>952.9999999999999</ele><time>2026-04-19T11:27:49.001Z</time></trkpt><trkpt lat="42.937509525688576" lon="11.65968293665209"><ele>952.0</ele><time>2026-04-19T11:27:50.001Z</time></trkpt><trkpt lat="42.93762386739327" lon="11.65975849250576"><ele>951.0</ele><time>2026-04-19T11:27:52.001Z</time></trkpt><trkpt lat="42.937676514430535" lon="11.659827702893095"><ele>949.5999999999999</ele><time>2026-04-19T11:27:53.001Z</time></trkpt><trkpt lat="42.93771022334841" lon="11.659903887118546"><ele>948.1999999999999</ele><time>2026-04-19T11:27:54.001Z</time></trkpt><trkpt lat="42.937748310050935" lon="11.659996234747306"><ele>946.8000000000001</ele><time>2026-04-19T11:27:55.001Z</time></trkpt><trkpt lat="42.93780690425512" lon="11.66011574009108"><ele>945.4000000000001</ele><time>2026-04-19T11:27:56.001Z</time></trkpt><trkpt lat="42.93786050661231" lon="11.660232038488177"><ele>944.0</ele><time>2026-04-19T11:27:57.001Z</time></trkpt><trkpt lat="42.93791112636536" lon="11.660363307274462"><ele>942.5</ele><time>2026-04-19T11:27:58.001Z</time></trkpt><trkpt lat="42.93797147391816" lon="11.66050078305465"><ele>941.0</ele><time>2026-04-19T11:27:59.001Z</time></trkpt><trkpt lat="42.93802573346256" lon="11.660627336522753"><ele>939.5</ele><time>2026-04-19T11:28:00.001Z</time></trkpt><trkpt lat="42.93806995605736" lon="11.660767012910998"><ele>938.0</ele><time>2026-04-19T11:28:01.001Z</time></trkpt><trkpt lat="42.938127695800695" lon="11.660901402773954"><ele>938.0</ele><time>2026-04-19T11:28:02.001Z</time></trkpt><trkpt lat="42.93815844686572" lon="11.661037931561978"><ele>938.0</ele><time>2026-04-19T11:28:03.001Z</time></trkpt><trkpt lat="42.93821989064746" lon="11.661157027989413"><ele>938.0</ele><time>2026-04-19T11:28:04.001Z</time></trkpt><trkpt lat="42.938268264735115" lon="11.661279301939505"><ele>938.0</ele><time>2026-04-19T11:28:05.001Z</time></trkpt><trkpt lat="42.93832155003588" lon="11.661408634249776"><ele>938.0</ele><time>2026-04-19T11:28:06.001Z</time></trkpt><trkpt lat="42.938369467153805" lon="11.66152468902627"><ele>936.4</ele><time>2026-04-19T11:28:07.001Z</time></trkpt><trkpt lat="42.93844079200214" lon="11.661629508737539"><ele>934.8</ele><time>2026-04-19T11:28:08.001Z</time></trkpt><trkpt lat="42.938497273170356" lon="11.661722328896529"><ele>933.2</ele><time>2026-04-19T11:28:09.001Z</time></trkpt><trkpt lat="42.93853933228472" lon="11.661815091536157"><ele>931.6</ele><time>2026-04-19T11:28:10.001Z</time></trkpt><trkpt lat="42.93858129476476" lon="11.661925225873297"><ele>930.0</ele><time>2026-04-19T11:28:11.001Z</time></trkpt><trkpt lat="42.93861427996646" lon="11.6620685867471"><ele>929.6666666666666</ele><time>2026-04-19T11:28:12.001Z</time></trkpt><trkpt lat="42.9386313129228" lon="11.662214847153955"><ele>929.3333333333333</ele><time>2026-04-19T11:28:13.001Z</time></trkpt><trkpt lat="42.93864308963349" lon="11.662341994389948"><ele>929.0</ele><time>2026-04-19T11:28:14.001Z</time></trkpt><trkpt lat="42.938672146526024" lon="11.662435968367598"><ele>928.6666666666666</ele><time>2026-04-19T11:28:15.001Z</time></trkpt><trkpt lat="42.93871672243238" lon="11.662534192908819"><ele>928.3333333333333</ele><time>2026-04-19T11:28:16.001Z</time></trkpt><trkpt lat="42.938766119072085" lon="11.66259659574624"><ele>928.0</ele><time>2026-04-19T11:28:17.001Z</time></trkpt><trkpt lat="42.93881920376903" lon="11.662683566618492"><ele>928.2</ele><time>2026-04-19T11:28:20.001Z</time></trkpt><trkpt lat="42.93889848096154" lon="11.662818798371081"><ele>928.4</ele><time>2026-04-19T11:28:22.001Z</time></trkpt><trkpt lat="42.938938087635194" lon="11.66291502972873"><ele>928.6000000000001</ele><time>2026-04-19T11:28:23.001Z</time></trkpt><trkpt lat="42.93898151539967" lon="11.66300624402433"><ele>928.8000000000001</ele><time>2026-04-19T11:28:24.001Z</time></trkpt><trkpt lat="42.93901658308069" lon="11.663109024648342"><ele>929.0</ele><time>2026-04-19T11:28:25.001Z</time></trkpt><trkpt lat="42.93905173906287" lon="11.66321045169169"><ele>929.0000000000001</ele><time>2026-04-19T11:28:26.001Z</time></trkpt><trkpt lat="42.93910507848268" lon="11.663308082734185"><ele>929.0</ele><time>2026-04-19T11:28:27.001Z</time></trkpt><trkpt lat="42.939149245840824" lon="11.663408156846142"><ele>929.0</ele><time>2026-04-19T11:28:28.001Z</time></trkpt><trkpt lat="42.93921170068175" lon="11.663506021574362"><ele>929.0</ele><time>2026-04-19T11:28:29.001Z</time></trkpt><trkpt lat="42.939275211732514" lon="11.663602340769145"><ele>929.0000000000001</ele><time>2026-04-19T11:28:30.001Z</time></trkpt><trkpt lat="42.93933553671997" lon="11.663675424097196"><ele>929.0</ele><time>2026-04-19T11:28:31.001Z</time></trkpt><trkpt lat="42.93938079338439" lon="11.663764017490408"><ele>925.6666666666667</ele><time>2026-04-19T11:28:32.001Z</time></trkpt><trkpt lat="42.93943251077445" lon="11.663842792997144"><ele>922.3333333333334</ele><time>2026-04-19T11:28:33.001Z</time></trkpt><trkpt lat="42.939477503520926" lon="11.663933803947735"><ele>919.0</ele><time>2026-04-19T11:28:34.001Z</time></trkpt><trkpt lat="42.93952590174841" lon="11.664005189534961"><ele>915.6666666666667</ele><time>2026-04-19T11:28:35.001Z</time></trkpt><trkpt lat="42.93957860474185" lon="11.664096348079722"><ele>912.3333333333334</ele><time>2026-04-19T11:28:36.001Z</time></trkpt><trkpt lat="42.939632391775184" lon="11.664188382397349"><ele>909.0</ele><time>2026-04-19T11:28:37.001Z</time></trkpt><trkpt lat="42.93969786552081" lon="11.664296071984955"><ele>909.0</ele><time>2026-04-19T11:28:38.001Z</time></trkpt><trkpt lat="42.93973926182716" lon="11.664392349423784"><ele>909.0</ele><time>2026-04-19T11:28:39.001Z</time></trkpt><trkpt lat="42.93980298617822" lon="11.664473543790049"><ele>909.0</ele><time>2026-04-19T11:28:40Z</time></trkpt><trkpt lat="42.93983787413487" lon="11.664570260366418"><ele>909.0</ele><time>2026-04-19T11:28:41Z</time></trkpt><trkpt lat="42.939879472747286" lon="11.664650850797816"><ele>909.0</ele><time>2026-04-19T11:28:42Z</time></trkpt><trkpt lat="42.93991924506825" lon="11.664734961763987"><ele>909.0</ele><time>2026-04-19T11:28:43Z</time></trkpt><trkpt lat="42.93995605464676" lon="11.664823319221894"><ele>908.1428571428571</ele><time>2026-04-19T11:28:44Z</time></trkpt><trkpt lat="42.939986219186686" lon="11.664913855747585"><ele>907.2857142857143</ele><time>2026-04-19T11:28:45Z</time></trkpt><trkpt lat="42.94001563924301" lon="11.665009045538907"><ele>906.4285714285714</ele><time>2026-04-19T11:28:46Z</time></trkpt><trkpt lat="42.94003557055568" lon="11.665102135465244"><ele>905.5714285714286</ele><time>2026-04-19T11:28:47Z</time></trkpt><trkpt lat="42.94004520887768" lon="11.665198713612924"><ele>904.7142857142858</ele><time>2026-04-19T11:28:48Z</time></trkpt><trkpt lat="42.94004686116643" lon="11.665314037078737"><ele>903.8571428571429</ele><time>2026-04-19T11:28:49Z</time></trkpt><trkpt lat="42.94005819942713" lon="11.665399648220122"><ele>903.0</ele><time>2026-04-19T11:28:50Z</time></trkpt><trkpt lat="42.940086069956244" lon="11.665518738479014"><ele>901.3333333333334</ele><time>2026-04-19T11:28:52Z</time></trkpt><trkpt lat="42.94014633227231" lon="11.665640099807051"><ele>899.6666666666667</ele><time>2026-04-19T11:28:55Z</time></trkpt><trkpt lat="42.94022264197411" lon="11.665693434225487"><ele>898.0</ele><time>2026-04-19T11:28:58.001Z</time></trkpt><trkpt lat="42.94030492530521" lon="11.66568927239402"><ele>896.3333333333334</ele><time>2026-04-19T11:29:00.001Z</time></trkpt><trkpt lat="42.94038891420338" lon="11.665677710988948"><ele>894.6666666666667</ele><time>2026-04-19T11:29:02.001Z</time></trkpt><trkpt lat="42.940461489945726" lon="11.665654871583007"><ele>893.0</ele><time>2026-04-19T11:29:04.001Z</time></trkpt><trkpt lat="42.940526064929344" lon="11.665633975149124"><ele>893.0000000000001</ele><time>2026-04-19T11:29:07.001Z</time></trkpt><trkpt lat="42.94064423042936" lon="11.6656870928485"><ele>893.0</ele><time>2026-04-19T11:29:39.001Z</time></trkpt><trkpt lat="42.94071253776031" lon="11.665725487110246"><ele>893.0</ele><time>2026-04-19T11:29:41.001Z</time></trkpt><trkpt lat="42.940731159085864" lon="11.665593144302576"><ele>893.0</ele><time>2026-04-19T11:31:27.001Z</time></trkpt><trkpt lat="42.94070861026747" lon="11.665500500491698"><ele>893.0000000000001</ele><time>2026-04-19T11:31:28.001Z</time></trkpt><trkpt lat="42.94068478482247" lon="11.665407036876266"><ele>893.0</ele><time>2026-04-19T11:31:29.001Z</time></trkpt><trkpt lat="42.94069082076759" lon="11.665305357027782"><ele>892.4</ele><time>2026-04-19T11:31:30.001Z</time></trkpt><trkpt lat="42.940633224753824" lon="11.66522746068118"><ele>891.8</ele><time>2026-04-19T11:31:31.001Z</time></trkpt><trkpt lat="42.940610986249446" lon="11.66513327329466"><ele>891.2</ele><time>2026-04-19T11:31:32.001Z</time></trkpt><trkpt lat="42.94059594851185" lon="11.665045105462438"><ele>890.6</ele><time>2026-04-19T11:31:33.001Z</time></trkpt><trkpt lat="42.94057795813164" lon="11.664876947892681"><ele>890.0</ele><time>2026-04-19T11:31:35.001Z</time></trkpt><trkpt lat="42.94059936202218" lon="11.664716643957204"><ele>890.0000000000001</ele><time>2026-04-19T11:31:37.001Z</time></trkpt><trkpt lat="42.94062047508997" lon="11.664623370057576"><ele>890.0</ele><time>2026-04-19T11:31:38.001Z</time></trkpt><trkpt lat="42.94064096738427" lon="11.664453579701267"><ele>890.0</ele><time>2026-04-19T11:31:40.001Z</time></trkpt><trkpt lat="42.94065484597757" lon="11.66436885754569"><ele>890.0</ele><time>2026-04-19T11:31:41.001Z</time></trkpt><trkpt lat="42.94069912260031" lon="11.664300129513212"><ele>890.0000000000001</ele><time>2026-04-19T11:31:42.001Z</time></trkpt><trkpt lat="42.9407223447024" lon="11.664197963315981"><ele>890.0</ele><time>2026-04-19T11:31:44.001Z</time></trkpt><trkpt lat="42.940759998563884" lon="11.66407143773185"><ele>888.6666666666667</ele><time>2026-04-19T11:31:58.001Z</time></trkpt><trkpt lat="42.94078986917258" lon="11.66398462415236"><ele>887.3333333333334</ele><time>2026-04-19T11:31:59.001Z</time></trkpt><trkpt lat="42.94082882103889" lon="11.663895669674483"><ele>886.0</ele><time>2026-04-19T11:32:00.001Z</time></trkpt><trkpt lat="42.94087324683344" lon="11.663805000032395"><ele>884.6666666666667</ele><time>2026-04-19T11:32:01.001Z</time></trkpt><trkpt lat="42.94091535935544" lon="11.663724276114701"><ele>883.3333333333334</ele><time>2026-04-19T11:32:02.001Z</time></trkpt><trkpt lat="42.940952567859846" lon="11.663652952657044"><ele>882.0</ele><time>2026-04-19T11:32:03.001Z</time></trkpt><trkpt lat="42.94099782733452" lon="11.66355164834445"><ele>878.4000000000001</ele><time>2026-04-19T11:32:04.001Z</time></trkpt><trkpt lat="42.941052033959195" lon="11.663424563341724"><ele>874.8000000000001</ele><time>2026-04-19T11:32:05.001Z</time></trkpt><trkpt lat="42.941103340643764" lon="11.663282745377133"><ele>871.2</ele><time>2026-04-19T11:32:06.001Z</time></trkpt><trkpt lat="42.94117720954129" lon="11.66318610109469"><ele>867.6</ele><time>2026-04-19T11:32:07.001Z</time></trkpt><trkpt lat="42.9412229364587" lon="11.663072338653587"><ele>864.0</ele><time>2026-04-19T11:32:08.001Z</time></trkpt><trkpt lat="42.94128341292126" lon="11.662993371551254"><ele>864.0</ele><time>2026-04-19T11:32:09.001Z</time></trkpt><trkpt lat="42.9413379780881" lon="11.662891705683283"><ele>864.0000000000001</ele><time>2026-04-19T11:32:10.001Z</time></trkpt><trkpt lat="42.94139997754739" lon="11.662788292765404"><ele>864.0000000000001</ele><time>2026-04-19T11:32:11.001Z</time></trkpt><trkpt lat="42.94147116966878" lon="11.662699157828493"><ele>864.0</ele><time>2026-04-19T11:32:12.001Z</time></trkpt><trkpt lat="42.941536451092404" lon="11.662604156566204"><ele>864.0</ele><time>2026-04-19T11:32:13.001Z</time></trkpt><trkpt lat="42.94160118287712" lon="11.662519322134425"><ele>864.0</ele><time>2026-04-19T11:32:14.001Z</time></trkpt><trkpt lat="42.94167659592653" lon="11.662438807322651"><ele>864.0000000000001</ele><time>2026-04-19T11:32:15.001Z</time></trkpt><trkpt lat="42.941740522748034" lon="11.662344430996423"><ele>864.0000000000001</ele><time>2026-04-19T11:32:16.001Z</time></trkpt><trkpt lat="42.9418162560226" lon="11.662289997431158"><ele>864.0</ele><time>2026-04-19T11:32:17.001Z</time></trkpt><trkpt lat="42.941890314237384" lon="11.662186938707675"><ele>864.0</ele><time>2026-04-19T11:32:18.001Z</time></trkpt><trkpt lat="42.9419792034055" lon="11.662083971067315"><ele>860.4000000000001</ele><time>2026-04-19T11:32:19.001Z</time></trkpt><trkpt lat="42.94205770900405" lon="11.661996774116213"><ele>856.8000000000001</ele><time>2026-04-19T11:32:20.001Z</time></trkpt><trkpt lat="42.94211108481282" lon="11.661930047968998"><ele>853.2</ele><time>2026-04-19T11:32:21.001Z</time></trkpt><trkpt lat="42.94217787959035" lon="11.66185026897745"><ele>849.5999999999999</ele><time>2026-04-19T11:32:22.001Z</time></trkpt><trkpt lat="42.942258950201335" lon="11.661791367149734"><ele>846.0</ele><time>2026-04-19T11:32:23.001Z</time></trkpt><trkpt lat="42.942345187901125" lon="11.66172996057194"><ele>845.8</ele><time>2026-04-19T11:32:24.001Z</time></trkpt><trkpt lat="42.94242112725624" lon="11.661643543119986"><ele>845.5999999999999</ele><time>2026-04-19T11:32:25.001Z</time></trkpt><trkpt lat="42.942503600910264" lon="11.661566563744456"><ele>845.4</ele><time>2026-04-19T11:32:26.001Z</time></trkpt><trkpt lat="42.94260686589145" lon="11.661501496555442"><ele>845.2</ele><time>2026-04-19T11:32:27.001Z</time></trkpt><trkpt lat="42.94269191437171" lon="11.66143743562649"><ele>845.0</ele><time>2026-04-19T11:32:28.001Z</time></trkpt><trkpt lat="42.942784050122995" lon="11.661376869605865"><ele>842.8333333333334</ele><time>2026-04-19T11:32:29.001Z</time></trkpt><trkpt lat="42.94287133343413" lon="11.66132978797728"><ele>840.6666666666667</ele><time>2026-04-19T11:32:30.001Z</time></trkpt><trkpt lat="42.94295379388371" lon="11.661276054595547"><ele>838.5</ele><time>2026-04-19T11:32:31.001Z</time></trkpt><trkpt lat="42.94302446714828" lon="11.66123173508328"><ele>836.3333333333333</ele><time>2026-04-19T11:32:32.001Z</time></trkpt><trkpt lat="42.943088872163514" lon="11.66118282015554"><ele>834.1666666666666</ele><time>2026-04-19T11:32:33.001Z</time></trkpt><trkpt lat="42.943142831198614" lon="11.661137403342455"><ele>832.0</ele><time>2026-04-19T11:32:34.001Z</time></trkpt><trkpt lat="42.94324210575746" lon="11.661106829286583"><ele>831.9999999999999</ele><time>2026-04-19T11:32:36.001Z</time></trkpt><trkpt lat="42.943305566797996" lon="11.661098747923376"><ele>832.0</ele><time>2026-04-19T11:32:37.001Z</time></trkpt><trkpt lat="42.94337938288117" lon="11.661144855824677"><ele>832.0</ele><time>2026-04-19T11:32:38.001Z</time></trkpt><trkpt lat="42.94345079021546" lon="11.661213754675238"><ele>832.0</ele><time>2026-04-19T11:32:39.001Z</time></trkpt><trkpt lat="42.94349744370715" lon="11.661290944154068"><ele>831.9999999999999</ele><time>2026-04-19T11:32:40.001Z</time></trkpt><trkpt lat="42.94351008030512" lon="11.661414169970728"><ele>832.0</ele><time>2026-04-19T11:32:41.001Z</time></trkpt><trkpt lat="42.943538931959544" lon="11.661539789263207"><ele>827.9999999999999</ele><time>2026-04-19T11:32:42.001Z</time></trkpt><trkpt lat="42.94357639798215" lon="11.66165166259924"><ele>824.0</ele><time>2026-04-19T11:32:43.001Z</time></trkpt><trkpt lat="42.94358883548478" lon="11.661739275503235"><ele>820.0</ele><time>2026-04-19T11:32:44.001Z</time></trkpt><trkpt lat="42.94360887858436" lon="11.661826448745803"><ele>816.0</ele><time>2026-04-19T11:32:45.001Z</time></trkpt><trkpt lat="42.943637868491344" lon="11.661917723880942"><ele>811.9999999999999</ele><time>2026-04-19T11:32:46.001Z</time></trkpt><trkpt lat="42.94368366005753" lon="11.661997296658022"><ele>808.0</ele><time>2026-04-19T11:32:47.001Z</time></trkpt><trkpt lat="42.94374818151803" lon="11.662063101308629"><ele>807.6666666666666</ele><time>2026-04-19T11:32:48.001Z</time></trkpt><trkpt lat="42.94381253408191" lon="11.662129314400605"><ele>807.3333333333333</ele><time>2026-04-19T11:32:49.001Z</time></trkpt><trkpt lat="42.943874299692176" lon="11.66220442725182"><ele>807.0</ele><time>2026-04-19T11:32:50.001Z</time></trkpt><trkpt lat="42.94392959756399" lon="11.662270622565996"><ele>806.6666666666667</ele><time>2026-04-19T11:32:51.001Z</time></trkpt><trkpt lat="42.94398797300371" lon="11.662340156341683"><ele>806.3333333333334</ele><time>2026-04-19T11:32:52.001Z</time></trkpt><trkpt lat="42.9440414166562" lon="11.662404856001377"><ele>806.0</ele><time>2026-04-19T11:32:53.001Z</time></trkpt><trkpt lat="42.94409098493965" lon="11.662492479072045"><ele>806.0000000000001</ele><time>2026-04-19T11:32:54.001Z</time></trkpt><trkpt lat="42.94416280663827" lon="11.662547960373283"><ele>806.0</ele><time>2026-04-19T11:32:55.001Z</time></trkpt><trkpt lat="42.94422575921502" lon="11.662604696630178"><ele>806.0</ele><time>2026-04-19T11:32:56.001Z</time></trkpt><trkpt lat="42.94430115783649" lon="11.662666416396117"><ele>806.0</ele><time>2026-04-19T11:32:57.001Z</time></trkpt><trkpt lat="42.944372782489744" lon="11.662733487944067"><ele>806.0000000000001</ele><time>2026-04-19T11:32:58.001Z</time></trkpt><trkpt lat="42.94444054764689" lon="11.662790020513206"><ele>806.0</ele><time>2026-04-19T11:32:59.001Z</time></trkpt><trkpt lat="42.94450619016108" lon="11.662845663251677"><ele>804.0</ele><time>2026-04-19T11:33:00.001Z</time></trkpt><trkpt lat="42.94457280463332" lon="11.662895531771198"><ele>802.0</ele><time>2026-04-19T11:33:01.001Z</time></trkpt><trkpt lat="42.94463728436589" lon="11.662936450544171"><ele>800.0</ele><time>2026-04-19T11:33:02.001Z</time></trkpt><trkpt lat="42.944705425138785" lon="11.66297339796638"><ele>798.0</ele><time>2026-04-19T11:33:03.001Z</time></trkpt><trkpt lat="42.94477380924596" lon="11.663002851377952"><ele>796.0</ele><time>2026-04-19T11:33:04.001Z</time></trkpt><trkpt lat="42.94484522698884" lon="11.663027765973238"><ele>794.0</ele><time>2026-04-19T11:33:05.001Z</time></trkpt><trkpt lat="42.94492381896777" lon="11.663045309072771"><ele>792.0</ele><time>2026-04-19T11:33:06.001Z</time></trkpt><trkpt lat="42.94499794687786" lon="11.663065171219833"><ele>790.0</ele><time>2026-04-19T11:33:07.001Z</time></trkpt><trkpt lat="42.94506819049973" lon="11.66309251169338"><ele>788.0</ele><time>2026-04-19T11:33:08.001Z</time></trkpt><trkpt lat="42.9451398251481" lon="11.663139610291426"><ele>786.0</ele><time>2026-04-19T11:33:09.001Z</time></trkpt><trkpt lat="42.945207395178336" lon="11.663181696743186"><ele>784.0</ele><time>2026-04-19T11:33:10.001Z</time></trkpt><trkpt lat="42.94528229718313" lon="11.663207314102666"><ele>782.0</ele><time>2026-04-19T11:33:11.001Z</time></trkpt><trkpt lat="42.94535466174028" lon="11.66327174579825"><ele>780.0</ele><time>2026-04-19T11:33:12.001Z</time></trkpt><trkpt lat="42.94543121587543" lon="11.663298429089652"><ele>780.0</ele><time>2026-04-19T11:33:13.001Z</time></trkpt><trkpt lat="42.94549699686174" lon="11.663343922657624"><ele>780.0</ele><time>2026-04-19T11:33:14.001Z</time></trkpt><trkpt lat="42.94556376286909" lon="11.663353632524608"><ele>780.0</ele><time>2026-04-19T11:33:15.001Z</time></trkpt><trkpt lat="42.94565501266743" lon="11.663401485011239"><ele>780.0</ele><time>2026-04-19T11:33:17.001Z</time></trkpt><trkpt lat="42.94570874821032" lon="11.66348219985898"><ele>780.0</ele><time>2026-04-19T11:33:19.001Z</time></trkpt><trkpt lat="42.94572634074033" lon="11.663596382789125"><ele>780.0</ele><time>2026-04-19T11:33:21.001Z</time></trkpt><trkpt lat="42.945766116086496" lon="11.66374562548375"><ele>780.4285714285714</ele><time>2026-04-19T11:33:23.001Z</time></trkpt><trkpt lat="42.945805011223165" lon="11.663815804764692"><ele>780.8571428571429</ele><time>2026-04-19T11:33:24.001Z</time></trkpt><trkpt lat="42.94584793114564" lon="11.663888082934712"><ele>781.2857142857142</ele><time>2026-04-19T11:33:25.001Z</time></trkpt><trkpt lat="42.945898079089595" lon="11.663962427172859"><ele>781.7142857142858</ele><time>2026-04-19T11:33:26.001Z</time></trkpt><trkpt lat="42.94594847879734" lon="11.664049398262561"><ele>782.1428571428572</ele><time>2026-04-19T11:33:27.001Z</time></trkpt><trkpt lat="42.945981823332126" lon="11.664155333058885"><ele>782.5714285714286</ele><time>2026-04-19T11:33:28.001Z</time></trkpt><trkpt lat="42.94601301935727" lon="11.66423267419637"><ele>783.0</ele><time>2026-04-19T11:33:29.001Z</time></trkpt><trkpt lat="42.94607252289088" lon="11.664393775438676"><ele>780.8</ele><time>2026-04-19T11:33:31.001Z</time></trkpt><trkpt lat="42.94609278822107" lon="11.66450286845471"><ele>778.5999999999999</ele><time>2026-04-19T11:33:32.001Z</time></trkpt><trkpt lat="42.94611226477505" lon="11.664645353486096"><ele>776.4000000000001</ele><time>2026-04-19T11:33:33.001Z</time></trkpt><trkpt lat="42.946121297749215" lon="11.664796618735409"><ele>774.2</ele><time>2026-04-19T11:33:34.001Z</time></trkpt><trkpt lat="42.94612260893499" lon="11.664925190211687"><ele>772.0</ele><time>2026-04-19T11:33:35.001Z</time></trkpt><trkpt lat="42.94611872070523" lon="11.665037944083632"><ele>771.9999999999999</ele><time>2026-04-19T11:33:36.001Z</time></trkpt><trkpt lat="42.946100555696155" lon="11.665134157034625"><ele>772.0</ele><time>2026-04-19T11:33:37.001Z</time></trkpt><trkpt lat="42.946048006895396" lon="11.665264854275229"><ele>772.0</ele><time>2026-04-19T11:33:39.001Z</time></trkpt><trkpt lat="42.94601499664734" lon="11.665343347812776"><ele>772.0</ele><time>2026-04-19T11:33:41.001Z</time></trkpt><trkpt lat="42.94601093647023" lon="11.66543539629202"><ele>771.9999999999999</ele><time>2026-04-19T11:33:42.001Z</time></trkpt><trkpt lat="42.945991628258156" lon="11.665552937083211"><ele>772.0</ele><time>2026-04-19T11:33:43.001Z</time></trkpt><trkpt lat="42.94597062233295" lon="11.665683984370336"><ele>772.4999999999999</ele><time>2026-04-19T11:33:44.001Z</time></trkpt><trkpt lat="42.945944382151055" lon="11.665802886804748"><ele>773.0</ele><time>2026-04-19T11:33:45.001Z</time></trkpt><trkpt lat="42.94590096188996" lon="11.665893676494534"><ele>773.5</ele><time>2026-04-19T11:33:46.001Z</time></trkpt><trkpt lat="42.945876150513925" lon="11.665978649319065"><ele>774.0</ele><time>2026-04-19T11:33:47.001Z</time></trkpt><trkpt lat="42.94587972150027" lon="11.666065507226463"><ele>774.4999999999999</ele><time>2026-04-19T11:33:48.001Z</time></trkpt><trkpt lat="42.945920200577085" lon="11.666180011058566"><ele>775.0</ele><time>2026-04-19T11:33:50.001Z</time></trkpt><trkpt lat="42.9460718687356" lon="11.666199770788143"><ele>769.25</ele><time>2026-04-19T11:33:53.001Z</time></trkpt><trkpt lat="42.94617112542357" lon="11.666161862960573"><ele>763.5</ele><time>2026-04-19T11:33:54.001Z</time></trkpt><trkpt lat="42.946303093071016" lon="11.666190641823075"><ele>757.75</ele><time>2026-04-19T11:33:55.001Z</time></trkpt><trkpt lat="42.94645296922763" lon="11.666224936486898"><ele>752.0</ele><time>2026-04-19T11:33:56.001Z</time></trkpt><trkpt lat="42.94658176382586" lon="11.66626194323567"><ele>752.0</ele><time>2026-04-19T11:33:57.001Z</time></trkpt><trkpt lat="42.94670549964083" lon="11.666254235142393"><ele>752.0</ele><time>2026-04-19T11:33:58.001Z</time></trkpt><trkpt lat="42.946822305326336" lon="11.666199804570402"><ele>752.0</ele><time>2026-04-19T11:33:59.001Z</time></trkpt><trkpt lat="42.94694512409987" lon="11.666109652873844"><ele>752.0</ele><time>2026-04-19T11:34:00.001Z</time></trkpt><trkpt lat="42.947058484809595" lon="11.665975056504662"><ele>750.0</ele><time>2026-04-19T11:34:01.001Z</time></trkpt><trkpt lat="42.94716834964153" lon="11.665819742545725"><ele>748.0</ele><time>2026-04-19T11:34:02.001Z</time></trkpt><trkpt lat="42.9472909229202" lon="11.665686403139162"><ele>746.0</ele><time>2026-04-19T11:34:03.001Z</time></trkpt><trkpt lat="42.94741647806318" lon="11.665551419344885"><ele>746.0</ele><time>2026-04-19T11:34:04.001Z</time></trkpt><trkpt lat="42.947540973768604" lon="11.665436722915402"><ele>746.0</ele><time>2026-04-19T11:34:05.001Z</time></trkpt><trkpt lat="42.947669373794966" lon="11.66533930092532"><ele>746.0</ele><time>2026-04-19T11:34:06.001Z</time></trkpt><trkpt lat="42.94778729955376" lon="11.665237601604266"><ele>746.0</ele><time>2026-04-19T11:34:07.001Z</time></trkpt><trkpt lat="42.947904066329315" lon="11.665148137032766"><ele>745.0</ele><time>2026-04-19T11:34:08.001Z</time></trkpt><trkpt lat="42.94801817063395" lon="11.665028432439659"><ele>744.0</ele><time>2026-04-19T11:34:09.001Z</time></trkpt><trkpt lat="42.94811332904751" lon="11.664890239161368"><ele>743.0</ele><time>2026-04-19T11:34:10.001Z</time></trkpt><trkpt lat="42.94819318300055" lon="11.664753412499476"><ele>742.0</ele><time>2026-04-19T11:34:11.001Z</time></trkpt><trkpt lat="42.948287883748115" lon="11.664629466490178"><ele>742.0</ele><time>2026-04-19T11:34:12.001Z</time></trkpt><trkpt lat="42.94837163083866" lon="11.66445363040184"><ele>742.0</ele><time>2026-04-19T11:34:13.001Z</time></trkpt><trkpt lat="42.948456829500635" lon="11.664257154573036"><ele>742.0</ele><time>2026-04-19T11:34:14.001Z</time></trkpt><trkpt lat="42.948548635018994" lon="11.664048017262274"><ele>737.6666666666667</ele><time>2026-04-19T11:34:15.001Z</time></trkpt><trkpt lat="42.94864855821209" lon="11.66382038659413"><ele>733.3333333333334</ele><time>2026-04-19T11:34:16.001Z</time></trkpt><trkpt lat="42.948749468572714" lon="11.663589372187653"><ele>729.0</ele><time>2026-04-19T11:34:17.001Z</time></trkpt><trkpt lat="42.948852153184845" lon="11.66335334244388"><ele>729.0</ele><time>2026-04-19T11:34:18.001Z</time></trkpt><trkpt lat="42.948946731454036" lon="11.66313533987236"><ele>729.0</ele><time>2026-04-19T11:34:19.001Z</time></trkpt><trkpt lat="42.94903358375557" lon="11.662939749169425"><ele>729.0</ele><time>2026-04-19T11:34:20.001Z</time></trkpt><trkpt lat="42.9491149163835" lon="11.66278308510648"><ele>724.5</ele><time>2026-04-19T11:34:21.001Z</time></trkpt><trkpt lat="42.94921523954006" lon="11.662676644504815"><ele>720.0</ele><time>2026-04-19T11:34:22.001Z</time></trkpt><trkpt lat="42.94933213929618" lon="11.662602824901056"><ele>715.5</ele><time>2026-04-19T11:34:23.001Z</time></trkpt><trkpt lat="42.94946118595475" lon="11.662610392510848"><ele>711.0</ele><time>2026-04-19T11:34:24.001Z</time></trkpt><trkpt lat="42.94960321273756" lon="11.662657846928985"><ele>711.0</ele><time>2026-04-19T11:34:25.001Z</time></trkpt><trkpt lat="42.94972904868275" lon="11.662778373572417"><ele>711.0</ele><time>2026-04-19T11:34:26.001Z</time></trkpt><trkpt lat="42.94982586383013" lon="11.662955229316525"><ele>711.0</ele><time>2026-04-19T11:34:27.001Z</time></trkpt><trkpt lat="42.94986819035733" lon="11.663193937379093"><ele>711.0</ele><time>2026-04-19T11:34:28.001Z</time></trkpt><trkpt lat="42.94986331934922" lon="11.663451292860856"><ele>711.0</ele><time>2026-04-19T11:34:29.001Z</time></trkpt><trkpt lat="42.94983052527955" lon="11.663721074898113"><ele>711.0</ele><time>2026-04-19T11:34:30.001Z</time></trkpt><trkpt lat="42.949796025452336" lon="11.663997282400338"><ele>710.0</ele><time>2026-04-19T11:34:31.001Z</time></trkpt><trkpt lat="42.94977750614957" lon="11.664268977697745"><ele>709.0</ele><time>2026-04-19T11:34:32.001Z</time></trkpt><trkpt lat="42.94978013565532" lon="11.664542271390674"><ele>708.0</ele><time>2026-04-19T11:34:33.001Z</time></trkpt><trkpt lat="42.94979008508416" lon="11.664817314589344"><ele>708.0</ele><time>2026-04-19T11:34:34.001Z</time></trkpt><trkpt lat="42.949824531305055" lon="11.665094530981682"><ele>708.0</ele><time>2026-04-19T11:34:35.001Z</time></trkpt><trkpt lat="42.94988453576626" lon="11.665364673934125"><ele>708.0</ele><time>2026-04-19T11:34:36.001Z</time></trkpt><trkpt lat="42.94996389703305" lon="11.66562304458856"><ele>705.3333333333334</ele><time>2026-04-19T11:34:37.001Z</time></trkpt><trkpt lat="42.950042627096664" lon="11.665871532753378"><ele>702.6666666666667</ele><time>2026-04-19T11:34:38.001Z</time></trkpt><trkpt lat="42.95011162728162" lon="11.666107846336079"><ele>700.0</ele><time>2026-04-19T11:34:39.001Z</time></trkpt><trkpt lat="42.950189796503516" lon="11.666337625617217"><ele>700.0</ele><time>2026-04-19T11:34:40.001Z</time></trkpt><trkpt lat="42.95030548532308" lon="11.666541164139112"><ele>700.0</ele><time>2026-04-19T11:34:41.001Z</time></trkpt><trkpt lat="42.950456903544605" lon="11.666711220129189"><ele>700.0</ele><time>2026-04-19T11:34:42.001Z</time></trkpt><trkpt lat="42.95062504217764" lon="11.666858369937126"><ele>700.6666666666667</ele><time>2026-04-19T11:34:43.001Z</time></trkpt><trkpt lat="42.9507745162796" lon="11.667015760290433"><ele>701.3333333333334</ele><time>2026-04-19T11:34:44.001Z</time></trkpt><trkpt lat="42.95092472251484" lon="11.667168005002312"><ele>702.0</ele><time>2026-04-19T11:34:45.001Z</time></trkpt><trkpt lat="42.951089902234024" lon="11.667302382387348"><ele>697.0</ele><time>2026-04-19T11:34:46.001Z</time></trkpt><trkpt lat="42.95126654436681" lon="11.667404090816728"><ele>692.0</ele><time>2026-04-19T11:34:47.001Z</time></trkpt><trkpt lat="42.95145508078164" lon="11.667470811374848"><ele>687.0</ele><time>2026-04-19T11:34:48.001Z</time></trkpt><trkpt lat="42.951659872800356" lon="11.66749472073152"><ele>683.3333333333334</ele><time>2026-04-19T11:34:49.001Z</time></trkpt><trkpt lat="42.951871106510374" lon="11.667477122217061"><ele>679.6666666666667</ele><time>2026-04-19T11:34:50.001Z</time></trkpt><trkpt lat="42.95208986975274" lon="11.66743180299896"><ele>676.0</ele><time>2026-04-19T11:34:51.001Z</time></trkpt><trkpt lat="42.95231113816803" lon="11.667378374014772"><ele>676.0</ele><time>2026-04-19T11:34:52.001Z</time></trkpt><trkpt lat="42.95253864335619" lon="11.667332815692614"><ele>676.0</ele><time>2026-04-19T11:34:53.001Z</time></trkpt><trkpt lat="42.95276001793552" lon="11.667296183419113"><ele>670.3333333333334</ele><time>2026-04-19T11:34:54Z</time></trkpt><trkpt lat="42.95297763563868" lon="11.667264740868044"><ele>664.6666666666666</ele><time>2026-04-19T11:34:55Z</time></trkpt><trkpt lat="42.95318837326643" lon="11.667230720943463"><ele>659.0</ele><time>2026-04-19T11:34:56Z</time></trkpt><trkpt lat="42.95340111082716" lon="11.667191665259582"><ele>652.6666666666666</ele><time>2026-04-19T11:34:57Z</time></trkpt><trkpt lat="42.953615155636484" lon="11.667155736741364"><ele>646.3333333333334</ele><time>2026-04-19T11:34:58Z</time></trkpt><trkpt lat="42.953828571468755" lon="11.667122938601176"><ele>640.0</ele><time>2026-04-19T11:34:59Z</time></trkpt><trkpt lat="42.954034496175474" lon="11.66710083570203"><ele>634.6666666666667</ele><time>2026-04-19T11:35:00Z</time></trkpt><trkpt lat="42.954228045145605" lon="11.667143497025735"><ele>629.3333333333334</ele><time>2026-04-19T11:35:01Z</time></trkpt><trkpt lat="42.95441089742282" lon="11.667224361095418"><ele>624.0</ele><time>2026-04-19T11:35:02Z</time></trkpt><trkpt lat="42.95456732969568" lon="11.66736464456587"><ele>624.0</ele><time>2026-04-19T11:35:03Z</time></trkpt><trkpt lat="42.9547071916352" lon="11.667536905918814"><ele>624.0</ele><time>2026-04-19T11:35:04Z</time></trkpt><trkpt lat="42.95485631931341" lon="11.667712215220664"><ele>624.0</ele><time>2026-04-19T11:35:05Z</time></trkpt><trkpt lat="42.95500316783892" lon="11.667913102357872"><ele>621.0</ele><time>2026-04-19T11:35:06Z</time></trkpt><trkpt lat="42.95516119416105" lon="11.668112208815351"><ele>618.0</ele><time>2026-04-19T11:35:07Z</time></trkpt><trkpt lat="42.95531788209474" lon="11.668308411618533"><ele>615.0</ele><time>2026-04-19T11:35:08Z</time></trkpt><trkpt lat="42.955470528454605" lon="11.668505152279774"><ele>615.0</ele><time>2026-04-19T11:35:09Z</time></trkpt><trkpt lat="42.95560529035386" lon="11.668719481589426"><ele>615.0</ele><time>2026-04-19T11:35:10Z</time></trkpt><trkpt lat="42.95570705992009" lon="11.668969904487634"><ele>615.0</ele><time>2026-04-19T11:35:11Z</time></trkpt><trkpt lat="42.95576754327232" lon="11.669242125886894"><ele>614.3333333333334</ele><time>2026-04-19T11:35:12Z</time></trkpt><trkpt lat="42.95579921981068" lon="11.669526487928138"><ele>613.6666666666667</ele><time>2026-04-19T11:35:13Z</time></trkpt><trkpt lat="42.95580006442702" lon="11.669826643607916"><ele>613.0</ele><time>2026-04-19T11:35:14Z</time></trkpt><trkpt lat="42.955797902530804" lon="11.67013108287192"><ele>612.0</ele><time>2026-04-19T11:35:15Z</time></trkpt><trkpt lat="42.95580572555745" lon="11.670443948851144"><ele>611.0</ele><time>2026-04-19T11:35:16Z</time></trkpt><trkpt lat="42.955817383479825" lon="11.67074068063485"><ele>610.0</ele><time>2026-04-19T11:35:17Z</time></trkpt><trkpt lat="42.95582777717048" lon="11.671014212646867"><ele>607.3333333333334</ele><time>2026-04-19T11:35:18Z</time></trkpt><trkpt lat="42.95584378902452" lon="11.671262026548506"><ele>604.6666666666666</ele><time>2026-04-19T11:35:19Z</time></trkpt><trkpt lat="42.95588925997716" lon="11.671506573930397"><ele>602.0</ele><time>2026-04-19T11:35:20Z</time></trkpt><trkpt lat="42.955975644772295" lon="11.671732386401626"><ele>599.0</ele><time>2026-04-19T11:35:21Z</time></trkpt><trkpt lat="42.95609605073302" lon="11.671923020117926"><ele>596.0</ele><time>2026-04-19T11:35:22Z</time></trkpt><trkpt lat="42.95624465663677" lon="11.672071435430095"><ele>593.0</ele><time>2026-04-19T11:35:23Z</time></trkpt><trkpt lat="42.95641337295128" lon="11.672193948510673"><ele>590.0</ele><time>2026-04-19T11:35:24Z</time></trkpt><trkpt lat="42.956593264421166" lon="11.672285327949758"><ele>587.0</ele><time>2026-04-19T11:35:25Z</time></trkpt><trkpt lat="42.95676913947345" lon="11.672392830890036"><ele>584.0</ele><time>2026-04-19T11:35:26Z</time></trkpt><trkpt lat="42.95700947472943" lon="11.672277121527065"><ele>581.6666666666666</ele><time>2026-04-19T11:35:27Z</time></trkpt><trkpt lat="42.95721903709878" lon="11.672254409804694"><ele>579.3333333333334</ele><time>2026-04-19T11:35:28Z</time></trkpt><trkpt lat="42.95741962378029" lon="11.672226762689556"><ele>577.0</ele><time>2026-04-19T11:35:29Z</time></trkpt><trkpt lat="42.95761673994779" lon="11.672188106138234"><ele>575.0</ele><time>2026-04-19T11:35:30Z</time></trkpt><trkpt lat="42.95781031136004" lon="11.672113893035366"><ele>573.0</ele><time>2026-04-19T11:35:31.001Z</time></trkpt><trkpt lat="42.958007393602706" lon="11.671989997167023"><ele>571.0</ele><time>2026-04-19T11:35:32.001Z</time></trkpt><trkpt lat="42.95820560860469" lon="11.671853443692084"><ele>566.5</ele><time>2026-04-19T11:35:33.001Z</time></trkpt><trkpt lat="42.95841611513925" lon="11.67170776627218"><ele>562.0</ele><time>2026-04-19T11:35:34.001Z</time></trkpt><trkpt lat="42.95862475575947" lon="11.671566723562247"><ele>562.0</ele><time>2026-04-19T11:35:35.001Z</time></trkpt><trkpt lat="42.958824764991455" lon="11.671432677470733"><ele>562.0</ele><time>2026-04-19T11:35:36.001Z</time></trkpt><trkpt lat="42.95902374119681" lon="11.671300842822168"><ele>562.0</ele><time>2026-04-19T11:35:37.001Z</time></trkpt><trkpt lat="42.95922315678638" lon="11.671168105103723"><ele>558.0</ele><time>2026-04-19T11:35:38.001Z</time></trkpt><trkpt lat="42.95941944386383" lon="11.671037482117656"><ele>554.0</ele><time>2026-04-19T11:35:39.001Z</time></trkpt><trkpt lat="42.95961330250497" lon="11.670909022227733"><ele>550.0</ele><time>2026-04-19T11:35:40.001Z</time></trkpt><trkpt lat="42.95980357370182" lon="11.670795344548555"><ele>550.0</ele><time>2026-04-19T11:35:41.001Z</time></trkpt><trkpt lat="42.96000464694006" lon="11.670722618484266"><ele>550.0</ele><time>2026-04-19T11:35:42.001Z</time></trkpt><trkpt lat="42.96020379976877" lon="11.670701146053096"><ele>550.0</ele><time>2026-04-19T11:35:43.001Z</time></trkpt><trkpt lat="42.96040255908562" lon="11.670731392790707"><ele>547.0</ele><time>2026-04-19T11:35:44.001Z</time></trkpt><trkpt lat="42.960603885759504" lon="11.670817864044997"><ele>544.0</ele><time>2026-04-19T11:35:45.001Z</time></trkpt><trkpt lat="42.96080745060603" lon="11.670936649644526"><ele>541.0</ele><time>2026-04-19T11:35:46.001Z</time></trkpt><trkpt lat="42.96103131081071" lon="11.671059706577756"><ele>536.0</ele><time>2026-04-19T11:35:47.001Z</time></trkpt><trkpt lat="42.96125617953804" lon="11.671173827677988"><ele>531.0</ele><time>2026-04-19T11:35:48.001Z</time></trkpt><trkpt lat="42.961481350542144" lon="11.671286312367215"><ele>528.0</ele><time>2026-04-19T11:35:49.001Z</time></trkpt><trkpt lat="42.9616994380191" lon="11.67139840621953"><ele>525.0</ele><time>2026-04-19T11:35:50.001Z</time></trkpt><trkpt lat="42.96190768102174" lon="11.671507897810843"><ele>525.0</ele><time>2026-04-19T11:35:51.001Z</time></trkpt><trkpt lat="42.96211008089903" lon="11.671615663877205"><ele>525.0</ele><time>2026-04-19T11:35:52.001Z</time></trkpt><trkpt lat="42.96229087119726" lon="11.671713012378296"><ele>525.0</ele><time>2026-04-19T11:35:53.001Z</time></trkpt><trkpt lat="42.96245071288466" lon="11.671769917599713"><ele>521.6666666666666</ele><time>2026-04-19T11:35:54.001Z</time></trkpt><trkpt lat="42.96261273177596" lon="11.67177547889192"><ele>518.3333333333333</ele><time>2026-04-19T11:35:55.001Z</time></trkpt><trkpt lat="42.9627749211254" lon="11.671728877341327"><ele>515.0</ele><time>2026-04-19T11:35:56.001Z</time></trkpt><trkpt lat="42.96293260527539" lon="11.671638650430836"><ele>515.0</ele><time>2026-04-19T11:35:57.001Z</time></trkpt><trkpt lat="42.963075637522046" lon="11.671500793187645"><ele>515.0</ele><time>2026-04-19T11:35:58.001Z</time></trkpt><trkpt lat="42.96320287374282" lon="11.67133744120241"><ele>515.0</ele><time>2026-04-19T11:35:59.001Z</time></trkpt><trkpt lat="42.963328209502635" lon="11.671196575614065"><ele>511.0</ele><time>2026-04-19T11:36:00.001Z</time></trkpt><trkpt lat="42.96347555926989" lon="11.671107372584318"><ele>507.0</ele><time>2026-04-19T11:36:01.001Z</time></trkpt><trkpt lat="42.96363791956425" lon="11.671092699405555"><ele>503.0</ele><time>2026-04-19T11:36:02.001Z</time></trkpt><trkpt lat="42.96380704564134" lon="11.67112519421712"><ele>503.0</ele><time>2026-04-19T11:36:03.001Z</time></trkpt><trkpt lat="42.96398341882359" lon="11.671214675934822"><ele>503.0</ele><time>2026-04-19T11:36:04.001Z</time></trkpt><trkpt lat="42.96415332663208" lon="11.671341976554361"><ele>503.0</ele><time>2026-04-19T11:36:05.001Z</time></trkpt><trkpt lat="42.964307858234825" lon="11.67150995409563"><ele>500.3333333333333</ele><time>2026-04-19T11:36:06.001Z</time></trkpt><trkpt lat="42.96442398980738" lon="11.67168001088224"><ele>497.66666666666663</ele><time>2026-04-19T11:36:07.001Z</time></trkpt><trkpt lat="42.9645121437682" lon="11.671865097548412"><ele>495.0</ele><time>2026-04-19T11:36:08.001Z</time></trkpt><trkpt lat="42.964567758394026" lon="11.672097075253316"><ele>493.0</ele><time>2026-04-19T11:36:09.001Z</time></trkpt><trkpt lat="42.96458551192491" lon="11.672366992426817"><ele>491.0</ele><time>2026-04-19T11:36:10.001Z</time></trkpt><trkpt lat="42.96457382497218" lon="11.672654801467338"><ele>489.0</ele><time>2026-04-19T11:36:11.001Z</time></trkpt><trkpt lat="42.96456336547685" lon="11.67297956601693"><ele>487.0</ele><time>2026-04-19T11:36:12.001Z</time></trkpt><trkpt lat="42.964560687779894" lon="11.673296403458545"><ele>485.0</ele><time>2026-04-19T11:36:13.001Z</time></trkpt><trkpt lat="42.96456198460383" lon="11.673604088048847"><ele>484.66666666666663</ele><time>2026-04-19T11:36:14.001Z</time></trkpt><trkpt lat="42.96456647619372" lon="11.673903511500894"><ele>484.33333333333337</ele><time>2026-04-19T11:36:15.001Z</time></trkpt><trkpt lat="42.96458671168761" lon="11.674176386092913"><ele>484.0</ele><time>2026-04-19T11:36:16.001Z</time></trkpt><trkpt lat="42.964640815409595" lon="11.674435196266495"><ele>482.0</ele><time>2026-04-19T11:36:17.001Z</time></trkpt><trkpt lat="42.96473951994463" lon="11.674670656184235"><ele>480.0</ele><time>2026-04-19T11:36:18.001Z</time></trkpt><trkpt lat="42.964864784707544" lon="11.674875971181127"><ele>478.0</ele><time>2026-04-19T11:36:19.001Z</time></trkpt><trkpt lat="42.965016341923764" lon="11.675050618745372"><ele>475.6666666666667</ele><time>2026-04-19T11:36:20.001Z</time></trkpt><trkpt lat="42.965199312325126" lon="11.675185356908884"><ele>473.33333333333337</ele><time>2026-04-19T11:36:21.001Z</time></trkpt><trkpt lat="42.965400769774114" lon="11.675271772009307"><ele>471.0</ele><time>2026-04-19T11:36:22.001Z</time></trkpt><trkpt lat="42.96560634256105" lon="11.675310109251214"><ele>468.0</ele><time>2026-04-19T11:36:23.001Z</time></trkpt><trkpt lat="42.96580477469833" lon="11.67528767643287"><ele>465.0</ele><time>2026-04-19T11:36:24.001Z</time></trkpt><trkpt lat="42.96599271991886" lon="11.67522576615658"><ele>462.0</ele><time>2026-04-19T11:36:25.001Z</time></trkpt><trkpt lat="42.966180655326745" lon="11.675108469491665"><ele>460.33333333333337</ele><time>2026-04-19T11:36:26.001Z</time></trkpt><trkpt lat="42.96637527077989" lon="11.674953609746868"><ele>458.6666666666667</ele><time>2026-04-19T11:36:27.001Z</time></trkpt><trkpt lat="42.966568880196725" lon="11.67480476062531"><ele>457.0</ele><time>2026-04-19T11:36:28.001Z</time></trkpt><trkpt lat="42.966746284807236" lon="11.674676380564225"><ele>456.6666666666667</ele><time>2026-04-19T11:36:29.001Z</time></trkpt><trkpt lat="42.966900205573864" lon="11.67453342400984"><ele>456.33333333333337</ele><time>2026-04-19T11:36:30.001Z</time></trkpt><trkpt lat="42.96703488286888" lon="11.67436509894252"><ele>456.0</ele><time>2026-04-19T11:36:31.001Z</time></trkpt><trkpt lat="42.967146088192735" lon="11.674157347810828"><ele>456.0</ele><time>2026-04-19T11:36:32.001Z</time></trkpt><trkpt lat="42.96723474902689" lon="11.673900199118801"><ele>456.0</ele><time>2026-04-19T11:36:33.001Z</time></trkpt><trkpt lat="42.967336228760054" lon="11.673627913602697"><ele>456.0</ele><time>2026-04-19T11:36:34.001Z</time></trkpt><trkpt lat="42.96742267927993" lon="11.673369280754962"><ele>455.66666666666663</ele><time>2026-04-19T11:36:35.001Z</time></trkpt><trkpt lat="42.967505333823205" lon="11.673138296996868"><ele>455.3333333333333</ele><time>2026-04-19T11:36:36.001Z</time></trkpt><trkpt lat="42.96759798725173" lon="11.672948302990475"><ele>455.0</ele><time>2026-04-19T11:36:37.001Z</time></trkpt><trkpt lat="42.967717222409156" lon="11.672791175548866"><ele>450.3333333333333</ele><time>2026-04-19T11:36:38.001Z</time></trkpt><trkpt lat="42.96788468746943" lon="11.67269010161237"><ele>445.66666666666663</ele><time>2026-04-19T11:36:39.001Z</time></trkpt><trkpt lat="42.9680932526536" lon="11.672593541451064"><ele>441.0</ele><time>2026-04-19T11:36:40.001Z</time></trkpt><trkpt lat="42.96830139892603" lon="11.672502315888007"><ele>437.33333333333337</ele><time>2026-04-19T11:36:41.001Z</time></trkpt><trkpt lat="42.96848049980699" lon="11.672425687632934"><ele>433.6666666666667</ele><time>2026-04-19T11:36:42.001Z</time></trkpt><trkpt lat="42.9686425940645" lon="11.672388020350015"><ele>430.0</ele><time>2026-04-19T11:36:43.001Z</time></trkpt><trkpt lat="42.96881571262495" lon="11.672388637226591"><ele>430.0</ele><time>2026-04-19T11:36:44.001Z</time></trkpt><trkpt lat="42.96899640276842" lon="11.672461470436463"><ele>430.0</ele><time>2026-04-19T11:36:45.001Z</time></trkpt><trkpt lat="42.969189081714326" lon="11.672571978628493"><ele>430.0</ele><time>2026-04-19T11:36:46.001Z</time></trkpt><trkpt lat="42.969376488146175" lon="11.672677480853027"><ele>426.0</ele><time>2026-04-19T11:36:47.001Z</time></trkpt><trkpt lat="42.96954595039108" lon="11.672803094629337"><ele>422.0</ele><time>2026-04-19T11:36:48.001Z</time></trkpt><trkpt lat="42.96970490459363" lon="11.672909021998247"><ele>418.0</ele><time>2026-04-19T11:36:49.001Z</time></trkpt><trkpt lat="42.969867217598484" lon="11.672976407971845"><ele>414.0</ele><time>2026-04-19T11:36:50.001Z</time></trkpt><trkpt lat="42.97003879534415" lon="11.6729690788848"><ele>410.0</ele><time>2026-04-19T11:36:51.001Z</time></trkpt><trkpt lat="42.9702152020836" lon="11.672885634086308"><ele>406.0</ele><time>2026-04-19T11:36:52.001Z</time></trkpt><trkpt lat="42.97038099584615" lon="11.672746670830227"><ele>406.0</ele><time>2026-04-19T11:36:53.001Z</time></trkpt><trkpt lat="42.97051069570734" lon="11.67255434093258"><ele>406.0</ele><time>2026-04-19T11:36:54.001Z</time></trkpt><trkpt lat="42.970603992948725" lon="11.672313845256351"><ele>406.0</ele><time>2026-04-19T11:36:55.001Z</time></trkpt><trkpt lat="42.970679058922386" lon="11.672048818876455"><ele>405.6666666666667</ele><time>2026-04-19T11:36:56.001Z</time></trkpt><trkpt lat="42.97078326009062" lon="11.671815585819541"><ele>405.33333333333337</ele><time>2026-04-19T11:36:57.001Z</time></trkpt><trkpt lat="42.97086463170293" lon="11.671623463945208"><ele>405.0</ele><time>2026-04-19T11:36:58.001Z</time></trkpt><trkpt lat="42.970934495039224" lon="11.671488374252023"><ele>403.5</ele><time>2026-04-19T11:36:59Z</time></trkpt><trkpt lat="42.97098995072333" lon="11.671401739591834"><ele>402.0</ele><time>2026-04-19T11:37:00Z</time></trkpt><trkpt lat="42.971042732269105" lon="11.671332856477997"><ele>400.5</ele><time>2026-04-19T11:37:01Z</time></trkpt><trkpt lat="42.97109205719211" lon="11.671277936042005"><ele>399.0</ele><time>2026-04-19T11:37:02Z</time></trkpt><trkpt lat="42.97111879365002" lon="11.671147734119428"><ele>397.5</ele><time>2026-04-19T11:37:03Z</time></trkpt><trkpt lat="42.97114864848993" lon="11.671017053291383"><ele>396.0</ele><time>2026-04-19T11:37:04Z</time></trkpt><trkpt lat="42.971187447984626" lon="11.67084930883755"><ele>396.0</ele><time>2026-04-19T11:37:05Z</time></trkpt><trkpt lat="42.97123230405652" lon="11.670667913874231"><ele>396.0</ele><time>2026-04-19T11:37:06Z</time></trkpt><trkpt lat="42.97128503295686" lon="11.670486075492995"><ele>396.0</ele><time>2026-04-19T11:37:07Z</time></trkpt><trkpt lat="42.97134123468404" lon="11.670302587126672"><ele>396.0</ele><time>2026-04-19T11:37:08Z</time></trkpt><trkpt lat="42.971401631612586" lon="11.670124778797904"><ele>397.0</ele><time>2026-04-19T11:37:09Z</time></trkpt><trkpt lat="42.971457822023" lon="11.669970874248657"><ele>398.0</ele><time>2026-04-19T11:37:10Z</time></trkpt><trkpt lat="42.97150759929045" lon="11.669841199642462"><ele>399.0</ele><time>2026-04-19T11:37:11Z</time></trkpt><trkpt lat="42.971557281233" lon="11.669725146324735"><ele>400.0</ele><time>2026-04-19T11:37:12Z</time></trkpt><trkpt lat="42.97160712485372" lon="11.669631573963118"><ele>401.0</ele><time>2026-04-19T11:37:13Z</time></trkpt><trkpt lat="42.97165830031633" lon="11.669554131084674"><ele>401.75</ele><time>2026-04-19T11:37:14Z</time></trkpt><trkpt lat="42.97175664731245" lon="11.669471517184808"><ele>402.5</ele><time>2026-04-19T11:37:16Z</time></trkpt><trkpt lat="42.97189358455122" lon="11.669506507024181"><ele>403.25</ele><time>2026-04-19T11:37:18Z</time></trkpt><trkpt lat="42.971990159408996" lon="11.669543789874545"><ele>404.0</ele><time>2026-04-19T11:37:19Z</time></trkpt><trkpt lat="42.97210077383576" lon="11.66958643158658"><ele>404.0</ele><time>2026-04-19T11:37:20Z</time></trkpt><trkpt lat="42.97221630015448" lon="11.669613911354283"><ele>404.0</ele><time>2026-04-19T11:37:21Z</time></trkpt><trkpt lat="42.97232327264864" lon="11.669600053952895"><ele>404.0</ele><time>2026-04-19T11:37:22Z</time></trkpt><trkpt lat="42.972425567255094" lon="11.669610795058272"><ele>404.0</ele><time>2026-04-19T11:37:23Z</time></trkpt><trkpt lat="42.97252728525963" lon="11.669583642800228"><ele>404.0</ele><time>2026-04-19T11:37:24Z</time></trkpt><trkpt lat="42.97260743211157" lon="11.66954354788941"><ele>403.79999999999995</ele><time>2026-04-19T11:37:25Z</time></trkpt><trkpt lat="42.972678031144255" lon="11.669484221822096"><ele>403.59999999999997</ele><time>2026-04-19T11:37:26Z</time></trkpt><trkpt lat="42.972726236712795" lon="11.669384678791747"><ele>403.4</ele><time>2026-04-19T11:37:27Z</time></trkpt><trkpt lat="42.97274910127403" lon="11.669261455696164"><ele>403.2</ele><time>2026-04-19T11:37:28Z</time></trkpt><trkpt lat="42.972729167559706" lon="11.66909618349099"><ele>403.0</ele><time>2026-04-19T11:37:29Z</time></trkpt><trkpt lat="42.97271787817416" lon="11.668939937352222"><ele>403.0</ele><time>2026-04-19T11:37:30Z</time></trkpt><trkpt lat="42.972702003792406" lon="11.668775992144802"><ele>403.0</ele><time>2026-04-19T11:37:31Z</time></trkpt><trkpt lat="42.97268185445377" lon="11.668629754594253"><ele>403.0</ele><time>2026-04-19T11:37:32Z</time></trkpt><trkpt lat="42.97264702080759" lon="11.668490377082701"><ele>403.0</ele><time>2026-04-19T11:37:33Z</time></trkpt><trkpt lat="42.97257832844641" lon="11.668334381843593"><ele>406.0</ele><time>2026-04-19T11:37:34Z</time></trkpt><trkpt lat="42.97251998194646" lon="11.668195062960443"><ele>409.0</ele><time>2026-04-19T11:37:35Z</time></trkpt><trkpt lat="42.97248297677587" lon="11.668075764060477"><ele>412.0</ele><time>2026-04-19T11:37:36Z</time></trkpt><trkpt lat="42.97246022330553" lon="11.667957446376466"><ele>415.0</ele><time>2026-04-19T11:37:37Z</time></trkpt><trkpt lat="42.97248843969912" lon="11.667828810777385"><ele>418.0</ele><time>2026-04-19T11:37:38Z</time></trkpt><trkpt lat="42.972515157713104" lon="11.667697369100004"><ele>415.0</ele><time>2026-04-19T11:37:39Z</time></trkpt><trkpt lat="42.9725498005179" lon="11.667549612203283"><ele>412.0</ele><time>2026-04-19T11:37:40Z</time></trkpt><trkpt lat="42.97257951228814" lon="11.667423161018974"><ele>409.0</ele><time>2026-04-19T11:37:41Z</time></trkpt><trkpt lat="42.972594642696876" lon="11.667319869622206"><ele>406.0</ele><time>2026-04-19T11:37:42Z</time></trkpt><trkpt lat="42.972594112019124" lon="11.667196423326205"><ele>403.0</ele><time>2026-04-19T11:37:43Z</time></trkpt><trkpt lat="42.9725728728426" lon="11.667045456230209"><ele>404.0</ele><time>2026-04-19T11:37:44Z</time></trkpt><trkpt lat="42.97254297608028" lon="11.666885329748979"><ele>405.0</ele><time>2026-04-19T11:37:45Z</time></trkpt><trkpt lat="42.97250409154854" lon="11.66669503981574"><ele>406.0</ele><time>2026-04-19T11:37:46Z</time></trkpt><trkpt lat="42.972460191984766" lon="11.666496178274851"><ele>407.0</ele><time>2026-04-19T11:37:47Z</time></trkpt><trkpt lat="42.97241548441201" lon="11.666295250488247"><ele>414.66666666666663</ele><time>2026-04-19T11:37:48Z</time></trkpt><trkpt lat="42.97236806644861" lon="11.666076721557566"><ele>422.33333333333337</ele><time>2026-04-19T11:37:49.001Z</time></trkpt><trkpt lat="42.972318554956956" lon="11.665829188707741"><ele>430.0</ele><time>2026-04-19T11:37:50.001Z</time></trkpt><trkpt lat="42.972273474879216" lon="11.665602592065419"><ele>430.0</ele><time>2026-04-19T11:37:51.001Z</time></trkpt><trkpt lat="42.97223745384332" lon="11.665419400935098"><ele>430.0</ele><time>2026-04-19T11:37:52.001Z</time></trkpt><trkpt lat="42.97220523402687" lon="11.665287574041928"><ele>430.0</ele><time>2026-04-19T11:37:53.001Z</time></trkpt><trkpt lat="42.97217650099516" lon="11.66518800397525"><ele>430.0</ele><time>2026-04-19T11:37:54.001Z</time></trkpt><trkpt lat="42.97213558798558" lon="11.66508897111749"><ele>430.0</ele><time>2026-04-19T11:37:55.001Z</time></trkpt><trkpt lat="42.97208148464861" lon="11.665001885241825"><ele>429.75</ele><time>2026-04-19T11:37:56.001Z</time></trkpt><trkpt lat="42.971976119956935" lon="11.66494125274783"><ele>429.5</ele><time>2026-04-19T11:37:57.001Z</time></trkpt><trkpt lat="42.97186972951174" lon="11.66492245111464"><ele>429.25</ele><time>2026-04-19T11:37:58.001Z</time></trkpt><trkpt lat="42.97176968627555" lon="11.664852860140815"><ele>429.0</ele><time>2026-04-19T11:37:59.001Z</time></trkpt><trkpt lat="42.97165074254663" lon="11.664794926331117"><ele>431.0</ele><time>2026-04-19T11:38:00.001Z</time></trkpt><trkpt lat="42.97154045376336" lon="11.664741208105966"><ele>433.0</ele><time>2026-04-19T11:38:01.001Z</time></trkpt><trkpt lat="42.97144975846011" lon="11.664698973114891"><ele>435.0</ele><time>2026-04-19T11:38:02.001Z</time></trkpt><trkpt lat="42.971351798691714" lon="11.664666657714493"><ele>437.0</ele><time>2026-04-19T11:38:03.001Z</time></trkpt><trkpt lat="42.971239646828195" lon="11.664644313557542"><ele>439.0</ele><time>2026-04-19T11:38:04.001Z</time></trkpt><trkpt lat="42.97110954840163" lon="11.664636963892283"><ele>439.0</ele><time>2026-04-19T11:38:05.001Z</time></trkpt><trkpt lat="42.970978832648434" lon="11.6646263861915"><ele>439.0</ele><time>2026-04-19T11:38:06.001Z</time></trkpt><trkpt lat="42.970863145909014" lon="11.664619081701264"><ele>439.0</ele><time>2026-04-19T11:38:07.001Z</time></trkpt><trkpt lat="42.97076804735397" lon="11.664554797310965"><ele>439.0</ele><time>2026-04-19T11:38:08.001Z</time></trkpt><trkpt lat="42.970676329117644" lon="11.664519936586249"><ele>439.0</ele><time>2026-04-19T11:38:09.001Z</time></trkpt><trkpt lat="42.970609344854246" lon="11.664433845514706"><ele>439.2</ele><time>2026-04-19T11:38:10.001Z</time></trkpt><trkpt lat="42.970559904227194" lon="11.664358842267577"><ele>439.4</ele><time>2026-04-19T11:38:11.001Z</time></trkpt><trkpt lat="42.970513291808736" lon="11.664281695389617"><ele>439.6</ele><time>2026-04-19T11:38:12.001Z</time></trkpt><trkpt lat="42.970486611777424" lon="11.664161519054533"><ele>439.8</ele><time>2026-04-19T11:38:13.001Z</time></trkpt><trkpt lat="42.97044722573011" lon="11.66400258201331"><ele>440.0</ele><time>2026-04-19T11:38:14.001Z</time></trkpt><trkpt lat="42.97040152646805" lon="11.663813464854266"><ele>437.3333333333333</ele><time>2026-04-19T11:38:15.001Z</time></trkpt><trkpt lat="42.97034964624836" lon="11.663610097220221"><ele>434.66666666666663</ele><time>2026-04-19T11:38:16.001Z</time></trkpt><trkpt lat="42.97029158347859" lon="11.663376936013144"><ele>432.0</ele><time>2026-04-19T11:38:17.001Z</time></trkpt><trkpt lat="42.970240109811556" lon="11.663162939379392"><ele>432.0</ele><time>2026-04-19T11:38:18.001Z</time></trkpt><trkpt lat="42.97019593367394" lon="11.66297875634453"><ele>432.0</ele><time>2026-04-19T11:38:19.001Z</time></trkpt><trkpt lat="42.97015462417649" lon="11.662806525086612"><ele>432.0</ele><time>2026-04-19T11:38:20.001Z</time></trkpt><trkpt lat="42.97011553551915" lon="11.662646493381635"><ele>432.0</ele><time>2026-04-19T11:38:21.001Z</time></trkpt><trkpt lat="42.97007355550723" lon="11.66247083074872"><ele>431.25</ele><time>2026-04-19T11:38:22.001Z</time></trkpt><trkpt lat="42.97004864459453" lon="11.662276443235728"><ele>430.5</ele><time>2026-04-19T11:38:23.001Z</time></trkpt><trkpt lat="42.97003664702038" lon="11.662065726793934"><ele>429.75</ele><time>2026-04-19T11:38:24.001Z</time></trkpt><trkpt lat="42.970018127244785" lon="11.661861909343887"><ele>429.0</ele><time>2026-04-19T11:38:25.001Z</time></trkpt><trkpt lat="42.97000214434625" lon="11.661704015477024"><ele>430.2</ele><time>2026-04-19T11:38:26.001Z</time></trkpt><trkpt lat="42.97001311317405" lon="11.661557712002942"><ele>431.4</ele><time>2026-04-19T11:38:27.001Z</time></trkpt><trkpt lat="42.97001596586385" lon="11.66143577733816"><ele>432.6</ele><time>2026-04-19T11:38:28.001Z</time></trkpt><trkpt lat="42.970044085741286" lon="11.661312210037734"><ele>433.8</ele><time>2026-04-19T11:38:29.001Z</time></trkpt><trkpt lat="42.970087873852414" lon="11.661212325328739"><ele>435.0</ele><time>2026-04-19T11:38:30.001Z</time></trkpt><trkpt lat="42.970146937485644" lon="11.661135627753463"><ele>437.2</ele><time>2026-04-19T11:38:31.001Z</time></trkpt><trkpt lat="42.97022345050462" lon="11.661029293371142"><ele>439.4</ele><time>2026-04-19T11:38:32.001Z</time></trkpt><trkpt lat="42.97031369447065" lon="11.66090260503442"><ele>441.6</ele><time>2026-04-19T11:38:33.001Z</time></trkpt><trkpt lat="42.97038659259381" lon="11.660796677289074"><ele>443.8</ele><time>2026-04-19T11:38:34.001Z</time></trkpt><trkpt lat="42.97044546123644" lon="11.660704350913102"><ele>446.0</ele><time>2026-04-19T11:38:35.001Z</time></trkpt><trkpt lat="42.97047792845175" lon="11.660590289624958"><ele>446.0</ele><time>2026-04-19T11:38:36.001Z</time></trkpt><trkpt lat="42.97052574433779" lon="11.660497105576818"><ele>446.0</ele><time>2026-04-19T11:38:37.001Z</time></trkpt><trkpt lat="42.97054307942752" lon="11.66033840330239"><ele>446.0</ele><time>2026-04-19T11:38:38.001Z</time></trkpt><trkpt lat="42.97054451520054" lon="11.660168271179069"><ele>446.0</ele><time>2026-04-19T11:38:39.001Z</time></trkpt><trkpt lat="42.970540198721515" lon="11.659963955752918"><ele>447.0</ele><time>2026-04-19T11:38:40.001Z</time></trkpt><trkpt lat="42.97053529420753" lon="11.659759010588564"><ele>448.0</ele><time>2026-04-19T11:38:41.001Z</time></trkpt><trkpt lat="42.97052980641033" lon="11.659529691917106"><ele>449.0</ele><time>2026-04-19T11:38:42.001Z</time></trkpt><trkpt lat="42.97052346074331" lon="11.659264525257967"><ele>449.5</ele><time>2026-04-19T11:38:43.001Z</time></trkpt><trkpt lat="42.97051958222125" lon="11.658967584318036"><ele>450.0</ele><time>2026-04-19T11:38:44.001Z</time></trkpt><trkpt lat="42.9705161559485" lon="11.658636912504424"><ele>451.33333333333337</ele><time>2026-04-19T11:38:45.001Z</time></trkpt><trkpt lat="42.97051389622281" lon="11.658331501947771"><ele>452.6666666666667</ele><time>2026-04-19T11:38:46.001Z</time></trkpt><trkpt lat="42.970510732379864" lon="11.658083590464413"><ele>454.0</ele><time>2026-04-19T11:38:47.001Z</time></trkpt><trkpt lat="42.970507199861274" lon="11.657858302144607"><ele>455.0</ele><time>2026-04-19T11:38:48.001Z</time></trkpt><trkpt lat="42.9705039162603" lon="11.657648888919441"><ele>456.0</ele><time>2026-04-19T11:38:49.001Z</time></trkpt><trkpt lat="42.970502037857834" lon="11.657463843027946"><ele>457.0</ele><time>2026-04-19T11:38:50.001Z</time></trkpt><trkpt lat="42.97050145164447" lon="11.65729300032949"><ele>458.0</ele><time>2026-04-19T11:38:51.001Z</time></trkpt><trkpt lat="42.97050294383383" lon="11.657120553647124"><ele>458.0</ele><time>2026-04-19T11:38:52.001Z</time></trkpt><trkpt lat="42.970514920639694" lon="11.656970976583342"><ele>457.99999999999994</ele><time>2026-04-19T11:38:53.001Z</time></trkpt><trkpt lat="42.97054116358874" lon="11.656840629231425"><ele>457.99999999999994</ele><time>2026-04-19T11:38:54.001Z</time></trkpt><trkpt lat="42.97058599120587" lon="11.656730598064051"><ele>458.0</ele><time>2026-04-19T11:38:55.001Z</time></trkpt><trkpt lat="42.97065348704163" lon="11.656634423585759"><ele>458.0</ele><time>2026-04-19T11:38:56.001Z</time></trkpt><trkpt lat="42.970732748397346" lon="11.656536105693787"><ele>458.2</ele><time>2026-04-19T11:38:57.001Z</time></trkpt><trkpt lat="42.97078123209237" lon="11.656440142896002"><ele>458.4</ele><time>2026-04-19T11:38:58.001Z</time></trkpt><trkpt lat="42.97085034547443" lon="11.656346717385848"><ele>458.59999999999997</ele><time>2026-04-19T11:38:59.001Z</time></trkpt><trkpt lat="42.97089513926342" lon="11.656195712509536"><ele>458.79999999999995</ele><time>2026-04-19T11:39:00.001Z</time></trkpt><trkpt lat="42.97092359927354" lon="11.656007850906736"><ele>459.0</ele><time>2026-04-19T11:39:01.001Z</time></trkpt><trkpt lat="42.970948285042546" lon="11.65581375985816"><ele>459.0</ele><time>2026-04-19T11:39:02.001Z</time></trkpt><trkpt lat="42.97097218606165" lon="11.655621366753024"><ele>459.0</ele><time>2026-04-19T11:39:03.001Z</time></trkpt><trkpt lat="42.97099132616386" lon="11.65547315741067"><ele>459.0</ele><time>2026-04-19T11:39:04.001Z</time></trkpt><trkpt lat="42.971004660150804" lon="11.65534552236273"><ele>459.0</ele><time>2026-04-19T11:39:05Z</time></trkpt><trkpt lat="42.971015417684725" lon="11.655237715261713"><ele>459.0</ele><time>2026-04-19T11:39:06Z</time></trkpt><trkpt lat="42.9710146325481" lon="11.655125786063595"><ele>459.6</ele><time>2026-04-19T11:39:07Z</time></trkpt><trkpt lat="42.97099685993043" lon="11.655021316897143"><ele>460.2</ele><time>2026-04-19T11:39:08Z</time></trkpt><trkpt lat="42.970915938197194" lon="11.6549270496111"><ele>460.80000000000007</ele><time>2026-04-19T11:39:09Z</time></trkpt><trkpt lat="42.97081427648019" lon="11.654877271019775"><ele>461.40000000000003</ele><time>2026-04-19T11:39:10Z</time></trkpt><trkpt lat="42.97073222932862" lon="11.654771912811706"><ele>462.0</ele><time>2026-04-19T11:39:11Z</time></trkpt><trkpt lat="42.970639536040096" lon="11.654677921335324"><ele>462.0</ele><time>2026-04-19T11:39:12Z</time></trkpt><trkpt lat="42.97054033554897" lon="11.654583268942412"><ele>462.0</ele><time>2026-04-19T11:39:13Z</time></trkpt><trkpt lat="42.970444746870854" lon="11.654487106478499"><ele>462.0</ele><time>2026-04-19T11:39:14Z</time></trkpt><trkpt lat="42.970363041977485" lon="11.654363789926034"><ele>462.0</ele><time>2026-04-19T11:39:15Z</time></trkpt><trkpt lat="42.97029932290164" lon="11.654227622597558"><ele>462.0</ele><time>2026-04-19T11:39:16Z</time></trkpt><trkpt lat="42.97024995079386" lon="11.654076578836335"><ele>462.0</ele><time>2026-04-19T11:39:17Z</time></trkpt><trkpt lat="42.97019731343393" lon="11.653918764681492"><ele>462.0</ele><time>2026-04-19T11:39:18Z</time></trkpt><trkpt lat="42.97014485942001" lon="11.653770568955052"><ele>462.0</ele><time>2026-04-19T11:39:19Z</time></trkpt><trkpt lat="42.97007480660388" lon="11.653604684600976"><ele>464.66666666666663</ele><time>2026-04-19T11:39:20Z</time></trkpt><trkpt lat="42.96998461934609" lon="11.65342861975431"><ele>467.3333333333333</ele><time>2026-04-19T11:39:21Z</time></trkpt><trkpt lat="42.969882134535894" lon="11.653244563465222"><ele>470.0</ele><time>2026-04-19T11:39:22Z</time></trkpt><trkpt lat="42.96975751326099" lon="11.653071628923461"><ele>470.0</ele><time>2026-04-19T11:39:23Z</time></trkpt><trkpt lat="42.96966128268232" lon="11.652876548357261"><ele>470.0</ele><time>2026-04-19T11:39:24Z</time></trkpt><trkpt lat="42.96957543645261" lon="11.652711148258417"><ele>470.0</ele><time>2026-04-19T11:39:25Z</time></trkpt><trkpt lat="42.969519360275235" lon="11.652566325243457"><ele>470.0</ele><time>2026-04-19T11:39:26Z</time></trkpt><trkpt lat="42.96947173448882" lon="11.65241751525929"><ele>467.8</ele><time>2026-04-19T11:39:27Z</time></trkpt><trkpt lat="42.96944003872048" lon="11.652267412635581"><ele>465.6</ele><time>2026-04-19T11:39:28Z</time></trkpt><trkpt lat="42.969412875729915" lon="11.652123520274806"><ele>463.4</ele><time>2026-04-19T11:39:29Z</time></trkpt><trkpt lat="42.969384616700744" lon="11.651988485873074"><ele>461.2</ele><time>2026-04-19T11:39:30Z</time></trkpt><trkpt lat="42.96934433449546" lon="11.651860323103465"><ele>459.0</ele><time>2026-04-19T11:39:31Z</time></trkpt><trkpt lat="42.96927647139845" lon="11.651734404695256"><ele>457.25</ele><time>2026-04-19T11:39:32Z</time></trkpt><trkpt lat="42.969195899439775" lon="11.651600171442993"><ele>455.5</ele><time>2026-04-19T11:39:33Z</time></trkpt><trkpt lat="42.96910851614863" lon="11.65145916642693"><ele>453.75</ele><time>2026-04-19T11:39:34Z</time></trkpt><trkpt lat="42.96903963961828" lon="11.651315701111688"><ele>452.0</ele><time>2026-04-19T11:39:35Z</time></trkpt><trkpt lat="42.968978220087756" lon="11.651183871788083"><ele>453.49999999999994</ele><time>2026-04-19T11:39:36Z</time></trkpt><trkpt lat="42.968925091450174" lon="11.651069115047664"><ele>455.0</ele><time>2026-04-19T11:39:37Z</time></trkpt><trkpt lat="42.96888198505009" lon="11.650965436731637"><ele>456.5</ele><time>2026-04-19T11:39:38Z</time></trkpt><trkpt lat="42.96884640685706" lon="11.650870238302318"><ele>458.0</ele><time>2026-04-19T11:39:39Z</time></trkpt><trkpt lat="42.96880417169002" lon="11.650776669976711"><ele>459.49999999999994</ele><time>2026-04-19T11:39:40Z</time></trkpt><trkpt lat="42.96881855167445" lon="11.650650510004846"><ele>461.0</ele><time>2026-04-19T11:39:41Z</time></trkpt><trkpt lat="42.96884723071664" lon="11.650533436627903"><ele>461.0</ele><time>2026-04-19T11:39:42Z</time></trkpt><trkpt lat="42.96890928275842" lon="11.6504105931432"><ele>461.0</ele><time>2026-04-19T11:39:43Z</time></trkpt><trkpt lat="42.96900187598343" lon="11.65024965457101"><ele>461.0</ele><time>2026-04-19T11:39:44Z</time></trkpt><trkpt lat="42.969100701058615" lon="11.650082866848283"><ele>461.0</ele><time>2026-04-19T11:39:45Z</time></trkpt><trkpt lat="42.969194556983844" lon="11.649924465660815"><ele>456.5</ele><time>2026-04-19T11:39:46.001Z</time></trkpt><trkpt lat="42.96927910454936" lon="11.649775255804185"><ele>452.0</ele><time>2026-04-19T11:39:47.001Z</time></trkpt><trkpt lat="42.96935583930993" lon="11.64963815995657"><ele>447.5</ele><time>2026-04-19T11:39:48.001Z</time></trkpt><trkpt lat="42.96942720040408" lon="11.64950934114762"><ele>443.0</ele><time>2026-04-19T11:39:49.001Z</time></trkpt><trkpt lat="42.96949349868571" lon="11.64938877663557"><ele>442.99999999999994</ele><time>2026-04-19T11:39:50.001Z</time></trkpt><trkpt lat="42.96954938859871" lon="11.64928238571729"><ele>443.0</ele><time>2026-04-19T11:39:51.001Z</time></trkpt><trkpt lat="42.969591099290305" lon="11.649197882808226"><ele>443.0</ele><time>2026-04-19T11:39:52.001Z</time></trkpt><trkpt lat="42.969627233880914" lon="11.64909723082889"><ele>443.0</ele><time>2026-04-19T11:39:53.001Z</time></trkpt><trkpt lat="42.969640898000755" lon="11.64897152784208"><ele>442.99999999999994</ele><time>2026-04-19T11:39:54.001Z</time></trkpt><trkpt lat="42.969632987658144" lon="11.648835944371308"><ele>443.0</ele><time>2026-04-19T11:39:55.001Z</time></trkpt><trkpt lat="42.96956087761574" lon="11.648676757511476"><ele>440.3333333333333</ele><time>2026-04-19T11:39:56.001Z</time></trkpt><trkpt lat="42.96949404068538" lon="11.648506221053248"><ele>437.66666666666663</ele><time>2026-04-19T11:39:57.001Z</time></trkpt><trkpt lat="42.96941529938247" lon="11.648315140090101"><ele>435.0</ele><time>2026-04-19T11:39:58.001Z</time></trkpt><trkpt lat="42.969334182017654" lon="11.648125576765569"><ele>435.0</ele><time>2026-04-19T11:39:59.001Z</time></trkpt><trkpt lat="42.96925084497491" lon="11.647930826392184"><ele>435.0</ele><time>2026-04-19T11:40:00.001Z</time></trkpt><trkpt lat="42.96916747336795" lon="11.64773397744528"><ele>435.0</ele><time>2026-04-19T11:40:01.001Z</time></trkpt><trkpt lat="42.96908628252851" lon="11.64753412683824"><ele>434.75</ele><time>2026-04-19T11:40:02.001Z</time></trkpt><trkpt lat="42.96900309326695" lon="11.647348520217243"><ele>434.5</ele><time>2026-04-19T11:40:03.001Z</time></trkpt><trkpt lat="42.96892523696539" lon="11.647182768513535"><ele>434.25</ele><time>2026-04-19T11:40:04.001Z</time></trkpt><trkpt lat="42.968863088513686" lon="11.647040573267047"><ele>434.0</ele><time>2026-04-19T11:40:05.001Z</time></trkpt><trkpt lat="42.96880878950578" lon="11.64691112371683"><ele>432.4</ele><time>2026-04-19T11:40:06.001Z</time></trkpt><trkpt lat="42.968759664285386" lon="11.646797909450337"><ele>430.79999999999995</ele><time>2026-04-19T11:40:07.001Z</time></trkpt><trkpt lat="42.96871814107879" lon="11.646685900873148"><ele>429.20000000000005</ele><time>2026-04-19T11:40:08.001Z</time></trkpt><trkpt lat="42.96869063571206" lon="11.646544220493631"><ele>427.6</ele><time>2026-04-19T11:40:09.001Z</time></trkpt><trkpt lat="42.96868312031506" lon="11.646390011165224"><ele>426.0</ele><time>2026-04-19T11:40:10.001Z</time></trkpt><trkpt lat="42.968696410737536" lon="11.646215941818808"><ele>426.0</ele><time>2026-04-19T11:40:11.001Z</time></trkpt><trkpt lat="42.96873575246668" lon="11.646043221079005"><ele>426.0</ele><time>2026-04-19T11:40:12.001Z</time></trkpt><trkpt lat="42.96879314752867" lon="11.645866593531922"><ele>426.0</ele><time>2026-04-19T11:40:13.001Z</time></trkpt><trkpt lat="42.96885038572585" lon="11.645707600750853"><ele>426.0</ele><time>2026-04-19T11:40:14.001Z</time></trkpt><trkpt lat="42.96890708117901" lon="11.645561198946352"><ele>426.0</ele><time>2026-04-19T11:40:15.001Z</time></trkpt><trkpt lat="42.96896974828745" lon="11.645430157580211"><ele>426.0</ele><time>2026-04-19T11:40:16.001Z</time></trkpt><trkpt lat="42.969045505395144" lon="11.645339264090417"><ele>426.0</ele><time>2026-04-19T11:40:17.001Z</time></trkpt><trkpt lat="42.9691135831823" lon="11.645287167488116"><ele>426.0</ele><time>2026-04-19T11:40:18.001Z</time></trkpt><trkpt lat="42.96918155145843" lon="11.645242037768151"><ele>426.0</ele><time>2026-04-19T11:40:19.001Z</time></trkpt><trkpt lat="42.9692722636172" lon="11.64520412370194"><ele>427.0</ele><time>2026-04-19T11:40:20.001Z</time></trkpt><trkpt lat="42.9694002339346" lon="11.645168907062937"><ele>428.0</ele><time>2026-04-19T11:40:21.001Z</time></trkpt><trkpt lat="42.969532791883935" lon="11.645117147713918"><ele>429.0</ele><time>2026-04-19T11:40:22.001Z</time></trkpt><trkpt lat="42.96965429184353" lon="11.645068373203236"><ele>430.0</ele><time>2026-04-19T11:40:23.001Z</time></trkpt><trkpt lat="42.96975969266086" lon="11.645022422629756"><ele>430.0</ele><time>2026-04-19T11:40:24.001Z</time></trkpt><trkpt lat="42.96985186839035" lon="11.644976848791643"><ele>430.0</ele><time>2026-04-19T11:40:25.001Z</time></trkpt><trkpt lat="42.96993339547745" lon="11.64492099551832"><ele>430.0</ele><time>2026-04-19T11:40:26.001Z</time></trkpt><trkpt lat="42.97000824621021" lon="11.644838972369993"><ele>430.0</ele><time>2026-04-19T11:40:27.001Z</time></trkpt><trkpt lat="42.97007915321065" lon="11.644726933140682"><ele>430.0</ele><time>2026-04-19T11:40:28.001Z</time></trkpt><trkpt lat="42.97012885528546" lon="11.644597664896462"><ele>432.5</ele><time>2026-04-19T11:40:29.001Z</time></trkpt><trkpt lat="42.97016020126461" lon="11.644461417612554"><ele>435.0</ele><time>2026-04-19T11:40:30.001Z</time></trkpt><trkpt lat="42.97018189254768" lon="11.6442929140472"><ele>437.5</ele><time>2026-04-19T11:40:31.001Z</time></trkpt><trkpt lat="42.97018751952951" lon="11.644106604080479"><ele>440.0</ele><time>2026-04-19T11:40:32.001Z</time></trkpt><trkpt lat="42.9701837517442" lon="11.643941450238692"><ele>440.0</ele><time>2026-04-19T11:40:33.001Z</time></trkpt><trkpt lat="42.97017816959748" lon="11.643792769174189"><ele>440.0</ele><time>2026-04-19T11:40:34.001Z</time></trkpt><trkpt lat="42.97016653028116" lon="11.643639433058093"><ele>440.0</ele><time>2026-04-19T11:40:35.001Z</time></trkpt><trkpt lat="42.97014304903722" lon="11.643457343227015"><ele>440.0</ele><time>2026-04-19T11:40:36.001Z</time></trkpt><trkpt lat="42.97010023887609" lon="11.6432705151942"><ele>439.75</ele><time>2026-04-19T11:40:37.001Z</time></trkpt><trkpt lat="42.97004919115896" lon="11.643103636306028"><ele>439.5</ele><time>2026-04-19T11:40:38.001Z</time></trkpt><trkpt lat="42.96999107610356" lon="11.642934643440286"><ele>439.25</ele><time>2026-04-19T11:40:39.001Z</time></trkpt><trkpt lat="42.96993193197962" lon="11.642767492447044"><ele>439.0</ele><time>2026-04-19T11:40:40.001Z</time></trkpt><trkpt lat="42.969878878331755" lon="11.642609959971578"><ele>436.6666666666667</ele><time>2026-04-19T11:40:41.001Z</time></trkpt><trkpt lat="42.96983399887272" lon="11.642474097421958"><ele>434.33333333333337</ele><time>2026-04-19T11:40:42.001Z</time></trkpt><trkpt lat="42.969799403561204" lon="11.642363260168723"><ele>432.0</ele><time>2026-04-19T11:40:43.001Z</time></trkpt><trkpt lat="42.96977056119314" lon="11.642264733680229"><ele>429.66666666666663</ele><time>2026-04-19T11:40:44.001Z</time></trkpt><trkpt lat="42.969749027456395" lon="11.642156481051712"><ele>427.3333333333333</ele><time>2026-04-19T11:40:45.001Z</time></trkpt><trkpt lat="42.96974897264713" lon="11.642053621119942"><ele>425.0</ele><time>2026-04-19T11:40:46.001Z</time></trkpt><trkpt lat="42.96976044608182" lon="11.641957609065303"><ele>423.8333333333333</ele><time>2026-04-19T11:40:47.001Z</time></trkpt><trkpt lat="42.96976719099671" lon="11.64185122824341"><ele>422.66666666666663</ele><time>2026-04-19T11:40:48.001Z</time></trkpt><trkpt lat="42.969826690097726" lon="11.641768068975004"><ele>421.5</ele><time>2026-04-19T11:40:49.001Z</time></trkpt><trkpt lat="42.969890991821444" lon="11.641696109410931"><ele>420.33333333333337</ele><time>2026-04-19T11:40:50.001Z</time></trkpt><trkpt lat="42.96996429433931" lon="11.641643991554238"><ele>419.1666666666667</ele><time>2026-04-19T11:40:51.001Z</time></trkpt><trkpt lat="42.970077288137496" lon="11.64161184072064"><ele>418.0</ele><time>2026-04-19T11:40:52.001Z</time></trkpt><trkpt lat="42.97019274272932" lon="11.64161088541291"><ele>417.0</ele><time>2026-04-19T11:40:53.001Z</time></trkpt><trkpt lat="42.97033194387828" lon="11.64160389186946"><ele>416.0</ele><time>2026-04-19T11:40:54.001Z</time></trkpt><trkpt lat="42.9704748699483" lon="11.64159929841523"><ele>415.0</ele><time>2026-04-19T11:40:55.001Z</time></trkpt><trkpt lat="42.97062857876247" lon="11.641595217215809"><ele>414.0</ele><time>2026-04-19T11:40:56.001Z</time></trkpt><trkpt lat="42.97078124723056" lon="11.641558922351399"><ele>413.6</ele><time>2026-04-19T11:40:57.001Z</time></trkpt><trkpt lat="42.97090920904872" lon="11.641522757165422"><ele>413.2</ele><time>2026-04-19T11:40:58.001Z</time></trkpt><trkpt lat="42.97100786006832" lon="11.641487765131462"><ele>412.8</ele><time>2026-04-19T11:40:59.001Z</time></trkpt><trkpt lat="42.97111256315617" lon="11.64145422446575"><ele>412.40000000000003</ele><time>2026-04-19T11:41:00.001Z</time></trkpt><trkpt lat="42.971205784209744" lon="11.641378456919336"><ele>412.0</ele><time>2026-04-19T11:41:01.001Z</time></trkpt><trkpt lat="42.97127331816865" lon="11.641275332942891"><ele>412.0</ele><time>2026-04-19T11:41:02.001Z</time></trkpt><trkpt lat="42.97133011505698" lon="11.641157435548266"><ele>412.0</ele><time>2026-04-19T11:41:03.001Z</time></trkpt><trkpt lat="42.97138079432425" lon="11.641010009733737"><ele>412.0</ele><time>2026-04-19T11:41:04.001Z</time></trkpt><trkpt lat="42.971422328516184" lon="11.640876625448437"><ele>412.0</ele><time>2026-04-19T11:41:05.001Z</time></trkpt><trkpt lat="42.9714585635088" lon="11.64076695841044"><ele>412.0</ele><time>2026-04-19T11:41:06.001Z</time></trkpt><trkpt lat="42.97151223451219" lon="11.640672821090709"><ele>411.5</ele><time>2026-04-19T11:41:07.001Z</time></trkpt><trkpt lat="42.971582261679444" lon="11.64057317535849"><ele>411.0</ele><time>2026-04-19T11:41:08.001Z</time></trkpt><trkpt lat="42.97170237089053" lon="11.640532518557485"><ele>410.5</ele><time>2026-04-19T11:41:09.001Z</time></trkpt><trkpt lat="42.9718292893492" lon="11.640462458415485"><ele>410.0</ele><time>2026-04-19T11:41:10.001Z</time></trkpt><trkpt lat="42.97194726096677" lon="11.64040098870808"><ele>410.0</ele><time>2026-04-19T11:41:11Z</time></trkpt><trkpt lat="42.97206263583696" lon="11.64034691040564"><ele>410.0</ele><time>2026-04-19T11:41:12Z</time></trkpt><trkpt lat="42.97216201507242" lon="11.640308797574795"><ele>410.0</ele><time>2026-04-19T11:41:13Z</time></trkpt><trkpt lat="42.97225550965439" lon="11.640293422827694"><ele>410.0</ele><time>2026-04-19T11:41:14Z</time></trkpt><trkpt lat="42.97234493900247" lon="11.640315545156842"><ele>410.0</ele><time>2026-04-19T11:41:15Z</time></trkpt><trkpt lat="42.9724520289639" lon="11.640341057804491"><ele>410.0</ele><time>2026-04-19T11:41:16Z</time></trkpt><trkpt lat="42.97258449994978" lon="11.640376388324714"><ele>410.0</ele><time>2026-04-19T11:41:17Z</time></trkpt><trkpt lat="42.97274418280974" lon="11.640420223219662"><ele>410.0</ele><time>2026-04-19T11:41:18Z</time></trkpt><trkpt lat="42.97289387309536" lon="11.640440061980316"><ele>410.0</ele><time>2026-04-19T11:41:19Z</time></trkpt><trkpt lat="42.973044179081064" lon="11.64048513044129"><ele>410.0</ele><time>2026-04-19T11:41:20Z</time></trkpt><trkpt lat="42.97318134168484" lon="11.640529044991588"><ele>410.0</ele><time>2026-04-19T11:41:21Z</time></trkpt><trkpt lat="42.97332056695804" lon="11.640565951208927"><ele>410.0</ele><time>2026-04-19T11:41:22Z</time></trkpt><trkpt lat="42.97347631465419" lon="11.640579845812578"><ele>410.0</ele><time>2026-04-19T11:41:23Z</time></trkpt><trkpt lat="42.97365183011671" lon="11.640584381553152"><ele>409.3333333333333</ele><time>2026-04-19T11:41:24Z</time></trkpt><trkpt lat="42.97384585549926" lon="11.640587526454818"><ele>408.66666666666663</ele><time>2026-04-19T11:41:25Z</time></trkpt><trkpt lat="42.97405217506071" lon="11.640595169633688"><ele>408.0</ele><time>2026-04-19T11:41:26Z</time></trkpt><trkpt lat="42.97423493906448" lon="11.640593891539421"><ele>407.0</ele><time>2026-04-19T11:41:27Z</time></trkpt><trkpt lat="42.974394819326754" lon="11.640591506918438"><ele>406.0</ele><time>2026-04-19T11:41:28Z</time></trkpt><trkpt lat="42.974541898820675" lon="11.640593341761132"><ele>405.0</ele><time>2026-04-19T11:41:29Z</time></trkpt><trkpt lat="42.97468382364013" lon="11.640627115678088"><ele>405.0</ele><time>2026-04-19T11:41:30Z</time></trkpt><trkpt lat="42.974818133161676" lon="11.640652689797356"><ele>405.0</ele><time>2026-04-19T11:41:31Z</time></trkpt><trkpt lat="42.97496515251765" lon="11.64070028520887"><ele>405.0</ele><time>2026-04-19T11:41:32Z</time></trkpt><trkpt lat="42.97511329275374" lon="11.640778597469644"><ele>405.0</ele><time>2026-04-19T11:41:33Z</time></trkpt><trkpt lat="42.9752644359899" lon="11.640875056204516"><ele>405.66666666666663</ele><time>2026-04-19T11:41:34Z</time></trkpt><trkpt lat="42.975430094627285" lon="11.64093650760026"><ele>406.3333333333333</ele><time>2026-04-19T11:41:35Z</time></trkpt><trkpt lat="42.97558452118141" lon="11.640983481427172"><ele>407.0</ele><time>2026-04-19T11:41:36.001Z</time></trkpt><trkpt lat="42.97572652488529" lon="11.641013545958714"><ele>408.0</ele><time>2026-04-19T11:41:37.001Z</time></trkpt><trkpt lat="42.97585390257525" lon="11.641052258376124"><ele>409.0</ele><time>2026-04-19T11:41:38.001Z</time></trkpt><trkpt lat="42.975972205635244" lon="11.641095004161508"><ele>410.0</ele><time>2026-04-19T11:41:39.001Z</time></trkpt><trkpt lat="42.97609140152912" lon="11.641166549060708"><ele>411.0</ele><time>2026-04-19T11:41:40.001Z</time></trkpt><trkpt lat="42.976197084587916" lon="11.641314970295042"><ele>406.0</ele><time>2026-04-19T11:41:41.001Z</time></trkpt><trkpt lat="42.976322308699395" lon="11.641468332788595"><ele>401.0</ele><time>2026-04-19T11:41:42.001Z</time></trkpt><trkpt lat="42.97645284928352" lon="11.64161160651726"><ele>396.0</ele><time>2026-04-19T11:41:43.001Z</time></trkpt><trkpt lat="42.976576406999904" lon="11.641748798445317"><ele>394.33333333333337</ele><time>2026-04-19T11:41:44.001Z</time></trkpt><trkpt lat="42.97672955004638" lon="11.641874246170817"><ele>392.6666666666667</ele><time>2026-04-19T11:41:45.001Z</time></trkpt><trkpt lat="42.976910438405525" lon="11.641998961306246"><ele>391.0</ele><time>2026-04-19T11:41:46.001Z</time></trkpt><trkpt lat="42.97712292677485" lon="11.642120832315028"><ele>391.0</ele><time>2026-04-19T11:41:47.001Z</time></trkpt><trkpt lat="42.97735913878533" lon="11.642265242771357"><ele>391.0</ele><time>2026-04-19T11:41:48.001Z</time></trkpt><trkpt lat="42.977610527705146" lon="11.642423064833947"><ele>395.0</ele><time>2026-04-19T11:41:49.001Z</time></trkpt><trkpt lat="42.977851644357" lon="11.642578942351442"><ele>399.0</ele><time>2026-04-19T11:41:50.001Z</time></trkpt><trkpt lat="42.978059872998166" lon="11.642713425312714"><ele>398.0</ele><time>2026-04-19T11:41:51.001Z</time></trkpt><trkpt lat="42.97823930572996" lon="11.64284120447178"><ele>397.0</ele><time>2026-04-19T11:41:52.001Z</time></trkpt><trkpt lat="42.978399276700486" lon="11.6429506911795"><ele>396.0</ele><time>2026-04-19T11:41:53.001Z</time></trkpt><trkpt lat="42.978549111339106" lon="11.643054504328592"><ele>396.0</ele><time>2026-04-19T11:41:54.001Z</time></trkpt><trkpt lat="42.978681044893065" lon="11.64315358046473"><ele>396.0</ele><time>2026-04-19T11:41:55.001Z</time></trkpt><trkpt lat="42.9787965120541" lon="11.643243715717558"><ele>396.0</ele><time>2026-04-19T11:41:56.001Z</time></trkpt><trkpt lat="42.978893916597144" lon="11.643323253974303"><ele>396.0</ele><time>2026-04-19T11:41:57.001Z</time></trkpt><trkpt lat="42.97897758956537" lon="11.643365777592393"><ele>396.0</ele><time>2026-04-19T11:41:58.001Z</time></trkpt><trkpt lat="42.97906010772747" lon="11.643403472433917"><ele>396.0</ele><time>2026-04-19T11:41:59.001Z</time></trkpt><trkpt lat="42.979158974010204" lon="11.643392857271548"><ele>396.0</ele><time>2026-04-19T11:42:00.001Z</time></trkpt><trkpt lat="42.97926867075069" lon="11.643331724593352"><ele>396.0</ele><time>2026-04-19T11:42:01.001Z</time></trkpt><trkpt lat="42.979375418854204" lon="11.643221216186062"><ele>396.0</ele><time>2026-04-19T11:42:02.001Z</time></trkpt><trkpt lat="42.97949748614278" lon="11.643091854502858"><ele>395.5</ele><time>2026-04-19T11:42:03.001Z</time></trkpt><trkpt lat="42.97962893869661" lon="11.64294117995485"><ele>395.0</ele><time>2026-04-19T11:42:04.001Z</time></trkpt><trkpt lat="42.97974908031713" lon="11.642802702084074"><ele>394.5</ele><time>2026-04-19T11:42:05.001Z</time></trkpt><trkpt lat="42.97983109719841" lon="11.642699859952003"><ele>394.0</ele><time>2026-04-19T11:42:06.001Z</time></trkpt><trkpt lat="42.97990053611311" lon="11.642592695187588"><ele>395.6666666666667</ele><time>2026-04-19T11:42:07.001Z</time></trkpt><trkpt lat="42.979972563846154" lon="11.642443886812492"><ele>397.33333333333337</ele><time>2026-04-19T11:42:08.001Z</time></trkpt><trkpt lat="42.980030991633086" lon="11.642248178086723"><ele>399.0</ele><time>2026-04-19T11:42:09.001Z</time></trkpt><trkpt lat="42.98008935645015" lon="11.642024927721843"><ele>401.0</ele><time>2026-04-19T11:42:10.001Z</time></trkpt><trkpt lat="42.98016369708071" lon="11.641744827728086"><ele>403.0</ele><time>2026-04-19T11:42:11.001Z</time></trkpt><trkpt lat="42.980235984421896" lon="11.641491461837127"><ele>405.0</ele><time>2026-04-19T11:42:12.001Z</time></trkpt><trkpt lat="42.98029479415568" lon="11.641286165254101"><ele>406.0</ele><time>2026-04-19T11:42:13.001Z</time></trkpt><trkpt lat="42.98034179072022" lon="11.641109194563775"><ele>407.0</ele><time>2026-04-19T11:42:14.001Z</time></trkpt><trkpt lat="42.98037492353266" lon="11.640931527404511"><ele>408.0</ele><time>2026-04-19T11:42:15.001Z</time></trkpt><trkpt lat="42.98038639540506" lon="11.640741122623515"><ele>409.0</ele><time>2026-04-19T11:42:16.001Z</time></trkpt><trkpt lat="42.98037421884097" lon="11.640515229714719"><ele>410.6666666666667</ele><time>2026-04-19T11:42:17.001Z</time></trkpt><trkpt lat="42.98035006401122" lon="11.640267622093214"><ele>412.33333333333337</ele><time>2026-04-19T11:42:18.001Z</time></trkpt><trkpt lat="42.98032133577898" lon="11.64000882445724"><ele>414.0</ele><time>2026-04-19T11:42:19.001Z</time></trkpt><trkpt lat="42.980293698937416" lon="11.639784930452919"><ele>414.0</ele><time>2026-04-19T11:42:20.001Z</time></trkpt><trkpt lat="42.980273474367294" lon="11.6396176947653"><ele>414.0</ele><time>2026-04-19T11:42:21.001Z</time></trkpt><trkpt lat="42.98026377684941" lon="11.639478393550753"><ele>414.0</ele><time>2026-04-19T11:42:22.001Z</time></trkpt><trkpt lat="42.98026741655669" lon="11.639389631459382"><ele>414.0</ele><time>2026-04-19T11:42:23.001Z</time></trkpt><trkpt lat="42.98028766221499" lon="11.639303780877812"><ele>414.0</ele><time>2026-04-19T11:42:24.001Z</time></trkpt><trkpt lat="42.98032512883601" lon="11.63920825692509"><ele>414.0</ele><time>2026-04-19T11:42:25.001Z</time></trkpt><trkpt lat="42.980374162846815" lon="11.63913199116502"><ele>415.6666666666667</ele><time>2026-04-19T11:42:26.001Z</time></trkpt><trkpt lat="42.980431795188736" lon="11.639072762571622"><ele>417.33333333333337</ele><time>2026-04-19T11:42:27.001Z</time></trkpt><trkpt lat="42.98050156650225" lon="11.63902572027315"><ele>419.0</ele><time>2026-04-19T11:42:28.001Z</time></trkpt><trkpt lat="42.98058611153766" lon="11.639011622934278"><ele>420.6666666666667</ele><time>2026-04-19T11:42:29.001Z</time></trkpt><trkpt lat="42.98067597888681" lon="11.639023760703568"><ele>422.33333333333337</ele><time>2026-04-19T11:42:30.001Z</time></trkpt><trkpt lat="42.98076155241896" lon="11.63906668455256"><ele>424.0</ele><time>2026-04-19T11:42:31.001Z</time></trkpt><trkpt lat="42.98085220993893" lon="11.639154637471359"><ele>423.5</ele><time>2026-04-19T11:42:32.001Z</time></trkpt><trkpt lat="42.98095413621258" lon="11.639256489897571"><ele>423.0</ele><time>2026-04-19T11:42:33.001Z</time></trkpt><trkpt lat="42.98105955494842" lon="11.639400930305694"><ele>422.5</ele><time>2026-04-19T11:42:34.001Z</time></trkpt><trkpt lat="42.98117683350921" lon="11.63954432463405"><ele>422.0</ele><time>2026-04-19T11:42:35.001Z</time></trkpt><trkpt lat="42.98129420950432" lon="11.639682412510506"><ele>422.0</ele><time>2026-04-19T11:42:36.001Z</time></trkpt><trkpt lat="42.98140814101282" lon="11.63981714215173"><ele>422.0</ele><time>2026-04-19T11:42:37.001Z</time></trkpt><trkpt lat="42.98150989886772" lon="11.63993852874534"><ele>422.0</ele><time>2026-04-19T11:42:38.001Z</time></trkpt><trkpt lat="42.981599375336614" lon="11.64004191876678"><ele>422.0</ele><time>2026-04-19T11:42:39.001Z</time></trkpt><trkpt lat="42.98175375541728" lon="11.6402177918666"><ele>422.16666666666663</ele><time>2026-04-19T11:42:41.001Z</time></trkpt><trkpt lat="42.98182539546225" lon="11.640282573621109"><ele>422.3333333333333</ele><time>2026-04-19T11:42:42.001Z</time></trkpt><trkpt lat="42.98189081219473" lon="11.64031786214255"><ele>422.5</ele><time>2026-04-19T11:42:43.001Z</time></trkpt><trkpt lat="42.9820188628285" lon="11.640323877658066"><ele>422.66666666666663</ele><time>2026-04-19T11:42:45.001Z</time></trkpt><trkpt lat="42.98208772739947" lon="11.640335978271233"><ele>422.8333333333333</ele><time>2026-04-19T11:42:46.001Z</time></trkpt><trkpt lat="42.982171802493475" lon="11.640285669591997"><ele>423.0</ele><time>2026-04-19T11:42:47.001Z</time></trkpt><trkpt lat="42.982255736934405" lon="11.640189128396667"><ele>423.0</ele><time>2026-04-19T11:42:48.001Z</time></trkpt><trkpt lat="42.98235046669578" lon="11.640078230795229"><ele>423.0</ele><time>2026-04-19T11:42:49.001Z</time></trkpt><trkpt lat="42.98245568881016" lon="11.639960804707234"><ele>423.0</ele><time>2026-04-19T11:42:50.001Z</time></trkpt><trkpt lat="42.98257104065053" lon="11.639833695360645"><ele>423.0</ele><time>2026-04-19T11:42:51.001Z</time></trkpt><trkpt lat="42.98267371268172" lon="11.639723027819706"><ele>422.5</ele><time>2026-04-19T11:42:52.001Z</time></trkpt><trkpt lat="42.98277748946173" lon="11.639614443247236"><ele>422.0</ele><time>2026-04-19T11:42:53.001Z</time></trkpt><trkpt lat="42.982872328626186" lon="11.63951685093776"><ele>421.5</ele><time>2026-04-19T11:42:54.001Z</time></trkpt><trkpt lat="42.98296866278429" lon="11.639432436150438"><ele>421.0</ele><time>2026-04-19T11:42:55.001Z</time></trkpt><trkpt lat="42.983074003864964" lon="11.639367772736215"><ele>421.0</ele><time>2026-04-19T11:42:56.001Z</time></trkpt><trkpt lat="42.98317740336222" lon="11.639308362379209"><ele>421.0</ele><time>2026-04-19T11:42:57.001Z</time></trkpt><trkpt lat="42.9832954777795" lon="11.639302023950512"><ele>421.0</ele><time>2026-04-19T11:42:58.001Z</time></trkpt><trkpt lat="42.98341216779513" lon="11.639318182157133"><ele>421.0</ele><time>2026-04-19T11:42:59.001Z</time></trkpt><trkpt lat="42.98350908710786" lon="11.639336921942606"><ele>421.0</ele><time>2026-04-19T11:43:00.001Z</time></trkpt><trkpt lat="42.98359378542822" lon="11.63934843330594"><ele>419.25</ele><time>2026-04-19T11:43:01.001Z</time></trkpt><trkpt lat="42.98369612002461" lon="11.639359893570473"><ele>417.5</ele><time>2026-04-19T11:43:02.001Z</time></trkpt><trkpt lat="42.98381807575681" lon="11.639308191246048"><ele>415.75</ele><time>2026-04-19T11:43:03.001Z</time></trkpt><trkpt lat="42.98394852985527" lon="11.639262617788786"><ele>414.0</ele><time>2026-04-19T11:43:04.001Z</time></trkpt><trkpt lat="42.984071656238484" lon="11.639242483478851"><ele>412.6</ele><time>2026-04-19T11:43:05.001Z</time></trkpt><trkpt lat="42.98418880080735" lon="11.639204469031096"><ele>411.2</ele><time>2026-04-19T11:43:06.001Z</time></trkpt><trkpt lat="42.98429927368838" lon="11.639168619557749"><ele>409.8</ele><time>2026-04-19T11:43:07.001Z</time></trkpt><trkpt lat="42.98440031914866" lon="11.639116759861512"><ele>408.40000000000003</ele><time>2026-04-19T11:43:08.001Z</time></trkpt><trkpt lat="42.984501943851875" lon="11.639098461565176"><ele>407.0</ele><time>2026-04-19T11:43:09.001Z</time></trkpt><trkpt lat="42.984621214539494" lon="11.639105308091676"><ele>407.0</ele><time>2026-04-19T11:43:10.001Z</time></trkpt><trkpt lat="42.98475210017972" lon="11.639174844199855"><ele>407.0</ele><time>2026-04-19T11:43:11.001Z</time></trkpt><trkpt lat="42.98490405980405" lon="11.639217905996707"><ele>407.0</ele><time>2026-04-19T11:43:12.001Z</time></trkpt><trkpt lat="42.985057416908006" lon="11.6392816669317"><ele>403.66666666666663</ele><time>2026-04-19T11:43:13.001Z</time></trkpt><trkpt lat="42.98521954346535" lon="11.639342590242041"><ele>400.33333333333337</ele><time>2026-04-19T11:43:14.001Z</time></trkpt><trkpt lat="42.985366224985746" lon="11.63940354614462"><ele>397.0</ele><time>2026-04-19T11:43:15.001Z</time></trkpt><trkpt lat="42.985498194750086" lon="11.639455912630199"><ele>395.8</ele><time>2026-04-19T11:43:16.001Z</time></trkpt><trkpt lat="42.985612598997264" lon="11.639500014738188"><ele>394.6</ele><time>2026-04-19T11:43:17.001Z</time></trkpt><trkpt lat="42.985714598886005" lon="11.639534925781682"><ele>393.40000000000003</ele><time>2026-04-19T11:43:18.001Z</time></trkpt><trkpt lat="42.98580760509171" lon="11.639571012048782"><ele>392.20000000000005</ele><time>2026-04-19T11:43:19.001Z</time></trkpt><trkpt lat="42.985893705432545" lon="11.639623982710848"><ele>391.0</ele><time>2026-04-19T11:43:20.001Z</time></trkpt><trkpt lat="42.985986010376216" lon="11.639714743975642"><ele>391.0</ele><time>2026-04-19T11:43:21.001Z</time></trkpt><trkpt lat="42.98607503948807" lon="11.639856546009037"><ele>391.0</ele><time>2026-04-19T11:43:22.001Z</time></trkpt><trkpt lat="42.98616434702393" lon="11.640015454006631"><ele>391.0</ele><time>2026-04-19T11:43:23.001Z</time></trkpt><trkpt lat="42.98624849528995" lon="11.64016905805209"><ele>391.0</ele><time>2026-04-19T11:43:24.001Z</time></trkpt><trkpt lat="42.98631867852641" lon="11.6403047030818"><ele>392.1666666666667</ele><time>2026-04-19T11:43:25.001Z</time></trkpt><trkpt lat="42.98638331627497" lon="11.640413051370329"><ele>393.33333333333337</ele><time>2026-04-19T11:43:26.001Z</time></trkpt><trkpt lat="42.98643673218055" lon="11.640496761331663"><ele>394.5</ele><time>2026-04-19T11:43:27.001Z</time></trkpt><trkpt lat="42.9864925959149" lon="11.640562521532697"><ele>395.66666666666663</ele><time>2026-04-19T11:43:28.001Z</time></trkpt><trkpt lat="42.986559270891355" lon="11.640607957367015"><ele>396.8333333333333</ele><time>2026-04-19T11:43:29.001Z</time></trkpt><trkpt lat="42.98664430696849" lon="11.640627055881268"><ele>398.0</ele><time>2026-04-19T11:43:30.001Z</time></trkpt><trkpt lat="42.98674373682397" lon="11.640606781911956"><ele>399.0</ele><time>2026-04-19T11:43:31.001Z</time></trkpt><trkpt lat="42.98686822170331" lon="11.64055589683575"><ele>400.0</ele><time>2026-04-19T11:43:32.001Z</time></trkpt><trkpt lat="42.986976595014205" lon="11.640533374909516"><ele>401.0</ele><time>2026-04-19T11:43:33.001Z</time></trkpt><trkpt lat="42.98706154764426" lon="11.640493717693321"><ele>402.0</ele><time>2026-04-19T11:43:34.001Z</time></trkpt><trkpt lat="42.987137052785016" lon="11.640438911628971"><ele>403.0</ele><time>2026-04-19T11:43:35.001Z</time></trkpt><trkpt lat="42.987197339893726" lon="11.64035673475744"><ele>400.75</ele><time>2026-04-19T11:43:36.001Z</time></trkpt><trkpt lat="42.987241070115935" lon="11.640200597843622"><ele>398.5</ele><time>2026-04-19T11:43:37.001Z</time></trkpt><trkpt lat="42.98725510536651" lon="11.64003955657921"><ele>396.25</ele><time>2026-04-19T11:43:38.001Z</time></trkpt><trkpt lat="42.98727350094016" lon="11.639851734620681"><ele>394.0</ele><time>2026-04-19T11:43:39.001Z</time></trkpt><trkpt lat="42.9872887114441" lon="11.639674785449165"><ele>394.0</ele><time>2026-04-19T11:43:40.001Z</time></trkpt><trkpt lat="42.98730106435405" lon="11.639523148124749"><ele>394.0</ele><time>2026-04-19T11:43:41.001Z</time></trkpt><trkpt lat="42.987317366384005" lon="11.639382047749418"><ele>394.0</ele><time>2026-04-19T11:43:42.001Z</time></trkpt><trkpt lat="42.98734440286129" lon="11.639240313855895"><ele>394.0</ele><time>2026-04-19T11:43:43.001Z</time></trkpt><trkpt lat="42.98739483641251" lon="11.639080892421664"><ele>395.0</ele><time>2026-04-19T11:43:44.001Z</time></trkpt><trkpt lat="42.98748451348214" lon="11.638917945178704"><ele>396.0</ele><time>2026-04-19T11:43:45.001Z</time></trkpt><trkpt lat="42.98758679274838" lon="11.638724416095577"><ele>397.0</ele><time>2026-04-19T11:43:46.001Z</time></trkpt><trkpt lat="42.987677696698746" lon="11.638517258963006"><ele>394.25</ele><time>2026-04-19T11:43:47.001Z</time></trkpt><trkpt lat="42.98777947260479" lon="11.638360671385021"><ele>391.5</ele><time>2026-04-19T11:43:48.001Z</time></trkpt><trkpt lat="42.98785928179464" lon="11.638208782240719"><ele>388.75</ele><time>2026-04-19T11:43:49.001Z</time></trkpt><trkpt lat="42.987936089447054" lon="11.638063252820597"><ele>386.0</ele><time>2026-04-19T11:43:50.001Z</time></trkpt><trkpt lat="42.98801451109377" lon="11.637923191255542"><ele>383.5</ele><time>2026-04-19T11:43:51.001Z</time></trkpt><trkpt lat="42.98810703277847" lon="11.637792116803984"><ele>381.0</ele><time>2026-04-19T11:43:52.001Z</time></trkpt><trkpt lat="42.988230596149535" lon="11.637670114526609"><ele>378.5</ele><time>2026-04-19T11:43:53.001Z</time></trkpt><trkpt lat="42.98835220707639" lon="11.637561617339186"><ele>376.0</ele><time>2026-04-19T11:43:54.001Z</time></trkpt><trkpt lat="42.98846050497567" lon="11.637467422652923"><ele>375.8</ele><time>2026-04-19T11:43:55.001Z</time></trkpt><trkpt lat="42.98856061063678" lon="11.63738129806566"><ele>375.6</ele><time>2026-04-19T11:43:56.001Z</time></trkpt><trkpt lat="42.98864748632284" lon="11.637278506663208"><ele>375.4</ele><time>2026-04-19T11:43:57.001Z</time></trkpt><trkpt lat="42.98874328100384" lon="11.637215525055746"><ele>375.2</ele><time>2026-04-19T11:43:58.001Z</time></trkpt><trkpt lat="42.988840522975515" lon="11.637175142388665"><ele>375.0</ele><time>2026-04-19T11:43:59.001Z</time></trkpt><trkpt lat="42.9889563298196" lon="11.637146297519234"><ele>375.0</ele><time>2026-04-19T11:44:00.001Z</time></trkpt><trkpt lat="42.98909759498678" lon="11.6371363731532"><ele>375.0</ele><time>2026-04-19T11:44:01.001Z</time></trkpt><trkpt lat="42.98925332005367" lon="11.637129176069488"><ele>375.0</ele><time>2026-04-19T11:44:02.001Z</time></trkpt><trkpt lat="42.98941165732801" lon="11.637110970282436"><ele>374.0</ele><time>2026-04-19T11:44:03.001Z</time></trkpt><trkpt lat="42.98957800378333" lon="11.637060369510005"><ele>373.0</ele><time>2026-04-19T11:44:04.001Z</time></trkpt><trkpt lat="42.989750724013454" lon="11.63699730674628"><ele>372.0</ele><time>2026-04-19T11:44:05.001Z</time></trkpt><trkpt lat="42.989922364066395" lon="11.636920189236463"><ele>370.6666666666667</ele><time>2026-04-19T11:44:06.001Z</time></trkpt><trkpt lat="42.99009442916923" lon="11.636831403346385"><ele>369.33333333333337</ele><time>2026-04-19T11:44:07.001Z</time></trkpt><trkpt lat="42.99025157877725" lon="11.636744212832436"><ele>368.0</ele><time>2026-04-19T11:44:08.001Z</time></trkpt><trkpt lat="42.99039676185011" lon="11.636690576648942"><ele>368.0</ele><time>2026-04-19T11:44:09.001Z</time></trkpt><trkpt lat="42.990537275455175" lon="11.636592309201264"><ele>368.0</ele><time>2026-04-19T11:44:10.001Z</time></trkpt><trkpt lat="42.99066875937288" lon="11.636514832993253"><ele>368.0</ele><time>2026-04-19T11:44:11.001Z</time></trkpt><trkpt lat="42.99078325400155" lon="11.636429426100786"><ele>368.0</ele><time>2026-04-19T11:44:12.001Z</time></trkpt><trkpt lat="42.99089020314766" lon="11.636340870481625"><ele>367.75</ele><time>2026-04-19T11:44:13.001Z</time></trkpt><trkpt lat="42.991000163880805" lon="11.636264024683493"><ele>367.5</ele><time>2026-04-19T11:44:14.001Z</time></trkpt><trkpt lat="42.991107184162196" lon="11.63617061382001"><ele>367.25</ele><time>2026-04-19T11:44:15.001Z</time></trkpt><trkpt lat="42.99121358474437" lon="11.636089286293062"><ele>367.0</ele><time>2026-04-19T11:44:16Z</time></trkpt><trkpt lat="42.99131653306728" lon="11.636008131195263"><ele>365.25</ele><time>2026-04-19T11:44:17Z</time></trkpt><trkpt lat="42.99142743536461" lon="11.635921784502226"><ele>363.5</ele><time>2026-04-19T11:44:18Z</time></trkpt><trkpt lat="42.991539336798766" lon="11.635838892407318"><ele>361.75</ele><time>2026-04-19T11:44:19Z</time></trkpt><trkpt lat="42.99164657559902" lon="11.635734235859461"><ele>360.0</ele><time>2026-04-19T11:44:20Z</time></trkpt><trkpt lat="42.991760354494645" lon="11.635628180959191"><ele>360.0</ele><time>2026-04-19T11:44:21Z</time></trkpt><trkpt lat="42.99187038055022" lon="11.635527432274754"><ele>360.0</ele><time>2026-04-19T11:44:22Z</time></trkpt><trkpt lat="42.991991416547236" lon="11.63541793364585"><ele>360.0</ele><time>2026-04-19T11:44:23Z</time></trkpt><trkpt lat="42.99211022759062" lon="11.635307827294639"><ele>360.0</ele><time>2026-04-19T11:44:24Z</time></trkpt><trkpt lat="42.99220961365774" lon="11.635197081736498"><ele>359.5</ele><time>2026-04-19T11:44:25Z</time></trkpt><trkpt lat="42.99231613952637" lon="11.635087607805657"><ele>359.0</ele><time>2026-04-19T11:44:26Z</time></trkpt><trkpt lat="42.99240592456225" lon="11.634957022980942"><ele>358.5</ele><time>2026-04-19T11:44:27Z</time></trkpt><trkpt lat="42.99248452609575" lon="11.634798500026442"><ele>358.0</ele><time>2026-04-19T11:44:28Z</time></trkpt><trkpt lat="42.99254023180278" lon="11.634604212121515"><ele>358.0</ele><time>2026-04-19T11:44:29Z</time></trkpt><trkpt lat="42.9925740853167" lon="11.634401817490682"><ele>358.0</ele><time>2026-04-19T11:44:30Z</time></trkpt><trkpt lat="42.992598264388015" lon="11.634184106188991"><ele>358.0</ele><time>2026-04-19T11:44:31Z</time></trkpt><trkpt lat="42.99262884413565" lon="11.633964594733072"><ele>358.0</ele><time>2026-04-19T11:44:32Z</time></trkpt><trkpt lat="42.99264892437902" lon="11.633731935825793"><ele>358.0</ele><time>2026-04-19T11:44:33Z</time></trkpt><trkpt lat="42.99267736942742" lon="11.633516903737455"><ele>358.0</ele><time>2026-04-19T11:44:34Z</time></trkpt><trkpt lat="42.992705665016636" lon="11.633330243185974"><ele>358.75</ele><time>2026-04-19T11:44:35Z</time></trkpt><trkpt lat="42.992743037660354" lon="11.633158149942256"><ele>359.5</ele><time>2026-04-19T11:44:36Z</time></trkpt><trkpt lat="42.99275655557148" lon="11.632987666101203"><ele>360.25</ele><time>2026-04-19T11:44:37Z</time></trkpt><trkpt lat="42.992731606866364" lon="11.63280025848648"><ele>361.0</ele><time>2026-04-19T11:44:38Z</time></trkpt><trkpt lat="42.99271767009208" lon="11.632578766212635"><ele>361.0</ele><time>2026-04-19T11:44:39Z</time></trkpt><trkpt lat="42.99267819898028" lon="11.632333495739136"><ele>361.0</ele><time>2026-04-19T11:44:40Z</time></trkpt><trkpt lat="42.992642456677046" lon="11.632089538348511"><ele>361.0</ele><time>2026-04-19T11:44:41Z</time></trkpt><trkpt lat="42.992609525021585" lon="11.631867818919"><ele>361.0</ele><time>2026-04-19T11:44:42Z</time></trkpt><trkpt lat="42.992575223505156" lon="11.63166972226731"><ele>361.0</ele><time>2026-04-19T11:44:43Z</time></trkpt><trkpt lat="42.99254599881887" lon="11.631490727397821"><ele>361.0</ele><time>2026-04-19T11:44:44Z</time></trkpt><trkpt lat="42.99252194170914" lon="11.631329197461621"><ele>361.0</ele><time>2026-04-19T11:44:45Z</time></trkpt><trkpt lat="42.992509560247726" lon="11.631187765511157"><ele>358.5</ele><time>2026-04-19T11:44:46Z</time></trkpt><trkpt lat="42.992512065918554" lon="11.631028525755596"><ele>356.0</ele><time>2026-04-19T11:44:47Z</time></trkpt><trkpt lat="42.99253889801098" lon="11.630889006727488"><ele>353.5</ele><time>2026-04-19T11:44:48Z</time></trkpt><trkpt lat="42.99258996587404" lon="11.630760549081824"><ele>351.0</ele><time>2026-04-19T11:44:49Z</time></trkpt><trkpt lat="42.992664251064156" lon="11.630598197539014"><ele>351.0</ele><time>2026-04-19T11:44:50Z</time></trkpt><trkpt lat="42.99275279539667" lon="11.630404651839571"><ele>351.0</ele><time>2026-04-19T11:44:51Z</time></trkpt><trkpt lat="42.992842055507616" lon="11.630207087994716"><ele>351.0</ele><time>2026-04-19T11:44:52Z</time></trkpt><trkpt lat="42.99292728812308" lon="11.630015507930468"><ele>349.5</ele><time>2026-04-19T11:44:53Z</time></trkpt><trkpt lat="42.99301405760366" lon="11.62982047330635"><ele>348.0</ele><time>2026-04-19T11:44:54Z</time></trkpt><trkpt lat="42.99308348577599" lon="11.629664417500596"><ele>346.5</ele><time>2026-04-19T11:44:55Z</time></trkpt><trkpt lat="42.99314080889609" lon="11.629535570399288"><ele>345.0</ele><time>2026-04-19T11:44:56Z</time></trkpt><trkpt lat="42.993197088764404" lon="11.629425930320709"><ele>345.0</ele><time>2026-04-19T11:44:57Z</time></trkpt><trkpt lat="42.993254575203764" lon="11.62931160187213"><ele>345.0</ele><time>2026-04-19T11:44:58Z</time></trkpt><trkpt lat="42.99335447000471" lon="11.629230749715413"><ele>345.0</ele><time>2026-04-19T11:44:59Z</time></trkpt><trkpt lat="42.99347823096901" lon="11.629215696913528"><ele>345.0</ele><time>2026-04-19T11:45:00Z</time></trkpt><trkpt lat="42.99362567493097" lon="11.629191817222177"><ele>344.3333333333333</ele><time>2026-04-19T11:45:01Z</time></trkpt><trkpt lat="42.993804271558446" lon="11.629184573968352"><ele>343.66666666666663</ele><time>2026-04-19T11:45:02Z</time></trkpt><trkpt lat="42.99400378017107" lon="11.6291768600433"><ele>343.0</ele><time>2026-04-19T11:45:03Z</time></trkpt><trkpt lat="42.99422529629441" lon="11.629163337065599"><ele>346.5</ele><time>2026-04-19T11:45:04Z</time></trkpt><trkpt lat="42.994471636267654" lon="11.629125675909128"><ele>350.0</ele><time>2026-04-19T11:45:05Z</time></trkpt><trkpt lat="42.99473223315874" lon="11.629136385547021"><ele>350.0</ele><time>2026-04-19T11:45:06Z</time></trkpt><trkpt lat="42.99498742670492" lon="11.629094177325795"><ele>350.0</ele><time>2026-04-19T11:45:07Z</time></trkpt><trkpt lat="42.99519136668279" lon="11.6290863706217"><ele>352.0</ele><time>2026-04-19T11:45:08Z</time></trkpt><trkpt lat="42.99539064613206" lon="11.629093257469258"><ele>354.0</ele><time>2026-04-19T11:45:09Z</time></trkpt><trkpt lat="42.99558801031222" lon="11.629080632876384"><ele>356.0</ele><time>2026-04-19T11:45:10Z</time></trkpt><trkpt lat="42.995760018079594" lon="11.62904785010086"><ele>357.5</ele><time>2026-04-19T11:45:11Z</time></trkpt><trkpt lat="42.99591247374182" lon="11.629058907762134"><ele>359.0</ele><time>2026-04-19T11:45:12Z</time></trkpt><trkpt lat="42.996047770341995" lon="11.629051265045389"><ele>360.5</ele><time>2026-04-19T11:45:13Z</time></trkpt><trkpt lat="42.99616698839448" lon="11.62904209756818"><ele>362.0</ele><time>2026-04-19T11:45:14Z</time></trkpt><trkpt lat="42.99629087523543" lon="11.629004760683184"><ele>362.0</ele><time>2026-04-19T11:45:15Z</time></trkpt><trkpt lat="42.99643587798592" lon="11.628979656804336"><ele>362.0</ele><time>2026-04-19T11:45:16Z</time></trkpt><trkpt lat="42.99658371097716" lon="11.628888371932206"><ele>362.0</ele><time>2026-04-19T11:45:17Z</time></trkpt><trkpt lat="42.996742817842225" lon="11.628810486639203"><ele>362.6666666666667</ele><time>2026-04-19T11:45:18Z</time></trkpt><trkpt lat="42.996906014924114" lon="11.62872490542161"><ele>363.3333333333333</ele><time>2026-04-19T11:45:19Z</time></trkpt><trkpt lat="42.9970740578921" lon="11.62866147941593"><ele>364.0</ele><time>2026-04-19T11:45:20Z</time></trkpt><trkpt lat="42.99721945454924" lon="11.628593706479007"><ele>367.0</ele><time>2026-04-19T11:45:21Z</time></trkpt><trkpt lat="42.99738002406165" lon="11.628558767037392"><ele>370.0</ele><time>2026-04-19T11:45:22Z</time></trkpt><trkpt lat="42.99753703244806" lon="11.6285278113861"><ele>373.0</ele><time>2026-04-19T11:45:23Z</time></trkpt><trkpt lat="42.99766554168029" lon="11.628488625682763"><ele>373.0</ele><time>2026-04-19T11:45:24Z</time></trkpt><trkpt lat="42.99777881754007" lon="11.628446185324561"><ele>373.0</ele><time>2026-04-19T11:45:25Z</time></trkpt><trkpt lat="42.99787838552714" lon="11.628412305580486"><ele>373.0</ele><time>2026-04-19T11:45:26Z</time></trkpt><trkpt lat="42.99796817404821" lon="11.628383810241427"><ele>373.0</ele><time>2026-04-19T11:45:27Z</time></trkpt><trkpt lat="42.99805859972462" lon="11.628341044332757"><ele>373.0</ele><time>2026-04-19T11:45:28Z</time></trkpt><trkpt lat="42.99813531778929" lon="11.628283975188355"><ele>373.0</ele><time>2026-04-19T11:45:29Z</time></trkpt><trkpt lat="42.99820328130374" lon="11.628199745607091"><ele>373.0</ele><time>2026-04-19T11:45:30Z</time></trkpt><trkpt lat="42.9982765180052" lon="11.628070796382262"><ele>373.0</ele><time>2026-04-19T11:45:31Z</time></trkpt><trkpt lat="42.9983375707171" lon="11.627927907262045"><ele>373.0</ele><time>2026-04-19T11:45:32Z</time></trkpt><trkpt lat="42.99837870039209" lon="11.627832217943924"><ele>373.0</ele><time>2026-04-19T11:45:33Z</time></trkpt><trkpt lat="42.998419729110886" lon="11.627731781171942"><ele>372.16666666666663</ele><time>2026-04-19T11:45:34Z</time></trkpt><trkpt lat="42.99846378198205" lon="11.627623151813477"><ele>371.3333333333333</ele><time>2026-04-19T11:45:35Z</time></trkpt><trkpt lat="42.99851000949936" lon="11.627513712179006"><ele>370.5</ele><time>2026-04-19T11:45:36Z</time></trkpt><trkpt lat="42.998555478457675" lon="11.627410524589608"><ele>369.6666666666667</ele><time>2026-04-19T11:45:37Z</time></trkpt><trkpt lat="42.99859721769361" lon="11.627319789490421"><ele>368.83333333333337</ele><time>2026-04-19T11:45:38Z</time></trkpt><trkpt lat="42.99863705410383" lon="11.627235632995328"><ele>368.0</ele><time>2026-04-19T11:45:39Z</time></trkpt><trkpt lat="42.998689588138106" lon="11.62714373513559"><ele>368.0</ele><time>2026-04-19T11:45:40Z</time></trkpt><trkpt lat="42.99875760954101" lon="11.627043530952434"><ele>368.0</ele><time>2026-04-19T11:45:41Z</time></trkpt><trkpt lat="42.99883767176071" lon="11.626957036145713"><ele>368.0</ele><time>2026-04-19T11:45:42Z</time></trkpt><trkpt lat="42.99892655199688" lon="11.626873438230318"><ele>368.0</ele><time>2026-04-19T11:45:43Z</time></trkpt><trkpt lat="42.99902475432449" lon="11.62677727169746"><ele>368.0</ele><time>2026-04-19T11:45:44Z</time></trkpt><trkpt lat="42.9991371855499" lon="11.626687659646823"><ele>370.6666666666667</ele><time>2026-04-19T11:45:45Z</time></trkpt><trkpt lat="42.99926938177622" lon="11.626588869919413"><ele>373.3333333333333</ele><time>2026-04-19T11:45:46Z</time></trkpt><trkpt lat="42.99943950226469" lon="11.626564422100452"><ele>376.0</ele><time>2026-04-19T11:45:47Z</time></trkpt><trkpt lat="42.999620693914046" lon="11.626512593332317"><ele>376.0</ele><time>2026-04-19T11:45:48Z</time></trkpt><trkpt lat="42.9997760472026" lon="11.626441009295187"><ele>376.0</ele><time>2026-04-19T11:45:49Z</time></trkpt><trkpt lat="42.99991125176611" lon="11.626402943816197"><ele>376.0</ele><time>2026-04-19T11:45:50Z</time></trkpt><trkpt lat="43.000043212771665" lon="11.626353358364042"><ele>376.0</ele><time>2026-04-19T11:45:51Z</time></trkpt><trkpt lat="43.000163206454275" lon="11.626320482907515"><ele>376.0</ele><time>2026-04-19T11:45:52Z</time></trkpt><trkpt lat="43.00026687849443" lon="11.626293219479544"><ele>376.0</ele><time>2026-04-19T11:45:53Z</time></trkpt><trkpt lat="43.00034673085506" lon="11.62626152722195"><ele>376.0</ele><time>2026-04-19T11:45:54Z</time></trkpt><trkpt lat="43.00042524435114" lon="11.626203817281112"><ele>376.0</ele><time>2026-04-19T11:45:55Z</time></trkpt><trkpt lat="43.00050009953045" lon="11.626143789040395"><ele>376.0</ele><time>2026-04-19T11:45:56Z</time></trkpt><trkpt lat="43.00055728926457" lon="11.626029084383287"><ele>378.20000000000005</ele><time>2026-04-19T11:45:57Z</time></trkpt><trkpt lat="43.0005923758111" lon="11.625881809472332"><ele>380.40000000000003</ele><time>2026-04-19T11:45:58Z</time></trkpt><trkpt lat="43.000621175535755" lon="11.625717710586388"><ele>382.6</ele><time>2026-04-19T11:45:59Z</time></trkpt><trkpt lat="43.00065610893026" lon="11.625581792806146"><ele>384.8</ele><time>2026-04-19T11:46:00Z</time></trkpt><trkpt lat="43.00070163836437" lon="11.625483884866192"><ele>387.0</ele><time>2026-04-19T11:46:01Z</time></trkpt><trkpt lat="43.00078799959455" lon="11.625420653176326"><ele>387.25</ele><time>2026-04-19T11:46:02Z</time></trkpt><trkpt lat="43.00089217608202" lon="11.625343573658913"><ele>387.5</ele><time>2026-04-19T11:46:03Z</time></trkpt><trkpt lat="43.00101622642704" lon="11.625269541912978"><ele>387.75</ele><time>2026-04-19T11:46:04Z</time></trkpt><trkpt lat="43.00115672560536" lon="11.625210512329241"><ele>388.0</ele><time>2026-04-19T11:46:05Z</time></trkpt><trkpt lat="43.001293234729346" lon="11.625156761594521"><ele>388.0</ele><time>2026-04-19T11:46:06Z</time></trkpt><trkpt lat="43.001429429655616" lon="11.625084652536408"><ele>388.0</ele><time>2026-04-19T11:46:07Z</time></trkpt><trkpt lat="43.00156749860272" lon="11.625018860483403"><ele>388.0</ele><time>2026-04-19T11:46:08Z</time></trkpt><trkpt lat="43.001682551280645" lon="11.624934469889196"><ele>388.0</ele><time>2026-04-19T11:46:09Z</time></trkpt><trkpt lat="43.00177399016242" lon="11.624860178451671"><ele>387.6666666666667</ele><time>2026-04-19T11:46:10Z</time></trkpt><trkpt lat="43.001860100703816" lon="11.624801772472214"><ele>387.33333333333337</ele><time>2026-04-19T11:46:11Z</time></trkpt><trkpt lat="43.001929509163325" lon="11.624750427984472"><ele>387.0</ele><time>2026-04-19T11:46:12Z</time></trkpt><trkpt lat="43.00199887149415" lon="11.624740096037103"><ele>386.66666666666663</ele><time>2026-04-19T11:46:13Z</time></trkpt><trkpt lat="43.002060593186904" lon="11.624769516861214"><ele>386.3333333333333</ele><time>2026-04-19T11:46:14Z</time></trkpt><trkpt lat="43.00210881447166" lon="11.624832630428084"><ele>386.0</ele><time>2026-04-19T11:46:15Z</time></trkpt><trkpt lat="43.002146864860485" lon="11.624932449835635"><ele>385.99999999999994</ele><time>2026-04-19T11:46:16Z</time></trkpt><trkpt lat="43.00216776771393" lon="11.625064309802957"><ele>386.0</ele><time>2026-04-19T11:46:17Z</time></trkpt><trkpt lat="43.00218897736829" lon="11.625188542169832"><ele>386.0</ele><time>2026-04-19T11:46:18Z</time></trkpt><trkpt lat="43.00221203797208" lon="11.625283778727344"><ele>386.0</ele><time>2026-04-19T11:46:19Z</time></trkpt><trkpt lat="43.00225384584815" lon="11.62535834738485"><ele>385.99999999999994</ele><time>2026-04-19T11:46:20Z</time></trkpt><trkpt lat="43.00232384143044" lon="11.625394012821344"><ele>386.0</ele><time>2026-04-19T11:46:21Z</time></trkpt><trkpt lat="43.00241109949574" lon="11.625407344297495"><ele>385.25</ele><time>2026-04-19T11:46:22Z</time></trkpt><trkpt lat="43.00251449333876" lon="11.62538927263402"><ele>384.5</ele><time>2026-04-19T11:46:23Z</time></trkpt><trkpt lat="43.00261592512496" lon="11.62534444400849"><ele>383.75</ele><time>2026-04-19T11:46:24Z</time></trkpt><trkpt lat="43.002731545734505" lon="11.625288826403398"><ele>383.0</ele><time>2026-04-19T11:46:25Z</time></trkpt><trkpt lat="43.00286556200208" lon="11.625263155665886"><ele>383.0</ele><time>2026-04-19T11:46:26Z</time></trkpt><trkpt lat="43.00298995540918" lon="11.625239355007425"><ele>383.0</ele><time>2026-04-19T11:46:27Z</time></trkpt><trkpt lat="43.0030935133266" lon="11.625230909251307"><ele>383.0</ele><time>2026-04-19T11:46:28Z</time></trkpt><trkpt lat="43.00320781124897" lon="11.625269478274898"><ele>383.0</ele><time>2026-04-19T11:46:29Z</time></trkpt><trkpt lat="43.00331407820546" lon="11.625321704246653"><ele>384.79999999999995</ele><time>2026-04-19T11:46:30Z</time></trkpt><trkpt lat="43.00340550641896" lon="11.625362659562667"><ele>386.6</ele><time>2026-04-19T11:46:31Z</time></trkpt><trkpt lat="43.0034929287993" lon="11.625390734487883"><ele>388.4</ele><time>2026-04-19T11:46:32Z</time></trkpt><trkpt lat="43.00357673687506" lon="11.625415885693226"><ele>390.20000000000005</ele><time>2026-04-19T11:46:33Z</time></trkpt><trkpt lat="43.003662154977405" lon="11.625418587876776"><ele>392.0</ele><time>2026-04-19T11:46:34Z</time></trkpt><trkpt lat="43.00375921709471" lon="11.625373597340408"><ele>392.0</ele><time>2026-04-19T11:46:35Z</time></trkpt><trkpt lat="43.00385305784" lon="11.625325257127837"><ele>392.0</ele><time>2026-04-19T11:46:36Z</time></trkpt><trkpt lat="43.00395243803157" lon="11.625216799091795"><ele>392.0</ele><time>2026-04-19T11:46:37Z</time></trkpt><trkpt lat="43.004054664117916" lon="11.62510257967081"><ele>392.0</ele><time>2026-04-19T11:46:38Z</time></trkpt><trkpt lat="43.00413897791617" lon="11.625010019131183"><ele>394.16666666666663</ele><time>2026-04-19T11:46:39Z</time></trkpt><trkpt lat="43.00420436762167" lon="11.624937812920228"><ele>396.3333333333333</ele><time>2026-04-19T11:46:40Z</time></trkpt><trkpt lat="43.00427169702156" lon="11.624863464886515"><ele>398.5</ele><time>2026-04-19T11:46:41Z</time></trkpt><trkpt lat="43.00432508379063" lon="11.624804512851288"><ele>400.66666666666663</ele><time>2026-04-19T11:46:42Z</time></trkpt><trkpt lat="43.004385457695705" lon="11.624734490239645"><ele>402.8333333333333</ele><time>2026-04-19T11:46:45Z</time></trkpt><trkpt lat="43.00431766558965" lon="11.624812704302277"><ele>405.0</ele><time>2026-04-19T11:46:56Z</time></trkpt><trkpt lat="43.00419743478031" lon="11.624889451200339"><ele>404.0</ele><time>2026-04-19T11:46:57Z</time></trkpt><trkpt lat="43.004114990040364" lon="11.624989156459966"><ele>403.0</ele><time>2026-04-19T11:46:58Z</time></trkpt><trkpt lat="43.00405885503542" lon="11.625044014725143"><ele>402.0</ele><time>2026-04-19T11:46:59Z</time></trkpt><trkpt lat="43.003977755447764" lon="11.625117483564162"><ele>401.0</ele><time>2026-04-19T11:47:01Z</time></trkpt><trkpt lat="43.00397177535916" lon="11.625204655908197"><ele>400.0</ele><time>2026-04-19T11:47:04Z</time></trkpt><trkpt lat="43.004016490217595" lon="11.625358734717528"><ele>398.6666666666667</ele><time>2026-04-19T11:47:06Z</time></trkpt><trkpt lat="43.003998129798916" lon="11.625517032458422"><ele>397.33333333333337</ele><time>2026-04-19T11:47:08Z</time></trkpt><trkpt lat="43.00396186140207" lon="11.62561133008781"><ele>396.0</ele><time>2026-04-19T11:47:09Z</time></trkpt><trkpt lat="43.00391927136333" lon="11.625684590152686"><ele>394.66666666666663</ele><time>2026-04-19T11:47:10Z</time></trkpt><trkpt lat="43.00387421383019" lon="11.625787618466788"><ele>393.3333333333333</ele><time>2026-04-19T11:47:11Z</time></trkpt><trkpt lat="43.003836116437384" lon="11.625891499654067"><ele>392.0</ele><time>2026-04-19T11:47:12Z</time></trkpt><trkpt lat="43.003802750267084" lon="11.625992497233723"><ele>391.99999999999994</ele><time>2026-04-19T11:47:13Z</time></trkpt><trkpt lat="43.00377752150921" lon="11.626086789692552"><ele>392.0</ele><time>2026-04-19T11:47:14Z</time></trkpt><trkpt lat="43.003765726967565" lon="11.626201357824327"><ele>392.0</ele><time>2026-04-19T11:47:15Z</time></trkpt><trkpt lat="43.00376927713553" lon="11.626331265085428"><ele>392.0</ele><time>2026-04-19T11:47:16Z</time></trkpt><trkpt lat="43.003777506738025" lon="11.62645875409611"><ele>391.99999999999994</ele><time>2026-04-19T11:47:17Z</time></trkpt><trkpt lat="43.00378576231501" lon="11.626584521672344"><ele>392.0</ele><time>2026-04-19T11:47:18Z</time></trkpt><trkpt lat="43.00380332551986" lon="11.626725300761931"><ele>391.20000000000005</ele><time>2026-04-19T11:47:19Z</time></trkpt><trkpt lat="43.00383215832221" lon="11.62685887005885"><ele>390.4</ele><time>2026-04-19T11:47:20Z</time></trkpt><trkpt lat="43.00386288843713" lon="11.626975575214994"><ele>389.6</ele><time>2026-04-19T11:47:21Z</time></trkpt><trkpt lat="43.003900409071015" lon="11.627102061924242"><ele>388.79999999999995</ele><time>2026-04-19T11:47:22Z</time></trkpt><trkpt lat="43.003935664461295" lon="11.627226637863238"><ele>388.0</ele><time>2026-04-19T11:47:23Z</time></trkpt><trkpt lat="43.00395905885027" lon="11.627368510123214"><ele>387.2</ele><time>2026-04-19T11:47:24Z</time></trkpt><trkpt lat="43.00397523106346" lon="11.627517637530378"><ele>386.4</ele><time>2026-04-19T11:47:25Z</time></trkpt><trkpt lat="43.00398730699013" lon="11.627653831103695"><ele>385.59999999999997</ele><time>2026-04-19T11:47:26Z</time></trkpt><trkpt lat="43.00399723137819" lon="11.627787327761867"><ele>384.79999999999995</ele><time>2026-04-19T11:47:27Z</time></trkpt><trkpt lat="43.0040128224554" lon="11.6279285715335"><ele>384.0</ele><time>2026-04-19T11:47:28Z</time></trkpt><trkpt lat="43.004022353149594" lon="11.628059717979268"><ele>383.0</ele><time>2026-04-19T11:47:29Z</time></trkpt><trkpt lat="43.00403265080018" lon="11.628191408484517"><ele>382.0</ele><time>2026-04-19T11:47:30Z</time></trkpt><trkpt lat="43.004049032952956" lon="11.628313223704852"><ele>381.0</ele><time>2026-04-19T11:47:30.999Z</time></trkpt><trkpt lat="43.00407148327639" lon="11.628414343450558"><ele>380.0</ele><time>2026-04-19T11:47:31.999Z</time></trkpt><trkpt lat="43.004109722272446" lon="11.628508636330972"><ele>379.0</ele><time>2026-04-19T11:47:32.999Z</time></trkpt><trkpt lat="43.00416127566085" lon="11.628588121772838"><ele>378.0</ele><time>2026-04-19T11:47:33.999Z</time></trkpt><trkpt lat="43.00421538908526" lon="11.62871789613033"><ele>377.5</ele><time>2026-04-19T11:47:35.999Z</time></trkpt><trkpt lat="43.004209923241106" lon="11.628807547069194"><ele>377.0</ele><time>2026-04-19T11:47:37Z</time></trkpt><trkpt lat="43.00418939262479" lon="11.6289128609519"><ele>376.5</ele><time>2026-04-19T11:47:38Z</time></trkpt><trkpt lat="43.00416523134364" lon="11.628993297717113"><ele>376.0</ele><time>2026-04-19T11:47:39Z</time></trkpt><trkpt lat="43.004148394110736" lon="11.629120529564497"><ele>375.5</ele><time>2026-04-19T11:47:41Z</time></trkpt><trkpt lat="43.00421343460656" lon="11.629234843717656"><ele>375.0</ele><time>2026-04-19T11:47:43Z</time></trkpt><trkpt lat="43.00427492332497" lon="11.629284175142644"><ele>375.0</ele><time>2026-04-19T11:47:44Z</time></trkpt><trkpt lat="43.004344550779884" lon="11.629330088779662"><ele>375.0</ele><time>2026-04-19T11:47:45Z</time></trkpt><trkpt lat="43.00442412580975" lon="11.629373619391576"><ele>375.0</ele><time>2026-04-19T11:47:46Z</time></trkpt><trkpt lat="43.00449992347585" lon="11.62941043822104"><ele>375.0</ele><time>2026-04-19T11:47:47Z</time></trkpt><trkpt lat="43.00457277589379" lon="11.629438771042766"><ele>375.0</ele><time>2026-04-19T11:47:48Z</time></trkpt><trkpt lat="43.00463557569025" lon="11.629446405831688"><ele>375.0</ele><time>2026-04-19T11:47:49Z</time></trkpt><trkpt lat="43.00470094525215" lon="11.629445348344978"><ele>375.0</ele><time>2026-04-19T11:47:50Z</time></trkpt><trkpt lat="43.004789658495476" lon="11.62943568853306"><ele>375.0</ele><time>2026-04-19T11:47:51Z</time></trkpt><trkpt lat="43.004860901207216" lon="11.629431265848192"><ele>375.0</ele><time>2026-04-19T11:47:52Z</time></trkpt><trkpt lat="43.004936691007394" lon="11.629438360825537"><ele>375.0</ele><time>2026-04-19T11:47:53Z</time></trkpt><trkpt lat="43.00500344677963" lon="11.629405027586634"><ele>375.0</ele><time>2026-04-19T11:47:54Z</time></trkpt><trkpt lat="43.00511159623153" lon="11.629401497082814"><ele>375.0</ele><time>2026-04-19T11:47:56Z</time></trkpt><trkpt lat="43.005201608684374" lon="11.629400171763699"><ele>375.0</ele><time>2026-04-19T11:47:58Z</time></trkpt><trkpt lat="43.00530583668252" lon="11.629464159058486"><ele>372.3333333333333</ele><time>2026-04-19T11:48:00Z</time></trkpt><trkpt lat="43.00535667541481" lon="11.62952637559937"><ele>369.6666666666667</ele><time>2026-04-19T11:48:01Z</time></trkpt><trkpt lat="43.00540473190122" lon="11.629626486765572"><ele>367.0</ele><time>2026-04-19T11:48:02Z</time></trkpt><trkpt lat="43.00544643025886" lon="11.62973045011549"><ele>364.33333333333337</ele><time>2026-04-19T11:48:03Z</time></trkpt><trkpt lat="43.005488804043374" lon="11.629829443894446"><ele>361.6666666666667</ele><time>2026-04-19T11:48:04Z</time></trkpt><trkpt lat="43.00553269779089" lon="11.629900967065192"><ele>359.0</ele><time>2026-04-19T11:48:05Z</time></trkpt><trkpt lat="43.00558765483875" lon="11.629982164689263"><ele>359.0</ele><time>2026-04-19T11:48:06Z</time></trkpt><trkpt lat="43.00564839444243" lon="11.630042151131786"><ele>359.0</ele><time>2026-04-19T11:48:07Z</time></trkpt><trkpt lat="43.00571773474178" lon="11.630086727834694"><ele>359.0</ele><time>2026-04-19T11:48:08Z</time></trkpt><trkpt lat="43.00579700759381" lon="11.630115694055945"><ele>359.0</ele><time>2026-04-19T11:48:09Z</time></trkpt><trkpt lat="43.005873606494895" lon="11.630151836519676"><ele>359.0</ele><time>2026-04-19T11:48:10Z</time></trkpt><trkpt lat="43.005938574493925" lon="11.630190698828349"><ele>359.0</ele><time>2026-04-19T11:48:11Z</time></trkpt><trkpt lat="43.00603369642386" lon="11.630259435427021"><ele>355.79999999999995</ele><time>2026-04-19T11:48:13Z</time></trkpt><trkpt lat="43.00611444318951" lon="11.630344789573405"><ele>352.59999999999997</ele><time>2026-04-19T11:48:15Z</time></trkpt><trkpt lat="43.00614934702655" lon="11.630491191942284"><ele>349.4</ele><time>2026-04-19T11:48:17Z</time></trkpt><trkpt lat="43.00615616177181" lon="11.630602957545857"><ele>346.2</ele><time>2026-04-19T11:48:18Z</time></trkpt><trkpt lat="43.00616174051208" lon="11.630742356564573"><ele>343.0</ele><time>2026-04-19T11:48:19Z</time></trkpt><trkpt lat="43.00617137324973" lon="11.630872664336415"><ele>343.0</ele><time>2026-04-19T11:48:20Z</time></trkpt><trkpt lat="43.006179546225844" lon="11.630975074538185"><ele>343.0</ele><time>2026-04-19T11:48:21Z</time></trkpt><trkpt lat="43.006195112089976" lon="11.631147190879004"><ele>343.0</ele><time>2026-04-19T11:48:23Z</time></trkpt><trkpt lat="43.00621440137543" lon="11.631309834996813"><ele>343.0</ele><time>2026-04-19T11:48:25Z</time></trkpt><trkpt lat="43.00624661651925" lon="11.63144560902721"><ele>343.0</ele><time>2026-04-19T11:48:27Z</time></trkpt><trkpt lat="43.006311700009725" lon="11.631533327606073"><ele>341.7142857142857</ele><time>2026-04-19T11:48:29Z</time></trkpt><trkpt lat="43.00636835022772" lon="11.631574469746608"><ele>340.42857142857144</ele><time>2026-04-19T11:48:30Z</time></trkpt><trkpt lat="43.006445636729275" lon="11.63163379145629"><ele>339.1428571428571</ele><time>2026-04-19T11:48:31Z</time></trkpt><trkpt lat="43.00652132816935" lon="11.631682486793608"><ele>337.8571428571429</ele><time>2026-04-19T11:48:32Z</time></trkpt><trkpt lat="43.006587296200884" lon="11.631732894139976"><ele>336.57142857142856</ele><time>2026-04-19T11:48:33Z</time></trkpt><trkpt lat="43.00664747615837" lon="11.631784567399917"><ele>335.2857142857143</ele><time>2026-04-19T11:48:34Z</time></trkpt><trkpt lat="43.006700258352495" lon="11.631833469582478"><ele>334.0</ele><time>2026-04-19T11:48:35Z</time></trkpt><trkpt lat="43.006790081705645" lon="11.6319379956445"><ele>331.0</ele><time>2026-04-19T11:48:37Z</time></trkpt><trkpt lat="43.006846965596026" lon="11.632076168913756"><ele>328.0</ele><time>2026-04-19T11:48:39Z</time></trkpt><trkpt lat="43.006865007106676" lon="11.63225695537294"><ele>325.0</ele><time>2026-04-19T11:48:41Z</time></trkpt><trkpt lat="43.00686227186558" lon="11.632405806980778"><ele>322.0</ele><time>2026-04-19T11:48:43Z</time></trkpt><trkpt lat="43.00687233376733" lon="11.632527408943796"><ele>319.0</ele><time>2026-04-19T11:48:45Z</time></trkpt><trkpt lat="43.00686242190326" lon="11.632695754106894"><ele>319.0</ele><time>2026-04-19T11:48:47Z</time></trkpt><trkpt lat="43.00685001489173" lon="11.632794812337236"><ele>319.0</ele><time>2026-04-19T11:48:48Z</time></trkpt><trkpt lat="43.006805335056946" lon="11.63290581255054"><ele>319.0</ele><time>2026-04-19T11:48:49Z</time></trkpt><trkpt lat="43.00679171529956" lon="11.63304182987094"><ele>319.0</ele><time>2026-04-19T11:48:50Z</time></trkpt><trkpt lat="43.00677325220914" lon="11.63320064989517"><ele>319.0</ele><time>2026-04-19T11:48:51Z</time></trkpt><trkpt lat="43.00676190678491" lon="11.633388894259388"><ele>317.25</ele><time>2026-04-19T11:48:52Z</time></trkpt><trkpt lat="43.00675317819661" lon="11.633583479835512"><ele>315.5</ele><time>2026-04-19T11:48:53Z</time></trkpt><trkpt lat="43.00674385231714" lon="11.633774748197498"><ele>313.75</ele><time>2026-04-19T11:48:54Z</time></trkpt><trkpt lat="43.00673333629307" lon="11.633934360135267"><ele>312.0</ele><time>2026-04-19T11:48:55Z</time></trkpt><trkpt lat="43.00672627730291" lon="11.634082313357208"><ele>311.3333333333333</ele><time>2026-04-19T11:48:56Z</time></trkpt><trkpt lat="43.00671863016254" lon="11.634215139006626"><ele>310.6666666666667</ele><time>2026-04-19T11:48:57Z</time></trkpt><trkpt lat="43.006710505308654" lon="11.634344908360813"><ele>310.0</ele><time>2026-04-19T11:48:58Z</time></trkpt><trkpt lat="43.00669838451892" lon="11.634461596561017"><ele>309.33333333333337</ele><time>2026-04-19T11:48:59Z</time></trkpt><trkpt lat="43.00668420424688" lon="11.634565234214142"><ele>308.6666666666667</ele><time>2026-04-19T11:49:00Z</time></trkpt><trkpt lat="43.00667667623344" lon="11.634664974151377"><ele>308.0</ele><time>2026-04-19T11:49:01Z</time></trkpt><trkpt lat="43.00668026065948" lon="11.634766053155552"><ele>307.8</ele><time>2026-04-19T11:49:02Z</time></trkpt><trkpt lat="43.00670318843937" lon="11.63484894510811"><ele>307.6</ele><time>2026-04-19T11:49:03Z</time></trkpt><trkpt lat="43.00674762713109" lon="11.634918495461658"><ele>307.4</ele><time>2026-04-19T11:49:04Z</time></trkpt><trkpt lat="43.006880611130256" lon="11.63497732977715"><ele>307.2</ele><time>2026-04-19T11:49:06Z</time></trkpt><trkpt lat="43.006964794635635" lon="11.634978715540143"><ele>307.0</ele><time>2026-04-19T11:49:07Z</time></trkpt><trkpt lat="43.007067460300526" lon="11.634972129544146"><ele>307.0</ele><time>2026-04-19T11:49:08Z</time></trkpt><trkpt lat="43.007175447815484" lon="11.63496879111516"><ele>307.0</ele><time>2026-04-19T11:49:09Z</time></trkpt><trkpt lat="43.007262054679096" lon="11.634960521646383"><ele>307.0</ele><time>2026-04-19T11:49:10Z</time></trkpt><trkpt lat="43.007330162959356" lon="11.634946909571585"><ele>307.0</ele><time>2026-04-19T11:49:11Z</time></trkpt><trkpt lat="43.00744758450909" lon="11.634934748022927"><ele>307.0</ele><time>2026-04-19T11:49:13Z</time></trkpt><trkpt lat="43.00753536036179" lon="11.63492382294578"><ele>306.66666666666663</ele><time>2026-04-19T11:49:15Z</time></trkpt><trkpt lat="43.007624721032215" lon="11.634977852907971"><ele>306.3333333333333</ele><time>2026-04-19T11:49:18Z</time></trkpt><trkpt lat="43.007697104373015" lon="11.63496280073831"><ele>306.0</ele><time>2026-04-19T11:49:19Z</time></trkpt><trkpt lat="43.007793398440256" lon="11.63497732571549"><ele>305.6666666666667</ele><time>2026-04-19T11:49:20Z</time></trkpt><trkpt lat="43.00787921286043" lon="11.635009316457408"><ele>305.33333333333337</ele><time>2026-04-19T11:49:21Z</time></trkpt><trkpt lat="43.00796191852913" lon="11.63506500145393"><ele>305.0</ele><time>2026-04-19T11:49:22Z</time></trkpt><trkpt lat="43.0080108694485" lon="11.63514442660372"><ele>305.0</ele><time>2026-04-19T11:49:23Z</time></trkpt><trkpt lat="43.008082752341714" lon="11.635290964230794"><ele>305.0</ele><time>2026-04-19T11:49:25Z</time></trkpt><trkpt lat="43.00810343438538" lon="11.63539621631389"><ele>305.0</ele><time>2026-04-19T11:49:26Z</time></trkpt><trkpt lat="43.00812785462094" lon="11.635531850365352"><ele>305.0</ele><time>2026-04-19T11:49:27Z</time></trkpt><trkpt lat="43.00814488335136" lon="11.635693649769408"><ele>305.0</ele><time>2026-04-19T11:49:28Z</time></trkpt><trkpt lat="43.00815784784597" lon="11.635863716131285"><ele>305.5</ele><time>2026-04-19T11:49:29Z</time></trkpt><trkpt lat="43.008164903244484" lon="11.636045494585675"><ele>306.0</ele><time>2026-04-19T11:49:30Z</time></trkpt><trkpt lat="43.008182120078935" lon="11.636243787402105"><ele>306.5</ele><time>2026-04-19T11:49:31Z</time></trkpt><trkpt lat="43.00820147815604" lon="11.636449244888666"><ele>307.0</ele><time>2026-04-19T11:49:32Z</time></trkpt><trkpt lat="43.00822328869948" lon="11.63667902200131"><ele>308.25</ele><time>2026-04-19T11:49:33Z</time></trkpt><trkpt lat="43.0082374145193" lon="11.636892975663102"><ele>309.5</ele><time>2026-04-19T11:49:34Z</time></trkpt><trkpt lat="43.00825500666374" lon="11.637088206384618"><ele>310.75</ele><time>2026-04-19T11:49:35Z</time></trkpt><trkpt lat="43.0082677271803" lon="11.637265323664232"><ele>312.0</ele><time>2026-04-19T11:49:36Z</time></trkpt><trkpt lat="43.008281943032756" lon="11.63743650022362"><ele>311.4</ele><time>2026-04-19T11:49:37Z</time></trkpt><trkpt lat="43.00829625146994" lon="11.637599576020005"><ele>310.79999999999995</ele><time>2026-04-19T11:49:38Z</time></trkpt><trkpt lat="43.00831350356759" lon="11.637724825091803"><ele>310.2</ele><time>2026-04-19T11:49:39Z</time></trkpt><trkpt lat="43.008325989675754" lon="11.637822206194487"><ele>309.59999999999997</ele><time>2026-04-19T11:49:40Z</time></trkpt><trkpt lat="43.00840802254888" lon="11.63796643301653"><ele>309.0</ele><time>2026-04-19T11:49:41Z</time></trkpt><trkpt lat="43.00849289490569" lon="11.638095912456885"><ele>309.0</ele><time>2026-04-19T11:49:42Z</time></trkpt><trkpt lat="43.008589218162534" lon="11.638222466900213"><ele>309.0</ele><time>2026-04-19T11:49:43Z</time></trkpt><trkpt lat="43.008658717643264" lon="11.638335261431456"><ele>309.0</ele><time>2026-04-19T11:49:44Z</time></trkpt><trkpt lat="43.00870595695074" lon="11.63846494433461"><ele>309.0</ele><time>2026-04-19T11:49:45Z</time></trkpt><trkpt lat="43.00874928880654" lon="11.638628253656803"><ele>308.59999999999997</ele><time>2026-04-19T11:49:46Z</time></trkpt><trkpt lat="43.008799659413576" lon="11.638797721825602"><ele>308.2</ele><time>2026-04-19T11:49:47Z</time></trkpt><trkpt lat="43.00884991097345" lon="11.638941029277278"><ele>307.79999999999995</ele><time>2026-04-19T11:49:48Z</time></trkpt><trkpt lat="43.00890011776598" lon="11.639056162882385"><ele>307.4</ele><time>2026-04-19T11:49:49Z</time></trkpt><trkpt lat="43.00895642038738" lon="11.639146786908023"><ele>307.0</ele><time>2026-04-19T11:49:50Z</time></trkpt><trkpt lat="43.00902565877532" lon="11.639231501294088"><ele>307.0</ele><time>2026-04-19T11:49:51Z</time></trkpt><trkpt lat="43.009109684547745" lon="11.639317825200775"><ele>307.0</ele><time>2026-04-19T11:49:52Z</time></trkpt><trkpt lat="43.00918251966789" lon="11.639403610621601"><ele>307.0</ele><time>2026-04-19T11:49:53Z</time></trkpt><trkpt lat="43.00924222556687" lon="11.63950019203005"><ele>307.0</ele><time>2026-04-19T11:49:54Z</time></trkpt><trkpt lat="43.0092986756081" lon="11.6396168064182"><ele>307.0</ele><time>2026-04-19T11:49:55Z</time></trkpt><trkpt lat="43.0093493349971" lon="11.639753035086992"><ele>305.75</ele><time>2026-04-19T11:49:56Z</time></trkpt><trkpt lat="43.009384238824204" lon="11.639895106020761"><ele>304.5</ele><time>2026-04-19T11:49:57Z</time></trkpt><trkpt lat="43.00941527672123" lon="11.640040837169868"><ele>303.25</ele><time>2026-04-19T11:49:58Z</time></trkpt><trkpt lat="43.009448244157035" lon="11.640195993622102"><ele>302.0</ele><time>2026-04-19T11:49:59Z</time></trkpt><trkpt lat="43.009482499494894" lon="11.64035900450551"><ele>300.75</ele><time>2026-04-19T11:50:00Z</time></trkpt><trkpt lat="43.00952697844891" lon="11.640531204697217"><ele>299.5</ele><time>2026-04-19T11:50:01Z</time></trkpt><trkpt lat="43.00957087698549" lon="11.640682020881453"><ele>298.25</ele><time>2026-04-19T11:50:02Z</time></trkpt><trkpt lat="43.00961872023765" lon="11.64082174161846"><ele>297.0</ele><time>2026-04-19T11:50:03Z</time></trkpt><trkpt lat="43.00966317611514" lon="11.640947319222247"><ele>297.0</ele><time>2026-04-19T11:50:04Z</time></trkpt><trkpt lat="43.00970832848519" lon="11.641058945546868"><ele>297.0</ele><time>2026-04-19T11:50:05Z</time></trkpt><trkpt lat="43.00974995576382" lon="11.641160734416353"><ele>297.0</ele><time>2026-04-19T11:50:06Z</time></trkpt><trkpt lat="43.009795947932226" lon="11.641257834291748"><ele>297.0</ele><time>2026-04-19T11:50:07Z</time></trkpt><trkpt lat="43.00983754383455" lon="11.641337829685812"><ele>297.0</ele><time>2026-04-19T11:50:08Z</time></trkpt><trkpt lat="43.00987861181193" lon="11.641404957476475"><ele>297.0</ele><time>2026-04-19T11:50:09Z</time></trkpt><trkpt lat="43.009960887853715" lon="11.641505240927273"><ele>296.4</ele><time>2026-04-19T11:50:11Z</time></trkpt><trkpt lat="43.010054597297916" lon="11.641600491817114"><ele>295.79999999999995</ele><time>2026-04-19T11:50:13Z</time></trkpt><trkpt lat="43.0101092820306" lon="11.641653334522946"><ele>295.2</ele><time>2026-04-19T11:50:14Z</time></trkpt><trkpt lat="43.01017879925539" lon="11.641718731415965"><ele>294.59999999999997</ele><time>2026-04-19T11:50:15Z</time></trkpt><trkpt lat="43.01026429668796" lon="11.6417967647954"><ele>294.0</ele><time>2026-04-19T11:50:16Z</time></trkpt><trkpt lat="43.01034973360376" lon="11.641891793096043"><ele>293.5</ele><time>2026-04-19T11:50:17Z</time></trkpt><trkpt lat="43.01043351499783" lon="11.642011883511733"><ele>293.0</ele><time>2026-04-19T11:50:18Z</time></trkpt><trkpt lat="43.010516105441894" lon="11.64214446984895"><ele>292.5</ele><time>2026-04-19T11:50:19Z</time></trkpt><trkpt lat="43.01060626535125" lon="11.64227288906888"><ele>292.0</ele><time>2026-04-19T11:50:20Z</time></trkpt><trkpt lat="43.0106982401643" lon="11.642396189091219"><ele>292.0</ele><time>2026-04-19T11:50:21Z</time></trkpt><trkpt lat="43.01080074214967" lon="11.642513730826265"><ele>292.0</ele><time>2026-04-19T11:50:22Z</time></trkpt><trkpt lat="43.01092116736884" lon="11.642627078260986"><ele>292.0</ele><time>2026-04-19T11:50:23Z</time></trkpt><trkpt lat="43.01104984416056" lon="11.642736312105747"><ele>292.0</ele><time>2026-04-19T11:50:24Z</time></trkpt><trkpt lat="43.01117103042085" lon="11.642826965023577"><ele>291.25</ele><time>2026-04-19T11:50:25Z</time></trkpt><trkpt lat="43.01128450071037" lon="11.64292207091853"><ele>290.5</ele><time>2026-04-19T11:50:26Z</time></trkpt><trkpt lat="43.01139277778978" lon="11.643014160189473"><ele>289.75</ele><time>2026-04-19T11:50:27Z</time></trkpt><trkpt lat="43.01150015705978" lon="11.643097540412077"><ele>289.0</ele><time>2026-04-19T11:50:28Z</time></trkpt><trkpt lat="43.01160722771752" lon="11.64317177104444"><ele>288.75</ele><time>2026-04-19T11:50:29Z</time></trkpt><trkpt lat="43.01171397915813" lon="11.643213739236266"><ele>288.5</ele><time>2026-04-19T11:50:30Z</time></trkpt><trkpt lat="43.01182676986866" lon="11.643227981646554"><ele>288.25</ele><time>2026-04-19T11:50:31Z</time></trkpt><trkpt lat="43.01195293192396" lon="11.643195030167268"><ele>288.0</ele><time>2026-04-19T11:50:32Z</time></trkpt><trkpt lat="43.01206419919616" lon="11.643136583535359"><ele>288.0</ele><time>2026-04-19T11:50:33Z</time></trkpt><trkpt lat="43.01215786327663" lon="11.64304882877206"><ele>288.0</ele><time>2026-04-19T11:50:34Z</time></trkpt><trkpt lat="43.012247884119596" lon="11.64300026256591"><ele>288.0</ele><time>2026-04-19T11:50:35Z</time></trkpt><trkpt lat="43.012317922980166" lon="11.642923825411335"><ele>288.0</ele><time>2026-04-19T11:50:36Z</time></trkpt><trkpt lat="43.012398277703184" lon="11.642908501350213"><ele>288.0</ele><time>2026-04-19T11:50:37Z</time></trkpt><trkpt lat="43.012487555016904" lon="11.642924922316071"><ele>286.5</ele><time>2026-04-19T11:50:38Z</time></trkpt><trkpt lat="43.0125806136074" lon="11.642984701613"><ele>285.0</ele><time>2026-04-19T11:50:39Z</time></trkpt><trkpt lat="43.01268337106565" lon="11.643058756568356"><ele>283.5</ele><time>2026-04-19T11:50:40Z</time></trkpt><trkpt lat="43.012800441858154" lon="11.643140710681596"><ele>282.0</ele><time>2026-04-19T11:50:41Z</time></trkpt><trkpt lat="43.01289647113056" lon="11.64321791855174"><ele>282.0</ele><time>2026-04-19T11:50:42Z</time></trkpt><trkpt lat="43.012975402166575" lon="11.643276529367219"><ele>282.0</ele><time>2026-04-19T11:50:43Z</time></trkpt><trkpt lat="43.01305298310581" lon="11.64330644582187"><ele>282.0</ele><time>2026-04-19T11:50:44Z</time></trkpt><trkpt lat="43.01313460013799" lon="11.643309709304322"><ele>282.0</ele><time>2026-04-19T11:50:45Z</time></trkpt><trkpt lat="43.013232433968604" lon="11.643295679260524"><ele>282.0</ele><time>2026-04-19T11:50:46Z</time></trkpt><trkpt lat="43.0133535916672" lon="11.643271754042223"><ele>282.25</ele><time>2026-04-19T11:50:47Z</time></trkpt><trkpt lat="43.013499517846476" lon="11.643244111350853"><ele>282.5</ele><time>2026-04-19T11:50:48Z</time></trkpt><trkpt lat="43.01365368392134" lon="11.643216995026005"><ele>282.75</ele><time>2026-04-19T11:50:49Z</time></trkpt><trkpt lat="43.0137911400064" lon="11.643193908335316"><ele>283.0</ele><time>2026-04-19T11:50:50Z</time></trkpt><trkpt lat="43.01392877928758" lon="11.643173177081076"><ele>283.0</ele><time>2026-04-19T11:50:51Z</time></trkpt><trkpt lat="43.01407496573253" lon="11.64315392915736"><ele>283.0</ele><time>2026-04-19T11:50:52Z</time></trkpt><trkpt lat="43.014224141470045" lon="11.643134255359318"><ele>283.0</ele><time>2026-04-19T11:50:53Z</time></trkpt><trkpt lat="43.01436759220324" lon="11.643110186939952"><ele>283.0</ele><time>2026-04-19T11:50:54Z</time></trkpt><trkpt lat="43.01448746853912" lon="11.643090787327532"><ele>282.4</ele><time>2026-04-19T11:50:55Z</time></trkpt><trkpt lat="43.014587493252975" lon="11.643078776528178"><ele>281.8</ele><time>2026-04-19T11:50:56Z</time></trkpt><trkpt lat="43.014672441229294" lon="11.643063777372882"><ele>281.2</ele><time>2026-04-19T11:50:57Z</time></trkpt><trkpt lat="43.01476117185558" lon="11.643048811887429"><ele>280.6</ele><time>2026-04-19T11:50:58Z</time></trkpt><trkpt lat="43.01485442476115" lon="11.643034738036807"><ele>280.0</ele><time>2026-04-19T11:50:59Z</time></trkpt><trkpt lat="43.01497083015727" lon="11.64301749531437"><ele>279.5</ele><time>2026-04-19T11:51:00Z</time></trkpt><trkpt lat="43.01509223527938" lon="11.642993943327435"><ele>279.0</ele><time>2026-04-19T11:51:01Z</time></trkpt><trkpt lat="43.01522568657327" lon="11.642970699865565"><ele>278.5</ele><time>2026-04-19T11:51:02Z</time></trkpt><trkpt lat="43.015355316495224" lon="11.64296101551341"><ele>278.0</ele><time>2026-04-19T11:51:03Z</time></trkpt><trkpt lat="43.01548341388125" lon="11.642971534817486"><ele>278.0</ele><time>2026-04-19T11:51:04Z</time></trkpt><trkpt lat="43.01559889835002" lon="11.643010337967954"><ele>278.0</ele><time>2026-04-19T11:51:05Z</time></trkpt><trkpt lat="43.01570178574249" lon="11.643083381657705"><ele>278.0</ele><time>2026-04-19T11:51:06Z</time></trkpt><trkpt lat="43.01578698561899" lon="11.643174553123517"><ele>278.0</ele><time>2026-04-19T11:51:07Z</time></trkpt><trkpt lat="43.01586401192123" lon="11.643274170693044"><ele>278.0</ele><time>2026-04-19T11:51:08Z</time></trkpt><trkpt lat="43.01593709083274" lon="11.643336928950122"><ele>277.0</ele><time>2026-04-19T11:51:09Z</time></trkpt><trkpt lat="43.01601704587719" lon="11.643379333871769"><ele>276.0</ele><time>2026-04-19T11:51:10Z</time></trkpt><trkpt lat="43.016125288057516" lon="11.643408559246335"><ele>275.0</ele><time>2026-04-19T11:51:11Z</time></trkpt><trkpt lat="43.01624851852888" lon="11.643422838666904"><ele>274.0</ele><time>2026-04-19T11:51:12Z</time></trkpt><trkpt lat="43.01638091099218" lon="11.643440678388446"><ele>274.0</ele><time>2026-04-19T11:51:13Z</time></trkpt><trkpt lat="43.01653224639296" lon="11.643462137189498"><ele>274.0</ele><time>2026-04-19T11:51:14Z</time></trkpt><trkpt lat="43.016698685364055" lon="11.643487431097519"><ele>274.0</ele><time>2026-04-19T11:51:15Z</time></trkpt><trkpt lat="43.01687819016232" lon="11.643517839516846"><ele>274.5</ele><time>2026-04-19T11:51:16Z</time></trkpt><trkpt lat="43.01703220092258" lon="11.643544297732113"><ele>275.0</ele><time>2026-04-19T11:51:17Z</time></trkpt><trkpt lat="43.01717206118472" lon="11.643574986453537"><ele>275.5</ele><time>2026-04-19T11:51:18Z</time></trkpt><trkpt lat="43.0173115511663" lon="11.643603417674218"><ele>276.0</ele><time>2026-04-19T11:51:19Z</time></trkpt><trkpt lat="43.01746213290157" lon="11.64362156937556"><ele>273.6666666666667</ele><time>2026-04-19T11:51:20Z</time></trkpt><trkpt lat="43.017613156672354" lon="11.64366238193595"><ele>271.33333333333337</ele><time>2026-04-19T11:51:21Z</time></trkpt><trkpt lat="43.0177734944154" lon="11.643663003566608"><ele>269.0</ele><time>2026-04-19T11:51:22Z</time></trkpt><trkpt lat="43.017925156672355" lon="11.643677844701633"><ele>269.0</ele><time>2026-04-19T11:51:23Z</time></trkpt><trkpt lat="43.0180845020076" lon="11.64368254590248"><ele>269.0</ele><time>2026-04-19T11:51:24Z</time></trkpt><trkpt lat="43.01824579572446" lon="11.643697349936568"><ele>269.0</ele><time>2026-04-19T11:51:25Z</time></trkpt><trkpt lat="43.01840954550035" lon="11.643730285040975"><ele>268.6666666666667</ele><time>2026-04-19T11:51:26Z</time></trkpt><trkpt lat="43.01858923747446" lon="11.643786293731674"><ele>268.3333333333333</ele><time>2026-04-19T11:51:27Z</time></trkpt><trkpt lat="43.018790112556836" lon="11.643856844873596"><ele>268.0</ele><time>2026-04-19T11:51:28Z</time></trkpt><trkpt lat="43.018979776537776" lon="11.64393058192086"><ele>268.0</ele><time>2026-04-19T11:51:29Z</time></trkpt><trkpt lat="43.01913763219862" lon="11.644006989068359"><ele>268.0</ele><time>2026-04-19T11:51:30Z</time></trkpt><trkpt lat="43.01928226567441" lon="11.644095616028805"><ele>268.0</ele><time>2026-04-19T11:51:31Z</time></trkpt><trkpt lat="43.01940120662747" lon="11.644084970843739"><ele>268.0</ele><time>2026-04-19T11:51:32Z</time></trkpt><trkpt lat="43.01951315569579" lon="11.644101817364977"><ele>268.0</ele><time>2026-04-19T11:51:33Z</time></trkpt><trkpt lat="43.019615175025216" lon="11.644107775335701"><ele>268.0</ele><time>2026-04-19T11:51:34Z</time></trkpt><trkpt lat="43.01970427809298" lon="11.644100254048064"><ele>268.0</ele><time>2026-04-19T11:51:35Z</time></trkpt><trkpt lat="43.01977119535937" lon="11.644087331066654"><ele>268.0</ele><time>2026-04-19T11:51:36Z</time></trkpt><trkpt lat="43.01987026822867" lon="11.644063981596405"><ele>268.0</ele><time>2026-04-19T11:51:38Z</time></trkpt><trkpt lat="43.01990010921772" lon="11.643862499410542"><ele>268.0</ele><time>2026-04-19T11:51:39Z</time></trkpt><trkpt lat="43.019888278802306" lon="11.64371464435068"><ele>268.0</ele><time>2026-04-19T11:51:40Z</time></trkpt><trkpt lat="43.019875620440075" lon="11.6435454355956"><ele>268.0</ele><time>2026-04-19T11:51:41Z</time></trkpt><trkpt lat="43.01986040676497" lon="11.643330792740235"><ele>268.0</ele><time>2026-04-19T11:51:42Z</time></trkpt><trkpt lat="43.01984435586368" lon="11.643090029241215"><ele>268.3333333333333</ele><time>2026-04-19T11:51:43Z</time></trkpt><trkpt lat="43.0198306794582" lon="11.642829596426141"><ele>268.6666666666667</ele><time>2026-04-19T11:51:44Z</time></trkpt><trkpt lat="43.01983400400957" lon="11.642562332813705"><ele>269.0</ele><time>2026-04-19T11:51:45Z</time></trkpt><trkpt lat="43.019890105950374" lon="11.64233131053396"><ele>269.33333333333337</ele><time>2026-04-19T11:51:46Z</time></trkpt><trkpt lat="43.02001766801112" lon="11.64213101905172"><ele>269.6666666666667</ele><time>2026-04-19T11:51:47Z</time></trkpt><trkpt lat="43.020165446389946" lon="11.641898633483299"><ele>270.0</ele><time>2026-04-19T11:51:48Z</time></trkpt><trkpt lat="43.02030050594934" lon="11.641660016116193"><ele>271.5</ele><time>2026-04-19T11:51:49Z</time></trkpt><trkpt lat="43.0204490291447" lon="11.641421359538436"><ele>273.0</ele><time>2026-04-19T11:51:50Z</time></trkpt><trkpt lat="43.020624511687984" lon="11.64116942146192"><ele>274.0</ele><time>2026-04-19T11:51:51Z</time></trkpt><trkpt lat="43.020782775258986" lon="11.640914953151034"><ele>275.0</ele><time>2026-04-19T11:51:52Z</time></trkpt><trkpt lat="43.02090904747316" lon="11.64068081706306"><ele>277.0</ele><time>2026-04-19T11:51:53Z</time></trkpt><trkpt lat="43.021039456207795" lon="11.640472273645209"><ele>279.0</ele><time>2026-04-19T11:51:54Z</time></trkpt><trkpt lat="43.02117523866146" lon="11.640246929797069"><ele>281.0</ele><time>2026-04-19T11:51:55Z</time></trkpt><trkpt lat="43.02127426673204" lon="11.639982805819812"><ele>282.0</ele><time>2026-04-19T11:51:56Z</time></trkpt><trkpt lat="43.02134333669946" lon="11.639735362283663"><ele>283.0</ele><time>2026-04-19T11:51:57Z</time></trkpt><trkpt lat="43.02139782893938" lon="11.639505575312041"><ele>284.0</ele><time>2026-04-19T11:51:58Z</time></trkpt><trkpt lat="43.021437073531416" lon="11.63929767863201"><ele>284.25</ele><time>2026-04-19T11:51:59Z</time></trkpt><trkpt lat="43.02147061356385" lon="11.63909777612697"><ele>284.5</ele><time>2026-04-19T11:52:00Z</time></trkpt><trkpt lat="43.02150033787465" lon="11.638910793813881"><ele>284.75</ele><time>2026-04-19T11:52:01Z</time></trkpt><trkpt lat="43.021528465713594" lon="11.638733854313752"><ele>285.0</ele><time>2026-04-19T11:52:02Z</time></trkpt><trkpt lat="43.021553920613094" lon="11.638573729019093"><ele>285.25</ele><time>2026-04-19T11:52:03Z</time></trkpt><trkpt lat="43.021577435102955" lon="11.638425809964788"><ele>285.5</ele><time>2026-04-19T11:52:04Z</time></trkpt><trkpt lat="43.02160271352535" lon="11.638266794778572"><ele>285.75</ele><time>2026-04-19T11:52:05Z</time></trkpt><trkpt lat="43.02163035474023" lon="11.63809291635383"><ele>286.0</ele><time>2026-04-19T11:52:06Z</time></trkpt><trkpt lat="43.02165773320801" lon="11.637920690675529"><ele>286.0</ele><time>2026-04-19T11:52:07Z</time></trkpt><trkpt lat="43.021680785579974" lon="11.63777567872378"><ele>286.0</ele><time>2026-04-19T11:52:08Z</time></trkpt><trkpt lat="43.02170147288561" lon="11.637643301019585"><ele>286.0</ele><time>2026-04-19T11:52:09Z</time></trkpt><trkpt lat="43.02171861634524" lon="11.637532140559701"><ele>286.0</ele><time>2026-04-19T11:52:10Z</time></trkpt><trkpt lat="43.02173356645884" lon="11.637435202053359"><ele>286.0</ele><time>2026-04-19T11:52:11Z</time></trkpt><trkpt lat="43.02174791898738" lon="11.637342138156905"><ele>286.0</ele><time>2026-04-19T11:52:12Z</time></trkpt><trkpt lat="43.021764274146996" lon="11.63723609011541"><ele>286.0</ele><time>2026-04-19T11:52:13Z</time></trkpt><trkpt lat="43.02178132489224" lon="11.637125530206108"><ele>286.0</ele><time>2026-04-19T11:52:14Z</time></trkpt><trkpt lat="43.021796501159756" lon="11.637027125064693"><ele>286.0</ele><time>2026-04-19T11:52:15Z</time></trkpt><trkpt lat="43.02181553735024" lon="11.636903692193536"><ele>286.0</ele><time>2026-04-19T11:52:17Z</time></trkpt><trkpt lat="43.021879892822604" lon="11.63685371809523"><ele>286.0</ele><time>2026-04-19T11:52:21Z</time></trkpt><trkpt lat="43.021811788649764" lon="11.636806342041387"><ele>286.0</ele><time>2026-04-19T11:59:29Z</time></trkpt><trkpt lat="43.021808994110025" lon="11.636716173230258"><ele>286.25</ele><time>2026-04-19T11:59:30Z</time></trkpt><trkpt lat="43.02182968748773" lon="11.636583294711116"><ele>286.5</ele><time>2026-04-19T11:59:31Z</time></trkpt><trkpt lat="43.021854140824125" lon="11.636426522249664"><ele>286.75</ele><time>2026-04-19T11:59:32Z</time></trkpt><trkpt lat="43.021878222056515" lon="11.636248787534031"><ele>287.0</ele><time>2026-04-19T11:59:33Z</time></trkpt><trkpt lat="43.02194648859086" lon="11.636055614631347"><ele>286.25</ele><time>2026-04-19T11:59:34Z</time></trkpt><trkpt lat="43.021976350619525" lon="11.635862268175087"><ele>285.5</ele><time>2026-04-19T11:59:35Z</time></trkpt><trkpt lat="43.022006580026414" lon="11.635663358069769"><ele>284.75</ele><time>2026-04-19T11:59:36Z</time></trkpt><trkpt lat="43.02203592459235" lon="11.635459539682682"><ele>284.0</ele><time>2026-04-19T11:59:37Z</time></trkpt><trkpt lat="43.02206213606591" lon="11.635277482796663"><ele>283.59999999999997</ele><time>2026-04-19T11:59:38Z</time></trkpt><trkpt lat="43.02208706320896" lon="11.635106557202024"><ele>283.2</ele><time>2026-04-19T11:59:39Z</time></trkpt><trkpt lat="43.02210660312157" lon="11.634974521131769"><ele>282.79999999999995</ele><time>2026-04-19T11:59:40Z</time></trkpt><trkpt lat="43.02211944549468" lon="11.634887742005846"><ele>282.4</ele><time>2026-04-19T11:59:41Z</time></trkpt><trkpt lat="43.02210012440288" lon="11.635007988978225"><ele>282.0</ele><time>2026-04-19T11:59:48Z</time></trkpt><trkpt lat="43.0220358918198" lon="11.635098286891933"><ele>282.0</ele><time>2026-04-19T11:59:49Z</time></trkpt><trkpt lat="43.022024073462454" lon="11.635202271486987"><ele>282.0</ele><time>2026-04-19T11:59:50Z</time></trkpt><trkpt lat="43.02199767952575" lon="11.635343892140048"><ele>282.0</ele><time>2026-04-19T11:59:52Z</time></trkpt><trkpt lat="43.021982453439485" lon="11.635431593336785"><ele>282.0</ele><time>2026-04-19T11:59:53Z</time></trkpt><trkpt lat="43.02198083599065" lon="11.635539227756338"><ele>282.0</ele><time>2026-04-19T11:59:55Z</time></trkpt><trkpt lat="43.02199969331836" lon="11.635631160260232"><ele>282.0</ele><time>2026-04-19T11:59:59Z</time></trkpt><trkpt lat="43.02198666913017" lon="11.63574513530658"><ele>282.0</ele><time>2026-04-19T12:00:02Z</time></trkpt><trkpt lat="43.02197292976008" lon="11.635836368033804"><ele>282.0</ele><time>2026-04-19T12:00:05Z</time></trkpt><trkpt lat="43.0219516009051" lon="11.635704364056854"><ele>282.0</ele><time>2026-04-19T12:00:42Z</time></trkpt><trkpt lat="43.02201352032937" lon="11.635615152870582"><ele>282.0</ele><time>2026-04-19T12:00:43Z</time></trkpt><trkpt lat="43.02204167696694" lon="11.635419585457326"><ele>282.0</ele><time>2026-04-19T12:00:44Z</time></trkpt><trkpt lat="43.02207788275138" lon="11.635168591816662"><ele>282.0</ele><time>2026-04-19T12:00:45Z</time></trkpt><trkpt lat="43.02211343627201" lon="11.634928347811625"><ele>282.0</ele><time>2026-04-19T12:00:46Z</time></trkpt><trkpt lat="43.02214854176315" lon="11.634691131209177"><ele>282.0</ele><time>2026-04-19T12:00:47Z</time></trkpt><trkpt lat="43.02218786814421" lon="11.634416807290552"><ele>281.0</ele><time>2026-04-19T12:00:48Z</time></trkpt><trkpt lat="43.022228633933004" lon="11.6341461563741"><ele>280.0</ele><time>2026-04-19T12:00:49Z</time></trkpt><trkpt lat="43.022266084375154" lon="11.633897516579797"><ele>279.0</ele><time>2026-04-19T12:00:50Z</time></trkpt><trkpt lat="43.02229998039217" lon="11.633672475209847"><ele>278.0</ele><time>2026-04-19T12:00:51Z</time></trkpt><trkpt lat="43.0223314542851" lon="11.633464249715866"><ele>277.0</ele><time>2026-04-19T12:00:52Z</time></trkpt><trkpt lat="43.0223637737488" lon="11.633280751821749"><ele>276.0</ele><time>2026-04-19T12:00:53Z</time></trkpt><trkpt lat="43.02242215618388" lon="11.633098639530074"><ele>275.0</ele><time>2026-04-19T12:00:54Z</time></trkpt><trkpt lat="43.02250015895875" lon="11.632935590784744"><ele>273.0</ele><time>2026-04-19T12:00:55Z</time></trkpt><trkpt lat="43.02260802148976" lon="11.632775170371245"><ele>271.0</ele><time>2026-04-19T12:00:56Z</time></trkpt><trkpt lat="43.022753458811856" lon="11.632625430979353"><ele>269.0</ele><time>2026-04-19T12:00:57Z</time></trkpt><trkpt lat="43.02292364883487" lon="11.632563249798585"><ele>269.0</ele><time>2026-04-19T12:00:58Z</time></trkpt><trkpt lat="43.02310794126335" lon="11.632529549923934"><ele>269.0</ele><time>2026-04-19T12:00:59Z</time></trkpt><trkpt lat="43.023286648237516" lon="11.63246284375824"><ele>269.0</ele><time>2026-04-19T12:01:00Z</time></trkpt><trkpt lat="43.023451976807955" lon="11.63234397754364"><ele>268.6666666666667</ele><time>2026-04-19T12:01:01Z</time></trkpt><trkpt lat="43.0236109481443" lon="11.632169601536479"><ele>268.3333333333333</ele><time>2026-04-19T12:01:02Z</time></trkpt><trkpt lat="43.023776503322345" lon="11.632004093225257"><ele>268.0</ele><time>2026-04-19T12:01:03Z</time></trkpt><trkpt lat="43.023950536970865" lon="11.631844188905097"><ele>267.3333333333333</ele><time>2026-04-19T12:01:04Z</time></trkpt><trkpt lat="43.02412963827056" lon="11.631707767157675"><ele>266.6666666666667</ele><time>2026-04-19T12:01:05Z</time></trkpt><trkpt lat="43.02428197910301" lon="11.631569250237831"><ele>266.0</ele><time>2026-04-19T12:01:06Z</time></trkpt><trkpt lat="43.02442568273124" lon="11.63144049446106"><ele>265.33333333333337</ele><time>2026-04-19T12:01:07Z</time></trkpt><trkpt lat="43.02455397456265" lon="11.631306179189533"><ele>264.6666666666667</ele><time>2026-04-19T12:01:08Z</time></trkpt><trkpt lat="43.024649022719885" lon="11.631136088499405"><ele>264.0</ele><time>2026-04-19T12:01:09Z</time></trkpt><trkpt lat="43.02470348870604" lon="11.630957621907271"><ele>264.3333333333333</ele><time>2026-04-19T12:01:10Z</time></trkpt><trkpt lat="43.024708513219565" lon="11.630740473051016"><ele>264.66666666666663</ele><time>2026-04-19T12:01:11Z</time></trkpt><trkpt lat="43.02469351541162" lon="11.630508228296753"><ele>265.0</ele><time>2026-04-19T12:01:12Z</time></trkpt><trkpt lat="43.02472873568829" lon="11.63025338065314"><ele>265.0</ele><time>2026-04-19T12:01:13Z</time></trkpt><trkpt lat="43.02478265304184" lon="11.630023293345642"><ele>265.0</ele><time>2026-04-19T12:01:14Z</time></trkpt><trkpt lat="43.02486481840818" lon="11.629823304341333"><ele>265.0</ele><time>2026-04-19T12:01:15Z</time></trkpt><trkpt lat="43.024953075025905" lon="11.629647592150825"><ele>265.4</ele><time>2026-04-19T12:01:16Z</time></trkpt><trkpt lat="43.025028278460496" lon="11.629500889074903"><ele>265.8</ele><time>2026-04-19T12:01:17Z</time></trkpt><trkpt lat="43.025093501176734" lon="11.629371212363983"><ele>266.2</ele><time>2026-04-19T12:01:18Z</time></trkpt><trkpt lat="43.02514791103298" lon="11.629263033935072"><ele>266.6</ele><time>2026-04-19T12:01:19Z</time></trkpt><trkpt lat="43.025204995022555" lon="11.629149538772504"><ele>267.0</ele><time>2026-04-19T12:01:20Z</time></trkpt><trkpt lat="43.02525973988995" lon="11.629042711103953"><ele>268.3333333333333</ele><time>2026-04-19T12:01:21Z</time></trkpt><trkpt lat="43.02530346532709" lon="11.628958559580113"><ele>269.66666666666663</ele><time>2026-04-19T12:01:22Z</time></trkpt><trkpt lat="43.02534253233293" lon="11.628883373407776"><ele>271.0</ele><time>2026-04-19T12:01:23Z</time></trkpt><trkpt lat="43.03291019642462" lon="11.627280560771991"><ele>268.5</ele><time>2026-04-19T12:02:25.001Z</time></trkpt><trkpt lat="43.03306351728673" lon="11.627332729864575"><ele>266.0</ele><time>2026-04-19T12:02:26.001Z</time></trkpt><trkpt lat="43.03319954585331" lon="11.627379564551347"><ele>263.5</ele><time>2026-04-19T12:02:27.001Z</time></trkpt><trkpt lat="43.03332284098959" lon="11.627417344352528"><ele>261.0</ele><time>2026-04-19T12:02:28.001Z</time></trkpt><trkpt lat="43.03344887236257" lon="11.627456288600872"><ele>261.0</ele><time>2026-04-19T12:02:29.001Z</time></trkpt><trkpt lat="43.03358928026008" lon="11.627498142184058"><ele>261.0</ele><time>2026-04-19T12:02:30.001Z</time></trkpt><trkpt lat="43.03372660686344" lon="11.627540006220984"><ele>261.0</ele><time>2026-04-19T12:02:31.001Z</time></trkpt><trkpt lat="43.033843850408985" lon="11.627585165466762"><ele>261.0</ele><time>2026-04-19T12:02:32.001Z</time></trkpt><trkpt lat="43.033943632179906" lon="11.627626286765969"><ele>261.0</ele><time>2026-04-19T12:02:33.001Z</time></trkpt><trkpt lat="43.0340269441431" lon="11.627682945434378"><ele>261.0</ele><time>2026-04-19T12:02:35.001Z</time></trkpt><trkpt lat="43.03391991873134" lon="11.62761005956928"><ele>261.0</ele><time>2026-04-19T12:02:44Z</time></trkpt><trkpt lat="43.0338034403735" lon="11.627533002346514"><ele>261.0</ele><time>2026-04-19T12:02:45Z</time></trkpt><trkpt lat="43.033712922606" lon="11.627511531669843"><ele>261.0</ele><time>2026-04-19T12:02:46Z</time></trkpt><trkpt lat="43.03362270333056" lon="11.627501607963302"><ele>261.0</ele><time>2026-04-19T12:02:47Z</time></trkpt><trkpt lat="43.033539537529805" lon="11.62753128447772"><ele>261.0</ele><time>2026-04-19T12:02:48Z</time></trkpt><trkpt lat="43.03347496277653" lon="11.62761805433217"><ele>261.0</ele><time>2026-04-19T12:02:49Z</time></trkpt><trkpt lat="43.033428809567766" lon="11.627735548043894"><ele>261.0</ele><time>2026-04-19T12:02:50Z</time></trkpt><trkpt lat="43.0334069012099" lon="11.627882794831983"><ele>261.0</ele><time>2026-04-19T12:02:51Z</time></trkpt><trkpt lat="43.033397407236265" lon="11.62806430199207"><ele>260.6666666666667</ele><time>2026-04-19T12:02:52Z</time></trkpt><trkpt lat="43.0333917896431" lon="11.628271928142977"><ele>260.33333333333337</ele><time>2026-04-19T12:02:53Z</time></trkpt><trkpt lat="43.03338284062641" lon="11.628501858594175"><ele>260.0</ele><time>2026-04-19T12:02:54Z</time></trkpt><trkpt lat="43.033364776995235" lon="11.62877308486327"><ele>260.0</ele><time>2026-04-19T12:02:55Z</time></trkpt><trkpt lat="43.03334454574601" lon="11.629067795270963"><ele>260.0</ele><time>2026-04-19T12:02:56Z</time></trkpt><trkpt lat="43.03332420564307" lon="11.629355094031443"><ele>260.0</ele><time>2026-04-19T12:02:57Z</time></trkpt><trkpt lat="43.03330629505481" lon="11.629659681156046"><ele>256.5</ele><time>2026-04-19T12:02:58Z</time></trkpt><trkpt lat="43.033295718942995" lon="11.629976148798631"><ele>253.0</ele><time>2026-04-19T12:02:59Z</time></trkpt><trkpt lat="43.03330241313759" lon="11.630301172117521"><ele>256.0</ele><time>2026-04-19T12:03:00Z</time></trkpt><trkpt lat="43.03332724438064" lon="11.630631295687321"><ele>259.0</ele><time>2026-04-19T12:03:01Z</time></trkpt><trkpt lat="43.033354690758955" lon="11.630948821718714"><ele>259.5</ele><time>2026-04-19T12:03:02Z</time></trkpt><trkpt lat="43.03339799256094" lon="11.6312649678798"><ele>260.0</ele><time>2026-04-19T12:03:03Z</time></trkpt><trkpt lat="43.03344279116899" lon="11.631618976597709"><ele>258.5</ele><time>2026-04-19T12:03:04Z</time></trkpt><trkpt lat="43.03348617984967" lon="11.631996124225042"><ele>257.0</ele><time>2026-04-19T12:03:05Z</time></trkpt><trkpt lat="43.03351582793749" lon="11.632349111624062"><ele>257.0</ele><time>2026-04-19T12:03:06Z</time></trkpt><trkpt lat="43.033535778995464" lon="11.632679993423277"><ele>257.0</ele><time>2026-04-19T12:03:07Z</time></trkpt><trkpt lat="43.03355469138001" lon="11.632993687082735"><ele>256.5</ele><time>2026-04-19T12:03:08Z</time></trkpt><trkpt lat="43.033576268712665" lon="11.63331165050339"><ele>256.0</ele><time>2026-04-19T12:03:09Z</time></trkpt><trkpt lat="43.033587619401096" lon="11.633633024816282"><ele>256.0</ele><time>2026-04-19T12:03:10Z</time></trkpt><trkpt lat="43.03357956467975" lon="11.633952971659337"><ele>256.0</ele><time>2026-04-19T12:03:11Z</time></trkpt><trkpt lat="43.03354406722828" lon="11.634274113412975"><ele>257.0</ele><time>2026-04-19T12:03:12Z</time></trkpt><trkpt lat="43.03350444549714" lon="11.634596186942655"><ele>258.0</ele><time>2026-04-19T12:03:13Z</time></trkpt><trkpt lat="43.033472785434554" lon="11.634918310856367"><ele>258.0</ele><time>2026-04-19T12:03:14Z</time></trkpt><trkpt lat="43.0334404219127" lon="11.635234987838395"><ele>258.0</ele><time>2026-04-19T12:03:15Z</time></trkpt><trkpt lat="43.03340971257082" lon="11.635547842357962"><ele>259.0</ele><time>2026-04-19T12:03:16Z</time></trkpt><trkpt lat="43.033397756594105" lon="11.635856829739563"><ele>260.0</ele><time>2026-04-19T12:03:17Z</time></trkpt><trkpt lat="43.03340922449338" lon="11.636175399747593"><ele>260.0</ele><time>2026-04-19T12:03:18Z</time></trkpt><trkpt lat="43.03343801565558" lon="11.63648255999476"><ele>260.0</ele><time>2026-04-19T12:03:19Z</time></trkpt><trkpt lat="43.03346239074211" lon="11.636791000438455"><ele>261.0</ele><time>2026-04-19T12:03:20Z</time></trkpt><trkpt lat="43.033480277566156" lon="11.637101887686164"><ele>262.0</ele><time>2026-04-19T12:03:21Z</time></trkpt><trkpt lat="43.0334963620968" lon="11.637414394509344"><ele>262.0</ele><time>2026-04-19T12:03:22Z</time></trkpt><trkpt lat="43.0335148334063" lon="11.63773101189634"><ele>262.0</ele><time>2026-04-19T12:03:23Z</time></trkpt><trkpt lat="43.03356613362872" lon="11.638372314501051"><ele>261.0</ele><time>2026-04-19T12:03:25Z</time></trkpt><trkpt lat="43.03361411899585" lon="11.63870225212945"><ele>260.0</ele><time>2026-04-19T12:03:26Z</time></trkpt><trkpt lat="43.033677525525356" lon="11.639027152604642"><ele>260.0</ele><time>2026-04-19T12:03:27Z</time></trkpt><trkpt lat="43.033743653196716" lon="11.63935414017368"><ele>260.0</ele><time>2026-04-19T12:03:28Z</time></trkpt><trkpt lat="43.03380908123794" lon="11.639698361650629"><ele>260.0</ele><time>2026-04-19T12:03:29Z</time></trkpt><trkpt lat="43.03387545149699" lon="11.640057725122833"><ele>260.0</ele><time>2026-04-19T12:03:30Z</time></trkpt><trkpt lat="43.033943564509535" lon="11.640413385136654"><ele>260.0</ele><time>2026-04-19T12:03:31Z</time></trkpt><trkpt lat="43.03401074892692" lon="11.640771715788759"><ele>260.0</ele><time>2026-04-19T12:03:32Z</time></trkpt><trkpt lat="43.03407452684342" lon="11.641118970108213"><ele>259.5</ele><time>2026-04-19T12:03:33Z</time></trkpt><trkpt lat="43.034137549578475" lon="11.641467048309917"><ele>259.0</ele><time>2026-04-19T12:03:34Z</time></trkpt><trkpt lat="43.03420247467645" lon="11.641815101309485"><ele>261.0</ele><time>2026-04-19T12:03:35.001Z</time></trkpt><trkpt lat="43.034270139408285" lon="11.642164888768518"><ele>263.0</ele><time>2026-04-19T12:03:36.001Z</time></trkpt><trkpt lat="43.03433545444982" lon="11.642503169370357"><ele>263.0</ele><time>2026-04-19T12:03:37.001Z</time></trkpt><trkpt lat="43.034390459922264" lon="11.642794089574263"><ele>263.0</ele><time>2026-04-19T12:03:38.001Z</time></trkpt><trkpt lat="43.03443375114988" lon="11.643027706368942"><ele>263.0</ele><time>2026-04-19T12:03:39.001Z</time></trkpt><trkpt lat="43.0344670329524" lon="11.643217798692744"><ele>262.75</ele><time>2026-04-19T12:03:40.001Z</time></trkpt><trkpt lat="43.03449932893335" lon="11.643391627146887"><ele>262.5</ele><time>2026-04-19T12:03:41.001Z</time></trkpt><trkpt lat="43.034533547481594" lon="11.64356974805182"><ele>262.25</ele><time>2026-04-19T12:03:42.001Z</time></trkpt><trkpt lat="43.034573786552336" lon="11.643772122167949"><ele>262.0</ele><time>2026-04-19T12:03:43.001Z</time></trkpt><trkpt lat="43.034612921969696" lon="11.643977290932888"><ele>262.0</ele><time>2026-04-19T12:03:44.001Z</time></trkpt><trkpt lat="43.03464992776563" lon="11.64416847686996"><ele>262.0</ele><time>2026-04-19T12:03:45.001Z</time></trkpt><trkpt lat="43.03468198087972" lon="11.644336498858214"><ele>262.0</ele><time>2026-04-19T12:03:46.001Z</time></trkpt><trkpt lat="43.03471042003263" lon="11.64449088938777"><ele>262.0</ele><time>2026-04-19T12:03:47.001Z</time></trkpt><trkpt lat="43.034734806977724" lon="11.64463731324317"><ele>262.0</ele><time>2026-04-19T12:03:48.001Z</time></trkpt><trkpt lat="43.03476069803014" lon="11.644770396933346"><ele>262.0</ele><time>2026-04-19T12:03:49.001Z</time></trkpt><trkpt lat="43.03478253443714" lon="11.644893810591967"><ele>262.0</ele><time>2026-04-19T12:03:50.001Z</time></trkpt><trkpt lat="43.03480161696862" lon="11.645001372533928"><ele>262.0</ele><time>2026-04-19T12:03:51.001Z</time></trkpt><trkpt lat="43.03483737693817" lon="11.645101038846517"><ele>262.0</ele><time>2026-04-19T12:03:52.001Z</time></trkpt><trkpt lat="43.03482770152896" lon="11.645205771330998"><ele>262.0</ele><time>2026-04-19T12:03:53.001Z</time></trkpt><trkpt lat="43.03483503481185" lon="11.645324057152056"><ele>263.0</ele><time>2026-04-19T12:03:54.001Z</time></trkpt><trkpt lat="43.03484900156009" lon="11.645444618486362"><ele>264.0</ele><time>2026-04-19T12:03:55.001Z</time></trkpt><trkpt lat="43.03487001006495" lon="11.645589740459823"><ele>265.0</ele><time>2026-04-19T12:03:56.001Z</time></trkpt><trkpt lat="43.035350440977375" lon="11.6457059084788"><ele>265.0</ele><time>2026-04-19T12:03:57.001Z</time></trkpt><trkpt lat="43.0354927948715" lon="11.645874830405518"><ele>265.0</ele><time>2026-04-19T12:03:58.001Z</time></trkpt><trkpt lat="43.03562957855474" lon="11.64603236476144"><ele>265.0</ele><time>2026-04-19T12:03:59.001Z</time></trkpt><trkpt lat="43.035758233942644" lon="11.646174350623953"><ele>265.0</ele><time>2026-04-19T12:04:00.001Z</time></trkpt><trkpt lat="43.03589708621984" lon="11.6463132587653"><ele>265.0</ele><time>2026-04-19T12:04:01.001Z</time></trkpt><trkpt lat="43.036056951110965" lon="11.64643975681212"><ele>265.0</ele><time>2026-04-19T12:04:02.001Z</time></trkpt><trkpt lat="43.036242977517254" lon="11.646550339733052"><ele>265.0</ele><time>2026-04-19T12:04:03.001Z</time></trkpt><trkpt lat="43.03644662002056" lon="11.646646965448355"><ele>265.0</ele><time>2026-04-19T12:04:04.001Z</time></trkpt><trkpt lat="43.03665769399966" lon="11.64674363242909"><ele>265.0</ele><time>2026-04-19T12:04:05.001Z</time></trkpt><trkpt lat="43.036850314709675" lon="11.646832996851579"><ele>265.0</ele><time>2026-04-19T12:04:06.001Z</time></trkpt><trkpt lat="43.037023462114014" lon="11.646920124168899"><ele>265.0</ele><time>2026-04-19T12:04:07.001Z</time></trkpt><trkpt lat="43.037197215733165" lon="11.647030991340184"><ele>265.0</ele><time>2026-04-19T12:04:08.001Z</time></trkpt><trkpt lat="43.03736899271899" lon="11.647166674614624"><ele>265.3333333333333</ele><time>2026-04-19T12:04:09.001Z</time></trkpt><trkpt lat="43.03755092892629" lon="11.647318484023646"><ele>265.6666666666667</ele><time>2026-04-19T12:04:10.001Z</time></trkpt><trkpt lat="43.037736578221896" lon="11.64746853382877"><ele>266.0</ele><time>2026-04-19T12:04:11.001Z</time></trkpt><trkpt lat="43.037926170871145" lon="11.647624415158228"><ele>266.0</ele><time>2026-04-19T12:04:12.001Z</time></trkpt><trkpt lat="43.03810321554861" lon="11.647765033990762"><ele>266.0</ele><time>2026-04-19T12:04:13.001Z</time></trkpt><trkpt lat="43.03825856646934" lon="11.647894116085082"><ele>266.0</ele><time>2026-04-19T12:04:14.001Z</time></trkpt><trkpt lat="43.03840255658369" lon="11.648008283821083"><ele>267.0</ele><time>2026-04-19T12:04:15.001Z</time></trkpt><trkpt lat="43.03853301846962" lon="11.648093954786672"><ele>268.0</ele><time>2026-04-19T12:04:16Z</time></trkpt><trkpt lat="43.03866588850927" lon="11.64817001676807"><ele>269.0</ele><time>2026-04-19T12:04:17Z</time></trkpt><trkpt lat="43.03882307336832" lon="11.648236569898149"><ele>269.0</ele><time>2026-04-19T12:04:18Z</time></trkpt><trkpt lat="43.039003680295835" lon="11.648284694039077"><ele>269.0</ele><time>2026-04-19T12:04:19Z</time></trkpt><trkpt lat="43.03919208704478" lon="11.648325403248684"><ele>269.0</ele><time>2026-04-19T12:04:20Z</time></trkpt><trkpt lat="43.03935929161506" lon="11.648360850357447"><ele>269.0</ele><time>2026-04-19T12:04:21Z</time></trkpt><trkpt lat="43.039515966157836" lon="11.648384969477597"><ele>269.0</ele><time>2026-04-19T12:04:22Z</time></trkpt><trkpt lat="43.03969281139002" lon="11.648376874248628"><ele>269.0</ele><time>2026-04-19T12:04:23Z</time></trkpt><trkpt lat="43.04560272575953" lon="11.65342228069817"><ele>272.25</ele><time>2026-04-19T12:05:25Z</time></trkpt><trkpt lat="43.045697571689914" lon="11.653605546414152"><ele>275.5</ele><time>2026-04-19T12:05:26Z</time></trkpt><trkpt lat="43.04577887045183" lon="11.653770481733682"><ele>278.75</ele><time>2026-04-19T12:05:27Z</time></trkpt><trkpt lat="43.04585156447493" lon="11.653919108903473"><ele>282.0</ele><time>2026-04-19T12:05:28Z</time></trkpt><trkpt lat="43.04593100435516" lon="11.654076146447988"><ele>282.0</ele><time>2026-04-19T12:05:29Z</time></trkpt><trkpt lat="43.046003929075" lon="11.654222622416517"><ele>282.0</ele><time>2026-04-19T12:05:30Z</time></trkpt><trkpt lat="43.0460643065922" lon="11.654346129504539"><ele>282.0</ele><time>2026-04-19T12:05:31Z</time></trkpt><trkpt lat="43.04612052156905" lon="11.654447448046291"><ele>282.0</ele><time>2026-04-19T12:05:32Z</time></trkpt><trkpt lat="43.04617303692547" lon="11.654530335546193"><ele>282.0</ele><time>2026-04-19T12:05:33Z</time></trkpt><trkpt lat="43.04623830637214" lon="11.65461053586734"><ele>281.8</ele><time>2026-04-19T12:05:34Z</time></trkpt><trkpt lat="43.046317997561495" lon="11.65467701539194"><ele>281.6</ele><time>2026-04-19T12:05:35Z</time></trkpt><trkpt lat="43.04640204908404" lon="11.654715501788322"><ele>281.40000000000003</ele><time>2026-04-19T12:05:36Z</time></trkpt><trkpt lat="43.046500571292995" lon="11.654730883249064"><ele>281.2</ele><time>2026-04-19T12:05:37Z</time></trkpt><trkpt lat="43.046608015001226" lon="11.654749864472606"><ele>281.0</ele><time>2026-04-19T12:05:38Z</time></trkpt><trkpt lat="43.04674083858515" lon="11.65474322563146"><ele>281.0</ele><time>2026-04-19T12:05:39Z</time></trkpt><trkpt lat="43.04688938568714" lon="11.654727461971776"><ele>281.0</ele><time>2026-04-19T12:05:40Z</time></trkpt><trkpt lat="43.0470383471468" lon="11.65468169355531"><ele>281.0</ele><time>2026-04-19T12:05:41Z</time></trkpt><trkpt lat="43.047192077560574" lon="11.65467773169101"><ele>281.0</ele><time>2026-04-19T12:05:42Z</time></trkpt><trkpt lat="43.047332814797" lon="11.654657795887061"><ele>281.0</ele><time>2026-04-19T12:05:43Z</time></trkpt><trkpt lat="43.047458683451495" lon="11.654641074184642"><ele>281.0</ele><time>2026-04-19T12:05:44Z</time></trkpt><trkpt lat="43.04756970535498" lon="11.65461242981815"><ele>281.0</ele><time>2026-04-19T12:05:45Z</time></trkpt><trkpt lat="43.0476798371698" lon="11.654625539091375"><ele>281.0</ele><time>2026-04-19T12:05:46Z</time></trkpt><trkpt lat="43.04778522174851" lon="11.65465865548499"><ele>281.0</ele><time>2026-04-19T12:05:47Z</time></trkpt><trkpt lat="43.04789060141972" lon="11.654727772904288"><ele>281.0</ele><time>2026-04-19T12:05:48Z</time></trkpt><trkpt lat="43.048008580346" lon="11.65483451305853"><ele>281.0</ele><time>2026-04-19T12:05:49Z</time></trkpt><trkpt lat="43.048138525410224" lon="11.654971840716357"><ele>281.0</ele><time>2026-04-19T12:05:50Z</time></trkpt><trkpt lat="43.04828391220951" lon="11.655123968472033"><ele>281.0</ele><time>2026-04-19T12:05:51Z</time></trkpt><trkpt lat="43.048429077685945" lon="11.655278263668974"><ele>281.0</ele><time>2026-04-19T12:05:52Z</time></trkpt><trkpt lat="43.04858559011917" lon="11.655435583182987"><ele>280.33333333333337</ele><time>2026-04-19T12:05:53Z</time></trkpt><trkpt lat="43.048742682886264" lon="11.655595741199555"><ele>279.6666666666667</ele><time>2026-04-19T12:05:54Z</time></trkpt><trkpt lat="43.04891049778191" lon="11.655764539548626"><ele>279.0</ele><time>2026-04-19T12:05:55Z</time></trkpt><trkpt lat="43.04909299253769" lon="11.655948741668517"><ele>279.3333333333333</ele><time>2026-04-19T12:05:56Z</time></trkpt><trkpt lat="43.049246905088985" lon="11.656106041900472"><ele>279.66666666666663</ele><time>2026-04-19T12:05:57Z</time></trkpt><trkpt lat="43.04938491055901" lon="11.656245115571457"><ele>280.0</ele><time>2026-04-19T12:05:58Z</time></trkpt><trkpt lat="43.049513667456566" lon="11.656377682475277"><ele>280.25</ele><time>2026-04-19T12:05:59Z</time></trkpt><trkpt lat="43.0496396642236" lon="11.656504329737599"><ele>280.5</ele><time>2026-04-19T12:06:00Z</time></trkpt><trkpt lat="43.04975495873428" lon="11.656622084689188"><ele>280.75</ele><time>2026-04-19T12:06:01Z</time></trkpt><trkpt lat="43.04984974885105" lon="11.656732542512563"><ele>281.0</ele><time>2026-04-19T12:06:02Z</time></trkpt><trkpt lat="43.04994329530584" lon="11.6568319101344"><ele>281.5</ele><time>2026-04-19T12:06:03Z</time></trkpt><trkpt lat="43.05003703069884" lon="11.65690774820741"><ele>282.0</ele><time>2026-04-19T12:06:04Z</time></trkpt><trkpt lat="43.05014478091165" lon="11.656964612944952"><ele>282.5</ele><time>2026-04-19T12:06:05Z</time></trkpt><trkpt lat="43.05026710747636" lon="11.657001631910191"><ele>283.0</ele><time>2026-04-19T12:06:06Z</time></trkpt><trkpt lat="43.05040897795327" lon="11.65699906711375"><ele>283.0</ele><time>2026-04-19T12:06:07Z</time></trkpt><trkpt lat="43.05057099067067" lon="11.65696491814585"><ele>283.0</ele><time>2026-04-19T12:06:08Z</time></trkpt><trkpt lat="43.05073847061526" lon="11.656918671353546"><ele>283.0</ele><time>2026-04-19T12:06:09Z</time></trkpt><trkpt lat="43.05088563102953" lon="11.656880649047235"><ele>283.0</ele><time>2026-04-19T12:06:10Z</time></trkpt><trkpt lat="43.051023700357455" lon="11.656852841242557"><ele>283.0</ele><time>2026-04-19T12:06:11Z</time></trkpt><trkpt lat="43.05115977991734" lon="11.656843414750488"><ele>283.0</ele><time>2026-04-19T12:06:12Z</time></trkpt><trkpt lat="43.05130501533133" lon="11.656860093995345"><ele>283.0</ele><time>2026-04-19T12:06:13Z</time></trkpt><trkpt lat="43.05145763690541" lon="11.656896159632801"><ele>283.0</ele><time>2026-04-19T12:06:14Z</time></trkpt><trkpt lat="43.05161034416961" lon="11.65694833555723"><ele>283.0</ele><time>2026-04-19T12:06:15Z</time></trkpt><trkpt lat="43.0517548630875" lon="11.656995671487586"><ele>283.0</ele><time>2026-04-19T12:06:16Z</time></trkpt><trkpt lat="43.0518883892062" lon="11.65704765594577"><ele>283.0</ele><time>2026-04-19T12:06:17Z</time></trkpt><trkpt lat="43.052034846814585" lon="11.657132716564186"><ele>284.66666666666663</ele><time>2026-04-19T12:06:18Z</time></trkpt><trkpt lat="43.0521882201673" lon="11.657244552133424"><ele>286.3333333333333</ele><time>2026-04-19T12:06:19Z</time></trkpt><trkpt lat="43.05233681400486" lon="11.657375852142149"><ele>288.0</ele><time>2026-04-19T12:06:20Z</time></trkpt><trkpt lat="43.05247892637037" lon="11.657489992787871"><ele>288.0</ele><time>2026-04-19T12:06:21Z</time></trkpt><trkpt lat="43.05260432042073" lon="11.657591208633201"><ele>288.0</ele><time>2026-04-19T12:06:22Z</time></trkpt><trkpt lat="43.05271838019799" lon="11.657679904112722"><ele>288.0</ele><time>2026-04-19T12:06:23Z</time></trkpt><trkpt lat="43.052821969177785" lon="11.657767306754707"><ele>288.0</ele><time>2026-04-19T12:06:24Z</time></trkpt><trkpt lat="43.06044942649447" lon="11.666937483511635"><ele>290.0</ele><time>2026-04-19T12:07:25Z</time></trkpt><trkpt lat="43.06049138430416" lon="11.667147400725236"><ele>292.0</ele><time>2026-04-19T12:07:26Z</time></trkpt><trkpt lat="43.0605530562376" lon="11.667398458735482"><ele>294.0</ele><time>2026-04-19T12:07:27Z</time></trkpt><trkpt lat="43.06062959954529" lon="11.667682749971128"><ele>293.5</ele><time>2026-04-19T12:07:28Z</time></trkpt><trkpt lat="43.06070748792437" lon="11.667992344825482"><ele>293.0</ele><time>2026-04-19T12:07:29Z</time></trkpt><trkpt lat="43.060771722297574" lon="11.668295904308552"><ele>293.0</ele><time>2026-04-19T12:07:30Z</time></trkpt><trkpt lat="43.06083273277557" lon="11.668553493796354"><ele>293.0</ele><time>2026-04-19T12:07:31Z</time></trkpt><trkpt lat="43.060886977917534" lon="11.668772792108046"><ele>293.0</ele><time>2026-04-19T12:07:32Z</time></trkpt><trkpt lat="43.06093212263404" lon="11.668964231979974"><ele>293.0</ele><time>2026-04-19T12:07:33Z</time></trkpt><trkpt lat="43.06096814656473" lon="11.66910027689075"><ele>293.0</ele><time>2026-04-19T12:07:34Z</time></trkpt><trkpt lat="43.06101680877257" lon="11.669182991540197"><ele>293.0</ele><time>2026-04-19T12:07:35Z</time></trkpt><trkpt lat="43.061066283802646" lon="11.669255231872635"><ele>293.0</ele><time>2026-04-19T12:07:36Z</time></trkpt><trkpt lat="43.06113467867109" lon="11.669341214287583"><ele>293.0</ele><time>2026-04-19T12:07:37Z</time></trkpt><trkpt lat="43.06122371572693" lon="11.669443336012463"><ele>293.0</ele><time>2026-04-19T12:07:38Z</time></trkpt><trkpt lat="43.061329538633174" lon="11.669532956058362"><ele>293.0</ele><time>2026-04-19T12:07:39Z</time></trkpt><trkpt lat="43.061447764586866" lon="11.669640308004423"><ele>293.0</ele><time>2026-04-19T12:07:40Z</time></trkpt><trkpt lat="43.06156813982622" lon="11.669752220231068"><ele>293.0</ele><time>2026-04-19T12:07:41Z</time></trkpt><trkpt lat="43.061712086745594" lon="11.669864409541654"><ele>293.33333333333337</ele><time>2026-04-19T12:07:42Z</time></trkpt><trkpt lat="43.06185558624094" lon="11.669972839528784"><ele>293.6666666666667</ele><time>2026-04-19T12:07:43Z</time></trkpt><trkpt lat="43.06201669745362" lon="11.670084238105023"><ele>294.0</ele><time>2026-04-19T12:07:44Z</time></trkpt><trkpt lat="43.06218042038422" lon="11.67020115355828"><ele>294.3333333333333</ele><time>2026-04-19T12:07:45Z</time></trkpt><trkpt lat="43.06234634421649" lon="11.670317657600386"><ele>294.66666666666663</ele><time>2026-04-19T12:07:46Z</time></trkpt><trkpt lat="43.06251202549599" lon="11.67043435069903"><ele>295.0</ele><time>2026-04-19T12:07:47Z</time></trkpt><trkpt lat="43.06268838219282" lon="11.670556995495733"><ele>295.3333333333333</ele><time>2026-04-19T12:07:48Z</time></trkpt><trkpt lat="43.06288108789638" lon="11.670693961060044"><ele>295.6666666666667</ele><time>2026-04-19T12:07:49Z</time></trkpt><trkpt lat="43.06307015048683" lon="11.670823878686049"><ele>296.0</ele><time>2026-04-19T12:07:50Z</time></trkpt><trkpt lat="43.06325543206521" lon="11.670945461370431"><ele>297.0</ele><time>2026-04-19T12:07:51Z</time></trkpt><trkpt lat="43.063435313898495" lon="11.671064945759744"><ele>298.0</ele><time>2026-04-19T12:07:52Z</time></trkpt><trkpt lat="43.06361839329631" lon="11.671191419431306"><ele>299.0</ele><time>2026-04-19T12:07:53Z</time></trkpt><trkpt lat="43.06379412728733" lon="11.671309555661455"><ele>299.33333333333337</ele><time>2026-04-19T12:07:54Z</time></trkpt><trkpt lat="43.06397208905555" lon="11.671424860551154"><ele>299.6666666666667</ele><time>2026-04-19T12:07:55Z</time></trkpt><trkpt lat="43.064148430123275" lon="11.671542155242028"><ele>300.0</ele><time>2026-04-19T12:07:56Z</time></trkpt><trkpt lat="43.06432019640212" lon="11.671657854143419"><ele>300.6666666666667</ele><time>2026-04-19T12:07:57Z</time></trkpt><trkpt lat="43.064471031089646" lon="11.671757313453856"><ele>301.33333333333337</ele><time>2026-04-19T12:07:58Z</time></trkpt><trkpt lat="43.064608980132334" lon="11.671848480749999"><ele>302.0</ele><time>2026-04-19T12:07:59Z</time></trkpt><trkpt lat="43.06474943258235" lon="11.671942334890653"><ele>302.0</ele><time>2026-04-19T12:08:00Z</time></trkpt><trkpt lat="43.064885039809425" lon="11.67204063588223"><ele>302.0</ele><time>2026-04-19T12:08:01Z</time></trkpt><trkpt lat="43.06500463524509" lon="11.67212241708354"><ele>302.0</ele><time>2026-04-19T12:08:02Z</time></trkpt><trkpt lat="43.06510294618057" lon="11.672175280263394"><ele>302.0</ele><time>2026-04-19T12:08:03Z</time></trkpt><trkpt lat="43.065192795891775" lon="11.67220583054784"><ele>302.8</ele><time>2026-04-19T12:08:04Z</time></trkpt><trkpt lat="43.06528322514134" lon="11.67220796327879"><ele>303.6</ele><time>2026-04-19T12:08:05Z</time></trkpt><trkpt lat="43.06538365189538" lon="11.672200773542876"><ele>304.40000000000003</ele><time>2026-04-19T12:08:06Z</time></trkpt><trkpt lat="43.06547335416948" lon="11.672124753629921"><ele>305.2</ele><time>2026-04-19T12:08:07Z</time></trkpt><trkpt lat="43.065551103474384" lon="11.672016398474256"><ele>306.0</ele><time>2026-04-19T12:08:08Z</time></trkpt><trkpt lat="43.06562061065497" lon="11.671924184656966"><ele>306.0</ele><time>2026-04-19T12:08:09Z</time></trkpt><trkpt lat="43.0656904039093" lon="11.671873694749658"><ele>306.0</ele><time>2026-04-19T12:08:10Z</time></trkpt><trkpt lat="43.06578122793355" lon="11.671889437975745"><ele>306.0</ele><time>2026-04-19T12:08:11Z</time></trkpt><trkpt lat="43.065880128372854" lon="11.671934687087683"><ele>306.0</ele><time>2026-04-19T12:08:12Z</time></trkpt><trkpt lat="43.06598226590221" lon="11.671998969699729"><ele>306.0</ele><time>2026-04-19T12:08:13Z</time></trkpt><trkpt lat="43.06609224260799" lon="11.67206121551115"><ele>308.2</ele><time>2026-04-19T12:08:14Z</time></trkpt><trkpt lat="43.06617592933858" lon="11.67212569172084"><ele>310.40000000000003</ele><time>2026-04-19T12:08:15Z</time></trkpt><trkpt lat="43.0662351971192" lon="11.67222559751558"><ele>312.6</ele><time>2026-04-19T12:08:16Z</time></trkpt><trkpt lat="43.06627548236264" lon="11.67236016978109"><ele>314.8</ele><time>2026-04-19T12:08:17Z</time></trkpt><trkpt lat="43.06631640362495" lon="11.672473689611781"><ele>317.0</ele><time>2026-04-19T12:08:18Z</time></trkpt><trkpt lat="43.06638582167245" lon="11.67255923435327"><ele>317.0</ele><time>2026-04-19T12:08:19Z</time></trkpt><trkpt lat="43.06648045739128" lon="11.672613781612196"><ele>317.0</ele><time>2026-04-19T12:08:20Z</time></trkpt><trkpt lat="43.066567527982016" lon="11.672657548270855"><ele>317.0</ele><time>2026-04-19T12:08:21Z</time></trkpt><trkpt lat="43.06662870803361" lon="11.672716400102841"><ele>317.0</ele><time>2026-04-19T12:08:22Z</time></trkpt><trkpt lat="43.06666466530175" lon="11.672788850930266"><ele>317.0</ele><time>2026-04-19T12:08:23Z</time></trkpt><trkpt lat="43.06849372962593" lon="11.678389164219766"><ele>326.25</ele><time>2026-04-19T12:09:25Z</time></trkpt><trkpt lat="43.06845149541136" lon="11.678474523194412"><ele>335.5</ele><time>2026-04-19T12:09:28Z</time></trkpt><trkpt lat="43.06849671445581" lon="11.67875293018988"><ele>344.75</ele><time>2026-04-19T12:09:30Z</time></trkpt><trkpt lat="43.068489610515655" lon="11.678902474668684"><ele>354.0</ele><time>2026-04-19T12:09:31Z</time></trkpt><trkpt lat="43.06847033829658" lon="11.679050036701337"><ele>355.75</ele><time>2026-04-19T12:09:32Z</time></trkpt><trkpt lat="43.06844167252851" lon="11.679217427032679"><ele>357.5</ele><time>2026-04-19T12:09:33Z</time></trkpt><trkpt lat="43.06841479600009" lon="11.679398148216347"><ele>359.25</ele><time>2026-04-19T12:09:34Z</time></trkpt><trkpt lat="43.06839848696526" lon="11.679573528677794"><ele>361.0</ele><time>2026-04-19T12:09:35Z</time></trkpt><trkpt lat="43.06841381450757" lon="11.679733095832768"><ele>361.25</ele><time>2026-04-19T12:09:36Z</time></trkpt><trkpt lat="43.0684734919565" lon="11.679866631363995"><ele>361.5</ele><time>2026-04-19T12:09:37Z</time></trkpt><trkpt lat="43.068574543571934" lon="11.679970092550594"><ele>361.75</ele><time>2026-04-19T12:09:38Z</time></trkpt><trkpt lat="43.06869449004584" lon="11.680020322556036"><ele>362.0</ele><time>2026-04-19T12:09:39Z</time></trkpt><trkpt lat="43.068805625634205" lon="11.679989426101233"><ele>362.0</ele><time>2026-04-19T12:09:40Z</time></trkpt><trkpt lat="43.0689038161493" lon="11.679888850401849"><ele>362.0</ele><time>2026-04-19T12:09:41Z</time></trkpt><trkpt lat="43.06898222669118" lon="11.679723506176323"><ele>362.0</ele><time>2026-04-19T12:09:42Z</time></trkpt><trkpt lat="43.06903320094692" lon="11.679500890085343"><ele>362.0</ele><time>2026-04-19T12:09:43Z</time></trkpt><trkpt lat="43.06909400362067" lon="11.679295928401178"><ele>364.25</ele><time>2026-04-19T12:09:44Z</time></trkpt><trkpt lat="43.069157366533496" lon="11.67913707587929"><ele>366.5</ele><time>2026-04-19T12:09:45Z</time></trkpt><trkpt lat="43.06923713034898" lon="11.679010787054708"><ele>368.75</ele><time>2026-04-19T12:09:46Z</time></trkpt><trkpt lat="43.069355497985676" lon="11.678917818320016"><ele>371.0</ele><time>2026-04-19T12:09:47Z</time></trkpt><trkpt lat="43.069508241827165" lon="11.678859887687883"><ele>371.0</ele><time>2026-04-19T12:09:48Z</time></trkpt><trkpt lat="43.069693923089886" lon="11.67883633330078"><ele>371.0</ele><time>2026-04-19T12:09:49Z</time></trkpt><trkpt lat="43.0699099851109" lon="11.678814000575407"><ele>371.0</ele><time>2026-04-19T12:09:50Z</time></trkpt><trkpt lat="43.070144082423354" lon="11.678799892134725"><ele>375.5</ele><time>2026-04-19T12:09:51Z</time></trkpt><trkpt lat="43.070385739589774" lon="11.678761723044426"><ele>380.0</ele><time>2026-04-19T12:09:52Z</time></trkpt><trkpt lat="43.07064974798233" lon="11.678728971696016"><ele>383.5</ele><time>2026-04-19T12:09:53Z</time></trkpt><trkpt lat="43.070928890921984" lon="11.678697264866129"><ele>387.0</ele><time>2026-04-19T12:09:54Z</time></trkpt><trkpt lat="43.071218796855995" lon="11.678665142916795"><ele>387.0</ele><time>2026-04-19T12:09:55Z</time></trkpt><trkpt lat="43.07149722668946" lon="11.6786308075009"><ele>387.0</ele><time>2026-04-19T12:09:56Z</time></trkpt><trkpt lat="43.07171868445329" lon="11.678601965842066"><ele>386.5</ele><time>2026-04-19T12:09:57Z</time></trkpt><trkpt lat="43.07188471942556" lon="11.678578719719333"><ele>386.0</ele><time>2026-04-19T12:09:58Z</time></trkpt><trkpt lat="43.07201444440446" lon="11.678578735492215"><ele>385.5</ele><time>2026-04-19T12:09:59Z</time></trkpt><trkpt lat="43.07212641790705" lon="11.678627088672533"><ele>385.0</ele><time>2026-04-19T12:10:00Z</time></trkpt><trkpt lat="43.072200938386516" lon="11.678736821148942"><ele>387.5</ele><time>2026-04-19T12:10:01Z</time></trkpt><trkpt lat="43.07221691137662" lon="11.678889490423638"><ele>390.0</ele><time>2026-04-19T12:10:02Z</time></trkpt><trkpt lat="43.07217772956422" lon="11.679054393991116"><ele>392.5</ele><time>2026-04-19T12:10:03Z</time></trkpt><trkpt lat="43.0721154575067" lon="11.679247119590155"><ele>395.0</ele><time>2026-04-19T12:10:04Z</time></trkpt><trkpt lat="43.072038801795095" lon="11.67947171863197"><ele>396.0</ele><time>2026-04-19T12:10:05Z</time></trkpt><trkpt lat="43.07197232472736" lon="11.67969161679476"><ele>397.0</ele><time>2026-04-19T12:10:06Z</time></trkpt><trkpt lat="43.07192632511085" lon="11.679868443163429"><ele>398.0</ele><time>2026-04-19T12:10:07Z</time></trkpt><trkpt lat="43.07190813445059" lon="11.68002361707528"><ele>399.0</ele><time>2026-04-19T12:10:08Z</time></trkpt><trkpt lat="43.071947188839886" lon="11.680164728963282"><ele>399.0</ele><time>2026-04-19T12:10:09Z</time></trkpt><trkpt lat="43.07203962765929" lon="11.680270332738319"><ele>399.0</ele><time>2026-04-19T12:10:10Z</time></trkpt><trkpt lat="43.07215994775311" lon="11.680306344603695"><ele>399.0</ele><time>2026-04-19T12:10:11Z</time></trkpt><trkpt lat="43.07226837471864" lon="11.680252443293213"><ele>399.0</ele><time>2026-04-19T12:10:12Z</time></trkpt><trkpt lat="43.072367212455745" lon="11.680119670840035"><ele>402.0</ele><time>2026-04-19T12:10:13Z</time></trkpt><trkpt lat="43.072464564084655" lon="11.679927882952901"><ele>405.0</ele><time>2026-04-19T12:10:14Z</time></trkpt><trkpt lat="43.07257070924452" lon="11.679702757321426"><ele>408.0</ele><time>2026-04-19T12:10:15.001Z</time></trkpt><trkpt lat="43.07268561153777" lon="11.679447076354831"><ele>407.0</ele><time>2026-04-19T12:10:16.001Z</time></trkpt><trkpt lat="43.07279519020131" lon="11.679209137742887"><ele>406.0</ele><time>2026-04-19T12:10:17.001Z</time></trkpt><trkpt lat="43.07291852223184" lon="11.679004884670222"><ele>405.0</ele><time>2026-04-19T12:10:18.001Z</time></trkpt><trkpt lat="43.073054901442" lon="11.678823317679749"><ele>405.0</ele><time>2026-04-19T12:10:19.001Z</time></trkpt><trkpt lat="43.07321635517306" lon="11.678640517826205"><ele>405.0</ele><time>2026-04-19T12:10:20.001Z</time></trkpt><trkpt lat="43.073377004944774" lon="11.678403381847197"><ele>405.0</ele><time>2026-04-19T12:10:21.001Z</time></trkpt><trkpt lat="43.07354775256661" lon="11.678145829741595"><ele>405.0</ele><time>2026-04-19T12:10:22.001Z</time></trkpt><trkpt lat="43.073660112863195" lon="11.677883540059772"><ele>405.0</ele><time>2026-04-19T12:10:23.001Z</time></trkpt><trkpt lat="43.07408455445104" lon="11.67648285082654"><ele>405.0</ele><time>2026-04-19T12:11:25Z</time></trkpt><trkpt lat="43.074030803728284" lon="11.676695821349629"><ele>405.0</ele><time>2026-04-19T12:11:26Z</time></trkpt><trkpt lat="43.073973403698886" lon="11.676928568129876"><ele>405.0</ele><time>2026-04-19T12:11:27Z</time></trkpt><trkpt lat="43.07390654466254" lon="11.67716936872009"><ele>406.0</ele><time>2026-04-19T12:11:28Z</time></trkpt><trkpt lat="43.07382575787362" lon="11.67739783665252"><ele>407.0</ele><time>2026-04-19T12:11:29Z</time></trkpt><trkpt lat="43.07374392691964" lon="11.677604143462347"><ele>408.0</ele><time>2026-04-19T12:11:30Z</time></trkpt><trkpt lat="43.07365986675736" lon="11.677806831323021"><ele>409.66666666666663</ele><time>2026-04-19T12:11:31Z</time></trkpt><trkpt lat="43.07358149623785" lon="11.677995007833385"><ele>411.3333333333333</ele><time>2026-04-19T12:11:32Z</time></trkpt><trkpt lat="43.0734881994215" lon="11.678185249848674"><ele>413.0</ele><time>2026-04-19T12:11:33Z</time></trkpt><trkpt lat="43.073366398973114" lon="11.67838590198155"><ele>410.3333333333333</ele><time>2026-04-19T12:11:34Z</time></trkpt><trkpt lat="43.073225320795295" lon="11.678568506901113"><ele>407.66666666666663</ele><time>2026-04-19T12:11:35Z</time></trkpt><trkpt lat="43.07308746532653" lon="11.678722144629434"><ele>405.0</ele><time>2026-04-19T12:11:36Z</time></trkpt><trkpt lat="43.07296135659271" lon="11.678870534159675"><ele>405.0</ele><time>2026-04-19T12:11:37Z</time></trkpt><trkpt lat="43.072838970488334" lon="11.679034633505811"><ele>405.0</ele><time>2026-04-19T12:11:38Z</time></trkpt><trkpt lat="43.0727377305289" lon="11.679210892070012"><ele>405.0</ele><time>2026-04-19T12:11:39Z</time></trkpt><trkpt lat="43.07265570932219" lon="11.679383701818393"><ele>405.75</ele><time>2026-04-19T12:11:40Z</time></trkpt><trkpt lat="43.07257883258607" lon="11.679558512337266"><ele>406.5</ele><time>2026-04-19T12:11:41Z</time></trkpt><trkpt lat="43.07250823208802" lon="11.679719907346763"><ele>407.25</ele><time>2026-04-19T12:11:42Z</time></trkpt><trkpt lat="43.07243828190324" lon="11.679876875282213"><ele>408.0</ele><time>2026-04-19T12:11:43Z</time></trkpt><trkpt lat="43.07237162587776" lon="11.680010098823509"><ele>408.1666666666667</ele><time>2026-04-19T12:11:44Z</time></trkpt><trkpt lat="43.07231493577148" lon="11.680111713119606"><ele>408.33333333333337</ele><time>2026-04-19T12:11:45Z</time></trkpt><trkpt lat="43.072279640159145" lon="11.680184560430963"><ele>408.5</ele><time>2026-04-19T12:11:46Z</time></trkpt><trkpt lat="43.07232481425701" lon="11.680296999550242"><ele>408.6666666666667</ele><time>2026-04-19T12:11:49Z</time></trkpt><trkpt lat="43.07238173656824" lon="11.680341443461211"><ele>408.83333333333337</ele><time>2026-04-19T12:11:50Z</time></trkpt><trkpt lat="43.0724546844108" lon="11.680392422060802"><ele>409.0</ele><time>2026-04-19T12:11:51Z</time></trkpt><trkpt lat="43.07253224592703" lon="11.680454649760767"><ele>409.0</ele><time>2026-04-19T12:11:52Z</time></trkpt><trkpt lat="43.072623569311354" lon="11.680543590176592"><ele>409.0</ele><time>2026-04-19T12:11:53Z</time></trkpt><trkpt lat="43.07271239102285" lon="11.680641066715944"><ele>409.0</ele><time>2026-04-19T12:11:54Z</time></trkpt><trkpt lat="43.07279812741463" lon="11.680750409927107"><ele>409.0</ele><time>2026-04-19T12:11:55Z</time></trkpt><trkpt lat="43.072881373174845" lon="11.680866760580118"><ele>409.0</ele><time>2026-04-19T12:11:56Z</time></trkpt><trkpt lat="43.07295258642315" lon="11.680995130963897"><ele>409.0</ele><time>2026-04-19T12:11:57Z</time></trkpt><trkpt lat="43.07301450797869" lon="11.681139593743538"><ele>409.0</ele><time>2026-04-19T12:11:58Z</time></trkpt><trkpt lat="43.073083603012556" lon="11.68126969538125"><ele>409.0</ele><time>2026-04-19T12:11:59Z</time></trkpt><trkpt lat="43.07313964038667" lon="11.681366644146145"><ele>409.0</ele><time>2026-04-19T12:12:00Z</time></trkpt><trkpt lat="43.07318514533008" lon="11.681434753829924"><ele>408.6</ele><time>2026-04-19T12:12:01Z</time></trkpt><trkpt lat="43.07326925107901" lon="11.681548403640539"><ele>408.2</ele><time>2026-04-19T12:12:03Z</time></trkpt><trkpt lat="43.073339656670555" lon="11.68160293950167"><ele>407.8</ele><time>2026-04-19T12:12:04Z</time></trkpt><trkpt lat="43.07342626962729" lon="11.681641124340445"><ele>407.40000000000003</ele><time>2026-04-19T12:12:05Z</time></trkpt><trkpt lat="43.07353581753298" lon="11.68168479390109"><ele>407.0</ele><time>2026-04-19T12:12:06Z</time></trkpt><trkpt lat="43.07365871979494" lon="11.681708114203328"><ele>411.0</ele><time>2026-04-19T12:12:07Z</time></trkpt><trkpt lat="43.07377952559924" lon="11.681731210842534"><ele>415.0</ele><time>2026-04-19T12:12:08Z</time></trkpt><trkpt lat="43.07386778912244" lon="11.681755067297905"><ele>419.00000000000006</ele><time>2026-04-19T12:12:09Z</time></trkpt><trkpt lat="43.073960726455056" lon="11.681761175481332"><ele>423.0</ele><time>2026-04-19T12:12:11Z</time></trkpt><trkpt lat="43.07408426074951" lon="11.681676553781175"><ele>427.0</ele><time>2026-04-19T12:12:13Z</time></trkpt><trkpt lat="43.07414524695587" lon="11.681561599433465"><ele>429.83333333333337</ele><time>2026-04-19T12:12:14Z</time></trkpt><trkpt lat="43.07420468306903" lon="11.681447513999839"><ele>432.6666666666667</ele><time>2026-04-19T12:12:15Z</time></trkpt><trkpt lat="43.07426737530201" lon="11.681325253595457"><ele>435.5</ele><time>2026-04-19T12:12:16Z</time></trkpt><trkpt lat="43.07431416595836" lon="11.681235121511008"><ele>438.33333333333337</ele><time>2026-04-19T12:12:17Z</time></trkpt><trkpt lat="43.074357540225684" lon="11.681167986292579"><ele>441.1666666666667</ele><time>2026-04-19T12:12:18Z</time></trkpt><trkpt lat="43.07441543786129" lon="11.681089772628967"><ele>444.0</ele><time>2026-04-19T12:12:19Z</time></trkpt><trkpt lat="43.07449709060519" lon="11.681008492621423"><ele>445.2</ele><time>2026-04-19T12:12:20Z</time></trkpt><trkpt lat="43.074597694585044" lon="11.680922776948098"><ele>446.4</ele><time>2026-04-19T12:12:21Z</time></trkpt><trkpt lat="43.074687112006" lon="11.680833137121795"><ele>447.6</ele><time>2026-04-19T12:12:22Z</time></trkpt><trkpt lat="43.074748131064815" lon="11.680756783009942"><ele>448.8</ele><time>2026-04-19T12:12:23Z</time></trkpt><trkpt lat="43.074795564161086" lon="11.680688048393304"><ele>450.0</ele><time>2026-04-19T12:12:24Z</time></trkpt><trkpt lat="43.076653632006916" lon="11.68182413658386"><ele>456.6</ele><time>2026-04-19T12:13:25Z</time></trkpt><trkpt lat="43.07677855019282" lon="11.681814362036734"><ele>463.2</ele><time>2026-04-19T12:13:26Z</time></trkpt><trkpt lat="43.07687860451369" lon="11.681797710748583"><ele>469.79999999999995</ele><time>2026-04-19T12:13:27Z</time></trkpt><trkpt lat="43.07695666258355" lon="11.68176314392905"><ele>476.4</ele><time>2026-04-19T12:13:28Z</time></trkpt><trkpt lat="43.077020669934974" lon="11.681729465983059"><ele>483.0</ele><time>2026-04-19T12:13:29Z</time></trkpt><trkpt lat="43.07705876083177" lon="11.681604826377573"><ele>483.0</ele><time>2026-04-19T12:13:30Z</time></trkpt><trkpt lat="43.07704060165535" lon="11.681458693758259"><ele>482.99999999999994</ele><time>2026-04-19T12:13:31Z</time></trkpt><trkpt lat="43.0770476457749" lon="11.681320828128364"><ele>482.99999999999994</ele><time>2026-04-19T12:13:32Z</time></trkpt><trkpt lat="43.07708108652577" lon="11.681173179470436"><ele>483.0</ele><time>2026-04-19T12:13:33Z</time></trkpt><trkpt lat="43.077110664540776" lon="11.681022885684706"><ele>483.0</ele><time>2026-04-19T12:13:34Z</time></trkpt><trkpt lat="43.07714062624675" lon="11.680902031868717"><ele>484.2</ele><time>2026-04-19T12:13:35Z</time></trkpt><trkpt lat="43.07716485559335" lon="11.680802191259719"><ele>485.4</ele><time>2026-04-19T12:13:36Z</time></trkpt><trkpt lat="43.07719496587736" lon="11.680678119094695"><ele>486.59999999999997</ele><time>2026-04-19T12:13:38Z</time></trkpt><trkpt lat="43.077302203752254" lon="11.680723865594842"><ele>487.79999999999995</ele><time>2026-04-19T12:13:42Z</time></trkpt><trkpt lat="43.07738879932134" lon="11.680757678831878"><ele>489.0</ele><time>2026-04-19T12:13:43Z</time></trkpt><trkpt lat="43.07750294112808" lon="11.680795641520113"><ele>489.0</ele><time>2026-04-19T12:13:44Z</time></trkpt><trkpt lat="43.077609962543065" lon="11.680838749183676"><ele>489.0</ele><time>2026-04-19T12:13:45Z</time></trkpt><trkpt lat="43.077698429953614" lon="11.680871838852429"><ele>489.0</ele><time>2026-04-19T12:13:46Z</time></trkpt><trkpt lat="43.077773339681336" lon="11.680894909353489"><ele>489.0</ele><time>2026-04-19T12:13:47Z</time></trkpt><trkpt lat="43.07786244639001" lon="11.68088753573533"><ele>489.0</ele><time>2026-04-19T12:13:49Z</time></trkpt><trkpt lat="43.07773320984284" lon="11.680737574844255"><ele>489.0</ele><time>2026-04-19T12:13:53Z</time></trkpt><trkpt lat="43.07761235431312" lon="11.680718647855937"><ele>489.0</ele><time>2026-04-19T12:13:54Z</time></trkpt><trkpt lat="43.07750235841475" lon="11.680689291515552"><ele>489.0</ele><time>2026-04-19T12:13:55Z</time></trkpt><trkpt lat="43.077421417160714" lon="11.680662245806108"><ele>489.0</ele><time>2026-04-19T12:13:56Z</time></trkpt><trkpt lat="43.077286535043605" lon="11.680630578983486"><ele>489.6666666666667</ele><time>2026-04-19T12:13:59Z</time></trkpt><trkpt lat="43.077218142491986" lon="11.680612825385683"><ele>490.33333333333337</ele><time>2026-04-19T12:14:03Z</time></trkpt><trkpt lat="43.077134586645194" lon="11.680715262398111"><ele>491.0</ele><time>2026-04-19T12:14:06Z</time></trkpt><trkpt lat="43.07711495786628" lon="11.680852437487808"><ele>491.6666666666667</ele><time>2026-04-19T12:14:07Z</time></trkpt><trkpt lat="43.07709130698238" lon="11.680964331651275"><ele>492.33333333333337</ele><time>2026-04-19T12:14:08Z</time></trkpt><trkpt lat="43.07707140357229" lon="11.681062802598428"><ele>493.0</ele><time>2026-04-19T12:14:09Z</time></trkpt><trkpt lat="43.07705211303879" lon="11.681166212565348"><ele>491.33333333333337</ele><time>2026-04-19T12:14:10Z</time></trkpt><trkpt lat="43.07704242454712" lon="11.681275033455304"><ele>489.6666666666667</ele><time>2026-04-19T12:14:11Z</time></trkpt><trkpt lat="43.07703220644818" lon="11.68138379176046"><ele>488.0</ele><time>2026-04-19T12:14:12Z</time></trkpt><trkpt lat="43.077021481811855" lon="11.681480139661105"><ele>486.33333333333337</ele><time>2026-04-19T12:14:13Z</time></trkpt><trkpt lat="43.07701251559532" lon="11.681578453406226"><ele>484.6666666666667</ele><time>2026-04-19T12:14:14Z</time></trkpt><trkpt lat="43.07695651125267" lon="11.681726757112523"><ele>483.0</ele><time>2026-04-19T12:14:16Z</time></trkpt><trkpt lat="43.076892643132624" lon="11.68174884712724"><ele>483.0</ele><time>2026-04-19T12:14:17Z</time></trkpt><trkpt lat="43.07682921507691" lon="11.68176058552897"><ele>483.0</ele><time>2026-04-19T12:14:18Z</time></trkpt><trkpt lat="43.076722382135415" lon="11.681782354474423"><ele>483.0</ele><time>2026-04-19T12:14:20Z</time></trkpt><trkpt lat="43.07664321084013" lon="11.681793272518485"><ele>483.0</ele><time>2026-04-19T12:14:22Z</time></trkpt><trkpt lat="43.0792903629796" lon="11.68479280267972"><ele>470.0</ele><time>2026-04-19T12:15:25Z</time></trkpt><trkpt lat="43.07939296592139" lon="11.684890506816938"><ele>457.0</ele><time>2026-04-19T12:15:26Z</time></trkpt><trkpt lat="43.07949187995781" lon="11.684981524954884"><ele>444.0</ele><time>2026-04-19T12:15:27Z</time></trkpt><trkpt lat="43.07958592734233" lon="11.685066674996444"><ele>431.0</ele><time>2026-04-19T12:15:28Z</time></trkpt><trkpt lat="43.07968356722264" lon="11.685143474865683"><ele>431.0</ele><time>2026-04-19T12:15:29Z</time></trkpt><trkpt lat="43.07977846846658" lon="11.68521317844468"><ele>431.0</ele><time>2026-04-19T12:15:30Z</time></trkpt><trkpt lat="43.07987289126822" lon="11.685278903689186"><ele>431.0</ele><time>2026-04-19T12:15:31Z</time></trkpt><trkpt lat="43.07996484396329" lon="11.685333034968119"><ele>431.0</ele><time>2026-04-19T12:15:32Z</time></trkpt><trkpt lat="43.080051475723835" lon="11.685387342161315"><ele>431.0</ele><time>2026-04-19T12:15:33Z</time></trkpt><trkpt lat="43.080136220157016" lon="11.685455613462556"><ele>427.6</ele><time>2026-04-19T12:15:34Z</time></trkpt><trkpt lat="43.08021776860589" lon="11.685551920484736"><ele>424.20000000000005</ele><time>2026-04-19T12:15:35Z</time></trkpt><trkpt lat="43.080288490178916" lon="11.685671825520465"><ele>420.79999999999995</ele><time>2026-04-19T12:15:36Z</time></trkpt><trkpt lat="43.08034524352153" lon="11.68578594838279"><ele>417.4</ele><time>2026-04-19T12:15:37Z</time></trkpt><trkpt lat="43.08039854634106" lon="11.68588727350518"><ele>414.0</ele><time>2026-04-19T12:15:38Z</time></trkpt><trkpt lat="43.080443362926175" lon="11.685964214855879"><ele>414.0</ele><time>2026-04-19T12:15:39Z</time></trkpt><trkpt lat="43.080485598102854" lon="11.686037142480295"><ele>414.0</ele><time>2026-04-19T12:15:40Z</time></trkpt><trkpt lat="43.08056632156323" lon="11.68614725219644"><ele>414.0</ele><time>2026-04-19T12:15:42Z</time></trkpt><trkpt lat="43.080645072142" lon="11.686200000851588"><ele>414.0</ele><time>2026-04-19T12:15:44Z</time></trkpt><trkpt lat="43.08076226920633" lon="11.686133918703087"><ele>414.0</ele><time>2026-04-19T12:15:46Z</time></trkpt><trkpt lat="43.08079574744665" lon="11.685991407780966"><ele>412.5</ele><time>2026-04-19T12:15:47Z</time></trkpt><trkpt lat="43.080816975142746" lon="11.685877644998808"><ele>411.0</ele><time>2026-04-19T12:15:48Z</time></trkpt><trkpt lat="43.08085165998555" lon="11.685782902287574"><ele>409.5</ele><time>2026-04-19T12:15:49Z</time></trkpt><trkpt lat="43.08095006053089" lon="11.685691285826877"><ele>408.0</ele><time>2026-04-19T12:15:51Z</time></trkpt><trkpt lat="43.081019206002296" lon="11.685708212653529"><ele>406.5</ele><time>2026-04-19T12:15:52Z</time></trkpt><trkpt lat="43.0810934022693" lon="11.68575133504165"><ele>405.0</ele><time>2026-04-19T12:15:53Z</time></trkpt><trkpt lat="43.081169923260674" lon="11.685818679978107"><ele>405.0</ele><time>2026-04-19T12:15:54Z</time></trkpt><trkpt lat="43.08124689267359" lon="11.685897772131105"><ele>405.0</ele><time>2026-04-19T12:15:55Z</time></trkpt><trkpt lat="43.08130841536337" lon="11.685968428247797"><ele>405.0</ele><time>2026-04-19T12:15:56Z</time></trkpt><trkpt lat="43.08137730860493" lon="11.686069448617339"><ele>405.0</ele><time>2026-04-19T12:15:57Z</time></trkpt><trkpt lat="43.081445606959136" lon="11.686189672839435"><ele>405.0</ele><time>2026-04-19T12:15:58Z</time></trkpt><trkpt lat="43.08151323045475" lon="11.686327639987788"><ele>404.5</ele><time>2026-04-19T12:15:59Z</time></trkpt><trkpt lat="43.08157759752482" lon="11.686473472727497"><ele>404.0</ele><time>2026-04-19T12:16:00Z</time></trkpt><trkpt lat="43.08164191278343" lon="11.686629120519484"><ele>403.5</ele><time>2026-04-19T12:16:01Z</time></trkpt><trkpt lat="43.08170314095214" lon="11.686774287074915"><ele>403.0</ele><time>2026-04-19T12:16:02Z</time></trkpt><trkpt lat="43.08175770273381" lon="11.686903520386863"><ele>405.79999999999995</ele><time>2026-04-19T12:16:03Z</time></trkpt><trkpt lat="43.081799853860176" lon="11.687008805664242"><ele>408.6</ele><time>2026-04-19T12:16:04Z</time></trkpt><trkpt lat="43.081837201556716" lon="11.687095943666518"><ele>411.4</ele><time>2026-04-19T12:16:05Z</time></trkpt><trkpt lat="43.08187714355453" lon="11.687241251566299"><ele>414.20000000000005</ele><time>2026-04-19T12:16:07Z</time></trkpt><trkpt lat="43.0818682047959" lon="11.687345609555452"><ele>417.0</ele><time>2026-04-19T12:16:08Z</time></trkpt><trkpt lat="43.081811483940186" lon="11.687460582411711"><ele>417.0</ele><time>2026-04-19T12:16:09Z</time></trkpt><trkpt lat="43.081746421979425" lon="11.6875857213906"><ele>417.0</ele><time>2026-04-19T12:16:10Z</time></trkpt><trkpt lat="43.08166913480877" lon="11.687718708357911"><ele>417.0</ele><time>2026-04-19T12:16:11Z</time></trkpt><trkpt lat="43.08157831911236" lon="11.687834386329973"><ele>417.0</ele><time>2026-04-19T12:16:12Z</time></trkpt><trkpt lat="43.081473532272774" lon="11.68793383209886"><ele>417.6</ele><time>2026-04-19T12:16:13Z</time></trkpt><trkpt lat="43.081373591380945" lon="11.688016828564884"><ele>418.20000000000005</ele><time>2026-04-19T12:16:14Z</time></trkpt><trkpt lat="43.08127530937224" lon="11.688079971163214"><ele>418.8</ele><time>2026-04-19T12:16:15Z</time></trkpt><trkpt lat="43.08118014149676" lon="11.68813456651079"><ele>419.4</ele><time>2026-04-19T12:16:16Z</time></trkpt><trkpt lat="43.081090750618266" lon="11.688181258336762"><ele>420.0</ele><time>2026-04-19T12:16:17Z</time></trkpt><trkpt lat="43.08099552863038" lon="11.688247852253417"><ele>420.0</ele><time>2026-04-19T12:16:18Z</time></trkpt><trkpt lat="43.080888652037764" lon="11.688293415559702"><ele>420.0</ele><time>2026-04-19T12:16:19Z</time></trkpt><trkpt lat="43.08077485119389" lon="11.68835069211057"><ele>420.0</ele><time>2026-04-19T12:16:20Z</time></trkpt><trkpt lat="43.080651801348274" lon="11.688388613757201"><ele>420.0</ele><time>2026-04-19T12:16:21Z</time></trkpt><trkpt lat="43.08052904694141" lon="11.688443155730077"><ele>415.0</ele><time>2026-04-19T12:16:22Z</time></trkpt><trkpt lat="43.080396314364876" lon="11.688500706040978"><ele>410.0</ele><time>2026-04-19T12:16:23Z</time></trkpt><trkpt lat="43.07335609348413" lon="11.690831217713377"><ele>414.49999999999994</ele><time>2026-04-19T12:17:25Z</time></trkpt><trkpt lat="43.07330937683255" lon="11.69094656841326"><ele>419.0</ele><time>2026-04-19T12:17:26Z</time></trkpt><trkpt lat="43.07326525808707" lon="11.691039952181256"><ele>423.5</ele><time>2026-04-19T12:17:27Z</time></trkpt><trkpt lat="43.07322614675194" lon="11.691124365699977"><ele>428.0</ele><time>2026-04-19T12:17:28Z</time></trkpt><trkpt lat="43.07318782267968" lon="11.69120945927394"><ele>432.49999999999994</ele><time>2026-04-19T12:17:29Z</time></trkpt><trkpt lat="43.07313427522906" lon="11.691320130178113"><ele>437.0</ele><time>2026-04-19T12:17:31Z</time></trkpt><trkpt lat="43.073082655250175" lon="11.691417227792392"><ele>439.8</ele><time>2026-04-19T12:17:33Z</time></trkpt><trkpt lat="43.07301501916879" lon="11.691568952856347"><ele>442.6</ele><time>2026-04-19T12:17:35Z</time></trkpt><trkpt lat="43.07297440314996" lon="11.691656319416467"><ele>445.40000000000003</ele><time>2026-04-19T12:17:36Z</time></trkpt><trkpt lat="43.072924565691174" lon="11.691763248907883"><ele>448.20000000000005</ele><time>2026-04-19T12:17:37Z</time></trkpt><trkpt lat="43.07287031586393" lon="11.691882641049975"><ele>451.0</ele><time>2026-04-19T12:17:38Z</time></trkpt><trkpt lat="43.0728066955072" lon="11.692016582068891"><ele>451.0</ele><time>2026-04-19T12:17:39Z</time></trkpt><trkpt lat="43.072739801442395" lon="11.692149582712345"><ele>451.0</ele><time>2026-04-19T12:17:40Z</time></trkpt><trkpt lat="43.072680680602645" lon="11.692256787014925"><ele>451.0</ele><time>2026-04-19T12:17:41Z</time></trkpt><trkpt lat="43.07262098962071" lon="11.692375912323195"><ele>451.0</ele><time>2026-04-19T12:17:42Z</time></trkpt><trkpt lat="43.072554869076754" lon="11.692519871994614"><ele>451.0</ele><time>2026-04-19T12:17:43Z</time></trkpt><trkpt lat="43.07249885966669" lon="11.69266753876688"><ele>450.4</ele><time>2026-04-19T12:17:44Z</time></trkpt><trkpt lat="43.072451299941434" lon="11.692800722800289"><ele>449.8</ele><time>2026-04-19T12:17:45Z</time></trkpt><trkpt lat="43.07241269419226" lon="11.692910939220281"><ele>449.19999999999993</ele><time>2026-04-19T12:17:46Z</time></trkpt><trkpt lat="43.07237810597657" lon="11.693015781968088"><ele>448.59999999999997</ele><time>2026-04-19T12:17:47Z</time></trkpt><trkpt lat="43.07232853252193" lon="11.693120859494563"><ele>448.0</ele><time>2026-04-19T12:17:48Z</time></trkpt><trkpt lat="43.07226847826549" lon="11.693221215661099"><ele>448.00000000000006</ele><time>2026-04-19T12:17:49Z</time></trkpt><trkpt lat="43.0722090622799" lon="11.693308635453239"><ele>448.0</ele><time>2026-04-19T12:17:50Z</time></trkpt><trkpt lat="43.072151335115535" lon="11.693396761224863"><ele>448.0</ele><time>2026-04-19T12:17:51Z</time></trkpt><trkpt lat="43.07209925874325" lon="11.693481266845339"><ele>448.0</ele><time>2026-04-19T12:17:52Z</time></trkpt><trkpt lat="43.07205179412018" lon="11.693559737990284"><ele>448.00000000000006</ele><time>2026-04-19T12:17:53Z</time></trkpt><trkpt lat="43.07199548868129" lon="11.693624670512422"><ele>448.0</ele><time>2026-04-19T12:17:54Z</time></trkpt><trkpt lat="43.07191437657386" lon="11.693669676921298"><ele>446.14285714285717</ele><time>2026-04-19T12:17:55Z</time></trkpt><trkpt lat="43.071840829302" lon="11.693679019501387"><ele>444.2857142857143</ele><time>2026-04-19T12:17:56Z</time></trkpt><trkpt lat="43.071784451833814" lon="11.69363380456942"><ele>442.42857142857144</ele><time>2026-04-19T12:17:57Z</time></trkpt><trkpt lat="43.07170431842139" lon="11.69365747020103"><ele>440.57142857142856</ele><time>2026-04-19T12:17:59Z</time></trkpt><trkpt lat="43.07166828394189" lon="11.693763023238049"><ele>438.7142857142857</ele><time>2026-04-19T12:18:01Z</time></trkpt><trkpt lat="43.07169441439109" lon="11.693843535690817"><ele>436.8571428571429</ele><time>2026-04-19T12:18:02Z</time></trkpt><trkpt lat="43.07172572120136" lon="11.693930540776657"><ele>435.0</ele><time>2026-04-19T12:18:03Z</time></trkpt><trkpt lat="43.07177267132311" lon="11.694020921553507"><ele>435.0</ele><time>2026-04-19T12:18:04Z</time></trkpt><trkpt lat="43.07181456072069" lon="11.694142601854868"><ele>435.0</ele><time>2026-04-19T12:18:05Z</time></trkpt><trkpt lat="43.071838425024424" lon="11.69427228763785"><ele>435.0</ele><time>2026-04-19T12:18:06Z</time></trkpt><trkpt lat="43.07184697609063" lon="11.694400559112452"><ele>435.0</ele><time>2026-04-19T12:18:07Z</time></trkpt><trkpt lat="43.07184257813079" lon="11.694529377428196"><ele>435.0</ele><time>2026-04-19T12:18:08Z</time></trkpt><trkpt lat="43.07182844154876" lon="11.694657115469797"><ele>433.0</ele><time>2026-04-19T12:18:09Z</time></trkpt><trkpt lat="43.07179910279774" lon="11.694774143698444"><ele>431.0</ele><time>2026-04-19T12:18:10Z</time></trkpt><trkpt lat="43.07176125806349" lon="11.694888022205685"><ele>429.0</ele><time>2026-04-19T12:18:11Z</time></trkpt><trkpt lat="43.07171807925669" lon="11.694986275511852"><ele>427.0</ele><time>2026-04-19T12:18:12Z</time></trkpt><trkpt lat="43.071664098495084" lon="11.695072003590452"><ele>425.0</ele><time>2026-04-19T12:18:13Z</time></trkpt><trkpt lat="43.071586438668284" lon="11.695161853637726"><ele>421.25</ele><time>2026-04-19T12:18:14Z</time></trkpt><trkpt lat="43.071487531890455" lon="11.695263766062489"><ele>417.5</ele><time>2026-04-19T12:18:15Z</time></trkpt><trkpt lat="43.071370426949024" lon="11.695360501426146"><ele>413.75</ele><time>2026-04-19T12:18:16Z</time></trkpt><trkpt lat="43.07125527352899" lon="11.695441128745227"><ele>410.0</ele><time>2026-04-19T12:18:17Z</time></trkpt><trkpt lat="43.071143965415565" lon="11.695529730105859"><ele>410.0</ele><time>2026-04-19T12:18:18Z</time></trkpt><trkpt lat="43.07101901046401" lon="11.695600338531396"><ele>410.0</ele><time>2026-04-19T12:18:19Z</time></trkpt><trkpt lat="43.07091588931606" lon="11.695666735298603"><ele>410.0</ele><time>2026-04-19T12:18:20Z</time></trkpt><trkpt lat="43.070815549794006" lon="11.695724159123102"><ele>410.0</ele><time>2026-04-19T12:18:21Z</time></trkpt><trkpt lat="43.07072141270091" lon="11.695788963689164"><ele>408.5</ele><time>2026-04-19T12:18:22Z</time></trkpt><trkpt lat="43.07063862204858" lon="11.695859734785564"><ele>407.0</ele><time>2026-04-19T12:18:23Z</time></trkpt><trkpt lat="43.069683147539315" lon="11.702557463652225"><ele>389.25</ele><time>2026-04-19T12:19:25Z</time></trkpt><trkpt lat="43.069655522898984" lon="11.70270652557513"><ele>371.5</ele><time>2026-04-19T12:19:26Z</time></trkpt><trkpt lat="43.069609526433645" lon="11.702859194992046"><ele>353.75</ele><time>2026-04-19T12:19:27Z</time></trkpt><trkpt lat="43.06955143221072" lon="11.703004144160895"><ele>336.0</ele><time>2026-04-19T12:19:28Z</time></trkpt><trkpt lat="43.069500359912624" lon="11.703124210324985"><ele>335.20000000000005</ele><time>2026-04-19T12:19:29Z</time></trkpt><trkpt lat="43.06946274766289" lon="11.70322464364993"><ele>334.40000000000003</ele><time>2026-04-19T12:19:30Z</time></trkpt><trkpt lat="43.069430958136486" lon="11.703303920760574"><ele>333.6</ele><time>2026-04-19T12:19:31Z</time></trkpt><trkpt lat="43.06935566319589" lon="11.703412640226883"><ele>332.8</ele><time>2026-04-19T12:19:33Z</time></trkpt><trkpt lat="43.06939736786665" lon="11.703660354359204"><ele>332.0</ele><time>2026-04-19T12:19:35Z</time></trkpt><trkpt lat="43.06943751457326" lon="11.703778328986157"><ele>331.75</ele><time>2026-04-19T12:19:36Z</time></trkpt><trkpt lat="43.06949763432903" lon="11.703916486591494"><ele>331.5</ele><time>2026-04-19T12:19:37Z</time></trkpt><trkpt lat="43.0695681578096" lon="11.704063780955265"><ele>331.25</ele><time>2026-04-19T12:19:38Z</time></trkpt><trkpt lat="43.06966150289056" lon="11.704221347446856"><ele>331.0</ele><time>2026-04-19T12:19:39Z</time></trkpt><trkpt lat="43.06976327263344" lon="11.704384971942638"><ele>331.0</ele><time>2026-04-19T12:19:40Z</time></trkpt><trkpt lat="43.069872225943534" lon="11.704547815506166"><ele>331.0</ele><time>2026-04-19T12:19:41Z</time></trkpt><trkpt lat="43.07000197901492" lon="11.70473251124046"><ele>331.0</ele><time>2026-04-19T12:19:42Z</time></trkpt><trkpt lat="43.0701331120088" lon="11.704920278268794"><ele>331.0</ele><time>2026-04-19T12:19:43Z</time></trkpt><trkpt lat="43.070242450287395" lon="11.705082131603993"><ele>331.0</ele><time>2026-04-19T12:19:44Z</time></trkpt><trkpt lat="43.0703412142459" lon="11.705235850574995"><ele>331.0</ele><time>2026-04-19T12:19:45Z</time></trkpt><trkpt lat="43.070442389223736" lon="11.70538719267918"><ele>331.3333333333333</ele><time>2026-04-19T12:19:46Z</time></trkpt><trkpt lat="43.070539047555464" lon="11.705540737161929"><ele>331.6666666666667</ele><time>2026-04-19T12:19:47Z</time></trkpt><trkpt lat="43.07063703858798" lon="11.705713393118474"><ele>332.0</ele><time>2026-04-19T12:19:48Z</time></trkpt><trkpt lat="43.07073267409543" lon="11.705904373995756"><ele>333.0</ele><time>2026-04-19T12:19:49Z</time></trkpt><trkpt lat="43.070823245384624" lon="11.706113372448627"><ele>334.0</ele><time>2026-04-19T12:19:50Z</time></trkpt><trkpt lat="43.07091765482855" lon="11.706322447401245"><ele>335.0</ele><time>2026-04-19T12:19:51Z</time></trkpt><trkpt lat="43.07101112872778" lon="11.706538551975955"><ele>335.0</ele><time>2026-04-19T12:19:52Z</time></trkpt><trkpt lat="43.07109674188641" lon="11.706753231181695"><ele>335.0</ele><time>2026-04-19T12:19:53Z</time></trkpt><trkpt lat="43.071170882150525" lon="11.706970253212342"><ele>335.0</ele><time>2026-04-19T12:19:54Z</time></trkpt><trkpt lat="43.07122574693554" lon="11.707190209674506"><ele>335.6666666666667</ele><time>2026-04-19T12:19:55Z</time></trkpt><trkpt lat="43.07127395763202" lon="11.707430508828777"><ele>336.3333333333333</ele><time>2026-04-19T12:19:56Z</time></trkpt><trkpt lat="43.071304120780596" lon="11.707669389035901"><ele>337.0</ele><time>2026-04-19T12:19:57Z</time></trkpt><trkpt lat="43.07133039300383" lon="11.70788400437781"><ele>337.0</ele><time>2026-04-19T12:19:58Z</time></trkpt><trkpt lat="43.0713652625818" lon="11.7080647192821"><ele>337.0</ele><time>2026-04-19T12:19:59Z</time></trkpt><trkpt lat="43.071410483072896" lon="11.708254297255229"><ele>337.0</ele><time>2026-04-19T12:20:00Z</time></trkpt><trkpt lat="43.07146262983293" lon="11.708457829249266"><ele>337.0</ele><time>2026-04-19T12:20:01Z</time></trkpt><trkpt lat="43.071524287761285" lon="11.70868041023502"><ele>337.3333333333333</ele><time>2026-04-19T12:20:02Z</time></trkpt><trkpt lat="43.071592550154534" lon="11.708913441397504"><ele>337.6666666666667</ele><time>2026-04-19T12:20:03Z</time></trkpt><trkpt lat="43.07166309946334" lon="11.709151388427046"><ele>338.0</ele><time>2026-04-19T12:20:04Z</time></trkpt><trkpt lat="43.071724096630845" lon="11.709374210167155"><ele>339.0</ele><time>2026-04-19T12:20:05Z</time></trkpt><trkpt lat="43.071775900561825" lon="11.709574329924997"><ele>340.0</ele><time>2026-04-19T12:20:06Z</time></trkpt><trkpt lat="43.0718221131501" lon="11.709757236524412"><ele>341.0</ele><time>2026-04-19T12:20:07Z</time></trkpt><trkpt lat="43.07186416019731" lon="11.709920612341513"><ele>342.0</ele><time>2026-04-19T12:20:08Z</time></trkpt><trkpt lat="43.07190247497584" lon="11.71006472412226"><ele>342.0</ele><time>2026-04-19T12:20:09Z</time></trkpt><trkpt lat="43.07193714775563" lon="11.71019444180135"><ele>342.0</ele><time>2026-04-19T12:20:10Z</time></trkpt><trkpt lat="43.071968191114614" lon="11.710309837841079"><ele>342.0</ele><time>2026-04-19T12:20:11Z</time></trkpt><trkpt lat="43.0719955760967" lon="11.710406949314278"><ele>342.0</ele><time>2026-04-19T12:20:12Z</time></trkpt><trkpt lat="43.07202068014271" lon="11.710500480263214"><ele>342.0</ele><time>2026-04-19T12:20:13Z</time></trkpt><trkpt lat="43.07204315713539" lon="11.710581153602252"><ele>342.0</ele><time>2026-04-19T12:20:14Z</time></trkpt><trkpt lat="43.07208356781886" lon="11.710709740795345"><ele>374.0</ele><time>2026-04-19T12:20:16Z</time></trkpt><trkpt lat="43.07610897708825" lon="11.707752237643614"><ele>374.0</ele><time>2026-04-19T12:21:25Z</time></trkpt><trkpt lat="43.076191337935875" lon="11.70777666964986"><ele>374.0</ele><time>2026-04-19T12:21:26Z</time></trkpt><trkpt lat="43.07628195363182" lon="11.707788453090243"><ele>374.0</ele><time>2026-04-19T12:21:27Z</time></trkpt><trkpt lat="43.07637550974351" lon="11.70776239149775"><ele>374.0</ele><time>2026-04-19T12:21:28Z</time></trkpt><trkpt lat="43.07647634573555" lon="11.707720419697354"><ele>374.0</ele><time>2026-04-19T12:21:29Z</time></trkpt><trkpt lat="43.07655200476568" lon="11.707677416389497"><ele>375.0</ele><time>2026-04-19T12:21:30Z</time></trkpt><trkpt lat="43.07662312396623" lon="11.707667339291195"><ele>376.0</ele><time>2026-04-19T12:21:31Z</time></trkpt><trkpt lat="43.076721523107" lon="11.707604030426777"><ele>377.0</ele><time>2026-04-19T12:21:32Z</time></trkpt><trkpt lat="43.07681939427328" lon="11.70752602838791"><ele>378.0</ele><time>2026-04-19T12:21:33Z</time></trkpt><trkpt lat="43.07692637723845" lon="11.707471829898465"><ele>379.0</ele><time>2026-04-19T12:21:34Z</time></trkpt><trkpt lat="43.077042196907605" lon="11.707441096847653"><ele>379.0</ele><time>2026-04-19T12:21:35Z</time></trkpt><trkpt lat="43.077167974289694" lon="11.707419125252768"><ele>379.0</ele><time>2026-04-19T12:21:36Z</time></trkpt><trkpt lat="43.07728441789541" lon="11.707381332750824"><ele>379.0</ele><time>2026-04-19T12:21:37Z</time></trkpt><trkpt lat="43.07737742822479" lon="11.707382014595654"><ele>379.0</ele><time>2026-04-19T12:21:38Z</time></trkpt><trkpt lat="43.07746606655065" lon="11.70738470000122"><ele>379.0</ele><time>2026-04-19T12:21:39Z</time></trkpt><trkpt lat="43.07755928429198" lon="11.70738303023712"><ele>380.6</ele><time>2026-04-19T12:21:40Z</time></trkpt><trkpt lat="43.07764575245339" lon="11.707376287639445"><ele>382.2</ele><time>2026-04-19T12:21:41Z</time></trkpt><trkpt lat="43.07771904166927" lon="11.707368835288937"><ele>383.8</ele><time>2026-04-19T12:21:42Z</time></trkpt><trkpt lat="43.077803635128674" lon="11.707396918762202"><ele>385.40000000000003</ele><time>2026-04-19T12:21:43Z</time></trkpt><trkpt lat="43.077901227851775" lon="11.707478580953229"><ele>387.0</ele><time>2026-04-19T12:21:44Z</time></trkpt><trkpt lat="43.077993541435404" lon="11.707592703584266"><ele>387.0</ele><time>2026-04-19T12:21:45Z</time></trkpt><trkpt lat="43.078100364936134" lon="11.707720708951426"><ele>387.0</ele><time>2026-04-19T12:21:46Z</time></trkpt><trkpt lat="43.078211433585174" lon="11.707854507074774"><ele>387.0</ele><time>2026-04-19T12:21:47Z</time></trkpt><trkpt lat="43.07832678692687" lon="11.707980928495498"><ele>387.0</ele><time>2026-04-19T12:21:48Z</time></trkpt><trkpt lat="43.07844097978135" lon="11.70811391052304"><ele>389.8</ele><time>2026-04-19T12:21:49Z</time></trkpt><trkpt lat="43.07853453202537" lon="11.708220763592964"><ele>392.6</ele><time>2026-04-19T12:21:50Z</time></trkpt><trkpt lat="43.07859626301449" lon="11.708284578686753"><ele>395.40000000000003</ele><time>2026-04-19T12:21:51Z</time></trkpt><trkpt lat="43.07869194285492" lon="11.708356458979722"><ele>398.20000000000005</ele><time>2026-04-19T12:21:53Z</time></trkpt><trkpt lat="43.07881896571222" lon="11.708313753163019"><ele>401.0</ele><time>2026-04-19T12:21:55Z</time></trkpt><trkpt lat="43.07890308827043" lon="11.708288418004356"><ele>400.99999999999994</ele><time>2026-04-19T12:21:56Z</time></trkpt><trkpt lat="43.078980559753234" lon="11.708227749544958"><ele>401.0</ele><time>2026-04-19T12:21:57Z</time></trkpt><trkpt lat="43.07907293989016" lon="11.70821952724846"><ele>401.0</ele><time>2026-04-19T12:21:58Z</time></trkpt><trkpt lat="43.07914840810759" lon="11.70824171038764"><ele>401.0</ele><time>2026-04-19T12:21:59Z</time></trkpt><trkpt lat="43.07921812051664" lon="11.708294121677348"><ele>400.99999999999994</ele><time>2026-04-19T12:22:00Z</time></trkpt><trkpt lat="43.07928638728851" lon="11.708358976443037"><ele>401.0</ele><time>2026-04-19T12:22:01Z</time></trkpt><trkpt lat="43.079336348726194" lon="11.708446077203133"><ele>401.3333333333333</ele><time>2026-04-19T12:22:02Z</time></trkpt><trkpt lat="43.079358730017546" lon="11.70853918656317"><ele>401.66666666666663</ele><time>2026-04-19T12:22:03Z</time></trkpt><trkpt lat="43.07936290914784" lon="11.708626470004388"><ele>402.0</ele><time>2026-04-19T12:22:04Z</time></trkpt><trkpt lat="43.07935121908217" lon="11.708728324186728"><ele>402.33333333333337</ele><time>2026-04-19T12:22:05Z</time></trkpt><trkpt lat="43.07932030173228" lon="11.708849757779069"><ele>402.6666666666667</ele><time>2026-04-19T12:22:06Z</time></trkpt><trkpt lat="43.07927399755233" lon="11.708949687183091"><ele>403.0</ele><time>2026-04-19T12:22:07Z</time></trkpt><trkpt lat="43.079217551327034" lon="11.70906922985315"><ele>404.2</ele><time>2026-04-19T12:22:08Z</time></trkpt><trkpt lat="43.079158709840485" lon="11.709192184552464"><ele>405.4</ele><time>2026-04-19T12:22:09Z</time></trkpt><trkpt lat="43.07908953604821" lon="11.709313945054422"><ele>406.59999999999997</ele><time>2026-04-19T12:22:10Z</time></trkpt><trkpt lat="43.07903108211688" lon="11.709434609891916"><ele>407.79999999999995</ele><time>2026-04-19T12:22:11Z</time></trkpt><trkpt lat="43.07898487910357" lon="11.709537956277384"><ele>409.0</ele><time>2026-04-19T12:22:12Z</time></trkpt><trkpt lat="43.07896607678864" lon="11.709621993979725"><ele>410.1666666666667</ele><time>2026-04-19T12:22:13Z</time></trkpt><trkpt lat="43.07895913505792" lon="11.70973464241473"><ele>411.33333333333337</ele><time>2026-04-19T12:22:14Z</time></trkpt><trkpt lat="43.07898540130128" lon="11.709835479697082"><ele>412.5</ele><time>2026-04-19T12:22:15Z</time></trkpt><trkpt lat="43.07903760407102" lon="11.709936583139"><ele>413.66666666666663</ele><time>2026-04-19T12:22:16Z</time></trkpt><trkpt lat="43.079102821747455" lon="11.71000863107226"><ele>414.8333333333333</ele><time>2026-04-19T12:22:17Z</time></trkpt><trkpt lat="43.079167557359156" lon="11.710047143131986"><ele>416.0</ele><time>2026-04-19T12:22:18Z</time></trkpt><trkpt lat="43.07925366488368" lon="11.710037418254748"><ele>417.6</ele><time>2026-04-19T12:22:19Z</time></trkpt><trkpt lat="43.07934127248092" lon="11.709977472379562"><ele>419.20000000000005</ele><time>2026-04-19T12:22:20Z</time></trkpt><trkpt lat="43.07941835834915" lon="11.709917453306852"><ele>420.79999999999995</ele><time>2026-04-19T12:22:21Z</time></trkpt><trkpt lat="43.079480134891675" lon="11.709895565689642"><ele>422.4</ele><time>2026-04-19T12:22:22Z</time></trkpt><trkpt lat="43.079581082625985" lon="11.70991441001941"><ele>424.0</ele><time>2026-04-19T12:22:24Z</time></trkpt><trkpt lat="43.08470161318505" lon="11.710261699781253"><ele>431.4</ele><time>2026-04-19T12:23:25Z</time></trkpt><trkpt lat="43.084818914752596" lon="11.710285732698866"><ele>438.79999999999995</ele><time>2026-04-19T12:23:27Z</time></trkpt><trkpt lat="43.084882749517476" lon="11.710299908810871"><ele>446.20000000000005</ele><time>2026-04-19T12:23:28Z</time></trkpt><trkpt lat="43.08501063231295" lon="11.710329488866119"><ele>453.6</ele><time>2026-04-19T12:23:30Z</time></trkpt><trkpt lat="43.085133834119915" lon="11.710355402162387"><ele>461.0</ele><time>2026-04-19T12:23:31Z</time></trkpt><trkpt lat="43.085284907627916" lon="11.710364231458394"><ele>461.0</ele><time>2026-04-19T12:23:32Z</time></trkpt><trkpt lat="43.0854298676881" lon="11.710411887234583"><ele>461.0</ele><time>2026-04-19T12:23:33Z</time></trkpt><trkpt lat="43.0855655261497" lon="11.71043343959221"><ele>461.0</ele><time>2026-04-19T12:23:34Z</time></trkpt><trkpt lat="43.08571927032155" lon="11.710428153311051"><ele>461.0</ele><time>2026-04-19T12:23:35Z</time></trkpt><trkpt lat="43.08587416860117" lon="11.710401798581387"><ele>460.5</ele><time>2026-04-19T12:23:36Z</time></trkpt><trkpt lat="43.086015945506404" lon="11.71037200677847"><ele>460.0</ele><time>2026-04-19T12:23:37Z</time></trkpt><trkpt lat="43.08614860150322" lon="11.710347965600693"><ele>459.5</ele><time>2026-04-19T12:23:38Z</time></trkpt><trkpt lat="43.08626048219781" lon="11.71033515878319"><ele>459.0</ele><time>2026-04-19T12:23:39Z</time></trkpt><trkpt lat="43.086364599738296" lon="11.710322174616344"><ele>459.0</ele><time>2026-04-19T12:23:40Z</time></trkpt><trkpt lat="43.08646373844879" lon="11.71031523050864"><ele>459.0</ele><time>2026-04-19T12:23:41Z</time></trkpt><trkpt lat="43.08654847048455" lon="11.710316776915656"><ele>459.0</ele><time>2026-04-19T12:23:42Z</time></trkpt><trkpt lat="43.08663593581424" lon="11.71031324639448"><ele>459.0</ele><time>2026-04-19T12:23:43Z</time></trkpt><trkpt lat="43.086734964720904" lon="11.710325901697797"><ele>459.0</ele><time>2026-04-19T12:23:44Z</time></trkpt><trkpt lat="43.08685114174768" lon="11.710343968919583"><ele>457.75</ele><time>2026-04-19T12:23:45Z</time></trkpt><trkpt lat="43.08698793666053" lon="11.710389778527972"><ele>456.5</ele><time>2026-04-19T12:23:46Z</time></trkpt><trkpt lat="43.087126366089464" lon="11.710441437867896"><ele>455.25</ele><time>2026-04-19T12:23:47Z</time></trkpt><trkpt lat="43.08725541383332" lon="11.710488984923574"><ele>454.0</ele><time>2026-04-19T12:23:48Z</time></trkpt><trkpt lat="43.08737753645936" lon="11.710506222571345"><ele>454.25</ele><time>2026-04-19T12:23:49Z</time></trkpt><trkpt lat="43.08748022068447" lon="11.710501684145195"><ele>454.5</ele><time>2026-04-19T12:23:50Z</time></trkpt><trkpt lat="43.087583774956464" lon="11.710468080365104"><ele>454.75</ele><time>2026-04-19T12:23:51Z</time></trkpt><trkpt lat="43.08769217878046" lon="11.7104000981289"><ele>455.0</ele><time>2026-04-19T12:23:52Z</time></trkpt><trkpt lat="43.08779666659858" lon="11.71030685346222"><ele>454.25</ele><time>2026-04-19T12:23:53Z</time></trkpt><trkpt lat="43.08789167599939" lon="11.710211031762048"><ele>453.5</ele><time>2026-04-19T12:23:54Z</time></trkpt><trkpt lat="43.087985315810386" lon="11.710115609450101"><ele>452.75</ele><time>2026-04-19T12:23:55Z</time></trkpt><trkpt lat="43.08809152517809" lon="11.710013022706345"><ele>452.0</ele><time>2026-04-19T12:23:56Z</time></trkpt><trkpt lat="43.08819958448356" lon="11.709900110092523"><ele>451.75</ele><time>2026-04-19T12:23:57Z</time></trkpt><trkpt lat="43.08831061634355" lon="11.709793662867671"><ele>451.5</ele><time>2026-04-19T12:23:58Z</time></trkpt><trkpt lat="43.08843465677491" lon="11.709704772351527"><ele>451.25</ele><time>2026-04-19T12:23:59Z</time></trkpt><trkpt lat="43.08854668293594" lon="11.709602170331394"><ele>451.0</ele><time>2026-04-19T12:24:00Z</time></trkpt><trkpt lat="43.08865952928516" lon="11.709501669561556"><ele>450.75</ele><time>2026-04-19T12:24:01Z</time></trkpt><trkpt lat="43.08877254296329" lon="11.709402819023662"><ele>450.5</ele><time>2026-04-19T12:24:02Z</time></trkpt><trkpt lat="43.08888279801538" lon="11.70930033025485"><ele>450.25</ele><time>2026-04-19T12:24:03Z</time></trkpt><trkpt lat="43.089003676890805" lon="11.709226241656552"><ele>450.0</ele><time>2026-04-19T12:24:04Z</time></trkpt><trkpt lat="43.08914563279254" lon="11.70918343947728"><ele>451.0</ele><time>2026-04-19T12:24:05Z</time></trkpt><trkpt lat="43.08930631147929" lon="11.709161344953614"><ele>452.0</ele><time>2026-04-19T12:24:06Z</time></trkpt><trkpt lat="43.08946754496725" lon="11.709143749128653"><ele>453.0</ele><time>2026-04-19T12:24:07Z</time></trkpt><trkpt lat="43.08964215129437" lon="11.709130176390312"><ele>453.0</ele><time>2026-04-19T12:24:08Z</time></trkpt><trkpt lat="43.08985404454388" lon="11.709115419668175"><ele>453.0</ele><time>2026-04-19T12:24:09Z</time></trkpt><trkpt lat="43.090100493840566" lon="11.709099425540767"><ele>453.33333333333337</ele><time>2026-04-19T12:24:10Z</time></trkpt><trkpt lat="43.09032924829152" lon="11.709084502774019"><ele>453.6666666666667</ele><time>2026-04-19T12:24:11Z</time></trkpt><trkpt lat="43.090524122439604" lon="11.709070260537658"><ele>454.0</ele><time>2026-04-19T12:24:12Z</time></trkpt><trkpt lat="43.09070060055825" lon="11.709057362764495"><ele>455.0</ele><time>2026-04-19T12:24:13Z</time></trkpt><trkpt lat="43.09086360123717" lon="11.709045449985481"><ele>456.0</ele><time>2026-04-19T12:24:14Z</time></trkpt><trkpt lat="43.09101099051" lon="11.709034678151578"><ele>457.0</ele><time>2026-04-19T12:24:15Z</time></trkpt><trkpt lat="43.09114794697855" lon="11.709024690331576"><ele>458.0</ele><time>2026-04-19T12:24:16Z</time></trkpt><trkpt lat="43.09127431249541" lon="11.709015525595014"><ele>458.0</ele><time>2026-04-19T12:24:17Z</time></trkpt><trkpt lat="43.09139743291866" lon="11.709006596209864"><ele>457.99999999999994</ele><time>2026-04-19T12:24:18Z</time></trkpt><trkpt lat="43.091505194039826" lon="11.70899839775376"><ele>457.99999999999994</ele><time>2026-04-19T12:24:19Z</time></trkpt><trkpt lat="43.09159569500047" lon="11.7089910491235"><ele>458.0</ele><time>2026-04-19T12:24:20Z</time></trkpt><trkpt lat="43.09166996845555" lon="11.70898501815727"><ele>458.0</ele><time>2026-04-19T12:24:21Z</time></trkpt><trkpt lat="43.09178509584808" lon="11.708974322524298"><ele>494.0</ele><time>2026-04-19T12:24:23Z</time></trkpt><trkpt lat="43.09684372986518" lon="11.717477164152722"><ele>494.0</ele><time>2026-04-19T12:25:25Z</time></trkpt><trkpt lat="43.09692976292529" lon="11.71766252599021"><ele>494.0</ele><time>2026-04-19T12:25:26Z</time></trkpt><trkpt lat="43.0970009222058" lon="11.717844224733023"><ele>494.0</ele><time>2026-04-19T12:25:27Z</time></trkpt><trkpt lat="43.09707487302318" lon="11.71799818858744"><ele>494.0</ele><time>2026-04-19T12:25:28Z</time></trkpt><trkpt lat="43.09717769653698" lon="11.71812681094466"><ele>496.3333333333333</ele><time>2026-04-19T12:25:29Z</time></trkpt><trkpt lat="43.09731882800686" lon="11.718211264431948"><ele>498.66666666666663</ele><time>2026-04-19T12:25:30Z</time></trkpt><trkpt lat="43.09745539268661" lon="11.71834129773902"><ele>501.0</ele><time>2026-04-19T12:25:31Z</time></trkpt><trkpt lat="43.097595021563684" lon="11.718482984252963"><ele>498.66666666666663</ele><time>2026-04-19T12:25:32Z</time></trkpt><trkpt lat="43.09772109028232" lon="11.718621116430752"><ele>496.3333333333333</ele><time>2026-04-19T12:25:33Z</time></trkpt><trkpt lat="43.0978442367451" lon="11.71876841000603"><ele>494.0</ele><time>2026-04-19T12:25:34Z</time></trkpt><trkpt lat="43.09794224057954" lon="11.71893061331334"><ele>494.0</ele><time>2026-04-19T12:25:35Z</time></trkpt><trkpt lat="43.09804444753588" lon="11.719088422481914"><ele>494.0</ele><time>2026-04-19T12:25:36Z</time></trkpt><trkpt lat="43.0981714715653" lon="11.719230292318574"><ele>494.0</ele><time>2026-04-19T12:25:37Z</time></trkpt><trkpt lat="43.09829133151399" lon="11.719345365056906"><ele>494.5</ele><time>2026-04-19T12:25:38Z</time></trkpt><trkpt lat="43.09840504216867" lon="11.719443014373375"><ele>495.0</ele><time>2026-04-19T12:25:39Z</time></trkpt><trkpt lat="43.09853666458398" lon="11.719518979807958"><ele>495.5</ele><time>2026-04-19T12:25:40Z</time></trkpt><trkpt lat="43.098693699615716" lon="11.71954804555067"><ele>496.0</ele><time>2026-04-19T12:25:41Z</time></trkpt><trkpt lat="43.09886126591582" lon="11.719542525885752"><ele>496.0</ele><time>2026-04-19T12:25:42Z</time></trkpt><trkpt lat="43.099034379129954" lon="11.719505216856364"><ele>496.0</ele><time>2026-04-19T12:25:43Z</time></trkpt><trkpt lat="43.09920847648064" lon="11.719506822573782"><ele>496.0</ele><time>2026-04-19T12:25:44Z</time></trkpt><trkpt lat="43.09935772893798" lon="11.719530594553452"><ele>496.5</ele><time>2026-04-19T12:25:45Z</time></trkpt><trkpt lat="43.09948624056355" lon="11.719618544826933"><ele>497.0</ele><time>2026-04-19T12:25:46Z</time></trkpt><trkpt lat="43.09961538897323" lon="11.719727695057298"><ele>497.5</ele><time>2026-04-19T12:25:47Z</time></trkpt><trkpt lat="43.09973674226946" lon="11.719838405586305"><ele>498.0</ele><time>2026-04-19T12:25:48Z</time></trkpt><trkpt lat="43.09987978701943" lon="11.719983039257984"><ele>497.75</ele><time>2026-04-19T12:25:49Z</time></trkpt><trkpt lat="43.10001698772945" lon="11.720090144108879"><ele>497.5</ele><time>2026-04-19T12:25:50Z</time></trkpt><trkpt lat="43.1001385924584" lon="11.72019557622889"><ele>497.25</ele><time>2026-04-19T12:25:51Z</time></trkpt><trkpt lat="43.10026214940954" lon="11.720297289875507"><ele>497.0</ele><time>2026-04-19T12:25:52Z</time></trkpt><trkpt lat="43.10037209318535" lon="11.72039838594108"><ele>497.0</ele><time>2026-04-19T12:25:53Z</time></trkpt><trkpt lat="43.10046601646196" lon="11.720513437488455"><ele>497.0</ele><time>2026-04-19T12:25:54Z</time></trkpt><trkpt lat="43.10054168776387" lon="11.720646920563565"><ele>497.0</ele><time>2026-04-19T12:25:55Z</time></trkpt><trkpt lat="43.10057967951986" lon="11.720826243899847"><ele>497.0</ele><time>2026-04-19T12:25:56Z</time></trkpt><trkpt lat="43.100633392457304" lon="11.721034003205503"><ele>496.66666666666663</ele><time>2026-04-19T12:25:57Z</time></trkpt><trkpt lat="43.100663958012746" lon="11.721251884530671"><ele>496.33333333333337</ele><time>2026-04-19T12:25:58Z</time></trkpt><trkpt lat="43.10072653798655" lon="11.721444271525321"><ele>496.0</ele><time>2026-04-19T12:25:59Z</time></trkpt><trkpt lat="43.100827434517235" lon="11.721633216388621"><ele>496.0</ele><time>2026-04-19T12:26:00Z</time></trkpt><trkpt lat="43.10094968015488" lon="11.72182307146014"><ele>496.0</ele><time>2026-04-19T12:26:01Z</time></trkpt><trkpt lat="43.10107836128372" lon="11.722005793949076"><ele>496.0</ele><time>2026-04-19T12:26:02Z</time></trkpt><trkpt lat="43.10119628054058" lon="11.722202838230292"><ele>493.0</ele><time>2026-04-19T12:26:03Z</time></trkpt><trkpt lat="43.10129848685669" lon="11.72238143154346"><ele>490.0</ele><time>2026-04-19T12:26:04Z</time></trkpt><trkpt lat="43.10139547432177" lon="11.722544068446076"><ele>487.0</ele><time>2026-04-19T12:26:05Z</time></trkpt><trkpt lat="43.10149135301505" lon="11.72269925059925"><ele>487.5</ele><time>2026-04-19T12:26:06Z</time></trkpt><trkpt lat="43.10158560502091" lon="11.722849089902564"><ele>488.0</ele><time>2026-04-19T12:26:07Z</time></trkpt><trkpt lat="43.10164809505681" lon="11.723001766352398"><ele>488.5</ele><time>2026-04-19T12:26:08Z</time></trkpt><trkpt lat="43.10173415992213" lon="11.723151180266886"><ele>489.0</ele><time>2026-04-19T12:26:09Z</time></trkpt><trkpt lat="43.10179375104526" lon="11.723302503223504"><ele>489.0</ele><time>2026-04-19T12:26:10Z</time></trkpt><trkpt lat="43.10184494130234" lon="11.723442386568948"><ele>489.0</ele><time>2026-04-19T12:26:11Z</time></trkpt><trkpt lat="43.101882162006476" lon="11.723559374044351"><ele>489.0</ele><time>2026-04-19T12:26:12Z</time></trkpt><trkpt lat="43.10190839286003" lon="11.723654126871157"><ele>489.0</ele><time>2026-04-19T12:26:13Z</time></trkpt><trkpt lat="43.10193040772215" lon="11.723751780234577"><ele>489.0</ele><time>2026-04-19T12:26:15Z</time></trkpt><trkpt lat="43.102095001086894" lon="11.723670600807507"><ele>489.0</ele><time>2026-04-19T12:26:18Z</time></trkpt><trkpt lat="43.102168387478024" lon="11.723571621097664"><ele>489.0</ele><time>2026-04-19T12:26:19Z</time></trkpt><trkpt lat="43.10228292026899" lon="11.723489426520473"><ele>489.0</ele><time>2026-04-19T12:26:20Z</time></trkpt><trkpt lat="43.102427660873474" lon="11.72344647168812"><ele>489.0</ele><time>2026-04-19T12:26:21Z</time></trkpt><trkpt lat="43.10259752031618" lon="11.72344343556077"><ele>488.33333333333337</ele><time>2026-04-19T12:26:22Z</time></trkpt><trkpt lat="43.10279403773472" lon="11.723447851887224"><ele>487.6666666666667</ele><time>2026-04-19T12:26:23Z</time></trkpt><trkpt lat="43.10301282428033" lon="11.723447485767394"><ele>487.0</ele><time>2026-04-19T12:26:24Z</time></trkpt><trkpt lat="43.10793378872984" lon="11.71999097530007"><ele>488.40000000000003</ele><time>2026-04-19T12:27:25Z</time></trkpt><trkpt lat="43.107896048942" lon="11.719918977405804"><ele>489.80000000000007</ele><time>2026-04-19T12:27:27Z</time></trkpt><trkpt lat="43.107824893308624" lon="11.719780576429052"><ele>491.2</ele><time>2026-04-19T12:28:27Z</time></trkpt><trkpt lat="43.1077586945058" lon="11.719686191774263"><ele>492.6</ele><time>2026-04-19T12:28:28Z</time></trkpt><trkpt lat="43.107687777967875" lon="11.719544099391532"><ele>494.0</ele><time>2026-04-19T12:28:29Z</time></trkpt><trkpt lat="43.10761643672517" lon="11.71936025705435"><ele>494.0</ele><time>2026-04-19T12:28:30Z</time></trkpt><trkpt lat="43.10752573721374" lon="11.719172700619556"><ele>494.0</ele><time>2026-04-19T12:28:31Z</time></trkpt><trkpt lat="43.10743698058497" lon="11.718988019760602"><ele>494.0</ele><time>2026-04-19T12:28:32Z</time></trkpt><trkpt lat="43.10735865607186" lon="11.718825045636107"><ele>494.2</ele><time>2026-04-19T12:28:33Z</time></trkpt><trkpt lat="43.10728917667394" lon="11.718680475811139"><ele>494.4</ele><time>2026-04-19T12:28:34Z</time></trkpt><trkpt lat="43.10722887519327" lon="11.718555003298336"><ele>494.6</ele><time>2026-04-19T12:28:35Z</time></trkpt><trkpt lat="43.10717635827341" lon="11.718445728334682"><ele>494.8</ele><time>2026-04-19T12:28:36Z</time></trkpt><trkpt lat="43.10711470168758" lon="11.718354859354156"><ele>495.0</ele><time>2026-04-19T12:28:37Z</time></trkpt><trkpt lat="43.10706342517488" lon="11.718241307897934"><ele>495.0</ele><time>2026-04-19T12:28:38Z</time></trkpt><trkpt lat="43.10702052229058" lon="11.71811851281654"><ele>495.0</ele><time>2026-04-19T12:28:39Z</time></trkpt><trkpt lat="43.1069791982676" lon="11.71799517903483"><ele>495.0</ele><time>2026-04-19T12:28:40Z</time></trkpt><trkpt lat="43.106875649244515" lon="11.717916942000588"><ele>495.0</ele><time>2026-04-19T12:28:41Z</time></trkpt><trkpt lat="43.106836836321925" lon="11.717839447189279"><ele>495.0</ele><time>2026-04-19T12:28:42Z</time></trkpt><trkpt lat="43.10691241485124" lon="11.71802271367647"><ele>495.0</ele><time>2026-04-19T12:28:49Z</time></trkpt><trkpt lat="43.107003591833966" lon="11.718170418540113"><ele>495.0</ele><time>2026-04-19T12:28:50Z</time></trkpt><trkpt lat="43.107109763057466" lon="11.718375922711981"><ele>495.0</ele><time>2026-04-19T12:28:51Z</time></trkpt><trkpt lat="43.107212325804" lon="11.718607277864718"><ele>494.66666666666663</ele><time>2026-04-19T12:28:52Z</time></trkpt><trkpt lat="43.10730904457747" lon="11.71882338900451"><ele>494.3333333333333</ele><time>2026-04-19T12:28:53Z</time></trkpt><trkpt lat="43.107396809627105" lon="11.719011689006907"><ele>494.0</ele><time>2026-04-19T12:28:54Z</time></trkpt><trkpt lat="43.10748354285801" lon="11.719186782925258"><ele>494.0</ele><time>2026-04-19T12:28:55Z</time></trkpt><trkpt lat="43.107562533989686" lon="11.719348804973924"><ele>494.0</ele><time>2026-04-19T12:28:56Z</time></trkpt><trkpt lat="43.10763792145745" lon="11.71949550555265"><ele>494.0</ele><time>2026-04-19T12:28:57Z</time></trkpt><trkpt lat="43.10770893182927" lon="11.719638652598533"><ele>494.0</ele><time>2026-04-19T12:28:58Z</time></trkpt><trkpt lat="43.10780073000086" lon="11.719781257104257"><ele>494.0</ele><time>2026-04-19T12:28:59Z</time></trkpt><trkpt lat="43.10792639798308" lon="11.719895389808228"><ele>494.0</ele><time>2026-04-19T12:29:00Z</time></trkpt><trkpt lat="43.10807631655825" lon="11.720023562160748"><ele>494.0</ele><time>2026-04-19T12:29:01Z</time></trkpt><trkpt lat="43.108384760014985" lon="11.720451794785676"><ele>495.66666666666663</ele><time>2026-04-19T12:29:03Z</time></trkpt><trkpt lat="43.10850052925779" lon="11.720669010056898"><ele>497.33333333333337</ele><time>2026-04-19T12:29:04Z</time></trkpt><trkpt lat="43.10862667947213" lon="11.720847941053043"><ele>499.0</ele><time>2026-04-19T12:29:05Z</time></trkpt><trkpt lat="43.10877948117364" lon="11.720996583623926"><ele>498.6666666666667</ele><time>2026-04-19T12:29:06Z</time></trkpt><trkpt lat="43.10896186533385" lon="11.721080545272914"><ele>498.33333333333337</ele><time>2026-04-19T12:29:07Z</time></trkpt><trkpt lat="43.109131610237185" lon="11.721106688336532"><ele>498.0</ele><time>2026-04-19T12:29:08Z</time></trkpt><trkpt lat="43.10926605602871" lon="11.721145471372578"><ele>495.66666666666663</ele><time>2026-04-19T12:29:09Z</time></trkpt><trkpt lat="43.10938115584148" lon="11.721254908101578"><ele>493.3333333333333</ele><time>2026-04-19T12:29:10Z</time></trkpt><trkpt lat="43.109467743819536" lon="11.721408598403007"><ele>491.0</ele><time>2026-04-19T12:29:11Z</time></trkpt><trkpt lat="43.10955418190596" lon="11.721615875107114"><ele>491.0</ele><time>2026-04-19T12:29:12Z</time></trkpt><trkpt lat="43.109643701136754" lon="11.721835680977337"><ele>491.0</ele><time>2026-04-19T12:29:13Z</time></trkpt><trkpt lat="43.10973726665131" lon="11.722044102164226"><ele>491.0</ele><time>2026-04-19T12:29:14Z</time></trkpt><trkpt lat="43.109816518484614" lon="11.722268523957794"><ele>491.3333333333333</ele><time>2026-04-19T12:29:15Z</time></trkpt><trkpt lat="43.10988279378457" lon="11.722479721180544"><ele>491.66666666666663</ele><time>2026-04-19T12:29:16Z</time></trkpt><trkpt lat="43.10995022890653" lon="11.722671432707488"><ele>492.0</ele><time>2026-04-19T12:29:17Z</time></trkpt><trkpt lat="43.110024879813274" lon="11.722878943303112"><ele>486.33333333333337</ele><time>2026-04-19T12:29:18Z</time></trkpt><trkpt lat="43.11010503103143" lon="11.723094060333656"><ele>480.6666666666667</ele><time>2026-04-19T12:29:19Z</time></trkpt><trkpt lat="43.11019282450151" lon="11.723314736145575"><ele>475.0</ele><time>2026-04-19T12:29:20Z</time></trkpt><trkpt lat="43.11028672095532" lon="11.723540552465606"><ele>474.6666666666667</ele><time>2026-04-19T12:29:21Z</time></trkpt><trkpt lat="43.11038027663491" lon="11.723756351101141"><ele>474.33333333333337</ele><time>2026-04-19T12:29:22Z</time></trkpt><trkpt lat="43.11047525526335" lon="11.723943307660445"><ele>474.0</ele><time>2026-04-19T12:29:23Z</time></trkpt><trkpt lat="43.110604241138695" lon="11.724097148382334"><ele>472.0</ele><time>2026-04-19T12:29:24Z</time></trkpt><trkpt lat="43.122912798310246" lon="11.724025048486457"><ele>472.0</ele><time>2026-04-19T12:30:25Z</time></trkpt><trkpt lat="43.12308687432314" lon="11.724012334367115"><ele>472.0</ele><time>2026-04-19T12:30:26Z</time></trkpt><trkpt lat="43.12325183551043" lon="11.724005405037735"><ele>472.0</ele><time>2026-04-19T12:30:27Z</time></trkpt><trkpt lat="43.123412926938876" lon="11.72401199660657"><ele>473.6666666666667</ele><time>2026-04-19T12:30:28Z</time></trkpt><trkpt lat="43.123579789064074" lon="11.724030243287544"><ele>475.33333333333337</ele><time>2026-04-19T12:30:29Z</time></trkpt><trkpt lat="43.12375678148909" lon="11.724057602241187"><ele>477.0</ele><time>2026-04-19T12:30:30Z</time></trkpt><trkpt lat="43.123938994405" lon="11.724093698092425"><ele>479.33333333333337</ele><time>2026-04-19T12:30:31Z</time></trkpt><trkpt lat="43.12412444349737" lon="11.724133406148795"><ele>481.6666666666667</ele><time>2026-04-19T12:30:32Z</time></trkpt><trkpt lat="43.12430914953347" lon="11.724164568391231"><ele>484.0</ele><time>2026-04-19T12:30:33Z</time></trkpt><trkpt lat="43.124504374482726" lon="11.724191762076819"><ele>484.0</ele><time>2026-04-19T12:30:34Z</time></trkpt><trkpt lat="43.1246936115645" lon="11.72421186548996"><ele>484.0</ele><time>2026-04-19T12:30:35Z</time></trkpt><trkpt lat="43.12487516789017" lon="11.724229411481144"><ele>484.0</ele><time>2026-04-19T12:30:36Z</time></trkpt><trkpt lat="43.12503381350942" lon="11.72425602191323"><ele>485.75</ele><time>2026-04-19T12:30:37Z</time></trkpt><trkpt lat="43.1251764031258" lon="11.724300430794186"><ele>487.5</ele><time>2026-04-19T12:30:38Z</time></trkpt><trkpt lat="43.12530894642953" lon="11.724379154734839"><ele>489.25</ele><time>2026-04-19T12:30:39Z</time></trkpt><trkpt lat="43.125446939040636" lon="11.724426530390911"><ele>491.0</ele><time>2026-04-19T12:30:40Z</time></trkpt><trkpt lat="43.12557487377889" lon="11.724666947215422"><ele>492.0</ele><time>2026-04-19T12:30:41Z</time></trkpt><trkpt lat="43.12572058729146" lon="11.724837014377584"><ele>493.0</ele><time>2026-04-19T12:30:42Z</time></trkpt><trkpt lat="43.12588695674098" lon="11.724982570315206"><ele>494.0</ele><time>2026-04-19T12:30:43Z</time></trkpt><trkpt lat="43.12607403631981" lon="11.725107046614598"><ele>502.5</ele><time>2026-04-19T12:30:44Z</time></trkpt><trkpt lat="43.12627766963915" lon="11.725233790100315"><ele>511.0</ele><time>2026-04-19T12:30:45Z</time></trkpt><trkpt lat="43.12648673497949" lon="11.72536282195653"><ele>509.0</ele><time>2026-04-19T12:30:46Z</time></trkpt><trkpt lat="43.12668770433584" lon="11.725489369517426"><ele>507.0</ele><time>2026-04-19T12:30:47Z</time></trkpt><trkpt lat="43.12688569683001" lon="11.725613181164317"><ele>505.0</ele><time>2026-04-19T12:30:48Z</time></trkpt><trkpt lat="43.12709136043998" lon="11.725738528173487"><ele>505.0</ele><time>2026-04-19T12:30:49Z</time></trkpt><trkpt lat="43.12730077613175" lon="11.725866367690255"><ele>505.0</ele><time>2026-04-19T12:30:50Z</time></trkpt><trkpt lat="43.127492023469884" lon="11.72598474676566"><ele>505.0</ele><time>2026-04-19T12:30:51Z</time></trkpt><trkpt lat="43.12766632626562" lon="11.726098138013258"><ele>503.0</ele><time>2026-04-19T12:30:52Z</time></trkpt><trkpt lat="43.127827382438376" lon="11.726221237150197"><ele>501.0</ele><time>2026-04-19T12:30:53Z</time></trkpt><trkpt lat="43.127979652538684" lon="11.726372834057434"><ele>499.0</ele><time>2026-04-19T12:30:54Z</time></trkpt><trkpt lat="43.12810363116361" lon="11.726562198808418"><ele>499.0</ele><time>2026-04-19T12:30:55Z</time></trkpt><trkpt lat="43.12820003981298" lon="11.72678925284934"><ele>499.0</ele><time>2026-04-19T12:30:56Z</time></trkpt><trkpt lat="43.12826607016482" lon="11.72704286525635"><ele>499.0</ele><time>2026-04-19T12:30:57Z</time></trkpt><trkpt lat="43.12829894346337" lon="11.727295929902121"><ele>500.5</ele><time>2026-04-19T12:30:58Z</time></trkpt><trkpt lat="43.1283112312669" lon="11.727530247263982"><ele>502.0</ele><time>2026-04-19T12:30:59Z</time></trkpt><trkpt lat="43.128331603571766" lon="11.727722267539164"><ele>503.5</ele><time>2026-04-19T12:31:00Z</time></trkpt><trkpt lat="43.128376051649454" lon="11.72789306892481"><ele>505.0</ele><time>2026-04-19T12:31:01Z</time></trkpt><trkpt lat="43.12845411613111" lon="11.728027038427397"><ele>506.33333333333337</ele><time>2026-04-19T12:31:02Z</time></trkpt><trkpt lat="43.128573913993584" lon="11.728116740240676"><ele>507.66666666666663</ele><time>2026-04-19T12:31:03Z</time></trkpt><trkpt lat="43.128731828249585" lon="11.728146278019409"><ele>509.0</ele><time>2026-04-19T12:31:04Z</time></trkpt><trkpt lat="43.12890927449375" lon="11.728114230578672"><ele>511.0</ele><time>2026-04-19T12:31:05Z</time></trkpt><trkpt lat="43.129099487598566" lon="11.72804088294681"><ele>513.0</ele><time>2026-04-19T12:31:06Z</time></trkpt><trkpt lat="43.12928857152717" lon="11.727986628769225"><ele>515.0</ele><time>2026-04-19T12:31:07Z</time></trkpt><trkpt lat="43.12945546529831" lon="11.727968199451857"><ele>515.0</ele><time>2026-04-19T12:31:08Z</time></trkpt><trkpt lat="43.12959918406871" lon="11.727966431643187"><ele>515.0</ele><time>2026-04-19T12:31:09Z</time></trkpt><trkpt lat="43.12974500755351" lon="11.727976643022963"><ele>515.0</ele><time>2026-04-19T12:31:10Z</time></trkpt><trkpt lat="43.129897035502125" lon="11.728005967068707"><ele>515.0</ele><time>2026-04-19T12:31:11Z</time></trkpt><trkpt lat="43.130058060032965" lon="11.72804882083007"><ele>514.6666666666666</ele><time>2026-04-19T12:31:12Z</time></trkpt><trkpt lat="43.13023177272998" lon="11.72809153051943"><ele>514.3333333333334</ele><time>2026-04-19T12:31:13Z</time></trkpt><trkpt lat="43.13041007219976" lon="11.728127279573869"><ele>514.0</ele><time>2026-04-19T12:31:14Z</time></trkpt><trkpt lat="43.13058677684998" lon="11.728164249932442"><ele>516.0</ele><time>2026-04-19T12:31:15Z</time></trkpt><trkpt lat="43.13075044670989" lon="11.728209370371538"><ele>518.0</ele><time>2026-04-19T12:31:16Z</time></trkpt><trkpt lat="43.130901103249" lon="11.72828190498633"><ele>520.0</ele><time>2026-04-19T12:31:17Z</time></trkpt><trkpt lat="43.13104122670882" lon="11.728396068034911"><ele>520.0</ele><time>2026-04-19T12:31:18Z</time></trkpt><trkpt lat="43.13117215062101" lon="11.728543484767686"><ele>520.0</ele><time>2026-04-19T12:31:19Z</time></trkpt><trkpt lat="43.13129570497993" lon="11.728717690481156"><ele>520.0</ele><time>2026-04-19T12:31:20Z</time></trkpt><trkpt lat="43.13143200817965" lon="11.728916618403034"><ele>520.5</ele><time>2026-04-19T12:31:21Z</time></trkpt><trkpt lat="43.13159868642253" lon="11.72910638235898"><ele>521.0</ele><time>2026-04-19T12:31:22Z</time></trkpt><trkpt lat="43.1318082615659" lon="11.729258663156662"><ele>521.0</ele><time>2026-04-19T12:31:23Z</time></trkpt><trkpt lat="43.132044613627265" lon="11.72936647216561"><ele>521.0</ele><time>2026-04-19T12:31:24Z</time></trkpt><trkpt lat="43.139970242855036" lon="11.736683790205735"><ele>519.3333333333333</ele><time>2026-04-19T12:32:25Z</time></trkpt><trkpt lat="43.14009888107598" lon="11.7368439976709"><ele>517.6666666666666</ele><time>2026-04-19T12:32:26Z</time></trkpt><trkpt lat="43.14022984657678" lon="11.736966108601457"><ele>516.0</ele><time>2026-04-19T12:32:27Z</time></trkpt><trkpt lat="43.14038208685594" lon="11.737029951521002"><ele>514.6666666666666</ele><time>2026-04-19T12:32:28Z</time></trkpt><trkpt lat="43.14054745156794" lon="11.737036336243191"><ele>513.3333333333333</ele><time>2026-04-19T12:32:29Z</time></trkpt><trkpt lat="43.14070001246661" lon="11.737004879626774"><ele>512.0</ele><time>2026-04-19T12:32:30Z</time></trkpt><trkpt lat="43.14083067453301" lon="11.736940105821267"><ele>513.5</ele><time>2026-04-19T12:32:31Z</time></trkpt><trkpt lat="43.140949067946124" lon="11.736841399908728"><ele>515.0</ele><time>2026-04-19T12:32:32Z</time></trkpt><trkpt lat="43.14106415718401" lon="11.736727272856328"><ele>516.5</ele><time>2026-04-19T12:32:33Z</time></trkpt><trkpt lat="43.14114870091892" lon="11.736583738277568"><ele>518.0</ele><time>2026-04-19T12:32:34Z</time></trkpt><trkpt lat="43.14120712765576" lon="11.73642165978204"><ele>518.0</ele><time>2026-04-19T12:32:35Z</time></trkpt><trkpt lat="43.14124893418704" lon="11.73625403155401"><ele>518.0</ele><time>2026-04-19T12:32:36Z</time></trkpt><trkpt lat="43.14130560970103" lon="11.736088978090377"><ele>518.0</ele><time>2026-04-19T12:32:37Z</time></trkpt><trkpt lat="43.14137745644561" lon="11.735950246570747"><ele>518.0</ele><time>2026-04-19T12:32:38Z</time></trkpt><trkpt lat="43.14145492918336" lon="11.735854212751729"><ele>516.5</ele><time>2026-04-19T12:32:39Z</time></trkpt><trkpt lat="43.141551310433165" lon="11.735763585615775"><ele>515.0</ele><time>2026-04-19T12:32:40Z</time></trkpt><trkpt lat="43.14165744306469" lon="11.735693678278535"><ele>513.5</ele><time>2026-04-19T12:32:41Z</time></trkpt><trkpt lat="43.141765996066454" lon="11.735650851145504"><ele>512.0</ele><time>2026-04-19T12:32:42Z</time></trkpt><trkpt lat="43.14188661802647" lon="11.735630316789496"><ele>512.0</ele><time>2026-04-19T12:32:43Z</time></trkpt><trkpt lat="43.14200675011504" lon="11.73563796910436"><ele>512.0</ele><time>2026-04-19T12:32:44Z</time></trkpt><trkpt lat="43.14218228214994" lon="11.735567967235387"><ele>512.0</ele><time>2026-04-19T12:32:45Z</time></trkpt><trkpt lat="43.142344966700634" lon="11.735551631048336"><ele>508.0</ele><time>2026-04-19T12:32:46Z</time></trkpt><trkpt lat="43.14251958890071" lon="11.735490474466935"><ele>504.0</ele><time>2026-04-19T12:32:47Z</time></trkpt><trkpt lat="43.14270690291517" lon="11.735428847343012"><ele>500.0</ele><time>2026-04-19T12:32:48Z</time></trkpt><trkpt lat="43.14289363936503" lon="11.735389703376427"><ele>500.0</ele><time>2026-04-19T12:32:49Z</time></trkpt><trkpt lat="43.14306580813223" lon="11.735330673589077"><ele>500.0</ele><time>2026-04-19T12:32:50Z</time></trkpt><trkpt lat="43.14323958102947" lon="11.735315451736744"><ele>500.0</ele><time>2026-04-19T12:32:51Z</time></trkpt><trkpt lat="43.14340018716787" lon="11.735275409481275"><ele>497.66666666666663</ele><time>2026-04-19T12:32:52Z</time></trkpt><trkpt lat="43.14355255907006" lon="11.735235342539635"><ele>495.33333333333337</ele><time>2026-04-19T12:32:53Z</time></trkpt><trkpt lat="43.14370407154979" lon="11.73519415467941"><ele>493.0</ele><time>2026-04-19T12:32:54Z</time></trkpt><trkpt lat="43.143844026264034" lon="11.735159638700242"><ele>492.25</ele><time>2026-04-19T12:32:55Z</time></trkpt><trkpt lat="43.14395934393241" lon="11.73514335533278"><ele>491.5</ele><time>2026-04-19T12:32:56Z</time></trkpt><trkpt lat="43.14407169698618" lon="11.73515394486519"><ele>490.75</ele><time>2026-04-19T12:32:57Z</time></trkpt><trkpt lat="43.144145857301446" lon="11.735258027941818"><ele>490.0</ele><time>2026-04-19T12:32:58Z</time></trkpt><trkpt lat="43.14420392660603" lon="11.735400507871566"><ele>490.0</ele><time>2026-04-19T12:32:59Z</time></trkpt><trkpt lat="43.144244202653184" lon="11.735601455806963"><ele>490.0</ele><time>2026-04-19T12:33:00Z</time></trkpt><trkpt lat="43.14433512275012" lon="11.735832684115056"><ele>490.0</ele><time>2026-04-19T12:33:01Z</time></trkpt><trkpt lat="43.144461913880576" lon="11.736037854431379"><ele>486.0</ele><time>2026-04-19T12:33:02Z</time></trkpt><trkpt lat="43.144573168495334" lon="11.736229500692225"><ele>482.0</ele><time>2026-04-19T12:33:03Z</time></trkpt><trkpt lat="43.14466021678176" lon="11.736424405290073"><ele>478.0</ele><time>2026-04-19T12:33:04Z</time></trkpt><trkpt lat="43.14467804312752" lon="11.736655672239234"><ele>478.0</ele><time>2026-04-19T12:33:05Z</time></trkpt><trkpt lat="43.144701759817" lon="11.736880799937161"><ele>478.0</ele><time>2026-04-19T12:33:06Z</time></trkpt><trkpt lat="43.14473486757223" lon="11.73708594480807"><ele>478.0</ele><time>2026-04-19T12:33:07Z</time></trkpt><trkpt lat="43.14479884404283" lon="11.737281467877517"><ele>479.0</ele><time>2026-04-19T12:33:08Z</time></trkpt><trkpt lat="43.14488395822694" lon="11.737455645673508"><ele>480.0</ele><time>2026-04-19T12:33:09Z</time></trkpt><trkpt lat="43.14499675747934" lon="11.737590428965689"><ele>481.0</ele><time>2026-04-19T12:33:10Z</time></trkpt><trkpt lat="43.14512785846915" lon="11.737670623107089"><ele>482.0</ele><time>2026-04-19T12:33:11Z</time></trkpt><trkpt lat="43.14527117973709" lon="11.7376891722212"><ele>482.0</ele><time>2026-04-19T12:33:12Z</time></trkpt><trkpt lat="43.14540567003812" lon="11.737689172109883"><ele>482.0</ele><time>2026-04-19T12:33:13Z</time></trkpt><trkpt lat="43.14550683542681" lon="11.737794060862022"><ele>482.0</ele><time>2026-04-19T12:33:14Z</time></trkpt><trkpt lat="43.14558846945634" lon="11.737957970878083"><ele>482.0</ele><time>2026-04-19T12:33:15Z</time></trkpt><trkpt lat="43.14560396123957" lon="11.738197725107815"><ele>480.75</ele><time>2026-04-19T12:33:16Z</time></trkpt><trkpt lat="43.145635030837376" lon="11.738396370560366"><ele>479.5</ele><time>2026-04-19T12:33:17Z</time></trkpt><trkpt lat="43.14572168395471" lon="11.738546300279248"><ele>478.25</ele><time>2026-04-19T12:33:18Z</time></trkpt><trkpt lat="43.14585251911334" lon="11.738640718489478"><ele>477.0</ele><time>2026-04-19T12:33:19Z</time></trkpt><trkpt lat="43.14601010116322" lon="11.738673831626983"><ele>470.33333333333337</ele><time>2026-04-19T12:33:20Z</time></trkpt><trkpt lat="43.14619278166087" lon="11.738720618203146"><ele>463.6666666666667</ele><time>2026-04-19T12:33:21Z</time></trkpt><trkpt lat="43.1463618918056" lon="11.738742601381745"><ele>457.0</ele><time>2026-04-19T12:33:22Z</time></trkpt><trkpt lat="43.14652452915159" lon="11.738767160220423"><ele>457.5</ele><time>2026-04-19T12:33:23Z</time></trkpt><trkpt lat="43.14667024444266" lon="11.738760783842919"><ele>458.0</ele><time>2026-04-19T12:33:24Z</time></trkpt><trkpt lat="43.14989043119823" lon="11.740632216235309"><ele>441.66666666666663</ele><time>2026-04-19T12:34:25Z</time></trkpt><trkpt lat="43.150066516993796" lon="11.740610484177079"><ele>425.33333333333337</ele><time>2026-04-19T12:34:26Z</time></trkpt><trkpt lat="43.15023174230102" lon="11.740602412630773"><ele>409.0</ele><time>2026-04-19T12:34:27Z</time></trkpt><trkpt lat="43.15039425082887" lon="11.740600350428954"><ele>409.0</ele><time>2026-04-19T12:34:28Z</time></trkpt><trkpt lat="43.150541642702755" lon="11.740584270793702"><ele>409.0</ele><time>2026-04-19T12:34:29Z</time></trkpt><trkpt lat="43.15067319730657" lon="11.740508498768229"><ele>409.0</ele><time>2026-04-19T12:34:30Z</time></trkpt><trkpt lat="43.1507856130871" lon="11.740362989253201"><ele>409.0</ele><time>2026-04-19T12:34:31Z</time></trkpt><trkpt lat="43.150893230771295" lon="11.740173638982045"><ele>408.6666666666667</ele><time>2026-04-19T12:34:32Z</time></trkpt><trkpt lat="43.151013738438564" lon="11.739998815939156"><ele>408.33333333333337</ele><time>2026-04-19T12:34:33Z</time></trkpt><trkpt lat="43.151129668692896" lon="11.739822844363596"><ele>408.0</ele><time>2026-04-19T12:34:34Z</time></trkpt><trkpt lat="43.151232667320095" lon="11.73966756955337"><ele>408.0</ele><time>2026-04-19T12:34:35Z</time></trkpt><trkpt lat="43.15132329443459" lon="11.73954780032005"><ele>408.0</ele><time>2026-04-19T12:34:36Z</time></trkpt><trkpt lat="43.15141384697027" lon="11.739444086518542"><ele>408.0</ele><time>2026-04-19T12:34:37Z</time></trkpt><trkpt lat="43.15152581830294" lon="11.73944121137636"><ele>408.0</ele><time>2026-04-19T12:34:38Z</time></trkpt><trkpt lat="43.151642332035344" lon="11.739512099372703"><ele>404.5</ele><time>2026-04-19T12:34:39Z</time></trkpt><trkpt lat="43.15171988480454" lon="11.739664854751151"><ele>401.0</ele><time>2026-04-19T12:34:40Z</time></trkpt><trkpt lat="43.1518229246814" lon="11.739816457275593"><ele>397.5</ele><time>2026-04-19T12:34:41Z</time></trkpt><trkpt lat="43.15190942830996" lon="11.739987006832994"><ele>394.0</ele><time>2026-04-19T12:34:42Z</time></trkpt><trkpt lat="43.15202092680658" lon="11.740095135144767"><ele>394.0</ele><time>2026-04-19T12:34:43Z</time></trkpt><trkpt lat="43.15214699558568" lon="11.740175687002697"><ele>394.0</ele><time>2026-04-19T12:34:44Z</time></trkpt><trkpt lat="43.15228640522986" lon="11.740254586046447"><ele>394.0</ele><time>2026-04-19T12:34:45Z</time></trkpt><trkpt lat="43.15243587624814" lon="11.74033601369385"><ele>390.0</ele><time>2026-04-19T12:34:46Z</time></trkpt><trkpt lat="43.15258064070726" lon="11.74040912757649"><ele>386.0</ele><time>2026-04-19T12:34:47Z</time></trkpt><trkpt lat="43.15272983784111" lon="11.740494946818933"><ele>382.0</ele><time>2026-04-19T12:34:48Z</time></trkpt><trkpt lat="43.152878162494915" lon="11.740594702447368"><ele>382.0</ele><time>2026-04-19T12:34:49Z</time></trkpt><trkpt lat="43.15303576923681" lon="11.7406969625029"><ele>382.0</ele><time>2026-04-19T12:34:50Z</time></trkpt><trkpt lat="43.153201044498786" lon="11.740806830230166"><ele>382.0</ele><time>2026-04-19T12:34:51Z</time></trkpt><trkpt lat="43.15336058658619" lon="11.74091061547564"><ele>383.66666666666663</ele><time>2026-04-19T12:34:52Z</time></trkpt><trkpt lat="43.15350934065309" lon="11.741010645476708"><ele>385.3333333333333</ele><time>2026-04-19T12:34:53Z</time></trkpt><trkpt lat="43.15364940730738" lon="11.741112369676685"><ele>387.0</ele><time>2026-04-19T12:34:54Z</time></trkpt><trkpt lat="43.15378153901726" lon="11.74123656791083"><ele>383.3333333333333</ele><time>2026-04-19T12:34:55Z</time></trkpt><trkpt lat="43.15390295442624" lon="11.741386630126087"><ele>379.66666666666663</ele><time>2026-04-19T12:34:56Z</time></trkpt><trkpt lat="43.15401000345463" lon="11.741567433857803"><ele>376.0</ele><time>2026-04-19T12:34:57Z</time></trkpt><trkpt lat="43.15408774207052" lon="11.741776182550751"><ele>374.3333333333333</ele><time>2026-04-19T12:34:58Z</time></trkpt><trkpt lat="43.15415153268069" lon="11.742004304292363"><ele>372.6666666666667</ele><time>2026-04-19T12:34:59Z</time></trkpt><trkpt lat="43.15420414217955" lon="11.742241401689578"><ele>371.0</ele><time>2026-04-19T12:35:00Z</time></trkpt><trkpt lat="43.154252324148786" lon="11.74248728896562"><ele>370.6666666666667</ele><time>2026-04-19T12:35:01Z</time></trkpt><trkpt lat="43.15429060221328" lon="11.742728065180954"><ele>370.3333333333333</ele><time>2026-04-19T12:35:02Z</time></trkpt><trkpt lat="43.15429853083669" lon="11.742963379000162"><ele>370.0</ele><time>2026-04-19T12:35:03Z</time></trkpt><trkpt lat="43.15424213403749" lon="11.743184973874401"><ele>370.0</ele><time>2026-04-19T12:35:04Z</time></trkpt><trkpt lat="43.154189144483304" lon="11.743415960630154"><ele>370.0</ele><time>2026-04-19T12:35:05Z</time></trkpt><trkpt lat="43.15411805342435" lon="11.74365750767812"><ele>370.0</ele><time>2026-04-19T12:35:06Z</time></trkpt><trkpt lat="43.15406245526884" lon="11.743905444192679"><ele>368.3333333333333</ele><time>2026-04-19T12:35:07Z</time></trkpt><trkpt lat="43.15402260052811" lon="11.744157810982074"><ele>366.6666666666667</ele><time>2026-04-19T12:35:08Z</time></trkpt><trkpt lat="43.15399228995712" lon="11.7443873636187"><ele>365.0</ele><time>2026-04-19T12:35:09Z</time></trkpt><trkpt lat="43.153976526208176" lon="11.74459493039794"><ele>365.0</ele><time>2026-04-19T12:35:10Z</time></trkpt><trkpt lat="43.15398583191607" lon="11.744805498535479"><ele>365.0</ele><time>2026-04-19T12:35:11Z</time></trkpt><trkpt lat="43.15402885433865" lon="11.745024099625768"><ele>365.0</ele><time>2026-04-19T12:35:12Z</time></trkpt><trkpt lat="43.15409381101172" lon="11.745250943195602"><ele>367.33333333333337</ele><time>2026-04-19T12:35:13Z</time></trkpt><trkpt lat="43.15415474916856" lon="11.745484317849384"><ele>369.6666666666667</ele><time>2026-04-19T12:35:14Z</time></trkpt><trkpt lat="43.15420341578924" lon="11.74572906654103"><ele>372.0</ele><time>2026-04-19T12:35:15Z</time></trkpt><trkpt lat="43.15424318429418" lon="11.745998706576355"><ele>371.0</ele><time>2026-04-19T12:35:16Z</time></trkpt><trkpt lat="43.15427897562521" lon="11.746290582234998"><ele>370.0</ele><time>2026-04-19T12:35:17Z</time></trkpt><trkpt lat="43.15430938706938" lon="11.746602125457189"><ele>369.0</ele><time>2026-04-19T12:35:18Z</time></trkpt><trkpt lat="43.154333499166725" lon="11.746904071563899"><ele>368.3333333333333</ele><time>2026-04-19T12:35:19Z</time></trkpt><trkpt lat="43.154364897203955" lon="11.747178683822648"><ele>367.66666666666663</ele><time>2026-04-19T12:35:20Z</time></trkpt><trkpt lat="43.15441984188386" lon="11.747435512228325"><ele>367.0</ele><time>2026-04-19T12:35:21Z</time></trkpt><trkpt lat="43.15449380827094" lon="11.74766410622736"><ele>364.66666666666663</ele><time>2026-04-19T12:35:22Z</time></trkpt><trkpt lat="43.15457282628036" lon="11.747879409560962"><ele>362.3333333333333</ele><time>2026-04-19T12:35:23Z</time></trkpt><trkpt lat="43.15463420274577" lon="11.748070442743971"><ele>360.0</ele><time>2026-04-19T12:35:24Z</time></trkpt><trkpt lat="43.16243022866043" lon="11.756992922383693"><ele>357.6666666666667</ele><time>2026-04-19T12:36:25Z</time></trkpt><trkpt lat="43.162552100989295" lon="11.757171231038432"><ele>355.33333333333337</ele><time>2026-04-19T12:36:26Z</time></trkpt><trkpt lat="43.162667042294764" lon="11.757366909602188"><ele>353.0</ele><time>2026-04-19T12:36:27Z</time></trkpt><trkpt lat="43.162783986041" lon="11.757569962767132"><ele>353.33333333333337</ele><time>2026-04-19T12:36:28Z</time></trkpt><trkpt lat="43.16289541960212" lon="11.757767884095017"><ele>353.6666666666667</ele><time>2026-04-19T12:36:29Z</time></trkpt><trkpt lat="43.162996229244676" lon="11.757984273305345"><ele>354.0</ele><time>2026-04-19T12:36:30Z</time></trkpt><trkpt lat="43.163074548028845" lon="11.758209696726935"><ele>354.0</ele><time>2026-04-19T12:36:31Z</time></trkpt><trkpt lat="43.16310195094321" lon="11.758404729666843"><ele>354.0</ele><time>2026-04-19T12:36:32Z</time></trkpt><trkpt lat="43.16306973977538" lon="11.758577125362859"><ele>354.0</ele><time>2026-04-19T12:36:33Z</time></trkpt><trkpt lat="43.16304711572664" lon="11.75875490079652"><ele>354.0</ele><time>2026-04-19T12:36:34Z</time></trkpt><trkpt lat="43.162983374738836" lon="11.758912801724586"><ele>352.5</ele><time>2026-04-19T12:36:35Z</time></trkpt><trkpt lat="43.16289762204648" lon="11.759046655099239"><ele>351.0</ele><time>2026-04-19T12:36:36Z</time></trkpt><trkpt lat="43.16280071500772" lon="11.759156610058975"><ele>349.5</ele><time>2026-04-19T12:36:37Z</time></trkpt><trkpt lat="43.16270337264481" lon="11.759254210609766"><ele>348.0</ele><time>2026-04-19T12:36:38Z</time></trkpt><trkpt lat="43.162615176786645" lon="11.759349079805547"><ele>348.0</ele><time>2026-04-19T12:36:39Z</time></trkpt><trkpt lat="43.16254129704727" lon="11.7594412691558"><ele>344.0</ele><time>2026-04-19T12:36:40Z</time></trkpt><trkpt lat="43.16247783170405" lon="11.759525837371646"><ele>344.0</ele><time>2026-04-19T12:36:41Z</time></trkpt><trkpt lat="43.16242256622063" lon="11.75960171330329"><ele>344.0</ele><time>2026-04-19T12:36:42Z</time></trkpt><trkpt lat="43.16237821417068" lon="11.75966384816778"><ele>344.0</ele><time>2026-04-19T12:36:43Z</time></trkpt><trkpt lat="43.16232186825244" lon="11.75972061544447"><ele>340.0</ele><time>2026-04-19T12:36:45Z</time></trkpt></trkseg><trkseg><trkpt lat="43.16934997077811" lon="11.778120998379352"><ele>269.0</ele><time>2026-04-19T12:44:34Z</time></trkpt><trkpt lat="43.169416029705516" lon="11.778177050787813"><ele>269.0</ele><time>2026-04-19T12:44:37Z</time></trkpt><trkpt lat="43.16947550268786" lon="11.778288881091253"><ele>269.0</ele><time>2026-04-19T12:44:40Z</time></trkpt><trkpt lat="43.1694779311781" lon="11.778376554513821"><ele>269.0</ele><time>2026-04-19T12:44:41Z</time></trkpt><trkpt lat="43.16950429643506" lon="11.778489723017776"><ele>269.0</ele><time>2026-04-19T12:44:42Z</time></trkpt><trkpt lat="43.169518190357685" lon="11.778623911591266"><ele>269.0</ele><time>2026-04-19T12:44:43Z</time></trkpt><trkpt lat="43.16954271476647" lon="11.778766111068883"><ele>268.75</ele><time>2026-04-19T12:44:44Z</time></trkpt><trkpt lat="43.169565685627795" lon="11.778924587612115"><ele>268.5</ele><time>2026-04-19T12:44:45Z</time></trkpt><trkpt lat="43.16959443252678" lon="11.779097501741493"><ele>268.25</ele><time>2026-04-19T12:44:46Z</time></trkpt><trkpt lat="43.16962317737663" lon="11.779263861091827"><ele>268.0</ele><time>2026-04-19T12:44:47Z</time></trkpt><trkpt lat="43.169661752714546" lon="11.779423745700175"><ele>267.8333333333333</ele><time>2026-04-19T12:44:48Z</time></trkpt><trkpt lat="43.16970687632422" lon="11.779555854412292"><ele>267.66666666666663</ele><time>2026-04-19T12:44:49Z</time></trkpt><trkpt lat="43.16975139175167" lon="11.779660868638096"><ele>267.5</ele><time>2026-04-19T12:44:50Z</time></trkpt><trkpt lat="43.16979950519944" lon="11.779755848121749"><ele>267.3333333333333</ele><time>2026-04-19T12:44:51Z</time></trkpt><trkpt lat="43.16984380188938" lon="11.779850151157708"><ele>267.1666666666667</ele><time>2026-04-19T12:44:52Z</time></trkpt><trkpt lat="43.169887007865285" lon="11.77992349668325"><ele>267.0</ele><time>2026-04-19T12:44:53Z</time></trkpt><trkpt lat="43.169951399748825" lon="11.780029631749459"><ele>266.8</ele><time>2026-04-19T12:44:55Z</time></trkpt><trkpt lat="43.169977183285894" lon="11.780175460800223"><ele>266.6</ele><time>2026-04-19T12:44:57Z</time></trkpt><trkpt lat="43.16999676897374" lon="11.780276489006392"><ele>266.40000000000003</ele><time>2026-04-19T12:44:58Z</time></trkpt><trkpt lat="43.17001915729607" lon="11.780392187275678"><ele>266.2</ele><time>2026-04-19T12:44:59Z</time></trkpt><trkpt lat="43.170044814720505" lon="11.780526305641128"><ele>266.0</ele><time>2026-04-19T12:45:00Z</time></trkpt><trkpt lat="43.17006581963162" lon="11.780669892479123"><ele>266.0</ele><time>2026-04-19T12:45:01Z</time></trkpt><trkpt lat="43.170081924630715" lon="11.780822777724646"><ele>266.0</ele><time>2026-04-19T12:45:02Z</time></trkpt><trkpt lat="43.170094385551735" lon="11.780981471253607"><ele>266.0</ele><time>2026-04-19T12:45:03Z</time></trkpt><trkpt lat="43.17011497184136" lon="11.781146337770792"><ele>266.0</ele><time>2026-04-19T12:45:04Z</time></trkpt><trkpt lat="43.17014084747848" lon="11.781317915656624"><ele>266.0</ele><time>2026-04-19T12:45:05Z</time></trkpt><trkpt lat="43.170165183167086" lon="11.781477125625404"><ele>266.0</ele><time>2026-04-19T12:45:06Z</time></trkpt><trkpt lat="43.17019716763194" lon="11.781647218522595"><ele>266.0</ele><time>2026-04-19T12:45:07Z</time></trkpt><trkpt lat="43.170247835062064" lon="11.78180267248045"><ele>266.0</ele><time>2026-04-19T12:45:08Z</time></trkpt><trkpt lat="43.170303553800096" lon="11.781946173524569"><ele>266.0</ele><time>2026-04-19T12:45:09Z</time></trkpt><trkpt lat="43.17036148441976" lon="11.782073382840162"><ele>266.0</ele><time>2026-04-19T12:45:10Z</time></trkpt><trkpt lat="43.17041132986684" lon="11.782174850958363"><ele>266.0</ele><time>2026-04-19T12:45:11Z</time></trkpt><trkpt lat="43.1704466715061" lon="11.782272621941118"><ele>266.0</ele><time>2026-04-19T12:45:12Z</time></trkpt><trkpt lat="43.170513510532174" lon="11.782347640021614"><ele>266.0</ele><time>2026-04-19T12:45:14Z</time></trkpt><trkpt lat="43.170564293231564" lon="11.782224340761397"><ele>266.0</ele><time>2026-04-19T12:45:17Z</time></trkpt><trkpt lat="43.1705155258027" lon="11.782140070400136"><ele>266.0</ele><time>2026-04-19T12:45:20Z</time></trkpt><trkpt lat="43.170429454342816" lon="11.782065950682808"><ele>266.0</ele><time>2026-04-19T12:45:28Z</time></trkpt><trkpt lat="43.17035870475133" lon="11.781969268408275"><ele>266.0</ele><time>2026-04-19T12:45:29Z</time></trkpt><trkpt lat="43.17029910167699" lon="11.781848448598094"><ele>266.0</ele><time>2026-04-19T12:45:30Z</time></trkpt><trkpt lat="43.17024242453889" lon="11.781702174792432"><ele>266.0</ele><time>2026-04-19T12:45:31Z</time></trkpt><trkpt lat="43.17019510506818" lon="11.781538555797928"><ele>266.0</ele><time>2026-04-19T12:45:32Z</time></trkpt><trkpt lat="43.17016653305129" lon="11.781361221993707"><ele>266.0</ele><time>2026-04-19T12:45:33Z</time></trkpt><trkpt lat="43.170141829999075" lon="11.781168483820986"><ele>266.0</ele><time>2026-04-19T12:45:34.001Z</time></trkpt><trkpt lat="43.17011910030303" lon="11.780986131949632"><ele>266.0</ele><time>2026-04-19T12:45:35.001Z</time></trkpt><trkpt lat="43.17011498924432" lon="11.78082419765625"><ele>266.0</ele><time>2026-04-19T12:45:36.001Z</time></trkpt><trkpt lat="43.17009719237422" lon="11.78067788054472"><ele>266.0</ele><time>2026-04-19T12:45:37.001Z</time></trkpt><trkpt lat="43.17005959638126" lon="11.78052435975166"><ele>266.0</ele><time>2026-04-19T12:45:38.001Z</time></trkpt><trkpt lat="43.170038453279275" lon="11.78037788864871"><ele>266.0</ele><time>2026-04-19T12:45:39.001Z</time></trkpt><trkpt lat="43.17001535791097" lon="11.780249825143962"><ele>266.0</ele><time>2026-04-19T12:45:40.001Z</time></trkpt><trkpt lat="43.17000329614266" lon="11.780136296795073"><ele>266.0</ele><time>2026-04-19T12:45:41.001Z</time></trkpt><trkpt lat="43.17001804166085" lon="11.780028585545274"><ele>266.0</ele><time>2026-04-19T12:45:42.001Z</time></trkpt><trkpt lat="43.17003629868767" lon="11.779941767354613"><ele>266.0</ele><time>2026-04-19T12:45:43.001Z</time></trkpt><trkpt lat="43.17001579080291" lon="11.779776860353671"><ele>266.0</ele><time>2026-04-19T12:45:45.001Z</time></trkpt><trkpt lat="43.16989722473308" lon="11.779748621353088"><ele>266.25</ele><time>2026-04-19T12:45:46.001Z</time></trkpt><trkpt lat="43.16980534223146" lon="11.779695062313955"><ele>266.5</ele><time>2026-04-19T12:45:47.001Z</time></trkpt><trkpt lat="43.16974231297445" lon="11.77957082143213"><ele>266.75</ele><time>2026-04-19T12:45:48.001Z</time></trkpt><trkpt lat="43.16969418386011" lon="11.779416396931254"><ele>267.0</ele><time>2026-04-19T12:45:49.001Z</time></trkpt><trkpt lat="43.16962852219378" lon="11.779256302222876"><ele>267.25</ele><time>2026-04-19T12:45:50.001Z</time></trkpt><trkpt lat="43.16960632645919" lon="11.779062441413458"><ele>267.5</ele><time>2026-04-19T12:45:51.001Z</time></trkpt><trkpt lat="43.1695777089668" lon="11.778880430621749"><ele>267.75</ele><time>2026-04-19T12:45:52.001Z</time></trkpt><trkpt lat="43.16955397162079" lon="11.778694980542298"><ele>268.0</ele><time>2026-04-19T12:45:53.001Z</time></trkpt><trkpt lat="43.169515410545415" lon="11.77851268882873"><ele>268.25</ele><time>2026-04-19T12:45:54.001Z</time></trkpt><trkpt lat="43.169494913970716" lon="11.778323964437378"><ele>268.5</ele><time>2026-04-19T12:45:55.001Z</time></trkpt><trkpt lat="43.16947773336056" lon="11.778139867403192"><ele>268.75</ele><time>2026-04-19T12:45:56.001Z</time></trkpt><trkpt lat="43.169465860265284" lon="11.777964070742408"><ele>269.0</ele><time>2026-04-19T12:45:57.001Z</time></trkpt><trkpt lat="43.16945334541181" lon="11.777787485174448"><ele>269.5</ele><time>2026-04-19T12:45:58.001Z</time></trkpt><trkpt lat="43.169440814387286" lon="11.777590280232653"><ele>270.0</ele><time>2026-04-19T12:45:59.001Z</time></trkpt><trkpt lat="43.16942744672174" lon="11.777384631381903"><ele>270.5</ele><time>2026-04-19T12:46:00.001Z</time></trkpt><trkpt lat="43.16941249943421" lon="11.777174463193434"><ele>271.0</ele><time>2026-04-19T12:46:01.001Z</time></trkpt><trkpt lat="43.16941913482931" lon="11.776956213858124"><ele>271.3333333333333</ele><time>2026-04-19T12:46:02.001Z</time></trkpt><trkpt lat="43.16938691768351" lon="11.776739228594801"><ele>271.6666666666667</ele><time>2026-04-19T12:46:03.001Z</time></trkpt><trkpt lat="43.16936671508859" lon="11.776518985598978"><ele>272.0</ele><time>2026-04-19T12:46:04.001Z</time></trkpt><trkpt lat="43.16933114648514" lon="11.776304752625052"><ele>272.0</ele><time>2026-04-19T12:46:05.001Z</time></trkpt><trkpt lat="43.16928177064541" lon="11.776103430207012"><ele>272.0</ele><time>2026-04-19T12:46:06.001Z</time></trkpt><trkpt lat="43.169218853943306" lon="11.775936225282743"><ele>272.0</ele><time>2026-04-19T12:46:07.001Z</time></trkpt><trkpt lat="43.169150731056405" lon="11.775784280772669"><ele>272.0</ele><time>2026-04-19T12:46:08.001Z</time></trkpt><trkpt lat="43.16910488239401" lon="11.775630612029845"><ele>272.6</ele><time>2026-04-19T12:46:09.001Z</time></trkpt><trkpt lat="43.169042681090275" lon="11.775510664577567"><ele>273.2</ele><time>2026-04-19T12:46:10.001Z</time></trkpt><trkpt lat="43.169040000393466" lon="11.77535595145709"><ele>273.8</ele><time>2026-04-19T12:46:11.001Z</time></trkpt><trkpt lat="43.16902969527949" lon="11.775200223508126"><ele>274.4</ele><time>2026-04-19T12:46:12.001Z</time></trkpt><trkpt lat="43.169005168284805" lon="11.77505793674326"><ele>275.0</ele><time>2026-04-19T12:46:13.001Z</time></trkpt><trkpt lat="43.16900177882606" lon="11.774934707625016"><ele>275.8</ele><time>2026-04-19T12:46:14.001Z</time></trkpt><trkpt lat="43.1689994794294" lon="11.774832197708804"><ele>276.6</ele><time>2026-04-19T12:46:15.001Z</time></trkpt><trkpt lat="43.169033161749496" lon="11.77475072069437"><ele>277.4</ele><time>2026-04-19T12:46:16.001Z</time></trkpt><trkpt lat="43.16915773300356" lon="11.774699069541573"><ele>278.2</ele><time>2026-04-19T12:46:18.001Z</time></trkpt><trkpt lat="43.169252724461586" lon="11.774653160272823"><ele>279.0</ele><time>2026-04-19T12:46:19.001Z</time></trkpt><trkpt lat="43.169357564601306" lon="11.774614008511163"><ele>279.0</ele><time>2026-04-19T12:46:20.001Z</time></trkpt><trkpt lat="43.169467911927406" lon="11.774585890992451"><ele>279.0</ele><time>2026-04-19T12:46:21Z</time></trkpt><trkpt lat="43.16959744404504" lon="11.774554348407706"><ele>279.0</ele><time>2026-04-19T12:46:22Z</time></trkpt><trkpt lat="43.16972997049219" lon="11.774529779558494"><ele>279.0</ele><time>2026-04-19T12:46:23Z</time></trkpt><trkpt lat="43.16987592814739" lon="11.77451993846732"><ele>277.6666666666667</ele><time>2026-04-19T12:46:24Z</time></trkpt><trkpt lat="43.17003203916528" lon="11.774488914501163"><ele>276.33333333333337</ele><time>2026-04-19T12:46:25Z</time></trkpt><trkpt lat="43.170187486939234" lon="11.774437613983105"><ele>275.0</ele><time>2026-04-19T12:46:26Z</time></trkpt><trkpt lat="43.17035602416445" lon="11.77440775695241"><ele>275.0</ele><time>2026-04-19T12:46:27Z</time></trkpt><trkpt lat="43.17053327060972" lon="11.774375670660502"><ele>275.0</ele><time>2026-04-19T12:46:28Z</time></trkpt><trkpt lat="43.170719689321515" lon="11.774341366405757"><ele>275.0</ele><time>2026-04-19T12:46:29Z</time></trkpt><trkpt lat="43.17090440999428" lon="11.774307244714924"><ele>274.0</ele><time>2026-04-19T12:46:30Z</time></trkpt><trkpt lat="43.17109556235871" lon="11.774278508443995"><ele>273.0</ele><time>2026-04-19T12:46:31Z</time></trkpt><trkpt lat="43.171298595585704" lon="11.774262859035879"><ele>272.0</ele><time>2026-04-19T12:46:32Z</time></trkpt><trkpt lat="43.17150449538522" lon="11.774232989770816"><ele>273.0</ele><time>2026-04-19T12:46:33Z</time></trkpt><trkpt lat="43.17171842166413" lon="11.774201149533903"><ele>274.0</ele><time>2026-04-19T12:46:34Z</time></trkpt><trkpt lat="43.1719324804791" lon="11.774168077114938"><ele>275.0</ele><time>2026-04-19T12:46:35Z</time></trkpt><trkpt lat="43.1721458742799" lon="11.774114300561632"><ele>275.0</ele><time>2026-04-19T12:46:36Z</time></trkpt><trkpt lat="43.172350363802465" lon="11.774082585384443"><ele>275.0</ele><time>2026-04-19T12:46:37Z</time></trkpt><trkpt lat="43.17253655001563" lon="11.774043576721358"><ele>275.0</ele><time>2026-04-19T12:46:38Z</time></trkpt><trkpt lat="43.17272700582024" lon="11.774006589109767"><ele>276.6666666666667</ele><time>2026-04-19T12:46:39Z</time></trkpt><trkpt lat="43.17291606850538" lon="11.773973630604274"><ele>278.3333333333333</ele><time>2026-04-19T12:46:40Z</time></trkpt><trkpt lat="43.17309616974717" lon="11.77393644494732"><ele>280.0</ele><time>2026-04-19T12:46:41Z</time></trkpt><trkpt lat="43.173273790586514" lon="11.773900463556595"><ele>281.3333333333333</ele><time>2026-04-19T12:46:42Z</time></trkpt><trkpt lat="43.173459916535656" lon="11.773859449155177"><ele>282.6666666666667</ele><time>2026-04-19T12:46:43Z</time></trkpt><trkpt lat="43.17367582879021" lon="11.773871422714976"><ele>284.0</ele><time>2026-04-19T12:46:44Z</time></trkpt><trkpt lat="43.17389125169391" lon="11.773812299694477"><ele>285.33333333333337</ele><time>2026-04-19T12:46:45Z</time></trkpt><trkpt lat="43.174107905633804" lon="11.773769426358232"><ele>286.6666666666667</ele><time>2026-04-19T12:46:46Z</time></trkpt><trkpt lat="43.174320066322004" lon="11.773733213339275"><ele>288.0</ele><time>2026-04-19T12:46:47Z</time></trkpt><trkpt lat="43.17453080081855" lon="11.773666894721199"><ele>288.0</ele><time>2026-04-19T12:46:48Z</time></trkpt><trkpt lat="43.17474174366833" lon="11.773597059692314"><ele>288.0</ele><time>2026-04-19T12:46:49Z</time></trkpt><trkpt lat="43.17494761489592" lon="11.773518658345441"><ele>288.0</ele><time>2026-04-19T12:46:50Z</time></trkpt><trkpt lat="43.17514743649823" lon="11.77341437426401"><ele>288.0</ele><time>2026-04-19T12:46:51Z</time></trkpt><trkpt lat="43.17535020965326" lon="11.77332967631724"><ele>288.0</ele><time>2026-04-19T12:46:52Z</time></trkpt><trkpt lat="43.175552195246354" lon="11.773236692593496"><ele>288.0</ele><time>2026-04-19T12:46:53Z</time></trkpt><trkpt lat="43.17576314278295" lon="11.77316707482364"><ele>287.0</ele><time>2026-04-19T12:46:54Z</time></trkpt><trkpt lat="43.17596688227813" lon="11.77307877397627"><ele>286.0</ele><time>2026-04-19T12:46:55Z</time></trkpt><trkpt lat="43.17616024110458" lon="11.772958460866302"><ele>285.0</ele><time>2026-04-19T12:46:56Z</time></trkpt><trkpt lat="43.17636328339448" lon="11.772869900586176"><ele>282.3333333333333</ele><time>2026-04-19T12:46:57Z</time></trkpt><trkpt lat="43.176568710760336" lon="11.772778616616918"><ele>279.66666666666663</ele><time>2026-04-19T12:46:58Z</time></trkpt><trkpt lat="43.176777299140696" lon="11.772681977001673"><ele>277.0</ele><time>2026-04-19T12:46:59Z</time></trkpt><trkpt lat="43.17698843238116" lon="11.772616680448472"><ele>276.66666666666663</ele><time>2026-04-19T12:47:00Z</time></trkpt><trkpt lat="43.17717649193797" lon="11.772531790183605"><ele>276.3333333333333</ele><time>2026-04-19T12:47:01Z</time></trkpt><trkpt lat="43.17734551226173" lon="11.77245509164008"><ele>276.0</ele><time>2026-04-19T12:47:02Z</time></trkpt><trkpt lat="43.17749681958661" lon="11.77238756417372"><ele>275.0</ele><time>2026-04-19T12:47:03Z</time></trkpt><trkpt lat="43.17763872327292" lon="11.772322469456475"><ele>274.0</ele><time>2026-04-19T12:47:04Z</time></trkpt><trkpt lat="43.17777024132582" lon="11.772262040079472"><ele>273.0</ele><time>2026-04-19T12:47:05Z</time></trkpt><trkpt lat="43.177888991212825" lon="11.772207537881195"><ele>272.0</ele><time>2026-04-19T12:47:06Z</time></trkpt><trkpt lat="43.17800893333784" lon="11.772152887832387"><ele>272.0</ele><time>2026-04-19T12:47:07Z</time></trkpt><trkpt lat="43.178135508257846" lon="11.772095215703912"><ele>272.0</ele><time>2026-04-19T12:47:08Z</time></trkpt><trkpt lat="43.178269834424775" lon="11.772034011833112"><ele>272.0</ele><time>2026-04-19T12:47:09Z</time></trkpt><trkpt lat="43.1784133009173" lon="11.771968643317754"><ele>272.0</ele><time>2026-04-19T12:47:10Z</time></trkpt><trkpt lat="43.178562559655" lon="11.77185182236159"><ele>272.0</ele><time>2026-04-19T12:47:11Z</time></trkpt><trkpt lat="43.17873137822111" lon="11.77176816612213"><ele>272.0</ele><time>2026-04-19T12:47:12Z</time></trkpt><trkpt lat="43.17891348634324" lon="11.77168556186476"><ele>272.0</ele><time>2026-04-19T12:47:13Z</time></trkpt><trkpt lat="43.179102930537" lon="11.771604559695952"><ele>272.0</ele><time>2026-04-19T12:47:14Z</time></trkpt><trkpt lat="43.17930215104634" lon="11.771561983671653"><ele>272.0</ele><time>2026-04-19T12:47:15Z</time></trkpt><trkpt lat="43.17948488679276" lon="11.771475137222929"><ele>272.0</ele><time>2026-04-19T12:47:16Z</time></trkpt><trkpt lat="43.17966214716046" lon="11.771372699292584"><ele>272.0</ele><time>2026-04-19T12:47:17Z</time></trkpt><trkpt lat="43.17984567760767" lon="11.771288724000234"><ele>272.0</ele><time>2026-04-19T12:47:18Z</time></trkpt><trkpt lat="43.18002601136888" lon="11.771199850938595"><ele>272.0</ele><time>2026-04-19T12:47:19Z</time></trkpt><trkpt lat="43.18020685775658" lon="11.771105503162712"><ele>271.6666666666667</ele><time>2026-04-19T12:47:20Z</time></trkpt><trkpt lat="43.18039291702992" lon="11.771043513448294"><ele>271.3333333333333</ele><time>2026-04-19T12:47:21Z</time></trkpt><trkpt lat="43.180573306568185" lon="11.770959721953872"><ele>271.0</ele><time>2026-04-19T12:47:22Z</time></trkpt><trkpt lat="43.180755874950485" lon="11.770875109087022"><ele>270.66666666666663</ele><time>2026-04-19T12:47:23Z</time></trkpt><trkpt lat="43.180932078730415" lon="11.770759519090793"><ele>270.3333333333333</ele><time>2026-04-19T12:47:24Z</time></trkpt><trkpt lat="43.181116442973405" lon="11.770678191925311"><ele>270.0</ele><time>2026-04-19T12:47:25Z</time></trkpt><trkpt lat="43.18130428374094" lon="11.77059810357418"><ele>270.0</ele><time>2026-04-19T12:47:26Z</time></trkpt><trkpt lat="43.1814971128273" lon="11.770515775112615"><ele>270.0</ele><time>2026-04-19T12:47:27Z</time></trkpt><trkpt lat="43.18169466943355" lon="11.770425819284851"><ele>270.0</ele><time>2026-04-19T12:47:28Z</time></trkpt><trkpt lat="43.18189656032265" lon="11.77035963339503"><ele>269.0</ele><time>2026-04-19T12:47:29Z</time></trkpt><trkpt lat="43.18208484703128" lon="11.77027497064727"><ele>268.0</ele><time>2026-04-19T12:47:30Z</time></trkpt><trkpt lat="43.1822575236859" lon="11.770197326952024"><ele>267.0</ele><time>2026-04-19T12:47:31Z</time></trkpt><trkpt lat="43.18242359154436" lon="11.770123277723311"><ele>267.0</ele><time>2026-04-19T12:47:32Z</time></trkpt><trkpt lat="43.182578936220544" lon="11.770057050823434"><ele>267.0</ele><time>2026-04-19T12:47:33Z</time></trkpt><trkpt lat="43.18272586845944" lon="11.769996140323737"><ele>267.0</ele><time>2026-04-19T12:47:34Z</time></trkpt><trkpt lat="43.18285628683999" lon="11.769942658053347"><ele>267.0</ele><time>2026-04-19T12:47:35Z</time></trkpt><trkpt lat="43.182973659706825" lon="11.769894525528183"><ele>267.0</ele><time>2026-04-19T12:47:36Z</time></trkpt><trkpt lat="43.183086466635686" lon="11.769845804727547"><ele>267.0</ele><time>2026-04-19T12:47:37Z</time></trkpt><trkpt lat="43.18319582787174" lon="11.769788166830994"><ele>267.0</ele><time>2026-04-19T12:47:38Z</time></trkpt><trkpt lat="43.1832975297027" lon="11.769717430789793"><ele>266.6</ele><time>2026-04-19T12:47:39Z</time></trkpt><trkpt lat="43.18339205736281" lon="11.769637530726952"><ele>266.2</ele><time>2026-04-19T12:47:40Z</time></trkpt><trkpt lat="43.183454863164165" lon="11.769517407740521"><ele>265.8</ele><time>2026-04-19T12:47:41Z</time></trkpt><trkpt lat="43.18351201800663" lon="11.769427677991732"><ele>265.4</ele><time>2026-04-19T12:47:42Z</time></trkpt><trkpt lat="43.18358871042164" lon="11.769330080484348"><ele>265.0</ele><time>2026-04-19T12:47:44Z</time></trkpt><trkpt lat="43.18365461187309" lon="11.769423147906465"><ele>265.0</ele><time>2026-04-19T12:47:46Z</time></trkpt><trkpt lat="43.183748353597764" lon="11.769536376851864"><ele>265.0</ele><time>2026-04-19T12:47:48Z</time></trkpt><trkpt lat="43.183804158522506" lon="11.769619680983078"><ele>265.0</ele><time>2026-04-19T12:47:49Z</time></trkpt><trkpt lat="43.18388324792112" lon="11.769713720340581"><ele>265.0</ele><time>2026-04-19T12:47:50Z</time></trkpt><trkpt lat="43.18396897774848" lon="11.769831592650851"><ele>265.0</ele><time>2026-04-19T12:47:51Z</time></trkpt><trkpt lat="43.184063608484095" lon="11.769951156632603"><ele>264.75</ele><time>2026-04-19T12:47:52Z</time></trkpt><trkpt lat="43.184160185264886" lon="11.770074811689305"><ele>264.5</ele><time>2026-04-19T12:47:53Z</time></trkpt><trkpt lat="43.18426416888457" lon="11.77020913872905"><ele>264.25</ele><time>2026-04-19T12:47:54Z</time></trkpt><trkpt lat="43.184363980969906" lon="11.770338382925251"><ele>264.0</ele><time>2026-04-19T12:47:55Z</time></trkpt><trkpt lat="43.184454651134075" lon="11.77045445208713"><ele>264.0</ele><time>2026-04-19T12:47:56Z</time></trkpt><trkpt lat="43.18453717163921" lon="11.77056787259614"><ele>264.0</ele><time>2026-04-19T12:47:57Z</time></trkpt><trkpt lat="43.184626182021184" lon="11.770680381091916"><ele>264.0</ele><time>2026-04-19T12:47:58Z</time></trkpt><trkpt lat="43.1847241721193" lon="11.77080625245224"><ele>264.0</ele><time>2026-04-19T12:47:59Z</time></trkpt><trkpt lat="43.18480621632294" lon="11.770972790134365"><ele>263.3333333333333</ele><time>2026-04-19T12:48:00Z</time></trkpt><trkpt lat="43.18491978415692" lon="11.771120605598604"><ele>262.66666666666663</ele><time>2026-04-19T12:48:01Z</time></trkpt><trkpt lat="43.185052454276686" lon="11.77126521193243"><ele>262.0</ele><time>2026-04-19T12:48:02Z</time></trkpt><trkpt lat="43.1851509270677" lon="11.771429971397353"><ele>262.0</ele><time>2026-04-19T12:48:03Z</time></trkpt><trkpt lat="43.18525014358631" lon="11.771563236742253"><ele>262.0</ele><time>2026-04-19T12:48:04Z</time></trkpt><trkpt lat="43.185371278928365" lon="11.77169663802457"><ele>262.0</ele><time>2026-04-19T12:48:05Z</time></trkpt><trkpt lat="43.185479454476855" lon="11.771840316089806"><ele>262.0</ele><time>2026-04-19T12:48:06Z</time></trkpt><trkpt lat="43.18558248207865" lon="11.77197950063265"><ele>261.8</ele><time>2026-04-19T12:48:07Z</time></trkpt><trkpt lat="43.18567573954735" lon="11.772109518822171"><ele>261.6</ele><time>2026-04-19T12:48:08Z</time></trkpt><trkpt lat="43.18576241157039" lon="11.772219298719788"><ele>261.40000000000003</ele><time>2026-04-19T12:48:09Z</time></trkpt><trkpt lat="43.18583953915665" lon="11.772323461369615"><ele>261.2</ele><time>2026-04-19T12:48:10Z</time></trkpt><trkpt lat="43.1858977662251" lon="11.772402588404738"><ele>261.0</ele><time>2026-04-19T12:48:11Z</time></trkpt><trkpt lat="43.18593492137599" lon="11.772482861831044"><ele>260.8</ele><time>2026-04-19T12:48:12Z</time></trkpt><trkpt lat="43.185989858137646" lon="11.772526539927341"><ele>260.6</ele><time>2026-04-19T12:48:13Z</time></trkpt><trkpt lat="43.1860310189237" lon="11.77261324544721"><ele>260.4</ele><time>2026-04-19T12:48:15Z</time></trkpt><trkpt lat="43.18595518132764" lon="11.772777030149316"><ele>260.2</ele><time>2026-04-19T12:48:17Z</time></trkpt><trkpt lat="43.185907600795474" lon="11.772869168105027"><ele>260.0</ele><time>2026-04-19T12:48:18Z</time></trkpt><trkpt lat="43.1858575056385" lon="11.772972884476264"><ele>259.75</ele><time>2026-04-19T12:48:19Z</time></trkpt><trkpt lat="43.185794424814326" lon="11.773107765880772"><ele>259.5</ele><time>2026-04-19T12:48:20Z</time></trkpt><trkpt lat="43.18572944216588" lon="11.773258043349847"><ele>259.25</ele><time>2026-04-19T12:48:21Z</time></trkpt><trkpt lat="43.18566389723432" lon="11.77340823654767"><ele>259.0</ele><time>2026-04-19T12:48:22Z</time></trkpt><trkpt lat="43.18559183096938" lon="11.773575470539788"><ele>259.5</ele><time>2026-04-19T12:48:23Z</time></trkpt><trkpt lat="43.18552088737942" lon="11.773741922188034"><ele>260.0</ele><time>2026-04-19T12:48:24Z</time></trkpt><trkpt lat="43.18546097662095" lon="11.773878747081335"><ele>260.5</ele><time>2026-04-19T12:48:25Z</time></trkpt><trkpt lat="43.18540532514829" lon="11.774004550709655"><ele>261.0</ele><time>2026-04-19T12:48:26Z</time></trkpt><trkpt lat="43.18534692764146" lon="11.77414386572136"><ele>261.0</ele><time>2026-04-19T12:48:27Z</time></trkpt><trkpt lat="43.18528917560172" lon="11.774296945795783"><ele>261.0</ele><time>2026-04-19T12:48:28Z</time></trkpt><trkpt lat="43.1852217957611" lon="11.774454135260568"><ele>261.0</ele><time>2026-04-19T12:48:29Z</time></trkpt><trkpt lat="43.185162616724135" lon="11.774590161747618"><ele>261.0</ele><time>2026-04-19T12:48:30Z</time></trkpt><trkpt lat="43.185118860798276" lon="11.774696976582609"><ele>261.2</ele><time>2026-04-19T12:48:31Z</time></trkpt><trkpt lat="43.185078679868276" lon="11.774794124183414"><ele>261.40000000000003</ele><time>2026-04-19T12:48:32Z</time></trkpt><trkpt lat="43.18501877750376" lon="11.77490287941802"><ele>261.6</ele><time>2026-04-19T12:48:33Z</time></trkpt><trkpt lat="43.18495826918785" lon="11.77502250898362"><ele>261.8</ele><time>2026-04-19T12:48:34Z</time></trkpt><trkpt lat="43.1848971976169" lon="11.775178143510642"><ele>262.0</ele><time>2026-04-19T12:48:35Z</time></trkpt><trkpt lat="43.18483548197564" lon="11.775330752011062"><ele>262.0</ele><time>2026-04-19T12:48:36Z</time></trkpt><trkpt lat="43.184790688685325" lon="11.775442953568806"><ele>262.0</ele><time>2026-04-19T12:48:37Z</time></trkpt><trkpt lat="43.184735590420935" lon="11.775575110939457"><ele>262.0</ele><time>2026-04-19T12:48:38Z</time></trkpt><trkpt lat="43.18468717506352" lon="11.775697833805273"><ele>262.0</ele><time>2026-04-19T12:48:39Z</time></trkpt><trkpt lat="43.18464103684282" lon="11.775808357536842"><ele>262.0</ele><time>2026-04-19T12:48:40Z</time></trkpt><trkpt lat="43.184603875498276" lon="11.775910754809347"><ele>261.66666666666663</ele><time>2026-04-19T12:48:41Z</time></trkpt><trkpt lat="43.18456475625996" lon="11.77602288938462"><ele>261.3333333333333</ele><time>2026-04-19T12:48:42Z</time></trkpt><trkpt lat="43.184530231518885" lon="11.776153626493972"><ele>261.0</ele><time>2026-04-19T12:48:43Z</time></trkpt><trkpt lat="43.18450381845502" lon="11.776278359252236"><ele>260.6666666666667</ele><time>2026-04-19T12:48:44Z</time></trkpt><trkpt lat="43.18448262536811" lon="11.776388512144894"><ele>260.33333333333337</ele><time>2026-04-19T12:48:45Z</time></trkpt><trkpt lat="43.1844614297128" lon="11.77648476999802"><ele>260.0</ele><time>2026-04-19T12:48:46Z</time></trkpt><trkpt lat="43.18443144062258" lon="11.776621502144339"><ele>260.0</ele><time>2026-04-19T12:48:48Z</time></trkpt><trkpt lat="43.18440833403181" lon="11.77672719997793"><ele>260.0</ele><time>2026-04-19T12:48:50Z</time></trkpt><trkpt lat="43.18443427628812" lon="11.776834913900014"><ele>260.0</ele><time>2026-04-19T12:48:52Z</time></trkpt><trkpt lat="43.1844851926213" lon="11.776910907865782"><ele>260.0</ele><time>2026-04-19T12:48:53Z</time></trkpt><trkpt lat="43.18456616658996" lon="11.776983735122386"><ele>260.0</ele><time>2026-04-19T12:48:54Z</time></trkpt><trkpt lat="43.18466473097619" lon="11.77707058446301"><ele>259.5</ele><time>2026-04-19T12:48:55Z</time></trkpt><trkpt lat="43.18475907775192" lon="11.777175311507762"><ele>259.0</ele><time>2026-04-19T12:48:56Z</time></trkpt><trkpt lat="43.18485502997382" lon="11.77727480044114"><ele>258.5</ele><time>2026-04-19T12:48:57Z</time></trkpt><trkpt lat="43.18496140524643" lon="11.777384635871888"><ele>258.0</ele><time>2026-04-19T12:48:58Z</time></trkpt><trkpt lat="43.18508301476673" lon="11.77750715165977"><ele>258.0</ele><time>2026-04-19T12:48:59Z</time></trkpt><trkpt lat="43.18521255013726" lon="11.777634972467174"><ele>258.0</ele><time>2026-04-19T12:49:00Z</time></trkpt><trkpt lat="43.18534747666596" lon="11.77776470080527"><ele>258.0</ele><time>2026-04-19T12:49:01Z</time></trkpt><trkpt lat="43.18549202875027" lon="11.77790539220879"><ele>257.3333333333333</ele><time>2026-04-19T12:49:02Z</time></trkpt><trkpt lat="43.18564223571807" lon="11.778065495527708"><ele>256.66666666666663</ele><time>2026-04-19T12:49:03Z</time></trkpt><trkpt lat="43.185795070738365" lon="11.778234726503216"><ele>256.0</ele><time>2026-04-19T12:49:04Z</time></trkpt><trkpt lat="43.1859750795925" lon="11.77838723539714"><ele>255.5</ele><time>2026-04-19T12:49:05Z</time></trkpt><trkpt lat="43.186151665146355" lon="11.77856865469271"><ele>255.0</ele><time>2026-04-19T12:49:06Z</time></trkpt><trkpt lat="43.18634103175511" lon="11.778758864420887"><ele>254.5</ele><time>2026-04-19T12:49:07Z</time></trkpt><trkpt lat="43.18652614925342" lon="11.778947114044186"><ele>254.0</ele><time>2026-04-19T12:49:08Z</time></trkpt><trkpt lat="43.18670620022179" lon="11.77913266055109"><ele>254.0</ele><time>2026-04-19T12:49:09Z</time></trkpt><trkpt lat="43.18689078928577" lon="11.779317751920637"><ele>254.0</ele><time>2026-04-19T12:49:10Z</time></trkpt><trkpt lat="43.18706960988959" lon="11.779499249025111"><ele>254.0</ele><time>2026-04-19T12:49:11Z</time></trkpt><trkpt lat="43.18725097947633" lon="11.779683090427907"><ele>254.0</ele><time>2026-04-19T12:49:12Z</time></trkpt><trkpt lat="43.18742950336036" lon="11.779860623095917"><ele>254.0</ele><time>2026-04-19T12:49:13Z</time></trkpt><trkpt lat="43.187608527973126" lon="11.780042016124208"><ele>253.66666666666669</ele><time>2026-04-19T12:49:14Z</time></trkpt><trkpt lat="43.18778821876328" lon="11.780222512260426"><ele>253.33333333333331</ele><time>2026-04-19T12:49:15Z</time></trkpt><trkpt lat="43.18796917202096" lon="11.78040323453755"><ele>253.0</ele><time>2026-04-19T12:49:16Z</time></trkpt><trkpt lat="43.18815291386555" lon="11.780588344628645"><ele>252.5</ele><time>2026-04-19T12:49:17Z</time></trkpt><trkpt lat="43.18833605265772" lon="11.780772623453142"><ele>252.0</ele><time>2026-04-19T12:49:18Z</time></trkpt><trkpt lat="43.188519077539695" lon="11.78095273734359"><ele>252.0</ele><time>2026-04-19T12:49:19Z</time></trkpt><trkpt lat="43.18869631405456" lon="11.781133568474571"><ele>252.0</ele><time>2026-04-19T12:49:20Z</time></trkpt><trkpt lat="43.188873976675936" lon="11.781323883588108"><ele>252.0</ele><time>2026-04-19T12:49:21Z</time></trkpt><trkpt lat="43.18905045075572" lon="11.78152667502933"><ele>251.66666666666669</ele><time>2026-04-19T12:49:22Z</time></trkpt><trkpt lat="43.189220631244524" lon="11.78173551444557"><ele>251.33333333333334</ele><time>2026-04-19T12:49:23Z</time></trkpt><trkpt lat="43.18938011320175" lon="11.781944038352693"><ele>251.0</ele><time>2026-04-19T12:49:24Z</time></trkpt><trkpt lat="43.18953956033186" lon="11.782151721216751"><ele>251.0</ele><time>2026-04-19T12:49:25Z</time></trkpt><trkpt lat="43.189697883812826" lon="11.782355995860808"><ele>251.0</ele><time>2026-04-19T12:49:26Z</time></trkpt><trkpt lat="43.18985930756166" lon="11.782557776431572"><ele>251.0</ele><time>2026-04-19T12:49:27Z</time></trkpt><trkpt lat="43.19001588614441" lon="11.78276306451564"><ele>251.0</ele><time>2026-04-19T12:49:28Z</time></trkpt><trkpt lat="43.19018239682901" lon="11.782974461093755"><ele>251.0</ele><time>2026-04-19T12:49:29Z</time></trkpt><trkpt lat="43.19034876413845" lon="11.783190654835703"><ele>251.0</ele><time>2026-04-19T12:49:30Z</time></trkpt><trkpt lat="43.190514365479615" lon="11.783413962557912"><ele>251.0</ele><time>2026-04-19T12:49:31Z</time></trkpt><trkpt lat="43.19067750637389" lon="11.783630537222411"><ele>251.0</ele><time>2026-04-19T12:49:32Z</time></trkpt><trkpt lat="43.19084950961638" lon="11.783839987430953"><ele>251.0</ele><time>2026-04-19T12:49:33Z</time></trkpt><trkpt lat="43.191009551417125" lon="11.784033562275123"><ele>251.0</ele><time>2026-04-19T12:49:34Z</time></trkpt><trkpt lat="43.191154762792095" lon="11.78420848489621"><ele>251.0</ele><time>2026-04-19T12:49:35Z</time></trkpt><trkpt lat="43.19129823299607" lon="11.78438447176086"><ele>251.0</ele><time>2026-04-19T12:49:36Z</time></trkpt><trkpt lat="43.191438073594675" lon="11.784553608243835"><ele>251.0</ele><time>2026-04-19T12:49:37Z</time></trkpt><trkpt lat="43.191562206276764" lon="11.78470690103326"><ele>250.66666666666669</ele><time>2026-04-19T12:49:38Z</time></trkpt><trkpt lat="43.19167427019693" lon="11.784850852067382"><ele>250.33333333333331</ele><time>2026-04-19T12:49:39Z</time></trkpt><trkpt lat="43.19178677552813" lon="11.784991893363907"><ele>250.0</ele><time>2026-04-19T12:49:40Z</time></trkpt><trkpt lat="43.19189693042874" lon="11.785130985628697"><ele>250.25</ele><time>2026-04-19T12:49:41Z</time></trkpt><trkpt lat="43.19199352957526" lon="11.785254235216325"><ele>250.5</ele><time>2026-04-19T12:49:42Z</time></trkpt><trkpt lat="43.19208737456269" lon="11.785368855465045"><ele>250.75</ele><time>2026-04-19T12:49:43Z</time></trkpt><trkpt lat="43.192176936718745" lon="11.78547258511239"><ele>251.0</ele><time>2026-04-19T12:49:44Z</time></trkpt><trkpt lat="43.19227170358661" lon="11.785590839808807"><ele>251.25</ele><time>2026-04-19T12:49:45Z</time></trkpt><trkpt lat="43.192374074037154" lon="11.785736737298631"><ele>251.5</ele><time>2026-04-19T12:49:46Z</time></trkpt><trkpt lat="43.192465275207276" lon="11.785894825366949"><ele>251.75</ele><time>2026-04-19T12:49:47Z</time></trkpt><trkpt lat="43.19257583583094" lon="11.786036868048122"><ele>252.0</ele><time>2026-04-19T12:49:48Z</time></trkpt><trkpt lat="43.192644800234774" lon="11.786257277458917"><ele>252.0</ele><time>2026-04-19T12:49:49Z</time></trkpt><trkpt lat="43.19272642751871" lon="11.786501244539943"><ele>252.0</ele><time>2026-04-19T12:49:50Z</time></trkpt><trkpt lat="43.19282304243804" lon="11.786772278699187"><ele>252.0</ele><time>2026-04-19T12:49:51Z</time></trkpt><trkpt lat="43.19293642202374" lon="11.78704842648574"><ele>251.5</ele><time>2026-04-19T12:49:52Z</time></trkpt><trkpt lat="43.19306598897956" lon="11.787338198809797"><ele>251.0</ele><time>2026-04-19T12:49:53Z</time></trkpt><trkpt lat="43.19320726504242" lon="11.787649643131456"><ele>251.5</ele><time>2026-04-19T12:49:54Z</time></trkpt><trkpt lat="43.193340856017464" lon="11.787968333210282"><ele>252.0</ele><time>2026-04-19T12:49:55Z</time></trkpt><trkpt lat="43.193448992917546" lon="11.788250468897562"><ele>252.0</ele><time>2026-04-19T12:49:56Z</time></trkpt><trkpt lat="43.19354362823354" lon="11.788505768118876"><ele>252.0</ele><time>2026-04-19T12:49:57Z</time></trkpt><trkpt lat="43.19363244574872" lon="11.788759842753185"><ele>252.0</ele><time>2026-04-19T12:49:58Z</time></trkpt><trkpt lat="43.193713627647654" lon="11.788992242204673"><ele>251.66666666666669</ele><time>2026-04-19T12:49:59Z</time></trkpt><trkpt lat="43.19379510352727" lon="11.789212910876376"><ele>251.33333333333334</ele><time>2026-04-19T12:50:00Z</time></trkpt><trkpt lat="43.193872348267824" lon="11.789429969430143"><ele>251.0</ele><time>2026-04-19T12:50:01Z</time></trkpt><trkpt lat="43.1939426825278" lon="11.789641356537398"><ele>251.0</ele><time>2026-04-19T12:50:02Z</time></trkpt><trkpt lat="43.19400649826126" lon="11.789836132959257"><ele>251.0</ele><time>2026-04-19T12:50:03Z</time></trkpt><trkpt lat="43.19406439812708" lon="11.790012272711174"><ele>251.0</ele><time>2026-04-19T12:50:04Z</time></trkpt><trkpt lat="43.19411730116148" lon="11.790170783671185"><ele>251.0</ele><time>2026-04-19T12:50:05Z</time></trkpt><trkpt lat="43.19416578107082" lon="11.790315273700815"><ele>251.20000000000002</ele><time>2026-04-19T12:50:06Z</time></trkpt><trkpt lat="43.194207665286115" lon="11.790446265548582"><ele>251.40000000000003</ele><time>2026-04-19T12:50:07Z</time></trkpt><trkpt lat="43.19424606757332" lon="11.790560300956535"><ele>251.6</ele><time>2026-04-19T12:50:08Z</time></trkpt><trkpt lat="43.19429572307175" lon="11.790680769593667"><ele>251.8</ele><time>2026-04-19T12:50:09Z</time></trkpt><trkpt lat="43.19435800161894" lon="11.790778051686924"><ele>252.0</ele><time>2026-04-19T12:50:10Z</time></trkpt><trkpt lat="43.194423853329276" lon="11.790838760673024"><ele>252.0</ele><time>2026-04-19T12:50:11Z</time></trkpt><trkpt lat="43.194492467341426" lon="11.790856414693993"><ele>252.0</ele><time>2026-04-19T12:50:12Z</time></trkpt><trkpt lat="43.194567152779825" lon="11.790832168209043"><ele>252.0</ele><time>2026-04-19T12:50:13Z</time></trkpt><trkpt lat="43.194639801725216" lon="11.790776297269513"><ele>252.0</ele><time>2026-04-19T12:50:14Z</time></trkpt><trkpt lat="43.194728287749584" lon="11.790702553138901"><ele>252.0</ele><time>2026-04-19T12:50:15Z</time></trkpt><trkpt lat="43.19483286946115" lon="11.790622753971643"><ele>251.75</ele><time>2026-04-19T12:50:16Z</time></trkpt><trkpt lat="43.19494900412602" lon="11.790537195574654"><ele>251.5</ele><time>2026-04-19T12:50:17Z</time></trkpt><trkpt lat="43.1950763828002" lon="11.790449938650626"><ele>251.25</ele><time>2026-04-19T12:50:18Z</time></trkpt><trkpt lat="43.1952166480583" lon="11.79035965242452"><ele>251.0</ele><time>2026-04-19T12:50:19Z</time></trkpt><trkpt lat="43.19537772818293" lon="11.790264203888086"><ele>251.0</ele><time>2026-04-19T12:50:20Z</time></trkpt><trkpt lat="43.19554631742237" lon="11.790175113356678"><ele>251.0</ele><time>2026-04-19T12:50:21Z</time></trkpt><trkpt lat="43.19573311326194" lon="11.790087754986663"><ele>251.0</ele><time>2026-04-19T12:50:22Z</time></trkpt><trkpt lat="43.19592084385677" lon="11.790005420232045"><ele>251.33333333333334</ele><time>2026-04-19T12:50:23Z</time></trkpt><trkpt lat="43.19610230190401" lon="11.789925997339632"><ele>251.66666666666669</ele><time>2026-04-19T12:50:24Z</time></trkpt><trkpt lat="43.19627528712611" lon="11.789847442605518"><ele>252.0</ele><time>2026-04-19T12:50:25Z</time></trkpt><trkpt lat="43.196428701516695" lon="11.789775294689207"><ele>252.25</ele><time>2026-04-19T12:50:26Z</time></trkpt><trkpt lat="43.19656982156809" lon="11.789710508961393"><ele>252.5</ele><time>2026-04-19T12:50:27Z</time></trkpt><trkpt lat="43.19669395247832" lon="11.789652108601475"><ele>252.75</ele><time>2026-04-19T12:50:28Z</time></trkpt><trkpt lat="43.196802451741476" lon="11.789601408002655"><ele>253.0</ele><time>2026-04-19T12:50:29Z</time></trkpt><trkpt lat="43.19689122182895" lon="11.789557793310683"><ele>253.0</ele><time>2026-04-19T12:50:30Z</time></trkpt><trkpt lat="43.19696387220597" lon="11.789521354247878"><ele>253.0</ele><time>2026-04-19T12:50:31Z</time></trkpt><trkpt lat="43.19706626328455" lon="11.789529466225071"><ele>253.0</ele><time>2026-04-19T12:50:33Z</time></trkpt><trkpt lat="43.197122538773684" lon="11.789656870464944"><ele>253.0</ele><time>2026-04-19T12:50:35Z</time></trkpt><trkpt lat="43.19714248665458" lon="11.789768820098711"><ele>253.0</ele><time>2026-04-19T12:50:36Z</time></trkpt><trkpt lat="43.19716773971847" lon="11.789913746803803"><ele>253.0</ele><time>2026-04-19T12:50:37Z</time></trkpt><trkpt lat="43.19720863381231" lon="11.790094764899873"><ele>253.0</ele><time>2026-04-19T12:50:38Z</time></trkpt><trkpt lat="43.19726272646019" lon="11.790300893082962"><ele>253.0</ele><time>2026-04-19T12:50:39Z</time></trkpt><trkpt lat="43.197324223616874" lon="11.790536121033572"><ele>253.0</ele><time>2026-04-19T12:50:40Z</time></trkpt><trkpt lat="43.19738469832221" lon="11.79079225030243"><ele>253.0</ele><time>2026-04-19T12:50:41Z</time></trkpt><trkpt lat="43.197441236190166" lon="11.79104536696412"><ele>253.0</ele><time>2026-04-19T12:50:42Z</time></trkpt><trkpt lat="43.19748729190117" lon="11.791302068024919"><ele>253.0</ele><time>2026-04-19T12:50:43Z</time></trkpt><trkpt lat="43.19752684520604" lon="11.791571986389172"><ele>253.0</ele><time>2026-04-19T12:50:44Z</time></trkpt><trkpt lat="43.197554398909226" lon="11.791818261352576"><ele>253.0</ele><time>2026-04-19T12:50:45Z</time></trkpt><trkpt lat="43.19756766204277" lon="11.792044862487808"><ele>253.0</ele><time>2026-04-19T12:50:46Z</time></trkpt><trkpt lat="43.19756823339244" lon="11.792254911486415"><ele>253.0</ele><time>2026-04-19T12:50:47Z</time></trkpt><trkpt lat="43.19756468320017" lon="11.792450187222297"><ele>253.0</ele><time>2026-04-19T12:50:48Z</time></trkpt><trkpt lat="43.197557252796294" lon="11.792627900638973"><ele>253.0</ele><time>2026-04-19T12:50:49Z</time></trkpt><trkpt lat="43.19755169091189" lon="11.792814971142205"><ele>253.0</ele><time>2026-04-19T12:50:50Z</time></trkpt><trkpt lat="43.197533539597224" lon="11.79301576218934"><ele>253.0</ele><time>2026-04-19T12:50:51Z</time></trkpt><trkpt lat="43.19750331349838" lon="11.793228606491894"><ele>253.0</ele><time>2026-04-19T12:50:52Z</time></trkpt><trkpt lat="43.19746898907617" lon="11.793447659016989"><ele>252.66666666666666</ele><time>2026-04-19T12:50:53Z</time></trkpt><trkpt lat="43.197434432262604" lon="11.793669528749023"><ele>252.33333333333331</ele><time>2026-04-19T12:50:54Z</time></trkpt><trkpt lat="43.19740038817151" lon="11.793888229984002"><ele>252.0</ele><time>2026-04-19T12:50:55Z</time></trkpt><trkpt lat="43.1973666432784" lon="11.794109250090912"><ele>252.0</ele><time>2026-04-19T12:50:56Z</time></trkpt><trkpt lat="43.19733282631832" lon="11.794324823798249"><ele>252.0</ele><time>2026-04-19T12:50:57Z</time></trkpt><trkpt lat="43.19729877774762" lon="11.79453907481547"><ele>252.0</ele><time>2026-04-19T12:50:58Z</time></trkpt><trkpt lat="43.1972659791236" lon="11.794747843709969"><ele>252.0</ele><time>2026-04-19T12:50:59Z</time></trkpt><trkpt lat="43.19723148818487" lon="11.794961466441045"><ele>252.0</ele><time>2026-04-19T12:51:00Z</time></trkpt><trkpt lat="43.19719352031148" lon="11.795171698690124"><ele>252.0</ele><time>2026-04-19T12:51:01Z</time></trkpt><trkpt lat="43.19715365389319" lon="11.795377274781272"><ele>252.0</ele><time>2026-04-19T12:51:02Z</time></trkpt><trkpt lat="43.19711145589629" lon="11.795585546363018"><ele>252.0</ele><time>2026-04-19T12:51:03Z</time></trkpt><trkpt lat="43.19706457984182" lon="11.795775222641868"><ele>252.0</ele><time>2026-04-19T12:51:04Z</time></trkpt><trkpt lat="43.19700534557467" lon="11.795947865534659"><ele>252.0</ele><time>2026-04-19T12:51:05Z</time></trkpt><trkpt lat="43.196943069675896" lon="11.796097245532655"><ele>252.0</ele><time>2026-04-19T12:51:06Z</time></trkpt><trkpt lat="43.19688170200076" lon="11.796250186730163"><ele>252.0</ele><time>2026-04-19T12:51:07Z</time></trkpt><trkpt lat="43.19682632520043" lon="11.796405326557041"><ele>252.0</ele><time>2026-04-19T12:51:08Z</time></trkpt><trkpt lat="43.19678233486586" lon="11.796565046586547"><ele>252.0</ele><time>2026-04-19T12:51:09Z</time></trkpt><trkpt lat="43.19675672254012" lon="11.796754089279075"><ele>252.33333333333331</ele><time>2026-04-19T12:51:10Z</time></trkpt><trkpt lat="43.196739682295636" lon="11.796968376475144"><ele>252.66666666666666</ele><time>2026-04-19T12:51:11Z</time></trkpt><trkpt lat="43.19673169374257" lon="11.797216977456438"><ele>253.0</ele><time>2026-04-19T12:51:12Z</time></trkpt><trkpt lat="43.196732178015544" lon="11.797673174128654"><ele>252.33333333333331</ele><time>2026-04-19T12:51:14Z</time></trkpt><trkpt lat="43.19672373373796" lon="11.797882259874278"><ele>251.66666666666669</ele><time>2026-04-19T12:51:15Z</time></trkpt><trkpt lat="43.1966979266707" lon="11.798100494153946"><ele>251.0</ele><time>2026-04-19T12:51:16Z</time></trkpt><trkpt lat="43.1966640971037" lon="11.79832000485867"><ele>251.33333333333334</ele><time>2026-04-19T12:51:17Z</time></trkpt><trkpt lat="43.19662649220476" lon="11.79854347553891"><ele>251.66666666666669</ele><time>2026-04-19T12:51:18Z</time></trkpt><trkpt lat="43.19658290143188" lon="11.798737318052456"><ele>252.0</ele><time>2026-04-19T12:51:19Z</time></trkpt><trkpt lat="43.19653073014745" lon="11.798916035260858"><ele>252.0</ele><time>2026-04-19T12:51:20Z</time></trkpt><trkpt lat="43.196461738644494" lon="11.799093878081868"><ele>252.0</ele><time>2026-04-19T12:51:21Z</time></trkpt><trkpt lat="43.196372223958086" lon="11.799264543453868"><ele>252.0</ele><time>2026-04-19T12:51:22Z</time></trkpt><trkpt lat="43.196271672597135" lon="11.799429991693867"><ele>252.0</ele><time>2026-04-19T12:51:23Z</time></trkpt><trkpt lat="43.196171175134175" lon="11.799582776771853"><ele>252.0</ele><time>2026-04-19T12:51:24Z</time></trkpt><trkpt lat="43.1960845970308" lon="11.799717463720578"><ele>252.0</ele><time>2026-04-19T12:51:25Z</time></trkpt><trkpt lat="43.19600453001142" lon="11.799844791555802"><ele>252.0</ele><time>2026-04-19T12:51:26Z</time></trkpt><trkpt lat="43.19592582630545" lon="11.79998910027252"><ele>252.0</ele><time>2026-04-19T12:51:27Z</time></trkpt><trkpt lat="43.195857713836325" lon="11.800166950994315"><ele>252.0</ele><time>2026-04-19T12:51:28Z</time></trkpt><trkpt lat="43.19579595173634" lon="11.8003545121742"><ele>252.0</ele><time>2026-04-19T12:51:29Z</time></trkpt><trkpt lat="43.19574029372822" lon="11.80055369629955"><ele>252.0</ele><time>2026-04-19T12:51:30Z</time></trkpt><trkpt lat="43.19569131090086" lon="11.800761190440939"><ele>252.0</ele><time>2026-04-19T12:51:31Z</time></trkpt><trkpt lat="43.19565336086139" lon="11.800979941820746"><ele>252.0</ele><time>2026-04-19T12:51:32Z</time></trkpt><trkpt lat="43.195624427535236" lon="11.801209481734984"><ele>252.0</ele><time>2026-04-19T12:51:33Z</time></trkpt><trkpt lat="43.19559521872172" lon="11.80143914657418"><ele>252.0</ele><time>2026-04-19T12:51:34Z</time></trkpt><trkpt lat="43.195556546462186" lon="11.801663689150976"><ele>252.0</ele><time>2026-04-19T12:51:35Z</time></trkpt><trkpt lat="43.19550914168305" lon="11.801889926726712"><ele>252.0</ele><time>2026-04-19T12:51:36Z</time></trkpt><trkpt lat="43.19543859403365" lon="11.802102615598821"><ele>252.0</ele><time>2026-04-19T12:51:37Z</time></trkpt><trkpt lat="43.19532967035292" lon="11.80229179924939"><ele>252.0</ele><time>2026-04-19T12:51:38Z</time></trkpt><trkpt lat="43.195209200770755" lon="11.802503749681662"><ele>252.5</ele><time>2026-04-19T12:51:39Z</time></trkpt><trkpt lat="43.19508335807265" lon="11.802755497027306"><ele>253.0</ele><time>2026-04-19T12:51:40Z</time></trkpt><trkpt lat="43.1949302391561" lon="11.803015928060452"><ele>252.33333333333331</ele><time>2026-04-19T12:51:41Z</time></trkpt><trkpt lat="43.19479848712702" lon="11.803247741223387"><ele>251.66666666666669</ele><time>2026-04-19T12:51:42Z</time></trkpt><trkpt lat="43.194684747559656" lon="11.803454956187913"><ele>251.0</ele><time>2026-04-19T12:51:43Z</time></trkpt><trkpt lat="43.19458358049508" lon="11.803654600581408"><ele>250.66666666666669</ele><time>2026-04-19T12:51:44Z</time></trkpt><trkpt lat="43.19447021422081" lon="11.803823245103366"><ele>250.33333333333331</ele><time>2026-04-19T12:51:45Z</time></trkpt><trkpt lat="43.19437930541159" lon="11.804014095685961"><ele>250.0</ele><time>2026-04-19T12:51:46Z</time></trkpt><trkpt lat="43.19427257329835" lon="11.804195777293797"><ele>250.66666666666666</ele><time>2026-04-19T12:51:47Z</time></trkpt><trkpt lat="43.1941684888377" lon="11.80437928774761"><ele>251.33333333333331</ele><time>2026-04-19T12:51:48Z</time></trkpt><trkpt lat="43.19406318401577" lon="11.80455992353989"><ele>252.0</ele><time>2026-04-19T12:51:49Z</time></trkpt><trkpt lat="43.193964973817245" lon="11.804733462136765"><ele>252.5</ele><time>2026-04-19T12:51:50Z</time></trkpt><trkpt lat="43.19388154743846" lon="11.8048921130441"><ele>253.0</ele><time>2026-04-19T12:51:51Z</time></trkpt><trkpt lat="43.193805195873985" lon="11.805038392040572"><ele>253.5</ele><time>2026-04-19T12:51:52Z</time></trkpt><trkpt lat="43.19373123684281" lon="11.805176027268278"><ele>254.0</ele><time>2026-04-19T12:51:53Z</time></trkpt><trkpt lat="43.1936492500024" lon="11.805308318829224"><ele>254.0</ele><time>2026-04-19T12:51:54Z</time></trkpt><trkpt lat="43.19355953984108" lon="11.80542949585668"><ele>254.0</ele><time>2026-04-19T12:51:55Z</time></trkpt><trkpt lat="43.193444884632136" lon="11.805493159232554"><ele>254.0</ele><time>2026-04-19T12:51:56Z</time></trkpt><trkpt lat="43.19334612596048" lon="11.805566549046349"><ele>254.0</ele><time>2026-04-19T12:51:57Z</time></trkpt><trkpt lat="43.19325021699068" lon="11.805589624159271"><ele>254.00000000000003</ele><time>2026-04-19T12:51:58Z</time></trkpt><trkpt lat="43.19316495315195" lon="11.805621084406354"><ele>254.0</ele><time>2026-04-19T12:51:59Z</time></trkpt><trkpt lat="43.19310198429371" lon="11.805652937642481"><ele>254.0</ele><time>2026-04-19T12:52:00Z</time></trkpt><trkpt lat="43.193028327728605" lon="11.805717197332276"><ele>254.0</ele><time>2026-04-19T12:52:02Z</time></trkpt><trkpt lat="43.193002025302285" lon="11.805825104553842"><ele>254.00000000000003</ele><time>2026-04-19T12:52:05Z</time></trkpt><trkpt lat="43.19299878834585" lon="11.805920313074793"><ele>254.0</ele><time>2026-04-19T12:52:06Z</time></trkpt><trkpt lat="43.19300341782802" lon="11.80606275132679"><ele>254.25</ele><time>2026-04-19T12:52:07Z</time></trkpt><trkpt lat="43.19301514952752" lon="11.806229564482459"><ele>254.5</ele><time>2026-04-19T12:52:08Z</time></trkpt><trkpt lat="43.193047082330104" lon="11.806419415412684"><ele>254.75</ele><time>2026-04-19T12:52:09Z</time></trkpt><trkpt lat="43.19307384950464" lon="11.806612138558364"><ele>255.0</ele><time>2026-04-19T12:52:10Z</time></trkpt><trkpt lat="43.19310759422874" lon="11.806795665504826"><ele>255.0</ele><time>2026-04-19T12:52:11Z</time></trkpt><trkpt lat="43.19313453761961" lon="11.80696170049063"><ele>255.0</ele><time>2026-04-19T12:52:12Z</time></trkpt><trkpt lat="43.19315550305211" lon="11.807117104359945"><ele>255.0</ele><time>2026-04-19T12:52:13.001Z</time></trkpt><trkpt lat="43.19314372334411" lon="11.807288302496273"><ele>255.0</ele><time>2026-04-19T12:52:14.001Z</time></trkpt><trkpt lat="43.193105866157296" lon="11.807464001402192"><ele>255.0</ele><time>2026-04-19T12:52:15.001Z</time></trkpt><trkpt lat="43.19304078328967" lon="11.80765454782995"><ele>255.0</ele><time>2026-04-19T12:52:16.001Z</time></trkpt><trkpt lat="43.192970563845975" lon="11.807870240227041"><ele>255.0</ele><time>2026-04-19T12:52:17.001Z</time></trkpt><trkpt lat="43.19289980590807" lon="11.808095790085986"><ele>255.0</ele><time>2026-04-19T12:52:18.001Z</time></trkpt><trkpt lat="43.19282361832741" lon="11.808321095851905"><ele>255.0</ele><time>2026-04-19T12:52:19.001Z</time></trkpt><trkpt lat="43.19274000110964" lon="11.80855144735805"><ele>255.0</ele><time>2026-04-19T12:52:20.001Z</time></trkpt><trkpt lat="43.192656673623645" lon="11.808790746163394"><ele>254.33333333333331</ele><time>2026-04-19T12:52:21.001Z</time></trkpt><trkpt lat="43.1925745379007" lon="11.809033831677533"><ele>253.66666666666666</ele><time>2026-04-19T12:52:22.001Z</time></trkpt><trkpt lat="43.19248965602042" lon="11.809275667079792"><ele>253.0</ele><time>2026-04-19T12:52:23.001Z</time></trkpt><trkpt lat="43.19240585269151" lon="11.809519813439936"><ele>253.33333333333331</ele><time>2026-04-19T12:52:24.001Z</time></trkpt><trkpt lat="43.19232324815013" lon="11.8097721197367"><ele>253.66666666666669</ele><time>2026-04-19T12:52:25.001Z</time></trkpt><trkpt lat="43.19224605668899" lon="11.810026253354454"><ele>254.0</ele><time>2026-04-19T12:52:26.001Z</time></trkpt><trkpt lat="43.192174086547794" lon="11.810280510708004"><ele>254.0</ele><time>2026-04-19T12:52:27.001Z</time></trkpt><trkpt lat="43.19210004217508" lon="11.810534876609944"><ele>254.0</ele><time>2026-04-19T12:52:28.001Z</time></trkpt><trkpt lat="43.19202540425597" lon="11.810779578627638"><ele>254.0</ele><time>2026-04-19T12:52:29.001Z</time></trkpt><trkpt lat="43.191944504355156" lon="11.811026648534966"><ele>253.0</ele><time>2026-04-19T12:52:30.001Z</time></trkpt><trkpt lat="43.19185648329231" lon="11.811265244211956"><ele>252.0</ele><time>2026-04-19T12:52:31.001Z</time></trkpt><trkpt lat="43.19177243439268" lon="11.811475299968883"><ele>251.0</ele><time>2026-04-19T12:52:32.001Z</time></trkpt><trkpt lat="43.191681278549474" lon="11.81167707548824"><ele>251.0</ele><time>2026-04-19T12:52:33.001Z</time></trkpt><trkpt lat="43.191561654838466" lon="11.811842249751535"><ele>251.0</ele><time>2026-04-19T12:52:34.001Z</time></trkpt><trkpt lat="43.19146139749163" lon="11.811978897124707"><ele>251.0</ele><time>2026-04-19T12:52:35.001Z</time></trkpt><trkpt lat="43.1913927657251" lon="11.812094659961152"><ele>251.0</ele><time>2026-04-19T12:52:36.001Z</time></trkpt><trkpt lat="43.19133695462532" lon="11.812160460271585"><ele>251.0</ele><time>2026-04-19T12:52:37.001Z</time></trkpt><trkpt lat="43.19124718396406" lon="11.812261897501024"><ele>251.0</ele><time>2026-04-19T12:52:40Z</time></trkpt><trkpt lat="43.19117216071968" lon="11.81237199970853"><ele>251.0</ele><time>2026-04-19T12:52:41Z</time></trkpt><trkpt lat="43.19107287608307" lon="11.812528719848931"><ele>251.0</ele><time>2026-04-19T12:52:42Z</time></trkpt><trkpt lat="43.19095495177479" lon="11.812716225093284"><ele>251.5</ele><time>2026-04-19T12:52:43Z</time></trkpt><trkpt lat="43.19080909229395" lon="11.812935630712616"><ele>252.0</ele><time>2026-04-19T12:52:44Z</time></trkpt><trkpt lat="43.19064193130096" lon="11.813171780982985"><ele>251.5</ele><time>2026-04-19T12:52:45Z</time></trkpt><trkpt lat="43.19046016138379" lon="11.813432946627723"><ele>251.0</ele><time>2026-04-19T12:52:46Z</time></trkpt><trkpt lat="43.1902628758678" lon="11.813721728777539"><ele>251.0</ele><time>2026-04-19T12:52:47Z</time></trkpt><trkpt lat="43.19005250348211" lon="11.814031416355709"><ele>251.0</ele><time>2026-04-19T12:52:48Z</time></trkpt><trkpt lat="43.18983238136545" lon="11.81435685912314"><ele>250.5</ele><time>2026-04-19T12:52:49Z</time></trkpt><trkpt lat="43.18960718484455" lon="11.814687319888662"><ele>250.0</ele><time>2026-04-19T12:52:50Z</time></trkpt><trkpt lat="43.189399623778804" lon="11.814987101366016"><ele>250.0</ele><time>2026-04-19T12:52:51Z</time></trkpt><trkpt lat="43.18921197483704" lon="11.81525793292142"><ele>250.0</ele><time>2026-04-19T12:52:52Z</time></trkpt><trkpt lat="43.18903909587564" lon="11.815506470748046"><ele>250.0</ele><time>2026-04-19T12:52:53Z</time></trkpt><trkpt lat="43.18887187223754" lon="11.815745441590272"><ele>250.0</ele><time>2026-04-19T12:52:54Z</time></trkpt><trkpt lat="43.188714928773166" lon="11.815972420126709"><ele>249.66666666666666</ele><time>2026-04-19T12:52:55Z</time></trkpt><trkpt lat="43.18856156994787" lon="11.816188575466144"><ele>249.33333333333331</ele><time>2026-04-19T12:52:56Z</time></trkpt><trkpt lat="43.18840476298436" lon="11.816413953786109"><ele>249.0</ele><time>2026-04-19T12:52:57Z</time></trkpt><trkpt lat="43.188257155089644" lon="11.816629830893776"><ele>249.0</ele><time>2026-04-19T12:52:58Z</time></trkpt><trkpt lat="43.1881116335326" lon="11.816838564409256"><ele>249.0</ele><time>2026-04-19T12:52:59Z</time></trkpt><trkpt lat="43.18796961418309" lon="11.817045070979468"><ele>249.0</ele><time>2026-04-19T12:53:00Z</time></trkpt><trkpt lat="43.18782537430171" lon="11.81724866465758"><ele>249.0</ele><time>2026-04-19T12:53:01Z</time></trkpt><trkpt lat="43.18768855817886" lon="11.81745098870133"><ele>249.0</ele><time>2026-04-19T12:53:02Z</time></trkpt><trkpt lat="43.18755309292856" lon="11.817653457844045"><ele>249.0</ele><time>2026-04-19T12:53:03Z</time></trkpt><trkpt lat="43.18741126960603" lon="11.817851024574496"><ele>248.66666666666669</ele><time>2026-04-19T12:53:04Z</time></trkpt><trkpt lat="43.18727779447426" lon="11.818052728169576"><ele>248.33333333333334</ele><time>2026-04-19T12:53:05Z</time></trkpt><trkpt lat="43.18714584776865" lon="11.818250523662082"><ele>248.0</ele><time>2026-04-19T12:53:06Z</time></trkpt><trkpt lat="43.18700955080322" lon="11.818444026443302"><ele>248.66666666666669</ele><time>2026-04-19T12:53:07Z</time></trkpt><trkpt lat="43.18687413588576" lon="11.818638344633783"><ele>249.33333333333331</ele><time>2026-04-19T12:53:08Z</time></trkpt><trkpt lat="43.18673359628544" lon="11.818838632741121"><ele>250.0</ele><time>2026-04-19T12:53:09Z</time></trkpt><trkpt lat="43.18659851729464" lon="11.81903853775115"><ele>250.0</ele><time>2026-04-19T12:53:10Z</time></trkpt><trkpt lat="43.18646038301093" lon="11.819243981185508"><ele>250.0</ele><time>2026-04-19T12:53:11Z</time></trkpt><trkpt lat="43.18632161650325" lon="11.819440015024853"><ele>250.0</ele><time>2026-04-19T12:53:12Z</time></trkpt><trkpt lat="43.18618197992382" lon="11.81963574890912"><ele>250.0</ele><time>2026-04-19T12:53:13Z</time></trkpt><trkpt lat="43.18604123077807" lon="11.81983828221635"><ele>250.0</ele><time>2026-04-19T12:53:14Z</time></trkpt><trkpt lat="43.18590054625463" lon="11.820040194309396"><ele>250.0</ele><time>2026-04-19T12:53:15Z</time></trkpt><trkpt lat="43.18575940452077" lon="11.820237987851058"><ele>250.33333333333331</ele><time>2026-04-19T12:53:16Z</time></trkpt><trkpt lat="43.18561017183997" lon="11.820439656161723"><ele>250.66666666666669</ele><time>2026-04-19T12:53:17Z</time></trkpt><trkpt lat="43.185462242642636" lon="11.820684061360243"><ele>251.0</ele><time>2026-04-19T12:53:18Z</time></trkpt><trkpt lat="43.185286631264574" lon="11.820948847847324"><ele>250.0</ele><time>2026-04-19T12:53:19Z</time></trkpt><trkpt lat="43.18511847865189" lon="11.821214922497658"><ele>249.0</ele><time>2026-04-19T12:53:20Z</time></trkpt><trkpt lat="43.1849561259077" lon="11.821424439421662"><ele>249.33333333333331</ele><time>2026-04-19T12:53:21Z</time></trkpt><trkpt lat="43.18482618456273" lon="11.821626535846066"><ele>249.66666666666666</ele><time>2026-04-19T12:53:22Z</time></trkpt><trkpt lat="43.184666216867846" lon="11.82181176837173"><ele>250.0</ele><time>2026-04-19T12:53:23Z</time></trkpt><trkpt lat="43.18458689952054" lon="11.821972160577603"><ele>250.0</ele><time>2026-04-19T12:53:24Z</time></trkpt><trkpt lat="43.18449059000057" lon="11.822102213109844"><ele>250.0</ele><time>2026-04-19T12:53:25Z</time></trkpt><trkpt lat="43.184422577695365" lon="11.822194052052971"><ele>250.0</ele><time>2026-04-19T12:53:26Z</time></trkpt><trkpt lat="43.18437262425662" lon="11.822257911961639"><ele>250.0</ele><time>2026-04-19T12:53:27Z</time></trkpt><trkpt lat="43.18445159604363" lon="11.822165589363937"><ele>250.0</ele><time>2026-04-19T12:53:37Z</time></trkpt><trkpt lat="43.184542295016165" lon="11.822069890740387"><ele>250.0</ele><time>2026-04-19T12:53:38Z</time></trkpt><trkpt lat="43.184631616291476" lon="11.8219355417124"><ele>250.0</ele><time>2026-04-19T12:53:39Z</time></trkpt><trkpt lat="43.18473412458444" lon="11.82176876147449"><ele>250.0</ele><time>2026-04-19T12:53:40Z</time></trkpt><trkpt lat="43.18484042273748" lon="11.821661005649046"><ele>250.0</ele><time>2026-04-19T12:53:41Z</time></trkpt><trkpt lat="43.18488741097993" lon="11.821592060401247"><ele>249.8</ele><time>2026-04-19T12:53:42Z</time></trkpt><trkpt lat="43.184962487331994" lon="11.821525269547012"><ele>249.6</ele><time>2026-04-19T12:53:44Z</time></trkpt><trkpt lat="43.18506221571325" lon="11.821640094107202"><ele>249.39999999999998</ele><time>2026-04-19T12:53:46Z</time></trkpt><trkpt lat="43.18510492280327" lon="11.821759453516972"><ele>249.2</ele><time>2026-04-19T12:53:47Z</time></trkpt><trkpt lat="43.185136444030334" lon="11.821903333787095"><ele>249.0</ele><time>2026-04-19T12:53:48Z</time></trkpt><trkpt lat="43.18517026953602" lon="11.822100660341409"><ele>249.0</ele><time>2026-04-19T12:53:49Z</time></trkpt><trkpt lat="43.185207782313185" lon="11.822336084525908"><ele>249.0</ele><time>2026-04-19T12:53:50Z</time></trkpt><trkpt lat="43.18525076954899" lon="11.82259639099171"><ele>249.0</ele><time>2026-04-19T12:53:51Z</time></trkpt><trkpt lat="43.18529905282689" lon="11.822871181947361"><ele>248.5</ele><time>2026-04-19T12:53:52Z</time></trkpt><trkpt lat="43.18535451482769" lon="11.823174005081697"><ele>248.0</ele><time>2026-04-19T12:53:53Z</time></trkpt><trkpt lat="43.185418519988396" lon="11.823486557761722"><ele>247.66666666666669</ele><time>2026-04-19T12:53:54Z</time></trkpt><trkpt lat="43.18546874486834" lon="11.823762827315171"><ele>247.33333333333331</ele><time>2026-04-19T12:53:55Z</time></trkpt><trkpt lat="43.18551568384684" lon="11.824007382261682"><ele>247.0</ele><time>2026-04-19T12:53:56Z</time></trkpt><trkpt lat="43.185561985675314" lon="11.824233963284335"><ele>247.25</ele><time>2026-04-19T12:53:57Z</time></trkpt><trkpt lat="43.18558678880697" lon="11.824438570739035"><ele>247.5</ele><time>2026-04-19T12:53:58.001Z</time></trkpt><trkpt lat="43.185616857768885" lon="11.824622274419209"><ele>247.75</ele><time>2026-04-19T12:53:59.001Z</time></trkpt><trkpt lat="43.18566479035891" lon="11.824767686120534"><ele>248.0</ele><time>2026-04-19T12:54:00.001Z</time></trkpt><trkpt lat="43.18568709992196" lon="11.824889237539866"><ele>248.0</ele><time>2026-04-19T12:54:01.001Z</time></trkpt><trkpt lat="43.185746048061105" lon="11.824966257022329"><ele>248.0</ele><time>2026-04-19T12:54:02.001Z</time></trkpt><trkpt lat="43.18568345012813" lon="11.82513095105153"><ele>248.0</ele><time>2026-04-19T12:54:03.001Z</time></trkpt><trkpt lat="43.1856665164667" lon="11.825286617927368"><ele>248.0</ele><time>2026-04-19T12:54:04.001Z</time></trkpt><trkpt lat="43.18564511284779" lon="11.825496106675466"><ele>248.0</ele><time>2026-04-19T12:54:05.001Z</time></trkpt><trkpt lat="43.18562630387545" lon="11.825681410143385"><ele>248.0</ele><time>2026-04-19T12:54:06.001Z</time></trkpt><trkpt lat="43.185606388945" lon="11.825825403213946"><ele>248.0</ele><time>2026-04-19T12:54:07.001Z</time></trkpt><trkpt lat="43.18559796327374" lon="11.825947421239814"><ele>248.0</ele><time>2026-04-19T12:54:08.001Z</time></trkpt><trkpt lat="43.185602844069194" lon="11.826088540800683"><ele>248.0</ele><time>2026-04-19T12:54:09.001Z</time></trkpt><trkpt lat="43.18562687108835" lon="11.826245908616444"><ele>248.0</ele><time>2026-04-19T12:54:10.001Z</time></trkpt><trkpt lat="43.18567108925408" lon="11.826409110565503"><ele>248.0</ele><time>2026-04-19T12:54:11.001Z</time></trkpt><trkpt lat="43.1857396718159" lon="11.82659412777115"><ele>248.0</ele><time>2026-04-19T12:54:12.001Z</time></trkpt><trkpt lat="43.185800728845656" lon="11.826761495059202"><ele>248.0</ele><time>2026-04-19T12:54:13.001Z</time></trkpt><trkpt lat="43.18584705743285" lon="11.82690099826532"><ele>248.25</ele><time>2026-04-19T12:54:14.001Z</time></trkpt><trkpt lat="43.18589825168565" lon="11.827057526052107"><ele>248.5</ele><time>2026-04-19T12:54:15.001Z</time></trkpt><trkpt lat="43.1859616133264" lon="11.827242838973193"><ele>248.75</ele><time>2026-04-19T12:54:16.001Z</time></trkpt><trkpt lat="43.18602031730426" lon="11.82740838786709"><ele>249.0</ele><time>2026-04-19T12:54:17.001Z</time></trkpt><trkpt lat="43.186068156617466" lon="11.827559025162813"><ele>248.6</ele><time>2026-04-19T12:54:18.001Z</time></trkpt><trkpt lat="43.186117189153926" lon="11.827698847937917"><ele>248.2</ele><time>2026-04-19T12:54:19.001Z</time></trkpt><trkpt lat="43.18616624818374" lon="11.827844907661236"><ele>247.79999999999998</ele><time>2026-04-19T12:54:20.001Z</time></trkpt><trkpt lat="43.186214686321385" lon="11.82798089962547"><ele>247.39999999999998</ele><time>2026-04-19T12:54:21.001Z</time></trkpt><trkpt lat="43.18625271606378" lon="11.828111297452407"><ele>247.0</ele><time>2026-04-19T12:54:22.001Z</time></trkpt><trkpt lat="43.18629355257633" lon="11.828238712869576"><ele>246.99999999999997</ele><time>2026-04-19T12:54:23.001Z</time></trkpt><trkpt lat="43.18633021150362" lon="11.828352807131823"><ele>247.0</ele><time>2026-04-19T12:54:24.001Z</time></trkpt><trkpt lat="43.186352458410894" lon="11.828448329784846"><ele>247.0</ele><time>2026-04-19T12:54:25.001Z</time></trkpt><trkpt lat="43.186373071310314" lon="11.828540044652792"><ele>247.0</ele><time>2026-04-19T12:54:26.001Z</time></trkpt><trkpt lat="43.186396498470124" lon="11.82862082939168"><ele>246.99999999999997</ele><time>2026-04-19T12:54:27.001Z</time></trkpt><trkpt lat="43.1864624994191" lon="11.82874485359928"><ele>247.0</ele><time>2026-04-19T12:54:29.001Z</time></trkpt><trkpt lat="43.186543721882934" lon="11.828757553716242"><ele>246.75</ele><time>2026-04-19T12:54:30.001Z</time></trkpt><trkpt lat="43.1866287000599" lon="11.82873491678667"><ele>246.5</ele><time>2026-04-19T12:54:31.001Z</time></trkpt><trkpt lat="43.18673512958748" lon="11.828696660977991"><ele>246.25</ele><time>2026-04-19T12:54:32.001Z</time></trkpt><trkpt lat="43.186874749340205" lon="11.828651343051229"><ele>246.0</ele><time>2026-04-19T12:54:33.001Z</time></trkpt><trkpt lat="43.18703742498067" lon="11.828602026732339"><ele>246.0</ele><time>2026-04-19T12:54:34.001Z</time></trkpt><trkpt lat="43.18721473788614" lon="11.828549231363352"><ele>246.0</ele><time>2026-04-19T12:54:35.001Z</time></trkpt><trkpt lat="43.18739184152707" lon="11.828497340118922"><ele>246.0</ele><time>2026-04-19T12:54:36.001Z</time></trkpt><trkpt lat="43.18756952626511" lon="11.828446016120555"><ele>246.33333333333331</ele><time>2026-04-19T12:54:37.001Z</time></trkpt><trkpt lat="43.18775141892241" lon="11.828393476686237"><ele>246.66666666666666</ele><time>2026-04-19T12:54:38.001Z</time></trkpt><trkpt lat="43.187939739782955" lon="11.82833732588527"><ele>247.0</ele><time>2026-04-19T12:54:39.001Z</time></trkpt><trkpt lat="43.18814978967552" lon="11.828274122400531"><ele>247.0</ele><time>2026-04-19T12:54:40.001Z</time></trkpt><trkpt lat="43.18835025506159" lon="11.82821380293023"><ele>247.0</ele><time>2026-04-19T12:54:41.001Z</time></trkpt><trkpt lat="43.18856792217283" lon="11.828151268353132"><ele>247.0</ele><time>2026-04-19T12:54:42.001Z</time></trkpt><trkpt lat="43.18882128767662" lon="11.828088065270371"><ele>247.5</ele><time>2026-04-19T12:54:43.001Z</time></trkpt><trkpt lat="43.18909853146432" lon="11.8280101639378"><ele>248.0</ele><time>2026-04-19T12:54:44.001Z</time></trkpt><trkpt lat="43.18934540998252" lon="11.827937984344823"><ele>248.0</ele><time>2026-04-19T12:54:45Z</time></trkpt><trkpt lat="43.18956043199013" lon="11.827874760762926"><ele>248.0</ele><time>2026-04-19T12:54:46Z</time></trkpt><trkpt lat="43.189755633183275" lon="11.827816584384717"><ele>248.0</ele><time>2026-04-19T12:54:47Z</time></trkpt><trkpt lat="43.18993511042765" lon="11.827760116121446"><ele>247.66666666666669</ele><time>2026-04-19T12:54:48Z</time></trkpt><trkpt lat="43.19011584885798" lon="11.827703251114384"><ele>247.33333333333331</ele><time>2026-04-19T12:54:49Z</time></trkpt><trkpt lat="43.190297808738535" lon="11.827645162475624"><ele>247.0</ele><time>2026-04-19T12:54:50Z</time></trkpt><trkpt lat="43.19048695477581" lon="11.827582988361355"><ele>247.0</ele><time>2026-04-19T12:54:51Z</time></trkpt><trkpt lat="43.19067931089555" lon="11.827523786481382"><ele>247.0</ele><time>2026-04-19T12:54:52Z</time></trkpt><trkpt lat="43.19083909056355" lon="11.827476958294382"><ele>247.0</ele><time>2026-04-19T12:54:53Z</time></trkpt><trkpt lat="43.19101719797765" lon="11.827425748755218"><ele>247.0</ele><time>2026-04-19T12:54:54Z</time></trkpt><trkpt lat="43.19117780408193" lon="11.827380465974867"><ele>247.0</ele><time>2026-04-19T12:54:55Z</time></trkpt><trkpt lat="43.19132950390275" lon="11.827339554291788"><ele>247.0</ele><time>2026-04-19T12:54:56Z</time></trkpt><trkpt lat="43.191476312119796" lon="11.827299961828523"><ele>247.75</ele><time>2026-04-19T12:54:57Z</time></trkpt><trkpt lat="43.19162940602729" lon="11.827257499864805"><ele>248.5</ele><time>2026-04-19T12:54:58Z</time></trkpt><trkpt lat="43.191773111503764" lon="11.827217610365764"><ele>249.25</ele><time>2026-04-19T12:54:59Z</time></trkpt><trkpt lat="43.19190254900245" lon="11.827181681308199"><ele>250.0</ele><time>2026-04-19T12:55:00Z</time></trkpt><trkpt lat="43.192034195423126" lon="11.82714513913562"><ele>250.0</ele><time>2026-04-19T12:55:01Z</time></trkpt><trkpt lat="43.19215547462199" lon="11.827107116514071"><ele>250.0</ele><time>2026-04-19T12:55:02Z</time></trkpt><trkpt lat="43.19226384408701" lon="11.827071781070579"><ele>250.0</ele><time>2026-04-19T12:55:03Z</time></trkpt><trkpt lat="43.1923582227199" lon="11.827041007542716"><ele>250.0</ele><time>2026-04-19T12:55:04Z</time></trkpt><trkpt lat="43.19244064010795" lon="11.827014134176345"><ele>250.0</ele><time>2026-04-19T12:55:05Z</time></trkpt><trkpt lat="43.19251129779264" lon="11.826991096954771"><ele>249.8</ele><time>2026-04-19T12:55:06Z</time></trkpt><trkpt lat="43.1925740797608" lon="11.826970625981462"><ele>249.6</ele><time>2026-04-19T12:55:07Z</time></trkpt><trkpt lat="43.1926763102231" lon="11.826937292262974"><ele>249.39999999999998</ele><time>2026-04-19T12:55:09Z</time></trkpt><trkpt lat="43.19274764937342" lon="11.826937428134206"><ele>249.2</ele><time>2026-04-19T12:55:11Z</time></trkpt><trkpt lat="43.19276240158194" lon="11.827090295912841"><ele>249.0</ele><time>2026-04-19T12:55:12Z</time></trkpt><trkpt lat="43.19279717255799" lon="11.827246348281012"><ele>249.0</ele><time>2026-04-19T12:55:13Z</time></trkpt><trkpt lat="43.192812003751904" lon="11.827443569125125"><ele>249.0</ele><time>2026-04-19T12:55:14Z</time></trkpt><trkpt lat="43.19283057187852" lon="11.827583095675822"><ele>249.0</ele><time>2026-04-19T12:55:15Z</time></trkpt><trkpt lat="43.1929002850052" lon="11.827688751921176"><ele>249.0</ele><time>2026-04-19T12:55:17Z</time></trkpt><trkpt lat="43.19305670798048" lon="11.827634198359469"><ele>249.0</ele><time>2026-04-19T12:55:19Z</time></trkpt><trkpt lat="43.19316302048588" lon="11.827516243335419"><ele>249.0</ele><time>2026-04-19T12:55:20Z</time></trkpt><trkpt lat="43.19329119283487" lon="11.827381118581949"><ele>249.0</ele><time>2026-04-19T12:55:21Z</time></trkpt><trkpt lat="43.19343132236106" lon="11.827238997774778"><ele>248.66666666666669</ele><time>2026-04-19T12:55:22Z</time></trkpt><trkpt lat="43.19358607000781" lon="11.82708205136217"><ele>248.33333333333334</ele><time>2026-04-19T12:55:23Z</time></trkpt><trkpt lat="43.19374921228172" lon="11.826915631624097"><ele>248.0</ele><time>2026-04-19T12:55:24Z</time></trkpt><trkpt lat="43.19391609807348" lon="11.826744618407277"><ele>247.5</ele><time>2026-04-19T12:55:25Z</time></trkpt><trkpt lat="43.194095305702724" lon="11.826557504691104"><ele>247.0</ele><time>2026-04-19T12:55:26Z</time></trkpt><trkpt lat="43.19428505999866" lon="11.826362162471492"><ele>247.0</ele><time>2026-04-19T12:55:27Z</time></trkpt><trkpt lat="43.19446537591985" lon="11.826179568722763"><ele>247.0</ele><time>2026-04-19T12:55:28Z</time></trkpt><trkpt lat="43.194640628879874" lon="11.826000424749612"><ele>247.0</ele><time>2026-04-19T12:55:29Z</time></trkpt><trkpt lat="43.19481416963259" lon="11.82582218603632"><ele>248.0</ele><time>2026-04-19T12:55:30Z</time></trkpt><trkpt lat="43.1949773864246" lon="11.825654975810263"><ele>249.0</ele><time>2026-04-19T12:55:31Z</time></trkpt><trkpt lat="43.195127197028455" lon="11.825504176598479"><ele>250.0</ele><time>2026-04-19T12:55:32Z</time></trkpt><trkpt lat="43.19525757589425" lon="11.825371241622078"><ele>250.0</ele><time>2026-04-19T12:55:33Z</time></trkpt><trkpt lat="43.19536749987622" lon="11.825257400927708"><ele>250.0</ele><time>2026-04-19T12:55:34Z</time></trkpt><trkpt lat="43.195451729431475" lon="11.825170170134014"><ele>250.0</ele><time>2026-04-19T12:55:35Z</time></trkpt><trkpt lat="43.19551608259275" lon="11.825104037380736"><ele>250.0</ele><time>2026-04-19T12:55:36Z</time></trkpt><trkpt lat="43.19561892010544" lon="11.825049254121245"><ele>250.0</ele><time>2026-04-19T12:55:38Z</time></trkpt><trkpt lat="43.19569650603287" lon="11.825224437419303"><ele>250.25</ele><time>2026-04-19T12:55:40Z</time></trkpt><trkpt lat="43.19574641225992" lon="11.825370429752928"><ele>250.5</ele><time>2026-04-19T12:55:41Z</time></trkpt><trkpt lat="43.1958088549109" lon="11.825555012773096"><ele>250.75</ele><time>2026-04-19T12:55:42Z</time></trkpt><trkpt lat="43.195885279844" lon="11.825768805099504"><ele>251.0</ele><time>2026-04-19T12:55:43Z</time></trkpt><trkpt lat="43.19597369507173" lon="11.826009078636599"><ele>250.0</ele><time>2026-04-19T12:55:44Z</time></trkpt><trkpt lat="43.19606010197167" lon="11.826256042239342"><ele>249.0</ele><time>2026-04-19T12:55:45Z</time></trkpt><trkpt lat="43.19614599140839" lon="11.826503872314957"><ele>248.0</ele><time>2026-04-19T12:55:46Z</time></trkpt><trkpt lat="43.196241319983436" lon="11.826775591695807"><ele>248.0</ele><time>2026-04-19T12:55:47Z</time></trkpt><trkpt lat="43.19634402657864" lon="11.827070834898013"><ele>248.0</ele><time>2026-04-19T12:55:48Z</time></trkpt><trkpt lat="43.19644231164256" lon="11.827365133448861"><ele>247.5</ele><time>2026-04-19T12:55:49Z</time></trkpt><trkpt lat="43.19653715279133" lon="11.827658176989983"><ele>247.0</ele><time>2026-04-19T12:55:50Z</time></trkpt><trkpt lat="43.196639413240916" lon="11.827961984271754"><ele>247.0</ele><time>2026-04-19T12:55:51Z</time></trkpt><trkpt lat="43.19674608287089" lon="11.828270436608541"><ele>247.0</ele><time>2026-04-19T12:55:52Z</time></trkpt><trkpt lat="43.19685355521875" lon="11.828576429873914"><ele>248.0</ele><time>2026-04-19T12:55:53Z</time></trkpt><trkpt lat="43.19696121424766" lon="11.82889042721166"><ele>249.0</ele><time>2026-04-19T12:55:54Z</time></trkpt><trkpt lat="43.197069181583" lon="11.82920404906753"><ele>248.5</ele><time>2026-04-19T12:55:55Z</time></trkpt><trkpt lat="43.19718293492463" lon="11.829521034840736"><ele>248.0</ele><time>2026-04-19T12:55:56Z</time></trkpt><trkpt lat="43.197292351147226" lon="11.829830270627745"><ele>247.5</ele><time>2026-04-19T12:55:57Z</time></trkpt><trkpt lat="43.19739981693573" lon="11.830137272334008"><ele>247.0</ele><time>2026-04-19T12:55:58Z</time></trkpt><trkpt lat="43.197499596704304" lon="11.830448051453057"><ele>247.0</ele><time>2026-04-19T12:55:59Z</time></trkpt><trkpt lat="43.197599457864925" lon="11.83075555710641"><ele>247.0</ele><time>2026-04-19T12:56:00Z</time></trkpt><trkpt lat="43.19769592666607" lon="11.831056352731549"><ele>247.0</ele><time>2026-04-19T12:56:01Z</time></trkpt><trkpt lat="43.19778842827809" lon="11.831358935884666"><ele>247.0</ele><time>2026-04-19T12:56:02Z</time></trkpt><trkpt lat="43.19788195971145" lon="11.831660476891507"><ele>247.5</ele><time>2026-04-19T12:56:03.001Z</time></trkpt><trkpt lat="43.19797800148219" lon="11.831961699656238"><ele>248.0</ele><time>2026-04-19T12:56:04.001Z</time></trkpt><trkpt lat="43.19807191214316" lon="11.832265152151978"><ele>247.5</ele><time>2026-04-19T12:56:05.001Z</time></trkpt><trkpt lat="43.19817041300101" lon="11.832570364102288"><ele>247.0</ele><time>2026-04-19T12:56:06.001Z</time></trkpt><trkpt lat="43.19826440143527" lon="11.832877042587647"><ele>246.5</ele><time>2026-04-19T12:56:07.001Z</time></trkpt><trkpt lat="43.19835486191928" lon="11.833179913541835"><ele>246.0</ele><time>2026-04-19T12:56:08.001Z</time></trkpt><trkpt lat="43.19844529246116" lon="11.833481172345966"><ele>246.0</ele><time>2026-04-19T12:56:09.001Z</time></trkpt><trkpt lat="43.198539943912614" lon="11.833765584306718"><ele>246.0</ele><time>2026-04-19T12:56:10.001Z</time></trkpt><trkpt lat="43.19862639079675" lon="11.834027488416925"><ele>246.0</ele><time>2026-04-19T12:56:11.001Z</time></trkpt><trkpt lat="43.19870475231596" lon="11.834270253028036"><ele>246.33333333333331</ele><time>2026-04-19T12:56:12.001Z</time></trkpt><trkpt lat="43.19877655004513" lon="11.83449585995533"><ele>246.66666666666666</ele><time>2026-04-19T12:56:13.001Z</time></trkpt><trkpt lat="43.19884318890861" lon="11.834702377703712"><ele>247.0</ele><time>2026-04-19T12:56:14.001Z</time></trkpt><trkpt lat="43.198899291011756" lon="11.83488860602097"><ele>247.0</ele><time>2026-04-19T12:56:15.001Z</time></trkpt><trkpt lat="43.19894861215323" lon="11.835059885778623"><ele>247.0</ele><time>2026-04-19T12:56:16.001Z</time></trkpt><trkpt lat="43.198994864669714" lon="11.835217036588718"><ele>247.0</ele><time>2026-04-19T12:56:17.001Z</time></trkpt><trkpt lat="43.19903601012248" lon="11.83535731419234"><ele>247.0</ele><time>2026-04-19T12:56:18.001Z</time></trkpt><trkpt lat="43.19906999751819" lon="11.83548575504334"><ele>247.39999999999998</ele><time>2026-04-19T12:56:19.001Z</time></trkpt><trkpt lat="43.19909875883957" lon="11.83559369949022"><ele>247.79999999999998</ele><time>2026-04-19T12:56:20.001Z</time></trkpt><trkpt lat="43.19912246086231" lon="11.835676558924792"><ele>248.2</ele><time>2026-04-19T12:56:21.001Z</time></trkpt><trkpt lat="43.199151616794644" lon="11.835776419139744"><ele>248.6</ele><time>2026-04-19T12:56:23.001Z</time></trkpt><trkpt lat="43.19934519552083" lon="11.835738372529134"><ele>249.0</ele><time>2026-04-19T12:56:25.001Z</time></trkpt><trkpt lat="43.19945433552445" lon="11.835700973933408"><ele>249.0</ele><time>2026-04-19T12:56:26.001Z</time></trkpt><trkpt lat="43.19959612218885" lon="11.835644194331865"><ele>249.0</ele><time>2026-04-19T12:56:27.001Z</time></trkpt><trkpt lat="43.199741482253486" lon="11.835567678434357"><ele>249.0</ele><time>2026-04-19T12:56:28.001Z</time></trkpt><trkpt lat="43.19989188138001" lon="11.835512789653643"><ele>248.33333333333331</ele><time>2026-04-19T12:56:29.001Z</time></trkpt><trkpt lat="43.200047007456504" lon="11.8354403239139"><ele>247.66666666666666</ele><time>2026-04-19T12:56:30.001Z</time></trkpt><trkpt lat="43.20020726880815" lon="11.835344367198832"><ele>247.0</ele><time>2026-04-19T12:56:31.001Z</time></trkpt><trkpt lat="43.20039930631298" lon="11.835267035273718"><ele>247.0</ele><time>2026-04-19T12:56:32.001Z</time></trkpt><trkpt lat="43.20058015071668" lon="11.835175895110982"><ele>247.0</ele><time>2026-04-19T12:56:33.001Z</time></trkpt><trkpt lat="43.20075211827696" lon="11.835089228552489"><ele>247.0</ele><time>2026-04-19T12:56:34.001Z</time></trkpt><trkpt lat="43.200911269941564" lon="11.835006733064828"><ele>247.66666666666666</ele><time>2026-04-19T12:56:35.001Z</time></trkpt><trkpt lat="43.20109357877871" lon="11.834911995405792"><ele>248.33333333333331</ele><time>2026-04-19T12:56:36.001Z</time></trkpt><trkpt lat="43.20127576762473" lon="11.834817319547946"><ele>249.0</ele><time>2026-04-19T12:56:37.001Z</time></trkpt><trkpt lat="43.20143961122109" lon="11.834706459617056"><ele>248.33333333333331</ele><time>2026-04-19T12:56:38.001Z</time></trkpt><trkpt lat="43.20161045259002" lon="11.834618668945641"><ele>247.66666666666666</ele><time>2026-04-19T12:56:39.001Z</time></trkpt><trkpt lat="43.20177761626072" lon="11.834530203603396"><ele>247.0</ele><time>2026-04-19T12:56:40.001Z</time></trkpt><trkpt lat="43.20194079505723" lon="11.834446059966265"><ele>247.0</ele><time>2026-04-19T12:56:41.001Z</time></trkpt><trkpt lat="43.20209584087064" lon="11.83437202479028"><ele>247.0</ele><time>2026-04-19T12:56:42.001Z</time></trkpt><trkpt lat="43.20225581006094" lon="11.83428982491531"><ele>247.0</ele><time>2026-04-19T12:56:43.001Z</time></trkpt><trkpt lat="43.20241169385018" lon="11.83420225776538"><ele>247.33333333333331</ele><time>2026-04-19T12:56:44.001Z</time></trkpt><trkpt lat="43.20255464946356" lon="11.834136505674644"><ele>247.66666666666669</ele><time>2026-04-19T12:56:45.001Z</time></trkpt><trkpt lat="43.20271446303966" lon="11.834064507122616"><ele>248.0</ele><time>2026-04-19T12:56:46.001Z</time></trkpt><trkpt lat="43.202880694303445" lon="11.833970021244152"><ele>248.0</ele><time>2026-04-19T12:56:47.001Z</time></trkpt><trkpt lat="43.20305510433757" lon="11.83387730492244"><ele>248.0</ele><time>2026-04-19T12:56:48.001Z</time></trkpt><trkpt lat="43.20322655231961" lon="11.83379941595544"><ele>248.0</ele><time>2026-04-19T12:56:49.001Z</time></trkpt><trkpt lat="43.203385223838985" lon="11.833721527123199"><ele>247.66666666666669</ele><time>2026-04-19T12:56:50.001Z</time></trkpt><trkpt lat="43.20353059038275" lon="11.833666467621079"><ele>247.33333333333331</ele><time>2026-04-19T12:56:51Z</time></trkpt><trkpt lat="43.20367127331376" lon="11.83357426861142"><ele>247.0</ele><time>2026-04-19T12:56:52Z</time></trkpt><trkpt lat="43.20382520797117" lon="11.833503109079983"><ele>246.75</ele><time>2026-04-19T12:56:53Z</time></trkpt><trkpt lat="43.20397180052728" lon="11.833446040914728"><ele>246.5</ele><time>2026-04-19T12:56:54Z</time></trkpt><trkpt lat="43.20410308535954" lon="11.8333734886347"><ele>246.25</ele><time>2026-04-19T12:56:55Z</time></trkpt><trkpt lat="43.20423983075562" lon="11.833301127171506"><ele>246.0</ele><time>2026-04-19T12:56:56Z</time></trkpt><trkpt lat="43.20437859323438" lon="11.833208649478339"><ele>246.0</ele><time>2026-04-19T12:56:57Z</time></trkpt><trkpt lat="43.20449937856926" lon="11.833151198320756"><ele>246.0</ele><time>2026-04-19T12:56:58Z</time></trkpt><trkpt lat="43.204637866309774" lon="11.833080047939704"><ele>246.0</ele><time>2026-04-19T12:56:59Z</time></trkpt><trkpt lat="43.204776215897354" lon="11.833018579130211"><ele>246.0</ele><time>2026-04-19T12:57:00Z</time></trkpt><trkpt lat="43.204919424289294" lon="11.832953377261289"><ele>246.0</ele><time>2026-04-19T12:57:01Z</time></trkpt><trkpt lat="43.20506926540509" lon="11.832882725931801"><ele>246.0</ele><time>2026-04-19T12:57:02Z</time></trkpt><trkpt lat="43.20521707582425" lon="11.832805606939095"><ele>246.0</ele><time>2026-04-19T12:57:03Z</time></trkpt><trkpt lat="43.205368583788946" lon="11.832718437722164"><ele>246.66666666666669</ele><time>2026-04-19T12:57:04Z</time></trkpt><trkpt lat="43.20552635274276" lon="11.832634443904738"><ele>247.33333333333334</ele><time>2026-04-19T12:57:05Z</time></trkpt><trkpt lat="43.20568932739725" lon="11.832573386809987"><ele>248.0</ele><time>2026-04-19T12:57:06Z</time></trkpt><trkpt lat="43.205852147702124" lon="11.832490473906361"><ele>248.0</ele><time>2026-04-19T12:57:07Z</time></trkpt><trkpt lat="43.20601409297375" lon="11.832390322097881"><ele>248.0</ele><time>2026-04-19T12:57:08Z</time></trkpt><trkpt lat="43.20617917069375" lon="11.832305184511217"><ele>248.0</ele><time>2026-04-19T12:57:09Z</time></trkpt><trkpt lat="43.206328934223116" lon="11.832228602526722"><ele>248.0</ele><time>2026-04-19T12:57:10Z</time></trkpt><trkpt lat="43.206477622382316" lon="11.832150653364653"><ele>248.0</ele><time>2026-04-19T12:57:11Z</time></trkpt><trkpt lat="43.20662180944831" lon="11.832070694181505"><ele>248.0</ele><time>2026-04-19T12:57:12Z</time></trkpt><trkpt lat="43.206765400582654" lon="11.831990661801246"><ele>247.66666666666669</ele><time>2026-04-19T12:57:13Z</time></trkpt><trkpt lat="43.20691837172505" lon="11.831929642688728"><ele>247.33333333333331</ele><time>2026-04-19T12:57:14Z</time></trkpt><trkpt lat="43.207081686914094" lon="11.831843915477567"><ele>247.0</ele><time>2026-04-19T12:57:15Z</time></trkpt><trkpt lat="43.20723858390988" lon="11.831745185680116"><ele>247.0</ele><time>2026-04-19T12:57:16Z</time></trkpt><trkpt lat="43.20738732210282" lon="11.831674239193516"><ele>247.0</ele><time>2026-04-19T12:57:17Z</time></trkpt><trkpt lat="43.207534583733455" lon="11.831633822001399"><ele>247.0</ele><time>2026-04-19T12:57:18Z</time></trkpt><trkpt lat="43.20766163276651" lon="11.831561949288096"><ele>247.0</ele><time>2026-04-19T12:57:19Z</time></trkpt><trkpt lat="43.207809996434925" lon="11.8314986712875"><ele>247.0</ele><time>2026-04-19T12:57:20Z</time></trkpt><trkpt lat="43.20796070499394" lon="11.83142916201446"><ele>247.0</ele><time>2026-04-19T12:57:21Z</time></trkpt><trkpt lat="43.20809437445534" lon="11.831395812254879"><ele>247.0</ele><time>2026-04-19T12:57:22Z</time></trkpt><trkpt lat="43.20822074559275" lon="11.831342869389204"><ele>247.0</ele><time>2026-04-19T12:57:23Z</time></trkpt><trkpt lat="43.208349918425995" lon="11.831266845587342"><ele>247.0</ele><time>2026-04-19T12:57:24Z</time></trkpt><trkpt lat="43.20849607017581" lon="11.831221830209715"><ele>247.0</ele><time>2026-04-19T12:57:25Z</time></trkpt><trkpt lat="43.20864388697345" lon="11.831168507102277"><ele>247.0</ele><time>2026-04-19T12:57:26Z</time></trkpt><trkpt lat="43.208788630510554" lon="11.83111094938781"><ele>247.0</ele><time>2026-04-19T12:57:27Z</time></trkpt><trkpt lat="43.20894175251178" lon="11.8310821934025"><ele>247.0</ele><time>2026-04-19T12:57:28Z</time></trkpt><trkpt lat="43.2090900650398" lon="11.831032930600324"><ele>247.0</ele><time>2026-04-19T12:57:29Z</time></trkpt><trkpt lat="43.20924955062863" lon="11.830980487686219"><ele>247.33333333333331</ele><time>2026-04-19T12:57:30Z</time></trkpt><trkpt lat="43.20940356915291" lon="11.83093050028652"><ele>247.66666666666669</ele><time>2026-04-19T12:57:31Z</time></trkpt><trkpt lat="43.20957464604391" lon="11.830881544854064"><ele>248.0</ele><time>2026-04-19T12:57:32Z</time></trkpt><trkpt lat="43.209764900666414" lon="11.830827101548692"><ele>247.66666666666669</ele><time>2026-04-19T12:57:33Z</time></trkpt><trkpt lat="43.209954088596014" lon="11.830772963511784"><ele>247.33333333333331</ele><time>2026-04-19T12:57:34Z</time></trkpt><trkpt lat="43.21012485603598" lon="11.83070520548719"><ele>247.0</ele><time>2026-04-19T12:57:35Z</time></trkpt><trkpt lat="43.21026386566762" lon="11.830684317604128"><ele>247.0</ele><time>2026-04-19T12:57:36Z</time></trkpt><trkpt lat="43.21039780382179" lon="11.830645020971406"><ele>247.0</ele><time>2026-04-19T12:57:37Z</time></trkpt><trkpt lat="43.210549015166364" lon="11.83057869974358"><ele>247.0</ele><time>2026-04-19T12:57:38Z</time></trkpt><trkpt lat="43.2107160663307" lon="11.830528924946456"><ele>247.0</ele><time>2026-04-19T12:57:39Z</time></trkpt><trkpt lat="43.2108731502114" lon="11.830478650620908"><ele>247.0</ele><time>2026-04-19T12:57:40Z</time></trkpt><trkpt lat="43.21100566935865" lon="11.830436584639004"><ele>247.0</ele><time>2026-04-19T12:57:41Z</time></trkpt><trkpt lat="43.21113886625972" lon="11.830418239335998"><ele>247.0</ele><time>2026-04-19T12:57:42Z</time></trkpt><trkpt lat="43.21127545109182" lon="11.830377162107412"><ele>247.0</ele><time>2026-04-19T12:57:43Z</time></trkpt><trkpt lat="43.2114204290754" lon="11.830333736548255"><ele>247.0</ele><time>2026-04-19T12:57:44Z</time></trkpt><trkpt lat="43.21156412899731" lon="11.830290693907326"><ele>247.0</ele><time>2026-04-19T12:57:45Z</time></trkpt><trkpt lat="43.21168204189918" lon="11.830233870430794"><ele>247.0</ele><time>2026-04-19T12:57:46Z</time></trkpt><trkpt lat="43.211797481325405" lon="11.830196773143886"><ele>247.0</ele><time>2026-04-19T12:57:47Z</time></trkpt><trkpt lat="43.21192178150812" lon="11.830160700962058"><ele>247.0</ele><time>2026-04-19T12:57:48Z</time></trkpt><trkpt lat="43.21206734578682" lon="11.83012096036165"><ele>247.0</ele><time>2026-04-19T12:57:49Z</time></trkpt><trkpt lat="43.21220258528568" lon="11.83006996946362"><ele>247.0</ele><time>2026-04-19T12:57:50.001Z</time></trkpt><trkpt lat="43.21231607289751" lon="11.83002888681847"><ele>247.2</ele><time>2026-04-19T12:57:51.001Z</time></trkpt><trkpt lat="43.21241297983235" lon="11.829993806408806"><ele>247.39999999999998</ele><time>2026-04-19T12:57:52.001Z</time></trkpt><trkpt lat="43.21249785877967" lon="11.82996182339229"><ele>247.60000000000002</ele><time>2026-04-19T12:57:53.001Z</time></trkpt><trkpt lat="43.21256997434431" lon="11.829929930658016"><ele>247.8</ele><time>2026-04-19T12:57:54.001Z</time></trkpt><trkpt lat="43.21266929262837" lon="11.829860100256457"><ele>248.0</ele><time>2026-04-19T12:57:56.001Z</time></trkpt><trkpt lat="43.212750938811524" lon="11.829844076933751"><ele>248.0</ele><time>2026-04-19T12:57:57.001Z</time></trkpt><trkpt lat="43.21285650353757" lon="11.829835422158173"><ele>248.0</ele><time>2026-04-19T12:57:58.001Z</time></trkpt><trkpt lat="43.21298171436818" lon="11.829818320906982"><ele>248.0</ele><time>2026-04-19T12:57:59.001Z</time></trkpt><trkpt lat="43.21312170527241" lon="11.82978828823772"><ele>248.0</ele><time>2026-04-19T12:58:00.001Z</time></trkpt><trkpt lat="43.213254280282975" lon="11.829759627358824"><ele>247.75</ele><time>2026-04-19T12:58:01.001Z</time></trkpt><trkpt lat="43.21339337417152" lon="11.82972696999776"><ele>247.5</ele><time>2026-04-19T12:58:02.001Z</time></trkpt><trkpt lat="43.213537245328595" lon="11.829691941538385"><ele>247.25</ele><time>2026-04-19T12:58:03.001Z</time></trkpt><trkpt lat="43.213674963349625" lon="11.829652472202588"><ele>247.0</ele><time>2026-04-19T12:58:04.001Z</time></trkpt><trkpt lat="43.21381363293641" lon="11.829606060475651"><ele>247.0</ele><time>2026-04-19T12:58:05.001Z</time></trkpt><trkpt lat="43.2139580998005" lon="11.829559145498834"><ele>247.0</ele><time>2026-04-19T12:58:06.001Z</time></trkpt><trkpt lat="43.21410593784289" lon="11.82952080720698"><ele>247.0</ele><time>2026-04-19T12:58:07.001Z</time></trkpt><trkpt lat="43.214259847700305" lon="11.82947261283731"><ele>247.25</ele><time>2026-04-19T12:58:08.001Z</time></trkpt><trkpt lat="43.214396298295625" lon="11.829431262627018"><ele>247.5</ele><time>2026-04-19T12:58:09.001Z</time></trkpt><trkpt lat="43.21453086447391" lon="11.829392518123333"><ele>247.75</ele><time>2026-04-19T12:58:10.001Z</time></trkpt><trkpt lat="43.2146624615367" lon="11.829338067603938"><ele>248.0</ele><time>2026-04-19T12:58:11.001Z</time></trkpt><trkpt lat="43.21481042134189" lon="11.829304431547811"><ele>248.0</ele><time>2026-04-19T12:58:12.001Z</time></trkpt><trkpt lat="43.214961649014164" lon="11.829273738515445"><ele>248.0</ele><time>2026-04-19T12:58:13.001Z</time></trkpt><trkpt lat="43.21512283290395" lon="11.829221236262322"><ele>248.0</ele><time>2026-04-19T12:58:14.001Z</time></trkpt><trkpt lat="43.215290318561046" lon="11.829161883978923"><ele>248.0</ele><time>2026-04-19T12:58:15.001Z</time></trkpt><trkpt lat="43.21546405857695" lon="11.829109301840992"><ele>248.0</ele><time>2026-04-19T12:58:16.001Z</time></trkpt><trkpt lat="43.21561661311076" lon="11.829075808829772"><ele>248.0</ele><time>2026-04-19T12:58:17.001Z</time></trkpt><trkpt lat="43.21574222363741" lon="11.829045752837077"><ele>247.75</ele><time>2026-04-19T12:58:18.001Z</time></trkpt><trkpt lat="43.21584662231937" lon="11.829004587078177"><ele>247.5</ele><time>2026-04-19T12:58:19.001Z</time></trkpt><trkpt lat="43.215978587653304" lon="11.828961269184584"><ele>247.25</ele><time>2026-04-19T12:58:20.001Z</time></trkpt><trkpt lat="43.21614303601577" lon="11.828913869095286"><ele>247.0</ele><time>2026-04-19T12:58:21.001Z</time></trkpt><trkpt lat="43.216312521557164" lon="11.828867234722576"><ele>247.33333333333331</ele><time>2026-04-19T12:58:22.001Z</time></trkpt><trkpt lat="43.21648856997913" lon="11.828812749191254"><ele>247.66666666666669</ele><time>2026-04-19T12:58:23.001Z</time></trkpt><trkpt lat="43.21667394514722" lon="11.828754134978636"><ele>248.0</ele><time>2026-04-19T12:58:24.001Z</time></trkpt><trkpt lat="43.216844680558545" lon="11.828707607607395"><ele>248.0</ele><time>2026-04-19T12:58:25.001Z</time></trkpt><trkpt lat="43.21701557590179" lon="11.828656935359037"><ele>248.0</ele><time>2026-04-19T12:58:26.001Z</time></trkpt><trkpt lat="43.217181179669524" lon="11.828602904309804"><ele>248.0</ele><time>2026-04-19T12:58:27.001Z</time></trkpt><trkpt lat="43.217349959618886" lon="11.828549409009737"><ele>247.66666666666669</ele><time>2026-04-19T12:58:28.001Z</time></trkpt><trkpt lat="43.21752479373815" lon="11.828503556738374"><ele>247.33333333333331</ele><time>2026-04-19T12:58:29.001Z</time></trkpt><trkpt lat="43.217702724998695" lon="11.828453435232731"><ele>247.0</ele><time>2026-04-19T12:58:30.001Z</time></trkpt><trkpt lat="43.21788288681344" lon="11.828395228345629"><ele>247.0</ele><time>2026-04-19T12:58:31.001Z</time></trkpt><trkpt lat="43.218061795107815" lon="11.828340067519807"><ele>247.0</ele><time>2026-04-19T12:58:32.001Z</time></trkpt><trkpt lat="43.21824066274807" lon="11.828286930409716"><ele>247.0</ele><time>2026-04-19T12:58:33.001Z</time></trkpt><trkpt lat="43.21842664848374" lon="11.828226412240962"><ele>246.66666666666666</ele><time>2026-04-19T12:58:34.001Z</time></trkpt><trkpt lat="43.218611976865446" lon="11.828170448226212"><ele>246.33333333333331</ele><time>2026-04-19T12:58:35.001Z</time></trkpt><trkpt lat="43.218789984589094" lon="11.828119747190879"><ele>246.0</ele><time>2026-04-19T12:58:36.001Z</time></trkpt><trkpt lat="43.218949979049206" lon="11.828073171957428"><ele>245.66666666666669</ele><time>2026-04-19T12:58:37.001Z</time></trkpt><trkpt lat="43.21911347428146" lon="11.828027549128167"><ele>245.33333333333334</ele><time>2026-04-19T12:58:38.001Z</time></trkpt><trkpt lat="43.21928114431161" lon="11.827987329559978"><ele>245.0</ele><time>2026-04-19T12:58:39.001Z</time></trkpt><trkpt lat="43.21943629507952" lon="11.827948732435987"><ele>245.0</ele><time>2026-04-19T12:58:40.001Z</time></trkpt><trkpt lat="43.21959052693374" lon="11.82790826576793"><ele>245.0</ele><time>2026-04-19T12:58:41.001Z</time></trkpt><trkpt lat="43.21973694983663" lon="11.827866431343669"><ele>245.0</ele><time>2026-04-19T12:58:42.001Z</time></trkpt><trkpt lat="43.219890050482405" lon="11.827818495925134"><ele>245.33333333333334</ele><time>2026-04-19T12:58:43.001Z</time></trkpt><trkpt lat="43.22005080634449" lon="11.827772017951908"><ele>245.66666666666669</ele><time>2026-04-19T12:58:44.001Z</time></trkpt><trkpt lat="43.22020964875197" lon="11.827725232472972"><ele>246.0</ele><time>2026-04-19T12:58:45.001Z</time></trkpt><trkpt lat="43.22035674515446" lon="11.827686749072136"><ele>246.0</ele><time>2026-04-19T12:58:46.001Z</time></trkpt><trkpt lat="43.22049637525064" lon="11.827652122706503"><ele>246.0</ele><time>2026-04-19T12:58:47.001Z</time></trkpt><trkpt lat="43.22064472200168" lon="11.827606871594622"><ele>246.0</ele><time>2026-04-19T12:58:48.001Z</time></trkpt><trkpt lat="43.220797656832296" lon="11.827546460785923"><ele>246.25</ele><time>2026-04-19T12:58:49.001Z</time></trkpt><trkpt lat="43.22094967418201" lon="11.827486792117519"><ele>246.5</ele><time>2026-04-19T12:58:50.001Z</time></trkpt><trkpt lat="43.221092124751806" lon="11.82743148489199"><ele>246.75</ele><time>2026-04-19T12:58:51.001Z</time></trkpt><trkpt lat="43.22121008725474" lon="11.82738577765922"><ele>247.0</ele><time>2026-04-19T12:58:52.001Z</time></trkpt><trkpt lat="43.22131412395609" lon="11.827344005318714"><ele>247.0</ele><time>2026-04-19T12:58:53.001Z</time></trkpt><trkpt lat="43.22141422279641" lon="11.82730053700207"><ele>247.0</ele><time>2026-04-19T12:58:54.001Z</time></trkpt><trkpt lat="43.22150762804156" lon="11.827276062779317"><ele>247.0</ele><time>2026-04-19T12:58:55.001Z</time></trkpt><trkpt lat="43.22159985034356" lon="11.82725942128694"><ele>247.0</ele><time>2026-04-19T12:58:56.001Z</time></trkpt><trkpt lat="43.22169107777343" lon="11.827237543202457"><ele>247.0</ele><time>2026-04-19T12:58:57Z</time></trkpt><trkpt lat="43.22178974109566" lon="11.82721118690555"><ele>246.75</ele><time>2026-04-19T12:58:58Z</time></trkpt><trkpt lat="43.22189116289094" lon="11.827184190890545"><ele>246.5</ele><time>2026-04-19T12:58:59Z</time></trkpt><trkpt lat="43.222006617761075" lon="11.827163825914157"><ele>246.25</ele><time>2026-04-19T12:59:00Z</time></trkpt><trkpt lat="43.222136306986435" lon="11.827152723110496"><ele>246.0</ele><time>2026-04-19T12:59:01Z</time></trkpt><trkpt lat="43.22227822435473" lon="11.827129063046854"><ele>246.0</ele><time>2026-04-19T12:59:02Z</time></trkpt><trkpt lat="43.222432192783835" lon="11.827090789843105"><ele>246.0</ele><time>2026-04-19T12:59:03Z</time></trkpt><trkpt lat="43.22257211683459" lon="11.827057675213657"><ele>246.0</ele><time>2026-04-19T12:59:04Z</time></trkpt><trkpt lat="43.22271096851696" lon="11.82703164290692"><ele>246.0</ele><time>2026-04-19T12:59:05Z</time></trkpt><trkpt lat="43.22284264697643" lon="11.82701108909172"><ele>246.0</ele><time>2026-04-19T12:59:06Z</time></trkpt><trkpt lat="43.22295567823931" lon="11.826992620733616"><ele>246.00000000000003</ele><time>2026-04-19T12:59:07Z</time></trkpt><trkpt lat="43.22305174757286" lon="11.82697625640944"><ele>246.00000000000003</ele><time>2026-04-19T12:59:08Z</time></trkpt><trkpt lat="43.223142717019414" lon="11.826958087169928"><ele>246.0</ele><time>2026-04-19T12:59:09Z</time></trkpt><trkpt lat="43.223235236985985" lon="11.826938183406968"><ele>246.0</ele><time>2026-04-19T12:59:10Z</time></trkpt><trkpt lat="43.22334260276515" lon="11.826920090771933"><ele>246.5</ele><time>2026-04-19T12:59:11Z</time></trkpt><trkpt lat="43.22346056977803" lon="11.82692094639513"><ele>247.0</ele><time>2026-04-19T12:59:12Z</time></trkpt><trkpt lat="43.22357958735364" lon="11.826909563902985"><ele>247.5</ele><time>2026-04-19T12:59:13Z</time></trkpt><trkpt lat="43.22374080878777" lon="11.826910338095407"><ele>248.0</ele><time>2026-04-19T12:59:14Z</time></trkpt><trkpt lat="43.22389833899234" lon="11.826903583844404"><ele>247.5</ele><time>2026-04-19T12:59:15Z</time></trkpt><trkpt lat="43.22404722709294" lon="11.826898069222526"><ele>247.0</ele><time>2026-04-19T12:59:16Z</time></trkpt><trkpt lat="43.22418446460868" lon="11.826898901680217"><ele>246.5</ele><time>2026-04-19T12:59:17Z</time></trkpt><trkpt lat="43.22433712063874" lon="11.826909639304786"><ele>246.0</ele><time>2026-04-19T12:59:18Z</time></trkpt><trkpt lat="43.224497564402604" lon="11.826924455929523"><ele>246.0</ele><time>2026-04-19T12:59:19Z</time></trkpt><trkpt lat="43.22465820424313" lon="11.826936308023745"><ele>246.0</ele><time>2026-04-19T12:59:20Z</time></trkpt><trkpt lat="43.22482380102353" lon="11.826949657308766"><ele>246.0</ele><time>2026-04-19T12:59:21Z</time></trkpt><trkpt lat="43.22499902259377" lon="11.826967705767405"><ele>246.0</ele><time>2026-04-19T12:59:22Z</time></trkpt><trkpt lat="43.22516619623923" lon="11.826990448476257"><ele>246.0</ele><time>2026-04-19T12:59:23Z</time></trkpt><trkpt lat="43.225311076905484" lon="11.827018178251231"><ele>246.0</ele><time>2026-04-19T12:59:24Z</time></trkpt><trkpt lat="43.22545921018814" lon="11.82704087257415"><ele>246.0</ele><time>2026-04-19T12:59:25Z</time></trkpt><trkpt lat="43.22561431363393" lon="11.827069703240578"><ele>246.0</ele><time>2026-04-19T12:59:26Z</time></trkpt><trkpt lat="43.22576161197629" lon="11.827100225181379"><ele>246.0</ele><time>2026-04-19T12:59:27Z</time></trkpt><trkpt lat="43.22589303323457" lon="11.827123333103284"><ele>246.0</ele><time>2026-04-19T12:59:28Z</time></trkpt><trkpt lat="43.22601331052864" lon="11.827145838047008"><ele>246.0</ele><time>2026-04-19T12:59:29Z</time></trkpt><trkpt lat="43.22612228119946" lon="11.827166420704705"><ele>246.0</ele><time>2026-04-19T12:59:30Z</time></trkpt><trkpt lat="43.22621026160824" lon="11.827180484247883"><ele>246.0</ele><time>2026-04-19T12:59:31Z</time></trkpt><trkpt lat="43.22628975940741" lon="11.827194130054172"><ele>246.0</ele><time>2026-04-19T12:59:32Z</time></trkpt><trkpt lat="43.226360503283544" lon="11.827206485569922"><ele>246.0</ele><time>2026-04-19T12:59:33Z</time></trkpt><trkpt lat="43.226422954789065" lon="11.827221357808979"><ele>246.0</ele><time>2026-04-19T12:59:34Z</time></trkpt><trkpt lat="43.226481240972035" lon="11.827254079206986"><ele>246.0</ele><time>2026-04-19T12:59:35.001Z</time></trkpt><trkpt lat="43.226534058223486" lon="11.827308167091838"><ele>246.00000000000003</ele><time>2026-04-19T12:59:36.001Z</time></trkpt><trkpt lat="43.2265917497762" lon="11.827468024694623"><ele>246.00000000000003</ele><time>2026-04-19T12:59:38.001Z</time></trkpt><trkpt lat="43.22662709306773" lon="11.82759028263589"><ele>246.0</ele><time>2026-04-19T12:59:40.001Z</time></trkpt><trkpt lat="43.22669651318648" lon="11.82765087556516"><ele>246.0</ele><time>2026-04-19T12:59:42.001Z</time></trkpt><trkpt lat="43.22682987498396" lon="11.8276129028812"><ele>246.0</ele><time>2026-04-19T12:59:44.001Z</time></trkpt><trkpt lat="43.22692820504784" lon="11.827576512384393"><ele>246.0</ele><time>2026-04-19T12:59:45.001Z</time></trkpt><trkpt lat="43.22703833414811" lon="11.827550220510064"><ele>246.0</ele><time>2026-04-19T12:59:46.001Z</time></trkpt><trkpt lat="43.22715932395726" lon="11.827542982250183"><ele>246.0</ele><time>2026-04-19T12:59:47.001Z</time></trkpt><trkpt lat="43.22729554476865" lon="11.82755960771283"><ele>246.33333333333331</ele><time>2026-04-19T12:59:48.001Z</time></trkpt><trkpt lat="43.22744413375858" lon="11.827594953583116"><ele>246.66666666666666</ele><time>2026-04-19T12:59:49.001Z</time></trkpt><trkpt lat="43.227595266017985" lon="11.82765087548149"><ele>247.0</ele><time>2026-04-19T12:59:50.001Z</time></trkpt><trkpt lat="43.227750106255684" lon="11.827710047890402"><ele>247.0</ele><time>2026-04-19T12:59:51.001Z</time></trkpt><trkpt lat="43.22789981969365" lon="11.82776086718797"><ele>247.0</ele><time>2026-04-19T12:59:52.001Z</time></trkpt><trkpt lat="43.22803547595938" lon="11.827801581823657"><ele>247.0</ele><time>2026-04-19T12:59:53.001Z</time></trkpt><trkpt lat="43.22816668751606" lon="11.827844992042673"><ele>247.0</ele><time>2026-04-19T12:59:54.001Z</time></trkpt><trkpt lat="43.22829988319164" lon="11.827884828949982"><ele>246.66666666666666</ele><time>2026-04-19T12:59:55.001Z</time></trkpt><trkpt lat="43.22844443806178" lon="11.82792879743226"><ele>246.33333333333331</ele><time>2026-04-19T12:59:56.001Z</time></trkpt><trkpt lat="43.22859854042563" lon="11.827983267503503"><ele>246.0</ele><time>2026-04-19T12:59:57.001Z</time></trkpt><trkpt lat="43.228760521706484" lon="11.828038050334435"><ele>246.0</ele><time>2026-04-19T12:59:58.001Z</time></trkpt><trkpt lat="43.228921819019334" lon="11.82809073501508"><ele>246.0</ele><time>2026-04-19T12:59:59.001Z</time></trkpt><trkpt lat="43.22907436863273" lon="11.82814264268033"><ele>246.0</ele><time>2026-04-19T13:00:00.001Z</time></trkpt><trkpt lat="43.229226455051325" lon="11.828190980685202"><ele>246.33333333333331</ele><time>2026-04-19T13:00:01.001Z</time></trkpt><trkpt lat="43.229376198072835" lon="11.828241498173883"><ele>246.66666666666666</ele><time>2026-04-19T13:00:02.001Z</time></trkpt><trkpt lat="43.229529592618476" lon="11.828294376897109"><ele>247.0</ele><time>2026-04-19T13:00:03.001Z</time></trkpt><trkpt lat="43.22969305376287" lon="11.828344805844246"><ele>246.75</ele><time>2026-04-19T13:00:04.001Z</time></trkpt><trkpt lat="43.22983921513669" lon="11.828380872202803"><ele>246.5</ele><time>2026-04-19T13:00:05.001Z</time></trkpt><trkpt lat="43.2299734386812" lon="11.828408109728471"><ele>246.25</ele><time>2026-04-19T13:00:06.001Z</time></trkpt><trkpt lat="43.23008825196805" lon="11.82842920587118"><ele>246.0</ele><time>2026-04-19T13:00:07.001Z</time></trkpt><trkpt lat="43.230189043153196" lon="11.828446035494386"><ele>246.0</ele><time>2026-04-19T13:00:08.001Z</time></trkpt><trkpt lat="43.23028948496502" lon="11.828468210029348"><ele>246.0</ele><time>2026-04-19T13:00:09.001Z</time></trkpt><trkpt lat="43.23039793894295" lon="11.828516353032205"><ele>246.0</ele><time>2026-04-19T13:00:10.001Z</time></trkpt><trkpt lat="43.23052296462405" lon="11.828587242254185"><ele>246.0</ele><time>2026-04-19T13:00:11.001Z</time></trkpt><trkpt lat="43.230657076668884" lon="11.828665860269359"><ele>246.0</ele><time>2026-04-19T13:00:12.001Z</time></trkpt><trkpt lat="43.230805010749975" lon="11.82874319110871"><ele>246.0</ele><time>2026-04-19T13:00:13.001Z</time></trkpt><trkpt lat="43.230963541869656" lon="11.828810936638511"><ele>246.0</ele><time>2026-04-19T13:00:14.001Z</time></trkpt><trkpt lat="43.23113613731181" lon="11.828875846487653"><ele>246.0</ele><time>2026-04-19T13:00:15.001Z</time></trkpt><trkpt lat="43.23130759103375" lon="11.828925349709966"><ele>246.0</ele><time>2026-04-19T13:00:16.001Z</time></trkpt><trkpt lat="43.23147323024517" lon="11.82897859940747"><ele>246.0</ele><time>2026-04-19T13:00:17.001Z</time></trkpt><trkpt lat="43.23164488096828" lon="11.829041339746922"><ele>246.66666666666669</ele><time>2026-04-19T13:00:18.001Z</time></trkpt><trkpt lat="43.23181091741868" lon="11.829100024251165"><ele>247.33333333333334</ele><time>2026-04-19T13:00:19.001Z</time></trkpt><trkpt lat="43.23198560775709" lon="11.829161812532744"><ele>248.0</ele><time>2026-04-19T13:00:20.001Z</time></trkpt><trkpt lat="43.232162407599354" lon="11.82922271074785"><ele>247.66666666666669</ele><time>2026-04-19T13:00:21.001Z</time></trkpt><trkpt lat="43.23234247756644" lon="11.829286584533655"><ele>247.33333333333331</ele><time>2026-04-19T13:00:22.001Z</time></trkpt><trkpt lat="43.23252588631033" lon="11.829352058495079"><ele>247.0</ele><time>2026-04-19T13:00:23.001Z</time></trkpt><trkpt lat="43.232705142463416" lon="11.82940999997633"><ele>247.0</ele><time>2026-04-19T13:00:24.001Z</time></trkpt><trkpt lat="43.2328754252623" lon="11.829490281196593"><ele>247.0</ele><time>2026-04-19T13:00:25.001Z</time></trkpt><trkpt lat="43.23302743373955" lon="11.82954245583865"><ele>247.0</ele><time>2026-04-19T13:00:26.001Z</time></trkpt><trkpt lat="43.23318730129216" lon="11.829597349342064"><ele>246.33333333333331</ele><time>2026-04-19T13:00:27.001Z</time></trkpt><trkpt lat="43.233364895254404" lon="11.829657475325488"><ele>245.66666666666669</ele><time>2026-04-19T13:00:28.001Z</time></trkpt><trkpt lat="43.23354949317864" lon="11.829719972578557"><ele>245.0</ele><time>2026-04-19T13:00:29.001Z</time></trkpt><trkpt lat="43.23374995686998" lon="11.829786146281002"><ele>245.33333333333334</ele><time>2026-04-19T13:00:30.001Z</time></trkpt><trkpt lat="43.233974366772166" lon="11.829858266887879"><ele>245.66666666666669</ele><time>2026-04-19T13:00:31.001Z</time></trkpt><trkpt lat="43.23418250871709" lon="11.829902228495227"><ele>246.0</ele><time>2026-04-19T13:00:32.001Z</time></trkpt><trkpt lat="43.234367014434405" lon="11.829985078578412"><ele>246.0</ele><time>2026-04-19T13:00:33.001Z</time></trkpt><trkpt lat="43.23454541099694" lon="11.830044027573457"><ele>246.0</ele><time>2026-04-19T13:00:34.001Z</time></trkpt><trkpt lat="43.23471968733669" lon="11.830101615071644"><ele>246.0</ele><time>2026-04-19T13:00:35.001Z</time></trkpt><trkpt lat="43.234899299170685" lon="11.830160965624527"><ele>245.66666666666669</ele><time>2026-04-19T13:00:36.001Z</time></trkpt><trkpt lat="43.23507646561924" lon="11.830219508134332"><ele>245.33333333333334</ele><time>2026-04-19T13:00:37.001Z</time></trkpt><trkpt lat="43.235250708870204" lon="11.830275980156392"><ele>245.0</ele><time>2026-04-19T13:00:38.001Z</time></trkpt><trkpt lat="43.23542512899028" lon="11.830331896013822"><ele>245.0</ele><time>2026-04-19T13:00:39.001Z</time></trkpt><trkpt lat="43.23558965932053" lon="11.830384641398396"><ele>245.0</ele><time>2026-04-19T13:00:40.001Z</time></trkpt><trkpt lat="43.235741522943094" lon="11.83041521097697"><ele>245.0</ele><time>2026-04-19T13:00:41.001Z</time></trkpt><trkpt lat="43.23588133338026" lon="11.830461993811857"><ele>245.25</ele><time>2026-04-19T13:00:42.001Z</time></trkpt><trkpt lat="43.23601033661512" lon="11.830524087036984"><ele>245.5</ele><time>2026-04-19T13:00:43.001Z</time></trkpt><trkpt lat="43.23613618652432" lon="11.830566085712006"><ele>245.75</ele><time>2026-04-19T13:00:44.001Z</time></trkpt><trkpt lat="43.23626297914891" lon="11.830608398989428"><ele>246.0</ele><time>2026-04-19T13:00:45.001Z</time></trkpt><trkpt lat="43.23639607020392" lon="11.830624365842738"><ele>246.20000000000002</ele><time>2026-04-19T13:00:46.001Z</time></trkpt><trkpt lat="43.2365258097412" lon="11.830666858060543"><ele>246.40000000000003</ele><time>2026-04-19T13:00:47.001Z</time></trkpt><trkpt lat="43.23664523576762" lon="11.830692040227216"><ele>246.6</ele><time>2026-04-19T13:00:48.001Z</time></trkpt><trkpt lat="43.236745402905285" lon="11.83070821831028"><ele>246.8</ele><time>2026-04-19T13:00:49.001Z</time></trkpt><trkpt lat="43.23683142660091" lon="11.830723790211374"><ele>247.0</ele><time>2026-04-19T13:00:50.001Z</time></trkpt><trkpt lat="43.236905154212046" lon="11.830734262233598"><ele>247.0</ele><time>2026-04-19T13:00:51.001Z</time></trkpt><trkpt lat="43.23699892782493" lon="11.83075038179997"><ele>247.0</ele><time>2026-04-19T13:00:53.001Z</time></trkpt><trkpt lat="43.23708489408593" lon="11.830783408190031"><ele>247.0</ele><time>2026-04-19T13:01:06.001Z</time></trkpt><trkpt lat="43.23721907811205" lon="11.830817547017881"><ele>247.0</ele><time>2026-04-19T13:01:08.001Z</time></trkpt><trkpt lat="43.23729732310099" lon="11.830878581744448"><ele>247.0</ele><time>2026-04-19T13:01:09Z</time></trkpt><trkpt lat="43.237409379537155" lon="11.830936524442087"><ele>246.66666666666666</ele><time>2026-04-19T13:01:10Z</time></trkpt><trkpt lat="43.23755986049497" lon="11.830995563806542"><ele>246.33333333333331</ele><time>2026-04-19T13:01:11Z</time></trkpt><trkpt lat="43.23771958607257" lon="11.831035084383103"><ele>246.0</ele><time>2026-04-19T13:01:12Z</time></trkpt><trkpt lat="43.237877177964144" lon="11.831110381510879"><ele>246.0</ele><time>2026-04-19T13:01:13Z</time></trkpt><trkpt lat="43.23805306635719" lon="11.831150250752486"><ele>246.0</ele><time>2026-04-19T13:01:14Z</time></trkpt><trkpt lat="43.23823534249676" lon="11.831213192706764"><ele>246.0</ele><time>2026-04-19T13:01:15Z</time></trkpt><trkpt lat="43.23840806420332" lon="11.831270852335672"><ele>245.66666666666669</ele><time>2026-04-19T13:01:16Z</time></trkpt><trkpt lat="43.23857214571592" lon="11.831348096637612"><ele>245.33333333333334</ele><time>2026-04-19T13:01:17Z</time></trkpt><trkpt lat="43.238748065506826" lon="11.831407105704647"><ele>245.0</ele><time>2026-04-19T13:01:18Z</time></trkpt><trkpt lat="43.23892845842942" lon="11.831444106797653"><ele>245.66666666666669</ele><time>2026-04-19T13:01:19Z</time></trkpt><trkpt lat="43.23910558658295" lon="11.831520573006038"><ele>246.33333333333331</ele><time>2026-04-19T13:01:20Z</time></trkpt><trkpt lat="43.2392892243199" lon="11.831584948506768"><ele>247.0</ele><time>2026-04-19T13:01:21Z</time></trkpt><trkpt lat="43.23947772450692" lon="11.831641685190691"><ele>247.0</ele><time>2026-04-19T13:01:22Z</time></trkpt><trkpt lat="43.239662379602365" lon="11.831698620278614"><ele>247.0</ele><time>2026-04-19T13:01:23Z</time></trkpt><trkpt lat="43.239858273369684" lon="11.831753580196603"><ele>247.0</ele><time>2026-04-19T13:01:24Z</time></trkpt><trkpt lat="43.240042964252204" lon="11.831812197169619"><ele>246.66666666666666</ele><time>2026-04-19T13:01:25Z</time></trkpt><trkpt lat="43.24023813322682" lon="11.831868340674356"><ele>246.33333333333331</ele><time>2026-04-19T13:01:26Z</time></trkpt><trkpt lat="43.24043061862533" lon="11.831919746501146"><ele>246.0</ele><time>2026-04-19T13:01:27Z</time></trkpt><trkpt lat="43.24062092132576" lon="11.831961625102592"><ele>246.33333333333331</ele><time>2026-04-19T13:01:28Z</time></trkpt><trkpt lat="43.240817041923734" lon="11.832017510427821"><ele>246.66666666666666</ele><time>2026-04-19T13:01:29Z</time></trkpt><trkpt lat="43.241009310008195" lon="11.832075470832262"><ele>247.0</ele><time>2026-04-19T13:01:30Z</time></trkpt><trkpt lat="43.241206371587" lon="11.832132322754104"><ele>247.0</ele><time>2026-04-19T13:01:31Z</time></trkpt><trkpt lat="43.24139470429142" lon="11.832180776840435"><ele>247.0</ele><time>2026-04-19T13:01:32Z</time></trkpt><trkpt lat="43.24158651791208" lon="11.832231635551194"><ele>247.0</ele><time>2026-04-19T13:01:33Z</time></trkpt><trkpt lat="43.24176832265257" lon="11.832304202313459"><ele>247.0</ele><time>2026-04-19T13:01:34.001Z</time></trkpt><trkpt lat="43.241960477227884" lon="11.832358974682341"><ele>247.0</ele><time>2026-04-19T13:01:35.001Z</time></trkpt><trkpt lat="43.242160108830284" lon="11.832394120522778"><ele>247.0</ele><time>2026-04-19T13:01:36.001Z</time></trkpt><trkpt lat="43.2423610294952" lon="11.832455425550505"><ele>247.0</ele><time>2026-04-19T13:01:37.001Z</time></trkpt><trkpt lat="43.242562479268244" lon="11.83251598185834"><ele>247.0</ele><time>2026-04-19T13:01:38.001Z</time></trkpt><trkpt lat="43.242767220917095" lon="11.832571897185899"><ele>247.0</ele><time>2026-04-19T13:01:39.001Z</time></trkpt><trkpt lat="43.24297789347279" lon="11.832634601931975"><ele>246.66666666666666</ele><time>2026-04-19T13:01:40.001Z</time></trkpt><trkpt lat="43.24318475228225" lon="11.832699032693961"><ele>246.33333333333331</ele><time>2026-04-19T13:01:41.001Z</time></trkpt><trkpt lat="43.24338542699934" lon="11.832757812544182"><ele>246.0</ele><time>2026-04-19T13:01:42.001Z</time></trkpt><trkpt lat="43.243588322991734" lon="11.832803254994989"><ele>246.0</ele><time>2026-04-19T13:01:43.001Z</time></trkpt><trkpt lat="43.24379699223411" lon="11.832850151917194"><ele>246.0</ele><time>2026-04-19T13:01:44.001Z</time></trkpt><trkpt lat="43.2440089948161" lon="11.832909517865039"><ele>246.0</ele><time>2026-04-19T13:01:45.001Z</time></trkpt><trkpt lat="43.244201091092684" lon="11.832971890172148"><ele>246.0</ele><time>2026-04-19T13:01:46.001Z</time></trkpt><trkpt lat="43.2443807868613" lon="11.833023322577334"><ele>246.0</ele><time>2026-04-19T13:01:47.001Z</time></trkpt><trkpt lat="43.244559609686" lon="11.833073492722265"><ele>246.0</ele><time>2026-04-19T13:01:48.001Z</time></trkpt><trkpt lat="43.24473136099824" lon="11.833121203458553"><ele>246.0</ele><time>2026-04-19T13:01:49.001Z</time></trkpt><trkpt lat="43.24490613680855" lon="11.833187239908616"><ele>246.0</ele><time>2026-04-19T13:01:50.001Z</time></trkpt><trkpt lat="43.245093430947634" lon="11.833234200014132"><ele>246.0</ele><time>2026-04-19T13:01:51.001Z</time></trkpt><trkpt lat="43.245279083035456" lon="11.833284352621664"><ele>246.0</ele><time>2026-04-19T13:01:52.001Z</time></trkpt><trkpt lat="43.24546173055805" lon="11.833338506163606"><ele>246.0</ele><time>2026-04-19T13:01:53.001Z</time></trkpt><trkpt lat="43.24565073972214" lon="11.833371855003026"><ele>246.0</ele><time>2026-04-19T13:01:54.001Z</time></trkpt><trkpt lat="43.245834873298776" lon="11.833446967790787"><ele>246.0</ele><time>2026-04-19T13:01:55.001Z</time></trkpt><trkpt lat="43.24602183838485" lon="11.833498380467427"><ele>246.0</ele><time>2026-04-19T13:01:56.001Z</time></trkpt><trkpt lat="43.24620899900616" lon="11.833547850234506"><ele>246.0</ele><time>2026-04-19T13:01:57.001Z</time></trkpt><trkpt lat="43.246399095160605" lon="11.833577401370516"><ele>246.0</ele><time>2026-04-19T13:01:58.001Z</time></trkpt><trkpt lat="43.2465872610507" lon="11.83362649316188"><ele>246.0</ele><time>2026-04-19T13:01:59.001Z</time></trkpt><trkpt lat="43.246778082306484" lon="11.833667750268688"><ele>246.0</ele><time>2026-04-19T13:02:00.001Z</time></trkpt><trkpt lat="43.24696491085459" lon="11.833711863897491"><ele>246.0</ele><time>2026-04-19T13:02:01.001Z</time></trkpt><trkpt lat="43.24714355167969" lon="11.833752833592632"><ele>246.0</ele><time>2026-04-19T13:02:02.001Z</time></trkpt><trkpt lat="43.2473303254186" lon="11.83379064288568"><ele>246.0</ele><time>2026-04-19T13:02:03.001Z</time></trkpt><trkpt lat="43.247532552760454" lon="11.833814919692818"><ele>246.0</ele><time>2026-04-19T13:02:04.001Z</time></trkpt><trkpt lat="43.24774682822546" lon="11.833835653888785"><ele>246.0</ele><time>2026-04-19T13:02:05.001Z</time></trkpt><trkpt lat="43.2479612448912" lon="11.833858708246604"><ele>246.0</ele><time>2026-04-19T13:02:06.001Z</time></trkpt><trkpt lat="43.24817991096147" lon="11.833885869915866"><ele>246.0</ele><time>2026-04-19T13:02:07.001Z</time></trkpt><trkpt lat="43.24839466934624" lon="11.833912040097731"><ele>246.0</ele><time>2026-04-19T13:02:08.001Z</time></trkpt><trkpt lat="43.24860357663813" lon="11.833927132207263"><ele>246.0</ele><time>2026-04-19T13:02:09.001Z</time></trkpt><trkpt lat="43.248816758572154" lon="11.833951118921277"><ele>245.66666666666669</ele><time>2026-04-19T13:02:10.001Z</time></trkpt><trkpt lat="43.2490177307738" lon="11.833974781295478"><ele>245.33333333333334</ele><time>2026-04-19T13:02:11.001Z</time></trkpt><trkpt lat="43.24920384771528" lon="11.833992851716465"><ele>245.0</ele><time>2026-04-19T13:02:12.001Z</time></trkpt><trkpt lat="43.24939522911152" lon="11.834015804968313"><ele>245.0</ele><time>2026-04-19T13:02:13.001Z</time></trkpt><trkpt lat="43.24958625417873" lon="11.834039929371261"><ele>245.0</ele><time>2026-04-19T13:02:14.001Z</time></trkpt><trkpt lat="43.24977676120477" lon="11.83405945000418"><ele>245.0</ele><time>2026-04-19T13:02:15.001Z</time></trkpt><trkpt lat="43.249963987045696" lon="11.83408248039911"><ele>245.33333333333334</ele><time>2026-04-19T13:02:16.001Z</time></trkpt><trkpt lat="43.25015140100845" lon="11.834103536452602"><ele>245.66666666666669</ele><time>2026-04-19T13:02:17.001Z</time></trkpt><trkpt lat="43.25033825322138" lon="11.834127706220347"><ele>246.0</ele><time>2026-04-19T13:02:18.001Z</time></trkpt><trkpt lat="43.250526184624086" lon="11.834153324858683"><ele>246.33333333333331</ele><time>2026-04-19T13:02:19.001Z</time></trkpt><trkpt lat="43.250716874934845" lon="11.834178144726872"><ele>246.66666666666666</ele><time>2026-04-19T13:02:20.001Z</time></trkpt><trkpt lat="43.2509084511016" lon="11.834200915740125"><ele>247.0</ele><time>2026-04-19T13:02:21.001Z</time></trkpt><trkpt lat="43.251096168448996" lon="11.834220315146858"><ele>247.0</ele><time>2026-04-19T13:02:22.001Z</time></trkpt><trkpt lat="43.25128731205804" lon="11.834236033045832"><ele>247.0</ele><time>2026-04-19T13:02:23.001Z</time></trkpt><trkpt lat="43.251486223716626" lon="11.834256583849992"><ele>247.0</ele><time>2026-04-19T13:02:24.001Z</time></trkpt><trkpt lat="43.2516822259491" lon="11.834283085621804"><ele>246.33333333333331</ele><time>2026-04-19T13:02:25.001Z</time></trkpt><trkpt lat="43.251871988821954" lon="11.834308417654148"><ele>245.66666666666669</ele><time>2026-04-19T13:02:26.001Z</time></trkpt><trkpt lat="43.252044727482954" lon="11.83432525438656"><ele>245.0</ele><time>2026-04-19T13:02:27.001Z</time></trkpt><trkpt lat="43.25221373302312" lon="11.834343452630716"><ele>245.33333333333334</ele><time>2026-04-19T13:02:28.001Z</time></trkpt><trkpt lat="43.25238862077612" lon="11.834360204014732"><ele>245.66666666666669</ele><time>2026-04-19T13:02:29.001Z</time></trkpt><trkpt lat="43.252561182226124" lon="11.834378496119701"><ele>246.0</ele><time>2026-04-19T13:02:30.001Z</time></trkpt><trkpt lat="43.25273512431886" lon="11.834420572980886"><ele>246.0</ele><time>2026-04-19T13:02:31.001Z</time></trkpt><trkpt lat="43.252903012271105" lon="11.83444337246148"><ele>246.0</ele><time>2026-04-19T13:02:32.001Z</time></trkpt><trkpt lat="43.253050344716" lon="11.834466779163794"><ele>246.0</ele><time>2026-04-19T13:02:33.001Z</time></trkpt><trkpt lat="43.25319280264654" lon="11.83446838347339"><ele>245.66666666666669</ele><time>2026-04-19T13:02:34.001Z</time></trkpt><trkpt lat="43.25336299785038" lon="11.834496129332289"><ele>245.33333333333334</ele><time>2026-04-19T13:02:35.001Z</time></trkpt><trkpt lat="43.253556117987046" lon="11.83452273109813"><ele>245.0</ele><time>2026-04-19T13:02:36.001Z</time></trkpt><trkpt lat="43.25374729755164" lon="11.83454384037228"><ele>246.0</ele><time>2026-04-19T13:02:37.001Z</time></trkpt><trkpt lat="43.25397332664574" lon="11.834563235781513"><ele>247.0</ele><time>2026-04-19T13:02:38.001Z</time></trkpt><trkpt lat="43.25422579588173" lon="11.83460873507548"><ele>247.0</ele><time>2026-04-19T13:02:39.001Z</time></trkpt><trkpt lat="43.25449947674933" lon="11.8346135155558"><ele>247.0</ele><time>2026-04-19T13:02:40.001Z</time></trkpt><trkpt lat="43.25474957196483" lon="11.834649321674313"><ele>247.5</ele><time>2026-04-19T13:02:41.001Z</time></trkpt><trkpt lat="43.25498910006927" lon="11.834679688456067"><ele>248.0</ele><time>2026-04-19T13:02:42.001Z</time></trkpt><trkpt lat="43.25521489077416" lon="11.834691750744346"><ele>248.0</ele><time>2026-04-19T13:02:43.001Z</time></trkpt><trkpt lat="43.25543034399845" lon="11.834710241690672"><ele>248.0</ele><time>2026-04-19T13:02:44.001Z</time></trkpt><trkpt lat="43.25565199302792" lon="11.834730450729587"><ele>248.0</ele><time>2026-04-19T13:02:45.001Z</time></trkpt><trkpt lat="43.255875626561114" lon="11.834747152914113"><ele>247.33333333333334</ele><time>2026-04-19T13:02:46.001Z</time></trkpt><trkpt lat="43.25608337928437" lon="11.834777482074902"><ele>246.66666666666669</ele><time>2026-04-19T13:02:47.001Z</time></trkpt><trkpt lat="43.25631287240789" lon="11.834813386312124"><ele>246.0</ele><time>2026-04-19T13:02:48.001Z</time></trkpt><trkpt lat="43.25654616177111" lon="11.834836929973198"><ele>246.0</ele><time>2026-04-19T13:02:49.001Z</time></trkpt><trkpt lat="43.25672711244507" lon="11.834846217210172"><ele>246.0</ele><time>2026-04-19T13:02:50.001Z</time></trkpt><trkpt lat="43.25694368032644" lon="11.834867310771783"><ele>246.0</ele><time>2026-04-19T13:02:51.001Z</time></trkpt><trkpt lat="43.257158740214635" lon="11.834888664832974"><ele>246.0</ele><time>2026-04-19T13:02:52.001Z</time></trkpt><trkpt lat="43.25736875259168" lon="11.834911613062545"><ele>246.0</ele><time>2026-04-19T13:02:53.001Z</time></trkpt><trkpt lat="43.257565700502006" lon="11.834929139385581"><ele>246.0</ele><time>2026-04-19T13:02:54.001Z</time></trkpt><trkpt lat="43.257742836429074" lon="11.834942869633402"><ele>246.0</ele><time>2026-04-19T13:02:55.001Z</time></trkpt><trkpt lat="43.25790843965108" lon="11.834957163718398"><ele>246.0</ele><time>2026-04-19T13:02:56.001Z</time></trkpt><trkpt lat="43.25808457178866" lon="11.834975937363605"><ele>246.0</ele><time>2026-04-19T13:02:57.001Z</time></trkpt><trkpt lat="43.25826427366993" lon="11.834999070419709"><ele>246.0</ele><time>2026-04-19T13:02:58.001Z</time></trkpt><trkpt lat="43.2584466542683" lon="11.835018992292182"><ele>246.0</ele><time>2026-04-19T13:02:59.001Z</time></trkpt><trkpt lat="43.25863235302303" lon="11.835040504140736"><ele>246.0</ele><time>2026-04-19T13:03:00.001Z</time></trkpt><trkpt lat="43.25881654564542" lon="11.835058906003121"><ele>246.0</ele><time>2026-04-19T13:03:01.001Z</time></trkpt><trkpt lat="43.25900447850799" lon="11.83507807239857"><ele>246.0</ele><time>2026-04-19T13:03:02.001Z</time></trkpt><trkpt lat="43.25917630716899" lon="11.835095524321764"><ele>246.0</ele><time>2026-04-19T13:03:03.001Z</time></trkpt><trkpt lat="43.259326881916195" lon="11.835099044963526"><ele>246.0</ele><time>2026-04-19T13:03:04.001Z</time></trkpt><trkpt lat="43.25946198998217" lon="11.835132612838379"><ele>246.00000000000003</ele><time>2026-04-19T13:03:05.001Z</time></trkpt><trkpt lat="43.25958888531248" lon="11.835122615768121"><ele>246.00000000000003</ele><time>2026-04-19T13:03:06.001Z</time></trkpt><trkpt lat="43.25968818794573" lon="11.835128318173284"><ele>246.0</ele><time>2026-04-19T13:03:07.001Z</time></trkpt><trkpt lat="43.25976634745369" lon="11.835136735019809"><ele>246.0</ele><time>2026-04-19T13:03:08.001Z</time></trkpt><trkpt lat="43.25979432686698" lon="11.834926690205084"><ele>245.83333333333334</ele><time>2026-04-19T13:03:40.001Z</time></trkpt><trkpt lat="43.25979804689212" lon="11.834786242438268"><ele>245.66666666666669</ele><time>2026-04-19T13:03:42.001Z</time></trkpt><trkpt lat="43.25980268730207" lon="11.834689453803907"><ele>245.5</ele><time>2026-04-19T13:03:43.001Z</time></trkpt><trkpt lat="43.259813362898484" lon="11.834553973443018"><ele>245.33333333333334</ele><time>2026-04-19T13:03:45.001Z</time></trkpt><trkpt lat="43.25981920602018" lon="11.834464419978797"><ele>245.16666666666669</ele><time>2026-04-19T13:03:47.001Z</time></trkpt><trkpt lat="43.259811604837324" lon="11.834365719535363"><ele>245.0</ele><time>2026-04-19T13:03:51.001Z</time></trkpt><trkpt lat="43.259818101214236" lon="11.834465009842997"><ele>245.00000000000003</ele><time>2026-04-19T13:04:28.001Z</time></trkpt><trkpt lat="43.25980774886574" lon="11.834586754947866"><ele>245.0</ele><time>2026-04-19T13:04:29.001Z</time></trkpt><trkpt lat="43.25980449346638" lon="11.834707958937171"><ele>245.0</ele><time>2026-04-19T13:04:30.001Z</time></trkpt><trkpt lat="43.25979785564625" lon="11.83479648076618"><ele>245.0</ele><time>2026-04-19T13:04:31.001Z</time></trkpt><trkpt lat="43.25979745417136" lon="11.834905169912775"><ele>245.00000000000003</ele><time>2026-04-19T13:04:33.001Z</time></trkpt><trkpt lat="43.25979399126223" lon="11.834996420783812"><ele>245.0</ele><time>2026-04-19T13:05:50.001Z</time></trkpt><trkpt lat="43.25978341982552" lon="11.835087510859452"><ele>245.00000000000003</ele><time>2026-04-19T13:05:58.001Z</time></trkpt><trkpt lat="43.25989724407417" lon="11.835131156150528"><ele>245.0</ele><time>2026-04-19T13:06:37.001Z</time></trkpt><trkpt lat="43.25997544694519" lon="11.835145040518707"><ele>245.0</ele><time>2026-04-19T13:06:38.001Z</time></trkpt><trkpt lat="43.2600507988899" lon="11.835156036376317"><ele>245.0</ele><time>2026-04-19T13:06:39.001Z</time></trkpt><trkpt lat="43.26012237527008" lon="11.835196349001578"><ele>245.00000000000003</ele><time>2026-04-19T13:06:40.001Z</time></trkpt><trkpt lat="43.26021163923934" lon="11.835190805398536"><ele>245.0</ele><time>2026-04-19T13:06:41.001Z</time></trkpt><trkpt lat="43.26032888975994" lon="11.8351898805475"><ele>245.25</ele><time>2026-04-19T13:06:42.001Z</time></trkpt><trkpt lat="43.26044767203076" lon="11.835220164074311"><ele>245.5</ele><time>2026-04-19T13:06:43.001Z</time></trkpt><trkpt lat="43.260574519754314" lon="11.835231482441763"><ele>245.75</ele><time>2026-04-19T13:06:44.001Z</time></trkpt><trkpt lat="43.260710790902806" lon="11.835244847723182"><ele>246.0</ele><time>2026-04-19T13:06:45.001Z</time></trkpt><trkpt lat="43.260855537996314" lon="11.835244351816655"><ele>246.0</ele><time>2026-04-19T13:06:46.001Z</time></trkpt><trkpt lat="43.26099622705453" lon="11.83525872071569"><ele>246.0</ele><time>2026-04-19T13:06:47.001Z</time></trkpt><trkpt lat="43.261135472958344" lon="11.835269822429076"><ele>246.0</ele><time>2026-04-19T13:06:48.001Z</time></trkpt><trkpt lat="43.26126119239883" lon="11.835281833096118"><ele>246.0</ele><time>2026-04-19T13:06:49.001Z</time></trkpt><trkpt lat="43.261383893350846" lon="11.835307029703227"><ele>245.75</ele><time>2026-04-19T13:06:50.001Z</time></trkpt><trkpt lat="43.261523954342614" lon="11.835324763516622"><ele>245.5</ele><time>2026-04-19T13:06:51.001Z</time></trkpt><trkpt lat="43.26166343796321" lon="11.835335195701745"><ele>245.25</ele><time>2026-04-19T13:06:52.001Z</time></trkpt><trkpt lat="43.26179674149984" lon="11.835367686420938"><ele>245.0</ele><time>2026-04-19T13:06:53.001Z</time></trkpt><trkpt lat="43.26193235723522" lon="11.835381960049167"><ele>245.0</ele><time>2026-04-19T13:06:54.001Z</time></trkpt><trkpt lat="43.26206711718714" lon="11.835396143610346"><ele>245.0</ele><time>2026-04-19T13:06:55.001Z</time></trkpt><trkpt lat="43.26220153949677" lon="11.83539030029534"><ele>245.0</ele><time>2026-04-19T13:06:56.001Z</time></trkpt><trkpt lat="43.26233432668494" lon="11.83541059882344"><ele>245.0</ele><time>2026-04-19T13:06:57.001Z</time></trkpt><trkpt lat="43.262465673090304" lon="11.835421390514005"><ele>244.75</ele><time>2026-04-19T13:06:58.001Z</time></trkpt><trkpt lat="43.26259322215066" lon="11.835434909270928"><ele>244.5</ele><time>2026-04-19T13:06:59.001Z</time></trkpt><trkpt lat="43.26272604630351" lon="11.83545224503099"><ele>244.25</ele><time>2026-04-19T13:07:00.001Z</time></trkpt><trkpt lat="43.26285075021131" lon="11.835465374688578"><ele>244.0</ele><time>2026-04-19T13:07:01.001Z</time></trkpt><trkpt lat="43.26297993110882" lon="11.835492217778631"><ele>244.0</ele><time>2026-04-19T13:07:02.001Z</time></trkpt><trkpt lat="43.26311021512054" lon="11.835505930244656"><ele>244.0</ele><time>2026-04-19T13:07:03.001Z</time></trkpt><trkpt lat="43.26324389938976" lon="11.835499339877972"><ele>244.0</ele><time>2026-04-19T13:07:04.001Z</time></trkpt><trkpt lat="43.263379520878196" lon="11.835534274819091"><ele>244.0</ele><time>2026-04-19T13:07:05.001Z</time></trkpt><trkpt lat="43.26351813426563" lon="11.835549036177989"><ele>244.25</ele><time>2026-04-19T13:07:06.001Z</time></trkpt><trkpt lat="43.26365494241572" lon="11.835549165620426"><ele>244.5</ele><time>2026-04-19T13:07:07.001Z</time></trkpt><trkpt lat="43.263798764089735" lon="11.835562074055591"><ele>244.75</ele><time>2026-04-19T13:07:08.001Z</time></trkpt><trkpt lat="43.26393982598245" lon="11.83557514967308"><ele>245.0</ele><time>2026-04-19T13:07:09.001Z</time></trkpt><trkpt lat="43.26408221524389" lon="11.835587610552306"><ele>245.0</ele><time>2026-04-19T13:07:10.001Z</time></trkpt><trkpt lat="43.26423418459706" lon="11.83560732528072"><ele>245.0</ele><time>2026-04-19T13:07:11.001Z</time></trkpt><trkpt lat="43.26438383369483" lon="11.835630836523816"><ele>245.0</ele><time>2026-04-19T13:07:12.001Z</time></trkpt><trkpt lat="43.26453931868331" lon="11.835651020270594"><ele>245.0</ele><time>2026-04-19T13:07:13.001Z</time></trkpt><trkpt lat="43.26468484306849" lon="11.835668617988404"><ele>245.0</ele><time>2026-04-19T13:07:14.001Z</time></trkpt><trkpt lat="43.2648260745541" lon="11.835681210579036"><ele>245.0</ele><time>2026-04-19T13:07:15.001Z</time></trkpt><trkpt lat="43.264976573625034" lon="11.835692774721597"><ele>245.0</ele><time>2026-04-19T13:07:16.001Z</time></trkpt><trkpt lat="43.265134027226004" lon="11.835704785968128"><ele>245.25</ele><time>2026-04-19T13:07:17.001Z</time></trkpt><trkpt lat="43.265272784522736" lon="11.835717698236948"><ele>245.5</ele><time>2026-04-19T13:07:18.001Z</time></trkpt><trkpt lat="43.26539676376015" lon="11.83573998277758"><ele>245.75</ele><time>2026-04-19T13:07:19.001Z</time></trkpt><trkpt lat="43.26551102156138" lon="11.835737547804868"><ele>246.0</ele><time>2026-04-19T13:07:20.001Z</time></trkpt><trkpt lat="43.26560997241991" lon="11.835746054416505"><ele>245.83333333333334</ele><time>2026-04-19T13:07:21.001Z</time></trkpt><trkpt lat="43.26570486849783" lon="11.835782697847206"><ele>245.66666666666669</ele><time>2026-04-19T13:07:22.001Z</time></trkpt><trkpt lat="43.26579799907367" lon="11.835797041793143"><ele>245.5</ele><time>2026-04-19T13:07:23.001Z</time></trkpt><trkpt lat="43.26588403548783" lon="11.8358102930994"><ele>245.33333333333334</ele><time>2026-04-19T13:07:24.001Z</time></trkpt><trkpt lat="43.265960549416484" lon="11.835822077754008"><ele>245.16666666666669</ele><time>2026-04-19T13:07:25.001Z</time></trkpt><trkpt lat="43.26603830068668" lon="11.835810506735825"><ele>245.0</ele><time>2026-04-19T13:07:27.001Z</time></trkpt><trkpt lat="43.26612712296184" lon="11.835819487688699"><ele>245.0</ele><time>2026-04-19T13:07:41Z</time></trkpt><trkpt lat="43.26622032851001" lon="11.83582987519404"><ele>245.0</ele><time>2026-04-19T13:07:42Z</time></trkpt><trkpt lat="43.266309914610815" lon="11.835837699897509"><ele>245.0</ele><time>2026-04-19T13:07:43Z</time></trkpt><trkpt lat="43.266408540323766" lon="11.835845390890793"><ele>245.0</ele><time>2026-04-19T13:07:44Z</time></trkpt><trkpt lat="43.266526196220234" lon="11.835857488619155"><ele>245.0</ele><time>2026-04-19T13:07:45Z</time></trkpt><trkpt lat="43.26664265389" lon="11.83586438713639"><ele>244.75</ele><time>2026-04-19T13:07:46Z</time></trkpt><trkpt lat="43.266754493034185" lon="11.83587709984823"><ele>244.5</ele><time>2026-04-19T13:07:47Z</time></trkpt><trkpt lat="43.266875470097446" lon="11.83589302240375"><ele>244.25</ele><time>2026-04-19T13:07:48.001Z</time></trkpt><trkpt lat="43.267007696914796" lon="11.835910666547454"><ele>244.0</ele><time>2026-04-19T13:07:49.001Z</time></trkpt><trkpt lat="43.2671451547125" lon="11.835926008708643"><ele>244.0</ele><time>2026-04-19T13:07:50.001Z</time></trkpt><trkpt lat="43.26728312534735" lon="11.835943567724449"><ele>244.0</ele><time>2026-04-19T13:07:51.001Z</time></trkpt><trkpt lat="43.26741831707827" lon="11.83596348556065"><ele>244.0</ele><time>2026-04-19T13:07:52.001Z</time></trkpt><trkpt lat="43.267565355350925" lon="11.835981212139231"><ele>244.0</ele><time>2026-04-19T13:07:53.001Z</time></trkpt><trkpt lat="43.26771411663788" lon="11.835990850211271"><ele>244.0</ele><time>2026-04-19T13:07:54.001Z</time></trkpt><trkpt lat="43.26785626980475" lon="11.83599064841103"><ele>244.0</ele><time>2026-04-19T13:07:55.001Z</time></trkpt><trkpt lat="43.26799056159693" lon="11.835996992506825"><ele>244.0</ele><time>2026-04-19T13:07:56.001Z</time></trkpt><trkpt lat="43.26811874913873" lon="11.836002367568907"><ele>244.0</ele><time>2026-04-19T13:07:57.001Z</time></trkpt><trkpt lat="43.26824944993012" lon="11.836012810637285"><ele>244.25</ele><time>2026-04-19T13:07:58.001Z</time></trkpt><trkpt lat="43.26838900736403" lon="11.836028991431636"><ele>244.5</ele><time>2026-04-19T13:07:59.001Z</time></trkpt><trkpt lat="43.26853760908471" lon="11.836042757648684"><ele>244.75</ele><time>2026-04-19T13:08:00.001Z</time></trkpt><trkpt lat="43.26869651423228" lon="11.836058632133474"><ele>245.0</ele><time>2026-04-19T13:08:01.001Z</time></trkpt><trkpt lat="43.26886498443471" lon="11.83608100992896"><ele>245.33333333333334</ele><time>2026-04-19T13:08:02.001Z</time></trkpt><trkpt lat="43.26903451179449" lon="11.836109482823394"><ele>245.66666666666669</ele><time>2026-04-19T13:08:03.001Z</time></trkpt><trkpt lat="43.269204083103" lon="11.836132298378434"><ele>246.0</ele><time>2026-04-19T13:08:04.001Z</time></trkpt><trkpt lat="43.26939934254641" lon="11.836161660876016"><ele>246.0</ele><time>2026-04-19T13:08:05.001Z</time></trkpt><trkpt lat="43.269603434132016" lon="11.836188130545112"><ele>246.0</ele><time>2026-04-19T13:08:06.001Z</time></trkpt><trkpt lat="43.26976860708003" lon="11.836197460859346"><ele>246.0</ele><time>2026-04-19T13:08:07.001Z</time></trkpt><trkpt lat="43.269933881165926" lon="11.836203230551636"><ele>245.33333333333331</ele><time>2026-04-19T13:08:08.001Z</time></trkpt><trkpt lat="43.270093815636955" lon="11.836203388547634"><ele>244.66666666666666</ele><time>2026-04-19T13:08:09.001Z</time></trkpt><trkpt lat="43.270259654553456" lon="11.836217971582116"><ele>244.0</ele><time>2026-04-19T13:08:10.001Z</time></trkpt><trkpt lat="43.27040370593513" lon="11.836236991809093"><ele>244.0</ele><time>2026-04-19T13:08:11.001Z</time></trkpt><trkpt lat="43.270533998617246" lon="11.836251410022903"><ele>244.0</ele><time>2026-04-19T13:08:12.001Z</time></trkpt><trkpt lat="43.2706529799086" lon="11.836263777232531"><ele>244.0</ele><time>2026-04-19T13:08:13.001Z</time></trkpt><trkpt lat="43.27076803660507" lon="11.836279456653514"><ele>244.0</ele><time>2026-04-19T13:08:14.001Z</time></trkpt><trkpt lat="43.27086732111926" lon="11.83629063129418"><ele>243.75</ele><time>2026-04-19T13:08:15.001Z</time></trkpt><trkpt lat="43.27097294327145" lon="11.836296565202042"><ele>243.5</ele><time>2026-04-19T13:08:16.001Z</time></trkpt><trkpt lat="43.27108549409505" lon="11.836308233878732"><ele>243.25</ele><time>2026-04-19T13:08:17.001Z</time></trkpt><trkpt lat="43.27120560201999" lon="11.836318923831582"><ele>243.0</ele><time>2026-04-19T13:08:18.001Z</time></trkpt><trkpt lat="43.27134591029452" lon="11.83633763637202"><ele>243.0</ele><time>2026-04-19T13:08:19.001Z</time></trkpt><trkpt lat="43.27149735980645" lon="11.836369980831568"><ele>243.0</ele><time>2026-04-19T13:08:20.001Z</time></trkpt><trkpt lat="43.271653500145334" lon="11.836391903792066"><ele>243.0</ele><time>2026-04-19T13:08:21.001Z</time></trkpt><trkpt lat="43.27180162750082" lon="11.836403317279787"><ele>243.0</ele><time>2026-04-19T13:08:22.001Z</time></trkpt><trkpt lat="43.27193199466233" lon="11.836417542699284"><ele>243.0</ele><time>2026-04-19T13:08:23.001Z</time></trkpt><trkpt lat="43.272057480788696" lon="11.836424812828426"><ele>243.0</ele><time>2026-04-19T13:08:24.001Z</time></trkpt><trkpt lat="43.272188183398406" lon="11.836436619253776"><ele>243.0</ele><time>2026-04-19T13:08:25.001Z</time></trkpt><trkpt lat="43.27232297280008" lon="11.836449809858552"><ele>243.75</ele><time>2026-04-19T13:08:26.001Z</time></trkpt><trkpt lat="43.27246782105285" lon="11.83647233898311"><ele>244.5</ele><time>2026-04-19T13:08:27.001Z</time></trkpt><trkpt lat="43.27261414579181" lon="11.836492552433224"><ele>245.25</ele><time>2026-04-19T13:08:28.001Z</time></trkpt><trkpt lat="43.27275624127622" lon="11.83649912054024"><ele>246.0</ele><time>2026-04-19T13:08:29.001Z</time></trkpt><trkpt lat="43.272901868237" lon="11.836509075206642"><ele>246.0</ele><time>2026-04-19T13:08:30.001Z</time></trkpt><trkpt lat="43.27304026479934" lon="11.836523879601353"><ele>246.0</ele><time>2026-04-19T13:08:31.001Z</time></trkpt><trkpt lat="43.273173101122765" lon="11.83653346069165"><ele>246.0</ele><time>2026-04-19T13:08:32.001Z</time></trkpt><trkpt lat="43.27329647098274" lon="11.836546351973404"><ele>246.0</ele><time>2026-04-19T13:08:33.001Z</time></trkpt><trkpt lat="43.273412154306406" lon="11.836561153725125"><ele>245.75</ele><time>2026-04-19T13:08:34.001Z</time></trkpt><trkpt lat="43.273528597048575" lon="11.836576705077904"><ele>245.5</ele><time>2026-04-19T13:08:35.001Z</time></trkpt><trkpt lat="43.273646889266985" lon="11.836592669223117"><ele>245.25</ele><time>2026-04-19T13:08:36.001Z</time></trkpt><trkpt lat="43.27376434446585" lon="11.83660937220371"><ele>245.0</ele><time>2026-04-19T13:08:37.001Z</time></trkpt><trkpt lat="43.27389700721424" lon="11.836616985822776"><ele>245.0</ele><time>2026-04-19T13:08:38.001Z</time></trkpt><trkpt lat="43.27404248471268" lon="11.836621005459536"><ele>245.0</ele><time>2026-04-19T13:08:39.001Z</time></trkpt><trkpt lat="43.27419821948359" lon="11.836638049172096"><ele>245.0</ele><time>2026-04-19T13:08:40.001Z</time></trkpt><trkpt lat="43.27434108052254" lon="11.83665327083768"><ele>245.0</ele><time>2026-04-19T13:08:41.001Z</time></trkpt><trkpt lat="43.27447046192394" lon="11.83666101457467"><ele>245.0</ele><time>2026-04-19T13:08:42.001Z</time></trkpt><trkpt lat="43.27459645905287" lon="11.83667509140509"><ele>245.0</ele><time>2026-04-19T13:08:43.001Z</time></trkpt><trkpt lat="43.27476013761381" lon="11.836696308453977"><ele>245.0</ele><time>2026-04-19T13:08:44.001Z</time></trkpt><trkpt lat="43.27493054980141" lon="11.836716541522264"><ele>244.66666666666669</ele><time>2026-04-19T13:08:45.001Z</time></trkpt><trkpt lat="43.275106724819715" lon="11.836729575922428"><ele>244.33333333333331</ele><time>2026-04-19T13:08:46.001Z</time></trkpt><trkpt lat="43.275276191897866" lon="11.836744565082043"><ele>244.0</ele><time>2026-04-19T13:08:47.001Z</time></trkpt><trkpt lat="43.275449641277326" lon="11.836771124543676"><ele>244.0</ele><time>2026-04-19T13:08:48.001Z</time></trkpt><trkpt lat="43.27561090507288" lon="11.836794100319603"><ele>244.0</ele><time>2026-04-19T13:08:49.001Z</time></trkpt><trkpt lat="43.27575190347047" lon="11.836808499860549"><ele>244.0</ele><time>2026-04-19T13:08:50.001Z</time></trkpt><trkpt lat="43.27590441127014" lon="11.836825141371586"><ele>244.33333333333331</ele><time>2026-04-19T13:08:51.001Z</time></trkpt><trkpt lat="43.27607094351689" lon="11.836842259057471"><ele>244.66666666666669</ele><time>2026-04-19T13:08:52.001Z</time></trkpt><trkpt lat="43.27624180741881" lon="11.836854041150225"><ele>245.0</ele><time>2026-04-19T13:08:53.001Z</time></trkpt><trkpt lat="43.27640038922921" lon="11.836867886000245"><ele>244.33333333333334</ele><time>2026-04-19T13:08:54.001Z</time></trkpt><trkpt lat="43.276553082264336" lon="11.836886483475777"><ele>243.66666666666669</ele><time>2026-04-19T13:08:55.001Z</time></trkpt><trkpt lat="43.27670997373984" lon="11.836905271449456"><ele>243.0</ele><time>2026-04-19T13:08:56.001Z</time></trkpt><trkpt lat="43.27686662586709" lon="11.836925602750304"><ele>243.0</ele><time>2026-04-19T13:08:57.001Z</time></trkpt><trkpt lat="43.27701549172998" lon="11.836942701396211"><ele>243.0</ele><time>2026-04-19T13:08:58.001Z</time></trkpt><trkpt lat="43.277155923864086" lon="11.836960888207598"><ele>243.0</ele><time>2026-04-19T13:08:59.001Z</time></trkpt><trkpt lat="43.27732085188105" lon="11.836980422270532"><ele>243.0</ele><time>2026-04-19T13:09:00.001Z</time></trkpt><trkpt lat="43.27748425597907" lon="11.836996083783722"><ele>243.0</ele><time>2026-04-19T13:09:01.001Z</time></trkpt><trkpt lat="43.27764443447756" lon="11.837010924976392"><ele>243.0</ele><time>2026-04-19T13:09:02.001Z</time></trkpt><trkpt lat="43.2778058926176" lon="11.837027678105077"><ele>243.0</ele><time>2026-04-19T13:09:03.001Z</time></trkpt><trkpt lat="43.277968853505115" lon="11.837038742281612"><ele>243.0</ele><time>2026-04-19T13:09:04.001Z</time></trkpt><trkpt lat="43.278133341165265" lon="11.837056348746067"><ele>243.0</ele><time>2026-04-19T13:09:05.001Z</time></trkpt><trkpt lat="43.278300774880165" lon="11.837077806795605"><ele>243.33333333333331</ele><time>2026-04-19T13:09:06.001Z</time></trkpt><trkpt lat="43.278469146831576" lon="11.837098880199534"><ele>243.66666666666666</ele><time>2026-04-19T13:09:07.001Z</time></trkpt><trkpt lat="43.27863518846601" lon="11.837118665260338"><ele>244.0</ele><time>2026-04-19T13:09:08.001Z</time></trkpt><trkpt lat="43.27879918486295" lon="11.837130682592134"><ele>243.75</ele><time>2026-04-19T13:09:09.001Z</time></trkpt><trkpt lat="43.27896237733543" lon="11.837140540746887"><ele>243.5</ele><time>2026-04-19T13:09:10.001Z</time></trkpt><trkpt lat="43.279112765239574" lon="11.83715670823308"><ele>243.25</ele><time>2026-04-19T13:09:11.001Z</time></trkpt><trkpt lat="43.279246239570575" lon="11.8371762287814"><ele>243.0</ele><time>2026-04-19T13:09:12.001Z</time></trkpt><trkpt lat="43.27937912833819" lon="11.837188770580761"><ele>243.0</ele><time>2026-04-19T13:09:13.001Z</time></trkpt><trkpt lat="43.2795240538344" lon="11.837198183580895"><ele>243.0</ele><time>2026-04-19T13:09:14.001Z</time></trkpt><trkpt lat="43.2796691689063" lon="11.837210287160303"><ele>243.0</ele><time>2026-04-19T13:09:15.001Z</time></trkpt><trkpt lat="43.27981176674861" lon="11.837221292240157"><ele>243.0</ele><time>2026-04-19T13:09:16.001Z</time></trkpt><trkpt lat="43.27995341656798" lon="11.837225476812192"><ele>243.33333333333331</ele><time>2026-04-19T13:09:17.001Z</time></trkpt><trkpt lat="43.28011445963028" lon="11.837213248275274"><ele>243.66666666666666</ele><time>2026-04-19T13:09:18.001Z</time></trkpt><trkpt lat="43.28028260469356" lon="11.837205225889528"><ele>244.0</ele><time>2026-04-19T13:09:19.001Z</time></trkpt><trkpt lat="43.28044074099129" lon="11.837206081552774"><ele>244.0</ele><time>2026-04-19T13:09:20.001Z</time></trkpt><trkpt lat="43.280577761800764" lon="11.837211124701762"><ele>244.0</ele><time>2026-04-19T13:09:21.001Z</time></trkpt><trkpt lat="43.28070290083945" lon="11.83721251765825"><ele>244.0</ele><time>2026-04-19T13:09:22.001Z</time></trkpt><trkpt lat="43.28082812173319" lon="11.83720816199345"><ele>244.0</ele><time>2026-04-19T13:09:23.001Z</time></trkpt><trkpt lat="43.2809317697176" lon="11.837196928137939"><ele>243.99999999999997</ele><time>2026-04-19T13:09:24.001Z</time></trkpt><trkpt lat="43.28102538295035" lon="11.837183777115587"><ele>244.0</ele><time>2026-04-19T13:09:25.001Z</time></trkpt><trkpt lat="43.28109933744731" lon="11.837174743601121"><ele>244.0</ele><time>2026-04-19T13:09:26.001Z</time></trkpt><trkpt lat="43.28119693153616" lon="11.83717297977408"><ele>244.0</ele><time>2026-04-19T13:09:28Z</time></trkpt><trkpt lat="43.28126326456805" lon="11.837069853680953"><ele>243.99999999999997</ele><time>2026-04-19T13:09:39Z</time></trkpt><trkpt lat="43.28125495311116" lon="11.836963676323254"><ele>244.0</ele><time>2026-04-19T13:09:40Z</time></trkpt><trkpt lat="43.28127272586509" lon="11.836825902245437"><ele>244.25</ele><time>2026-04-19T13:09:41Z</time></trkpt><trkpt lat="43.28126943436979" lon="11.836684410136487"><ele>244.5</ele><time>2026-04-19T13:09:42Z</time></trkpt><trkpt lat="43.28126585191375" lon="11.836509816471187"><ele>244.75</ele><time>2026-04-19T13:09:43Z</time></trkpt><trkpt lat="43.28126227305012" lon="11.836327588311349"><ele>245.0</ele><time>2026-04-19T13:09:44Z</time></trkpt><trkpt lat="43.28126005874322" lon="11.836173103426981"><ele>245.00000000000003</ele><time>2026-04-19T13:09:45Z</time></trkpt><trkpt lat="43.28125803064318" lon="11.836029705365828"><ele>245.0</ele><time>2026-04-19T13:09:46Z</time></trkpt><trkpt lat="43.28125620505062" lon="11.83590019059114"><ele>245.0</ele><time>2026-04-19T13:09:47Z</time></trkpt><trkpt lat="43.28125450127285" lon="11.835779317920908"><ele>245.0</ele><time>2026-04-19T13:09:48Z</time></trkpt><trkpt lat="43.28125287365946" lon="11.835663848612901"><ele>245.00000000000003</ele><time>2026-04-19T13:09:49Z</time></trkpt><trkpt lat="43.281251578050814" lon="11.83557193300773"><ele>245.0</ele><time>2026-04-19T13:09:50Z</time></trkpt><trkpt lat="43.28123526287969" lon="11.835486158949045"><ele>244.83333333333334</ele><time>2026-04-19T13:09:51Z</time></trkpt><trkpt lat="43.28123370358583" lon="11.835338322116968"><ele>244.66666666666669</ele><time>2026-04-19T13:09:53Z</time></trkpt><trkpt lat="43.2812468026707" lon="11.835239195201332"><ele>244.5</ele><time>2026-04-19T13:09:55Z</time></trkpt><trkpt lat="43.281248116024734" lon="11.835328668237702"><ele>244.33333333333331</ele><time>2026-04-19T13:09:59Z</time></trkpt><trkpt lat="43.28124832154681" lon="11.835433452546154"><ele>244.16666666666666</ele><time>2026-04-19T13:10:00Z</time></trkpt><trkpt lat="43.281216815601226" lon="11.83557349029487"><ele>244.0</ele><time>2026-04-19T13:10:01Z</time></trkpt><trkpt lat="43.28121983861292" lon="11.835759046108297"><ele>244.0</ele><time>2026-04-19T13:10:02Z</time></trkpt><trkpt lat="43.28122050570701" lon="11.83595732250697"><ele>244.0</ele><time>2026-04-19T13:10:03Z</time></trkpt><trkpt lat="43.28122418850904" lon="11.836169612221664"><ele>244.0</ele><time>2026-04-19T13:10:04Z</time></trkpt><trkpt lat="43.28122629247884" lon="11.836406659698088"><ele>244.0</ele><time>2026-04-19T13:10:05Z</time></trkpt><trkpt lat="43.28122866425659" lon="11.836670030765454"><ele>244.0</ele><time>2026-04-19T13:10:06Z</time></trkpt><trkpt lat="43.28122984440337" lon="11.8369493343531"><ele>244.0</ele><time>2026-04-19T13:10:07Z</time></trkpt><trkpt lat="43.28124155946717" lon="11.837226019228941"><ele>244.0</ele><time>2026-04-19T13:10:08Z</time></trkpt><trkpt lat="43.28124504894527" lon="11.83751739864831"><ele>244.0</ele><time>2026-04-19T13:10:09Z</time></trkpt><trkpt lat="43.28124653500314" lon="11.837824952973182"><ele>244.0</ele><time>2026-04-19T13:10:10Z</time></trkpt><trkpt lat="43.281251274531776" lon="11.838147829993034"><ele>243.5</ele><time>2026-04-19T13:10:11Z</time></trkpt><trkpt lat="43.28125689154917" lon="11.838462256242046"><ele>243.0</ele><time>2026-04-19T13:10:12Z</time></trkpt><trkpt lat="43.28125823882164" lon="11.838766056063779"><ele>243.0</ele><time>2026-04-19T13:10:13Z</time></trkpt><trkpt lat="43.28126097824291" lon="11.839062770525898"><ele>243.0</ele><time>2026-04-19T13:10:14Z</time></trkpt><trkpt lat="43.28126469206975" lon="11.8393611448833"><ele>243.0</ele><time>2026-04-19T13:10:15Z</time></trkpt><trkpt lat="43.28127141617356" lon="11.839659039191806"><ele>243.33333333333331</ele><time>2026-04-19T13:10:16Z</time></trkpt><trkpt lat="43.281279364676315" lon="11.839961559883678"><ele>243.66666666666666</ele><time>2026-04-19T13:10:17Z</time></trkpt><trkpt lat="43.281284801852884" lon="11.840263105665077"><ele>244.0</ele><time>2026-04-19T13:10:18Z</time></trkpt><trkpt lat="43.28128952407881" lon="11.840564360100002"><ele>243.33333333333331</ele><time>2026-04-19T13:10:19Z</time></trkpt><trkpt lat="43.281295043023775" lon="11.840867572097011"><ele>242.66666666666669</ele><time>2026-04-19T13:10:20Z</time></trkpt><trkpt lat="43.28129862824806" lon="11.84117427281042"><ele>242.0</ele><time>2026-04-19T13:10:21Z</time></trkpt><trkpt lat="43.281295989189935" lon="11.841487646456628"><ele>241.5</ele><time>2026-04-19T13:10:22Z</time></trkpt><trkpt lat="43.28129361925408" lon="11.841801247254914"><ele>241.0</ele><time>2026-04-19T13:10:23Z</time></trkpt><trkpt lat="43.28129712410612" lon="11.84211375951682"><ele>241.0</ele><time>2026-04-19T13:10:24Z</time></trkpt><trkpt lat="43.28130094460341" lon="11.842432202951684"><ele>241.0</ele><time>2026-04-19T13:10:25Z</time></trkpt><trkpt lat="43.281308300382385" lon="11.842752627162836"><ele>241.0</ele><time>2026-04-19T13:10:26Z</time></trkpt><trkpt lat="43.281312731361375" lon="11.843085234634634"><ele>241.0</ele><time>2026-04-19T13:10:27Z</time></trkpt><trkpt lat="43.28131698805343" lon="11.843414745678315"><ele>240.5</ele><time>2026-04-19T13:10:28Z</time></trkpt><trkpt lat="43.281319589648945" lon="11.843761618789703"><ele>240.0</ele><time>2026-04-19T13:10:29Z</time></trkpt><trkpt lat="43.28132298792382" lon="11.844093660569659"><ele>240.5</ele><time>2026-04-19T13:10:30Z</time></trkpt><trkpt lat="43.28133103415942" lon="11.84443831777978"><ele>241.0</ele><time>2026-04-19T13:10:31Z</time></trkpt><trkpt lat="43.281338350470406" lon="11.844784761301144"><ele>241.0</ele><time>2026-04-19T13:10:32Z</time></trkpt><trkpt lat="43.28134632217772" lon="11.845136666380618"><ele>241.0</ele><time>2026-04-19T13:10:33Z</time></trkpt><trkpt lat="43.28135436121742" lon="11.845498082159274"><ele>241.0</ele><time>2026-04-19T13:10:34Z</time></trkpt><trkpt lat="43.28136042991424" lon="11.845863430693768"><ele>241.0</ele><time>2026-04-19T13:10:35Z</time></trkpt><trkpt lat="43.28136711298166" lon="11.846224514131519"><ele>241.5</ele><time>2026-04-19T13:10:36Z</time></trkpt><trkpt lat="43.281370978831625" lon="11.846589467480927"><ele>242.0</ele><time>2026-04-19T13:10:37Z</time></trkpt><trkpt lat="43.28137525287453" lon="11.846950267270719"><ele>244.0</ele><time>2026-04-19T13:10:38Z</time></trkpt><trkpt lat="43.28137927633025" lon="11.847290511863827"><ele>246.0</ele><time>2026-04-19T13:10:39Z</time></trkpt><trkpt lat="43.28138517360147" lon="11.847635534611195"><ele>247.5</ele><time>2026-04-19T13:10:40Z</time></trkpt><trkpt lat="43.28138820215415" lon="11.847963094971027"><ele>249.0</ele><time>2026-04-19T13:10:41Z</time></trkpt><trkpt lat="43.28138893512351" lon="11.848279161144816"><ele>251.33333333333331</ele><time>2026-04-19T13:10:42Z</time></trkpt><trkpt lat="43.28138717724746" lon="11.848569866866596"><ele>253.66666666666666</ele><time>2026-04-19T13:10:43Z</time></trkpt><trkpt lat="43.28138657833056" lon="11.848832992790639"><ele>256.0</ele><time>2026-04-19T13:10:44Z</time></trkpt><trkpt lat="43.281390499572964" lon="11.849076674989075"><ele>257.66666666666663</ele><time>2026-04-19T13:10:45Z</time></trkpt><trkpt lat="43.28140738122174" lon="11.849322751279445"><ele>259.3333333333333</ele><time>2026-04-19T13:10:46Z</time></trkpt><trkpt lat="43.281461092218734" lon="11.849550912730303"><ele>261.0</ele><time>2026-04-19T13:10:47.001Z</time></trkpt><trkpt lat="43.28155874484106" lon="11.849754792007397"><ele>261.0</ele><time>2026-04-19T13:10:48.001Z</time></trkpt><trkpt lat="43.28169317206329" lon="11.849914630919256"><ele>261.0</ele><time>2026-04-19T13:10:49.001Z</time></trkpt><trkpt lat="43.28185324525907" lon="11.850036328718254"><ele>261.0</ele><time>2026-04-19T13:10:50.001Z</time></trkpt><trkpt lat="43.282045318026164" lon="11.850127918030086"><ele>266.5</ele><time>2026-04-19T13:10:51.001Z</time></trkpt><trkpt lat="43.2822701216523" lon="11.850184241472348"><ele>272.0</ele><time>2026-04-19T13:10:52.001Z</time></trkpt><trkpt lat="43.28252039105496" lon="11.850220597874243"><ele>272.0</ele><time>2026-04-19T13:10:53.001Z</time></trkpt><trkpt lat="43.28279908618368" lon="11.85024981058832"><ele>272.0</ele><time>2026-04-19T13:10:54.001Z</time></trkpt><trkpt lat="43.28307950904525" lon="11.850278878497402"><ele>273.0</ele><time>2026-04-19T13:10:55.001Z</time></trkpt><trkpt lat="43.283368109745375" lon="11.850335667196454"><ele>274.0</ele><time>2026-04-19T13:10:56.001Z</time></trkpt><trkpt lat="43.2836791171348" lon="11.85037704340313"><ele>276.0</ele><time>2026-04-19T13:10:57.001Z</time></trkpt><trkpt lat="43.283976979651015" lon="11.850419236238798"><ele>278.0</ele><time>2026-04-19T13:10:58.001Z</time></trkpt><trkpt lat="43.284242166133346" lon="11.850437894816212"><ele>278.0</ele><time>2026-04-19T13:10:59.001Z</time></trkpt><trkpt lat="43.2844813030295" lon="11.850493059399964"><ele>278.0</ele><time>2026-04-19T13:11:00.001Z</time></trkpt><trkpt lat="43.28469425726764" lon="11.850521800149178"><ele>277.75</ele><time>2026-04-19T13:11:01.001Z</time></trkpt><trkpt lat="43.28487052226758" lon="11.850545589243762"><ele>277.5</ele><time>2026-04-19T13:11:02.001Z</time></trkpt><trkpt lat="43.284999292976664" lon="11.850562968408015"><ele>277.25</ele><time>2026-04-19T13:11:03.001Z</time></trkpt><trkpt lat="43.285086109800986" lon="11.850574685387505"><ele>277.0</ele><time>2026-04-19T13:11:04.001Z</time></trkpt><trkpt lat="43.28514881049244" lon="11.850588855668972"><ele>277.0</ele><time>2026-04-19T13:11:06.001Z</time></trkpt><trkpt lat="43.285075177791626" lon="11.850693984666757"><ele>277.0</ele><time>2026-04-19T13:11:09.001Z</time></trkpt><trkpt lat="43.284941941622535" lon="11.850691723026067"><ele>277.0</ele><time>2026-04-19T13:11:11.001Z</time></trkpt><trkpt lat="43.28481619349475" lon="11.8507082801773"><ele>277.0</ele><time>2026-04-19T13:11:12.001Z</time></trkpt><trkpt lat="43.284649645627546" lon="11.85075263206956"><ele>277.3333333333333</ele><time>2026-04-19T13:11:13.001Z</time></trkpt><trkpt lat="43.28446489325493" lon="11.850808319122217"><ele>277.6666666666667</ele><time>2026-04-19T13:11:14.001Z</time></trkpt><trkpt lat="43.28428466286799" lon="11.850867224770656"><ele>278.0</ele><time>2026-04-19T13:11:15.001Z</time></trkpt><trkpt lat="43.28411643267116" lon="11.850928822361713"><ele>278.33333333333337</ele><time>2026-04-19T13:11:16.001Z</time></trkpt><trkpt lat="43.283950686969796" lon="11.850994283593376"><ele>278.6666666666667</ele><time>2026-04-19T13:11:17.001Z</time></trkpt><trkpt lat="43.283787083233776" lon="11.851053312227013"><ele>279.0</ele><time>2026-04-19T13:11:18.001Z</time></trkpt><trkpt lat="43.283624059266025" lon="11.851115687594728"><ele>279.3333333333333</ele><time>2026-04-19T13:11:19.001Z</time></trkpt><trkpt lat="43.283463690501776" lon="11.851185415680323"><ele>279.66666666666663</ele><time>2026-04-19T13:11:20.001Z</time></trkpt><trkpt lat="43.28330150291433" lon="11.851255693002255"><ele>280.0</ele><time>2026-04-19T13:11:21.001Z</time></trkpt><trkpt lat="43.28313818451558" lon="11.851326963732216"><ele>278.3333333333333</ele><time>2026-04-19T13:11:22.001Z</time></trkpt><trkpt lat="43.28296947072839" lon="11.851402073730062"><ele>276.6666666666667</ele><time>2026-04-19T13:11:23.001Z</time></trkpt><trkpt lat="43.2827961921781" lon="11.851480396241653"><ele>275.0</ele><time>2026-04-19T13:11:24.001Z</time></trkpt><trkpt lat="43.28261289814837" lon="11.851536623657042"><ele>275.0</ele><time>2026-04-19T13:11:25.001Z</time></trkpt><trkpt lat="43.28243311074283" lon="11.851612470983381"><ele>275.0</ele><time>2026-04-19T13:11:26.001Z</time></trkpt><trkpt lat="43.282257618310126" lon="11.85170041846348"><ele>275.0</ele><time>2026-04-19T13:11:27.001Z</time></trkpt><trkpt lat="43.28207061985862" lon="11.851710737760063"><ele>276.6666666666667</ele><time>2026-04-19T13:11:28.001Z</time></trkpt><trkpt lat="43.28188418657252" lon="11.851735826499302"><ele>278.3333333333333</ele><time>2026-04-19T13:11:29.001Z</time></trkpt><trkpt lat="43.281695601178846" lon="11.85169115427464"><ele>280.0</ele><time>2026-04-19T13:11:30.001Z</time></trkpt><trkpt lat="43.28150742564799" lon="11.85163498759473"><ele>281.0</ele><time>2026-04-19T13:11:31.001Z</time></trkpt><trkpt lat="43.281330662275195" lon="11.851588011856158"><ele>282.0</ele><time>2026-04-19T13:11:32.001Z</time></trkpt><trkpt lat="43.281170789432" lon="11.851560164136295"><ele>283.0</ele><time>2026-04-19T13:11:33Z</time></trkpt><trkpt lat="43.2810159283091" lon="11.851524906816472"><ele>283.0</ele><time>2026-04-19T13:11:34Z</time></trkpt><trkpt lat="43.28086189845641" lon="11.851491201208173"><ele>283.0</ele><time>2026-04-19T13:11:35Z</time></trkpt><trkpt lat="43.280702623468635" lon="11.85145623206119"><ele>283.0</ele><time>2026-04-19T13:11:36Z</time></trkpt><trkpt lat="43.28053266313731" lon="11.851441010752296"><ele>282.0</ele><time>2026-04-19T13:11:37Z</time></trkpt><trkpt lat="43.280341593929116" lon="11.851438378031116"><ele>281.0</ele><time>2026-04-19T13:11:38Z</time></trkpt><trkpt lat="43.280145341680665" lon="11.851437401647797"><ele>280.0</ele><time>2026-04-19T13:11:39Z</time></trkpt><trkpt lat="43.27994996285384" lon="11.851441421476713"><ele>279.0</ele><time>2026-04-19T13:11:40Z</time></trkpt><trkpt lat="43.279748730259044" lon="11.851452110625516"><ele>278.0</ele><time>2026-04-19T13:11:41Z</time></trkpt><trkpt lat="43.2795546003923" lon="11.851454601075005"><ele>277.0</ele><time>2026-04-19T13:11:42Z</time></trkpt><trkpt lat="43.27935849608894" lon="11.85145962838248"><ele>277.0</ele><time>2026-04-19T13:11:43Z</time></trkpt><trkpt lat="43.2791556569835" lon="11.851473357281419"><ele>277.0</ele><time>2026-04-19T13:11:44Z</time></trkpt><trkpt lat="43.27895541528892" lon="11.851475335111179"><ele>277.0</ele><time>2026-04-19T13:11:45Z</time></trkpt><trkpt lat="43.27875710888377" lon="11.851471676951112"><ele>276.3333333333333</ele><time>2026-04-19T13:11:46Z</time></trkpt><trkpt lat="43.278561983206615" lon="11.851474548948994"><ele>275.6666666666667</ele><time>2026-04-19T13:11:47Z</time></trkpt><trkpt lat="43.27836762634786" lon="11.851474669116332"><ele>275.0</ele><time>2026-04-19T13:11:48Z</time></trkpt><trkpt lat="43.27816585312865" lon="11.851481126109961"><ele>274.33333333333337</ele><time>2026-04-19T13:11:49Z</time></trkpt><trkpt lat="43.277961900768695" lon="11.851486630272921"><ele>273.6666666666667</ele><time>2026-04-19T13:11:50Z</time></trkpt><trkpt lat="43.27776193665021" lon="11.85148873774852"><ele>273.0</ele><time>2026-04-19T13:11:51Z</time></trkpt><trkpt lat="43.277559075950926" lon="11.851486373190573"><ele>273.0</ele><time>2026-04-19T13:11:52Z</time></trkpt><trkpt lat="43.277356233117544" lon="11.851484971962844"><ele>273.0</ele><time>2026-04-19T13:11:53Z</time></trkpt><trkpt lat="43.27714724640181" lon="11.851485647345655"><ele>273.0</ele><time>2026-04-19T13:11:54Z</time></trkpt><trkpt lat="43.276939023724836" lon="11.851488859786002"><ele>273.3333333333333</ele><time>2026-04-19T13:11:55Z</time></trkpt><trkpt lat="43.27673520182905" lon="11.851497384548082"><ele>273.66666666666663</ele><time>2026-04-19T13:11:56Z</time></trkpt><trkpt lat="43.27652631592751" lon="11.851504121787846"><ele>274.0</ele><time>2026-04-19T13:11:57Z</time></trkpt><trkpt lat="43.27633008442273" lon="11.851501477915324"><ele>274.0</ele><time>2026-04-19T13:11:58Z</time></trkpt><trkpt lat="43.27613470160411" lon="11.851497646382583"><ele>274.0</ele><time>2026-04-19T13:11:59Z</time></trkpt><trkpt lat="43.27593389198432" lon="11.851502788310462"><ele>274.0</ele><time>2026-04-19T13:12:00Z</time></trkpt><trkpt lat="43.27573654528587" lon="11.851506228368265"><ele>274.3333333333333</ele><time>2026-04-19T13:12:01Z</time></trkpt><trkpt lat="43.275533847495375" lon="11.851504908902813"><ele>274.6666666666667</ele><time>2026-04-19T13:12:02Z</time></trkpt><trkpt lat="43.27533480874853" lon="11.851497884055888"><ele>275.0</ele><time>2026-04-19T13:12:03Z</time></trkpt><trkpt lat="43.275136673258906" lon="11.851483475649793"><ele>275.0</ele><time>2026-04-19T13:12:04Z</time></trkpt><trkpt lat="43.274937482774334" lon="11.851460436997183"><ele>275.0</ele><time>2026-04-19T13:12:05Z</time></trkpt><trkpt lat="43.274755993993516" lon="11.851431907674524"><ele>275.0</ele><time>2026-04-19T13:12:06Z</time></trkpt><trkpt lat="43.274560027169834" lon="11.851406676348118"><ele>275.33333333333337</ele><time>2026-04-19T13:12:07Z</time></trkpt><trkpt lat="43.274361752531874" lon="11.851381683175202"><ele>275.6666666666667</ele><time>2026-04-19T13:12:08Z</time></trkpt><trkpt lat="43.27415885317096" lon="11.851355880534658"><ele>276.0</ele><time>2026-04-19T13:12:09Z</time></trkpt><trkpt lat="43.27396794420225" lon="11.851328740125552"><ele>275.6666666666667</ele><time>2026-04-19T13:12:10Z</time></trkpt><trkpt lat="43.27376364211111" lon="11.851292907224728"><ele>275.33333333333337</ele><time>2026-04-19T13:12:11Z</time></trkpt><trkpt lat="43.27355555126598" lon="11.851266830534476"><ele>275.0</ele><time>2026-04-19T13:12:12Z</time></trkpt><trkpt lat="43.27334559884986" lon="11.851241001431092"><ele>275.0</ele><time>2026-04-19T13:12:13Z</time></trkpt><trkpt lat="43.27314033082728" lon="11.851212417688412"><ele>275.0</ele><time>2026-04-19T13:12:14Z</time></trkpt><trkpt lat="43.27293271552645" lon="11.851156378977247"><ele>275.0</ele><time>2026-04-19T13:12:15Z</time></trkpt><trkpt lat="43.2727379073752" lon="11.85112544131892"><ele>275.33333333333337</ele><time>2026-04-19T13:12:16Z</time></trkpt><trkpt lat="43.272564518526075" lon="11.85109877428539"><ele>275.6666666666667</ele><time>2026-04-19T13:12:17Z</time></trkpt><trkpt lat="43.272390504502155" lon="11.851072011145668"><ele>276.0</ele><time>2026-04-19T13:12:18Z</time></trkpt><trkpt lat="43.272212426593654" lon="11.851065971185243"><ele>276.0</ele><time>2026-04-19T13:12:19Z</time></trkpt><trkpt lat="43.27203415586837" lon="11.851034639142592"><ele>276.0</ele><time>2026-04-19T13:12:20Z</time></trkpt><trkpt lat="43.27185818720442" lon="11.851008556481192"><ele>276.0</ele><time>2026-04-19T13:12:21Z</time></trkpt><trkpt lat="43.271687011242214" lon="11.850991225758705"><ele>275.3333333333333</ele><time>2026-04-19T13:12:22Z</time></trkpt><trkpt lat="43.27150853026427" lon="11.85094945535043"><ele>274.66666666666663</ele><time>2026-04-19T13:12:23Z</time></trkpt><trkpt lat="43.27133350458113" lon="11.850918432003304"><ele>274.0</ele><time>2026-04-19T13:12:24Z</time></trkpt><trkpt lat="43.27116474784766" lon="11.85090882871592"><ele>274.0</ele><time>2026-04-19T13:12:25Z</time></trkpt><trkpt lat="43.270991007861355" lon="11.850882674640351"><ele>274.0</ele><time>2026-04-19T13:12:26Z</time></trkpt><trkpt lat="43.27080687326326" lon="11.850879834943152"><ele>274.0</ele><time>2026-04-19T13:12:27Z</time></trkpt><trkpt lat="43.27061813835887" lon="11.850901010908919"><ele>273.3333333333333</ele><time>2026-04-19T13:12:28Z</time></trkpt><trkpt lat="43.270412787865396" lon="11.850916094455664"><ele>272.6666666666667</ele><time>2026-04-19T13:12:29Z</time></trkpt><trkpt lat="43.27022174065591" lon="11.85095166569392"><ele>272.0</ele><time>2026-04-19T13:12:30Z</time></trkpt><trkpt lat="43.27001566782286" lon="11.850992200245646"><ele>271.6666666666667</ele><time>2026-04-19T13:12:31Z</time></trkpt><trkpt lat="43.2698188085547" lon="11.851049674112767"><ele>271.3333333333333</ele><time>2026-04-19T13:12:32Z</time></trkpt><trkpt lat="43.269622782971844" lon="11.85108246353508"><ele>271.0</ele><time>2026-04-19T13:12:33Z</time></trkpt><trkpt lat="43.269422999227864" lon="11.85109665824433"><ele>271.0</ele><time>2026-04-19T13:12:34Z</time></trkpt><trkpt lat="43.26922546899976" lon="11.85113016999927"><ele>271.0</ele><time>2026-04-19T13:12:35Z</time></trkpt><trkpt lat="43.26902821626681" lon="11.851167320175582"><ele>271.0</ele><time>2026-04-19T13:12:36Z</time></trkpt><trkpt lat="43.2688366203282" lon="11.851223771567309"><ele>272.66666666666663</ele><time>2026-04-19T13:12:37Z</time></trkpt><trkpt lat="43.26863794741297" lon="11.851260423303868"><ele>274.3333333333333</ele><time>2026-04-19T13:12:38Z</time></trkpt><trkpt lat="43.26844191182492" lon="11.851301621352977"><ele>276.0</ele><time>2026-04-19T13:12:39Z</time></trkpt><trkpt lat="43.26825035009129" lon="11.85134090386166"><ele>277.6666666666667</ele><time>2026-04-19T13:12:40Z</time></trkpt><trkpt lat="43.26806572044494" lon="11.851376311176763"><ele>279.33333333333337</ele><time>2026-04-19T13:12:41Z</time></trkpt><trkpt lat="43.26788989805647" lon="11.851402351765072"><ele>281.0</ele><time>2026-04-19T13:12:42Z</time></trkpt><trkpt lat="43.267723326755366" lon="11.85142190234715"><ele>281.0</ele><time>2026-04-19T13:12:43Z</time></trkpt><trkpt lat="43.26754604975629" lon="11.851429223448774"><ele>281.0</ele><time>2026-04-19T13:12:44Z</time></trkpt><trkpt lat="43.26736925508521" lon="11.851423727651612"><ele>281.0</ele><time>2026-04-19T13:12:45Z</time></trkpt><trkpt lat="43.2671998943409" lon="11.851409531672207"><ele>279.6666666666667</ele><time>2026-04-19T13:12:46Z</time></trkpt><trkpt lat="43.267023244132254" lon="11.851409376363419"><ele>278.3333333333333</ele><time>2026-04-19T13:12:47Z</time></trkpt><trkpt lat="43.26684146112365" lon="11.851412142811233"><ele>277.0</ele><time>2026-04-19T13:12:48Z</time></trkpt><trkpt lat="43.26666928462404" lon="11.851412011347826"><ele>277.0</ele><time>2026-04-19T13:12:49Z</time></trkpt><trkpt lat="43.26649130962601" lon="11.851419962436776"><ele>277.0</ele><time>2026-04-19T13:12:50Z</time></trkpt><trkpt lat="43.26630684923602" lon="11.851450112808823"><ele>277.0</ele><time>2026-04-19T13:12:51Z</time></trkpt><trkpt lat="43.266107110098474" lon="11.851501417627082"><ele>275.0</ele><time>2026-04-19T13:12:52Z</time></trkpt><trkpt lat="43.26590130553918" lon="11.851564106875813"><ele>273.0</ele><time>2026-04-19T13:12:53Z</time></trkpt><trkpt lat="43.26568745253332" lon="11.851631560677045"><ele>271.0</ele><time>2026-04-19T13:12:54Z</time></trkpt><trkpt lat="43.26546969288376" lon="11.851694115991888"><ele>269.66666666666663</ele><time>2026-04-19T13:12:55.001Z</time></trkpt><trkpt lat="43.26527167415167" lon="11.85175216761573"><ele>268.3333333333333</ele><time>2026-04-19T13:12:56.001Z</time></trkpt><trkpt lat="43.265081154603294" lon="11.851807271814858"><ele>267.0</ele><time>2026-04-19T13:12:57.001Z</time></trkpt><trkpt lat="43.26489484727461" lon="11.851857513550652"><ele>266.0</ele><time>2026-04-19T13:12:58.001Z</time></trkpt><trkpt lat="43.26470939412209" lon="11.851906628527976"><ele>265.0</ele><time>2026-04-19T13:12:59.001Z</time></trkpt><trkpt lat="43.26451787356696" lon="11.851961744545541"><ele>264.0</ele><time>2026-04-19T13:13:00.001Z</time></trkpt><trkpt lat="43.264338340142785" lon="11.852010211221948"><ele>264.0</ele><time>2026-04-19T13:13:01.001Z</time></trkpt><trkpt lat="43.26414789973826" lon="11.85206184693106"><ele>264.0</ele><time>2026-04-19T13:13:02.001Z</time></trkpt><trkpt lat="43.26395889252438" lon="11.85211448592096"><ele>264.0</ele><time>2026-04-19T13:13:03.001Z</time></trkpt><trkpt lat="43.26376514183658" lon="11.852169326048495"><ele>261.0</ele><time>2026-04-19T13:13:04.001Z</time></trkpt><trkpt lat="43.263573554713055" lon="11.852225276978647"><ele>258.0</ele><time>2026-04-19T13:13:05.001Z</time></trkpt><trkpt lat="43.26338831047014" lon="11.852259569371514"><ele>255.0</ele><time>2026-04-19T13:13:06.001Z</time></trkpt><trkpt lat="43.26322170669403" lon="11.85233286995629"><ele>253.33333333333331</ele><time>2026-04-19T13:13:07.001Z</time></trkpt><trkpt lat="43.26305827724775" lon="11.852380231944398"><ele>251.66666666666666</ele><time>2026-04-19T13:13:08.001Z</time></trkpt><trkpt lat="43.262896973240316" lon="11.852403207784528"><ele>250.0</ele><time>2026-04-19T13:13:09.001Z</time></trkpt><trkpt lat="43.26274154838055" lon="11.852446928497574"><ele>250.0</ele><time>2026-04-19T13:13:10.001Z</time></trkpt><trkpt lat="43.26260128682319" lon="11.852507385671894"><ele>250.0</ele><time>2026-04-19T13:13:11.001Z</time></trkpt><trkpt lat="43.26246054804067" lon="11.85255054501185"><ele>250.0</ele><time>2026-04-19T13:13:12.001Z</time></trkpt><trkpt lat="43.26232367161671" lon="11.85256884882406"><ele>250.0</ele><time>2026-04-19T13:13:13.001Z</time></trkpt><trkpt lat="43.262196237824085" lon="11.852607161613339"><ele>248.25</ele><time>2026-04-19T13:13:14.001Z</time></trkpt><trkpt lat="43.262070736840926" lon="11.852640463302889"><ele>246.5</ele><time>2026-04-19T13:13:15.001Z</time></trkpt><trkpt lat="43.26195729910216" lon="11.852687527552835"><ele>244.75</ele><time>2026-04-19T13:13:16.001Z</time></trkpt><trkpt lat="43.261845791793085" lon="11.85270272234738"><ele>243.0</ele><time>2026-04-19T13:13:17.001Z</time></trkpt><trkpt lat="43.26173000914382" lon="11.852710259291493"><ele>243.0</ele><time>2026-04-19T13:13:18.001Z</time></trkpt><trkpt lat="43.26161298143962" lon="11.852658025864239"><ele>243.0</ele><time>2026-04-19T13:13:19.001Z</time></trkpt><trkpt lat="43.2614994782879" lon="11.85258514806291"><ele>243.0</ele><time>2026-04-19T13:13:20.001Z</time></trkpt><trkpt lat="43.26138372589821" lon="11.85248159138707"><ele>243.0</ele><time>2026-04-19T13:13:21.001Z</time></trkpt><trkpt lat="43.26125768913829" lon="11.852361307984728"><ele>242.75</ele><time>2026-04-19T13:13:22.001Z</time></trkpt><trkpt lat="43.26113014838136" lon="11.85223860972988"><ele>242.5</ele><time>2026-04-19T13:13:23.001Z</time></trkpt><trkpt lat="43.26101878851957" lon="11.852132813230536"><ele>242.25</ele><time>2026-04-19T13:13:24.001Z</time></trkpt><trkpt lat="43.260927183024705" lon="11.852042962649186"><ele>242.0</ele><time>2026-04-19T13:13:25.001Z</time></trkpt><trkpt lat="43.26085146254967" lon="11.851966001648552"><ele>242.0</ele><time>2026-04-19T13:13:26.001Z</time></trkpt><trkpt lat="43.26078489841446" lon="11.851904154510938"><ele>242.0</ele><time>2026-04-19T13:13:27.001Z</time></trkpt><trkpt lat="43.26068209784457" lon="11.851835416559016"><ele>242.0</ele><time>2026-04-19T13:13:29.001Z</time></trkpt><trkpt lat="43.26060908459482" lon="11.851866441752891"><ele>242.0</ele><time>2026-04-19T13:13:30.001Z</time></trkpt><trkpt lat="43.26056233760895" lon="11.851986714827564"><ele>242.0</ele><time>2026-04-19T13:13:31.001Z</time></trkpt><trkpt lat="43.26049188297948" lon="11.852057881400562"><ele>242.0</ele><time>2026-04-19T13:13:32.001Z</time></trkpt><trkpt lat="43.26041019999801" lon="11.852171998980557"><ele>242.0</ele><time>2026-04-19T13:13:33.001Z</time></trkpt><trkpt lat="43.260311743290984" lon="11.85230836862537"><ele>242.0</ele><time>2026-04-19T13:13:34.001Z</time></trkpt><trkpt lat="43.26020432275527" lon="11.852456857258755"><ele>242.0</ele><time>2026-04-19T13:13:35.001Z</time></trkpt><trkpt lat="43.26008883371161" lon="11.852623340091757"><ele>242.66666666666669</ele><time>2026-04-19T13:13:36.001Z</time></trkpt><trkpt lat="43.25998444256295" lon="11.852804495118667"><ele>243.33333333333331</ele><time>2026-04-19T13:13:37.001Z</time></trkpt><trkpt lat="43.25988025928097" lon="11.852970696218438"><ele>244.0</ele><time>2026-04-19T13:13:38.001Z</time></trkpt><trkpt lat="43.25978048700918" lon="11.853149411777082"><ele>244.0</ele><time>2026-04-19T13:13:39Z</time></trkpt><trkpt lat="43.259670635314485" lon="11.853328540172983"><ele>244.0</ele><time>2026-04-19T13:13:40Z</time></trkpt><trkpt lat="43.25959835901929" lon="11.853546641768414"><ele>244.0</ele><time>2026-04-19T13:13:41Z</time></trkpt><trkpt lat="43.2595247962218" lon="11.853776605738005"><ele>244.0</ele><time>2026-04-19T13:13:42Z</time></trkpt><trkpt lat="43.2594619914943" lon="11.85401650761663"><ele>244.0</ele><time>2026-04-19T13:13:43Z</time></trkpt><trkpt lat="43.25940941201111" lon="11.854264336826454"><ele>244.0</ele><time>2026-04-19T13:13:44Z</time></trkpt><trkpt lat="43.25936699870438" lon="11.854518957619065"><ele>243.66666666666666</ele><time>2026-04-19T13:13:45Z</time></trkpt><trkpt lat="43.25934034983223" lon="11.854765079950885"><ele>243.33333333333331</ele><time>2026-04-19T13:13:46Z</time></trkpt><trkpt lat="43.25932510738047" lon="11.854998520092844"><ele>243.0</ele><time>2026-04-19T13:13:47Z</time></trkpt><trkpt lat="43.259321430753566" lon="11.855226333253635"><ele>243.0</ele><time>2026-04-19T13:13:48Z</time></trkpt><trkpt lat="43.25933260375008" lon="11.855454830467046"><ele>243.0</ele><time>2026-04-19T13:13:49Z</time></trkpt><trkpt lat="43.25935599115622" lon="11.855668401571307"><ele>243.0</ele><time>2026-04-19T13:13:50Z</time></trkpt><trkpt lat="43.2593737276873" lon="11.855873958111989"><ele>243.25</ele><time>2026-04-19T13:13:51Z</time></trkpt><trkpt lat="43.25940956032861" lon="11.8560514616947"><ele>243.5</ele><time>2026-04-19T13:13:52Z</time></trkpt><trkpt lat="43.25944809896826" lon="11.856222421211019"><ele>243.75</ele><time>2026-04-19T13:13:53Z</time></trkpt><trkpt lat="43.25950493367694" lon="11.85636805666665"><ele>244.0</ele><time>2026-04-19T13:13:54Z</time></trkpt><trkpt lat="43.259550486663535" lon="11.856504439613884"><ele>243.99999999999997</ele><time>2026-04-19T13:13:55Z</time></trkpt><trkpt lat="43.25959873256036" lon="11.856618278921196"><ele>244.0</ele><time>2026-04-19T13:13:56Z</time></trkpt><trkpt lat="43.259642781052456" lon="11.856713874056753"><ele>244.0</ele><time>2026-04-19T13:13:57Z</time></trkpt><trkpt lat="43.2596877363702" lon="11.856804321927102"><ele>244.0</ele><time>2026-04-19T13:13:58Z</time></trkpt><trkpt lat="43.25971785345478" lon="11.856880331425357"><ele>243.99999999999997</ele><time>2026-04-19T13:13:59Z</time></trkpt><trkpt lat="43.2597495635963" lon="11.857019414152616"><ele>244.0</ele><time>2026-04-19T13:14:01Z</time></trkpt><trkpt lat="43.259821662569095" lon="11.857105293994243"><ele>244.0</ele><time>2026-04-19T13:14:02Z</time></trkpt><trkpt lat="43.2598981397127" lon="11.857236249790224"><ele>244.0</ele><time>2026-04-19T13:14:03Z</time></trkpt><trkpt lat="43.25998799488644" lon="11.85737821615696"><ele>244.0</ele><time>2026-04-19T13:14:04Z</time></trkpt><trkpt lat="43.26008293074489" lon="11.857510626625006"><ele>244.0</ele><time>2026-04-19T13:14:05Z</time></trkpt><trkpt lat="43.260188398074206" lon="11.85766021784489"><ele>244.0</ele><time>2026-04-19T13:14:06Z</time></trkpt><trkpt lat="43.26030004548251" lon="11.857825122110619"><ele>244.0</ele><time>2026-04-19T13:14:07Z</time></trkpt><trkpt lat="43.26041172044667" lon="11.857995888931335"><ele>244.0</ele><time>2026-04-19T13:14:08Z</time></trkpt><trkpt lat="43.26052994028739" lon="11.858174731388171"><ele>244.0</ele><time>2026-04-19T13:14:09Z</time></trkpt><trkpt lat="43.260653841198774" lon="11.858370447261054"><ele>244.0</ele><time>2026-04-19T13:14:10Z</time></trkpt><trkpt lat="43.260787477136525" lon="11.858578638200608"><ele>244.0</ele><time>2026-04-19T13:14:11Z</time></trkpt><trkpt lat="43.26092817846374" lon="11.858793311687636"><ele>244.0</ele><time>2026-04-19T13:14:12Z</time></trkpt><trkpt lat="43.261066830821854" lon="11.85900440998174"><ele>244.0</ele><time>2026-04-19T13:14:13Z</time></trkpt><trkpt lat="43.26120351483507" lon="11.859219754878557"><ele>244.0</ele><time>2026-04-19T13:14:14Z</time></trkpt><trkpt lat="43.26134075911307" lon="11.859435848880015"><ele>243.66666666666666</ele><time>2026-04-19T13:14:15Z</time></trkpt><trkpt lat="43.261479092607665" lon="11.859657874719089"><ele>243.33333333333331</ele><time>2026-04-19T13:14:16Z</time></trkpt><trkpt lat="43.2616173951922" lon="11.859878683871377"><ele>243.0</ele><time>2026-04-19T13:14:17Z</time></trkpt><trkpt lat="43.26175964537593" lon="11.860103858492764"><ele>243.33333333333331</ele><time>2026-04-19T13:14:18Z</time></trkpt><trkpt lat="43.26190480700999" lon="11.860331153798738"><ele>243.66666666666666</ele><time>2026-04-19T13:14:19Z</time></trkpt><trkpt lat="43.26205064669954" lon="11.860556891744013"><ele>244.0</ele><time>2026-04-19T13:14:20Z</time></trkpt><trkpt lat="43.262197347271716" lon="11.860783644364306"><ele>244.0</ele><time>2026-04-19T13:14:21Z</time></trkpt><trkpt lat="43.26234575718939" lon="11.861011875454619"><ele>244.0</ele><time>2026-04-19T13:14:22Z</time></trkpt><trkpt lat="43.262477973679424" lon="11.861251470053082"><ele>244.0</ele><time>2026-04-19T13:14:23Z</time></trkpt><trkpt lat="43.26261188195184" lon="11.861470941348692"><ele>244.0</ele><time>2026-04-19T13:14:24Z</time></trkpt><trkpt lat="43.26273044702176" lon="11.86170693381697"><ele>244.0</ele><time>2026-04-19T13:14:25Z</time></trkpt><trkpt lat="43.26282999685005" lon="11.861977533372896"><ele>244.0</ele><time>2026-04-19T13:14:26Z</time></trkpt><trkpt lat="43.26291009986305" lon="11.862265759741206"><ele>244.5</ele><time>2026-04-19T13:14:27Z</time></trkpt><trkpt lat="43.26298252335702" lon="11.86257533362897"><ele>245.0</ele><time>2026-04-19T13:14:28Z</time></trkpt><trkpt lat="43.263065183918435" lon="11.862887631916653"><ele>244.5</ele><time>2026-04-19T13:14:29Z</time></trkpt><trkpt lat="43.26313149175655" lon="11.863211250033908"><ele>244.0</ele><time>2026-04-19T13:14:30Z</time></trkpt><trkpt lat="43.26320301292307" lon="11.863540967337554"><ele>244.0</ele><time>2026-04-19T13:14:31Z</time></trkpt><trkpt lat="43.26327568067615" lon="11.863867136647693"><ele>244.0</ele><time>2026-04-19T13:14:32Z</time></trkpt><trkpt lat="43.26334586101003" lon="11.864187040738067"><ele>244.0</ele><time>2026-04-19T13:14:33Z</time></trkpt><trkpt lat="43.26341930857454" lon="11.864495917158436"><ele>244.0</ele><time>2026-04-19T13:14:34Z</time></trkpt><trkpt lat="43.263492984057436" lon="11.864813824125374"><ele>245.0</ele><time>2026-04-19T13:14:35Z</time></trkpt><trkpt lat="43.26356555714434" lon="11.8651303038856"><ele>246.0</ele><time>2026-04-19T13:14:36Z</time></trkpt><trkpt lat="43.263635040613636" lon="11.865443721493566"><ele>246.0</ele><time>2026-04-19T13:14:37Z</time></trkpt><trkpt lat="43.263702545883575" lon="11.865765818918272"><ele>246.0</ele><time>2026-04-19T13:14:38Z</time></trkpt><trkpt lat="43.26374558697466" lon="11.866091693028194"><ele>245.5</ele><time>2026-04-19T13:14:39.001Z</time></trkpt><trkpt lat="43.26380317853152" lon="11.866410556318721"><ele>245.0</ele><time>2026-04-19T13:14:40.001Z</time></trkpt><trkpt lat="43.263862682995516" lon="11.866723689879493"><ele>245.0</ele><time>2026-04-19T13:14:41.001Z</time></trkpt><trkpt lat="43.26392404281894" lon="11.867025027001231"><ele>245.0</ele><time>2026-04-19T13:14:42.001Z</time></trkpt><trkpt lat="43.264014249734615" lon="11.867316492172115"><ele>245.0</ele><time>2026-04-19T13:14:43.001Z</time></trkpt><trkpt lat="43.26409226583217" lon="11.86761377207132"><ele>245.0</ele><time>2026-04-19T13:14:44.001Z</time></trkpt><trkpt lat="43.26417366544792" lon="11.867918946667647"><ele>245.0</ele><time>2026-04-19T13:14:45.001Z</time></trkpt><trkpt lat="43.26425054988447" lon="11.868222782942176"><ele>245.0</ele><time>2026-04-19T13:14:46.001Z</time></trkpt><trkpt lat="43.264330079893774" lon="11.868534214564706"><ele>245.5</ele><time>2026-04-19T13:14:47.001Z</time></trkpt><trkpt lat="43.264407679902625" lon="11.86885600922803"><ele>246.0</ele><time>2026-04-19T13:14:48.001Z</time></trkpt><trkpt lat="43.2644851758824" lon="11.869192576592942"><ele>245.5</ele><time>2026-04-19T13:14:49.001Z</time></trkpt><trkpt lat="43.264560887391504" lon="11.869531061959414"><ele>245.0</ele><time>2026-04-19T13:14:50.001Z</time></trkpt><trkpt lat="43.26463584413786" lon="11.869871549958479"><ele>244.5</ele><time>2026-04-19T13:14:51.001Z</time></trkpt><trkpt lat="43.26470646527385" lon="11.870210493799062"><ele>244.0</ele><time>2026-04-19T13:14:52.001Z</time></trkpt><trkpt lat="43.264781354938854" lon="11.87054832521103"><ele>244.0</ele><time>2026-04-19T13:14:53.001Z</time></trkpt><trkpt lat="43.26485736373405" lon="11.870884476148346"><ele>244.0</ele><time>2026-04-19T13:14:54.001Z</time></trkpt><trkpt lat="43.26493560474513" lon="11.871212061675852"><ele>244.0</ele><time>2026-04-19T13:14:55.001Z</time></trkpt><trkpt lat="43.26501103730415" lon="11.871543866534617"><ele>244.0</ele><time>2026-04-19T13:14:56.001Z</time></trkpt><trkpt lat="43.26508370607388" lon="11.87187464868525"><ele>244.0</ele><time>2026-04-19T13:14:57.001Z</time></trkpt><trkpt lat="43.26515237589743" lon="11.872196955631946"><ele>244.0</ele><time>2026-04-19T13:14:58.001Z</time></trkpt><trkpt lat="43.26522330842945" lon="11.872508483029936"><ele>244.33333333333331</ele><time>2026-04-19T13:14:59.001Z</time></trkpt><trkpt lat="43.265289660762974" lon="11.872805480767639"><ele>244.66666666666669</ele><time>2026-04-19T13:15:00.001Z</time></trkpt><trkpt lat="43.26535171100806" lon="11.873083855335521"><ele>245.0</ele><time>2026-04-19T13:15:01.001Z</time></trkpt><trkpt lat="43.26541100483082" lon="11.873343286672972"><ele>246.0</ele><time>2026-04-19T13:15:02.001Z</time></trkpt><trkpt lat="43.26547182257209" lon="11.87360394977545"><ele>247.0</ele><time>2026-04-19T13:15:03.001Z</time></trkpt><trkpt lat="43.26553728683582" lon="11.873866341455226"><ele>248.0</ele><time>2026-04-19T13:15:04.001Z</time></trkpt><trkpt lat="43.26559159470425" lon="11.874150273911477"><ele>247.33333333333334</ele><time>2026-04-19T13:15:05.001Z</time></trkpt><trkpt lat="43.26567642296449" lon="11.874408077250132"><ele>246.66666666666669</ele><time>2026-04-19T13:15:06.001Z</time></trkpt><trkpt lat="43.265756601846505" lon="11.874685222695632"><ele>246.0</ele><time>2026-04-19T13:15:07.001Z</time></trkpt><trkpt lat="43.265840870205714" lon="11.874959450013844"><ele>244.5</ele><time>2026-04-19T13:15:08.001Z</time></trkpt><trkpt lat="43.26592659904553" lon="11.875244762508773"><ele>243.0</ele><time>2026-04-19T13:15:09.001Z</time></trkpt><trkpt lat="43.266020702058135" lon="11.875534057163751"><ele>243.0</ele><time>2026-04-19T13:15:10.001Z</time></trkpt><trkpt lat="43.26611422466338" lon="11.87582421228344"><ele>243.0</ele><time>2026-04-19T13:15:11.001Z</time></trkpt><trkpt lat="43.26620867055337" lon="11.876110853205754"><ele>243.5</ele><time>2026-04-19T13:15:12.001Z</time></trkpt><trkpt lat="43.266302297420246" lon="11.876404236251542"><ele>244.0</ele><time>2026-04-19T13:15:13.001Z</time></trkpt><trkpt lat="43.266395276714825" lon="11.876700020473695"><ele>244.5</ele><time>2026-04-19T13:15:14.001Z</time></trkpt><trkpt lat="43.26648786337343" lon="11.8769936601935"><ele>245.0</ele><time>2026-04-19T13:15:15.001Z</time></trkpt><trkpt lat="43.2665812781505" lon="11.877286645397488"><ele>245.0</ele><time>2026-04-19T13:15:16.001Z</time></trkpt><trkpt lat="43.26667642371715" lon="11.877580532266352"><ele>245.0</ele><time>2026-04-19T13:15:17.001Z</time></trkpt><trkpt lat="43.26679046122609" lon="11.877862118226998"><ele>245.5</ele><time>2026-04-19T13:15:18.001Z</time></trkpt><trkpt lat="43.266919883689006" lon="11.878128544872954"><ele>246.0</ele><time>2026-04-19T13:15:19.001Z</time></trkpt><trkpt lat="43.26706528299753" lon="11.878376422284695"><ele>246.0</ele><time>2026-04-19T13:15:20.001Z</time></trkpt><trkpt lat="43.267214043575116" lon="11.87861509914628"><ele>246.0</ele><time>2026-04-19T13:15:21.001Z</time></trkpt><trkpt lat="43.26736345514495" lon="11.878854096429606"><ele>245.0</ele><time>2026-04-19T13:15:22.001Z</time></trkpt><trkpt lat="43.26751322494725" lon="11.879097743419651"><ele>244.0</ele><time>2026-04-19T13:15:23.001Z</time></trkpt><trkpt lat="43.26766484677857" lon="11.879350704142674"><ele>244.0</ele><time>2026-04-19T13:15:24.001Z</time></trkpt><trkpt lat="43.2678155743975" lon="11.879607344921489"><ele>244.0</ele><time>2026-04-19T13:15:25.001Z</time></trkpt><trkpt lat="43.26796657300591" lon="11.8798679976426"><ele>245.0</ele><time>2026-04-19T13:15:26.001Z</time></trkpt><trkpt lat="43.26812142844309" lon="11.880129216143168"><ele>246.0</ele><time>2026-04-19T13:15:27.001Z</time></trkpt><trkpt lat="43.26827748239179" lon="11.880389985119065"><ele>246.0</ele><time>2026-04-19T13:15:28.001Z</time></trkpt><trkpt lat="43.268436089121124" lon="11.880656985348853"><ele>246.0</ele><time>2026-04-19T13:15:29.001Z</time></trkpt><trkpt lat="43.26859619640848" lon="11.880925545276385"><ele>246.0</ele><time>2026-04-19T13:15:30.001Z</time></trkpt><trkpt lat="43.268753542893236" lon="11.881192192908749"><ele>246.0</ele><time>2026-04-19T13:15:31.001Z</time></trkpt><trkpt lat="43.26890680041961" lon="11.881452104275366"><ele>245.5</ele><time>2026-04-19T13:15:32.001Z</time></trkpt><trkpt lat="43.26906227561275" lon="11.881714333639637"><ele>245.0</ele><time>2026-04-19T13:15:33.001Z</time></trkpt><trkpt lat="43.269213280420544" lon="11.881966536053232"><ele>245.0</ele><time>2026-04-19T13:15:34.001Z</time></trkpt><trkpt lat="43.26935328329445" lon="11.88220315573673"><ele>245.0</ele><time>2026-04-19T13:15:35.001Z</time></trkpt><trkpt lat="43.26948683736361" lon="11.882425496989153"><ele>245.0</ele><time>2026-04-19T13:15:36.001Z</time></trkpt><trkpt lat="43.269616604152944" lon="11.8826418191432"><ele>245.33333333333334</ele><time>2026-04-19T13:15:37.001Z</time></trkpt><trkpt lat="43.26975376099528" lon="11.88286286299246"><ele>245.66666666666669</ele><time>2026-04-19T13:15:38.001Z</time></trkpt><trkpt lat="43.26989812033455" lon="11.883094910708252"><ele>246.0</ele><time>2026-04-19T13:15:39.001Z</time></trkpt><trkpt lat="43.27004305530903" lon="11.883344725491323"><ele>245.5</ele><time>2026-04-19T13:15:40.001Z</time></trkpt><trkpt lat="43.27018000574769" lon="11.88361604033451"><ele>245.0</ele><time>2026-04-19T13:15:41.001Z</time></trkpt><trkpt lat="43.270299457658446" lon="11.883911628407667"><ele>245.0</ele><time>2026-04-19T13:15:42.001Z</time></trkpt><trkpt lat="43.27040391198164" lon="11.88422790340964"><ele>245.0</ele><time>2026-04-19T13:15:43.001Z</time></trkpt><trkpt lat="43.27049849121998" lon="11.884563074021303"><ele>245.5</ele><time>2026-04-19T13:15:44.001Z</time></trkpt><trkpt lat="43.270589620344055" lon="11.884901672633514"><ele>246.0</ele><time>2026-04-19T13:15:45Z</time></trkpt><trkpt lat="43.2706861092019" lon="11.885238614043145"><ele>246.0</ele><time>2026-04-19T13:15:46Z</time></trkpt><trkpt lat="43.27078858418188" lon="11.88557310435646"><ele>246.0</ele><time>2026-04-19T13:15:47Z</time></trkpt><trkpt lat="43.27089208694528" lon="11.8859004189516"><ele>245.5</ele><time>2026-04-19T13:15:48Z</time></trkpt><trkpt lat="43.270994982780145" lon="11.886229715287408"><ele>245.0</ele><time>2026-04-19T13:15:49Z</time></trkpt><trkpt lat="43.27109042028524" lon="11.886549370723246"><ele>245.0</ele><time>2026-04-19T13:15:50Z</time></trkpt><trkpt lat="43.271188767237945" lon="11.886878663302088"><ele>245.0</ele><time>2026-04-19T13:15:51Z</time></trkpt><trkpt lat="43.27128384350214" lon="11.887186748224916"><ele>245.0</ele><time>2026-04-19T13:15:52Z</time></trkpt><trkpt lat="43.271375267069224" lon="11.887476513964538"><ele>245.0</ele><time>2026-04-19T13:15:53Z</time></trkpt><trkpt lat="43.27146158991951" lon="11.887761000397392"><ele>245.66666666666669</ele><time>2026-04-19T13:15:54Z</time></trkpt><trkpt lat="43.27154097303314" lon="11.888033840983606"><ele>246.33333333333331</ele><time>2026-04-19T13:15:55Z</time></trkpt><trkpt lat="43.27161114250381" lon="11.888317211869117"><ele>247.0</ele><time>2026-04-19T13:15:56Z</time></trkpt><trkpt lat="43.27166600984009" lon="11.888616303346605"><ele>247.0</ele><time>2026-04-19T13:15:57Z</time></trkpt><trkpt lat="43.271711530389254" lon="11.888937689265122"><ele>247.0</ele><time>2026-04-19T13:15:58Z</time></trkpt><trkpt lat="43.27174938707645" lon="11.889279026103068"><ele>246.0</ele><time>2026-04-19T13:15:59Z</time></trkpt><trkpt lat="43.271787562275605" lon="11.889631401781399"><ele>245.0</ele><time>2026-04-19T13:16:00Z</time></trkpt><trkpt lat="43.27182546417197" lon="11.889997537263762"><ele>245.5</ele><time>2026-04-19T13:16:01Z</time></trkpt><trkpt lat="43.27187285678374" lon="11.89038130759029"><ele>246.0</ele><time>2026-04-19T13:16:02Z</time></trkpt><trkpt lat="43.27192206708071" lon="11.890778248815815"><ele>246.5</ele><time>2026-04-19T13:16:03Z</time></trkpt><trkpt lat="43.2719692135279" lon="11.89114327402936"><ele>247.0</ele><time>2026-04-19T13:16:04Z</time></trkpt><trkpt lat="43.272016169089355" lon="11.891494065689916"><ele>246.5</ele><time>2026-04-19T13:16:05Z</time></trkpt><trkpt lat="43.27206404563841" lon="11.891866505810448"><ele>246.0</ele><time>2026-04-19T13:16:06Z</time></trkpt><trkpt lat="43.272112935921" lon="11.892236062699949"><ele>246.5</ele><time>2026-04-19T13:16:07Z</time></trkpt><trkpt lat="43.27216240307707" lon="11.892609677613901"><ele>247.0</ele><time>2026-04-19T13:16:08Z</time></trkpt><trkpt lat="43.27221068202917" lon="11.892979955272201"><ele>247.0</ele><time>2026-04-19T13:16:09Z</time></trkpt><trkpt lat="43.27225632171967" lon="11.893349082355439"><ele>247.0</ele><time>2026-04-19T13:16:10Z</time></trkpt><trkpt lat="43.272299487062284" lon="11.893720364842208"><ele>246.5</ele><time>2026-04-19T13:16:11Z</time></trkpt><trkpt lat="43.27234251258105" lon="11.894091675273547"><ele>246.0</ele><time>2026-04-19T13:16:12Z</time></trkpt><trkpt lat="43.272387490439186" lon="11.894459121144088"><ele>246.0</ele><time>2026-04-19T13:16:13Z</time></trkpt><trkpt lat="43.272432752303004" lon="11.89481988627678"><ele>246.0</ele><time>2026-04-19T13:16:14Z</time></trkpt><trkpt lat="43.272475812295" lon="11.895170765017605"><ele>245.5</ele><time>2026-04-19T13:16:15Z</time></trkpt><trkpt lat="43.27250675317063" lon="11.895501706225197"><ele>245.0</ele><time>2026-04-19T13:16:16Z</time></trkpt><trkpt lat="43.272530726276564" lon="11.895811279480217"><ele>245.0</ele><time>2026-04-19T13:16:17Z</time></trkpt><trkpt lat="43.2725606827858" lon="11.89610478923246"><ele>245.0</ele><time>2026-04-19T13:16:18.001Z</time></trkpt><trkpt lat="43.27259544692579" lon="11.896361924165275"><ele>245.0</ele><time>2026-04-19T13:16:19.001Z</time></trkpt><trkpt lat="43.272631047353315" lon="11.896600778733013"><ele>245.0</ele><time>2026-04-19T13:16:20.001Z</time></trkpt><trkpt lat="43.27268046672329" lon="11.896801682969272"><ele>245.0</ele><time>2026-04-19T13:16:21.001Z</time></trkpt><trkpt lat="43.27276922613753" lon="11.89696384571041"><ele>245.0</ele><time>2026-04-19T13:16:22.001Z</time></trkpt><trkpt lat="43.27290030909821" lon="11.897095429079926"><ele>245.0</ele><time>2026-04-19T13:16:23.001Z</time></trkpt><trkpt lat="43.273063795906815" lon="11.897208593281213"><ele>245.0</ele><time>2026-04-19T13:16:24.001Z</time></trkpt><trkpt lat="43.273255484292754" lon="11.897315618531069"><ele>245.0</ele><time>2026-04-19T13:16:25.001Z</time></trkpt><trkpt lat="43.273466800024764" lon="11.897426668285643"><ele>245.0</ele><time>2026-04-19T13:16:26.001Z</time></trkpt><trkpt lat="43.273697683762784" lon="11.897540720437373"><ele>245.0</ele><time>2026-04-19T13:16:27.001Z</time></trkpt><trkpt lat="43.27393038591234" lon="11.897657055706375"><ele>245.5</ele><time>2026-04-19T13:16:28.001Z</time></trkpt><trkpt lat="43.274176344226035" lon="11.897784215222883"><ele>246.0</ele><time>2026-04-19T13:16:29.001Z</time></trkpt><trkpt lat="43.2744289900698" lon="11.8979186613382"><ele>246.0</ele><time>2026-04-19T13:16:30.001Z</time></trkpt><trkpt lat="43.27467850839492" lon="11.898050280089208"><ele>246.0</ele><time>2026-04-19T13:16:31.001Z</time></trkpt><trkpt lat="43.274911818399836" lon="11.898175354393588"><ele>245.5</ele><time>2026-04-19T13:16:32.001Z</time></trkpt><trkpt lat="43.27513454391233" lon="11.898295070896955"><ele>245.0</ele><time>2026-04-19T13:16:33.001Z</time></trkpt><trkpt lat="43.27534538567132" lon="11.898406235953162"><ele>245.0</ele><time>2026-04-19T13:16:34.001Z</time></trkpt><trkpt lat="43.275544750035756" lon="11.89850827550297"><ele>245.0</ele><time>2026-04-19T13:16:35.001Z</time></trkpt><trkpt lat="43.275731270973026" lon="11.898604542897692"><ele>245.0</ele><time>2026-04-19T13:16:36.001Z</time></trkpt><trkpt lat="43.275909288276516" lon="11.898694511130746"><ele>244.66666666666669</ele><time>2026-04-19T13:16:37.001Z</time></trkpt><trkpt lat="43.27607169119222" lon="11.898805867522663"><ele>244.33333333333331</ele><time>2026-04-19T13:16:38.001Z</time></trkpt><trkpt lat="43.27622986418667" lon="11.898895486579132"><ele>244.0</ele><time>2026-04-19T13:16:39.001Z</time></trkpt><trkpt lat="43.27637841008787" lon="11.898977999465552"><ele>244.33333333333331</ele><time>2026-04-19T13:16:40.001Z</time></trkpt><trkpt lat="43.27649381796806" lon="11.89914708186949"><ele>244.66666666666669</ele><time>2026-04-19T13:16:41.001Z</time></trkpt><trkpt lat="43.2766049229858" lon="11.899332343865463"><ele>245.0</ele><time>2026-04-19T13:16:42.001Z</time></trkpt><trkpt lat="43.2766908894648" lon="11.899545423252645"><ele>245.0</ele><time>2026-04-19T13:16:43.001Z</time></trkpt><trkpt lat="43.27674693412164" lon="11.899785659975874"><ele>245.0</ele><time>2026-04-19T13:16:44.001Z</time></trkpt><trkpt lat="43.27677327397967" lon="11.900041317979074"><ele>245.0</ele><time>2026-04-19T13:16:45.001Z</time></trkpt><trkpt lat="43.27678178129615" lon="11.900312323818236"><ele>244.33333333333334</ele><time>2026-04-19T13:16:46.001Z</time></trkpt><trkpt lat="43.27669861782009" lon="11.900575323552552"><ele>243.66666666666669</ele><time>2026-04-19T13:16:47.001Z</time></trkpt><trkpt lat="43.27664822653752" lon="11.900870726434464"><ele>243.0</ele><time>2026-04-19T13:16:48.001Z</time></trkpt><trkpt lat="43.27656531122938" lon="11.901176729751263"><ele>243.0</ele><time>2026-04-19T13:16:49.001Z</time></trkpt><trkpt lat="43.27648836660923" lon="11.901518497229556"><ele>243.0</ele><time>2026-04-19T13:16:50.001Z</time></trkpt><trkpt lat="43.27640308049321" lon="11.901898231369675"><ele>244.0</ele><time>2026-04-19T13:16:51.001Z</time></trkpt><trkpt lat="43.276318157804226" lon="11.902288168074392"><ele>245.0</ele><time>2026-04-19T13:16:52.001Z</time></trkpt><trkpt lat="43.276230514467606" lon="11.902629618119425"><ele>245.0</ele><time>2026-04-19T13:16:53.001Z</time></trkpt><trkpt lat="43.27615344920874" lon="11.90293021162393"><ele>245.0</ele><time>2026-04-19T13:16:54.001Z</time></trkpt><trkpt lat="43.27608538068084" lon="11.903208291824903"><ele>245.0</ele><time>2026-04-19T13:16:55.001Z</time></trkpt><trkpt lat="43.276020206700046" lon="11.903463158573482"><ele>245.0</ele><time>2026-04-19T13:16:56.001Z</time></trkpt><trkpt lat="43.275967858298195" lon="11.903693525535294"><ele>245.0</ele><time>2026-04-19T13:16:57.001Z</time></trkpt><trkpt lat="43.275933849235216" lon="11.903916097615546"><ele>245.0</ele><time>2026-04-19T13:16:58.001Z</time></trkpt><trkpt lat="43.275936476720254" lon="11.904129667283355"><ele>245.33333333333334</ele><time>2026-04-19T13:16:59.001Z</time></trkpt><trkpt lat="43.275984491310574" lon="11.904335740608216"><ele>245.66666666666669</ele><time>2026-04-19T13:17:00.001Z</time></trkpt><trkpt lat="43.27607831923064" lon="11.904518348208594"><ele>246.0</ele><time>2026-04-19T13:17:01.001Z</time></trkpt><trkpt lat="43.27620256599227" lon="11.904664661343753"><ele>246.0</ele><time>2026-04-19T13:17:02.001Z</time></trkpt><trkpt lat="43.276348883134546" lon="11.90475440246675"><ele>246.0</ele><time>2026-04-19T13:17:03.001Z</time></trkpt><trkpt lat="43.27651646609709" lon="11.904805204414469"><ele>246.0</ele><time>2026-04-19T13:17:04.001Z</time></trkpt><trkpt lat="43.276700306583386" lon="11.90484453234846"><ele>246.33333333333331</ele><time>2026-04-19T13:17:05.001Z</time></trkpt><trkpt lat="43.27689835759531" lon="11.904889325377194"><ele>246.66666666666666</ele><time>2026-04-19T13:17:06.001Z</time></trkpt><trkpt lat="43.27711420122072" lon="11.904955771434754"><ele>247.0</ele><time>2026-04-19T13:17:07.001Z</time></trkpt><trkpt lat="43.27734545652702" lon="11.905021516765459"><ele>248.0</ele><time>2026-04-19T13:17:08.001Z</time></trkpt><trkpt lat="43.27757753871148" lon="11.905086768783848"><ele>249.0</ele><time>2026-04-19T13:17:09.001Z</time></trkpt><trkpt lat="43.27780852219107" lon="11.905153943051067"><ele>249.0</ele><time>2026-04-19T13:17:10.001Z</time></trkpt><trkpt lat="43.278041887554444" lon="11.905245214200814"><ele>249.0</ele><time>2026-04-19T13:17:11.001Z</time></trkpt><trkpt lat="43.278288842084464" lon="11.905296916834228"><ele>249.0</ele><time>2026-04-19T13:17:12.001Z</time></trkpt><trkpt lat="43.278529407976876" lon="11.905371063554448"><ele>249.0</ele><time>2026-04-19T13:17:13.001Z</time></trkpt><trkpt lat="43.27877475456114" lon="11.905445973144744"><ele>248.0</ele><time>2026-04-19T13:17:14.001Z</time></trkpt><trkpt lat="43.27902241662896" lon="11.905526078888688"><ele>247.0</ele><time>2026-04-19T13:17:15.001Z</time></trkpt><trkpt lat="43.27927182788195" lon="11.905645460158793"><ele>247.0</ele><time>2026-04-19T13:17:16.001Z</time></trkpt><trkpt lat="43.27953100191002" lon="11.905737697933347"><ele>247.0</ele><time>2026-04-19T13:17:17.001Z</time></trkpt><trkpt lat="43.279792868581275" lon="11.905860369188524"><ele>247.0</ele><time>2026-04-19T13:17:18.001Z</time></trkpt><trkpt lat="43.280056662903846" lon="11.905984352995073"><ele>247.0</ele><time>2026-04-19T13:17:19.001Z</time></trkpt><trkpt lat="43.28031327874554" lon="11.906101180653549"><ele>247.0</ele><time>2026-04-19T13:17:20.001Z</time></trkpt><trkpt lat="43.28056796023209" lon="11.906213941719715"><ele>247.0</ele><time>2026-04-19T13:17:21.001Z</time></trkpt><trkpt lat="43.28082134083301" lon="11.90632527318172"><ele>247.0</ele><time>2026-04-19T13:17:22.001Z</time></trkpt><trkpt lat="43.2810768235052" lon="11.906441228023095"><ele>247.0</ele><time>2026-04-19T13:17:23.001Z</time></trkpt><trkpt lat="43.281332829849596" lon="11.906559322802176"><ele>247.0</ele><time>2026-04-19T13:17:24.001Z</time></trkpt><trkpt lat="43.2815677698509" lon="11.906688458933308"><ele>247.0</ele><time>2026-04-19T13:17:25.001Z</time></trkpt><trkpt lat="43.28175324664782" lon="11.906879270304639"><ele>247.0</ele><time>2026-04-19T13:17:26.001Z</time></trkpt><trkpt lat="43.28189901576173" lon="11.90709950935842"><ele>247.0</ele><time>2026-04-19T13:17:27.001Z</time></trkpt><trkpt lat="43.282035859687284" lon="11.907355335862773"><ele>247.0</ele><time>2026-04-19T13:17:28.001Z</time></trkpt><trkpt lat="43.28219076519262" lon="11.907615670239212"><ele>247.0</ele><time>2026-04-19T13:17:29.001Z</time></trkpt><trkpt lat="43.282336274633565" lon="11.907903006950548"><ele>247.0</ele><time>2026-04-19T13:17:30.001Z</time></trkpt><trkpt lat="43.28249546092295" lon="11.908191740683549"><ele>248.5</ele><time>2026-04-19T13:17:31.001Z</time></trkpt><trkpt lat="43.28264572872543" lon="11.90846230417564"><ele>250.0</ele><time>2026-04-19T13:17:32.001Z</time></trkpt><trkpt lat="43.28278416481921" lon="11.908710753063474"><ele>250.0</ele><time>2026-04-19T13:17:33.001Z</time></trkpt><trkpt lat="43.28291352417022" lon="11.908946744100522"><ele>250.0</ele><time>2026-04-19T13:17:34.001Z</time></trkpt><trkpt lat="43.283026397774094" lon="11.909159820523262"><ele>250.0</ele><time>2026-04-19T13:17:35.001Z</time></trkpt><trkpt lat="43.28310541073873" lon="11.909371799645044"><ele>248.66666666666666</ele><time>2026-04-19T13:17:36.001Z</time></trkpt><trkpt lat="43.28315980491682" lon="11.909580303237954"><ele>247.33333333333331</ele><time>2026-04-19T13:17:37.001Z</time></trkpt><trkpt lat="43.28333953443612" lon="11.909730489007355"><ele>246.0</ele><time>2026-04-19T13:17:38.001Z</time></trkpt><trkpt lat="43.283429272511306" lon="11.909901140012014"><ele>246.0</ele><time>2026-04-19T13:17:39.001Z</time></trkpt><trkpt lat="43.28350436157344" lon="11.910042275810932"><ele>246.0</ele><time>2026-04-19T13:17:40.001Z</time></trkpt><trkpt lat="43.28356832037071" lon="11.910180146116495"><ele>246.0</ele><time>2026-04-19T13:17:41.001Z</time></trkpt><trkpt lat="43.28360935992454" lon="11.910353350681023"><ele>246.0</ele><time>2026-04-19T13:17:42.001Z</time></trkpt><trkpt lat="43.28363390891419" lon="11.910542616479633"><ele>246.0</ele><time>2026-04-19T13:17:43.001Z</time></trkpt><trkpt lat="43.283669471936776" lon="11.910764883071668"><ele>246.0</ele><time>2026-04-19T13:17:44.001Z</time></trkpt><trkpt lat="43.28371036787742" lon="11.91102048005527"><ele>246.0</ele><time>2026-04-19T13:17:45.001Z</time></trkpt><trkpt lat="43.28376415757423" lon="11.911276491062994"><ele>245.5</ele><time>2026-04-19T13:17:46.001Z</time></trkpt><trkpt lat="43.28408551643817" lon="11.911471474059777"><ele>245.0</ele><time>2026-04-19T13:17:47.001Z</time></trkpt><trkpt lat="43.28417246932966" lon="11.911731405226448"><ele>245.0</ele><time>2026-04-19T13:17:48.001Z</time></trkpt><trkpt lat="43.284259428171715" lon="11.911981672772589"><ele>245.0</ele><time>2026-04-19T13:17:49.001Z</time></trkpt><trkpt lat="43.28434544364343" lon="11.912233271032255"><ele>245.0</ele><time>2026-04-19T13:17:50.001Z</time></trkpt><trkpt lat="43.28443062955912" lon="11.91248076597153"><ele>245.33333333333334</ele><time>2026-04-19T13:17:51Z</time></trkpt><trkpt lat="43.28451663527903" lon="11.912734915963512"><ele>245.66666666666669</ele><time>2026-04-19T13:17:52Z</time></trkpt><trkpt lat="43.284599580671" lon="11.912985049539788"><ele>246.0</ele><time>2026-04-19T13:17:53Z</time></trkpt><trkpt lat="43.28468912010241" lon="11.913242181163122"><ele>246.0</ele><time>2026-04-19T13:17:54Z</time></trkpt><trkpt lat="43.2847862710979" lon="11.913505870027755"><ele>246.0</ele><time>2026-04-19T13:17:55Z</time></trkpt><trkpt lat="43.28487992235052" lon="11.913760744384755"><ele>246.0</ele><time>2026-04-19T13:17:56Z</time></trkpt><trkpt lat="43.284968431685144" lon="11.914009552754585"><ele>246.0</ele><time>2026-04-19T13:17:57Z</time></trkpt><trkpt lat="43.28505706520881" lon="11.914233576811238"><ele>246.0</ele><time>2026-04-19T13:17:58Z</time></trkpt><trkpt lat="43.285139779467755" lon="11.914441708008736"><ele>246.0</ele><time>2026-04-19T13:17:59Z</time></trkpt><trkpt lat="43.285225924212654" lon="11.914660108323654"><ele>246.33333333333331</ele><time>2026-04-19T13:18:00Z</time></trkpt><trkpt lat="43.285321894851094" lon="11.914904097522253"><ele>246.66666666666666</ele><time>2026-04-19T13:18:01Z</time></trkpt><trkpt lat="43.28543190568777" lon="11.915183287123957"><ele>247.0</ele><time>2026-04-19T13:18:02Z</time></trkpt><trkpt lat="43.28553571085026" lon="11.915448026885567"><ele>246.33333333333331</ele><time>2026-04-19T13:18:03Z</time></trkpt><trkpt lat="43.285626307483305" lon="11.915682850021831"><ele>245.66666666666669</ele><time>2026-04-19T13:18:04Z</time></trkpt><trkpt lat="43.28571706281599" lon="11.915902792321143"><ele>245.0</ele><time>2026-04-19T13:18:05Z</time></trkpt><trkpt lat="43.28579442407187" lon="11.916112963325052"><ele>245.0</ele><time>2026-04-19T13:18:06Z</time></trkpt><trkpt lat="43.28587340074356" lon="11.916313340971552"><ele>245.0</ele><time>2026-04-19T13:18:07Z</time></trkpt><trkpt lat="43.28594862657924" lon="11.916489869176049"><ele>245.0</ele><time>2026-04-19T13:18:08Z</time></trkpt><trkpt lat="43.28601559220461" lon="11.916656426425652"><ele>245.2</ele><time>2026-04-19T13:18:09Z</time></trkpt><trkpt lat="43.2860758889841" lon="11.91680762782811"><ele>245.4</ele><time>2026-04-19T13:18:10Z</time></trkpt><trkpt lat="43.28613282926439" lon="11.916947230204471"><ele>245.60000000000002</ele><time>2026-04-19T13:18:11Z</time></trkpt><trkpt lat="43.28618144895156" lon="11.917072126636036"><ele>245.8</ele><time>2026-04-19T13:18:12Z</time></trkpt><trkpt lat="43.2862257706297" lon="11.917183239303178"><ele>246.0</ele><time>2026-04-19T13:18:13Z</time></trkpt><trkpt lat="43.28627008596454" lon="11.91728426373398"><ele>246.0</ele><time>2026-04-19T13:18:14Z</time></trkpt><trkpt lat="43.28631415451427" lon="11.917379606139294"><ele>246.0</ele><time>2026-04-19T13:18:15Z</time></trkpt><trkpt lat="43.286348033049016" lon="11.917469690709476"><ele>246.0</ele><time>2026-04-19T13:18:16Z</time></trkpt><trkpt lat="43.2863753607945" lon="11.917570879698474"><ele>246.0</ele><time>2026-04-19T13:18:17Z</time></trkpt><trkpt lat="43.286390628625846" lon="11.917690257655064"><ele>246.0</ele><time>2026-04-19T13:18:18Z</time></trkpt><trkpt lat="43.28638385139397" lon="11.917824884353411"><ele>246.0</ele><time>2026-04-19T13:18:19Z</time></trkpt><trkpt lat="43.28637253881142" lon="11.917970704903487"><ele>246.0</ele><time>2026-04-19T13:18:20Z</time></trkpt><trkpt lat="43.28636040694466" lon="11.91815924447684"><ele>246.0</ele><time>2026-04-19T13:18:21Z</time></trkpt><trkpt lat="43.28635588885436" lon="11.918372430640877"><ele>246.0</ele><time>2026-04-19T13:18:22Z</time></trkpt><trkpt lat="43.28635083200711" lon="11.918606797200615"><ele>246.33333333333331</ele><time>2026-04-19T13:18:23Z</time></trkpt><trkpt lat="43.28632483533036" lon="11.918875781738363"><ele>246.66666666666666</ele><time>2026-04-19T13:18:24Z</time></trkpt><trkpt lat="43.286317431540645" lon="11.919165319222648"><ele>247.0</ele><time>2026-04-19T13:18:25Z</time></trkpt><trkpt lat="43.28630214733543" lon="11.919438261524597"><ele>247.0</ele><time>2026-04-19T13:18:26Z</time></trkpt><trkpt lat="43.286292860948315" lon="11.919681190871591"><ele>247.0</ele><time>2026-04-19T13:18:27Z</time></trkpt><trkpt lat="43.286287753936215" lon="11.919917282391301"><ele>247.0</ele><time>2026-04-19T13:18:28Z</time></trkpt><trkpt lat="43.28627076721266" lon="11.920154485599367"><ele>246.66666666666666</ele><time>2026-04-19T13:18:29Z</time></trkpt><trkpt lat="43.2862603076139" lon="11.920373468686051"><ele>246.33333333333331</ele><time>2026-04-19T13:18:30Z</time></trkpt><trkpt lat="43.286250430514826" lon="11.920588249374033"><ele>246.0</ele><time>2026-04-19T13:18:31Z</time></trkpt><trkpt lat="43.28623880186957" lon="11.920796314066669"><ele>245.75</ele><time>2026-04-19T13:18:32Z</time></trkpt><trkpt lat="43.28622343272837" lon="11.92098931102467"><ele>245.5</ele><time>2026-04-19T13:18:33Z</time></trkpt><trkpt lat="43.28621265848799" lon="11.921187105437129"><ele>245.25</ele><time>2026-04-19T13:18:34.001Z</time></trkpt><trkpt lat="43.286204241773326" lon="11.921389909321997"><ele>245.0</ele><time>2026-04-19T13:18:35.001Z</time></trkpt><trkpt lat="43.28619450182053" lon="11.921578201356056"><ele>245.0</ele><time>2026-04-19T13:18:36.001Z</time></trkpt><trkpt lat="43.28618189391928" lon="11.921731961211371"><ele>245.0</ele><time>2026-04-19T13:18:37.001Z</time></trkpt><trkpt lat="43.28617775224524" lon="11.921866621894802"><ele>245.0</ele><time>2026-04-19T13:18:38.001Z</time></trkpt><trkpt lat="43.28619786717527" lon="11.921977970947422"><ele>245.0</ele><time>2026-04-19T13:18:39.001Z</time></trkpt><trkpt lat="43.28622486465374" lon="11.92208350554773"><ele>245.0</ele><time>2026-04-19T13:18:40.001Z</time></trkpt><trkpt lat="43.28622385409301" lon="11.922198349876687"><ele>245.0</ele><time>2026-04-19T13:18:41.001Z</time></trkpt><trkpt lat="43.28619437753505" lon="11.922349862211329"><ele>245.0</ele><time>2026-04-19T13:18:42.001Z</time></trkpt><trkpt lat="43.2861471526528" lon="11.922531053971788"><ele>245.0</ele><time>2026-04-19T13:18:43.001Z</time></trkpt><trkpt lat="43.28609832787324" lon="11.922729466117874"><ele>245.0</ele><time>2026-04-19T13:18:44.001Z</time></trkpt><trkpt lat="43.2860566472734" lon="11.922902350199116"><ele>245.25</ele><time>2026-04-19T13:18:45.001Z</time></trkpt><trkpt lat="43.28601026008489" lon="11.923078814408177"><ele>245.5</ele><time>2026-04-19T13:18:46.001Z</time></trkpt><trkpt lat="43.28596611521392" lon="11.923268957064185"><ele>245.75</ele><time>2026-04-19T13:18:47.001Z</time></trkpt><trkpt lat="43.28592490367544" lon="11.923465533033841"><ele>246.0</ele><time>2026-04-19T13:18:48.001Z</time></trkpt><trkpt lat="43.2858834076772" lon="11.92363862977963"><ele>246.0</ele><time>2026-04-19T13:18:49.001Z</time></trkpt><trkpt lat="43.28584473650967" lon="11.923804730000432"><ele>246.0</ele><time>2026-04-19T13:18:50.001Z</time></trkpt><trkpt lat="43.28580772566978" lon="11.923986474057983"><ele>246.0</ele><time>2026-04-19T13:18:51.001Z</time></trkpt><trkpt lat="43.285769538443226" lon="11.924177562776263"><ele>246.0</ele><time>2026-04-19T13:18:52.001Z</time></trkpt><trkpt lat="43.28572802687835" lon="11.92436935360209"><ele>245.75</ele><time>2026-04-19T13:18:53.001Z</time></trkpt><trkpt lat="43.28568906456178" lon="11.924567649748301"><ele>245.5</ele><time>2026-04-19T13:18:54.001Z</time></trkpt><trkpt lat="43.28564630689264" lon="11.92476400154182"><ele>245.25</ele><time>2026-04-19T13:18:55.001Z</time></trkpt><trkpt lat="43.2856036615416" lon="11.924958566386433"><ele>245.0</ele><time>2026-04-19T13:18:56.001Z</time></trkpt><trkpt lat="43.28555886624934" lon="11.92515292212892"><ele>245.66666666666669</ele><time>2026-04-19T13:18:57.001Z</time></trkpt><trkpt lat="43.28551297959617" lon="11.925357055363541"><ele>246.33333333333331</ele><time>2026-04-19T13:18:58.001Z</time></trkpt><trkpt lat="43.28546718548056" lon="11.925568616474724"><ele>247.0</ele><time>2026-04-19T13:18:59.001Z</time></trkpt><trkpt lat="43.28542247092882" lon="11.925786344204916"><ele>246.5</ele><time>2026-04-19T13:19:00.001Z</time></trkpt><trkpt lat="43.28538181154326" lon="11.925982193923044"><ele>246.0</ele><time>2026-04-19T13:19:01.001Z</time></trkpt><trkpt lat="43.285340939589524" lon="11.926157251996818"><ele>245.5</ele><time>2026-04-19T13:19:02.001Z</time></trkpt><trkpt lat="43.28529963143638" lon="11.926331104452611"><ele>245.0</ele><time>2026-04-19T13:19:03.001Z</time></trkpt><trkpt lat="43.28525565290054" lon="11.926523278192466"><ele>245.0</ele><time>2026-04-19T13:19:04.001Z</time></trkpt><trkpt lat="43.28520217837743" lon="11.926712484987252"><ele>245.0</ele><time>2026-04-19T13:19:05.001Z</time></trkpt><trkpt lat="43.28513515844839" lon="11.92695274532749"><ele>245.0</ele><time>2026-04-19T13:19:06.001Z</time></trkpt><trkpt lat="43.285058291201594" lon="11.927180587114739"><ele>245.0</ele><time>2026-04-19T13:19:07.001Z</time></trkpt><trkpt lat="43.28499845165067" lon="11.927419129001885"><ele>245.0</ele><time>2026-04-19T13:19:08.001Z</time></trkpt><trkpt lat="43.284939058035356" lon="11.92764583705553"><ele>245.0</ele><time>2026-04-19T13:19:09.001Z</time></trkpt><trkpt lat="43.28488572889413" lon="11.927848629593822"><ele>245.5</ele><time>2026-04-19T13:19:10.001Z</time></trkpt><trkpt lat="43.284832787342" lon="11.9280450082025"><ele>246.0</ele><time>2026-04-19T13:19:11.001Z</time></trkpt><trkpt lat="43.28478546625382" lon="11.928219296747987"><ele>246.5</ele><time>2026-04-19T13:19:12.001Z</time></trkpt><trkpt lat="43.28474682634734" lon="11.928360989197792"><ele>247.0</ele><time>2026-04-19T13:19:13.001Z</time></trkpt><trkpt lat="43.28472991310662" lon="11.928487531348702"><ele>247.0</ele><time>2026-04-19T13:19:14.001Z</time></trkpt><trkpt lat="43.28469140033237" lon="11.92858348597804"><ele>247.0</ele><time>2026-04-19T13:19:15.001Z</time></trkpt><trkpt lat="43.2846562489273" lon="11.928734397660236"><ele>247.0</ele><time>2026-04-19T13:19:17.001Z</time></trkpt><trkpt lat="43.2846593064143" lon="11.928860167885269"><ele>247.0</ele><time>2026-04-19T13:19:19.001Z</time></trkpt><trkpt lat="43.284723314893014" lon="11.92896449763718"><ele>247.0</ele><time>2026-04-19T13:19:21.001Z</time></trkpt><trkpt lat="43.28478011957446" lon="11.92900855392052"><ele>247.0</ele><time>2026-04-19T13:19:22.001Z</time></trkpt><trkpt lat="43.28485217322163" lon="11.929033261810506"><ele>247.0</ele><time>2026-04-19T13:19:23.001Z</time></trkpt><trkpt lat="43.284934107090706" lon="11.929059133912027"><ele>247.0</ele><time>2026-04-19T13:19:24.001Z</time></trkpt><trkpt lat="43.28502200456151" lon="11.929092594283034"><ele>247.0</ele><time>2026-04-19T13:19:25.001Z</time></trkpt><trkpt lat="43.28512476204878" lon="11.929130453155071"><ele>247.0</ele><time>2026-04-19T13:19:26.001Z</time></trkpt><trkpt lat="43.28523249013213" lon="11.929172726218027"><ele>246.99999999999997</ele><time>2026-04-19T13:19:27.001Z</time></trkpt><trkpt lat="43.28533572046477" lon="11.929213949481941"><ele>247.0</ele><time>2026-04-19T13:19:28.001Z</time></trkpt><trkpt lat="43.28541640570604" lon="11.929245223582909"><ele>247.0</ele><time>2026-04-19T13:19:29.001Z</time></trkpt><trkpt lat="43.285479556310264" lon="11.929274905501298"><ele>247.0</ele><time>2026-04-19T13:19:30.001Z</time></trkpt><trkpt lat="43.28556659201676" lon="11.929309473342729"><ele>246.99999999999997</ele><time>2026-04-19T13:19:32.001Z</time></trkpt><trkpt lat="43.285629388063285" lon="11.929356423785956"><ele>247.0</ele><time>2026-04-19T13:19:34.001Z</time></trkpt><trkpt lat="43.285698155301496" lon="11.929364465983921"><ele>247.0</ele><time>2026-04-19T13:19:36.001Z</time></trkpt><trkpt lat="43.285762286896826" lon="11.929390757098439"><ele>247.0</ele><time>2026-04-19T13:19:37.001Z</time></trkpt><trkpt lat="43.28584001123229" lon="11.92942356756526"><ele>247.0</ele><time>2026-04-19T13:19:38.001Z</time></trkpt><trkpt lat="43.28593762545679" lon="11.929463921391397"><ele>247.0</ele><time>2026-04-19T13:19:39.001Z</time></trkpt><trkpt lat="43.28603620293239" lon="11.929505650681428"><ele>247.0</ele><time>2026-04-19T13:19:40.001Z</time></trkpt><trkpt lat="43.28613452718547" lon="11.929547374609303"><ele>246.99999999999997</ele><time>2026-04-19T13:19:41.001Z</time></trkpt><trkpt lat="43.28622436700502" lon="11.929584627509223"><ele>247.0</ele><time>2026-04-19T13:19:42.001Z</time></trkpt><trkpt lat="43.286316062466064" lon="11.929624036060135"><ele>247.0</ele><time>2026-04-19T13:19:43.001Z</time></trkpt><trkpt lat="43.2863935233026" lon="11.92965525557663"><ele>247.0</ele><time>2026-04-19T13:19:44.001Z</time></trkpt><trkpt lat="43.28646491828566" lon="11.929685009174321"><ele>246.99999999999997</ele><time>2026-04-19T13:19:45.001Z</time></trkpt><trkpt lat="43.28653052143222" lon="11.929713221282062"><ele>247.0</ele><time>2026-04-19T13:19:46.001Z</time></trkpt><trkpt lat="43.28659947118896" lon="11.929730608477453"><ele>246.8</ele><time>2026-04-19T13:19:47.001Z</time></trkpt><trkpt lat="43.28665669019742" lon="11.929774054985959"><ele>246.6</ele><time>2026-04-19T13:19:48.001Z</time></trkpt><trkpt lat="43.286737478248185" lon="11.929807368467836"><ele>246.40000000000003</ele><time>2026-04-19T13:19:50.001Z</time></trkpt><trkpt lat="43.28682992932506" lon="11.929845152802056"><ele>246.20000000000002</ele><time>2026-04-19T13:20:01Z</time></trkpt><trkpt lat="43.28690944860037" lon="11.929881307140509"><ele>246.0</ele><time>2026-04-19T13:20:03Z</time></trkpt><trkpt lat="43.287025116346506" lon="11.92993357763455"><ele>246.0</ele><time>2026-04-19T13:20:05Z</time></trkpt><trkpt lat="43.28710348036861" lon="11.929970153527156"><ele>246.0</ele><time>2026-04-19T13:20:06Z</time></trkpt><trkpt lat="43.28718168234993" lon="11.930006653839163"><ele>246.0</ele><time>2026-04-19T13:20:07Z</time></trkpt><trkpt lat="43.28726666600858" lon="11.930046319463079"><ele>246.0</ele><time>2026-04-19T13:20:08Z</time></trkpt><trkpt lat="43.28735725275494" lon="11.93008994440735"><ele>246.0</ele><time>2026-04-19T13:20:09Z</time></trkpt><trkpt lat="43.287445029289024" lon="11.930132163727002"><ele>246.0</ele><time>2026-04-19T13:20:10Z</time></trkpt><trkpt lat="43.28752408421609" lon="11.930170811626642"><ele>245.8</ele><time>2026-04-19T13:20:11Z</time></trkpt><trkpt lat="43.28762381641299" lon="11.930220853810587"><ele>245.60000000000002</ele><time>2026-04-19T13:20:12Z</time></trkpt><trkpt lat="43.28772824880221" lon="11.930253578503757"><ele>245.4</ele><time>2026-04-19T13:20:13Z</time></trkpt><trkpt lat="43.2878130109249" lon="11.930304514975822"><ele>245.2</ele><time>2026-04-19T13:20:14Z</time></trkpt><trkpt lat="43.28788869354593" lon="11.930346392629927"><ele>245.0</ele><time>2026-04-19T13:20:15Z</time></trkpt><trkpt lat="43.287977848626475" lon="11.93039849511404"><ele>245.0</ele><time>2026-04-19T13:20:16Z</time></trkpt><trkpt lat="43.28807701102535" lon="11.930448251422048"><ele>245.0</ele><time>2026-04-19T13:20:17Z</time></trkpt><trkpt lat="43.28817844761113" lon="11.930482189874478"><ele>245.0</ele><time>2026-04-19T13:20:18Z</time></trkpt><trkpt lat="43.288280872494255" lon="11.93054870527643"><ele>245.0</ele><time>2026-04-19T13:20:19Z</time></trkpt><trkpt lat="43.28838161633099" lon="11.930594339062209"><ele>245.0</ele><time>2026-04-19T13:20:20Z</time></trkpt><trkpt lat="43.28849160764007" lon="11.930674424717564"><ele>245.0</ele><time>2026-04-19T13:20:21Z</time></trkpt><trkpt lat="43.28859369781472" lon="11.930762098370195"><ele>245.0</ele><time>2026-04-19T13:20:22Z</time></trkpt><trkpt lat="43.288685981677055" lon="11.930852177176433"><ele>245.0</ele><time>2026-04-19T13:20:23Z</time></trkpt><trkpt lat="43.28878638743854" lon="11.93095253707772"><ele>245.0</ele><time>2026-04-19T13:20:24Z</time></trkpt><trkpt lat="43.28887548036572" lon="11.931039461774732"><ele>245.25</ele><time>2026-04-19T13:20:25Z</time></trkpt><trkpt lat="43.288961956047395" lon="11.931121413868965"><ele>245.5</ele><time>2026-04-19T13:20:26.001Z</time></trkpt><trkpt lat="43.28905623116087" lon="11.931211658038828"><ele>245.75</ele><time>2026-04-19T13:20:27.001Z</time></trkpt><trkpt lat="43.28915329661843" lon="11.93130572804772"><ele>246.0</ele><time>2026-04-19T13:20:28.001Z</time></trkpt><trkpt lat="43.28925767048391" lon="11.93138274894317"><ele>246.0</ele><time>2026-04-19T13:20:29.001Z</time></trkpt><trkpt lat="43.289352080248605" lon="11.931490433186653"><ele>246.0</ele><time>2026-04-19T13:20:30.001Z</time></trkpt><trkpt lat="43.28945646582586" lon="11.931603803609054"><ele>246.0</ele><time>2026-04-19T13:20:31.001Z</time></trkpt><trkpt lat="43.28955034054158" lon="11.931708712559281"><ele>246.0</ele><time>2026-04-19T13:20:32.001Z</time></trkpt><trkpt lat="43.289637511476215" lon="11.931801379419706"><ele>245.8</ele><time>2026-04-19T13:20:33.001Z</time></trkpt><trkpt lat="43.28972377259704" lon="11.931899522997947"><ele>245.60000000000002</ele><time>2026-04-19T13:20:34.001Z</time></trkpt><trkpt lat="43.28980986457233" lon="11.931992968877063"><ele>245.4</ele><time>2026-04-19T13:20:35.001Z</time></trkpt><trkpt lat="43.289900204964695" lon="11.93207928689403"><ele>245.2</ele><time>2026-04-19T13:20:36.001Z</time></trkpt><trkpt lat="43.28997956132843" lon="11.93217943995074"><ele>245.0</ele><time>2026-04-19T13:20:37.001Z</time></trkpt><trkpt lat="43.29006110896146" lon="11.932266612506794"><ele>245.0</ele><time>2026-04-19T13:20:38.001Z</time></trkpt><trkpt lat="43.29013670831736" lon="11.932328906501235"><ele>245.0</ele><time>2026-04-19T13:20:39.001Z</time></trkpt><trkpt lat="43.290210090222125" lon="11.932413732610893"><ele>245.0</ele><time>2026-04-19T13:20:40.001Z</time></trkpt><trkpt lat="43.29030552809804" lon="11.932503151578443"><ele>245.0</ele><time>2026-04-19T13:20:41.001Z</time></trkpt><trkpt lat="43.290416563826106" lon="11.932584651133114"><ele>245.0</ele><time>2026-04-19T13:20:42.001Z</time></trkpt><trkpt lat="43.29054548044056" lon="11.932663135448928"><ele>244.75</ele><time>2026-04-19T13:20:43.001Z</time></trkpt><trkpt lat="43.290663678822305" lon="11.932751039460218"><ele>244.5</ele><time>2026-04-19T13:20:44.001Z</time></trkpt><trkpt lat="43.29079483174893" lon="11.932826902419192"><ele>244.25</ele><time>2026-04-19T13:20:45.001Z</time></trkpt><trkpt lat="43.29092517555332" lon="11.932900774828624"><ele>244.0</ele><time>2026-04-19T13:20:46.001Z</time></trkpt><trkpt lat="43.29105761163698" lon="11.932974895708654"><ele>244.0</ele><time>2026-04-19T13:20:47.001Z</time></trkpt><trkpt lat="43.29118851379466" lon="11.933029476863863"><ele>244.0</ele><time>2026-04-19T13:20:48.001Z</time></trkpt><trkpt lat="43.29131221508068" lon="11.933123982711413"><ele>244.0</ele><time>2026-04-19T13:20:49.001Z</time></trkpt><trkpt lat="43.29145413321881" lon="11.933211814413086"><ele>244.0</ele><time>2026-04-19T13:20:50.001Z</time></trkpt><trkpt lat="43.29159337292923" lon="11.93327676425189"><ele>244.5</ele><time>2026-04-19T13:20:51.001Z</time></trkpt><trkpt lat="43.29170401285942" lon="11.933337505357292"><ele>245.0</ele><time>2026-04-19T13:20:52.001Z</time></trkpt><trkpt lat="43.291808921525266" lon="11.933389593734073"><ele>245.5</ele><time>2026-04-19T13:20:53.001Z</time></trkpt><trkpt lat="43.29190836426067" lon="11.933458022660673"><ele>246.0</ele><time>2026-04-19T13:20:54.001Z</time></trkpt><trkpt lat="43.29201655035976" lon="11.933526140327126"><ele>246.0</ele><time>2026-04-19T13:20:55.001Z</time></trkpt><trkpt lat="43.29212295491994" lon="11.933628138375884"><ele>246.0</ele><time>2026-04-19T13:20:56.001Z</time></trkpt><trkpt lat="43.2922463345089" lon="11.933750344050894"><ele>246.0</ele><time>2026-04-19T13:20:57.001Z</time></trkpt><trkpt lat="43.29235512858861" lon="11.933855339769107"><ele>246.0</ele><time>2026-04-19T13:20:58.001Z</time></trkpt><trkpt lat="43.292467730988136" lon="11.933962940538898"><ele>245.75</ele><time>2026-04-19T13:20:59.001Z</time></trkpt><trkpt lat="43.292565903387136" lon="11.934062583171002"><ele>245.5</ele><time>2026-04-19T13:21:00.001Z</time></trkpt><trkpt lat="43.29266213334626" lon="11.934163071067019"><ele>245.25</ele><time>2026-04-19T13:21:01.001Z</time></trkpt><trkpt lat="43.292761536102134" lon="11.934263491713349"><ele>245.0</ele><time>2026-04-19T13:21:02.001Z</time></trkpt><trkpt lat="43.29285024586955" lon="11.934349997290097"><ele>245.00000000000003</ele><time>2026-04-19T13:21:03.001Z</time></trkpt><trkpt lat="43.2929230163327" lon="11.934419851910535"><ele>245.0</ele><time>2026-04-19T13:21:04.001Z</time></trkpt><trkpt lat="43.292986699740524" lon="11.93447934837479"><ele>245.0</ele><time>2026-04-19T13:21:05.001Z</time></trkpt><trkpt lat="43.293055255423184" lon="11.934529035550286"><ele>245.0</ele><time>2026-04-19T13:21:06.001Z</time></trkpt><trkpt lat="43.293125863829644" lon="11.934549252980336"><ele>245.00000000000003</ele><time>2026-04-19T13:21:07.001Z</time></trkpt><trkpt lat="43.293200255422114" lon="11.93448741499129"><ele>245.0</ele><time>2026-04-19T13:21:08.001Z</time></trkpt><trkpt lat="43.29327451291021" lon="11.934426622418348"><ele>245.0</ele><time>2026-04-19T13:21:09.001Z</time></trkpt><trkpt lat="43.293366507567505" lon="11.934380289562037"><ele>245.0</ele><time>2026-04-19T13:21:10.001Z</time></trkpt><trkpt lat="43.293452603789234" lon="11.934318747278496"><ele>245.0</ele><time>2026-04-19T13:21:11.001Z</time></trkpt><trkpt lat="43.2935464439274" lon="11.93425396678398"><ele>245.0</ele><time>2026-04-19T13:21:12.001Z</time></trkpt><trkpt lat="43.293641474944316" lon="11.934188364041905"><ele>245.0</ele><time>2026-04-19T13:21:13.001Z</time></trkpt><trkpt lat="43.29373897613149" lon="11.934121056178865"><ele>245.0</ele><time>2026-04-19T13:21:14.001Z</time></trkpt><trkpt lat="43.29384955839539" lon="11.934044479817338"><ele>245.0</ele><time>2026-04-19T13:21:15.001Z</time></trkpt><trkpt lat="43.293978470389746" lon="11.933951205775093"><ele>245.0</ele><time>2026-04-19T13:21:16.001Z</time></trkpt><trkpt lat="43.29411379187993" lon="11.933851647001484"><ele>245.0</ele><time>2026-04-19T13:21:17.001Z</time></trkpt><trkpt lat="43.29425146724166" lon="11.933752547117804"><ele>245.0</ele><time>2026-04-19T13:21:18.001Z</time></trkpt><trkpt lat="43.294390842327225" lon="11.933654187611165"><ele>245.0</ele><time>2026-04-19T13:21:19.001Z</time></trkpt><trkpt lat="43.294519050644226" lon="11.93353764525248"><ele>245.0</ele><time>2026-04-19T13:21:20.001Z</time></trkpt><trkpt lat="43.2946638452747" lon="11.933458608378983"><ele>244.66666666666669</ele><time>2026-04-19T13:21:21.001Z</time></trkpt><trkpt lat="43.29480155787706" lon="11.933360015709924"><ele>244.33333333333331</ele><time>2026-04-19T13:21:22.001Z</time></trkpt><trkpt lat="43.29494254975327" lon="11.933263712037482"><ele>244.0</ele><time>2026-04-19T13:21:23.001Z</time></trkpt><trkpt lat="43.29508236212928" lon="11.933166173113522"><ele>244.0</ele><time>2026-04-19T13:21:24.001Z</time></trkpt><trkpt lat="43.29522270654806" lon="11.933068109360432"><ele>244.0</ele><time>2026-04-19T13:21:25.001Z</time></trkpt><trkpt lat="43.29536053443589" lon="11.932971803877736"><ele>244.0</ele><time>2026-04-19T13:21:26.001Z</time></trkpt><trkpt lat="43.29549675224183" lon="11.932877507150977"><ele>244.33333333333331</ele><time>2026-04-19T13:21:27.001Z</time></trkpt><trkpt lat="43.295642131465" lon="11.932793141477514"><ele>244.66666666666669</ele><time>2026-04-19T13:21:28.001Z</time></trkpt><trkpt lat="43.29578701160788" lon="11.932728552046578"><ele>245.0</ele><time>2026-04-19T13:21:29.001Z</time></trkpt><trkpt lat="43.29594550015731" lon="11.932665080329501"><ele>245.0</ele><time>2026-04-19T13:21:30.001Z</time></trkpt><trkpt lat="43.29610746137376" lon="11.932587495073289"><ele>245.0</ele><time>2026-04-19T13:21:31.001Z</time></trkpt><trkpt lat="43.29628092780313" lon="11.932529175860404"><ele>245.0</ele><time>2026-04-19T13:21:32.001Z</time></trkpt><trkpt lat="43.296450139280395" lon="11.932466808735995"><ele>245.33333333333334</ele><time>2026-04-19T13:21:33.001Z</time></trkpt><trkpt lat="43.296622444666056" lon="11.932405194797838"><ele>245.66666666666669</ele><time>2026-04-19T13:21:34.001Z</time></trkpt><trkpt lat="43.29679699940432" lon="11.932342405547617"><ele>246.0</ele><time>2026-04-19T13:21:35.001Z</time></trkpt><trkpt lat="43.29697259925238" lon="11.932281492270599"><ele>246.0</ele><time>2026-04-19T13:21:36.001Z</time></trkpt><trkpt lat="43.297140960766605" lon="11.932219291266547"><ele>246.0</ele><time>2026-04-19T13:21:37.001Z</time></trkpt><trkpt lat="43.297291338071005" lon="11.932165202384715"><ele>246.0</ele><time>2026-04-19T13:21:38.001Z</time></trkpt><trkpt lat="43.297424254685936" lon="11.932122909557375"><ele>246.20000000000002</ele><time>2026-04-19T13:21:39.001Z</time></trkpt><trkpt lat="43.297547481094824" lon="11.932078745177524"><ele>246.40000000000003</ele><time>2026-04-19T13:21:40.001Z</time></trkpt><trkpt lat="43.29765472626385" lon="11.932038203142096"><ele>246.6</ele><time>2026-04-19T13:21:41.001Z</time></trkpt><trkpt lat="43.29774912494019" lon="11.932004066946"><ele>246.8</ele><time>2026-04-19T13:21:42.001Z</time></trkpt><trkpt lat="43.29783654707738" lon="11.93199510997873"><ele>247.0</ele><time>2026-04-19T13:21:43.001Z</time></trkpt><trkpt lat="43.297916561734645" lon="11.931948306442276"><ele>247.0</ele><time>2026-04-19T13:21:44.001Z</time></trkpt><trkpt lat="43.29799267985048" lon="11.931873310378256"><ele>247.0</ele><time>2026-04-19T13:21:45.001Z</time></trkpt><trkpt lat="43.29803463059129" lon="11.931729691291943"><ele>247.0</ele><time>2026-04-19T13:21:46.001Z</time></trkpt><trkpt lat="43.298087974757365" lon="11.931583791138936"><ele>247.0</ele><time>2026-04-19T13:21:47.001Z</time></trkpt><trkpt lat="43.298144565024174" lon="11.9314071835908"><ele>246.0</ele><time>2026-04-19T13:21:48.001Z</time></trkpt><trkpt lat="43.298208812190424" lon="11.931205390283743"><ele>245.0</ele><time>2026-04-19T13:21:49.001Z</time></trkpt><trkpt lat="43.29829170107149" lon="11.931002690692987"><ele>244.0</ele><time>2026-04-19T13:21:50.001Z</time></trkpt><trkpt lat="43.29836946104396" lon="11.930768532727573"><ele>244.0</ele><time>2026-04-19T13:21:51.001Z</time></trkpt><trkpt lat="43.29844381532166" lon="11.930530996778117"><ele>244.0</ele><time>2026-04-19T13:21:52.001Z</time></trkpt><trkpt lat="43.29850916905427" lon="11.930280125614209"><ele>244.0</ele><time>2026-04-19T13:21:53.001Z</time></trkpt><trkpt lat="43.29858588909879" lon="11.930026344382773"><ele>244.0</ele><time>2026-04-19T13:21:54.001Z</time></trkpt><trkpt lat="43.29866106049721" lon="11.929755376632869"><ele>244.0</ele><time>2026-04-19T13:21:55.001Z</time></trkpt><trkpt lat="43.298732843520284" lon="11.929498484926913"><ele>244.0</ele><time>2026-04-19T13:21:56.001Z</time></trkpt><trkpt lat="43.298796780202935" lon="11.929266373416237"><ele>244.0</ele><time>2026-04-19T13:21:57.001Z</time></trkpt><trkpt lat="43.29885814813299" lon="11.929051734522153"><ele>244.0</ele><time>2026-04-19T13:21:58.001Z</time></trkpt><trkpt lat="43.29893426781535" lon="11.928845242823217"><ele>244.0</ele><time>2026-04-19T13:21:59.001Z</time></trkpt><trkpt lat="43.29897319929168" lon="11.92864616666031"><ele>244.5</ele><time>2026-04-19T13:22:00.001Z</time></trkpt><trkpt lat="43.299038004411734" lon="11.92847906887617"><ele>245.0</ele><time>2026-04-19T13:22:01.001Z</time></trkpt><trkpt lat="43.29908821545274" lon="11.928299936547303"><ele>245.5</ele><time>2026-04-19T13:22:02.001Z</time></trkpt><trkpt lat="43.29913356187244" lon="11.928138159256104"><ele>246.0</ele><time>2026-04-19T13:22:03.001Z</time></trkpt><trkpt lat="43.29915739506633" lon="11.92798717258037"><ele>246.0</ele><time>2026-04-19T13:22:04.001Z</time></trkpt><trkpt lat="43.29918796269256" lon="11.927871726536377"><ele>246.00000000000003</ele><time>2026-04-19T13:22:05.001Z</time></trkpt><trkpt lat="43.29921928280723" lon="11.927779403594428"><ele>246.00000000000003</ele><time>2026-04-19T13:22:06.001Z</time></trkpt><trkpt lat="43.29929591008208" lon="11.92768639006314"><ele>246.0</ele><time>2026-04-19T13:22:08.001Z</time></trkpt><trkpt lat="43.29941237008617" lon="11.927675240432679"><ele>246.0</ele><time>2026-04-19T13:22:10Z</time></trkpt><trkpt lat="43.29950287399783" lon="11.927761592295752"><ele>246.0</ele><time>2026-04-19T13:22:11Z</time></trkpt><trkpt lat="43.29960073922967" lon="11.92779439088281"><ele>246.0</ele><time>2026-04-19T13:22:12Z</time></trkpt><trkpt lat="43.29971313213249" lon="11.927830154344614"><ele>246.0</ele><time>2026-04-19T13:22:13Z</time></trkpt><trkpt lat="43.29983410864012" lon="11.92786637599295"><ele>246.0</ele><time>2026-04-19T13:22:14Z</time></trkpt><trkpt lat="43.29994647467851" lon="11.927892929703981"><ele>246.0</ele><time>2026-04-19T13:22:15Z</time></trkpt><trkpt lat="43.30004060624463" lon="11.927906663429784"><ele>246.00000000000003</ele><time>2026-04-19T13:22:16Z</time></trkpt><trkpt lat="43.3001251744247" lon="11.927941716022016"><ele>246.00000000000003</ele><time>2026-04-19T13:22:17Z</time></trkpt><trkpt lat="43.300202193242505" lon="11.928040252257599"><ele>246.0</ele><time>2026-04-19T13:22:18Z</time></trkpt><trkpt lat="43.3002680339997" lon="11.928173352645134"><ele>246.0</ele><time>2026-04-19T13:22:19Z</time></trkpt><trkpt lat="43.30036211729931" lon="11.928319084758787"><ele>246.0</ele><time>2026-04-19T13:22:20Z</time></trkpt><trkpt lat="43.30044913441327" lon="11.928502605537767"><ele>246.0</ele><time>2026-04-19T13:22:21Z</time></trkpt><trkpt lat="43.30055806291107" lon="11.928682774738723"><ele>246.0</ele><time>2026-04-19T13:22:22Z</time></trkpt><trkpt lat="43.300685154146294" lon="11.928841273874092"><ele>247.0</ele><time>2026-04-19T13:22:23Z</time></trkpt><trkpt lat="43.300842473334384" lon="11.928986979947181"><ele>248.0</ele><time>2026-04-19T13:22:24Z</time></trkpt><trkpt lat="43.30100926987389" lon="11.929144935625287"><ele>249.0</ele><time>2026-04-19T13:22:25.001Z</time></trkpt><trkpt lat="43.301181760614725" lon="11.9292918515111"><ele>249.33333333333331</ele><time>2026-04-19T13:22:26.001Z</time></trkpt><trkpt lat="43.30133563492861" lon="11.929422194780532"><ele>249.66666666666666</ele><time>2026-04-19T13:22:27.001Z</time></trkpt><trkpt lat="43.30147497128439" lon="11.929551334377622"><ele>250.0</ele><time>2026-04-19T13:22:28.001Z</time></trkpt><trkpt lat="43.301611645592466" lon="11.929699582060904"><ele>251.33333333333331</ele><time>2026-04-19T13:22:29.001Z</time></trkpt><trkpt lat="43.30172224693772" lon="11.9298422935578"><ele>252.66666666666669</ele><time>2026-04-19T13:22:30.001Z</time></trkpt><trkpt lat="43.30182907415383" lon="11.929994715968666"><ele>254.0</ele><time>2026-04-19T13:22:31.001Z</time></trkpt><trkpt lat="43.301927360548206" lon="11.93015552573807"><ele>254.0</ele><time>2026-04-19T13:22:32.001Z</time></trkpt><trkpt lat="43.30201599728598" lon="11.930304460444306"><ele>254.0</ele><time>2026-04-19T13:22:33.001Z</time></trkpt><trkpt lat="43.30209562999936" lon="11.930432998697468"><ele>254.0</ele><time>2026-04-19T13:22:34.001Z</time></trkpt><trkpt lat="43.30217122707221" lon="11.930555088013831"><ele>254.0</ele><time>2026-04-19T13:22:35.001Z</time></trkpt><trkpt lat="43.302236069073174" lon="11.930685749658705"><ele>254.75</ele><time>2026-04-19T13:22:36.001Z</time></trkpt><trkpt lat="43.30228353817319" lon="11.9308517693335"><ele>255.5</ele><time>2026-04-19T13:22:37.001Z</time></trkpt><trkpt lat="43.30230490687675" lon="11.931043076475074"><ele>256.25</ele><time>2026-04-19T13:22:38.001Z</time></trkpt><trkpt lat="43.30230383070382" lon="11.931262077682874"><ele>257.0</ele><time>2026-04-19T13:22:39.001Z</time></trkpt><trkpt lat="43.30229631990116" lon="11.931456384390629"><ele>258.0</ele><time>2026-04-19T13:22:40.001Z</time></trkpt><trkpt lat="43.30228805584203" lon="11.931641633856971"><ele>259.0</ele><time>2026-04-19T13:22:41.001Z</time></trkpt><trkpt lat="43.30228167577006" lon="11.931828714795332"><ele>260.0</ele><time>2026-04-19T13:22:42.001Z</time></trkpt><trkpt lat="43.302314473473956" lon="11.931981519941894"><ele>261.0</ele><time>2026-04-19T13:22:43.001Z</time></trkpt><trkpt lat="43.302358395609616" lon="11.932109188990598"><ele>261.6666666666667</ele><time>2026-04-19T13:22:44.001Z</time></trkpt><trkpt lat="43.302414502280826" lon="11.932211149432181"><ele>262.3333333333333</ele><time>2026-04-19T13:22:45.001Z</time></trkpt><trkpt lat="43.30245796222735" lon="11.932312389183029"><ele>263.0</ele><time>2026-04-19T13:22:46.001Z</time></trkpt><trkpt lat="43.30250029868682" lon="11.932383689913744"><ele>263.66666666666663</ele><time>2026-04-19T13:22:47.001Z</time></trkpt><trkpt lat="43.302561102061624" lon="11.932510736764929"><ele>264.3333333333333</ele><time>2026-04-19T13:22:49.001Z</time></trkpt><trkpt lat="43.30262308005975" lon="11.932583678169573"><ele>265.0</ele><time>2026-04-19T13:22:57.001Z</time></trkpt><trkpt lat="43.302735695226275" lon="11.932512414356703"><ele>265.0</ele><time>2026-04-19T13:22:58.001Z</time></trkpt><trkpt lat="43.302833984348084" lon="11.932396871957529"><ele>265.0</ele><time>2026-04-19T13:22:59.001Z</time></trkpt><trkpt lat="43.30295461651792" lon="11.932247429143297"><ele>265.0</ele><time>2026-04-19T13:23:00.001Z</time></trkpt><trkpt lat="43.303092214563044" lon="11.932086996286666"><ele>265.0</ele><time>2026-04-19T13:23:01.001Z</time></trkpt><trkpt lat="43.30328559491884" lon="11.931931730237585"><ele>265.0</ele><time>2026-04-19T13:23:02.001Z</time></trkpt><trkpt lat="43.30350127555637" lon="11.93174844095457"><ele>264.0</ele><time>2026-04-19T13:23:03.001Z</time></trkpt><trkpt lat="43.30371814056563" lon="11.931550197369823"><ele>263.0</ele><time>2026-04-19T13:23:04.001Z</time></trkpt><trkpt lat="43.30392449395025" lon="11.931394940961463"><ele>263.0</ele><time>2026-04-19T13:23:05.001Z</time></trkpt><trkpt lat="43.30411520357547" lon="11.931228141225748"><ele>263.0</ele><time>2026-04-19T13:23:06.001Z</time></trkpt><trkpt lat="43.30428746409382" lon="11.93107100151034"><ele>263.0</ele><time>2026-04-19T13:23:07.001Z</time></trkpt><trkpt lat="43.30446145076718" lon="11.930908867353446"><ele>263.0</ele><time>2026-04-19T13:23:08.001Z</time></trkpt><trkpt lat="43.3046412340501" lon="11.930760371391315"><ele>263.0</ele><time>2026-04-19T13:23:09.001Z</time></trkpt><trkpt lat="43.3048111362002" lon="11.930631263759464"><ele>263.0</ele><time>2026-04-19T13:23:10.001Z</time></trkpt><trkpt lat="43.304971224437104" lon="11.930489070337897"><ele>263.0</ele><time>2026-04-19T13:23:11.001Z</time></trkpt><trkpt lat="43.305141261907664" lon="11.930342063183453"><ele>263.0</ele><time>2026-04-19T13:23:12.001Z</time></trkpt><trkpt lat="43.30530925176937" lon="11.930185379305273"><ele>263.0</ele><time>2026-04-19T13:23:13.001Z</time></trkpt><trkpt lat="43.305478076039066" lon="11.930035822854046"><ele>262.0</ele><time>2026-04-19T13:23:14.001Z</time></trkpt><trkpt lat="43.30565697137916" lon="11.92988789342304"><ele>261.0</ele><time>2026-04-19T13:23:15.001Z</time></trkpt><trkpt lat="43.305833411287495" lon="11.929732526674089"><ele>260.0</ele><time>2026-04-19T13:23:16.001Z</time></trkpt><trkpt lat="43.30602307363764" lon="11.929610158749057"><ele>260.0</ele><time>2026-04-19T13:23:17.001Z</time></trkpt><trkpt lat="43.306203990858876" lon="11.92945699770907"><ele>260.0</ele><time>2026-04-19T13:23:18.001Z</time></trkpt><trkpt lat="43.306381113174936" lon="11.92930704950026"><ele>260.0</ele><time>2026-04-19T13:23:19.001Z</time></trkpt><trkpt lat="43.30655585528225" lon="11.929158766439976"><ele>261.33333333333337</ele><time>2026-04-19T13:23:20.001Z</time></trkpt><trkpt lat="43.30673088582116" lon="11.929009928284836"><ele>262.6666666666667</ele><time>2026-04-19T13:23:21.001Z</time></trkpt><trkpt lat="43.306904319634484" lon="11.928841170257323"><ele>264.0</ele><time>2026-04-19T13:23:22.001Z</time></trkpt><trkpt lat="43.30708222905786" lon="11.928688428492217"><ele>264.0</ele><time>2026-04-19T13:23:23.001Z</time></trkpt><trkpt lat="43.3072570188015" lon="11.92854289946721"><ele>264.0</ele><time>2026-04-19T13:23:24.001Z</time></trkpt><trkpt lat="43.307436725039096" lon="11.92839026824247"><ele>264.0</ele><time>2026-04-19T13:23:25.001Z</time></trkpt><trkpt lat="43.30761445237103" lon="11.928235185267413"><ele>264.0</ele><time>2026-04-19T13:23:26.001Z</time></trkpt><trkpt lat="43.307794249225275" lon="11.928077250351208"><ele>264.0</ele><time>2026-04-19T13:23:27.001Z</time></trkpt><trkpt lat="43.30797716409331" lon="11.927924004055173"><ele>264.0</ele><time>2026-04-19T13:23:28.001Z</time></trkpt><trkpt lat="43.308159313549915" lon="11.927770211311252"><ele>263.3333333333333</ele><time>2026-04-19T13:23:29.001Z</time></trkpt><trkpt lat="43.308341328920044" lon="11.927613345057532"><ele>262.66666666666663</ele><time>2026-04-19T13:23:30.001Z</time></trkpt><trkpt lat="43.30852128859729" lon="11.927460370510166"><ele>262.0</ele><time>2026-04-19T13:23:31.001Z</time></trkpt><trkpt lat="43.30869968121501" lon="11.927313408761668"><ele>262.0</ele><time>2026-04-19T13:23:32.001Z</time></trkpt><trkpt lat="43.308873499704866" lon="11.92715969980848"><ele>262.0</ele><time>2026-04-19T13:23:33.001Z</time></trkpt><trkpt lat="43.309041737745716" lon="11.92701245562803"><ele>262.0</ele><time>2026-04-19T13:23:34.001Z</time></trkpt><trkpt lat="43.30920676421815" lon="11.926871652490531"><ele>262.66666666666663</ele><time>2026-04-19T13:23:35.001Z</time></trkpt><trkpt lat="43.30937182501513" lon="11.926733255869431"><ele>263.3333333333333</ele><time>2026-04-19T13:23:36.001Z</time></trkpt><trkpt lat="43.30953554868077" lon="11.926603383009583"><ele>264.0</ele><time>2026-04-19T13:23:37.001Z</time></trkpt><trkpt lat="43.309701074803826" lon="11.92647704507717"><ele>267.0</ele><time>2026-04-19T13:23:38.001Z</time></trkpt><trkpt lat="43.309867857724456" lon="11.926354443598626"><ele>270.0</ele><time>2026-04-19T13:23:39.001Z</time></trkpt><trkpt lat="43.3100381530736" lon="11.92625024479129"><ele>273.0</ele><time>2026-04-19T13:23:40.001Z</time></trkpt><trkpt lat="43.31021746197818" lon="11.926153094968337"><ele>273.0</ele><time>2026-04-19T13:23:41.001Z</time></trkpt><trkpt lat="43.31039791148435" lon="11.926059966327138"><ele>273.0</ele><time>2026-04-19T13:23:42.001Z</time></trkpt><trkpt lat="43.31057704003781" lon="11.925962549325526"><ele>273.0</ele><time>2026-04-19T13:23:43.001Z</time></trkpt><trkpt lat="43.310760357717726" lon="11.925858881167695"><ele>271.3333333333333</ele><time>2026-04-19T13:23:44.001Z</time></trkpt><trkpt lat="43.310939922032794" lon="11.925752729412524"><ele>269.66666666666663</ele><time>2026-04-19T13:23:45.001Z</time></trkpt><trkpt lat="43.31112212983183" lon="11.925647380243204"><ele>268.0</ele><time>2026-04-19T13:23:46.001Z</time></trkpt><trkpt lat="43.311307550522756" lon="11.92554385096741"><ele>269.0</ele><time>2026-04-19T13:23:47.001Z</time></trkpt><trkpt lat="43.31149333646677" lon="11.92544695365713"><ele>270.0</ele><time>2026-04-19T13:23:48.001Z</time></trkpt><trkpt lat="43.31167545746965" lon="11.92534917642314"><ele>271.0</ele><time>2026-04-19T13:23:49.001Z</time></trkpt><trkpt lat="43.311858822455015" lon="11.925251577888366"><ele>271.0</ele><time>2026-04-19T13:23:50.001Z</time></trkpt><trkpt lat="43.31204287764837" lon="11.925151130397401"><ele>271.0</ele><time>2026-04-19T13:23:51.001Z</time></trkpt><trkpt lat="43.31222592819638" lon="11.925056250883088"><ele>271.0</ele><time>2026-04-19T13:23:52.001Z</time></trkpt><trkpt lat="43.312414586197896" lon="11.924974247181733"><ele>270.66666666666663</ele><time>2026-04-19T13:23:53.001Z</time></trkpt><trkpt lat="43.31260540618239" lon="11.924895443597887"><ele>270.3333333333333</ele><time>2026-04-19T13:23:54.001Z</time></trkpt><trkpt lat="43.31279992850067" lon="11.924793591567594"><ele>270.0</ele><time>2026-04-19T13:23:55.001Z</time></trkpt><trkpt lat="43.3129971975156" lon="11.924705861638046"><ele>269.6666666666667</ele><time>2026-04-19T13:23:56.001Z</time></trkpt><trkpt lat="43.31319941279499" lon="11.9246283819471"><ele>269.33333333333337</ele><time>2026-04-19T13:23:57.001Z</time></trkpt><trkpt lat="43.31340010067874" lon="11.924527671158772"><ele>269.0</ele><time>2026-04-19T13:23:58.001Z</time></trkpt><trkpt lat="43.31358161362921" lon="11.924420125070748"><ele>269.0</ele><time>2026-04-19T13:23:59.001Z</time></trkpt><trkpt lat="43.31376598096958" lon="11.924353775649312"><ele>269.0</ele><time>2026-04-19T13:24:00.001Z</time></trkpt><trkpt lat="43.31394368783462" lon="11.924248909262444"><ele>269.0</ele><time>2026-04-19T13:24:01.001Z</time></trkpt><trkpt lat="43.314126986068544" lon="11.924176196586949"><ele>267.33333333333337</ele><time>2026-04-19T13:24:02.001Z</time></trkpt><trkpt lat="43.31430755139533" lon="11.92414459805936"><ele>265.6666666666667</ele><time>2026-04-19T13:24:03.001Z</time></trkpt><trkpt lat="43.31447626105254" lon="11.92411677925272"><ele>264.0</ele><time>2026-04-19T13:24:04.001Z</time></trkpt><trkpt lat="43.314630347213495" lon="11.924082002088863"><ele>264.5</ele><time>2026-04-19T13:24:05.001Z</time></trkpt><trkpt lat="43.31477627158757" lon="11.92407113061105"><ele>265.0</ele><time>2026-04-19T13:24:06.001Z</time></trkpt><trkpt lat="43.31489443010579" lon="11.924052127281183"><ele>265.5</ele><time>2026-04-19T13:24:07.001Z</time></trkpt><trkpt lat="43.315007246430866" lon="11.924049550232429"><ele>266.0</ele><time>2026-04-19T13:24:08.001Z</time></trkpt><trkpt lat="43.31510063703927" lon="11.924031657157911"><ele>266.0</ele><time>2026-04-19T13:24:09Z</time></trkpt><trkpt lat="43.31516076583637" lon="11.924001581962857"><ele>266.0</ele><time>2026-04-19T13:24:10Z</time></trkpt><trkpt lat="43.31517438506584" lon="11.924151977276791"><ele>266.0</ele><time>2026-04-19T13:24:12Z</time></trkpt><trkpt lat="43.31519729084606" lon="11.924258448328862"><ele>266.0</ele><time>2026-04-19T13:24:13Z</time></trkpt><trkpt lat="43.31522719960959" lon="11.924389049486653"><ele>266.0</ele><time>2026-04-19T13:24:14Z</time></trkpt><trkpt lat="43.31526643799544" lon="11.924559614171608"><ele>267.6666666666667</ele><time>2026-04-19T13:24:15Z</time></trkpt><trkpt lat="43.315308805693" lon="11.924762668998843"><ele>269.3333333333333</ele><time>2026-04-19T13:24:16Z</time></trkpt><trkpt lat="43.315356624242305" lon="11.92497516145258"><ele>271.0</ele><time>2026-04-19T13:24:17Z</time></trkpt><trkpt lat="43.31544426583432" lon="11.9251695146497"><ele>273.40000000000003</ele><time>2026-04-19T13:24:18Z</time></trkpt><trkpt lat="43.31550992664751" lon="11.92532004153573"><ele>275.8</ele><time>2026-04-19T13:24:19Z</time></trkpt><trkpt lat="43.31556948524826" lon="11.925419209867753"><ele>278.20000000000005</ele><time>2026-04-19T13:24:20Z</time></trkpt><trkpt lat="43.315628608520015" lon="11.925489293695142"><ele>280.6</ele><time>2026-04-19T13:24:21Z</time></trkpt><trkpt lat="43.3156952326541" lon="11.925549200968492"><ele>283.0</ele><time>2026-04-19T13:24:22Z</time></trkpt><trkpt lat="43.31583729099145" lon="11.92548890436455"><ele>285.0</ele><time>2026-04-19T13:24:23Z</time></trkpt><trkpt lat="43.31599704717317" lon="11.92550972000167"><ele>287.0</ele><time>2026-04-19T13:24:24Z</time></trkpt><trkpt lat="43.31615823313285" lon="11.92552453983064"><ele>289.0</ele><time>2026-04-19T13:24:25Z</time></trkpt><trkpt lat="43.31633875345944" lon="11.925532469139604"><ele>288.3333333333333</ele><time>2026-04-19T13:24:26Z</time></trkpt><trkpt lat="43.31653110179796" lon="11.925553366294055"><ele>287.6666666666667</ele><time>2026-04-19T13:24:27Z</time></trkpt><trkpt lat="43.31671203867643" lon="11.925564884891536"><ele>287.0</ele><time>2026-04-19T13:24:28Z</time></trkpt><trkpt lat="43.31700185358911" lon="11.92562787573294"><ele>287.0</ele><time>2026-04-19T13:24:30Z</time></trkpt><trkpt lat="43.317134963680985" lon="11.925640946218705"><ele>287.0</ele><time>2026-04-19T13:24:31Z</time></trkpt><trkpt lat="43.31727342734702" lon="11.925608180715523"><ele>287.0</ele><time>2026-04-19T13:24:32Z</time></trkpt><trkpt lat="43.31740513273224" lon="11.9255318647593"><ele>287.0</ele><time>2026-04-19T13:24:33Z</time></trkpt><trkpt lat="43.31751802094153" lon="11.925409422895488"><ele>290.0</ele><time>2026-04-19T13:24:34Z</time></trkpt><trkpt lat="43.3176258373142" lon="11.925283390773238"><ele>293.0</ele><time>2026-04-19T13:24:35Z</time></trkpt><trkpt lat="43.317731118187254" lon="11.925196500534852"><ele>296.0</ele><time>2026-04-19T13:24:36Z</time></trkpt><trkpt lat="43.317822647212985" lon="11.925138119677424"><ele>299.0</ele><time>2026-04-19T13:24:37Z</time></trkpt><trkpt lat="43.317897256610195" lon="11.925109370228203"><ele>302.0</ele><time>2026-04-19T13:24:38Z</time></trkpt><trkpt lat="43.31799378896732" lon="11.925102336444224"><ele>302.0</ele><time>2026-04-19T13:24:40Z</time></trkpt><trkpt lat="43.31806052411298" lon="11.925270376646095"><ele>302.0</ele><time>2026-04-19T13:24:42Z</time></trkpt></trkseg></trk></gpx>